<?xml version="1.0" encoding="UTF-8" standalone="no" ?>
<gpx xmlns="http://www.topografix.com/GPX/1/1" xmlns:xsi="http://www.w3.org/2001/XMLSchema-instance" xsi:schemaLocation="http://www.topografix.com/GPX/1/1 http://www.topografix.com/GPX/1/1/gpx.xsd" version="1.1" creator="VisuGPX - https://www.visugpx.com">
  <metadata>
    <name>Boucle Epic Enduro</name>
    <desc><![CDATA[Equivalent d'une boucle de l'épic enduro comprenant les spéciales : 
 - mini jurassic (flow, peu de pente, quelques franchissements)
 - le pin (rapide et joueuse)
 - le bouscassou (rapide et joueuse, avec quelques remontées au milieu) 
 - la jurassic (très technique, beaucoup d'épingles et forte pente)]]></desc>
  </metadata>
  <trk>
    <name><![CDATA[Jurassic au mental mais sur le bike]]></name>
    <trkseg>
      <trkpt lat="43.56683" lon="2.96086">
        <ele>184</ele>
        <time>2018-02-25T07:24:11.000Z</time>
      </trkpt>
      <trkpt lat="43.5668" lon="2.96088">
        <ele>183.7</ele>
        <time>2018-02-25T07:25:23.000Z</time>
      </trkpt>
      <trkpt lat="43.56683" lon="2.96087">
        <ele>183.7</ele>
        <time>2018-02-25T07:25:31.000Z</time>
      </trkpt>
      <trkpt lat="43.56682" lon="2.96093">
        <ele>183.8</ele>
        <time>2018-02-25T07:27:26.000Z</time>
      </trkpt>
      <trkpt lat="43.5668" lon="2.96098">
        <ele>183.8</ele>
        <time>2018-02-25T07:27:28.000Z</time>
      </trkpt>
      <trkpt lat="43.56679" lon="2.96102">
        <ele>183.9</ele>
        <time>2018-02-25T07:27:30.000Z</time>
      </trkpt>
      <trkpt lat="43.56678" lon="2.96106">
        <ele>183.9</ele>
        <time>2018-02-25T07:27:33.000Z</time>
      </trkpt>
      <trkpt lat="43.56679" lon="2.9611">
        <ele>184</ele>
        <time>2018-02-25T07:27:36.000Z</time>
      </trkpt>
      <trkpt lat="43.5668" lon="2.96117">
        <ele>183.9</ele>
        <time>2018-02-25T07:27:38.000Z</time>
      </trkpt>
      <trkpt lat="43.5668" lon="2.96121">
        <ele>183.9</ele>
        <time>2018-02-25T07:27:39.000Z</time>
      </trkpt>
      <trkpt lat="43.56682" lon="2.96127">
        <ele>183.9</ele>
        <time>2018-02-25T07:27:41.000Z</time>
      </trkpt>
      <trkpt lat="43.56683" lon="2.96134">
        <ele>183.8</ele>
        <time>2018-02-25T07:27:43.000Z</time>
      </trkpt>
      <trkpt lat="43.56685" lon="2.96141">
        <ele>183.7</ele>
        <time>2018-02-25T07:27:45.000Z</time>
      </trkpt>
      <trkpt lat="43.56684" lon="2.96145">
        <ele>183.7</ele>
        <time>2018-02-25T07:27:47.000Z</time>
      </trkpt>
      <trkpt lat="43.56686" lon="2.96151">
        <ele>183.6</ele>
        <time>2018-02-25T07:27:49.000Z</time>
      </trkpt>
      <trkpt lat="43.56687" lon="2.96157">
        <ele>183.5</ele>
        <time>2018-02-25T07:27:51.000Z</time>
      </trkpt>
      <trkpt lat="43.56687" lon="2.96161">
        <ele>183.3</ele>
        <time>2018-02-25T07:27:52.000Z</time>
      </trkpt>
      <trkpt lat="43.56685" lon="2.96166">
        <ele>183.2</ele>
        <time>2018-02-25T07:27:53.000Z</time>
      </trkpt>
      <trkpt lat="43.56685" lon="2.96172">
        <ele>183.1</ele>
        <time>2018-02-25T07:27:55.000Z</time>
      </trkpt>
      <trkpt lat="43.56686" lon="2.96177">
        <ele>182.9</ele>
        <time>2018-02-25T07:27:57.000Z</time>
      </trkpt>
      <trkpt lat="43.56689" lon="2.96181">
        <ele>182.8</ele>
        <time>2018-02-25T07:27:59.000Z</time>
      </trkpt>
      <trkpt lat="43.56691" lon="2.96186">
        <ele>182.6</ele>
        <time>2018-02-25T07:28:01.000Z</time>
      </trkpt>
      <trkpt lat="43.56693" lon="2.9619">
        <ele>182.5</ele>
        <time>2018-02-25T07:28:03.000Z</time>
      </trkpt>
      <trkpt lat="43.56696" lon="2.96194">
        <ele>182.3</ele>
        <time>2018-02-25T07:28:05.000Z</time>
      </trkpt>
      <trkpt lat="43.56699" lon="2.96199">
        <ele>182.2</ele>
        <time>2018-02-25T07:28:07.000Z</time>
      </trkpt>
      <trkpt lat="43.567" lon="2.96205">
        <ele>182</ele>
        <time>2018-02-25T07:28:09.000Z</time>
      </trkpt>
      <trkpt lat="43.56701" lon="2.96212">
        <ele>181.8</ele>
        <time>2018-02-25T07:28:11.000Z</time>
      </trkpt>
      <trkpt lat="43.56702" lon="2.96218">
        <ele>181.6</ele>
        <time>2018-02-25T07:28:13.000Z</time>
      </trkpt>
      <trkpt lat="43.56702" lon="2.96225">
        <ele>181.3</ele>
        <time>2018-02-25T07:28:15.000Z</time>
      </trkpt>
      <trkpt lat="43.56702" lon="2.96232">
        <ele>180.9</ele>
        <time>2018-02-25T07:28:17.000Z</time>
      </trkpt>
      <trkpt lat="43.56705" lon="2.96236">
        <ele>180.8</ele>
        <time>2018-02-25T07:28:19.000Z</time>
      </trkpt>
      <trkpt lat="43.56707" lon="2.96242">
        <ele>180.6</ele>
        <time>2018-02-25T07:28:21.000Z</time>
      </trkpt>
      <trkpt lat="43.56709" lon="2.96248">
        <ele>180.4</ele>
        <time>2018-02-25T07:28:23.000Z</time>
      </trkpt>
      <trkpt lat="43.56711" lon="2.96254">
        <ele>180.2</ele>
        <time>2018-02-25T07:28:25.000Z</time>
      </trkpt>
      <trkpt lat="43.56713" lon="2.96261">
        <ele>180.1</ele>
        <time>2018-02-25T07:28:27.000Z</time>
      </trkpt>
      <trkpt lat="43.56715" lon="2.96264">
        <ele>180.2</ele>
        <time>2018-02-25T07:28:28.000Z</time>
      </trkpt>
      <trkpt lat="43.56716" lon="2.96268">
        <ele>180.3</ele>
        <time>2018-02-25T07:28:29.000Z</time>
      </trkpt>
      <trkpt lat="43.56718" lon="2.96271">
        <ele>180.4</ele>
        <time>2018-02-25T07:28:30.000Z</time>
      </trkpt>
      <trkpt lat="43.56721" lon="2.96276">
        <ele>180.5</ele>
        <time>2018-02-25T07:28:32.000Z</time>
      </trkpt>
      <trkpt lat="43.56723" lon="2.96281">
        <ele>180.6</ele>
        <time>2018-02-25T07:28:34.000Z</time>
      </trkpt>
      <trkpt lat="43.56725" lon="2.96285">
        <ele>180.7</ele>
        <time>2018-02-25T07:28:36.000Z</time>
      </trkpt>
      <trkpt lat="43.56727" lon="2.96288">
        <ele>180.8</ele>
        <time>2018-02-25T07:28:38.000Z</time>
      </trkpt>
      <trkpt lat="43.5673" lon="2.96292">
        <ele>180.9</ele>
        <time>2018-02-25T07:28:40.000Z</time>
      </trkpt>
      <trkpt lat="43.56734" lon="2.96296">
        <ele>180.9</ele>
        <time>2018-02-25T07:28:42.000Z</time>
      </trkpt>
      <trkpt lat="43.56737" lon="2.96302">
        <ele>181</ele>
        <time>2018-02-25T07:28:44.000Z</time>
      </trkpt>
      <trkpt lat="43.56738" lon="2.96306">
        <ele>181.1</ele>
        <time>2018-02-25T07:28:45.000Z</time>
      </trkpt>
      <trkpt lat="43.56739" lon="2.9631">
        <ele>181.1</ele>
        <time>2018-02-25T07:28:46.000Z</time>
      </trkpt>
      <trkpt lat="43.5674" lon="2.96313">
        <ele>181.2</ele>
        <time>2018-02-25T07:28:47.000Z</time>
      </trkpt>
      <trkpt lat="43.56743" lon="2.9632">
        <ele>181.3</ele>
        <time>2018-02-25T07:28:49.000Z</time>
      </trkpt>
      <trkpt lat="43.56746" lon="2.96326">
        <ele>181.3</ele>
        <time>2018-02-25T07:28:51.000Z</time>
      </trkpt>
      <trkpt lat="43.56747" lon="2.96329">
        <ele>181.4</ele>
        <time>2018-02-25T07:28:52.000Z</time>
      </trkpt>
      <trkpt lat="43.56748" lon="2.96333">
        <ele>181.4</ele>
        <time>2018-02-25T07:28:53.000Z</time>
      </trkpt>
      <trkpt lat="43.5675" lon="2.96337">
        <ele>181.6</ele>
        <time>2018-02-25T07:28:54.000Z</time>
      </trkpt>
      <trkpt lat="43.56751" lon="2.96342">
        <ele>181.8</ele>
        <time>2018-02-25T07:28:55.000Z</time>
      </trkpt>
      <trkpt lat="43.56752" lon="2.96346">
        <ele>181.9</ele>
        <time>2018-02-25T07:28:56.000Z</time>
      </trkpt>
      <trkpt lat="43.56754" lon="2.9635">
        <ele>182</ele>
        <time>2018-02-25T07:28:57.000Z</time>
      </trkpt>
      <trkpt lat="43.56756" lon="2.96353">
        <ele>182.1</ele>
        <time>2018-02-25T07:28:58.000Z</time>
      </trkpt>
      <trkpt lat="43.56759" lon="2.96356">
        <ele>182.2</ele>
        <time>2018-02-25T07:28:59.000Z</time>
      </trkpt>
      <trkpt lat="43.56762" lon="2.96358">
        <ele>182.3</ele>
        <time>2018-02-25T07:29:00.000Z</time>
      </trkpt>
      <trkpt lat="43.56765" lon="2.9636">
        <ele>182.4</ele>
        <time>2018-02-25T07:29:01.000Z</time>
      </trkpt>
      <trkpt lat="43.56767" lon="2.96361">
        <ele>182.5</ele>
        <time>2018-02-25T07:29:02.000Z</time>
      </trkpt>
      <trkpt lat="43.56772" lon="2.96364">
        <ele>182.7</ele>
        <time>2018-02-25T07:29:04.000Z</time>
      </trkpt>
      <trkpt lat="43.56776" lon="2.96367">
        <ele>182.8</ele>
        <time>2018-02-25T07:29:06.000Z</time>
      </trkpt>
      <trkpt lat="43.56778" lon="2.96374">
        <ele>182.6</ele>
        <time>2018-02-25T07:29:08.000Z</time>
      </trkpt>
      <trkpt lat="43.5678" lon="2.96379">
        <ele>182.1</ele>
        <time>2018-02-25T07:29:09.000Z</time>
      </trkpt>
      <trkpt lat="43.56782" lon="2.96383">
        <ele>181.7</ele>
        <time>2018-02-25T07:29:10.000Z</time>
      </trkpt>
      <trkpt lat="43.56784" lon="2.96387">
        <ele>181.4</ele>
        <time>2018-02-25T07:29:11.000Z</time>
      </trkpt>
      <trkpt lat="43.56785" lon="2.96391">
        <ele>181.1</ele>
        <time>2018-02-25T07:29:12.000Z</time>
      </trkpt>
      <trkpt lat="43.56786" lon="2.96395">
        <ele>181</ele>
        <time>2018-02-25T07:29:13.000Z</time>
      </trkpt>
      <trkpt lat="43.56787" lon="2.96399">
        <ele>180.9</ele>
        <time>2018-02-25T07:29:14.000Z</time>
      </trkpt>
      <trkpt lat="43.56789" lon="2.96403">
        <ele>180.8</ele>
        <time>2018-02-25T07:29:15.000Z</time>
      </trkpt>
      <trkpt lat="43.56791" lon="2.96406">
        <ele>180.7</ele>
        <time>2018-02-25T07:29:16.000Z</time>
      </trkpt>
      <trkpt lat="43.56792" lon="2.96409">
        <ele>180.6</ele>
        <time>2018-02-25T07:29:17.000Z</time>
      </trkpt>
      <trkpt lat="43.56794" lon="2.96412">
        <ele>180.6</ele>
        <time>2018-02-25T07:29:18.000Z</time>
      </trkpt>
      <trkpt lat="43.56796" lon="2.96415">
        <ele>180.5</ele>
        <time>2018-02-25T07:29:19.000Z</time>
      </trkpt>
      <trkpt lat="43.56798" lon="2.96418">
        <ele>180.4</ele>
        <time>2018-02-25T07:29:20.000Z</time>
      </trkpt>
      <trkpt lat="43.568" lon="2.96421">
        <ele>180.3</ele>
        <time>2018-02-25T07:29:21.000Z</time>
      </trkpt>
      <trkpt lat="43.56801" lon="2.96424">
        <ele>180.2</ele>
        <time>2018-02-25T07:29:22.000Z</time>
      </trkpt>
      <trkpt lat="43.56803" lon="2.96427">
        <ele>180.1</ele>
        <time>2018-02-25T07:29:23.000Z</time>
      </trkpt>
      <trkpt lat="43.56805" lon="2.9643">
        <ele>180</ele>
        <time>2018-02-25T07:29:24.000Z</time>
      </trkpt>
      <trkpt lat="43.56807" lon="2.96432">
        <ele>179.8</ele>
        <time>2018-02-25T07:29:25.000Z</time>
      </trkpt>
      <trkpt lat="43.56809" lon="2.96435">
        <ele>179.7</ele>
        <time>2018-02-25T07:29:26.000Z</time>
      </trkpt>
      <trkpt lat="43.56812" lon="2.9644">
        <ele>179.6</ele>
        <time>2018-02-25T07:29:28.000Z</time>
      </trkpt>
      <trkpt lat="43.56813" lon="2.96446">
        <ele>179.5</ele>
        <time>2018-02-25T07:29:30.000Z</time>
      </trkpt>
      <trkpt lat="43.56813" lon="2.9645">
        <ele>179.4</ele>
        <time>2018-02-25T07:29:31.000Z</time>
      </trkpt>
      <trkpt lat="43.56814" lon="2.96456">
        <ele>179.3</ele>
        <time>2018-02-25T07:29:33.000Z</time>
      </trkpt>
      <trkpt lat="43.56814" lon="2.96461">
        <ele>179.1</ele>
        <time>2018-02-25T07:29:35.000Z</time>
      </trkpt>
      <trkpt lat="43.5681" lon="2.96466">
        <ele>179</ele>
        <time>2018-02-25T07:29:37.000Z</time>
      </trkpt>
      <trkpt lat="43.56808" lon="2.96467">
        <ele>179</ele>
        <time>2018-02-25T07:29:38.000Z</time>
      </trkpt>
      <trkpt lat="43.56805" lon="2.96469">
        <ele>179</ele>
        <time>2018-02-25T07:29:39.000Z</time>
      </trkpt>
      <trkpt lat="43.56802" lon="2.96471">
        <ele>179</ele>
        <time>2018-02-25T07:29:40.000Z</time>
      </trkpt>
      <trkpt lat="43.568" lon="2.96472">
        <ele>179</ele>
        <time>2018-02-25T07:29:41.000Z</time>
      </trkpt>
      <trkpt lat="43.56797" lon="2.96474">
        <ele>179</ele>
        <time>2018-02-25T07:29:42.000Z</time>
      </trkpt>
      <trkpt lat="43.56795" lon="2.96476">
        <ele>179</ele>
        <time>2018-02-25T07:29:43.000Z</time>
      </trkpt>
      <trkpt lat="43.56792" lon="2.96478">
        <ele>179</ele>
        <time>2018-02-25T07:29:44.000Z</time>
      </trkpt>
      <trkpt lat="43.56788" lon="2.9648">
        <ele>179</ele>
        <time>2018-02-25T07:29:45.000Z</time>
      </trkpt>
      <trkpt lat="43.56786" lon="2.96481">
        <ele>179</ele>
        <time>2018-02-25T07:29:46.000Z</time>
      </trkpt>
      <trkpt lat="43.56783" lon="2.96483">
        <ele>179</ele>
        <time>2018-02-25T07:29:47.000Z</time>
      </trkpt>
      <trkpt lat="43.5678" lon="2.96484">
        <ele>179</ele>
        <time>2018-02-25T07:29:48.000Z</time>
      </trkpt>
      <trkpt lat="43.56776" lon="2.96487">
        <ele>179</ele>
        <time>2018-02-25T07:29:49.000Z</time>
      </trkpt>
      <trkpt lat="43.56772" lon="2.96489">
        <ele>179</ele>
        <time>2018-02-25T07:29:50.000Z</time>
      </trkpt>
      <trkpt lat="43.56768" lon="2.96491">
        <ele>178.7</ele>
        <time>2018-02-25T07:29:51.000Z</time>
      </trkpt>
      <trkpt lat="43.56764" lon="2.96494">
        <ele>178.1</ele>
        <time>2018-02-25T07:29:52.000Z</time>
      </trkpt>
      <trkpt lat="43.5676" lon="2.96496">
        <ele>177.4</ele>
        <time>2018-02-25T07:29:53.000Z</time>
      </trkpt>
      <trkpt lat="43.56757" lon="2.96498">
        <ele>176.8</ele>
        <time>2018-02-25T07:29:54.000Z</time>
      </trkpt>
      <trkpt lat="43.56754" lon="2.96501">
        <ele>176.3</ele>
        <time>2018-02-25T07:29:55.000Z</time>
      </trkpt>
      <trkpt lat="43.5675" lon="2.96504">
        <ele>175.7</ele>
        <time>2018-02-25T07:29:56.000Z</time>
      </trkpt>
      <trkpt lat="43.56748" lon="2.96507">
        <ele>175.2</ele>
        <time>2018-02-25T07:29:57.000Z</time>
      </trkpt>
      <trkpt lat="43.56745" lon="2.96511">
        <ele>174.7</ele>
        <time>2018-02-25T07:29:58.000Z</time>
      </trkpt>
      <trkpt lat="43.56743" lon="2.96515">
        <ele>174.2</ele>
        <time>2018-02-25T07:29:59.000Z</time>
      </trkpt>
      <trkpt lat="43.56741" lon="2.96519">
        <ele>173.7</ele>
        <time>2018-02-25T07:30:00.000Z</time>
      </trkpt>
      <trkpt lat="43.56739" lon="2.96523">
        <ele>173.2</ele>
        <time>2018-02-25T07:30:01.000Z</time>
      </trkpt>
      <trkpt lat="43.56738" lon="2.96527">
        <ele>172.7</ele>
        <time>2018-02-25T07:30:02.000Z</time>
      </trkpt>
      <trkpt lat="43.56736" lon="2.9653">
        <ele>172.3</ele>
        <time>2018-02-25T07:30:03.000Z</time>
      </trkpt>
      <trkpt lat="43.56734" lon="2.96532">
        <ele>172</ele>
        <time>2018-02-25T07:30:04.000Z</time>
      </trkpt>
      <trkpt lat="43.56731" lon="2.96534">
        <ele>171.6</ele>
        <time>2018-02-25T07:30:05.000Z</time>
      </trkpt>
      <trkpt lat="43.56728" lon="2.96535">
        <ele>170.9</ele>
        <time>2018-02-25T07:30:06.000Z</time>
      </trkpt>
      <trkpt lat="43.56724" lon="2.96536">
        <ele>170.8</ele>
        <time>2018-02-25T07:30:07.000Z</time>
      </trkpt>
      <trkpt lat="43.5672" lon="2.96536">
        <ele>170.8</ele>
        <time>2018-02-25T07:30:08.000Z</time>
      </trkpt>
      <trkpt lat="43.56716" lon="2.96536">
        <ele>170.7</ele>
        <time>2018-02-25T07:30:09.000Z</time>
      </trkpt>
      <trkpt lat="43.56714" lon="2.96537">
        <ele>170.7</ele>
        <time>2018-02-25T07:30:10.000Z</time>
      </trkpt>
      <trkpt lat="43.56708" lon="2.96538">
        <ele>170.6</ele>
        <time>2018-02-25T07:30:12.000Z</time>
      </trkpt>
      <trkpt lat="43.56705" lon="2.96539">
        <ele>170.6</ele>
        <time>2018-02-25T07:30:13.000Z</time>
      </trkpt>
      <trkpt lat="43.56702" lon="2.96539">
        <ele>170.5</ele>
        <time>2018-02-25T07:30:14.000Z</time>
      </trkpt>
      <trkpt lat="43.56698" lon="2.96539">
        <ele>170.5</ele>
        <time>2018-02-25T07:30:15.000Z</time>
      </trkpt>
      <trkpt lat="43.56695" lon="2.9654">
        <ele>170.5</ele>
        <time>2018-02-25T07:30:16.000Z</time>
      </trkpt>
      <trkpt lat="43.56692" lon="2.96541">
        <ele>170.5</ele>
        <time>2018-02-25T07:30:17.000Z</time>
      </trkpt>
      <trkpt lat="43.56688" lon="2.96543">
        <ele>170.5</ele>
        <time>2018-02-25T07:30:19.000Z</time>
      </trkpt>
      <trkpt lat="43.56685" lon="2.96545">
        <ele>170.5</ele>
        <time>2018-02-25T07:30:21.000Z</time>
      </trkpt>
      <trkpt lat="43.56683" lon="2.96551">
        <ele>170.5</ele>
        <time>2018-02-25T07:30:23.000Z</time>
      </trkpt>
      <trkpt lat="43.56682" lon="2.96555">
        <ele>170.6</ele>
        <time>2018-02-25T07:30:24.000Z</time>
      </trkpt>
      <trkpt lat="43.56683" lon="2.9656">
        <ele>170.7</ele>
        <time>2018-02-25T07:30:25.000Z</time>
      </trkpt>
      <trkpt lat="43.56683" lon="2.96564">
        <ele>171.2</ele>
        <time>2018-02-25T07:30:26.000Z</time>
      </trkpt>
      <trkpt lat="43.56684" lon="2.9657">
        <ele>171.3</ele>
        <time>2018-02-25T07:30:27.000Z</time>
      </trkpt>
      <trkpt lat="43.56684" lon="2.96575">
        <ele>171.4</ele>
        <time>2018-02-25T07:30:28.000Z</time>
      </trkpt>
      <trkpt lat="43.56684" lon="2.9658">
        <ele>171.5</ele>
        <time>2018-02-25T07:30:29.000Z</time>
      </trkpt>
      <trkpt lat="43.56684" lon="2.96585">
        <ele>171.6</ele>
        <time>2018-02-25T07:30:30.000Z</time>
      </trkpt>
      <trkpt lat="43.56684" lon="2.9659">
        <ele>171.6</ele>
        <time>2018-02-25T07:30:31.000Z</time>
      </trkpt>
      <trkpt lat="43.56683" lon="2.96595">
        <ele>171.7</ele>
        <time>2018-02-25T07:30:32.000Z</time>
      </trkpt>
      <trkpt lat="43.56682" lon="2.966">
        <ele>171.8</ele>
        <time>2018-02-25T07:30:33.000Z</time>
      </trkpt>
      <trkpt lat="43.56682" lon="2.96604">
        <ele>171.9</ele>
        <time>2018-02-25T07:30:34.000Z</time>
      </trkpt>
      <trkpt lat="43.56681" lon="2.96609">
        <ele>171.9</ele>
        <time>2018-02-25T07:30:35.000Z</time>
      </trkpt>
      <trkpt lat="43.5668" lon="2.96614">
        <ele>171.9</ele>
        <time>2018-02-25T07:30:36.000Z</time>
      </trkpt>
      <trkpt lat="43.56679" lon="2.96619">
        <ele>172</ele>
        <time>2018-02-25T07:30:37.000Z</time>
      </trkpt>
      <trkpt lat="43.56678" lon="2.96624">
        <ele>172.1</ele>
        <time>2018-02-25T07:30:38.000Z</time>
      </trkpt>
      <trkpt lat="43.56676" lon="2.96629">
        <ele>172.1</ele>
        <time>2018-02-25T07:30:39.000Z</time>
      </trkpt>
      <trkpt lat="43.56675" lon="2.96634">
        <ele>172.1</ele>
        <time>2018-02-25T07:30:40.000Z</time>
      </trkpt>
      <trkpt lat="43.56674" lon="2.9664">
        <ele>172.1</ele>
        <time>2018-02-25T07:30:41.000Z</time>
      </trkpt>
      <trkpt lat="43.56672" lon="2.96645">
        <ele>172.1</ele>
        <time>2018-02-25T07:30:42.000Z</time>
      </trkpt>
      <trkpt lat="43.5667" lon="2.9665">
        <ele>172.1</ele>
        <time>2018-02-25T07:30:43.000Z</time>
      </trkpt>
      <trkpt lat="43.56669" lon="2.96655">
        <ele>172.1</ele>
        <time>2018-02-25T07:30:44.000Z</time>
      </trkpt>
      <trkpt lat="43.56667" lon="2.9666">
        <ele>172.1</ele>
        <time>2018-02-25T07:30:45.000Z</time>
      </trkpt>
      <trkpt lat="43.56665" lon="2.96665">
        <ele>172.1</ele>
        <time>2018-02-25T07:30:46.000Z</time>
      </trkpt>
      <trkpt lat="43.56663" lon="2.9667">
        <ele>172</ele>
        <time>2018-02-25T07:30:47.000Z</time>
      </trkpt>
      <trkpt lat="43.56661" lon="2.96675">
        <ele>172</ele>
        <time>2018-02-25T07:30:48.000Z</time>
      </trkpt>
      <trkpt lat="43.56659" lon="2.96681">
        <ele>172</ele>
        <time>2018-02-25T07:30:49.000Z</time>
      </trkpt>
      <trkpt lat="43.56657" lon="2.96686">
        <ele>172</ele>
        <time>2018-02-25T07:30:50.000Z</time>
      </trkpt>
      <trkpt lat="43.56656" lon="2.96691">
        <ele>172</ele>
        <time>2018-02-25T07:30:51.000Z</time>
      </trkpt>
      <trkpt lat="43.56654" lon="2.96696">
        <ele>172</ele>
        <time>2018-02-25T07:30:52.000Z</time>
      </trkpt>
      <trkpt lat="43.56652" lon="2.96701">
        <ele>172</ele>
        <time>2018-02-25T07:30:53.000Z</time>
      </trkpt>
      <trkpt lat="43.5665" lon="2.96706">
        <ele>172</ele>
        <time>2018-02-25T07:30:54.000Z</time>
      </trkpt>
      <trkpt lat="43.56648" lon="2.96711">
        <ele>172</ele>
        <time>2018-02-25T07:30:55.000Z</time>
      </trkpt>
      <trkpt lat="43.56646" lon="2.96716">
        <ele>172.1</ele>
        <time>2018-02-25T07:30:56.000Z</time>
      </trkpt>
      <trkpt lat="43.56645" lon="2.96721">
        <ele>172.1</ele>
        <time>2018-02-25T07:30:57.000Z</time>
      </trkpt>
      <trkpt lat="43.56643" lon="2.96725">
        <ele>172.1</ele>
        <time>2018-02-25T07:30:58.000Z</time>
      </trkpt>
      <trkpt lat="43.56641" lon="2.96729">
        <ele>172.1</ele>
        <time>2018-02-25T07:30:59.000Z</time>
      </trkpt>
      <trkpt lat="43.56639" lon="2.96734">
        <ele>172.1</ele>
        <time>2018-02-25T07:31:00.000Z</time>
      </trkpt>
      <trkpt lat="43.56638" lon="2.96739">
        <ele>172.1</ele>
        <time>2018-02-25T07:31:01.000Z</time>
      </trkpt>
      <trkpt lat="43.56636" lon="2.96743">
        <ele>172.1</ele>
        <time>2018-02-25T07:31:02.000Z</time>
      </trkpt>
      <trkpt lat="43.56634" lon="2.96747">
        <ele>172.1</ele>
        <time>2018-02-25T07:31:03.000Z</time>
      </trkpt>
      <trkpt lat="43.56632" lon="2.96752">
        <ele>172.1</ele>
        <time>2018-02-25T07:31:04.000Z</time>
      </trkpt>
      <trkpt lat="43.5663" lon="2.96756">
        <ele>172</ele>
        <time>2018-02-25T07:31:05.000Z</time>
      </trkpt>
      <trkpt lat="43.56628" lon="2.9676">
        <ele>171.9</ele>
        <time>2018-02-25T07:31:06.000Z</time>
      </trkpt>
      <trkpt lat="43.56626" lon="2.96764">
        <ele>171.8</ele>
        <time>2018-02-25T07:31:07.000Z</time>
      </trkpt>
      <trkpt lat="43.56624" lon="2.96769">
        <ele>171.7</ele>
        <time>2018-02-25T07:31:08.000Z</time>
      </trkpt>
      <trkpt lat="43.56622" lon="2.96773">
        <ele>171.6</ele>
        <time>2018-02-25T07:31:09.000Z</time>
      </trkpt>
      <trkpt lat="43.5662" lon="2.96778">
        <ele>171.5</ele>
        <time>2018-02-25T07:31:10.000Z</time>
      </trkpt>
      <trkpt lat="43.56618" lon="2.96782">
        <ele>171.5</ele>
        <time>2018-02-25T07:31:11.000Z</time>
      </trkpt>
      <trkpt lat="43.56616" lon="2.96787">
        <ele>171.5</ele>
        <time>2018-02-25T07:31:12.000Z</time>
      </trkpt>
      <trkpt lat="43.56615" lon="2.96791">
        <ele>171.4</ele>
        <time>2018-02-25T07:31:13.000Z</time>
      </trkpt>
      <trkpt lat="43.56613" lon="2.96796">
        <ele>171.4</ele>
        <time>2018-02-25T07:31:14.000Z</time>
      </trkpt>
      <trkpt lat="43.56611" lon="2.96802">
        <ele>171.4</ele>
        <time>2018-02-25T07:31:15.000Z</time>
      </trkpt>
      <trkpt lat="43.5661" lon="2.96807">
        <ele>171.3</ele>
        <time>2018-02-25T07:31:16.000Z</time>
      </trkpt>
      <trkpt lat="43.56608" lon="2.96813">
        <ele>171.3</ele>
        <time>2018-02-25T07:31:17.000Z</time>
      </trkpt>
      <trkpt lat="43.56607" lon="2.96818">
        <ele>171.3</ele>
        <time>2018-02-25T07:31:18.000Z</time>
      </trkpt>
      <trkpt lat="43.56606" lon="2.96823">
        <ele>171.3</ele>
        <time>2018-02-25T07:31:19.000Z</time>
      </trkpt>
      <trkpt lat="43.56604" lon="2.96829">
        <ele>171.3</ele>
        <time>2018-02-25T07:31:20.000Z</time>
      </trkpt>
      <trkpt lat="43.56603" lon="2.96834">
        <ele>171.3</ele>
        <time>2018-02-25T07:31:21.000Z</time>
      </trkpt>
      <trkpt lat="43.56602" lon="2.9684">
        <ele>171.2</ele>
        <time>2018-02-25T07:31:22.000Z</time>
      </trkpt>
      <trkpt lat="43.56601" lon="2.96845">
        <ele>171.2</ele>
        <time>2018-02-25T07:31:23.000Z</time>
      </trkpt>
      <trkpt lat="43.566" lon="2.96852">
        <ele>171.2</ele>
        <time>2018-02-25T07:31:24.000Z</time>
      </trkpt>
      <trkpt lat="43.56598" lon="2.96858">
        <ele>171.2</ele>
        <time>2018-02-25T07:31:25.000Z</time>
      </trkpt>
      <trkpt lat="43.56596" lon="2.96864">
        <ele>171.1</ele>
        <time>2018-02-25T07:31:26.000Z</time>
      </trkpt>
      <trkpt lat="43.56594" lon="2.96871">
        <ele>171</ele>
        <time>2018-02-25T07:31:27.000Z</time>
      </trkpt>
      <trkpt lat="43.56593" lon="2.96877">
        <ele>170.9</ele>
        <time>2018-02-25T07:31:28.000Z</time>
      </trkpt>
      <trkpt lat="43.56593" lon="2.96881">
        <ele>170.8</ele>
        <time>2018-02-25T07:31:29.000Z</time>
      </trkpt>
      <trkpt lat="43.56592" lon="2.96886">
        <ele>170.7</ele>
        <time>2018-02-25T07:31:30.000Z</time>
      </trkpt>
      <trkpt lat="43.56591" lon="2.96891">
        <ele>170.7</ele>
        <time>2018-02-25T07:31:31.000Z</time>
      </trkpt>
      <trkpt lat="43.5659" lon="2.96895">
        <ele>170.6</ele>
        <time>2018-02-25T07:31:32.000Z</time>
      </trkpt>
      <trkpt lat="43.56588" lon="2.969">
        <ele>170.5</ele>
        <time>2018-02-25T07:31:33.000Z</time>
      </trkpt>
      <trkpt lat="43.56589" lon="2.96908">
        <ele>170.5</ele>
        <time>2018-02-25T07:31:35.000Z</time>
      </trkpt>
      <trkpt lat="43.56588" lon="2.96914">
        <ele>170.5</ele>
        <time>2018-02-25T07:31:36.000Z</time>
      </trkpt>
      <trkpt lat="43.56587" lon="2.96919">
        <ele>170.5</ele>
        <time>2018-02-25T07:31:37.000Z</time>
      </trkpt>
      <trkpt lat="43.56587" lon="2.96924">
        <ele>170.5</ele>
        <time>2018-02-25T07:31:38.000Z</time>
      </trkpt>
      <trkpt lat="43.56586" lon="2.96929">
        <ele>170.5</ele>
        <time>2018-02-25T07:31:39.000Z</time>
      </trkpt>
      <trkpt lat="43.56586" lon="2.96934">
        <ele>170.5</ele>
        <time>2018-02-25T07:31:40.000Z</time>
      </trkpt>
      <trkpt lat="43.56585" lon="2.9694">
        <ele>170.5</ele>
        <time>2018-02-25T07:31:41.000Z</time>
      </trkpt>
      <trkpt lat="43.56585" lon="2.96945">
        <ele>170.4</ele>
        <time>2018-02-25T07:31:42.000Z</time>
      </trkpt>
      <trkpt lat="43.56584" lon="2.9695">
        <ele>170.4</ele>
        <time>2018-02-25T07:31:43.000Z</time>
      </trkpt>
      <trkpt lat="43.56583" lon="2.96956">
        <ele>170.4</ele>
        <time>2018-02-25T07:31:44.000Z</time>
      </trkpt>
      <trkpt lat="43.56583" lon="2.96961">
        <ele>170.4</ele>
        <time>2018-02-25T07:31:45.000Z</time>
      </trkpt>
      <trkpt lat="43.56582" lon="2.96967">
        <ele>170.4</ele>
        <time>2018-02-25T07:31:46.000Z</time>
      </trkpt>
      <trkpt lat="43.56581" lon="2.96972">
        <ele>170.4</ele>
        <time>2018-02-25T07:31:47.000Z</time>
      </trkpt>
      <trkpt lat="43.56581" lon="2.96976">
        <ele>170.4</ele>
        <time>2018-02-25T07:31:48.000Z</time>
      </trkpt>
      <trkpt lat="43.56582" lon="2.96983">
        <ele>170.3</ele>
        <time>2018-02-25T07:31:50.000Z</time>
      </trkpt>
      <trkpt lat="43.56582" lon="2.96988">
        <ele>170.2</ele>
        <time>2018-02-25T07:31:51.000Z</time>
      </trkpt>
      <trkpt lat="43.56583" lon="2.96993">
        <ele>170.1</ele>
        <time>2018-02-25T07:31:52.000Z</time>
      </trkpt>
      <trkpt lat="43.56583" lon="2.96999">
        <ele>170</ele>
        <time>2018-02-25T07:31:53.000Z</time>
      </trkpt>
      <trkpt lat="43.56583" lon="2.97005">
        <ele>169.9</ele>
        <time>2018-02-25T07:31:54.000Z</time>
      </trkpt>
      <trkpt lat="43.56584" lon="2.9701">
        <ele>169.8</ele>
        <time>2018-02-25T07:31:55.000Z</time>
      </trkpt>
      <trkpt lat="43.56584" lon="2.97015">
        <ele>169.8</ele>
        <time>2018-02-25T07:31:56.000Z</time>
      </trkpt>
      <trkpt lat="43.56583" lon="2.97022">
        <ele>169.7</ele>
        <time>2018-02-25T07:31:57.000Z</time>
      </trkpt>
      <trkpt lat="43.56583" lon="2.97027">
        <ele>169.7</ele>
        <time>2018-02-25T07:31:58.000Z</time>
      </trkpt>
      <trkpt lat="43.56583" lon="2.97033">
        <ele>169.7</ele>
        <time>2018-02-25T07:31:59.000Z</time>
      </trkpt>
      <trkpt lat="43.56583" lon="2.97039">
        <ele>169.7</ele>
        <time>2018-02-25T07:32:00.000Z</time>
      </trkpt>
      <trkpt lat="43.56583" lon="2.97046">
        <ele>169.7</ele>
        <time>2018-02-25T07:32:01.000Z</time>
      </trkpt>
      <trkpt lat="43.56583" lon="2.97052">
        <ele>169.7</ele>
        <time>2018-02-25T07:32:02.000Z</time>
      </trkpt>
      <trkpt lat="43.56583" lon="2.97058">
        <ele>169.7</ele>
        <time>2018-02-25T07:32:03.000Z</time>
      </trkpt>
      <trkpt lat="43.56583" lon="2.97065">
        <ele>169.7</ele>
        <time>2018-02-25T07:32:04.000Z</time>
      </trkpt>
      <trkpt lat="43.56583" lon="2.97071">
        <ele>169.6</ele>
        <time>2018-02-25T07:32:05.000Z</time>
      </trkpt>
      <trkpt lat="43.56583" lon="2.97078">
        <ele>169.6</ele>
        <time>2018-02-25T07:32:06.000Z</time>
      </trkpt>
      <trkpt lat="43.56582" lon="2.97084">
        <ele>169.5</ele>
        <time>2018-02-25T07:32:07.000Z</time>
      </trkpt>
      <trkpt lat="43.56581" lon="2.97095">
        <ele>169.3</ele>
        <time>2018-02-25T07:32:09.000Z</time>
      </trkpt>
      <trkpt lat="43.56583" lon="2.97099">
        <ele>169.2</ele>
        <time>2018-02-25T07:32:11.000Z</time>
      </trkpt>
      <trkpt lat="43.56582" lon="2.97104">
        <ele>169.1</ele>
        <time>2018-02-25T07:32:12.000Z</time>
      </trkpt>
      <trkpt lat="43.56582" lon="2.9711">
        <ele>169.1</ele>
        <time>2018-02-25T07:32:13.000Z</time>
      </trkpt>
      <trkpt lat="43.56581" lon="2.97115">
        <ele>169</ele>
        <time>2018-02-25T07:32:14.000Z</time>
      </trkpt>
      <trkpt lat="43.5658" lon="2.97123">
        <ele>169</ele>
        <time>2018-02-25T07:32:15.000Z</time>
      </trkpt>
      <trkpt lat="43.56579" lon="2.97129">
        <ele>169</ele>
        <time>2018-02-25T07:32:16.000Z</time>
      </trkpt>
      <trkpt lat="43.56578" lon="2.97136">
        <ele>169</ele>
        <time>2018-02-25T07:32:17.000Z</time>
      </trkpt>
      <trkpt lat="43.56577" lon="2.9714">
        <ele>169</ele>
        <time>2018-02-25T07:32:18.000Z</time>
      </trkpt>
      <trkpt lat="43.56577" lon="2.97146">
        <ele>169</ele>
        <time>2018-02-25T07:32:19.000Z</time>
      </trkpt>
      <trkpt lat="43.56576" lon="2.97152">
        <ele>169</ele>
        <time>2018-02-25T07:32:20.000Z</time>
      </trkpt>
      <trkpt lat="43.56575" lon="2.97158">
        <ele>169</ele>
        <time>2018-02-25T07:32:21.000Z</time>
      </trkpt>
      <trkpt lat="43.56574" lon="2.97163">
        <ele>169</ele>
        <time>2018-02-25T07:32:22.000Z</time>
      </trkpt>
      <trkpt lat="43.56572" lon="2.97168">
        <ele>168.1</ele>
        <time>2018-02-25T07:32:23.000Z</time>
      </trkpt>
      <trkpt lat="43.56569" lon="2.97177">
        <ele>166.1</ele>
        <time>2018-02-25T07:32:24.000Z</time>
      </trkpt>
      <trkpt lat="43.56567" lon="2.97186">
        <ele>164.1</ele>
        <time>2018-02-25T07:32:25.000Z</time>
      </trkpt>
      <trkpt lat="43.56566" lon="2.97192">
        <ele>162.5</ele>
        <time>2018-02-25T07:32:26.000Z</time>
      </trkpt>
      <trkpt lat="43.56565" lon="2.97197">
        <ele>161.1</ele>
        <time>2018-02-25T07:32:27.000Z</time>
      </trkpt>
      <trkpt lat="43.56564" lon="2.97203">
        <ele>159.2</ele>
        <time>2018-02-25T07:32:28.000Z</time>
      </trkpt>
      <trkpt lat="43.56561" lon="2.97212">
        <ele>156.1</ele>
        <time>2018-02-25T07:32:30.000Z</time>
      </trkpt>
      <trkpt lat="43.5656" lon="2.97219">
        <ele>154.1</ele>
        <time>2018-02-25T07:32:31.000Z</time>
      </trkpt>
      <trkpt lat="43.56559" lon="2.97225">
        <ele>153.2</ele>
        <time>2018-02-25T07:32:32.000Z</time>
      </trkpt>
      <trkpt lat="43.56558" lon="2.97231">
        <ele>152.5</ele>
        <time>2018-02-25T07:32:33.000Z</time>
      </trkpt>
      <trkpt lat="43.56557" lon="2.97237">
        <ele>151.9</ele>
        <time>2018-02-25T07:32:34.000Z</time>
      </trkpt>
      <trkpt lat="43.56556" lon="2.97243">
        <ele>151.2</ele>
        <time>2018-02-25T07:32:35.000Z</time>
      </trkpt>
      <trkpt lat="43.56556" lon="2.97249">
        <ele>150.5</ele>
        <time>2018-02-25T07:32:36.000Z</time>
      </trkpt>
      <trkpt lat="43.56555" lon="2.97254">
        <ele>149.9</ele>
        <time>2018-02-25T07:32:37.000Z</time>
      </trkpt>
      <trkpt lat="43.56554" lon="2.97261">
        <ele>149.1</ele>
        <time>2018-02-25T07:32:38.000Z</time>
      </trkpt>
      <trkpt lat="43.56553" lon="2.97268">
        <ele>149</ele>
        <time>2018-02-25T07:32:39.000Z</time>
      </trkpt>
      <trkpt lat="43.56552" lon="2.97274">
        <ele>149</ele>
        <time>2018-02-25T07:32:40.000Z</time>
      </trkpt>
      <trkpt lat="43.56553" lon="2.9728">
        <ele>149</ele>
        <time>2018-02-25T07:32:41.000Z</time>
      </trkpt>
      <trkpt lat="43.56553" lon="2.97286">
        <ele>149</ele>
        <time>2018-02-25T07:32:42.000Z</time>
      </trkpt>
      <trkpt lat="43.56553" lon="2.97292">
        <ele>149</ele>
        <time>2018-02-25T07:32:43.000Z</time>
      </trkpt>
      <trkpt lat="43.56553" lon="2.97298">
        <ele>149</ele>
        <time>2018-02-25T07:32:44.000Z</time>
      </trkpt>
      <trkpt lat="43.56553" lon="2.97304">
        <ele>149</ele>
        <time>2018-02-25T07:32:45.000Z</time>
      </trkpt>
      <trkpt lat="43.56553" lon="2.9731">
        <ele>149</ele>
        <time>2018-02-25T07:32:46.000Z</time>
      </trkpt>
      <trkpt lat="43.56554" lon="2.97316">
        <ele>149</ele>
        <time>2018-02-25T07:32:47.000Z</time>
      </trkpt>
      <trkpt lat="43.56554" lon="2.97322">
        <ele>149</ele>
        <time>2018-02-25T07:32:48.000Z</time>
      </trkpt>
      <trkpt lat="43.56554" lon="2.97329">
        <ele>148.8</ele>
        <time>2018-02-25T07:32:49.000Z</time>
      </trkpt>
      <trkpt lat="43.56553" lon="2.97338">
        <ele>148.7</ele>
        <time>2018-02-25T07:32:50.000Z</time>
      </trkpt>
      <trkpt lat="43.56555" lon="2.97343">
        <ele>148.6</ele>
        <time>2018-02-25T07:32:51.000Z</time>
      </trkpt>
      <trkpt lat="43.56556" lon="2.97346">
        <ele>148.6</ele>
        <time>2018-02-25T07:32:52.000Z</time>
      </trkpt>
      <trkpt lat="43.56557" lon="2.97352">
        <ele>148.5</ele>
        <time>2018-02-25T07:32:53.000Z</time>
      </trkpt>
      <trkpt lat="43.56558" lon="2.97356">
        <ele>148.4</ele>
        <time>2018-02-25T07:32:54.000Z</time>
      </trkpt>
      <trkpt lat="43.56558" lon="2.97361">
        <ele>148.3</ele>
        <time>2018-02-25T07:32:55.000Z</time>
      </trkpt>
      <trkpt lat="43.56556" lon="2.97367">
        <ele>148</ele>
        <time>2018-02-25T07:32:56.000Z</time>
      </trkpt>
      <trkpt lat="43.56554" lon="2.97372">
        <ele>148</ele>
        <time>2018-02-25T07:32:57.000Z</time>
      </trkpt>
      <trkpt lat="43.56551" lon="2.97379">
        <ele>148</ele>
        <time>2018-02-25T07:32:58.000Z</time>
      </trkpt>
      <trkpt lat="43.56546" lon="2.97391">
        <ele>148</ele>
        <time>2018-02-25T07:32:59.000Z</time>
      </trkpt>
      <trkpt lat="43.56542" lon="2.97394">
        <ele>148</ele>
        <time>2018-02-25T07:33:00.000Z</time>
      </trkpt>
      <trkpt lat="43.56538" lon="2.97399">
        <ele>148</ele>
        <time>2018-02-25T07:33:01.000Z</time>
      </trkpt>
      <trkpt lat="43.56533" lon="2.97402">
        <ele>147.8</ele>
        <time>2018-02-25T07:33:02.000Z</time>
      </trkpt>
      <trkpt lat="43.56528" lon="2.97407">
        <ele>147.2</ele>
        <time>2018-02-25T07:33:03.000Z</time>
      </trkpt>
      <trkpt lat="43.56523" lon="2.97411">
        <ele>146.6</ele>
        <time>2018-02-25T07:33:04.000Z</time>
      </trkpt>
      <trkpt lat="43.56519" lon="2.97413">
        <ele>146.2</ele>
        <time>2018-02-25T07:33:05.000Z</time>
      </trkpt>
      <trkpt lat="43.56514" lon="2.97417">
        <ele>145.7</ele>
        <time>2018-02-25T07:33:06.000Z</time>
      </trkpt>
      <trkpt lat="43.56513" lon="2.97426">
        <ele>145.1</ele>
        <time>2018-02-25T07:33:07.000Z</time>
      </trkpt>
      <trkpt lat="43.56508" lon="2.97428">
        <ele>145</ele>
        <time>2018-02-25T07:33:08.000Z</time>
      </trkpt>
      <trkpt lat="43.56503" lon="2.97433">
        <ele>144.9</ele>
        <time>2018-02-25T07:33:09.000Z</time>
      </trkpt>
      <trkpt lat="43.56498" lon="2.97436">
        <ele>144.9</ele>
        <time>2018-02-25T07:33:10.000Z</time>
      </trkpt>
      <trkpt lat="43.56494" lon="2.97438">
        <ele>144.9</ele>
        <time>2018-02-25T07:33:11.000Z</time>
      </trkpt>
      <trkpt lat="43.5649" lon="2.97442">
        <ele>144.9</ele>
        <time>2018-02-25T07:33:12.000Z</time>
      </trkpt>
      <trkpt lat="43.56484" lon="2.97446">
        <ele>144.9</ele>
        <time>2018-02-25T07:33:13.000Z</time>
      </trkpt>
      <trkpt lat="43.5648" lon="2.97446">
        <ele>144.8</ele>
        <time>2018-02-25T07:33:14.000Z</time>
      </trkpt>
      <trkpt lat="43.56475" lon="2.97452">
        <ele>144.8</ele>
        <time>2018-02-25T07:33:15.000Z</time>
      </trkpt>
      <trkpt lat="43.56471" lon="2.97454">
        <ele>144.8</ele>
        <time>2018-02-25T07:33:16.000Z</time>
      </trkpt>
      <trkpt lat="43.56468" lon="2.97456">
        <ele>144.8</ele>
        <time>2018-02-25T07:33:17.000Z</time>
      </trkpt>
      <trkpt lat="43.56463" lon="2.97462">
        <ele>144.7</ele>
        <time>2018-02-25T07:33:19.000Z</time>
      </trkpt>
      <trkpt lat="43.56459" lon="2.97465">
        <ele>144.7</ele>
        <time>2018-02-25T07:33:20.000Z</time>
      </trkpt>
      <trkpt lat="43.56455" lon="2.97471">
        <ele>144.7</ele>
        <time>2018-02-25T07:33:21.000Z</time>
      </trkpt>
      <trkpt lat="43.5645" lon="2.97474">
        <ele>144.7</ele>
        <time>2018-02-25T07:33:22.000Z</time>
      </trkpt>
      <trkpt lat="43.56447" lon="2.97477">
        <ele>144.6</ele>
        <time>2018-02-25T07:33:23.000Z</time>
      </trkpt>
      <trkpt lat="43.56444" lon="2.97479">
        <ele>144.6</ele>
        <time>2018-02-25T07:33:24.000Z</time>
      </trkpt>
      <trkpt lat="43.56441" lon="2.97482">
        <ele>144.6</ele>
        <time>2018-02-25T07:33:25.000Z</time>
      </trkpt>
      <trkpt lat="43.56438" lon="2.97485">
        <ele>144.5</ele>
        <time>2018-02-25T07:33:26.000Z</time>
      </trkpt>
      <trkpt lat="43.56435" lon="2.97488">
        <ele>144.5</ele>
        <time>2018-02-25T07:33:27.000Z</time>
      </trkpt>
      <trkpt lat="43.56432" lon="2.97491">
        <ele>144.5</ele>
        <time>2018-02-25T07:33:28.000Z</time>
      </trkpt>
      <trkpt lat="43.5643" lon="2.97494">
        <ele>144.5</ele>
        <time>2018-02-25T07:33:29.000Z</time>
      </trkpt>
      <trkpt lat="43.56427" lon="2.97498">
        <ele>144.4</ele>
        <time>2018-02-25T07:33:30.000Z</time>
      </trkpt>
      <trkpt lat="43.56424" lon="2.97502">
        <ele>144.3</ele>
        <time>2018-02-25T07:33:31.000Z</time>
      </trkpt>
      <trkpt lat="43.56421" lon="2.97504">
        <ele>144.3</ele>
        <time>2018-02-25T07:33:33.000Z</time>
      </trkpt>
      <trkpt lat="43.56418" lon="2.97505">
        <ele>144.2</ele>
        <time>2018-02-25T07:33:34.000Z</time>
      </trkpt>
      <trkpt lat="43.56414" lon="2.97508">
        <ele>144.1</ele>
        <time>2018-02-25T07:33:35.000Z</time>
      </trkpt>
      <trkpt lat="43.5641" lon="2.97511">
        <ele>144.1</ele>
        <time>2018-02-25T07:33:36.000Z</time>
      </trkpt>
      <trkpt lat="43.56406" lon="2.97515">
        <ele>144</ele>
        <time>2018-02-25T07:33:37.000Z</time>
      </trkpt>
      <trkpt lat="43.56403" lon="2.97518">
        <ele>143.8</ele>
        <time>2018-02-25T07:33:38.000Z</time>
      </trkpt>
      <trkpt lat="43.564" lon="2.97521">
        <ele>143.5</ele>
        <time>2018-02-25T07:33:39.000Z</time>
      </trkpt>
      <trkpt lat="43.56396" lon="2.97524">
        <ele>143.3</ele>
        <time>2018-02-25T07:33:40.000Z</time>
      </trkpt>
      <trkpt lat="43.56393" lon="2.97527">
        <ele>143.1</ele>
        <time>2018-02-25T07:33:41.000Z</time>
      </trkpt>
      <trkpt lat="43.5639" lon="2.9753">
        <ele>142.9</ele>
        <time>2018-02-25T07:33:42.000Z</time>
      </trkpt>
      <trkpt lat="43.56387" lon="2.97533">
        <ele>142.7</ele>
        <time>2018-02-25T07:33:43.000Z</time>
      </trkpt>
      <trkpt lat="43.56384" lon="2.97536">
        <ele>142.5</ele>
        <time>2018-02-25T07:33:44.000Z</time>
      </trkpt>
      <trkpt lat="43.56381" lon="2.97538">
        <ele>142.3</ele>
        <time>2018-02-25T07:33:45.000Z</time>
      </trkpt>
      <trkpt lat="43.56378" lon="2.9754">
        <ele>142.1</ele>
        <time>2018-02-25T07:33:46.000Z</time>
      </trkpt>
      <trkpt lat="43.56375" lon="2.97542">
        <ele>142</ele>
        <time>2018-02-25T07:33:47.000Z</time>
      </trkpt>
      <trkpt lat="43.56371" lon="2.97544">
        <ele>141.8</ele>
        <time>2018-02-25T07:33:48.000Z</time>
      </trkpt>
      <trkpt lat="43.56368" lon="2.97545">
        <ele>141.6</ele>
        <time>2018-02-25T07:33:49.000Z</time>
      </trkpt>
      <trkpt lat="43.56365" lon="2.97546">
        <ele>141.4</ele>
        <time>2018-02-25T07:33:50.000Z</time>
      </trkpt>
      <trkpt lat="43.56362" lon="2.97547">
        <ele>141.3</ele>
        <time>2018-02-25T07:33:51.000Z</time>
      </trkpt>
      <trkpt lat="43.56358" lon="2.97548">
        <ele>141.1</ele>
        <time>2018-02-25T07:33:52.000Z</time>
      </trkpt>
      <trkpt lat="43.56355" lon="2.9755">
        <ele>140.9</ele>
        <time>2018-02-25T07:33:53.000Z</time>
      </trkpt>
      <trkpt lat="43.56351" lon="2.97552">
        <ele>140.6</ele>
        <time>2018-02-25T07:33:54.000Z</time>
      </trkpt>
      <trkpt lat="43.56347" lon="2.97554">
        <ele>140.2</ele>
        <time>2018-02-25T07:33:55.000Z</time>
      </trkpt>
      <trkpt lat="43.56345" lon="2.97555">
        <ele>139.9</ele>
        <time>2018-02-25T07:33:56.000Z</time>
      </trkpt>
      <trkpt lat="43.5634" lon="2.97559">
        <ele>139.2</ele>
        <time>2018-02-25T07:33:58.000Z</time>
      </trkpt>
      <trkpt lat="43.56337" lon="2.97562">
        <ele>138.6</ele>
        <time>2018-02-25T07:33:59.000Z</time>
      </trkpt>
      <trkpt lat="43.56334" lon="2.97565">
        <ele>138</ele>
        <time>2018-02-25T07:34:00.000Z</time>
      </trkpt>
      <trkpt lat="43.56331" lon="2.97569">
        <ele>137.4</ele>
        <time>2018-02-25T07:34:01.000Z</time>
      </trkpt>
      <trkpt lat="43.56329" lon="2.97573">
        <ele>136.8</ele>
        <time>2018-02-25T07:34:02.000Z</time>
      </trkpt>
      <trkpt lat="43.56327" lon="2.97576">
        <ele>136.3</ele>
        <time>2018-02-25T07:34:03.000Z</time>
      </trkpt>
      <trkpt lat="43.56326" lon="2.97581">
        <ele>135.2</ele>
        <time>2018-02-25T07:34:05.000Z</time>
      </trkpt>
      <trkpt lat="43.56326" lon="2.97586">
        <ele>135.4</ele>
        <time>2018-02-25T07:34:07.000Z</time>
      </trkpt>
      <trkpt lat="43.56326" lon="2.97592">
        <ele>135.5</ele>
        <time>2018-02-25T07:34:09.000Z</time>
      </trkpt>
      <trkpt lat="43.56326" lon="2.97597">
        <ele>135.6</ele>
        <time>2018-02-25T07:34:11.000Z</time>
      </trkpt>
      <trkpt lat="43.56324" lon="2.97602">
        <ele>135.7</ele>
        <time>2018-02-25T07:34:13.000Z</time>
      </trkpt>
      <trkpt lat="43.56321" lon="2.97605">
        <ele>135.9</ele>
        <time>2018-02-25T07:34:15.000Z</time>
      </trkpt>
      <trkpt lat="43.56319" lon="2.97606">
        <ele>136</ele>
        <time>2018-02-25T07:34:17.000Z</time>
      </trkpt>
      <trkpt lat="43.56316" lon="2.9761">
        <ele>136.3</ele>
        <time>2018-02-25T07:34:21.000Z</time>
      </trkpt>
      <trkpt lat="43.56315" lon="2.97614">
        <ele>136.5</ele>
        <time>2018-02-25T07:34:23.000Z</time>
      </trkpt>
      <trkpt lat="43.56313" lon="2.97619">
        <ele>136.8</ele>
        <time>2018-02-25T07:34:25.000Z</time>
      </trkpt>
      <trkpt lat="43.56312" lon="2.97624">
        <ele>137.2</ele>
        <time>2018-02-25T07:34:27.000Z</time>
      </trkpt>
      <trkpt lat="43.56311" lon="2.97629">
        <ele>137.7</ele>
        <time>2018-02-25T07:34:29.000Z</time>
      </trkpt>
      <trkpt lat="43.5631" lon="2.97632">
        <ele>138.2</ele>
        <time>2018-02-25T07:34:31.000Z</time>
      </trkpt>
      <trkpt lat="43.56308" lon="2.97637">
        <ele>139</ele>
        <time>2018-02-25T07:34:33.000Z</time>
      </trkpt>
      <trkpt lat="43.56307" lon="2.97643">
        <ele>139.9</ele>
        <time>2018-02-25T07:34:35.000Z</time>
      </trkpt>
      <trkpt lat="43.56305" lon="2.97647">
        <ele>140.8</ele>
        <time>2018-02-25T07:34:37.000Z</time>
      </trkpt>
      <trkpt lat="43.56301" lon="2.97653">
        <ele>142.1</ele>
        <time>2018-02-25T07:34:39.000Z</time>
      </trkpt>
      <trkpt lat="43.56299" lon="2.97656">
        <ele>143</ele>
        <time>2018-02-25T07:34:41.000Z</time>
      </trkpt>
      <trkpt lat="43.56296" lon="2.97659">
        <ele>143.6</ele>
        <time>2018-02-25T07:34:44.000Z</time>
      </trkpt>
      <trkpt lat="43.56293" lon="2.97662">
        <ele>144.2</ele>
        <time>2018-02-25T07:34:46.000Z</time>
      </trkpt>
      <trkpt lat="43.5629" lon="2.97667">
        <ele>144.8</ele>
        <time>2018-02-25T07:34:48.000Z</time>
      </trkpt>
      <trkpt lat="43.56288" lon="2.97671">
        <ele>145</ele>
        <time>2018-02-25T07:34:50.000Z</time>
      </trkpt>
      <trkpt lat="43.56285" lon="2.97675">
        <ele>145.3</ele>
        <time>2018-02-25T07:34:52.000Z</time>
      </trkpt>
      <trkpt lat="43.56283" lon="2.9768">
        <ele>145.5</ele>
        <time>2018-02-25T07:34:54.000Z</time>
      </trkpt>
      <trkpt lat="43.56281" lon="2.97683">
        <ele>145.7</ele>
        <time>2018-02-25T07:34:56.000Z</time>
      </trkpt>
      <trkpt lat="43.5628" lon="2.97688">
        <ele>145.9</ele>
        <time>2018-02-25T07:34:58.000Z</time>
      </trkpt>
      <trkpt lat="43.56278" lon="2.97692">
        <ele>146.1</ele>
        <time>2018-02-25T07:34:59.000Z</time>
      </trkpt>
      <trkpt lat="43.56276" lon="2.97696">
        <ele>146.2</ele>
        <time>2018-02-25T07:35:00.000Z</time>
      </trkpt>
      <trkpt lat="43.56275" lon="2.97699">
        <ele>146.4</ele>
        <time>2018-02-25T07:35:01.000Z</time>
      </trkpt>
      <trkpt lat="43.56273" lon="2.97703">
        <ele>146.5</ele>
        <time>2018-02-25T07:35:02.000Z</time>
      </trkpt>
      <trkpt lat="43.56271" lon="2.97709">
        <ele>146.9</ele>
        <time>2018-02-25T07:35:04.000Z</time>
      </trkpt>
      <trkpt lat="43.56268" lon="2.97713">
        <ele>147.3</ele>
        <time>2018-02-25T07:35:06.000Z</time>
      </trkpt>
      <trkpt lat="43.56266" lon="2.97717">
        <ele>147.8</ele>
        <time>2018-02-25T07:35:08.000Z</time>
      </trkpt>
      <trkpt lat="43.56265" lon="2.9772">
        <ele>148.3</ele>
        <time>2018-02-25T07:35:10.000Z</time>
      </trkpt>
      <trkpt lat="43.56264" lon="2.97726">
        <ele>149</ele>
        <time>2018-02-25T07:35:13.000Z</time>
      </trkpt>
      <trkpt lat="43.56264" lon="2.97732">
        <ele>149.5</ele>
        <time>2018-02-25T07:35:15.000Z</time>
      </trkpt>
      <trkpt lat="43.56263" lon="2.97738">
        <ele>149.8</ele>
        <time>2018-02-25T07:35:17.000Z</time>
      </trkpt>
      <trkpt lat="43.56262" lon="2.97744">
        <ele>150.2</ele>
        <time>2018-02-25T07:35:19.000Z</time>
      </trkpt>
      <trkpt lat="43.5626" lon="2.97747">
        <ele>150.5</ele>
        <time>2018-02-25T07:35:20.000Z</time>
      </trkpt>
      <trkpt lat="43.56259" lon="2.9775">
        <ele>151</ele>
        <time>2018-02-25T07:35:21.000Z</time>
      </trkpt>
      <trkpt lat="43.56257" lon="2.97755">
        <ele>151.8</ele>
        <time>2018-02-25T07:35:22.000Z</time>
      </trkpt>
      <trkpt lat="43.56256" lon="2.9776">
        <ele>152.5</ele>
        <time>2018-02-25T07:35:23.000Z</time>
      </trkpt>
      <trkpt lat="43.56256" lon="2.97766">
        <ele>152.8</ele>
        <time>2018-02-25T07:35:24.000Z</time>
      </trkpt>
      <trkpt lat="43.56256" lon="2.97772">
        <ele>153.1</ele>
        <time>2018-02-25T07:35:25.000Z</time>
      </trkpt>
      <trkpt lat="43.56255" lon="2.97777">
        <ele>153.3</ele>
        <time>2018-02-25T07:35:26.000Z</time>
      </trkpt>
      <trkpt lat="43.56252" lon="2.97782">
        <ele>153.4</ele>
        <time>2018-02-25T07:35:28.000Z</time>
      </trkpt>
      <trkpt lat="43.5625" lon="2.97786">
        <ele>153.5</ele>
        <time>2018-02-25T07:35:30.000Z</time>
      </trkpt>
      <trkpt lat="43.56248" lon="2.9779">
        <ele>153.6</ele>
        <time>2018-02-25T07:35:32.000Z</time>
      </trkpt>
      <trkpt lat="43.56246" lon="2.97795">
        <ele>153.7</ele>
        <time>2018-02-25T07:35:34.000Z</time>
      </trkpt>
      <trkpt lat="43.56243" lon="2.97798">
        <ele>153.8</ele>
        <time>2018-02-25T07:35:36.000Z</time>
      </trkpt>
      <trkpt lat="43.56239" lon="2.97803">
        <ele>153.9</ele>
        <time>2018-02-25T07:35:38.000Z</time>
      </trkpt>
      <trkpt lat="43.56235" lon="2.97807">
        <ele>154.1</ele>
        <time>2018-02-25T07:35:40.000Z</time>
      </trkpt>
      <trkpt lat="43.56232" lon="2.9781">
        <ele>154.1</ele>
        <time>2018-02-25T07:35:41.000Z</time>
      </trkpt>
      <trkpt lat="43.56229" lon="2.97813">
        <ele>154.2</ele>
        <time>2018-02-25T07:35:42.000Z</time>
      </trkpt>
      <trkpt lat="43.56227" lon="2.97816">
        <ele>154.4</ele>
        <time>2018-02-25T07:35:43.000Z</time>
      </trkpt>
      <trkpt lat="43.56224" lon="2.9782">
        <ele>154.5</ele>
        <time>2018-02-25T07:35:44.000Z</time>
      </trkpt>
      <trkpt lat="43.5622" lon="2.97828">
        <ele>154.6</ele>
        <time>2018-02-25T07:35:45.000Z</time>
      </trkpt>
      <trkpt lat="43.56218" lon="2.97835">
        <ele>154.8</ele>
        <time>2018-02-25T07:35:46.000Z</time>
      </trkpt>
      <trkpt lat="43.56213" lon="2.97841">
        <ele>154.9</ele>
        <time>2018-02-25T07:35:47.000Z</time>
      </trkpt>
      <trkpt lat="43.56212" lon="2.97847">
        <ele>155</ele>
        <time>2018-02-25T07:35:48.000Z</time>
      </trkpt>
      <trkpt lat="43.5621" lon="2.97853">
        <ele>155</ele>
        <time>2018-02-25T07:35:49.000Z</time>
      </trkpt>
      <trkpt lat="43.56209" lon="2.97857">
        <ele>155</ele>
        <time>2018-02-25T07:35:50.000Z</time>
      </trkpt>
      <trkpt lat="43.5621" lon="2.97862">
        <ele>155</ele>
        <time>2018-02-25T07:35:51.000Z</time>
      </trkpt>
      <trkpt lat="43.56211" lon="2.97867">
        <ele>155</ele>
        <time>2018-02-25T07:35:53.000Z</time>
      </trkpt>
      <trkpt lat="43.56211" lon="2.97871">
        <ele>155</ele>
        <time>2018-02-25T07:35:54.000Z</time>
      </trkpt>
      <trkpt lat="43.5621" lon="2.97875">
        <ele>155</ele>
        <time>2018-02-25T07:35:55.000Z</time>
      </trkpt>
      <trkpt lat="43.56208" lon="2.97878">
        <ele>155</ele>
        <time>2018-02-25T07:35:58.000Z</time>
      </trkpt>
      <trkpt lat="43.56207" lon="2.97884">
        <ele>155</ele>
        <time>2018-02-25T07:36:00.000Z</time>
      </trkpt>
      <trkpt lat="43.56206" lon="2.9789">
        <ele>155</ele>
        <time>2018-02-25T07:36:02.000Z</time>
      </trkpt>
      <trkpt lat="43.56205" lon="2.97895">
        <ele>155</ele>
        <time>2018-02-25T07:36:04.000Z</time>
      </trkpt>
      <trkpt lat="43.56204" lon="2.97901">
        <ele>155</ele>
        <time>2018-02-25T07:36:06.000Z</time>
      </trkpt>
      <trkpt lat="43.56203" lon="2.97907">
        <ele>155.2</ele>
        <time>2018-02-25T07:36:08.000Z</time>
      </trkpt>
      <trkpt lat="43.56202" lon="2.9791">
        <ele>155.6</ele>
        <time>2018-02-25T07:36:09.000Z</time>
      </trkpt>
      <trkpt lat="43.562" lon="2.97917">
        <ele>156.2</ele>
        <time>2018-02-25T07:36:11.000Z</time>
      </trkpt>
      <trkpt lat="43.56199" lon="2.97924">
        <ele>156.7</ele>
        <time>2018-02-25T07:36:13.000Z</time>
      </trkpt>
      <trkpt lat="43.56198" lon="2.97928">
        <ele>156.8</ele>
        <time>2018-02-25T07:36:14.000Z</time>
      </trkpt>
      <trkpt lat="43.56197" lon="2.97931">
        <ele>156.9</ele>
        <time>2018-02-25T07:36:15.000Z</time>
      </trkpt>
      <trkpt lat="43.56196" lon="2.97938">
        <ele>157</ele>
        <time>2018-02-25T07:36:17.000Z</time>
      </trkpt>
      <trkpt lat="43.56195" lon="2.97943">
        <ele>157.1</ele>
        <time>2018-02-25T07:36:19.000Z</time>
      </trkpt>
      <trkpt lat="43.56195" lon="2.9795">
        <ele>157.2</ele>
        <time>2018-02-25T07:36:21.000Z</time>
      </trkpt>
      <trkpt lat="43.56193" lon="2.97956">
        <ele>157.3</ele>
        <time>2018-02-25T07:36:23.000Z</time>
      </trkpt>
      <trkpt lat="43.56193" lon="2.97962">
        <ele>157.4</ele>
        <time>2018-02-25T07:36:25.000Z</time>
      </trkpt>
      <trkpt lat="43.56192" lon="2.97968">
        <ele>157.5</ele>
        <time>2018-02-25T07:36:27.000Z</time>
      </trkpt>
      <trkpt lat="43.56192" lon="2.97974">
        <ele>157.6</ele>
        <time>2018-02-25T07:36:29.000Z</time>
      </trkpt>
      <trkpt lat="43.56193" lon="2.97979">
        <ele>157.7</ele>
        <time>2018-02-25T07:36:31.000Z</time>
      </trkpt>
      <trkpt lat="43.56194" lon="2.97985">
        <ele>157.8</ele>
        <time>2018-02-25T07:36:33.000Z</time>
      </trkpt>
      <trkpt lat="43.56194" lon="2.97991">
        <ele>157.9</ele>
        <time>2018-02-25T07:36:35.000Z</time>
      </trkpt>
      <trkpt lat="43.56194" lon="2.97997">
        <ele>158</ele>
        <time>2018-02-25T07:36:37.000Z</time>
      </trkpt>
      <trkpt lat="43.56195" lon="2.98004">
        <ele>158.2</ele>
        <time>2018-02-25T07:36:39.000Z</time>
      </trkpt>
      <trkpt lat="43.56195" lon="2.98008">
        <ele>158.3</ele>
        <time>2018-02-25T07:36:40.000Z</time>
      </trkpt>
      <trkpt lat="43.56195" lon="2.98012">
        <ele>158.3</ele>
        <time>2018-02-25T07:36:41.000Z</time>
      </trkpt>
      <trkpt lat="43.56196" lon="2.98018">
        <ele>158.5</ele>
        <time>2018-02-25T07:36:43.000Z</time>
      </trkpt>
      <trkpt lat="43.56198" lon="2.98023">
        <ele>158.6</ele>
        <time>2018-02-25T07:36:45.000Z</time>
      </trkpt>
      <trkpt lat="43.56199" lon="2.98029">
        <ele>158.8</ele>
        <time>2018-02-25T07:36:47.000Z</time>
      </trkpt>
      <trkpt lat="43.562" lon="2.98034">
        <ele>159.1</ele>
        <time>2018-02-25T07:36:49.000Z</time>
      </trkpt>
      <trkpt lat="43.56201" lon="2.98038">
        <ele>159.6</ele>
        <time>2018-02-25T07:36:51.000Z</time>
      </trkpt>
      <trkpt lat="43.56202" lon="2.98044">
        <ele>160.2</ele>
        <time>2018-02-25T07:36:53.000Z</time>
      </trkpt>
      <trkpt lat="43.56204" lon="2.98049">
        <ele>160.7</ele>
        <time>2018-02-25T07:36:55.000Z</time>
      </trkpt>
      <trkpt lat="43.56205" lon="2.98055">
        <ele>161</ele>
        <time>2018-02-25T07:36:57.000Z</time>
      </trkpt>
      <trkpt lat="43.56206" lon="2.9806">
        <ele>161.3</ele>
        <time>2018-02-25T07:36:59.000Z</time>
      </trkpt>
      <trkpt lat="43.56206" lon="2.98065">
        <ele>161.5</ele>
        <time>2018-02-25T07:37:01.000Z</time>
      </trkpt>
      <trkpt lat="43.56207" lon="2.9807">
        <ele>161.8</ele>
        <time>2018-02-25T07:37:03.000Z</time>
      </trkpt>
      <trkpt lat="43.56207" lon="2.98074">
        <ele>162.2</ele>
        <time>2018-02-25T07:37:05.000Z</time>
      </trkpt>
      <trkpt lat="43.56208" lon="2.98079">
        <ele>162.7</ele>
        <time>2018-02-25T07:37:07.000Z</time>
      </trkpt>
      <trkpt lat="43.56209" lon="2.98083">
        <ele>163.3</ele>
        <time>2018-02-25T07:37:09.000Z</time>
      </trkpt>
      <trkpt lat="43.56211" lon="2.98087">
        <ele>163.6</ele>
        <time>2018-02-25T07:37:11.000Z</time>
      </trkpt>
      <trkpt lat="43.56213" lon="2.9809">
        <ele>163.8</ele>
        <time>2018-02-25T07:37:13.000Z</time>
      </trkpt>
      <trkpt lat="43.56215" lon="2.98095">
        <ele>164.1</ele>
        <time>2018-02-25T07:37:15.000Z</time>
      </trkpt>
      <trkpt lat="43.56216" lon="2.98099">
        <ele>164.4</ele>
        <time>2018-02-25T07:37:17.000Z</time>
      </trkpt>
      <trkpt lat="43.56218" lon="2.98102">
        <ele>164.8</ele>
        <time>2018-02-25T07:37:19.000Z</time>
      </trkpt>
      <trkpt lat="43.5622" lon="2.98105">
        <ele>165.1</ele>
        <time>2018-02-25T07:37:21.000Z</time>
      </trkpt>
      <trkpt lat="43.56222" lon="2.98109">
        <ele>165.6</ele>
        <time>2018-02-25T07:37:23.000Z</time>
      </trkpt>
      <trkpt lat="43.56223" lon="2.98114">
        <ele>166.4</ele>
        <time>2018-02-25T07:37:25.000Z</time>
      </trkpt>
      <trkpt lat="43.56224" lon="2.98118">
        <ele>166.9</ele>
        <time>2018-02-25T07:37:27.000Z</time>
      </trkpt>
      <trkpt lat="43.56226" lon="2.98123">
        <ele>167.2</ele>
        <time>2018-02-25T07:37:29.000Z</time>
      </trkpt>
      <trkpt lat="43.56228" lon="2.98127">
        <ele>167.6</ele>
        <time>2018-02-25T07:37:31.000Z</time>
      </trkpt>
      <trkpt lat="43.56229" lon="2.98131">
        <ele>168</ele>
        <time>2018-02-25T07:37:33.000Z</time>
      </trkpt>
      <trkpt lat="43.5623" lon="2.98136">
        <ele>168.6</ele>
        <time>2018-02-25T07:37:35.000Z</time>
      </trkpt>
      <trkpt lat="43.56232" lon="2.98139">
        <ele>169</ele>
        <time>2018-02-25T07:37:37.000Z</time>
      </trkpt>
      <trkpt lat="43.56235" lon="2.98141">
        <ele>169.3</ele>
        <time>2018-02-25T07:37:39.000Z</time>
      </trkpt>
      <trkpt lat="43.56238" lon="2.98144">
        <ele>169.6</ele>
        <time>2018-02-25T07:37:41.000Z</time>
      </trkpt>
      <trkpt lat="43.5624" lon="2.98146">
        <ele>169.9</ele>
        <time>2018-02-25T07:37:43.000Z</time>
      </trkpt>
      <trkpt lat="43.56243" lon="2.98149">
        <ele>170.6</ele>
        <time>2018-02-25T07:37:45.000Z</time>
      </trkpt>
      <trkpt lat="43.56245" lon="2.98153">
        <ele>171</ele>
        <time>2018-02-25T07:37:48.000Z</time>
      </trkpt>
      <trkpt lat="43.56248" lon="2.98157">
        <ele>171.4</ele>
        <time>2018-02-25T07:37:50.000Z</time>
      </trkpt>
      <trkpt lat="43.5625" lon="2.9816">
        <ele>171.8</ele>
        <time>2018-02-25T07:37:52.000Z</time>
      </trkpt>
      <trkpt lat="43.56253" lon="2.98162">
        <ele>172.4</ele>
        <time>2018-02-25T07:37:55.000Z</time>
      </trkpt>
      <trkpt lat="43.56256" lon="2.98166">
        <ele>173.1</ele>
        <time>2018-02-25T07:37:58.000Z</time>
      </trkpt>
      <trkpt lat="43.56259" lon="2.98169">
        <ele>173.4</ele>
        <time>2018-02-25T07:38:00.000Z</time>
      </trkpt>
      <trkpt lat="43.56261" lon="2.98172">
        <ele>173.7</ele>
        <time>2018-02-25T07:38:03.000Z</time>
      </trkpt>
      <trkpt lat="43.56263" lon="2.98175">
        <ele>174</ele>
        <time>2018-02-25T07:38:06.000Z</time>
      </trkpt>
      <trkpt lat="43.56265" lon="2.98179">
        <ele>174.8</ele>
        <time>2018-02-25T07:38:09.000Z</time>
      </trkpt>
      <trkpt lat="43.56267" lon="2.98181">
        <ele>175.1</ele>
        <time>2018-02-25T07:38:12.000Z</time>
      </trkpt>
      <trkpt lat="43.5627" lon="2.98183">
        <ele>175.5</ele>
        <time>2018-02-25T07:38:15.000Z</time>
      </trkpt>
      <trkpt lat="43.56273" lon="2.98187">
        <ele>176</ele>
        <time>2018-02-25T07:38:18.000Z</time>
      </trkpt>
      <trkpt lat="43.56274" lon="2.98191">
        <ele>176.7</ele>
        <time>2018-02-25T07:38:21.000Z</time>
      </trkpt>
      <trkpt lat="43.56275" lon="2.98195">
        <ele>177.3</ele>
        <time>2018-02-25T07:38:23.000Z</time>
      </trkpt>
      <trkpt lat="43.56277" lon="2.98198">
        <ele>177.5</ele>
        <time>2018-02-25T07:38:26.000Z</time>
      </trkpt>
      <trkpt lat="43.56278" lon="2.98202">
        <ele>177.7</ele>
        <time>2018-02-25T07:38:29.000Z</time>
      </trkpt>
      <trkpt lat="43.56279" lon="2.98207">
        <ele>177.9</ele>
        <time>2018-02-25T07:38:31.000Z</time>
      </trkpt>
      <trkpt lat="43.56279" lon="2.98211">
        <ele>178.3</ele>
        <time>2018-02-25T07:38:33.000Z</time>
      </trkpt>
      <trkpt lat="43.5628" lon="2.98215">
        <ele>178.9</ele>
        <time>2018-02-25T07:38:35.000Z</time>
      </trkpt>
      <trkpt lat="43.56281" lon="2.98219">
        <ele>179.5</ele>
        <time>2018-02-25T07:38:37.000Z</time>
      </trkpt>
      <trkpt lat="43.56283" lon="2.98224">
        <ele>180</ele>
        <time>2018-02-25T07:38:40.000Z</time>
      </trkpt>
      <trkpt lat="43.56283" lon="2.98228">
        <ele>180.6</ele>
        <time>2018-02-25T07:38:42.000Z</time>
      </trkpt>
      <trkpt lat="43.56283" lon="2.98233">
        <ele>181.4</ele>
        <time>2018-02-25T07:38:44.000Z</time>
      </trkpt>
      <trkpt lat="43.56283" lon="2.98238">
        <ele>181.8</ele>
        <time>2018-02-25T07:38:46.000Z</time>
      </trkpt>
      <trkpt lat="43.56284" lon="2.98243">
        <ele>182.1</ele>
        <time>2018-02-25T07:38:49.000Z</time>
      </trkpt>
      <trkpt lat="43.56285" lon="2.98247">
        <ele>183</ele>
        <time>2018-02-25T07:38:52.000Z</time>
      </trkpt>
      <trkpt lat="43.56285" lon="2.98252">
        <ele>183.7</ele>
        <time>2018-02-25T07:38:54.000Z</time>
      </trkpt>
      <trkpt lat="43.56286" lon="2.98256">
        <ele>184.1</ele>
        <time>2018-02-25T07:38:56.000Z</time>
      </trkpt>
      <trkpt lat="43.56286" lon="2.9826">
        <ele>184.4</ele>
        <time>2018-02-25T07:38:58.000Z</time>
      </trkpt>
      <trkpt lat="43.56286" lon="2.98265">
        <ele>185.3</ele>
        <time>2018-02-25T07:39:00.000Z</time>
      </trkpt>
      <trkpt lat="43.56286" lon="2.98269">
        <ele>185.7</ele>
        <time>2018-02-25T07:39:02.000Z</time>
      </trkpt>
      <trkpt lat="43.56287" lon="2.98274">
        <ele>186.1</ele>
        <time>2018-02-25T07:39:05.000Z</time>
      </trkpt>
      <trkpt lat="43.56287" lon="2.98278">
        <ele>186.4</ele>
        <time>2018-02-25T07:39:07.000Z</time>
      </trkpt>
      <trkpt lat="43.56287" lon="2.98283">
        <ele>186.7</ele>
        <time>2018-02-25T07:39:10.000Z</time>
      </trkpt>
      <trkpt lat="43.56288" lon="2.98288">
        <ele>187.6</ele>
        <time>2018-02-25T07:39:13.000Z</time>
      </trkpt>
      <trkpt lat="43.56288" lon="2.98293">
        <ele>188</ele>
        <time>2018-02-25T07:39:15.000Z</time>
      </trkpt>
      <trkpt lat="43.56288" lon="2.98297">
        <ele>188.4</ele>
        <time>2018-02-25T07:39:17.000Z</time>
      </trkpt>
      <trkpt lat="43.56289" lon="2.98301">
        <ele>189.2</ele>
        <time>2018-02-25T07:39:20.000Z</time>
      </trkpt>
      <trkpt lat="43.56289" lon="2.98306">
        <ele>190.1</ele>
        <time>2018-02-25T07:39:23.000Z</time>
      </trkpt>
      <trkpt lat="43.5629" lon="2.98311">
        <ele>190.4</ele>
        <time>2018-02-25T07:39:26.000Z</time>
      </trkpt>
      <trkpt lat="43.56291" lon="2.98315">
        <ele>191.1</ele>
        <time>2018-02-25T07:39:28.000Z</time>
      </trkpt>
      <trkpt lat="43.56292" lon="2.98318">
        <ele>191.8</ele>
        <time>2018-02-25T07:39:30.000Z</time>
      </trkpt>
      <trkpt lat="43.56293" lon="2.98323">
        <ele>192.4</ele>
        <time>2018-02-25T07:39:34.000Z</time>
      </trkpt>
      <trkpt lat="43.56293" lon="2.98328">
        <ele>192.8</ele>
        <time>2018-02-25T07:39:37.000Z</time>
      </trkpt>
      <trkpt lat="43.56293" lon="2.98332">
        <ele>193.4</ele>
        <time>2018-02-25T07:39:40.000Z</time>
      </trkpt>
      <trkpt lat="43.56293" lon="2.98338">
        <ele>194</ele>
        <time>2018-02-25T07:39:43.000Z</time>
      </trkpt>
      <trkpt lat="43.56293" lon="2.98343">
        <ele>194.4</ele>
        <time>2018-02-25T07:39:46.000Z</time>
      </trkpt>
      <trkpt lat="43.56293" lon="2.98347">
        <ele>194.8</ele>
        <time>2018-02-25T07:39:49.000Z</time>
      </trkpt>
      <trkpt lat="43.56294" lon="2.98351">
        <ele>195.3</ele>
        <time>2018-02-25T07:39:53.000Z</time>
      </trkpt>
      <trkpt lat="43.56295" lon="2.98355">
        <ele>195.9</ele>
        <time>2018-02-25T07:39:56.000Z</time>
      </trkpt>
      <trkpt lat="43.56296" lon="2.98359">
        <ele>196.4</ele>
        <time>2018-02-25T07:39:59.000Z</time>
      </trkpt>
      <trkpt lat="43.56296" lon="2.98364">
        <ele>196.9</ele>
        <time>2018-02-25T07:40:02.000Z</time>
      </trkpt>
      <trkpt lat="43.56296" lon="2.98369">
        <ele>197.5</ele>
        <time>2018-02-25T07:40:05.000Z</time>
      </trkpt>
      <trkpt lat="43.56296" lon="2.98373">
        <ele>198.2</ele>
        <time>2018-02-25T07:40:08.000Z</time>
      </trkpt>
      <trkpt lat="43.56298" lon="2.98378">
        <ele>198.5</ele>
        <time>2018-02-25T07:40:12.000Z</time>
      </trkpt>
      <trkpt lat="43.56298" lon="2.98383">
        <ele>198.8</ele>
        <time>2018-02-25T07:40:15.000Z</time>
      </trkpt>
      <trkpt lat="43.56299" lon="2.98389">
        <ele>199.2</ele>
        <time>2018-02-25T07:40:18.000Z</time>
      </trkpt>
      <trkpt lat="43.56299" lon="2.98394">
        <ele>199.7</ele>
        <time>2018-02-25T07:40:20.000Z</time>
      </trkpt>
      <trkpt lat="43.56298" lon="2.98398">
        <ele>200.3</ele>
        <time>2018-02-25T07:40:22.000Z</time>
      </trkpt>
      <trkpt lat="43.56298" lon="2.98402">
        <ele>200.7</ele>
        <time>2018-02-25T07:40:24.000Z</time>
      </trkpt>
      <trkpt lat="43.56299" lon="2.98408">
        <ele>201.3</ele>
        <time>2018-02-25T07:40:27.000Z</time>
      </trkpt>
      <trkpt lat="43.56299" lon="2.98412">
        <ele>202</ele>
        <time>2018-02-25T07:40:29.000Z</time>
      </trkpt>
      <trkpt lat="43.56299" lon="2.98416">
        <ele>202.6</ele>
        <time>2018-02-25T07:40:31.000Z</time>
      </trkpt>
      <trkpt lat="43.563" lon="2.98421">
        <ele>203.1</ele>
        <time>2018-02-25T07:40:34.000Z</time>
      </trkpt>
      <trkpt lat="43.563" lon="2.98426">
        <ele>203.7</ele>
        <time>2018-02-25T07:40:37.000Z</time>
      </trkpt>
      <trkpt lat="43.563" lon="2.98431">
        <ele>204.4</ele>
        <time>2018-02-25T07:40:40.000Z</time>
      </trkpt>
      <trkpt lat="43.563" lon="2.98435">
        <ele>204.9</ele>
        <time>2018-02-25T07:40:42.000Z</time>
      </trkpt>
      <trkpt lat="43.563" lon="2.9844">
        <ele>205.2</ele>
        <time>2018-02-25T07:40:45.000Z</time>
      </trkpt>
      <trkpt lat="43.563" lon="2.98445">
        <ele>205.7</ele>
        <time>2018-02-25T07:40:48.000Z</time>
      </trkpt>
      <trkpt lat="43.56301" lon="2.98449">
        <ele>206.4</ele>
        <time>2018-02-25T07:40:50.000Z</time>
      </trkpt>
      <trkpt lat="43.56302" lon="2.98453">
        <ele>206.8</ele>
        <time>2018-02-25T07:40:53.000Z</time>
      </trkpt>
      <trkpt lat="43.56302" lon="2.98458">
        <ele>207.1</ele>
        <time>2018-02-25T07:40:56.000Z</time>
      </trkpt>
      <trkpt lat="43.56302" lon="2.98463">
        <ele>207.4</ele>
        <time>2018-02-25T07:40:59.000Z</time>
      </trkpt>
      <trkpt lat="43.56302" lon="2.98467">
        <ele>207.7</ele>
        <time>2018-02-25T07:41:02.000Z</time>
      </trkpt>
      <trkpt lat="43.56303" lon="2.98473">
        <ele>208.7</ele>
        <time>2018-02-25T07:41:06.000Z</time>
      </trkpt>
      <trkpt lat="43.56302" lon="2.98478">
        <ele>209</ele>
        <time>2018-02-25T07:41:10.000Z</time>
      </trkpt>
      <trkpt lat="43.56301" lon="2.98483">
        <ele>209.4</ele>
        <time>2018-02-25T07:41:13.000Z</time>
      </trkpt>
      <trkpt lat="43.563" lon="2.98487">
        <ele>210</ele>
        <time>2018-02-25T07:41:15.000Z</time>
      </trkpt>
      <trkpt lat="43.563" lon="2.98492">
        <ele>210.6</ele>
        <time>2018-02-25T07:41:17.000Z</time>
      </trkpt>
      <trkpt lat="43.56299" lon="2.98496">
        <ele>210.9</ele>
        <time>2018-02-25T07:41:19.000Z</time>
      </trkpt>
      <trkpt lat="43.56297" lon="2.985">
        <ele>211.1</ele>
        <time>2018-02-25T07:41:21.000Z</time>
      </trkpt>
      <trkpt lat="43.56296" lon="2.98504">
        <ele>211.4</ele>
        <time>2018-02-25T07:41:23.000Z</time>
      </trkpt>
      <trkpt lat="43.56295" lon="2.98508">
        <ele>211.8</ele>
        <time>2018-02-25T07:41:25.000Z</time>
      </trkpt>
      <trkpt lat="43.56294" lon="2.98512">
        <ele>212.4</ele>
        <time>2018-02-25T07:41:27.000Z</time>
      </trkpt>
      <trkpt lat="43.56293" lon="2.98515">
        <ele>213</ele>
        <time>2018-02-25T07:41:29.000Z</time>
      </trkpt>
      <trkpt lat="43.56292" lon="2.98519">
        <ele>213.3</ele>
        <time>2018-02-25T07:41:31.000Z</time>
      </trkpt>
      <trkpt lat="43.56291" lon="2.98522">
        <ele>213.5</ele>
        <time>2018-02-25T07:41:33.000Z</time>
      </trkpt>
      <trkpt lat="43.56289" lon="2.98526">
        <ele>214</ele>
        <time>2018-02-25T07:41:35.000Z</time>
      </trkpt>
      <trkpt lat="43.56288" lon="2.98531">
        <ele>214.9</ele>
        <time>2018-02-25T07:41:38.000Z</time>
      </trkpt>
      <trkpt lat="43.56286" lon="2.98534">
        <ele>215.6</ele>
        <time>2018-02-25T07:41:40.000Z</time>
      </trkpt>
      <trkpt lat="43.56283" lon="2.98539">
        <ele>216</ele>
        <time>2018-02-25T07:41:43.000Z</time>
      </trkpt>
      <trkpt lat="43.56282" lon="2.98543">
        <ele>216.8</ele>
        <time>2018-02-25T07:41:46.000Z</time>
      </trkpt>
      <trkpt lat="43.56281" lon="2.98547">
        <ele>217.2</ele>
        <time>2018-02-25T07:41:49.000Z</time>
      </trkpt>
      <trkpt lat="43.5628" lon="2.98552">
        <ele>217.3</ele>
        <time>2018-02-25T07:41:52.000Z</time>
      </trkpt>
      <trkpt lat="43.56276" lon="2.98555">
        <ele>217.4</ele>
        <time>2018-02-25T07:41:55.000Z</time>
      </trkpt>
      <trkpt lat="43.56273" lon="2.98555">
        <ele>217.5</ele>
        <time>2018-02-25T07:41:58.000Z</time>
      </trkpt>
      <trkpt lat="43.5627" lon="2.98553">
        <ele>217.5</ele>
        <time>2018-02-25T07:42:00.000Z</time>
      </trkpt>
      <trkpt lat="43.56266" lon="2.98549">
        <ele>217.6</ele>
        <time>2018-02-25T07:42:02.000Z</time>
      </trkpt>
      <trkpt lat="43.56265" lon="2.98545">
        <ele>217.6</ele>
        <time>2018-02-25T07:42:03.000Z</time>
      </trkpt>
      <trkpt lat="43.56263" lon="2.98542">
        <ele>217.6</ele>
        <time>2018-02-25T07:42:04.000Z</time>
      </trkpt>
      <trkpt lat="43.5626" lon="2.98536">
        <ele>217.7</ele>
        <time>2018-02-25T07:42:06.000Z</time>
      </trkpt>
      <trkpt lat="43.56258" lon="2.98529">
        <ele>217.8</ele>
        <time>2018-02-25T07:42:08.000Z</time>
      </trkpt>
      <trkpt lat="43.56257" lon="2.98525">
        <ele>217.8</ele>
        <time>2018-02-25T07:42:10.000Z</time>
      </trkpt>
      <trkpt lat="43.56254" lon="2.9852">
        <ele>217.9</ele>
        <time>2018-02-25T07:42:13.000Z</time>
      </trkpt>
      <trkpt lat="43.56253" lon="2.98517">
        <ele>218</ele>
        <time>2018-02-25T07:42:15.000Z</time>
      </trkpt>
      <trkpt lat="43.56251" lon="2.98512">
        <ele>218.1</ele>
        <time>2018-02-25T07:42:18.000Z</time>
      </trkpt>
      <trkpt lat="43.5625" lon="2.98509">
        <ele>218.2</ele>
        <time>2018-02-25T07:42:20.000Z</time>
      </trkpt>
      <trkpt lat="43.56248" lon="2.98506">
        <ele>218.4</ele>
        <time>2018-02-25T07:42:22.000Z</time>
      </trkpt>
      <trkpt lat="43.56247" lon="2.98503">
        <ele>218.8</ele>
        <time>2018-02-25T07:42:24.000Z</time>
      </trkpt>
      <trkpt lat="43.56245" lon="2.98499">
        <ele>219.2</ele>
        <time>2018-02-25T07:42:26.000Z</time>
      </trkpt>
      <trkpt lat="43.56243" lon="2.98496">
        <ele>219.4</ele>
        <time>2018-02-25T07:42:28.000Z</time>
      </trkpt>
      <trkpt lat="43.56242" lon="2.98491">
        <ele>219.6</ele>
        <time>2018-02-25T07:42:31.000Z</time>
      </trkpt>
      <trkpt lat="43.5624" lon="2.98488">
        <ele>219.8</ele>
        <time>2018-02-25T07:42:34.000Z</time>
      </trkpt>
      <trkpt lat="43.56239" lon="2.98484">
        <ele>220</ele>
        <time>2018-02-25T07:42:37.000Z</time>
      </trkpt>
      <trkpt lat="43.56237" lon="2.98481">
        <ele>220.2</ele>
        <time>2018-02-25T07:42:39.000Z</time>
      </trkpt>
      <trkpt lat="43.56233" lon="2.98479">
        <ele>220.8</ele>
        <time>2018-02-25T07:42:42.000Z</time>
      </trkpt>
      <trkpt lat="43.5623" lon="2.98476">
        <ele>221.2</ele>
        <time>2018-02-25T07:42:44.000Z</time>
      </trkpt>
      <trkpt lat="43.56228" lon="2.98474">
        <ele>221.5</ele>
        <time>2018-02-25T07:42:46.000Z</time>
      </trkpt>
      <trkpt lat="43.56224" lon="2.98471">
        <ele>221.7</ele>
        <time>2018-02-25T07:42:49.000Z</time>
      </trkpt>
      <trkpt lat="43.56221" lon="2.98468">
        <ele>221.9</ele>
        <time>2018-02-25T07:42:51.000Z</time>
      </trkpt>
      <trkpt lat="43.56218" lon="2.98467">
        <ele>222</ele>
        <time>2018-02-25T07:42:53.000Z</time>
      </trkpt>
      <trkpt lat="43.56215" lon="2.98466">
        <ele>222.1</ele>
        <time>2018-02-25T07:42:55.000Z</time>
      </trkpt>
      <trkpt lat="43.56212" lon="2.98464">
        <ele>222.3</ele>
        <time>2018-02-25T07:42:57.000Z</time>
      </trkpt>
      <trkpt lat="43.56209" lon="2.98462">
        <ele>222.7</ele>
        <time>2018-02-25T07:42:59.000Z</time>
      </trkpt>
      <trkpt lat="43.56206" lon="2.98461">
        <ele>223.2</ele>
        <time>2018-02-25T07:43:01.000Z</time>
      </trkpt>
      <trkpt lat="43.56202" lon="2.98461">
        <ele>223.6</ele>
        <time>2018-02-25T07:43:03.000Z</time>
      </trkpt>
      <trkpt lat="43.56199" lon="2.98461">
        <ele>223.8</ele>
        <time>2018-02-25T07:43:05.000Z</time>
      </trkpt>
      <trkpt lat="43.56196" lon="2.9846">
        <ele>224</ele>
        <time>2018-02-25T07:43:07.000Z</time>
      </trkpt>
      <trkpt lat="43.56193" lon="2.98459">
        <ele>224.3</ele>
        <time>2018-02-25T07:43:09.000Z</time>
      </trkpt>
      <trkpt lat="43.5619" lon="2.98458">
        <ele>224.8</ele>
        <time>2018-02-25T07:43:11.000Z</time>
      </trkpt>
      <trkpt lat="43.56187" lon="2.98456">
        <ele>225.4</ele>
        <time>2018-02-25T07:43:13.000Z</time>
      </trkpt>
      <trkpt lat="43.56184" lon="2.98455">
        <ele>225.6</ele>
        <time>2018-02-25T07:43:15.000Z</time>
      </trkpt>
      <trkpt lat="43.56181" lon="2.98456">
        <ele>225.7</ele>
        <time>2018-02-25T07:43:18.000Z</time>
      </trkpt>
      <trkpt lat="43.56177" lon="2.98457">
        <ele>225.9</ele>
        <time>2018-02-25T07:43:20.000Z</time>
      </trkpt>
      <trkpt lat="43.56173" lon="2.98457">
        <ele>226.1</ele>
        <time>2018-02-25T07:43:22.000Z</time>
      </trkpt>
      <trkpt lat="43.5617" lon="2.98457">
        <ele>226.3</ele>
        <time>2018-02-25T07:43:24.000Z</time>
      </trkpt>
      <trkpt lat="43.56166" lon="2.98457">
        <ele>226.8</ele>
        <time>2018-02-25T07:43:26.000Z</time>
      </trkpt>
      <trkpt lat="43.56163" lon="2.98458">
        <ele>227.4</ele>
        <time>2018-02-25T07:43:28.000Z</time>
      </trkpt>
      <trkpt lat="43.5616" lon="2.98457">
        <ele>227.7</ele>
        <time>2018-02-25T07:43:30.000Z</time>
      </trkpt>
      <trkpt lat="43.56157" lon="2.98456">
        <ele>227.9</ele>
        <time>2018-02-25T07:43:32.000Z</time>
      </trkpt>
      <trkpt lat="43.56154" lon="2.98455">
        <ele>228.1</ele>
        <time>2018-02-25T07:43:34.000Z</time>
      </trkpt>
      <trkpt lat="43.56151" lon="2.98455">
        <ele>228.3</ele>
        <time>2018-02-25T07:43:37.000Z</time>
      </trkpt>
      <trkpt lat="43.56147" lon="2.98455">
        <ele>228.7</ele>
        <time>2018-02-25T07:43:40.000Z</time>
      </trkpt>
      <trkpt lat="43.56143" lon="2.98454">
        <ele>229.1</ele>
        <time>2018-02-25T07:43:42.000Z</time>
      </trkpt>
      <trkpt lat="43.5614" lon="2.98454">
        <ele>229.5</ele>
        <time>2018-02-25T07:43:44.000Z</time>
      </trkpt>
      <trkpt lat="43.56137" lon="2.98454">
        <ele>229.7</ele>
        <time>2018-02-25T07:43:46.000Z</time>
      </trkpt>
      <trkpt lat="43.56133" lon="2.98453">
        <ele>229.9</ele>
        <time>2018-02-25T07:43:48.000Z</time>
      </trkpt>
      <trkpt lat="43.56129" lon="2.98453">
        <ele>230.1</ele>
        <time>2018-02-25T07:43:50.000Z</time>
      </trkpt>
      <trkpt lat="43.56126" lon="2.98453">
        <ele>230.2</ele>
        <time>2018-02-25T07:43:52.000Z</time>
      </trkpt>
      <trkpt lat="43.56123" lon="2.98454">
        <ele>230.4</ele>
        <time>2018-02-25T07:43:54.000Z</time>
      </trkpt>
      <trkpt lat="43.5612" lon="2.98455">
        <ele>230.5</ele>
        <time>2018-02-25T07:43:56.000Z</time>
      </trkpt>
      <trkpt lat="43.56116" lon="2.98455">
        <ele>230.7</ele>
        <time>2018-02-25T07:43:58.000Z</time>
      </trkpt>
      <trkpt lat="43.56114" lon="2.98456">
        <ele>230.9</ele>
        <time>2018-02-25T07:44:00.000Z</time>
      </trkpt>
      <trkpt lat="43.56111" lon="2.98458">
        <ele>231.5</ele>
        <time>2018-02-25T07:44:02.000Z</time>
      </trkpt>
      <trkpt lat="43.56108" lon="2.9846">
        <ele>231.8</ele>
        <time>2018-02-25T07:44:04.000Z</time>
      </trkpt>
      <trkpt lat="43.56104" lon="2.98461">
        <ele>232.1</ele>
        <time>2018-02-25T07:44:06.000Z</time>
      </trkpt>
      <trkpt lat="43.56101" lon="2.98461">
        <ele>232.3</ele>
        <time>2018-02-25T07:44:08.000Z</time>
      </trkpt>
      <trkpt lat="43.56098" lon="2.98461">
        <ele>232.5</ele>
        <time>2018-02-25T07:44:10.000Z</time>
      </trkpt>
      <trkpt lat="43.56095" lon="2.98462">
        <ele>233</ele>
        <time>2018-02-25T07:44:12.000Z</time>
      </trkpt>
      <trkpt lat="43.56092" lon="2.98463">
        <ele>233.6</ele>
        <time>2018-02-25T07:44:14.000Z</time>
      </trkpt>
      <trkpt lat="43.56088" lon="2.98463">
        <ele>234</ele>
        <time>2018-02-25T07:44:17.000Z</time>
      </trkpt>
      <trkpt lat="43.56084" lon="2.98462">
        <ele>234.3</ele>
        <time>2018-02-25T07:44:19.000Z</time>
      </trkpt>
      <trkpt lat="43.56081" lon="2.98462">
        <ele>234.6</ele>
        <time>2018-02-25T07:44:21.000Z</time>
      </trkpt>
      <trkpt lat="43.56078" lon="2.98463">
        <ele>235.1</ele>
        <time>2018-02-25T07:44:23.000Z</time>
      </trkpt>
      <trkpt lat="43.56075" lon="2.98462">
        <ele>235.7</ele>
        <time>2018-02-25T07:44:25.000Z</time>
      </trkpt>
      <trkpt lat="43.56071" lon="2.98461">
        <ele>236</ele>
        <time>2018-02-25T07:44:27.000Z</time>
      </trkpt>
      <trkpt lat="43.56068" lon="2.9846">
        <ele>236.3</ele>
        <time>2018-02-25T07:44:29.000Z</time>
      </trkpt>
      <trkpt lat="43.56064" lon="2.9846">
        <ele>236.4</ele>
        <time>2018-02-25T07:44:31.000Z</time>
      </trkpt>
      <trkpt lat="43.56061" lon="2.98459">
        <ele>236.6</ele>
        <time>2018-02-25T07:44:33.000Z</time>
      </trkpt>
      <trkpt lat="43.56058" lon="2.9846">
        <ele>236.8</ele>
        <time>2018-02-25T07:44:35.000Z</time>
      </trkpt>
      <trkpt lat="43.56054" lon="2.9846">
        <ele>237.2</ele>
        <time>2018-02-25T07:44:38.000Z</time>
      </trkpt>
      <trkpt lat="43.56051" lon="2.9846">
        <ele>237.6</ele>
        <time>2018-02-25T07:44:40.000Z</time>
      </trkpt>
      <trkpt lat="43.56048" lon="2.98459">
        <ele>238.1</ele>
        <time>2018-02-25T07:44:42.000Z</time>
      </trkpt>
      <trkpt lat="43.56045" lon="2.98459">
        <ele>238.3</ele>
        <time>2018-02-25T07:44:45.000Z</time>
      </trkpt>
      <trkpt lat="43.56041" lon="2.98461">
        <ele>238.4</ele>
        <time>2018-02-25T07:44:48.000Z</time>
      </trkpt>
      <trkpt lat="43.56038" lon="2.9846">
        <ele>238.6</ele>
        <time>2018-02-25T07:44:50.000Z</time>
      </trkpt>
      <trkpt lat="43.56035" lon="2.9846">
        <ele>238.8</ele>
        <time>2018-02-25T07:44:52.000Z</time>
      </trkpt>
      <trkpt lat="43.56032" lon="2.98459">
        <ele>239</ele>
        <time>2018-02-25T07:44:54.000Z</time>
      </trkpt>
      <trkpt lat="43.56029" lon="2.98458">
        <ele>239.4</ele>
        <time>2018-02-25T07:44:56.000Z</time>
      </trkpt>
      <trkpt lat="43.56026" lon="2.98459">
        <ele>239.9</ele>
        <time>2018-02-25T07:44:58.000Z</time>
      </trkpt>
      <trkpt lat="43.56022" lon="2.9846">
        <ele>240.2</ele>
        <time>2018-02-25T07:45:00.000Z</time>
      </trkpt>
      <trkpt lat="43.56019" lon="2.9846">
        <ele>240.4</ele>
        <time>2018-02-25T07:45:02.000Z</time>
      </trkpt>
      <trkpt lat="43.56016" lon="2.98459">
        <ele>240.6</ele>
        <time>2018-02-25T07:45:04.000Z</time>
      </trkpt>
      <trkpt lat="43.56012" lon="2.98458">
        <ele>240.8</ele>
        <time>2018-02-25T07:45:06.000Z</time>
      </trkpt>
      <trkpt lat="43.56008" lon="2.98457">
        <ele>241.1</ele>
        <time>2018-02-25T07:45:08.000Z</time>
      </trkpt>
      <trkpt lat="43.56005" lon="2.98456">
        <ele>241.6</ele>
        <time>2018-02-25T07:45:10.000Z</time>
      </trkpt>
      <trkpt lat="43.56002" lon="2.98455">
        <ele>242</ele>
        <time>2018-02-25T07:45:12.000Z</time>
      </trkpt>
      <trkpt lat="43.55999" lon="2.98454">
        <ele>242.1</ele>
        <time>2018-02-25T07:45:14.000Z</time>
      </trkpt>
      <trkpt lat="43.55995" lon="2.98453">
        <ele>242.3</ele>
        <time>2018-02-25T07:45:16.000Z</time>
      </trkpt>
      <trkpt lat="43.55991" lon="2.9845">
        <ele>242.4</ele>
        <time>2018-02-25T07:45:18.000Z</time>
      </trkpt>
      <trkpt lat="43.55988" lon="2.98449">
        <ele>242.5</ele>
        <time>2018-02-25T07:45:20.000Z</time>
      </trkpt>
      <trkpt lat="43.55984" lon="2.98448">
        <ele>242.6</ele>
        <time>2018-02-25T07:45:22.000Z</time>
      </trkpt>
      <trkpt lat="43.55981" lon="2.98448">
        <ele>242.7</ele>
        <time>2018-02-25T07:45:24.000Z</time>
      </trkpt>
      <trkpt lat="43.55978" lon="2.98449">
        <ele>242.8</ele>
        <time>2018-02-25T07:45:26.000Z</time>
      </trkpt>
      <trkpt lat="43.55974" lon="2.98448">
        <ele>242.9</ele>
        <time>2018-02-25T07:45:28.000Z</time>
      </trkpt>
      <trkpt lat="43.55971" lon="2.98448">
        <ele>243</ele>
        <time>2018-02-25T07:45:30.000Z</time>
      </trkpt>
      <trkpt lat="43.55968" lon="2.98448">
        <ele>243.1</ele>
        <time>2018-02-25T07:45:32.000Z</time>
      </trkpt>
      <trkpt lat="43.55964" lon="2.98447">
        <ele>243.3</ele>
        <time>2018-02-25T07:45:34.000Z</time>
      </trkpt>
      <trkpt lat="43.55961" lon="2.98446">
        <ele>243.7</ele>
        <time>2018-02-25T07:45:36.000Z</time>
      </trkpt>
      <trkpt lat="43.55958" lon="2.98446">
        <ele>244.2</ele>
        <time>2018-02-25T07:45:38.000Z</time>
      </trkpt>
      <trkpt lat="43.55955" lon="2.98446">
        <ele>244.6</ele>
        <time>2018-02-25T07:45:40.000Z</time>
      </trkpt>
      <trkpt lat="43.55951" lon="2.98446">
        <ele>244.9</ele>
        <time>2018-02-25T07:45:42.000Z</time>
      </trkpt>
      <trkpt lat="43.55947" lon="2.98446">
        <ele>245.2</ele>
        <time>2018-02-25T07:45:44.000Z</time>
      </trkpt>
      <trkpt lat="43.55944" lon="2.98445">
        <ele>245.6</ele>
        <time>2018-02-25T07:45:46.000Z</time>
      </trkpt>
      <trkpt lat="43.55941" lon="2.98445">
        <ele>246.1</ele>
        <time>2018-02-25T07:45:48.000Z</time>
      </trkpt>
      <trkpt lat="43.55937" lon="2.98446">
        <ele>246.7</ele>
        <time>2018-02-25T07:45:50.000Z</time>
      </trkpt>
      <trkpt lat="43.55934" lon="2.98448">
        <ele>247</ele>
        <time>2018-02-25T07:45:52.000Z</time>
      </trkpt>
      <trkpt lat="43.55932" lon="2.98449">
        <ele>247.2</ele>
        <time>2018-02-25T07:45:54.000Z</time>
      </trkpt>
      <trkpt lat="43.55928" lon="2.9845">
        <ele>247.4</ele>
        <time>2018-02-25T07:45:56.000Z</time>
      </trkpt>
      <trkpt lat="43.55926" lon="2.98451">
        <ele>247.8</ele>
        <time>2018-02-25T07:45:58.000Z</time>
      </trkpt>
      <trkpt lat="43.55923" lon="2.98454">
        <ele>251.1</ele>
        <time>2018-02-25T07:46:00.000Z</time>
      </trkpt>
      <trkpt lat="43.55921" lon="2.98456">
        <ele>256.4</ele>
        <time>2018-02-25T07:46:02.000Z</time>
      </trkpt>
      <trkpt lat="43.55918" lon="2.98458">
        <ele>256</ele>
        <time>2018-02-25T07:46:04.000Z</time>
      </trkpt>
      <trkpt lat="43.55912" lon="2.9846">
        <ele>255.6</ele>
        <time>2018-02-25T07:46:07.000Z</time>
      </trkpt>
      <trkpt lat="43.55909" lon="2.98461">
        <ele>255.4</ele>
        <time>2018-02-25T07:46:09.000Z</time>
      </trkpt>
      <trkpt lat="43.55906" lon="2.98462">
        <ele>255.3</ele>
        <time>2018-02-25T07:46:11.000Z</time>
      </trkpt>
      <trkpt lat="43.55903" lon="2.98462">
        <ele>255.2</ele>
        <time>2018-02-25T07:46:13.000Z</time>
      </trkpt>
      <trkpt lat="43.559" lon="2.98462">
        <ele>255.1</ele>
        <time>2018-02-25T07:46:15.000Z</time>
      </trkpt>
      <trkpt lat="43.55897" lon="2.98462">
        <ele>255</ele>
        <time>2018-02-25T07:46:17.000Z</time>
      </trkpt>
      <trkpt lat="43.55894" lon="2.98463">
        <ele>254.8</ele>
        <time>2018-02-25T07:46:19.000Z</time>
      </trkpt>
      <trkpt lat="43.5589" lon="2.98464">
        <ele>254.5</ele>
        <time>2018-02-25T07:46:21.000Z</time>
      </trkpt>
      <trkpt lat="43.55888" lon="2.98465">
        <ele>254.2</ele>
        <time>2018-02-25T07:46:23.000Z</time>
      </trkpt>
      <trkpt lat="43.55885" lon="2.98467">
        <ele>253.9</ele>
        <time>2018-02-25T07:46:25.000Z</time>
      </trkpt>
      <trkpt lat="43.55882" lon="2.98468">
        <ele>253.4</ele>
        <time>2018-02-25T07:46:28.000Z</time>
      </trkpt>
      <trkpt lat="43.5588" lon="2.98473">
        <ele>253.2</ele>
        <time>2018-02-25T07:46:31.000Z</time>
      </trkpt>
      <trkpt lat="43.55883" lon="2.98476">
        <ele>253.4</ele>
        <time>2018-02-25T07:46:34.000Z</time>
      </trkpt>
      <trkpt lat="43.55886" lon="2.98476">
        <ele>253.7</ele>
        <time>2018-02-25T07:46:36.000Z</time>
      </trkpt>
      <trkpt lat="43.55889" lon="2.98476">
        <ele>254.1</ele>
        <time>2018-02-25T07:46:38.000Z</time>
      </trkpt>
      <trkpt lat="43.55892" lon="2.98475">
        <ele>254.4</ele>
        <time>2018-02-25T07:46:40.000Z</time>
      </trkpt>
      <trkpt lat="43.55895" lon="2.98474">
        <ele>254.8</ele>
        <time>2018-02-25T07:46:42.000Z</time>
      </trkpt>
      <trkpt lat="43.55898" lon="2.98473">
        <ele>255</ele>
        <time>2018-02-25T07:46:44.000Z</time>
      </trkpt>
      <trkpt lat="43.55901" lon="2.98471">
        <ele>255.1</ele>
        <time>2018-02-25T07:46:46.000Z</time>
      </trkpt>
      <trkpt lat="43.55904" lon="2.9847">
        <ele>255.2</ele>
        <time>2018-02-25T07:46:48.000Z</time>
      </trkpt>
      <trkpt lat="43.55907" lon="2.9847">
        <ele>255.3</ele>
        <time>2018-02-25T07:46:50.000Z</time>
      </trkpt>
      <trkpt lat="43.5591" lon="2.9847">
        <ele>255.5</ele>
        <time>2018-02-25T07:46:52.000Z</time>
      </trkpt>
      <trkpt lat="43.55913" lon="2.98471">
        <ele>255.7</ele>
        <time>2018-02-25T07:46:54.000Z</time>
      </trkpt>
      <trkpt lat="43.55916" lon="2.98473">
        <ele>255.9</ele>
        <time>2018-02-25T07:46:57.000Z</time>
      </trkpt>
      <trkpt lat="43.55919" lon="2.98474">
        <ele>256.3</ele>
        <time>2018-02-25T07:46:59.000Z</time>
      </trkpt>
      <trkpt lat="43.55922" lon="2.98475">
        <ele>256.6</ele>
        <time>2018-02-25T07:47:01.000Z</time>
      </trkpt>
      <trkpt lat="43.55926" lon="2.98475">
        <ele>256.8</ele>
        <time>2018-02-25T07:47:04.000Z</time>
      </trkpt>
      <trkpt lat="43.55929" lon="2.98475">
        <ele>257</ele>
        <time>2018-02-25T07:47:06.000Z</time>
      </trkpt>
      <trkpt lat="43.55933" lon="2.98476">
        <ele>257.2</ele>
        <time>2018-02-25T07:47:15.000Z</time>
      </trkpt>
      <trkpt lat="43.55936" lon="2.98479">
        <ele>257.5</ele>
        <time>2018-02-25T07:47:17.000Z</time>
      </trkpt>
      <trkpt lat="43.55939" lon="2.9848">
        <ele>257.7</ele>
        <time>2018-02-25T07:47:19.000Z</time>
      </trkpt>
      <trkpt lat="43.55943" lon="2.98482">
        <ele>258.4</ele>
        <time>2018-02-25T07:47:21.000Z</time>
      </trkpt>
      <trkpt lat="43.55947" lon="2.98483">
        <ele>258.8</ele>
        <time>2018-02-25T07:47:23.000Z</time>
      </trkpt>
      <trkpt lat="43.55951" lon="2.98484">
        <ele>259.2</ele>
        <time>2018-02-25T07:47:25.000Z</time>
      </trkpt>
      <trkpt lat="43.55955" lon="2.98485">
        <ele>259.6</ele>
        <time>2018-02-25T07:47:27.000Z</time>
      </trkpt>
      <trkpt lat="43.55958" lon="2.98487">
        <ele>260.1</ele>
        <time>2018-02-25T07:47:29.000Z</time>
      </trkpt>
      <trkpt lat="43.55962" lon="2.98488">
        <ele>260.6</ele>
        <time>2018-02-25T07:47:31.000Z</time>
      </trkpt>
      <trkpt lat="43.55966" lon="2.98489">
        <ele>260.8</ele>
        <time>2018-02-25T07:47:34.000Z</time>
      </trkpt>
      <trkpt lat="43.55969" lon="2.98492">
        <ele>260.9</ele>
        <time>2018-02-25T07:47:37.000Z</time>
      </trkpt>
      <trkpt lat="43.55972" lon="2.98493">
        <ele>261.1</ele>
        <time>2018-02-25T07:47:39.000Z</time>
      </trkpt>
      <trkpt lat="43.55975" lon="2.98496">
        <ele>261.3</ele>
        <time>2018-02-25T07:47:41.000Z</time>
      </trkpt>
      <trkpt lat="43.55979" lon="2.98499">
        <ele>261.6</ele>
        <time>2018-02-25T07:47:43.000Z</time>
      </trkpt>
      <trkpt lat="43.55982" lon="2.98502">
        <ele>261.9</ele>
        <time>2018-02-25T07:47:45.000Z</time>
      </trkpt>
      <trkpt lat="43.55985" lon="2.98505">
        <ele>262.2</ele>
        <time>2018-02-25T07:47:47.000Z</time>
      </trkpt>
      <trkpt lat="43.55988" lon="2.98508">
        <ele>262.8</ele>
        <time>2018-02-25T07:47:49.000Z</time>
      </trkpt>
      <trkpt lat="43.55991" lon="2.9851">
        <ele>263.1</ele>
        <time>2018-02-25T07:47:51.000Z</time>
      </trkpt>
      <trkpt lat="43.55994" lon="2.98512">
        <ele>263.4</ele>
        <time>2018-02-25T07:47:53.000Z</time>
      </trkpt>
      <trkpt lat="43.55998" lon="2.98515">
        <ele>263.9</ele>
        <time>2018-02-25T07:47:55.000Z</time>
      </trkpt>
      <trkpt lat="43.56" lon="2.98517">
        <ele>264.4</ele>
        <time>2018-02-25T07:47:57.000Z</time>
      </trkpt>
      <trkpt lat="43.56003" lon="2.98519">
        <ele>264.9</ele>
        <time>2018-02-25T07:47:59.000Z</time>
      </trkpt>
      <trkpt lat="43.56006" lon="2.98521">
        <ele>265.1</ele>
        <time>2018-02-25T07:48:01.000Z</time>
      </trkpt>
      <trkpt lat="43.5601" lon="2.98523">
        <ele>265.4</ele>
        <time>2018-02-25T07:48:04.000Z</time>
      </trkpt>
      <trkpt lat="43.56014" lon="2.98525">
        <ele>265.6</ele>
        <time>2018-02-25T07:48:06.000Z</time>
      </trkpt>
      <trkpt lat="43.56017" lon="2.98526">
        <ele>265.8</ele>
        <time>2018-02-25T07:48:08.000Z</time>
      </trkpt>
      <trkpt lat="43.5602" lon="2.98528">
        <ele>266</ele>
        <time>2018-02-25T07:48:10.000Z</time>
      </trkpt>
      <trkpt lat="43.56024" lon="2.9853">
        <ele>266.6</ele>
        <time>2018-02-25T07:48:13.000Z</time>
      </trkpt>
      <trkpt lat="43.56028" lon="2.98533">
        <ele>267.1</ele>
        <time>2018-02-25T07:48:15.000Z</time>
      </trkpt>
      <trkpt lat="43.56031" lon="2.98535">
        <ele>267.3</ele>
        <time>2018-02-25T07:48:17.000Z</time>
      </trkpt>
      <trkpt lat="43.56034" lon="2.98536">
        <ele>267.5</ele>
        <time>2018-02-25T07:48:19.000Z</time>
      </trkpt>
      <trkpt lat="43.56037" lon="2.98538">
        <ele>267.6</ele>
        <time>2018-02-25T07:48:21.000Z</time>
      </trkpt>
      <trkpt lat="43.56039" lon="2.98541">
        <ele>267.7</ele>
        <time>2018-02-25T07:48:23.000Z</time>
      </trkpt>
      <trkpt lat="43.56042" lon="2.98544">
        <ele>267.9</ele>
        <time>2018-02-25T07:48:25.000Z</time>
      </trkpt>
      <trkpt lat="43.56045" lon="2.98546">
        <ele>268.3</ele>
        <time>2018-02-25T07:48:27.000Z</time>
      </trkpt>
      <trkpt lat="43.56048" lon="2.98549">
        <ele>268.9</ele>
        <time>2018-02-25T07:48:29.000Z</time>
      </trkpt>
      <trkpt lat="43.56052" lon="2.98552">
        <ele>269.2</ele>
        <time>2018-02-25T07:48:31.000Z</time>
      </trkpt>
      <trkpt lat="43.56055" lon="2.98554">
        <ele>269.4</ele>
        <time>2018-02-25T07:48:33.000Z</time>
      </trkpt>
      <trkpt lat="43.56058" lon="2.98557">
        <ele>269.7</ele>
        <time>2018-02-25T07:48:36.000Z</time>
      </trkpt>
      <trkpt lat="43.56061" lon="2.9856">
        <ele>270</ele>
        <time>2018-02-25T07:48:38.000Z</time>
      </trkpt>
      <trkpt lat="43.56063" lon="2.98562">
        <ele>270.5</ele>
        <time>2018-02-25T07:48:40.000Z</time>
      </trkpt>
      <trkpt lat="43.56065" lon="2.98565">
        <ele>270.9</ele>
        <time>2018-02-25T07:48:42.000Z</time>
      </trkpt>
      <trkpt lat="43.56067" lon="2.98567">
        <ele>271.4</ele>
        <time>2018-02-25T07:48:44.000Z</time>
      </trkpt>
      <trkpt lat="43.5607" lon="2.9857">
        <ele>271.5</ele>
        <time>2018-02-25T07:48:46.000Z</time>
      </trkpt>
      <trkpt lat="43.56074" lon="2.98571">
        <ele>271.7</ele>
        <time>2018-02-25T07:48:49.000Z</time>
      </trkpt>
      <trkpt lat="43.56076" lon="2.98574">
        <ele>271.9</ele>
        <time>2018-02-25T07:48:51.000Z</time>
      </trkpt>
      <trkpt lat="43.56079" lon="2.98577">
        <ele>272.1</ele>
        <time>2018-02-25T07:48:53.000Z</time>
      </trkpt>
      <trkpt lat="43.56081" lon="2.9858">
        <ele>272.5</ele>
        <time>2018-02-25T07:48:55.000Z</time>
      </trkpt>
      <trkpt lat="43.56084" lon="2.98583">
        <ele>273</ele>
        <time>2018-02-25T07:48:57.000Z</time>
      </trkpt>
      <trkpt lat="43.56088" lon="2.98585">
        <ele>273.3</ele>
        <time>2018-02-25T07:48:59.000Z</time>
      </trkpt>
      <trkpt lat="43.56091" lon="2.98587">
        <ele>273.6</ele>
        <time>2018-02-25T07:49:01.000Z</time>
      </trkpt>
      <trkpt lat="43.56095" lon="2.9859">
        <ele>273.8</ele>
        <time>2018-02-25T07:49:03.000Z</time>
      </trkpt>
      <trkpt lat="43.56097" lon="2.98593">
        <ele>274.1</ele>
        <time>2018-02-25T07:49:05.000Z</time>
      </trkpt>
      <trkpt lat="43.561" lon="2.98596">
        <ele>274.4</ele>
        <time>2018-02-25T07:49:07.000Z</time>
      </trkpt>
      <trkpt lat="43.56102" lon="2.98601">
        <ele>274.9</ele>
        <time>2018-02-25T07:49:10.000Z</time>
      </trkpt>
      <trkpt lat="43.56104" lon="2.98605">
        <ele>275.4</ele>
        <time>2018-02-25T07:49:12.000Z</time>
      </trkpt>
      <trkpt lat="43.56106" lon="2.98609">
        <ele>275.6</ele>
        <time>2018-02-25T07:49:14.000Z</time>
      </trkpt>
      <trkpt lat="43.56108" lon="2.98613">
        <ele>275.9</ele>
        <time>2018-02-25T07:49:16.000Z</time>
      </trkpt>
      <trkpt lat="43.56111" lon="2.98617">
        <ele>276.1</ele>
        <time>2018-02-25T07:49:18.000Z</time>
      </trkpt>
      <trkpt lat="43.56112" lon="2.98621">
        <ele>276.3</ele>
        <time>2018-02-25T07:49:20.000Z</time>
      </trkpt>
      <trkpt lat="43.56113" lon="2.98625">
        <ele>276.8</ele>
        <time>2018-02-25T07:49:22.000Z</time>
      </trkpt>
      <trkpt lat="43.56114" lon="2.98629">
        <ele>277.2</ele>
        <time>2018-02-25T07:49:24.000Z</time>
      </trkpt>
      <trkpt lat="43.56115" lon="2.98634">
        <ele>277.5</ele>
        <time>2018-02-25T07:49:26.000Z</time>
      </trkpt>
      <trkpt lat="43.56115" lon="2.98638">
        <ele>277.7</ele>
        <time>2018-02-25T07:49:28.000Z</time>
      </trkpt>
      <trkpt lat="43.56116" lon="2.98643">
        <ele>277.9</ele>
        <time>2018-02-25T07:49:31.000Z</time>
      </trkpt>
      <trkpt lat="43.56116" lon="2.98648">
        <ele>278.2</ele>
        <time>2018-02-25T07:49:33.000Z</time>
      </trkpt>
      <trkpt lat="43.56117" lon="2.98653">
        <ele>278.5</ele>
        <time>2018-02-25T07:49:35.000Z</time>
      </trkpt>
      <trkpt lat="43.56118" lon="2.98657">
        <ele>278.9</ele>
        <time>2018-02-25T07:49:37.000Z</time>
      </trkpt>
      <trkpt lat="43.56119" lon="2.98661">
        <ele>279.3</ele>
        <time>2018-02-25T07:49:39.000Z</time>
      </trkpt>
      <trkpt lat="43.5612" lon="2.98665">
        <ele>279.6</ele>
        <time>2018-02-25T07:49:41.000Z</time>
      </trkpt>
      <trkpt lat="43.56121" lon="2.98669">
        <ele>279.8</ele>
        <time>2018-02-25T07:49:43.000Z</time>
      </trkpt>
      <trkpt lat="43.56121" lon="2.98674">
        <ele>279.9</ele>
        <time>2018-02-25T07:49:45.000Z</time>
      </trkpt>
      <trkpt lat="43.56121" lon="2.98678">
        <ele>280.1</ele>
        <time>2018-02-25T07:49:47.000Z</time>
      </trkpt>
      <trkpt lat="43.56122" lon="2.98682">
        <ele>280.3</ele>
        <time>2018-02-25T07:49:49.000Z</time>
      </trkpt>
      <trkpt lat="43.56124" lon="2.98685">
        <ele>280.4</ele>
        <time>2018-02-25T07:49:51.000Z</time>
      </trkpt>
      <trkpt lat="43.56126" lon="2.98691">
        <ele>280.8</ele>
        <time>2018-02-25T07:49:53.000Z</time>
      </trkpt>
      <trkpt lat="43.56126" lon="2.98695">
        <ele>281.2</ele>
        <time>2018-02-25T07:49:55.000Z</time>
      </trkpt>
      <trkpt lat="43.56126" lon="2.987">
        <ele>281.8</ele>
        <time>2018-02-25T07:49:57.000Z</time>
      </trkpt>
      <trkpt lat="43.56124" lon="2.98705">
        <ele>282.1</ele>
        <time>2018-02-25T07:49:59.000Z</time>
      </trkpt>
      <trkpt lat="43.56121" lon="2.98706">
        <ele>282.5</ele>
        <time>2018-02-25T07:50:01.000Z</time>
      </trkpt>
      <trkpt lat="43.56118" lon="2.98705">
        <ele>282.7</ele>
        <time>2018-02-25T07:50:03.000Z</time>
      </trkpt>
      <trkpt lat="43.56116" lon="2.98701">
        <ele>283.3</ele>
        <time>2018-02-25T07:50:06.000Z</time>
      </trkpt>
      <trkpt lat="43.56114" lon="2.98697">
        <ele>283.8</ele>
        <time>2018-02-25T07:50:08.000Z</time>
      </trkpt>
      <trkpt lat="43.56113" lon="2.98694">
        <ele>284.1</ele>
        <time>2018-02-25T07:50:10.000Z</time>
      </trkpt>
      <trkpt lat="43.56111" lon="2.98689">
        <ele>284.5</ele>
        <time>2018-02-25T07:50:13.000Z</time>
      </trkpt>
      <trkpt lat="43.5611" lon="2.98684">
        <ele>285</ele>
        <time>2018-02-25T07:50:16.000Z</time>
      </trkpt>
      <trkpt lat="43.56107" lon="2.9868">
        <ele>285.6</ele>
        <time>2018-02-25T07:50:18.000Z</time>
      </trkpt>
      <trkpt lat="43.56106" lon="2.98676">
        <ele>286</ele>
        <time>2018-02-25T07:50:20.000Z</time>
      </trkpt>
      <trkpt lat="43.56104" lon="2.98673">
        <ele>286.2</ele>
        <time>2018-02-25T07:50:22.000Z</time>
      </trkpt>
      <trkpt lat="43.56102" lon="2.98669">
        <ele>286.4</ele>
        <time>2018-02-25T07:50:24.000Z</time>
      </trkpt>
      <trkpt lat="43.56101" lon="2.98665">
        <ele>286.5</ele>
        <time>2018-02-25T07:50:26.000Z</time>
      </trkpt>
      <trkpt lat="43.56098" lon="2.98662">
        <ele>286.7</ele>
        <time>2018-02-25T07:50:28.000Z</time>
      </trkpt>
      <trkpt lat="43.56096" lon="2.98659">
        <ele>286.8</ele>
        <time>2018-02-25T07:50:30.000Z</time>
      </trkpt>
      <trkpt lat="43.56093" lon="2.98657">
        <ele>287</ele>
        <time>2018-02-25T07:50:32.000Z</time>
      </trkpt>
      <trkpt lat="43.56091" lon="2.98654">
        <ele>287.4</ele>
        <time>2018-02-25T07:50:34.000Z</time>
      </trkpt>
      <trkpt lat="43.56089" lon="2.98651">
        <ele>287.7</ele>
        <time>2018-02-25T07:50:36.000Z</time>
      </trkpt>
      <trkpt lat="43.56087" lon="2.98648">
        <ele>287.9</ele>
        <time>2018-02-25T07:50:38.000Z</time>
      </trkpt>
      <trkpt lat="43.56085" lon="2.98646">
        <ele>288</ele>
        <time>2018-02-25T07:50:40.000Z</time>
      </trkpt>
      <trkpt lat="43.56082" lon="2.98643">
        <ele>288.2</ele>
        <time>2018-02-25T07:50:42.000Z</time>
      </trkpt>
      <trkpt lat="43.56078" lon="2.98641">
        <ele>288.4</ele>
        <time>2018-02-25T07:50:44.000Z</time>
      </trkpt>
      <trkpt lat="43.56075" lon="2.98639">
        <ele>288.6</ele>
        <time>2018-02-25T07:50:46.000Z</time>
      </trkpt>
      <trkpt lat="43.56072" lon="2.98637">
        <ele>288.8</ele>
        <time>2018-02-25T07:50:48.000Z</time>
      </trkpt>
      <trkpt lat="43.56069" lon="2.98634">
        <ele>289.2</ele>
        <time>2018-02-25T07:50:50.000Z</time>
      </trkpt>
      <trkpt lat="43.56067" lon="2.9863">
        <ele>289.9</ele>
        <time>2018-02-25T07:50:52.000Z</time>
      </trkpt>
      <trkpt lat="43.56064" lon="2.98627">
        <ele>290.3</ele>
        <time>2018-02-25T07:50:54.000Z</time>
      </trkpt>
      <trkpt lat="43.56061" lon="2.98622">
        <ele>290.6</ele>
        <time>2018-02-25T07:50:56.000Z</time>
      </trkpt>
      <trkpt lat="43.56059" lon="2.9862">
        <ele>290.8</ele>
        <time>2018-02-25T07:50:58.000Z</time>
      </trkpt>
      <trkpt lat="43.56055" lon="2.98618">
        <ele>291</ele>
        <time>2018-02-25T07:51:01.000Z</time>
      </trkpt>
      <trkpt lat="43.56052" lon="2.98616">
        <ele>291.4</ele>
        <time>2018-02-25T07:51:03.000Z</time>
      </trkpt>
      <trkpt lat="43.56049" lon="2.98614">
        <ele>292</ele>
        <time>2018-02-25T07:51:05.000Z</time>
      </trkpt>
      <trkpt lat="43.56046" lon="2.98612">
        <ele>292.3</ele>
        <time>2018-02-25T07:51:07.000Z</time>
      </trkpt>
      <trkpt lat="43.56043" lon="2.9861">
        <ele>292.6</ele>
        <time>2018-02-25T07:51:09.000Z</time>
      </trkpt>
      <trkpt lat="43.5604" lon="2.98609">
        <ele>292.8</ele>
        <time>2018-02-25T07:51:11.000Z</time>
      </trkpt>
      <trkpt lat="43.56036" lon="2.98608">
        <ele>293</ele>
        <time>2018-02-25T07:51:13.000Z</time>
      </trkpt>
      <trkpt lat="43.56033" lon="2.98607">
        <ele>293.4</ele>
        <time>2018-02-25T07:51:15.000Z</time>
      </trkpt>
      <trkpt lat="43.56029" lon="2.98607">
        <ele>293.9</ele>
        <time>2018-02-25T07:51:18.000Z</time>
      </trkpt>
      <trkpt lat="43.56025" lon="2.98607">
        <ele>294.1</ele>
        <time>2018-02-25T07:51:21.000Z</time>
      </trkpt>
      <trkpt lat="43.56022" lon="2.98606">
        <ele>294.2</ele>
        <time>2018-02-25T07:51:23.000Z</time>
      </trkpt>
      <trkpt lat="43.56019" lon="2.98605">
        <ele>294.4</ele>
        <time>2018-02-25T07:51:25.000Z</time>
      </trkpt>
      <trkpt lat="43.56016" lon="2.98605">
        <ele>294.6</ele>
        <time>2018-02-25T07:51:27.000Z</time>
      </trkpt>
      <trkpt lat="43.56012" lon="2.98605">
        <ele>294.8</ele>
        <time>2018-02-25T07:51:29.000Z</time>
      </trkpt>
      <trkpt lat="43.56009" lon="2.98604">
        <ele>295</ele>
        <time>2018-02-25T07:51:31.000Z</time>
      </trkpt>
      <trkpt lat="43.56006" lon="2.98603">
        <ele>295.3</ele>
        <time>2018-02-25T07:51:33.000Z</time>
      </trkpt>
      <trkpt lat="43.56002" lon="2.98603">
        <ele>295.7</ele>
        <time>2018-02-25T07:51:35.000Z</time>
      </trkpt>
      <trkpt lat="43.55999" lon="2.98602">
        <ele>296.1</ele>
        <time>2018-02-25T07:51:37.000Z</time>
      </trkpt>
      <trkpt lat="43.55995" lon="2.986">
        <ele>296.3</ele>
        <time>2018-02-25T07:51:39.000Z</time>
      </trkpt>
      <trkpt lat="43.55992" lon="2.986">
        <ele>296.5</ele>
        <time>2018-02-25T07:51:41.000Z</time>
      </trkpt>
      <trkpt lat="43.55989" lon="2.986">
        <ele>296.7</ele>
        <time>2018-02-25T07:51:43.000Z</time>
      </trkpt>
      <trkpt lat="43.55985" lon="2.98599">
        <ele>296.9</ele>
        <time>2018-02-25T07:51:45.000Z</time>
      </trkpt>
      <trkpt lat="43.55982" lon="2.98599">
        <ele>297.3</ele>
        <time>2018-02-25T07:51:47.000Z</time>
      </trkpt>
      <trkpt lat="43.55979" lon="2.98599">
        <ele>297.7</ele>
        <time>2018-02-25T07:51:49.000Z</time>
      </trkpt>
      <trkpt lat="43.55976" lon="2.98598">
        <ele>298.1</ele>
        <time>2018-02-25T07:51:51.000Z</time>
      </trkpt>
      <trkpt lat="43.55972" lon="2.98598">
        <ele>298.3</ele>
        <time>2018-02-25T07:51:53.000Z</time>
      </trkpt>
      <trkpt lat="43.55969" lon="2.98598">
        <ele>298.5</ele>
        <time>2018-02-25T07:51:55.000Z</time>
      </trkpt>
      <trkpt lat="43.55966" lon="2.98599">
        <ele>298.6</ele>
        <time>2018-02-25T07:51:57.000Z</time>
      </trkpt>
      <trkpt lat="43.55962" lon="2.98599">
        <ele>298.8</ele>
        <time>2018-02-25T07:51:59.000Z</time>
      </trkpt>
      <trkpt lat="43.55959" lon="2.98598">
        <ele>299</ele>
        <time>2018-02-25T07:52:01.000Z</time>
      </trkpt>
      <trkpt lat="43.55955" lon="2.98598">
        <ele>299.4</ele>
        <time>2018-02-25T07:52:03.000Z</time>
      </trkpt>
      <trkpt lat="43.55952" lon="2.98598">
        <ele>299.8</ele>
        <time>2018-02-25T07:52:05.000Z</time>
      </trkpt>
      <trkpt lat="43.55949" lon="2.98597">
        <ele>300.1</ele>
        <time>2018-02-25T07:52:07.000Z</time>
      </trkpt>
      <trkpt lat="43.55945" lon="2.98598">
        <ele>304.9</ele>
        <time>2018-02-25T07:52:10.000Z</time>
      </trkpt>
      <trkpt lat="43.55942" lon="2.98599">
        <ele>304.8</ele>
        <time>2018-02-25T07:52:13.000Z</time>
      </trkpt>
      <trkpt lat="43.55939" lon="2.98598">
        <ele>304.5</ele>
        <time>2018-02-25T07:52:16.000Z</time>
      </trkpt>
      <trkpt lat="43.55935" lon="2.98598">
        <ele>303.9</ele>
        <time>2018-02-25T07:52:19.000Z</time>
      </trkpt>
      <trkpt lat="43.55932" lon="2.98598">
        <ele>303.5</ele>
        <time>2018-02-25T07:52:21.000Z</time>
      </trkpt>
      <trkpt lat="43.55928" lon="2.98599">
        <ele>303.1</ele>
        <time>2018-02-25T07:52:23.000Z</time>
      </trkpt>
      <trkpt lat="43.55926" lon="2.98603">
        <ele>302.9</ele>
        <time>2018-02-25T07:52:25.000Z</time>
      </trkpt>
      <trkpt lat="43.55927" lon="2.98607">
        <ele>303</ele>
        <time>2018-02-25T07:52:27.000Z</time>
      </trkpt>
      <trkpt lat="43.55929" lon="2.9861">
        <ele>303.2</ele>
        <time>2018-02-25T07:52:29.000Z</time>
      </trkpt>
      <trkpt lat="43.55933" lon="2.98609">
        <ele>303.8</ele>
        <time>2018-02-25T07:52:31.000Z</time>
      </trkpt>
      <trkpt lat="43.55937" lon="2.98609">
        <ele>304.5</ele>
        <time>2018-02-25T07:52:33.000Z</time>
      </trkpt>
      <trkpt lat="43.5594" lon="2.98609">
        <ele>304.8</ele>
        <time>2018-02-25T07:52:35.000Z</time>
      </trkpt>
      <trkpt lat="43.55944" lon="2.98609">
        <ele>305</ele>
        <time>2018-02-25T07:52:39.000Z</time>
      </trkpt>
      <trkpt lat="43.55946" lon="2.9861">
        <ele>305.1</ele>
        <time>2018-02-25T07:52:41.000Z</time>
      </trkpt>
      <trkpt lat="43.5595" lon="2.98612">
        <ele>305.3</ele>
        <time>2018-02-25T07:52:44.000Z</time>
      </trkpt>
      <trkpt lat="43.55954" lon="2.98613">
        <ele>305.5</ele>
        <time>2018-02-25T07:52:46.000Z</time>
      </trkpt>
      <trkpt lat="43.55957" lon="2.98614">
        <ele>305.9</ele>
        <time>2018-02-25T07:52:48.000Z</time>
      </trkpt>
      <trkpt lat="43.55961" lon="2.98615">
        <ele>306.4</ele>
        <time>2018-02-25T07:52:50.000Z</time>
      </trkpt>
      <trkpt lat="43.55964" lon="2.98616">
        <ele>306.7</ele>
        <time>2018-02-25T07:52:52.000Z</time>
      </trkpt>
      <trkpt lat="43.55967" lon="2.98617">
        <ele>306.9</ele>
        <time>2018-02-25T07:52:54.000Z</time>
      </trkpt>
      <trkpt lat="43.5597" lon="2.98618">
        <ele>307.1</ele>
        <time>2018-02-25T07:52:56.000Z</time>
      </trkpt>
      <trkpt lat="43.55973" lon="2.9862">
        <ele>307.2</ele>
        <time>2018-02-25T07:52:58.000Z</time>
      </trkpt>
      <trkpt lat="43.55976" lon="2.98621">
        <ele>307.4</ele>
        <time>2018-02-25T07:53:00.000Z</time>
      </trkpt>
      <trkpt lat="43.55979" lon="2.98622">
        <ele>307.8</ele>
        <time>2018-02-25T07:53:02.000Z</time>
      </trkpt>
      <trkpt lat="43.55982" lon="2.98624">
        <ele>308.3</ele>
        <time>2018-02-25T07:53:04.000Z</time>
      </trkpt>
      <trkpt lat="43.55986" lon="2.98625">
        <ele>308.7</ele>
        <time>2018-02-25T07:53:06.000Z</time>
      </trkpt>
      <trkpt lat="43.55989" lon="2.98627">
        <ele>308.9</ele>
        <time>2018-02-25T07:53:08.000Z</time>
      </trkpt>
      <trkpt lat="43.55992" lon="2.98629">
        <ele>309.1</ele>
        <time>2018-02-25T07:53:10.000Z</time>
      </trkpt>
      <trkpt lat="43.55995" lon="2.98631">
        <ele>309.3</ele>
        <time>2018-02-25T07:53:12.000Z</time>
      </trkpt>
      <trkpt lat="43.55999" lon="2.98632">
        <ele>309.4</ele>
        <time>2018-02-25T07:53:15.000Z</time>
      </trkpt>
      <trkpt lat="43.56002" lon="2.98634">
        <ele>309.7</ele>
        <time>2018-02-25T07:53:17.000Z</time>
      </trkpt>
      <trkpt lat="43.56005" lon="2.98636">
        <ele>310.1</ele>
        <time>2018-02-25T07:53:19.000Z</time>
      </trkpt>
      <trkpt lat="43.56008" lon="2.98639">
        <ele>310.6</ele>
        <time>2018-02-25T07:53:21.000Z</time>
      </trkpt>
      <trkpt lat="43.56011" lon="2.98642">
        <ele>310.8</ele>
        <time>2018-02-25T07:53:23.000Z</time>
      </trkpt>
      <trkpt lat="43.56014" lon="2.98645">
        <ele>311</ele>
        <time>2018-02-25T07:53:25.000Z</time>
      </trkpt>
      <trkpt lat="43.56018" lon="2.98646">
        <ele>311.2</ele>
        <time>2018-02-25T07:53:28.000Z</time>
      </trkpt>
      <trkpt lat="43.56021" lon="2.98648">
        <ele>311.4</ele>
        <time>2018-02-25T07:53:31.000Z</time>
      </trkpt>
      <trkpt lat="43.56023" lon="2.98651">
        <ele>311.6</ele>
        <time>2018-02-25T07:53:33.000Z</time>
      </trkpt>
      <trkpt lat="43.56026" lon="2.98653">
        <ele>311.9</ele>
        <time>2018-02-25T07:53:35.000Z</time>
      </trkpt>
      <trkpt lat="43.56028" lon="2.98655">
        <ele>312.3</ele>
        <time>2018-02-25T07:53:37.000Z</time>
      </trkpt>
      <trkpt lat="43.56031" lon="2.98659">
        <ele>312.5</ele>
        <time>2018-02-25T07:53:39.000Z</time>
      </trkpt>
      <trkpt lat="43.56033" lon="2.98663">
        <ele>312.7</ele>
        <time>2018-02-25T07:53:41.000Z</time>
      </trkpt>
      <trkpt lat="43.56035" lon="2.98667">
        <ele>312.8</ele>
        <time>2018-02-25T07:53:43.000Z</time>
      </trkpt>
      <trkpt lat="43.56037" lon="2.98671">
        <ele>313</ele>
        <time>2018-02-25T07:53:45.000Z</time>
      </trkpt>
      <trkpt lat="43.5604" lon="2.98675">
        <ele>313.2</ele>
        <time>2018-02-25T07:53:48.000Z</time>
      </trkpt>
      <trkpt lat="43.56042" lon="2.98678">
        <ele>313.3</ele>
        <time>2018-02-25T07:53:50.000Z</time>
      </trkpt>
      <trkpt lat="43.56043" lon="2.98683">
        <ele>313.4</ele>
        <time>2018-02-25T07:53:52.000Z</time>
      </trkpt>
      <trkpt lat="43.56044" lon="2.98689">
        <ele>313.7</ele>
        <time>2018-02-25T07:53:54.000Z</time>
      </trkpt>
      <trkpt lat="43.56046" lon="2.98694">
        <ele>313.9</ele>
        <time>2018-02-25T07:53:56.000Z</time>
      </trkpt>
      <trkpt lat="43.56048" lon="2.98699">
        <ele>314.5</ele>
        <time>2018-02-25T07:53:58.000Z</time>
      </trkpt>
      <trkpt lat="43.5605" lon="2.98703">
        <ele>314.9</ele>
        <time>2018-02-25T07:54:00.000Z</time>
      </trkpt>
      <trkpt lat="43.56052" lon="2.98707">
        <ele>315.1</ele>
        <time>2018-02-25T07:54:02.000Z</time>
      </trkpt>
      <trkpt lat="43.56053" lon="2.98711">
        <ele>315.2</ele>
        <time>2018-02-25T07:54:04.000Z</time>
      </trkpt>
      <trkpt lat="43.56055" lon="2.98715">
        <ele>315.4</ele>
        <time>2018-02-25T07:54:06.000Z</time>
      </trkpt>
      <trkpt lat="43.56056" lon="2.98719">
        <ele>315.5</ele>
        <time>2018-02-25T07:54:08.000Z</time>
      </trkpt>
      <trkpt lat="43.56056" lon="2.98724">
        <ele>315.7</ele>
        <time>2018-02-25T07:54:10.000Z</time>
      </trkpt>
      <trkpt lat="43.56057" lon="2.98729">
        <ele>315.9</ele>
        <time>2018-02-25T07:54:12.000Z</time>
      </trkpt>
      <trkpt lat="43.56058" lon="2.98733">
        <ele>316.4</ele>
        <time>2018-02-25T07:54:14.000Z</time>
      </trkpt>
      <trkpt lat="43.56059" lon="2.98737">
        <ele>316.9</ele>
        <time>2018-02-25T07:54:16.000Z</time>
      </trkpt>
      <trkpt lat="43.56059" lon="2.98741">
        <ele>317.2</ele>
        <time>2018-02-25T07:54:18.000Z</time>
      </trkpt>
      <trkpt lat="43.56061" lon="2.98745">
        <ele>317.4</ele>
        <time>2018-02-25T07:54:20.000Z</time>
      </trkpt>
      <trkpt lat="43.56063" lon="2.98749">
        <ele>317.7</ele>
        <time>2018-02-25T07:54:24.000Z</time>
      </trkpt>
      <trkpt lat="43.56063" lon="2.98753">
        <ele>318.1</ele>
        <time>2018-02-25T07:54:26.000Z</time>
      </trkpt>
      <trkpt lat="43.56063" lon="2.98758">
        <ele>318.8</ele>
        <time>2018-02-25T07:54:28.000Z</time>
      </trkpt>
      <trkpt lat="43.56063" lon="2.98763">
        <ele>319</ele>
        <time>2018-02-25T07:54:30.000Z</time>
      </trkpt>
      <trkpt lat="43.56063" lon="2.98768">
        <ele>319.3</ele>
        <time>2018-02-25T07:54:32.000Z</time>
      </trkpt>
      <trkpt lat="43.56063" lon="2.98773">
        <ele>319.5</ele>
        <time>2018-02-25T07:54:34.000Z</time>
      </trkpt>
      <trkpt lat="43.56062" lon="2.98779">
        <ele>319.8</ele>
        <time>2018-02-25T07:54:36.000Z</time>
      </trkpt>
      <trkpt lat="43.56062" lon="2.98784">
        <ele>320.1</ele>
        <time>2018-02-25T07:54:38.000Z</time>
      </trkpt>
      <trkpt lat="43.56062" lon="2.98789">
        <ele>320.6</ele>
        <time>2018-02-25T07:54:40.000Z</time>
      </trkpt>
      <trkpt lat="43.56062" lon="2.98793">
        <ele>321</ele>
        <time>2018-02-25T07:54:42.000Z</time>
      </trkpt>
      <trkpt lat="43.56062" lon="2.98798">
        <ele>321.2</ele>
        <time>2018-02-25T07:54:44.000Z</time>
      </trkpt>
      <trkpt lat="43.56063" lon="2.98802">
        <ele>321.4</ele>
        <time>2018-02-25T07:54:46.000Z</time>
      </trkpt>
      <trkpt lat="43.56063" lon="2.98806">
        <ele>321.5</ele>
        <time>2018-02-25T07:54:48.000Z</time>
      </trkpt>
      <trkpt lat="43.56063" lon="2.98811">
        <ele>321.7</ele>
        <time>2018-02-25T07:54:51.000Z</time>
      </trkpt>
      <trkpt lat="43.56063" lon="2.98815">
        <ele>321.8</ele>
        <time>2018-02-25T07:54:53.000Z</time>
      </trkpt>
      <trkpt lat="43.56064" lon="2.9882">
        <ele>322.2</ele>
        <time>2018-02-25T07:54:56.000Z</time>
      </trkpt>
      <trkpt lat="43.56065" lon="2.98823">
        <ele>322.7</ele>
        <time>2018-02-25T07:54:58.000Z</time>
      </trkpt>
      <trkpt lat="43.56064" lon="2.98827">
        <ele>323.1</ele>
        <time>2018-02-25T07:55:00.000Z</time>
      </trkpt>
      <trkpt lat="43.56064" lon="2.98833">
        <ele>323.4</ele>
        <time>2018-02-25T07:55:03.000Z</time>
      </trkpt>
      <trkpt lat="43.56065" lon="2.98837">
        <ele>323.6</ele>
        <time>2018-02-25T07:55:05.000Z</time>
      </trkpt>
      <trkpt lat="43.56065" lon="2.98842">
        <ele>324</ele>
        <time>2018-02-25T07:55:08.000Z</time>
      </trkpt>
      <trkpt lat="43.56065" lon="2.98846">
        <ele>324.2</ele>
        <time>2018-02-25T07:55:10.000Z</time>
      </trkpt>
      <trkpt lat="43.56066" lon="2.9885">
        <ele>324.6</ele>
        <time>2018-02-25T07:55:12.000Z</time>
      </trkpt>
      <trkpt lat="43.56067" lon="2.98854">
        <ele>325</ele>
        <time>2018-02-25T07:55:14.000Z</time>
      </trkpt>
      <trkpt lat="43.56068" lon="2.98858">
        <ele>325.2</ele>
        <time>2018-02-25T07:55:16.000Z</time>
      </trkpt>
      <trkpt lat="43.5607" lon="2.98862">
        <ele>325.4</ele>
        <time>2018-02-25T07:55:19.000Z</time>
      </trkpt>
      <trkpt lat="43.56072" lon="2.98865">
        <ele>325.6</ele>
        <time>2018-02-25T07:55:21.000Z</time>
      </trkpt>
      <trkpt lat="43.56073" lon="2.9887">
        <ele>325.7</ele>
        <time>2018-02-25T07:55:23.000Z</time>
      </trkpt>
      <trkpt lat="43.56074" lon="2.98874">
        <ele>325.8</ele>
        <time>2018-02-25T07:55:25.000Z</time>
      </trkpt>
      <trkpt lat="43.56076" lon="2.98878">
        <ele>326</ele>
        <time>2018-02-25T07:55:27.000Z</time>
      </trkpt>
      <trkpt lat="43.56076" lon="2.98882">
        <ele>326.3</ele>
        <time>2018-02-25T07:55:29.000Z</time>
      </trkpt>
      <trkpt lat="43.56076" lon="2.98887">
        <ele>326.7</ele>
        <time>2018-02-25T07:55:31.000Z</time>
      </trkpt>
      <trkpt lat="43.56079" lon="2.98892">
        <ele>327.3</ele>
        <time>2018-02-25T07:55:33.000Z</time>
      </trkpt>
      <trkpt lat="43.56081" lon="2.98896">
        <ele>327.7</ele>
        <time>2018-02-25T07:55:35.000Z</time>
      </trkpt>
      <trkpt lat="43.56083" lon="2.989">
        <ele>327.8</ele>
        <time>2018-02-25T07:55:37.000Z</time>
      </trkpt>
      <trkpt lat="43.56084" lon="2.98904">
        <ele>327.9</ele>
        <time>2018-02-25T07:55:39.000Z</time>
      </trkpt>
      <trkpt lat="43.56084" lon="2.98907">
        <ele>328.1</ele>
        <time>2018-02-25T07:55:41.000Z</time>
      </trkpt>
      <trkpt lat="43.56086" lon="2.98913">
        <ele>328.3</ele>
        <time>2018-02-25T07:55:44.000Z</time>
      </trkpt>
      <trkpt lat="43.56086" lon="2.98917">
        <ele>328.5</ele>
        <time>2018-02-25T07:55:46.000Z</time>
      </trkpt>
      <trkpt lat="43.56087" lon="2.98921">
        <ele>328.7</ele>
        <time>2018-02-25T07:55:48.000Z</time>
      </trkpt>
      <trkpt lat="43.5609" lon="2.98925">
        <ele>329.4</ele>
        <time>2018-02-25T07:55:51.000Z</time>
      </trkpt>
      <trkpt lat="43.56093" lon="2.98927">
        <ele>329.8</ele>
        <time>2018-02-25T07:55:53.000Z</time>
      </trkpt>
      <trkpt lat="43.56096" lon="2.98931">
        <ele>330.2</ele>
        <time>2018-02-25T07:55:55.000Z</time>
      </trkpt>
      <trkpt lat="43.56097" lon="2.98935">
        <ele>330.4</ele>
        <time>2018-02-25T07:55:57.000Z</time>
      </trkpt>
      <trkpt lat="43.56098" lon="2.98939">
        <ele>330.9</ele>
        <time>2018-02-25T07:55:59.000Z</time>
      </trkpt>
      <trkpt lat="43.56098" lon="2.98942">
        <ele>331.3</ele>
        <time>2018-02-25T07:56:01.000Z</time>
      </trkpt>
      <trkpt lat="43.561" lon="2.98947">
        <ele>331.7</ele>
        <time>2018-02-25T07:56:04.000Z</time>
      </trkpt>
      <trkpt lat="43.56101" lon="2.98961">
        <ele>332.2</ele>
        <time>2018-02-25T07:56:10.000Z</time>
      </trkpt>
      <trkpt lat="43.56101" lon="2.98967">
        <ele>332.4</ele>
        <time>2018-02-25T07:56:12.000Z</time>
      </trkpt>
      <trkpt lat="43.56102" lon="2.98972">
        <ele>332.5</ele>
        <time>2018-02-25T07:56:14.000Z</time>
      </trkpt>
      <trkpt lat="43.56104" lon="2.98977">
        <ele>332.8</ele>
        <time>2018-02-25T07:56:16.000Z</time>
      </trkpt>
      <trkpt lat="43.56106" lon="2.98982">
        <ele>333.3</ele>
        <time>2018-02-25T07:56:18.000Z</time>
      </trkpt>
      <trkpt lat="43.56106" lon="2.98987">
        <ele>333.5</ele>
        <time>2018-02-25T07:56:20.000Z</time>
      </trkpt>
      <trkpt lat="43.56107" lon="2.98991">
        <ele>333.7</ele>
        <time>2018-02-25T07:56:22.000Z</time>
      </trkpt>
      <trkpt lat="43.56107" lon="2.98996">
        <ele>333.9</ele>
        <time>2018-02-25T07:56:24.000Z</time>
      </trkpt>
      <trkpt lat="43.56108" lon="2.99001">
        <ele>334.2</ele>
        <time>2018-02-25T07:56:27.000Z</time>
      </trkpt>
      <trkpt lat="43.56107" lon="2.99006">
        <ele>334.4</ele>
        <time>2018-02-25T07:56:29.000Z</time>
      </trkpt>
      <trkpt lat="43.56106" lon="2.9901">
        <ele>334.7</ele>
        <time>2018-02-25T07:56:31.000Z</time>
      </trkpt>
      <trkpt lat="43.56103" lon="2.99013">
        <ele>334.9</ele>
        <time>2018-02-25T07:56:33.000Z</time>
      </trkpt>
      <trkpt lat="43.56099" lon="2.99015">
        <ele>335.1</ele>
        <time>2018-02-25T07:56:35.000Z</time>
      </trkpt>
      <trkpt lat="43.56095" lon="2.99014">
        <ele>335.4</ele>
        <time>2018-02-25T07:56:37.000Z</time>
      </trkpt>
      <trkpt lat="43.56093" lon="2.99011">
        <ele>335.6</ele>
        <time>2018-02-25T07:56:39.000Z</time>
      </trkpt>
      <trkpt lat="43.56092" lon="2.99008">
        <ele>335.9</ele>
        <time>2018-02-25T07:56:41.000Z</time>
      </trkpt>
      <trkpt lat="43.56092" lon="2.99004">
        <ele>336.1</ele>
        <time>2018-02-25T07:56:43.000Z</time>
      </trkpt>
      <trkpt lat="43.56092" lon="2.98999">
        <ele>336.3</ele>
        <time>2018-02-25T07:56:46.000Z</time>
      </trkpt>
      <trkpt lat="43.56091" lon="2.98995">
        <ele>336.4</ele>
        <time>2018-02-25T07:56:48.000Z</time>
      </trkpt>
      <trkpt lat="43.56091" lon="2.9899">
        <ele>336.7</ele>
        <time>2018-02-25T07:56:50.000Z</time>
      </trkpt>
      <trkpt lat="43.5609" lon="2.98987">
        <ele>337.1</ele>
        <time>2018-02-25T07:56:52.000Z</time>
      </trkpt>
      <trkpt lat="43.56088" lon="2.98984">
        <ele>337.7</ele>
        <time>2018-02-25T07:56:54.000Z</time>
      </trkpt>
      <trkpt lat="43.56085" lon="2.9898">
        <ele>337.9</ele>
        <time>2018-02-25T07:56:56.000Z</time>
      </trkpt>
      <trkpt lat="43.56083" lon="2.98976">
        <ele>338.2</ele>
        <time>2018-02-25T07:56:58.000Z</time>
      </trkpt>
      <trkpt lat="43.5608" lon="2.98972">
        <ele>338.4</ele>
        <time>2018-02-25T07:57:00.000Z</time>
      </trkpt>
      <trkpt lat="43.56077" lon="2.98969">
        <ele>338.6</ele>
        <time>2018-02-25T07:57:02.000Z</time>
      </trkpt>
      <trkpt lat="43.56075" lon="2.98966">
        <ele>338.8</ele>
        <time>2018-02-25T07:57:04.000Z</time>
      </trkpt>
      <trkpt lat="43.56072" lon="2.98964">
        <ele>339</ele>
        <time>2018-02-25T07:57:06.000Z</time>
      </trkpt>
      <trkpt lat="43.5607" lon="2.98962">
        <ele>339.4</ele>
        <time>2018-02-25T07:57:09.000Z</time>
      </trkpt>
      <trkpt lat="43.56067" lon="2.98959">
        <ele>339.9</ele>
        <time>2018-02-25T07:57:12.000Z</time>
      </trkpt>
      <trkpt lat="43.56064" lon="2.98957">
        <ele>340.2</ele>
        <time>2018-02-25T07:57:15.000Z</time>
      </trkpt>
      <trkpt lat="43.5606" lon="2.98954">
        <ele>340.5</ele>
        <time>2018-02-25T07:57:18.000Z</time>
      </trkpt>
      <trkpt lat="43.56057" lon="2.98951">
        <ele>340.7</ele>
        <time>2018-02-25T07:57:20.000Z</time>
      </trkpt>
      <trkpt lat="43.56055" lon="2.98948">
        <ele>341.1</ele>
        <time>2018-02-25T07:57:22.000Z</time>
      </trkpt>
      <trkpt lat="43.56054" lon="2.98944">
        <ele>341.6</ele>
        <time>2018-02-25T07:57:24.000Z</time>
      </trkpt>
      <trkpt lat="43.56052" lon="2.98939">
        <ele>342</ele>
        <time>2018-02-25T07:57:26.000Z</time>
      </trkpt>
      <trkpt lat="43.56049" lon="2.98936">
        <ele>342.2</ele>
        <time>2018-02-25T07:57:28.000Z</time>
      </trkpt>
      <trkpt lat="43.56046" lon="2.98933">
        <ele>342.5</ele>
        <time>2018-02-25T07:57:31.000Z</time>
      </trkpt>
      <trkpt lat="43.56044" lon="2.9893">
        <ele>342.7</ele>
        <time>2018-02-25T07:57:33.000Z</time>
      </trkpt>
      <trkpt lat="43.56042" lon="2.98926">
        <ele>343.1</ele>
        <time>2018-02-25T07:57:36.000Z</time>
      </trkpt>
      <trkpt lat="43.56039" lon="2.98921">
        <ele>343.7</ele>
        <time>2018-02-25T07:57:39.000Z</time>
      </trkpt>
      <trkpt lat="43.56037" lon="2.98917">
        <ele>344.2</ele>
        <time>2018-02-25T07:57:41.000Z</time>
      </trkpt>
      <trkpt lat="43.56034" lon="2.98913">
        <ele>344.5</ele>
        <time>2018-02-25T07:57:44.000Z</time>
      </trkpt>
      <trkpt lat="43.56034" lon="2.98908">
        <ele>344.8</ele>
        <time>2018-02-25T07:57:47.000Z</time>
      </trkpt>
      <trkpt lat="43.56032" lon="2.98904">
        <ele>345</ele>
        <time>2018-02-25T07:57:49.000Z</time>
      </trkpt>
      <trkpt lat="43.5603" lon="2.989">
        <ele>345.5</ele>
        <time>2018-02-25T07:57:51.000Z</time>
      </trkpt>
      <trkpt lat="43.56028" lon="2.98896">
        <ele>346</ele>
        <time>2018-02-25T07:57:53.000Z</time>
      </trkpt>
      <trkpt lat="43.56025" lon="2.98892">
        <ele>346.4</ele>
        <time>2018-02-25T07:57:55.000Z</time>
      </trkpt>
      <trkpt lat="43.56024" lon="2.98888">
        <ele>346.6</ele>
        <time>2018-02-25T07:57:57.000Z</time>
      </trkpt>
      <trkpt lat="43.56023" lon="2.98884">
        <ele>346.7</ele>
        <time>2018-02-25T07:58:00.000Z</time>
      </trkpt>
      <trkpt lat="43.56021" lon="2.9888">
        <ele>347</ele>
        <time>2018-02-25T07:58:02.000Z</time>
      </trkpt>
      <trkpt lat="43.56021" lon="2.98875">
        <ele>347.4</ele>
        <time>2018-02-25T07:58:05.000Z</time>
      </trkpt>
      <trkpt lat="43.5602" lon="2.98871">
        <ele>347.9</ele>
        <time>2018-02-25T07:58:07.000Z</time>
      </trkpt>
      <trkpt lat="43.56019" lon="2.98866">
        <ele>348.3</ele>
        <time>2018-02-25T07:58:10.000Z</time>
      </trkpt>
      <trkpt lat="43.56018" lon="2.98861">
        <ele>348.5</ele>
        <time>2018-02-25T07:58:12.000Z</time>
      </trkpt>
      <trkpt lat="43.56015" lon="2.98856">
        <ele>348.7</ele>
        <time>2018-02-25T07:58:14.000Z</time>
      </trkpt>
      <trkpt lat="43.56013" lon="2.98852">
        <ele>349</ele>
        <time>2018-02-25T07:58:16.000Z</time>
      </trkpt>
      <trkpt lat="43.5601" lon="2.98848">
        <ele>349.3</ele>
        <time>2018-02-25T07:58:18.000Z</time>
      </trkpt>
      <trkpt lat="43.56009" lon="2.98844">
        <ele>349.8</ele>
        <time>2018-02-25T07:58:20.000Z</time>
      </trkpt>
      <trkpt lat="43.56008" lon="2.98839">
        <ele>350.1</ele>
        <time>2018-02-25T07:58:22.000Z</time>
      </trkpt>
      <trkpt lat="43.56007" lon="2.98834">
        <ele>350.3</ele>
        <time>2018-02-25T07:58:24.000Z</time>
      </trkpt>
      <trkpt lat="43.56005" lon="2.9883">
        <ele>350.5</ele>
        <time>2018-02-25T07:58:26.000Z</time>
      </trkpt>
      <trkpt lat="43.56003" lon="2.98825">
        <ele>350.6</ele>
        <time>2018-02-25T07:58:28.000Z</time>
      </trkpt>
      <trkpt lat="43.56002" lon="2.9882">
        <ele>350.8</ele>
        <time>2018-02-25T07:58:30.000Z</time>
      </trkpt>
      <trkpt lat="43.56" lon="2.98815">
        <ele>350.9</ele>
        <time>2018-02-25T07:58:32.000Z</time>
      </trkpt>
      <trkpt lat="43.55999" lon="2.9881">
        <ele>351.1</ele>
        <time>2018-02-25T07:58:34.000Z</time>
      </trkpt>
      <trkpt lat="43.55998" lon="2.98806">
        <ele>351.5</ele>
        <time>2018-02-25T07:58:36.000Z</time>
      </trkpt>
      <trkpt lat="43.55997" lon="2.98801">
        <ele>352</ele>
        <time>2018-02-25T07:58:38.000Z</time>
      </trkpt>
      <trkpt lat="43.55994" lon="2.98797">
        <ele>352.3</ele>
        <time>2018-02-25T07:58:40.000Z</time>
      </trkpt>
      <trkpt lat="43.55992" lon="2.98795">
        <ele>352.6</ele>
        <time>2018-02-25T07:58:42.000Z</time>
      </trkpt>
      <trkpt lat="43.55989" lon="2.98793">
        <ele>352.8</ele>
        <time>2018-02-25T07:58:44.000Z</time>
      </trkpt>
      <trkpt lat="43.55985" lon="2.98791">
        <ele>353</ele>
        <time>2018-02-25T07:58:47.000Z</time>
      </trkpt>
      <trkpt lat="43.55982" lon="2.98791">
        <ele>353.4</ele>
        <time>2018-02-25T07:58:49.000Z</time>
      </trkpt>
      <trkpt lat="43.55979" lon="2.98791">
        <ele>354.1</ele>
        <time>2018-02-25T07:58:51.000Z</time>
      </trkpt>
      <trkpt lat="43.55975" lon="2.9879">
        <ele>354.5</ele>
        <time>2018-02-25T07:58:53.000Z</time>
      </trkpt>
      <trkpt lat="43.55972" lon="2.98788">
        <ele>354.7</ele>
        <time>2018-02-25T07:58:55.000Z</time>
      </trkpt>
      <trkpt lat="43.55969" lon="2.98786">
        <ele>354.9</ele>
        <time>2018-02-25T07:58:57.000Z</time>
      </trkpt>
      <trkpt lat="43.55966" lon="2.98786">
        <ele>355.1</ele>
        <time>2018-02-25T07:58:59.000Z</time>
      </trkpt>
      <trkpt lat="43.55962" lon="2.98784">
        <ele>355.4</ele>
        <time>2018-02-25T07:59:01.000Z</time>
      </trkpt>
      <trkpt lat="43.55959" lon="2.98782">
        <ele>355.9</ele>
        <time>2018-02-25T07:59:03.000Z</time>
      </trkpt>
      <trkpt lat="43.55956" lon="2.98781">
        <ele>356.5</ele>
        <time>2018-02-25T07:59:05.000Z</time>
      </trkpt>
      <trkpt lat="43.55952" lon="2.9878">
        <ele>356.7</ele>
        <time>2018-02-25T07:59:07.000Z</time>
      </trkpt>
      <trkpt lat="43.55949" lon="2.9878">
        <ele>357</ele>
        <time>2018-02-25T07:59:09.000Z</time>
      </trkpt>
      <trkpt lat="43.55945" lon="2.98779">
        <ele>357.3</ele>
        <time>2018-02-25T07:59:11.000Z</time>
      </trkpt>
      <trkpt lat="43.55943" lon="2.98778">
        <ele>357.5</ele>
        <time>2018-02-25T07:59:13.000Z</time>
      </trkpt>
      <trkpt lat="43.5594" lon="2.98778">
        <ele>357.8</ele>
        <time>2018-02-25T07:59:15.000Z</time>
      </trkpt>
      <trkpt lat="43.55936" lon="2.9878">
        <ele>358.4</ele>
        <time>2018-02-25T07:59:17.000Z</time>
      </trkpt>
      <trkpt lat="43.55935" lon="2.98784">
        <ele>358.9</ele>
        <time>2018-02-25T07:59:19.000Z</time>
      </trkpt>
      <trkpt lat="43.55935" lon="2.98788">
        <ele>359.3</ele>
        <time>2018-02-25T07:59:21.000Z</time>
      </trkpt>
      <trkpt lat="43.55937" lon="2.98793">
        <ele>359.7</ele>
        <time>2018-02-25T07:59:23.000Z</time>
      </trkpt>
      <trkpt lat="43.5594" lon="2.98795">
        <ele>360.2</ele>
        <time>2018-02-25T07:59:25.000Z</time>
      </trkpt>
      <trkpt lat="43.55943" lon="2.98798">
        <ele>360.8</ele>
        <time>2018-02-25T07:59:27.000Z</time>
      </trkpt>
      <trkpt lat="43.55945" lon="2.988">
        <ele>361.1</ele>
        <time>2018-02-25T07:59:29.000Z</time>
      </trkpt>
      <trkpt lat="43.55948" lon="2.98803">
        <ele>361.4</ele>
        <time>2018-02-25T07:59:31.000Z</time>
      </trkpt>
      <trkpt lat="43.55951" lon="2.98805">
        <ele>361.6</ele>
        <time>2018-02-25T07:59:33.000Z</time>
      </trkpt>
      <trkpt lat="43.55953" lon="2.98808">
        <ele>361.9</ele>
        <time>2018-02-25T07:59:35.000Z</time>
      </trkpt>
      <trkpt lat="43.55956" lon="2.98811">
        <ele>362.4</ele>
        <time>2018-02-25T07:59:37.000Z</time>
      </trkpt>
      <trkpt lat="43.55958" lon="2.98813">
        <ele>362.7</ele>
        <time>2018-02-25T07:59:39.000Z</time>
      </trkpt>
      <trkpt lat="43.5596" lon="2.98816">
        <ele>362.9</ele>
        <time>2018-02-25T07:59:41.000Z</time>
      </trkpt>
      <trkpt lat="43.55963" lon="2.9882">
        <ele>363.1</ele>
        <time>2018-02-25T07:59:44.000Z</time>
      </trkpt>
      <trkpt lat="43.55965" lon="2.98822">
        <ele>363.2</ele>
        <time>2018-02-25T07:59:46.000Z</time>
      </trkpt>
      <trkpt lat="43.55968" lon="2.98825">
        <ele>363.4</ele>
        <time>2018-02-25T07:59:48.000Z</time>
      </trkpt>
      <trkpt lat="43.55971" lon="2.98829">
        <ele>363.7</ele>
        <time>2018-02-25T07:59:50.000Z</time>
      </trkpt>
      <trkpt lat="43.55974" lon="2.98833">
        <ele>364.2</ele>
        <time>2018-02-25T07:59:52.000Z</time>
      </trkpt>
      <trkpt lat="43.55978" lon="2.98837">
        <ele>364.8</ele>
        <time>2018-02-25T07:59:54.000Z</time>
      </trkpt>
      <trkpt lat="43.5598" lon="2.9884">
        <ele>365.1</ele>
        <time>2018-02-25T07:59:56.000Z</time>
      </trkpt>
      <trkpt lat="43.55983" lon="2.98842">
        <ele>365.2</ele>
        <time>2018-02-25T07:59:58.000Z</time>
      </trkpt>
      <trkpt lat="43.55985" lon="2.98845">
        <ele>365.4</ele>
        <time>2018-02-25T08:00:01.000Z</time>
      </trkpt>
      <trkpt lat="43.55987" lon="2.98849">
        <ele>365.6</ele>
        <time>2018-02-25T08:00:04.000Z</time>
      </trkpt>
      <trkpt lat="43.55988" lon="2.98853">
        <ele>365.8</ele>
        <time>2018-02-25T08:00:07.000Z</time>
      </trkpt>
      <trkpt lat="43.55988" lon="2.98858">
        <ele>366.1</ele>
        <time>2018-02-25T08:00:10.000Z</time>
      </trkpt>
      <trkpt lat="43.55988" lon="2.98863">
        <ele>366.6</ele>
        <time>2018-02-25T08:00:12.000Z</time>
      </trkpt>
      <trkpt lat="43.55988" lon="2.98868">
        <ele>367</ele>
        <time>2018-02-25T08:00:14.000Z</time>
      </trkpt>
      <trkpt lat="43.55988" lon="2.98874">
        <ele>367.3</ele>
        <time>2018-02-25T08:00:16.000Z</time>
      </trkpt>
      <trkpt lat="43.55989" lon="2.98879">
        <ele>367.6</ele>
        <time>2018-02-25T08:00:18.000Z</time>
      </trkpt>
      <trkpt lat="43.55989" lon="2.98884">
        <ele>367.8</ele>
        <time>2018-02-25T08:00:20.000Z</time>
      </trkpt>
      <trkpt lat="43.55989" lon="2.98889">
        <ele>368</ele>
        <time>2018-02-25T08:00:22.000Z</time>
      </trkpt>
      <trkpt lat="43.55989" lon="2.98895">
        <ele>368.3</ele>
        <time>2018-02-25T08:00:24.000Z</time>
      </trkpt>
      <trkpt lat="43.55989" lon="2.98901">
        <ele>368.9</ele>
        <time>2018-02-25T08:00:26.000Z</time>
      </trkpt>
      <trkpt lat="43.55989" lon="2.98906">
        <ele>369.2</ele>
        <time>2018-02-25T08:00:28.000Z</time>
      </trkpt>
      <trkpt lat="43.55989" lon="2.9891">
        <ele>369.4</ele>
        <time>2018-02-25T08:00:30.000Z</time>
      </trkpt>
      <trkpt lat="43.55988" lon="2.98916">
        <ele>369.7</ele>
        <time>2018-02-25T08:00:32.000Z</time>
      </trkpt>
      <trkpt lat="43.55988" lon="2.98921">
        <ele>369.9</ele>
        <time>2018-02-25T08:00:34.000Z</time>
      </trkpt>
      <trkpt lat="43.55989" lon="2.98926">
        <ele>370.2</ele>
        <time>2018-02-25T08:00:36.000Z</time>
      </trkpt>
      <trkpt lat="43.5599" lon="2.98931">
        <ele>370.6</ele>
        <time>2018-02-25T08:00:38.000Z</time>
      </trkpt>
      <trkpt lat="43.55993" lon="2.98936">
        <ele>371.1</ele>
        <time>2018-02-25T08:00:40.000Z</time>
      </trkpt>
      <trkpt lat="43.55995" lon="2.9894">
        <ele>371.3</ele>
        <time>2018-02-25T08:00:42.000Z</time>
      </trkpt>
      <trkpt lat="43.55996" lon="2.98944">
        <ele>371.6</ele>
        <time>2018-02-25T08:00:44.000Z</time>
      </trkpt>
      <trkpt lat="43.55998" lon="2.98948">
        <ele>371.7</ele>
        <time>2018-02-25T08:00:46.000Z</time>
      </trkpt>
      <trkpt lat="43.56" lon="2.98953">
        <ele>371.8</ele>
        <time>2018-02-25T08:00:48.000Z</time>
      </trkpt>
      <trkpt lat="43.56001" lon="2.98957">
        <ele>372</ele>
        <time>2018-02-25T08:00:50.000Z</time>
      </trkpt>
      <trkpt lat="43.56003" lon="2.98963">
        <ele>372.1</ele>
        <time>2018-02-25T08:00:52.000Z</time>
      </trkpt>
      <trkpt lat="43.56005" lon="2.98968">
        <ele>372.6</ele>
        <time>2018-02-25T08:00:54.000Z</time>
      </trkpt>
      <trkpt lat="43.56007" lon="2.98972">
        <ele>373.1</ele>
        <time>2018-02-25T08:00:56.000Z</time>
      </trkpt>
      <trkpt lat="43.56008" lon="2.98976">
        <ele>373.4</ele>
        <time>2018-02-25T08:00:58.000Z</time>
      </trkpt>
      <trkpt lat="43.56011" lon="2.98981">
        <ele>373.6</ele>
        <time>2018-02-25T08:01:00.000Z</time>
      </trkpt>
      <trkpt lat="43.56013" lon="2.98986">
        <ele>373.8</ele>
        <time>2018-02-25T08:01:02.000Z</time>
      </trkpt>
      <trkpt lat="43.56015" lon="2.98991">
        <ele>374</ele>
        <time>2018-02-25T08:01:04.000Z</time>
      </trkpt>
      <trkpt lat="43.56017" lon="2.98996">
        <ele>374.1</ele>
        <time>2018-02-25T08:01:06.000Z</time>
      </trkpt>
      <trkpt lat="43.56019" lon="2.99001">
        <ele>374.3</ele>
        <time>2018-02-25T08:01:08.000Z</time>
      </trkpt>
      <trkpt lat="43.56021" lon="2.99006">
        <ele>374.5</ele>
        <time>2018-02-25T08:01:10.000Z</time>
      </trkpt>
      <trkpt lat="43.56022" lon="2.99011">
        <ele>374.9</ele>
        <time>2018-02-25T08:01:12.000Z</time>
      </trkpt>
      <trkpt lat="43.56022" lon="2.99017">
        <ele>375.4</ele>
        <time>2018-02-25T08:01:14.000Z</time>
      </trkpt>
      <trkpt lat="43.56023" lon="2.99021">
        <ele>375.6</ele>
        <time>2018-02-25T08:01:16.000Z</time>
      </trkpt>
      <trkpt lat="43.56025" lon="2.99025">
        <ele>375.9</ele>
        <time>2018-02-25T08:01:18.000Z</time>
      </trkpt>
      <trkpt lat="43.56026" lon="2.99029">
        <ele>376.1</ele>
        <time>2018-02-25T08:01:20.000Z</time>
      </trkpt>
      <trkpt lat="43.56027" lon="2.99033">
        <ele>376.4</ele>
        <time>2018-02-25T08:01:22.000Z</time>
      </trkpt>
      <trkpt lat="43.56028" lon="2.99037">
        <ele>376.7</ele>
        <time>2018-02-25T08:01:24.000Z</time>
      </trkpt>
      <trkpt lat="43.56028" lon="2.99042">
        <ele>377.1</ele>
        <time>2018-02-25T08:01:26.000Z</time>
      </trkpt>
      <trkpt lat="43.56029" lon="2.99046">
        <ele>377.6</ele>
        <time>2018-02-25T08:01:28.000Z</time>
      </trkpt>
      <trkpt lat="43.5603" lon="2.99051">
        <ele>378.1</ele>
        <time>2018-02-25T08:01:30.000Z</time>
      </trkpt>
      <trkpt lat="43.5603" lon="2.99057">
        <ele>378.4</ele>
        <time>2018-02-25T08:01:32.000Z</time>
      </trkpt>
      <trkpt lat="43.5603" lon="2.99061">
        <ele>378.6</ele>
        <time>2018-02-25T08:01:34.000Z</time>
      </trkpt>
      <trkpt lat="43.56031" lon="2.99066">
        <ele>379.2</ele>
        <time>2018-02-25T08:01:37.000Z</time>
      </trkpt>
      <trkpt lat="43.56031" lon="2.9907">
        <ele>379.5</ele>
        <time>2018-02-25T08:01:39.000Z</time>
      </trkpt>
      <trkpt lat="43.56033" lon="2.99074">
        <ele>379.7</ele>
        <time>2018-02-25T08:01:41.000Z</time>
      </trkpt>
      <trkpt lat="43.56034" lon="2.99079">
        <ele>379.9</ele>
        <time>2018-02-25T08:01:43.000Z</time>
      </trkpt>
      <trkpt lat="43.56034" lon="2.99084">
        <ele>380.1</ele>
        <time>2018-02-25T08:01:45.000Z</time>
      </trkpt>
      <trkpt lat="43.56034" lon="2.99089">
        <ele>380.2</ele>
        <time>2018-02-25T08:01:47.000Z</time>
      </trkpt>
      <trkpt lat="43.56035" lon="2.99093">
        <ele>380.4</ele>
        <time>2018-02-25T08:01:49.000Z</time>
      </trkpt>
      <trkpt lat="43.56036" lon="2.99097">
        <ele>380.7</ele>
        <time>2018-02-25T08:01:51.000Z</time>
      </trkpt>
      <trkpt lat="43.56037" lon="2.99103">
        <ele>381.2</ele>
        <time>2018-02-25T08:01:53.000Z</time>
      </trkpt>
      <trkpt lat="43.56036" lon="2.99108">
        <ele>381.7</ele>
        <time>2018-02-25T08:01:55.000Z</time>
      </trkpt>
      <trkpt lat="43.56033" lon="2.99111">
        <ele>382</ele>
        <time>2018-02-25T08:01:57.000Z</time>
      </trkpt>
      <trkpt lat="43.5603" lon="2.99111">
        <ele>382.2</ele>
        <time>2018-02-25T08:01:59.000Z</time>
      </trkpt>
      <trkpt lat="43.56028" lon="2.99108">
        <ele>382.4</ele>
        <time>2018-02-25T08:02:01.000Z</time>
      </trkpt>
      <trkpt lat="43.56028" lon="2.99104">
        <ele>382.7</ele>
        <time>2018-02-25T08:02:03.000Z</time>
      </trkpt>
      <trkpt lat="43.56027" lon="2.99099">
        <ele>383.1</ele>
        <time>2018-02-25T08:02:06.000Z</time>
      </trkpt>
      <trkpt lat="43.56026" lon="2.99095">
        <ele>383.5</ele>
        <time>2018-02-25T08:02:09.000Z</time>
      </trkpt>
      <trkpt lat="43.56026" lon="2.99091">
        <ele>383.8</ele>
        <time>2018-02-25T08:02:11.000Z</time>
      </trkpt>
      <trkpt lat="43.56026" lon="2.99087">
        <ele>384</ele>
        <time>2018-02-25T08:02:13.000Z</time>
      </trkpt>
      <trkpt lat="43.56025" lon="2.99082">
        <ele>384.2</ele>
        <time>2018-02-25T08:02:15.000Z</time>
      </trkpt>
      <trkpt lat="43.56024" lon="2.99077">
        <ele>384.4</ele>
        <time>2018-02-25T08:02:17.000Z</time>
      </trkpt>
      <trkpt lat="43.56024" lon="2.99073">
        <ele>384.6</ele>
        <time>2018-02-25T08:02:19.000Z</time>
      </trkpt>
      <trkpt lat="43.56023" lon="2.99068">
        <ele>385</ele>
        <time>2018-02-25T08:02:21.000Z</time>
      </trkpt>
      <trkpt lat="43.56021" lon="2.99064">
        <ele>385.5</ele>
        <time>2018-02-25T08:02:23.000Z</time>
      </trkpt>
      <trkpt lat="43.56019" lon="2.9906">
        <ele>385.8</ele>
        <time>2018-02-25T08:02:25.000Z</time>
      </trkpt>
      <trkpt lat="43.56016" lon="2.99056">
        <ele>386</ele>
        <time>2018-02-25T08:02:28.000Z</time>
      </trkpt>
      <trkpt lat="43.56014" lon="2.99053">
        <ele>386.2</ele>
        <time>2018-02-25T08:02:30.000Z</time>
      </trkpt>
      <trkpt lat="43.56012" lon="2.9905">
        <ele>386.3</ele>
        <time>2018-02-25T08:02:32.000Z</time>
      </trkpt>
      <trkpt lat="43.5601" lon="2.99046">
        <ele>386.5</ele>
        <time>2018-02-25T08:02:35.000Z</time>
      </trkpt>
      <trkpt lat="43.56008" lon="2.99043">
        <ele>386.7</ele>
        <time>2018-02-25T08:02:37.000Z</time>
      </trkpt>
      <trkpt lat="43.56006" lon="2.99039">
        <ele>386.9</ele>
        <time>2018-02-25T08:02:40.000Z</time>
      </trkpt>
      <trkpt lat="43.56004" lon="2.99036">
        <ele>387.3</ele>
        <time>2018-02-25T08:02:42.000Z</time>
      </trkpt>
      <trkpt lat="43.56002" lon="2.99033">
        <ele>387.8</ele>
        <time>2018-02-25T08:02:44.000Z</time>
      </trkpt>
      <trkpt lat="43.56" lon="2.9903">
        <ele>388</ele>
        <time>2018-02-25T08:02:46.000Z</time>
      </trkpt>
      <trkpt lat="43.55998" lon="2.99027">
        <ele>388.2</ele>
        <time>2018-02-25T08:02:48.000Z</time>
      </trkpt>
      <trkpt lat="43.55995" lon="2.99023">
        <ele>388.5</ele>
        <time>2018-02-25T08:02:50.000Z</time>
      </trkpt>
      <trkpt lat="43.55993" lon="2.9902">
        <ele>388.8</ele>
        <time>2018-02-25T08:02:52.000Z</time>
      </trkpt>
      <trkpt lat="43.5599" lon="2.99017">
        <ele>389.4</ele>
        <time>2018-02-25T08:02:54.000Z</time>
      </trkpt>
      <trkpt lat="43.55987" lon="2.99013">
        <ele>390.1</ele>
        <time>2018-02-25T08:02:57.000Z</time>
      </trkpt>
      <trkpt lat="43.55984" lon="2.99009">
        <ele>390.3</ele>
        <time>2018-02-25T08:02:59.000Z</time>
      </trkpt>
      <trkpt lat="43.55982" lon="2.99006">
        <ele>390.5</ele>
        <time>2018-02-25T08:03:01.000Z</time>
      </trkpt>
      <trkpt lat="43.55979" lon="2.99001">
        <ele>390.8</ele>
        <time>2018-02-25T08:03:03.000Z</time>
      </trkpt>
      <trkpt lat="43.55977" lon="2.98997">
        <ele>390.9</ele>
        <time>2018-02-25T08:03:05.000Z</time>
      </trkpt>
      <trkpt lat="43.55976" lon="2.98994">
        <ele>391.2</ele>
        <time>2018-02-25T08:03:07.000Z</time>
      </trkpt>
      <trkpt lat="43.55973" lon="2.9899">
        <ele>391.6</ele>
        <time>2018-02-25T08:03:09.000Z</time>
      </trkpt>
      <trkpt lat="43.55971" lon="2.98987">
        <ele>392</ele>
        <time>2018-02-25T08:03:11.000Z</time>
      </trkpt>
      <trkpt lat="43.55968" lon="2.98983">
        <ele>392.2</ele>
        <time>2018-02-25T08:03:14.000Z</time>
      </trkpt>
      <trkpt lat="43.55965" lon="2.98981">
        <ele>392.4</ele>
        <time>2018-02-25T08:03:16.000Z</time>
      </trkpt>
      <trkpt lat="43.55963" lon="2.98978">
        <ele>392.5</ele>
        <time>2018-02-25T08:03:18.000Z</time>
      </trkpt>
      <trkpt lat="43.5596" lon="2.98975">
        <ele>392.7</ele>
        <time>2018-02-25T08:03:20.000Z</time>
      </trkpt>
      <trkpt lat="43.55957" lon="2.98971">
        <ele>392.9</ele>
        <time>2018-02-25T08:03:22.000Z</time>
      </trkpt>
      <trkpt lat="43.55954" lon="2.98967">
        <ele>393.1</ele>
        <time>2018-02-25T08:03:24.000Z</time>
      </trkpt>
      <trkpt lat="43.55952" lon="2.98963">
        <ele>393.4</ele>
        <time>2018-02-25T08:03:26.000Z</time>
      </trkpt>
      <trkpt lat="43.5595" lon="2.98959">
        <ele>393.9</ele>
        <time>2018-02-25T08:03:28.000Z</time>
      </trkpt>
      <trkpt lat="43.55947" lon="2.98956">
        <ele>394.2</ele>
        <time>2018-02-25T08:03:30.000Z</time>
      </trkpt>
      <trkpt lat="43.55944" lon="2.98952">
        <ele>394.5</ele>
        <time>2018-02-25T08:03:32.000Z</time>
      </trkpt>
      <trkpt lat="43.55941" lon="2.98949">
        <ele>394.7</ele>
        <time>2018-02-25T08:03:34.000Z</time>
      </trkpt>
      <trkpt lat="43.55938" lon="2.98945">
        <ele>394.9</ele>
        <time>2018-02-25T08:03:36.000Z</time>
      </trkpt>
      <trkpt lat="43.55936" lon="2.98942">
        <ele>395.1</ele>
        <time>2018-02-25T08:03:38.000Z</time>
      </trkpt>
      <trkpt lat="43.55933" lon="2.98938">
        <ele>395.6</ele>
        <time>2018-02-25T08:03:40.000Z</time>
      </trkpt>
      <trkpt lat="43.5593" lon="2.98935">
        <ele>396.1</ele>
        <time>2018-02-25T08:03:42.000Z</time>
      </trkpt>
      <trkpt lat="43.55927" lon="2.98932">
        <ele>396.3</ele>
        <time>2018-02-25T08:03:44.000Z</time>
      </trkpt>
      <trkpt lat="43.55923" lon="2.98929">
        <ele>396.4</ele>
        <time>2018-02-25T08:03:46.000Z</time>
      </trkpt>
      <trkpt lat="43.5592" lon="2.98928">
        <ele>396.7</ele>
        <time>2018-02-25T08:03:48.000Z</time>
      </trkpt>
      <trkpt lat="43.55917" lon="2.98927">
        <ele>396.8</ele>
        <time>2018-02-25T08:03:50.000Z</time>
      </trkpt>
      <trkpt lat="43.55914" lon="2.98926">
        <ele>396.9</ele>
        <time>2018-02-25T08:03:52.000Z</time>
      </trkpt>
      <trkpt lat="43.55911" lon="2.98925">
        <ele>397</ele>
        <time>2018-02-25T08:03:54.000Z</time>
      </trkpt>
      <trkpt lat="43.55907" lon="2.98925">
        <ele>402.5</ele>
        <time>2018-02-25T08:03:57.000Z</time>
      </trkpt>
      <trkpt lat="43.55903" lon="2.98924">
        <ele>402.2</ele>
        <time>2018-02-25T08:03:59.000Z</time>
      </trkpt>
      <trkpt lat="43.559" lon="2.98924">
        <ele>401.8</ele>
        <time>2018-02-25T08:04:01.000Z</time>
      </trkpt>
      <trkpt lat="43.55897" lon="2.98924">
        <ele>401.3</ele>
        <time>2018-02-25T08:04:03.000Z</time>
      </trkpt>
      <trkpt lat="43.55894" lon="2.98924">
        <ele>401</ele>
        <time>2018-02-25T08:04:05.000Z</time>
      </trkpt>
      <trkpt lat="43.55892" lon="2.98927">
        <ele>400.9</ele>
        <time>2018-02-25T08:04:07.000Z</time>
      </trkpt>
      <trkpt lat="43.55892" lon="2.98933">
        <ele>401</ele>
        <time>2018-02-25T08:04:10.000Z</time>
      </trkpt>
      <trkpt lat="43.55895" lon="2.98935">
        <ele>401.2</ele>
        <time>2018-02-25T08:04:12.000Z</time>
      </trkpt>
      <trkpt lat="43.55898" lon="2.98936">
        <ele>401.9</ele>
        <time>2018-02-25T08:04:14.000Z</time>
      </trkpt>
      <trkpt lat="43.55902" lon="2.98937">
        <ele>402.4</ele>
        <time>2018-02-25T08:04:16.000Z</time>
      </trkpt>
      <trkpt lat="43.55904" lon="2.98938">
        <ele>402.6</ele>
        <time>2018-02-25T08:04:18.000Z</time>
      </trkpt>
      <trkpt lat="43.55908" lon="2.98939">
        <ele>402.8</ele>
        <time>2018-02-25T08:04:20.000Z</time>
      </trkpt>
      <trkpt lat="43.55911" lon="2.98942">
        <ele>403.2</ele>
        <time>2018-02-25T08:04:22.000Z</time>
      </trkpt>
      <trkpt lat="43.55914" lon="2.98944">
        <ele>403.6</ele>
        <time>2018-02-25T08:04:25.000Z</time>
      </trkpt>
      <trkpt lat="43.55917" lon="2.98948">
        <ele>404.1</ele>
        <time>2018-02-25T08:04:28.000Z</time>
      </trkpt>
      <trkpt lat="43.5592" lon="2.98953">
        <ele>404.3</ele>
        <time>2018-02-25T08:04:30.000Z</time>
      </trkpt>
      <trkpt lat="43.55922" lon="2.98956">
        <ele>404.4</ele>
        <time>2018-02-25T08:04:32.000Z</time>
      </trkpt>
      <trkpt lat="43.55925" lon="2.98958">
        <ele>404.4</ele>
        <time>2018-02-25T08:04:34.000Z</time>
      </trkpt>
      <trkpt lat="43.55927" lon="2.98961">
        <ele>404.5</ele>
        <time>2018-02-25T08:04:36.000Z</time>
      </trkpt>
      <trkpt lat="43.5593" lon="2.98966">
        <ele>404.6</ele>
        <time>2018-02-25T08:04:38.000Z</time>
      </trkpt>
      <trkpt lat="43.55934" lon="2.98969">
        <ele>404.7</ele>
        <time>2018-02-25T08:04:40.000Z</time>
      </trkpt>
      <trkpt lat="43.55936" lon="2.98973">
        <ele>404.7</ele>
        <time>2018-02-25T08:04:42.000Z</time>
      </trkpt>
      <trkpt lat="43.55939" lon="2.98976">
        <ele>404.8</ele>
        <time>2018-02-25T08:04:44.000Z</time>
      </trkpt>
      <trkpt lat="43.55942" lon="2.9898">
        <ele>404.8</ele>
        <time>2018-02-25T08:04:46.000Z</time>
      </trkpt>
      <trkpt lat="43.55945" lon="2.98985">
        <ele>404.9</ele>
        <time>2018-02-25T08:04:48.000Z</time>
      </trkpt>
      <trkpt lat="43.55947" lon="2.98989">
        <ele>405</ele>
        <time>2018-02-25T08:04:50.000Z</time>
      </trkpt>
      <trkpt lat="43.55949" lon="2.98993">
        <ele>405</ele>
        <time>2018-02-25T08:04:52.000Z</time>
      </trkpt>
      <trkpt lat="43.55952" lon="2.98997">
        <ele>405.1</ele>
        <time>2018-02-25T08:04:54.000Z</time>
      </trkpt>
      <trkpt lat="43.55955" lon="2.98999">
        <ele>405.2</ele>
        <time>2018-02-25T08:04:56.000Z</time>
      </trkpt>
      <trkpt lat="43.55957" lon="2.99002">
        <ele>405.2</ele>
        <time>2018-02-25T08:04:58.000Z</time>
      </trkpt>
      <trkpt lat="43.55959" lon="2.99006">
        <ele>405.3</ele>
        <time>2018-02-25T08:05:00.000Z</time>
      </trkpt>
      <trkpt lat="43.55962" lon="2.9901">
        <ele>405.4</ele>
        <time>2018-02-25T08:05:02.000Z</time>
      </trkpt>
      <trkpt lat="43.55964" lon="2.99014">
        <ele>405.8</ele>
        <time>2018-02-25T08:05:04.000Z</time>
      </trkpt>
      <trkpt lat="43.55966" lon="2.99018">
        <ele>406.3</ele>
        <time>2018-02-25T08:05:06.000Z</time>
      </trkpt>
      <trkpt lat="43.55967" lon="2.99024">
        <ele>406.7</ele>
        <time>2018-02-25T08:05:08.000Z</time>
      </trkpt>
      <trkpt lat="43.55969" lon="2.99029">
        <ele>406.9</ele>
        <time>2018-02-25T08:05:10.000Z</time>
      </trkpt>
      <trkpt lat="43.55972" lon="2.99033">
        <ele>407.1</ele>
        <time>2018-02-25T08:05:12.000Z</time>
      </trkpt>
      <trkpt lat="43.55974" lon="2.99036">
        <ele>407.2</ele>
        <time>2018-02-25T08:05:14.000Z</time>
      </trkpt>
      <trkpt lat="43.55976" lon="2.99041">
        <ele>407.4</ele>
        <time>2018-02-25T08:05:16.000Z</time>
      </trkpt>
      <trkpt lat="43.55977" lon="2.99046">
        <ele>407.8</ele>
        <time>2018-02-25T08:05:18.000Z</time>
      </trkpt>
      <trkpt lat="43.55978" lon="2.99051">
        <ele>408.2</ele>
        <time>2018-02-25T08:05:20.000Z</time>
      </trkpt>
      <trkpt lat="43.55979" lon="2.99056">
        <ele>408.6</ele>
        <time>2018-02-25T08:05:22.000Z</time>
      </trkpt>
      <trkpt lat="43.55981" lon="2.99061">
        <ele>408.9</ele>
        <time>2018-02-25T08:05:24.000Z</time>
      </trkpt>
      <trkpt lat="43.55981" lon="2.99066">
        <ele>409.1</ele>
        <time>2018-02-25T08:05:26.000Z</time>
      </trkpt>
      <trkpt lat="43.5598" lon="2.99072">
        <ele>409.3</ele>
        <time>2018-02-25T08:05:28.000Z</time>
      </trkpt>
      <trkpt lat="43.55981" lon="2.99079">
        <ele>409.6</ele>
        <time>2018-02-25T08:05:30.000Z</time>
      </trkpt>
      <trkpt lat="43.55982" lon="2.99084">
        <ele>410.1</ele>
        <time>2018-02-25T08:05:32.000Z</time>
      </trkpt>
      <trkpt lat="43.55983" lon="2.99088">
        <ele>410.5</ele>
        <time>2018-02-25T08:05:34.000Z</time>
      </trkpt>
      <trkpt lat="43.55983" lon="2.99093">
        <ele>410.7</ele>
        <time>2018-02-25T08:05:36.000Z</time>
      </trkpt>
      <trkpt lat="43.55985" lon="2.99097">
        <ele>410.9</ele>
        <time>2018-02-25T08:05:38.000Z</time>
      </trkpt>
      <trkpt lat="43.55986" lon="2.99102">
        <ele>411</ele>
        <time>2018-02-25T08:05:40.000Z</time>
      </trkpt>
      <trkpt lat="43.55986" lon="2.99109">
        <ele>411.2</ele>
        <time>2018-02-25T08:05:42.000Z</time>
      </trkpt>
      <trkpt lat="43.55987" lon="2.99113">
        <ele>411.4</ele>
        <time>2018-02-25T08:05:44.000Z</time>
      </trkpt>
      <trkpt lat="43.55988" lon="2.99117">
        <ele>411.7</ele>
        <time>2018-02-25T08:05:46.000Z</time>
      </trkpt>
      <trkpt lat="43.5599" lon="2.99122">
        <ele>412.1</ele>
        <time>2018-02-25T08:05:48.000Z</time>
      </trkpt>
      <trkpt lat="43.5599" lon="2.99127">
        <ele>412.6</ele>
        <time>2018-02-25T08:05:50.000Z</time>
      </trkpt>
      <trkpt lat="43.5599" lon="2.99135">
        <ele>412.9</ele>
        <time>2018-02-25T08:05:52.000Z</time>
      </trkpt>
      <trkpt lat="43.55991" lon="2.99141">
        <ele>413</ele>
        <time>2018-02-25T08:05:54.000Z</time>
      </trkpt>
      <trkpt lat="43.55991" lon="2.99147">
        <ele>413.1</ele>
        <time>2018-02-25T08:05:56.000Z</time>
      </trkpt>
      <trkpt lat="43.55992" lon="2.99153">
        <ele>413.2</ele>
        <time>2018-02-25T08:05:58.000Z</time>
      </trkpt>
      <trkpt lat="43.55993" lon="2.99158">
        <ele>413.3</ele>
        <time>2018-02-25T08:06:00.000Z</time>
      </trkpt>
      <trkpt lat="43.55994" lon="2.99163">
        <ele>413.4</ele>
        <time>2018-02-25T08:06:02.000Z</time>
      </trkpt>
      <trkpt lat="43.55996" lon="2.99168">
        <ele>413.5</ele>
        <time>2018-02-25T08:06:04.000Z</time>
      </trkpt>
      <trkpt lat="43.55998" lon="2.99171">
        <ele>413.6</ele>
        <time>2018-02-25T08:06:06.000Z</time>
      </trkpt>
      <trkpt lat="43.55999" lon="2.99176">
        <ele>413.8</ele>
        <time>2018-02-25T08:06:08.000Z</time>
      </trkpt>
      <trkpt lat="43.56002" lon="2.99181">
        <ele>414</ele>
        <time>2018-02-25T08:06:10.000Z</time>
      </trkpt>
      <trkpt lat="43.56003" lon="2.99184">
        <ele>414.4</ele>
        <time>2018-02-25T08:06:12.000Z</time>
      </trkpt>
      <trkpt lat="43.56006" lon="2.9919">
        <ele>414.8</ele>
        <time>2018-02-25T08:06:14.000Z</time>
      </trkpt>
      <trkpt lat="43.56008" lon="2.99196">
        <ele>415</ele>
        <time>2018-02-25T08:06:16.000Z</time>
      </trkpt>
      <trkpt lat="43.5601" lon="2.992">
        <ele>415.1</ele>
        <time>2018-02-25T08:06:18.000Z</time>
      </trkpt>
      <trkpt lat="43.56012" lon="2.99206">
        <ele>415.2</ele>
        <time>2018-02-25T08:06:20.000Z</time>
      </trkpt>
      <trkpt lat="43.56015" lon="2.99211">
        <ele>415.2</ele>
        <time>2018-02-25T08:06:22.000Z</time>
      </trkpt>
      <trkpt lat="43.56017" lon="2.99216">
        <ele>415.3</ele>
        <time>2018-02-25T08:06:24.000Z</time>
      </trkpt>
      <trkpt lat="43.56019" lon="2.99223">
        <ele>415.3</ele>
        <time>2018-02-25T08:06:26.000Z</time>
      </trkpt>
      <trkpt lat="43.56021" lon="2.99229">
        <ele>415.4</ele>
        <time>2018-02-25T08:06:28.000Z</time>
      </trkpt>
      <trkpt lat="43.56023" lon="2.99234">
        <ele>415.4</ele>
        <time>2018-02-25T08:06:30.000Z</time>
      </trkpt>
      <trkpt lat="43.56025" lon="2.9924">
        <ele>415.5</ele>
        <time>2018-02-25T08:06:32.000Z</time>
      </trkpt>
      <trkpt lat="43.56027" lon="2.99245">
        <ele>415.6</ele>
        <time>2018-02-25T08:06:34.000Z</time>
      </trkpt>
      <trkpt lat="43.5603" lon="2.99249">
        <ele>415.7</ele>
        <time>2018-02-25T08:06:36.000Z</time>
      </trkpt>
      <trkpt lat="43.56032" lon="2.99252">
        <ele>415.8</ele>
        <time>2018-02-25T08:06:38.000Z</time>
      </trkpt>
      <trkpt lat="43.56034" lon="2.99256">
        <ele>416</ele>
        <time>2018-02-25T08:06:40.000Z</time>
      </trkpt>
      <trkpt lat="43.56035" lon="2.9926">
        <ele>416.4</ele>
        <time>2018-02-25T08:06:42.000Z</time>
      </trkpt>
      <trkpt lat="43.56034" lon="2.99264">
        <ele>416.6</ele>
        <time>2018-02-25T08:06:44.000Z</time>
      </trkpt>
      <trkpt lat="43.56031" lon="2.99264">
        <ele>416.2</ele>
        <time>2018-02-25T08:06:46.000Z</time>
      </trkpt>
      <trkpt lat="43.56027" lon="2.99261">
        <ele>415.9</ele>
        <time>2018-02-25T08:06:48.000Z</time>
      </trkpt>
      <trkpt lat="43.56024" lon="2.99257">
        <ele>415.7</ele>
        <time>2018-02-25T08:06:50.000Z</time>
      </trkpt>
      <trkpt lat="43.56022" lon="2.99254">
        <ele>415.6</ele>
        <time>2018-02-25T08:06:52.000Z</time>
      </trkpt>
      <trkpt lat="43.56019" lon="2.9925">
        <ele>415.6</ele>
        <time>2018-02-25T08:06:54.000Z</time>
      </trkpt>
      <trkpt lat="43.56016" lon="2.99248">
        <ele>419</ele>
        <time>2018-02-25T08:06:56.000Z</time>
      </trkpt>
      <trkpt lat="43.56014" lon="2.99245">
        <ele>419.1</ele>
        <time>2018-02-25T08:06:58.000Z</time>
      </trkpt>
      <trkpt lat="43.56011" lon="2.99242">
        <ele>419.3</ele>
        <time>2018-02-25T08:07:00.000Z</time>
      </trkpt>
      <trkpt lat="43.56009" lon="2.99239">
        <ele>419.4</ele>
        <time>2018-02-25T08:07:03.000Z</time>
      </trkpt>
      <trkpt lat="43.56007" lon="2.99235">
        <ele>419.6</ele>
        <time>2018-02-25T08:07:05.000Z</time>
      </trkpt>
      <trkpt lat="43.56004" lon="2.99231">
        <ele>419.7</ele>
        <time>2018-02-25T08:07:07.000Z</time>
      </trkpt>
      <trkpt lat="43.56002" lon="2.99228">
        <ele>419.9</ele>
        <time>2018-02-25T08:07:09.000Z</time>
      </trkpt>
      <trkpt lat="43.55998" lon="2.99226">
        <ele>420.2</ele>
        <time>2018-02-25T08:07:14.000Z</time>
      </trkpt>
      <trkpt lat="43.55995" lon="2.99222">
        <ele>420.7</ele>
        <time>2018-02-25T08:07:16.000Z</time>
      </trkpt>
      <trkpt lat="43.55992" lon="2.99218">
        <ele>421.1</ele>
        <time>2018-02-25T08:07:18.000Z</time>
      </trkpt>
      <trkpt lat="43.5599" lon="2.99215">
        <ele>421.2</ele>
        <time>2018-02-25T08:07:20.000Z</time>
      </trkpt>
      <trkpt lat="43.55987" lon="2.99213">
        <ele>421.3</ele>
        <time>2018-02-25T08:07:22.000Z</time>
      </trkpt>
      <trkpt lat="43.55985" lon="2.9921">
        <ele>421.5</ele>
        <time>2018-02-25T08:07:24.000Z</time>
      </trkpt>
      <trkpt lat="43.55983" lon="2.99206">
        <ele>421.6</ele>
        <time>2018-02-25T08:07:26.000Z</time>
      </trkpt>
      <trkpt lat="43.5598" lon="2.99203">
        <ele>421.7</ele>
        <time>2018-02-25T08:07:28.000Z</time>
      </trkpt>
      <trkpt lat="43.55978" lon="2.99198">
        <ele>421.9</ele>
        <time>2018-02-25T08:07:30.000Z</time>
      </trkpt>
      <trkpt lat="43.55976" lon="2.99193">
        <ele>422.1</ele>
        <time>2018-02-25T08:07:32.000Z</time>
      </trkpt>
      <trkpt lat="43.55974" lon="2.9919">
        <ele>422.5</ele>
        <time>2018-02-25T08:07:33.000Z</time>
      </trkpt>
      <trkpt lat="43.55973" lon="2.99186">
        <ele>422.8</ele>
        <time>2018-02-25T08:07:34.000Z</time>
      </trkpt>
      <trkpt lat="43.55971" lon="2.99183">
        <ele>423.2</ele>
        <time>2018-02-25T08:07:36.000Z</time>
      </trkpt>
      <trkpt lat="43.55969" lon="2.99179">
        <ele>423.4</ele>
        <time>2018-02-25T08:07:38.000Z</time>
      </trkpt>
      <trkpt lat="43.55967" lon="2.99174">
        <ele>423.6</ele>
        <time>2018-02-25T08:07:40.000Z</time>
      </trkpt>
      <trkpt lat="43.55966" lon="2.99169">
        <ele>423.8</ele>
        <time>2018-02-25T08:07:43.000Z</time>
      </trkpt>
      <trkpt lat="43.55965" lon="2.99165">
        <ele>423.9</ele>
        <time>2018-02-25T08:07:45.000Z</time>
      </trkpt>
      <trkpt lat="43.55964" lon="2.99161">
        <ele>424</ele>
        <time>2018-02-25T08:07:47.000Z</time>
      </trkpt>
      <trkpt lat="43.55963" lon="2.99156">
        <ele>424.2</ele>
        <time>2018-02-25T08:07:49.000Z</time>
      </trkpt>
      <trkpt lat="43.55962" lon="2.99151">
        <ele>424.6</ele>
        <time>2018-02-25T08:07:52.000Z</time>
      </trkpt>
      <trkpt lat="43.55961" lon="2.99146">
        <ele>425.2</ele>
        <time>2018-02-25T08:07:54.000Z</time>
      </trkpt>
      <trkpt lat="43.55959" lon="2.99141">
        <ele>425.6</ele>
        <time>2018-02-25T08:07:56.000Z</time>
      </trkpt>
      <trkpt lat="43.55958" lon="2.99137">
        <ele>425.8</ele>
        <time>2018-02-25T08:07:58.000Z</time>
      </trkpt>
      <trkpt lat="43.55957" lon="2.99133">
        <ele>425.9</ele>
        <time>2018-02-25T08:08:00.000Z</time>
      </trkpt>
      <trkpt lat="43.55955" lon="2.99127">
        <ele>426.2</ele>
        <time>2018-02-25T08:08:02.000Z</time>
      </trkpt>
      <trkpt lat="43.55954" lon="2.99122">
        <ele>426.6</ele>
        <time>2018-02-25T08:08:04.000Z</time>
      </trkpt>
      <trkpt lat="43.55952" lon="2.99117">
        <ele>427.3</ele>
        <time>2018-02-25T08:08:06.000Z</time>
      </trkpt>
      <trkpt lat="43.55949" lon="2.99113">
        <ele>427.6</ele>
        <time>2018-02-25T08:08:08.000Z</time>
      </trkpt>
      <trkpt lat="43.55947" lon="2.9911">
        <ele>427.8</ele>
        <time>2018-02-25T08:08:10.000Z</time>
      </trkpt>
      <trkpt lat="43.55945" lon="2.99105">
        <ele>428</ele>
        <time>2018-02-25T08:08:12.000Z</time>
      </trkpt>
      <trkpt lat="43.55943" lon="2.991">
        <ele>428.2</ele>
        <time>2018-02-25T08:08:14.000Z</time>
      </trkpt>
      <trkpt lat="43.55941" lon="2.99095">
        <ele>428.3</ele>
        <time>2018-02-25T08:08:16.000Z</time>
      </trkpt>
      <trkpt lat="43.55938" lon="2.99091">
        <ele>428.5</ele>
        <time>2018-02-25T08:08:18.000Z</time>
      </trkpt>
      <trkpt lat="43.55936" lon="2.99088">
        <ele>428.7</ele>
        <time>2018-02-25T08:08:20.000Z</time>
      </trkpt>
      <trkpt lat="43.55933" lon="2.99084">
        <ele>429</ele>
        <time>2018-02-25T08:08:22.000Z</time>
      </trkpt>
      <trkpt lat="43.55932" lon="2.9908">
        <ele>429.4</ele>
        <time>2018-02-25T08:08:24.000Z</time>
      </trkpt>
      <trkpt lat="43.55929" lon="2.99077">
        <ele>429.8</ele>
        <time>2018-02-25T08:08:26.000Z</time>
      </trkpt>
      <trkpt lat="43.55926" lon="2.99073">
        <ele>430</ele>
        <time>2018-02-25T08:08:28.000Z</time>
      </trkpt>
      <trkpt lat="43.55923" lon="2.9907">
        <ele>430.2</ele>
        <time>2018-02-25T08:08:30.000Z</time>
      </trkpt>
      <trkpt lat="43.5592" lon="2.99067">
        <ele>430.4</ele>
        <time>2018-02-25T08:08:32.000Z</time>
      </trkpt>
      <trkpt lat="43.55917" lon="2.99065">
        <ele>430.7</ele>
        <time>2018-02-25T08:08:34.000Z</time>
      </trkpt>
      <trkpt lat="43.55913" lon="2.99062">
        <ele>431.3</ele>
        <time>2018-02-25T08:08:36.000Z</time>
      </trkpt>
      <trkpt lat="43.5591" lon="2.99058">
        <ele>431.8</ele>
        <time>2018-02-25T08:08:38.000Z</time>
      </trkpt>
      <trkpt lat="43.55908" lon="2.99055">
        <ele>432</ele>
        <time>2018-02-25T08:08:40.000Z</time>
      </trkpt>
      <trkpt lat="43.55904" lon="2.99052">
        <ele>432.2</ele>
        <time>2018-02-25T08:08:42.000Z</time>
      </trkpt>
      <trkpt lat="43.55901" lon="2.99049">
        <ele>432.4</ele>
        <time>2018-02-25T08:08:44.000Z</time>
      </trkpt>
      <trkpt lat="43.55897" lon="2.99047">
        <ele>432.5</ele>
        <time>2018-02-25T08:08:46.000Z</time>
      </trkpt>
      <trkpt lat="43.55894" lon="2.99045">
        <ele>432.7</ele>
        <time>2018-02-25T08:08:48.000Z</time>
      </trkpt>
      <trkpt lat="43.55891" lon="2.99042">
        <ele>433.1</ele>
        <time>2018-02-25T08:08:50.000Z</time>
      </trkpt>
      <trkpt lat="43.55887" lon="2.99041">
        <ele>433.6</ele>
        <time>2018-02-25T08:08:52.000Z</time>
      </trkpt>
      <trkpt lat="43.55884" lon="2.9904">
        <ele>433.9</ele>
        <time>2018-02-25T08:08:54.000Z</time>
      </trkpt>
      <trkpt lat="43.55881" lon="2.9904">
        <ele>434</ele>
        <time>2018-02-25T08:08:56.000Z</time>
      </trkpt>
      <trkpt lat="43.55878" lon="2.9904">
        <ele>434.2</ele>
        <time>2018-02-25T08:08:58.000Z</time>
      </trkpt>
      <trkpt lat="43.55874" lon="2.99042">
        <ele>434.4</ele>
        <time>2018-02-25T08:09:01.000Z</time>
      </trkpt>
      <trkpt lat="43.5587" lon="2.99043">
        <ele>434.7</ele>
        <time>2018-02-25T08:09:03.000Z</time>
      </trkpt>
      <trkpt lat="43.55867" lon="2.99044">
        <ele>434.9</ele>
        <time>2018-02-25T08:09:05.000Z</time>
      </trkpt>
      <trkpt lat="43.55864" lon="2.99045">
        <ele>435.4</ele>
        <time>2018-02-25T08:09:07.000Z</time>
      </trkpt>
      <trkpt lat="43.55861" lon="2.99045">
        <ele>435.9</ele>
        <time>2018-02-25T08:09:09.000Z</time>
      </trkpt>
      <trkpt lat="43.55857" lon="2.99046">
        <ele>436.1</ele>
        <time>2018-02-25T08:09:11.000Z</time>
      </trkpt>
      <trkpt lat="43.55855" lon="2.99048">
        <ele>436.4</ele>
        <time>2018-02-25T08:09:13.000Z</time>
      </trkpt>
      <trkpt lat="43.55855" lon="2.99055">
        <ele>441</ele>
        <time>2018-02-25T08:09:16.000Z</time>
      </trkpt>
      <trkpt lat="43.55857" lon="2.99058">
        <ele>441.2</ele>
        <time>2018-02-25T08:09:18.000Z</time>
      </trkpt>
      <trkpt lat="43.5586" lon="2.99059">
        <ele>441.5</ele>
        <time>2018-02-25T08:09:20.000Z</time>
      </trkpt>
      <trkpt lat="43.55864" lon="2.99058">
        <ele>442</ele>
        <time>2018-02-25T08:09:22.000Z</time>
      </trkpt>
      <trkpt lat="43.55868" lon="2.99056">
        <ele>442.5</ele>
        <time>2018-02-25T08:09:24.000Z</time>
      </trkpt>
      <trkpt lat="43.55873" lon="2.99057">
        <ele>443</ele>
        <time>2018-02-25T08:09:27.000Z</time>
      </trkpt>
      <trkpt lat="43.55876" lon="2.99059">
        <ele>443.3</ele>
        <time>2018-02-25T08:09:29.000Z</time>
      </trkpt>
      <trkpt lat="43.55879" lon="2.9906">
        <ele>443.4</ele>
        <time>2018-02-25T08:09:31.000Z</time>
      </trkpt>
      <trkpt lat="43.55882" lon="2.99062">
        <ele>443.5</ele>
        <time>2018-02-25T08:09:33.000Z</time>
      </trkpt>
      <trkpt lat="43.55885" lon="2.99065">
        <ele>443.7</ele>
        <time>2018-02-25T08:09:35.000Z</time>
      </trkpt>
      <trkpt lat="43.55888" lon="2.99068">
        <ele>443.8</ele>
        <time>2018-02-25T08:09:37.000Z</time>
      </trkpt>
      <trkpt lat="43.55891" lon="2.99071">
        <ele>443.9</ele>
        <time>2018-02-25T08:09:39.000Z</time>
      </trkpt>
      <trkpt lat="43.55894" lon="2.99073">
        <ele>444</ele>
        <time>2018-02-25T08:09:41.000Z</time>
      </trkpt>
      <trkpt lat="43.55896" lon="2.99076">
        <ele>444.1</ele>
        <time>2018-02-25T08:09:43.000Z</time>
      </trkpt>
      <trkpt lat="43.55899" lon="2.9908">
        <ele>444.2</ele>
        <time>2018-02-25T08:09:45.000Z</time>
      </trkpt>
      <trkpt lat="43.55901" lon="2.99084">
        <ele>444.3</ele>
        <time>2018-02-25T08:09:47.000Z</time>
      </trkpt>
      <trkpt lat="43.55903" lon="2.99087">
        <ele>444.4</ele>
        <time>2018-02-25T08:09:49.000Z</time>
      </trkpt>
      <trkpt lat="43.55906" lon="2.9909">
        <ele>444.5</ele>
        <time>2018-02-25T08:09:51.000Z</time>
      </trkpt>
      <trkpt lat="43.55907" lon="2.99094">
        <ele>444.6</ele>
        <time>2018-02-25T08:09:53.000Z</time>
      </trkpt>
      <trkpt lat="43.55908" lon="2.99099">
        <ele>444.7</ele>
        <time>2018-02-25T08:09:55.000Z</time>
      </trkpt>
      <trkpt lat="43.55909" lon="2.99103">
        <ele>444.8</ele>
        <time>2018-02-25T08:09:57.000Z</time>
      </trkpt>
      <trkpt lat="43.55912" lon="2.99107">
        <ele>444.9</ele>
        <time>2018-02-25T08:09:59.000Z</time>
      </trkpt>
      <trkpt lat="43.55914" lon="2.9911">
        <ele>445.1</ele>
        <time>2018-02-25T08:10:01.000Z</time>
      </trkpt>
      <trkpt lat="43.55916" lon="2.99114">
        <ele>445.2</ele>
        <time>2018-02-25T08:10:03.000Z</time>
      </trkpt>
      <trkpt lat="43.55918" lon="2.99117">
        <ele>445.5</ele>
        <time>2018-02-25T08:10:05.000Z</time>
      </trkpt>
      <trkpt lat="43.55919" lon="2.99121">
        <ele>445.9</ele>
        <time>2018-02-25T08:10:07.000Z</time>
      </trkpt>
      <trkpt lat="43.55921" lon="2.99126">
        <ele>446.5</ele>
        <time>2018-02-25T08:10:09.000Z</time>
      </trkpt>
      <trkpt lat="43.55923" lon="2.99131">
        <ele>446.7</ele>
        <time>2018-02-25T08:10:11.000Z</time>
      </trkpt>
      <trkpt lat="43.55924" lon="2.99137">
        <ele>446.9</ele>
        <time>2018-02-25T08:10:13.000Z</time>
      </trkpt>
      <trkpt lat="43.55924" lon="2.99141">
        <ele>447.1</ele>
        <time>2018-02-25T08:10:15.000Z</time>
      </trkpt>
      <trkpt lat="43.55924" lon="2.99146">
        <ele>447.3</ele>
        <time>2018-02-25T08:10:18.000Z</time>
      </trkpt>
      <trkpt lat="43.55925" lon="2.99152">
        <ele>447.5</ele>
        <time>2018-02-25T08:10:21.000Z</time>
      </trkpt>
      <trkpt lat="43.55926" lon="2.99157">
        <ele>447.7</ele>
        <time>2018-02-25T08:10:23.000Z</time>
      </trkpt>
      <trkpt lat="43.55926" lon="2.99162">
        <ele>448.1</ele>
        <time>2018-02-25T08:10:25.000Z</time>
      </trkpt>
      <trkpt lat="43.55926" lon="2.99166">
        <ele>448.5</ele>
        <time>2018-02-25T08:10:27.000Z</time>
      </trkpt>
      <trkpt lat="43.55927" lon="2.9917">
        <ele>448.9</ele>
        <time>2018-02-25T08:10:29.000Z</time>
      </trkpt>
      <trkpt lat="43.55928" lon="2.99175">
        <ele>449.4</ele>
        <time>2018-02-25T08:10:31.000Z</time>
      </trkpt>
      <trkpt lat="43.55929" lon="2.99181">
        <ele>449.7</ele>
        <time>2018-02-25T08:10:33.000Z</time>
      </trkpt>
      <trkpt lat="43.5593" lon="2.99187">
        <ele>449.9</ele>
        <time>2018-02-25T08:10:35.000Z</time>
      </trkpt>
      <trkpt lat="43.55931" lon="2.99192">
        <ele>450.1</ele>
        <time>2018-02-25T08:10:37.000Z</time>
      </trkpt>
      <trkpt lat="43.55932" lon="2.99197">
        <ele>450.3</ele>
        <time>2018-02-25T08:10:39.000Z</time>
      </trkpt>
      <trkpt lat="43.55932" lon="2.99201">
        <ele>450.4</ele>
        <time>2018-02-25T08:10:41.000Z</time>
      </trkpt>
      <trkpt lat="43.55933" lon="2.99205">
        <ele>450.6</ele>
        <time>2018-02-25T08:10:43.000Z</time>
      </trkpt>
      <trkpt lat="43.55935" lon="2.99209">
        <ele>450.8</ele>
        <time>2018-02-25T08:10:45.000Z</time>
      </trkpt>
      <trkpt lat="43.55937" lon="2.99214">
        <ele>451.2</ele>
        <time>2018-02-25T08:10:47.000Z</time>
      </trkpt>
      <trkpt lat="43.55939" lon="2.99219">
        <ele>451.8</ele>
        <time>2018-02-25T08:10:49.000Z</time>
      </trkpt>
      <trkpt lat="43.55941" lon="2.99224">
        <ele>452.5</ele>
        <time>2018-02-25T08:10:51.000Z</time>
      </trkpt>
      <trkpt lat="43.55942" lon="2.9923">
        <ele>452.9</ele>
        <time>2018-02-25T08:10:53.000Z</time>
      </trkpt>
      <trkpt lat="43.55943" lon="2.99235">
        <ele>453.2</ele>
        <time>2018-02-25T08:10:55.000Z</time>
      </trkpt>
      <trkpt lat="43.55945" lon="2.99241">
        <ele>453.5</ele>
        <time>2018-02-25T08:10:57.000Z</time>
      </trkpt>
      <trkpt lat="43.55947" lon="2.99245">
        <ele>454.1</ele>
        <time>2018-02-25T08:10:59.000Z</time>
      </trkpt>
      <trkpt lat="43.5595" lon="2.9925">
        <ele>454.7</ele>
        <time>2018-02-25T08:11:01.000Z</time>
      </trkpt>
      <trkpt lat="43.55952" lon="2.99255">
        <ele>455.2</ele>
        <time>2018-02-25T08:11:03.000Z</time>
      </trkpt>
      <trkpt lat="43.55954" lon="2.99259">
        <ele>455.4</ele>
        <time>2018-02-25T08:11:05.000Z</time>
      </trkpt>
      <trkpt lat="43.55956" lon="2.99263">
        <ele>455.6</ele>
        <time>2018-02-25T08:11:07.000Z</time>
      </trkpt>
      <trkpt lat="43.55959" lon="2.99268">
        <ele>455.8</ele>
        <time>2018-02-25T08:11:09.000Z</time>
      </trkpt>
      <trkpt lat="43.55963" lon="2.99273">
        <ele>456</ele>
        <time>2018-02-25T08:11:11.000Z</time>
      </trkpt>
      <trkpt lat="43.55967" lon="2.99277">
        <ele>456.2</ele>
        <time>2018-02-25T08:11:13.000Z</time>
      </trkpt>
      <trkpt lat="43.5597" lon="2.9928">
        <ele>456.3</ele>
        <time>2018-02-25T08:11:15.000Z</time>
      </trkpt>
      <trkpt lat="43.55973" lon="2.99285">
        <ele>456.5</ele>
        <time>2018-02-25T08:11:17.000Z</time>
      </trkpt>
      <trkpt lat="43.55975" lon="2.9929">
        <ele>456.8</ele>
        <time>2018-02-25T08:11:19.000Z</time>
      </trkpt>
      <trkpt lat="43.55977" lon="2.99294">
        <ele>457.1</ele>
        <time>2018-02-25T08:11:21.000Z</time>
      </trkpt>
      <trkpt lat="43.55979" lon="2.99297">
        <ele>457.6</ele>
        <time>2018-02-25T08:11:23.000Z</time>
      </trkpt>
      <trkpt lat="43.55982" lon="2.99301">
        <ele>458.1</ele>
        <time>2018-02-25T08:11:25.000Z</time>
      </trkpt>
      <trkpt lat="43.55984" lon="2.99304">
        <ele>458.3</ele>
        <time>2018-02-25T08:11:27.000Z</time>
      </trkpt>
      <trkpt lat="43.55986" lon="2.99308">
        <ele>458.4</ele>
        <time>2018-02-25T08:11:29.000Z</time>
      </trkpt>
      <trkpt lat="43.55989" lon="2.99312">
        <ele>458.6</ele>
        <time>2018-02-25T08:11:31.000Z</time>
      </trkpt>
      <trkpt lat="43.55992" lon="2.99315">
        <ele>458.8</ele>
        <time>2018-02-25T08:11:33.000Z</time>
      </trkpt>
      <trkpt lat="43.55995" lon="2.99319">
        <ele>458.9</ele>
        <time>2018-02-25T08:11:35.000Z</time>
      </trkpt>
      <trkpt lat="43.55998" lon="2.99324">
        <ele>459</ele>
        <time>2018-02-25T08:11:37.000Z</time>
      </trkpt>
      <trkpt lat="43.56" lon="2.99328">
        <ele>459.2</ele>
        <time>2018-02-25T08:11:39.000Z</time>
      </trkpt>
      <trkpt lat="43.56003" lon="2.99332">
        <ele>459.3</ele>
        <time>2018-02-25T08:11:41.000Z</time>
      </trkpt>
      <trkpt lat="43.56006" lon="2.99336">
        <ele>459.4</ele>
        <time>2018-02-25T08:11:43.000Z</time>
      </trkpt>
      <trkpt lat="43.56009" lon="2.99339">
        <ele>459.6</ele>
        <time>2018-02-25T08:11:45.000Z</time>
      </trkpt>
      <trkpt lat="43.56012" lon="2.99343">
        <ele>459.8</ele>
        <time>2018-02-25T08:11:47.000Z</time>
      </trkpt>
      <trkpt lat="43.56015" lon="2.99347">
        <ele>460.1</ele>
        <time>2018-02-25T08:11:49.000Z</time>
      </trkpt>
      <trkpt lat="43.56018" lon="2.99351">
        <ele>460.7</ele>
        <time>2018-02-25T08:11:51.000Z</time>
      </trkpt>
      <trkpt lat="43.56021" lon="2.99355">
        <ele>461.3</ele>
        <time>2018-02-25T08:11:53.000Z</time>
      </trkpt>
      <trkpt lat="43.56023" lon="2.99357">
        <ele>461.7</ele>
        <time>2018-02-25T08:11:55.000Z</time>
      </trkpt>
      <trkpt lat="43.56026" lon="2.9936">
        <ele>461.9</ele>
        <time>2018-02-25T08:11:57.000Z</time>
      </trkpt>
      <trkpt lat="43.56029" lon="2.99363">
        <ele>462</ele>
        <time>2018-02-25T08:11:59.000Z</time>
      </trkpt>
      <trkpt lat="43.56031" lon="2.99366">
        <ele>462.2</ele>
        <time>2018-02-25T08:12:01.000Z</time>
      </trkpt>
      <trkpt lat="43.56034" lon="2.9937">
        <ele>462.4</ele>
        <time>2018-02-25T08:12:03.000Z</time>
      </trkpt>
      <trkpt lat="43.56038" lon="2.99374">
        <ele>463.1</ele>
        <time>2018-02-25T08:12:05.000Z</time>
      </trkpt>
      <trkpt lat="43.56042" lon="2.99378">
        <ele>463.9</ele>
        <time>2018-02-25T08:12:07.000Z</time>
      </trkpt>
      <trkpt lat="43.56045" lon="2.99383">
        <ele>464.5</ele>
        <time>2018-02-25T08:12:09.000Z</time>
      </trkpt>
      <trkpt lat="43.56047" lon="2.99387">
        <ele>464.7</ele>
        <time>2018-02-25T08:12:11.000Z</time>
      </trkpt>
      <trkpt lat="43.56049" lon="2.99392">
        <ele>465</ele>
        <time>2018-02-25T08:12:13.000Z</time>
      </trkpt>
      <trkpt lat="43.56051" lon="2.99397">
        <ele>465.2</ele>
        <time>2018-02-25T08:12:15.000Z</time>
      </trkpt>
      <trkpt lat="43.56051" lon="2.99403">
        <ele>465.6</ele>
        <time>2018-02-25T08:12:17.000Z</time>
      </trkpt>
      <trkpt lat="43.56051" lon="2.99408">
        <ele>466.1</ele>
        <time>2018-02-25T08:12:19.000Z</time>
      </trkpt>
      <trkpt lat="43.56052" lon="2.99414">
        <ele>466.7</ele>
        <time>2018-02-25T08:12:21.000Z</time>
      </trkpt>
      <trkpt lat="43.56051" lon="2.9942">
        <ele>467.3</ele>
        <time>2018-02-25T08:12:23.000Z</time>
      </trkpt>
      <trkpt lat="43.5605" lon="2.99426">
        <ele>467.5</ele>
        <time>2018-02-25T08:12:25.000Z</time>
      </trkpt>
      <trkpt lat="43.5605" lon="2.9943">
        <ele>467.7</ele>
        <time>2018-02-25T08:12:26.000Z</time>
      </trkpt>
      <trkpt lat="43.56049" lon="2.99434">
        <ele>467.8</ele>
        <time>2018-02-25T08:12:28.000Z</time>
      </trkpt>
      <trkpt lat="43.56049" lon="2.99439">
        <ele>468</ele>
        <time>2018-02-25T08:12:30.000Z</time>
      </trkpt>
      <trkpt lat="43.56049" lon="2.99444">
        <ele>468.2</ele>
        <time>2018-02-25T08:12:32.000Z</time>
      </trkpt>
      <trkpt lat="43.56048" lon="2.99448">
        <ele>468.4</ele>
        <time>2018-02-25T08:12:34.000Z</time>
      </trkpt>
      <trkpt lat="43.56048" lon="2.99453">
        <ele>468.7</ele>
        <time>2018-02-25T08:12:37.000Z</time>
      </trkpt>
      <trkpt lat="43.56046" lon="2.99459">
        <ele>469.5</ele>
        <time>2018-02-25T08:12:39.000Z</time>
      </trkpt>
      <trkpt lat="43.56045" lon="2.99464">
        <ele>470</ele>
        <time>2018-02-25T08:12:41.000Z</time>
      </trkpt>
      <trkpt lat="43.56045" lon="2.99468">
        <ele>470.2</ele>
        <time>2018-02-25T08:12:43.000Z</time>
      </trkpt>
      <trkpt lat="43.56045" lon="2.99472">
        <ele>470.5</ele>
        <time>2018-02-25T08:12:45.000Z</time>
      </trkpt>
      <trkpt lat="43.56043" lon="2.99476">
        <ele>470.8</ele>
        <time>2018-02-25T08:12:48.000Z</time>
      </trkpt>
      <trkpt lat="43.56041" lon="2.99479">
        <ele>471</ele>
        <time>2018-02-25T08:12:50.000Z</time>
      </trkpt>
      <trkpt lat="43.56038" lon="2.99484">
        <ele>471.4</ele>
        <time>2018-02-25T08:12:52.000Z</time>
      </trkpt>
      <trkpt lat="43.56037" lon="2.99489">
        <ele>471.7</ele>
        <time>2018-02-25T08:12:54.000Z</time>
      </trkpt>
      <trkpt lat="43.56036" lon="2.99493">
        <ele>472.1</ele>
        <time>2018-02-25T08:12:56.000Z</time>
      </trkpt>
      <trkpt lat="43.56034" lon="2.99497">
        <ele>472.5</ele>
        <time>2018-02-25T08:12:57.000Z</time>
      </trkpt>
      <trkpt lat="43.56032" lon="2.99503">
        <ele>473.1</ele>
        <time>2018-02-25T08:12:59.000Z</time>
      </trkpt>
      <trkpt lat="43.56028" lon="2.99508">
        <ele>473.5</ele>
        <time>2018-02-25T08:13:01.000Z</time>
      </trkpt>
      <trkpt lat="43.56026" lon="2.99512">
        <ele>473.6</ele>
        <time>2018-02-25T08:13:03.000Z</time>
      </trkpt>
      <trkpt lat="43.56024" lon="2.99516">
        <ele>473.8</ele>
        <time>2018-02-25T08:13:05.000Z</time>
      </trkpt>
      <trkpt lat="43.5602" lon="2.9952">
        <ele>474.2</ele>
        <time>2018-02-25T08:13:07.000Z</time>
      </trkpt>
      <trkpt lat="43.56017" lon="2.99525">
        <ele>474.5</ele>
        <time>2018-02-25T08:13:09.000Z</time>
      </trkpt>
      <trkpt lat="43.56014" lon="2.99529">
        <ele>474.8</ele>
        <time>2018-02-25T08:13:11.000Z</time>
      </trkpt>
      <trkpt lat="43.56011" lon="2.99532">
        <ele>475.2</ele>
        <time>2018-02-25T08:13:13.000Z</time>
      </trkpt>
      <trkpt lat="43.56008" lon="2.99535">
        <ele>475.7</ele>
        <time>2018-02-25T08:13:15.000Z</time>
      </trkpt>
      <trkpt lat="43.56004" lon="2.99539">
        <ele>476.3</ele>
        <time>2018-02-25T08:13:17.000Z</time>
      </trkpt>
      <trkpt lat="43.56001" lon="2.99543">
        <ele>476.6</ele>
        <time>2018-02-25T08:13:19.000Z</time>
      </trkpt>
      <trkpt lat="43.55999" lon="2.99546">
        <ele>476.7</ele>
        <time>2018-02-25T08:13:21.000Z</time>
      </trkpt>
      <trkpt lat="43.55996" lon="2.99549">
        <ele>476.9</ele>
        <time>2018-02-25T08:13:23.000Z</time>
      </trkpt>
      <trkpt lat="43.55993" lon="2.99551">
        <ele>477.1</ele>
        <time>2018-02-25T08:13:25.000Z</time>
      </trkpt>
      <trkpt lat="43.5599" lon="2.99552">
        <ele>477.3</ele>
        <time>2018-02-25T08:13:27.000Z</time>
      </trkpt>
      <trkpt lat="43.55985" lon="2.99554">
        <ele>477.8</ele>
        <time>2018-02-25T08:13:29.000Z</time>
      </trkpt>
      <trkpt lat="43.55981" lon="2.99555">
        <ele>478.2</ele>
        <time>2018-02-25T08:13:31.000Z</time>
      </trkpt>
      <trkpt lat="43.55976" lon="2.99556">
        <ele>479</ele>
        <time>2018-02-25T08:13:33.000Z</time>
      </trkpt>
      <trkpt lat="43.55971" lon="2.99556">
        <ele>479.7</ele>
        <time>2018-02-25T08:13:35.000Z</time>
      </trkpt>
      <trkpt lat="43.55966" lon="2.99557">
        <ele>479.9</ele>
        <time>2018-02-25T08:13:37.000Z</time>
      </trkpt>
      <trkpt lat="43.55961" lon="2.99558">
        <ele>480.1</ele>
        <time>2018-02-25T08:13:39.000Z</time>
      </trkpt>
      <trkpt lat="43.55957" lon="2.99558">
        <ele>480.3</ele>
        <time>2018-02-25T08:13:41.000Z</time>
      </trkpt>
      <trkpt lat="43.55953" lon="2.99558">
        <ele>480.6</ele>
        <time>2018-02-25T08:13:43.000Z</time>
      </trkpt>
      <trkpt lat="43.55948" lon="2.99561">
        <ele>481</ele>
        <time>2018-02-25T08:13:45.000Z</time>
      </trkpt>
      <trkpt lat="43.55944" lon="2.99563">
        <ele>481.5</ele>
        <time>2018-02-25T08:13:47.000Z</time>
      </trkpt>
      <trkpt lat="43.5594" lon="2.99563">
        <ele>482.3</ele>
        <time>2018-02-25T08:13:49.000Z</time>
      </trkpt>
      <trkpt lat="43.55936" lon="2.99563">
        <ele>482.7</ele>
        <time>2018-02-25T08:13:51.000Z</time>
      </trkpt>
      <trkpt lat="43.55931" lon="2.99565">
        <ele>483.1</ele>
        <time>2018-02-25T08:13:53.000Z</time>
      </trkpt>
      <trkpt lat="43.55929" lon="2.99564">
        <ele>483.2</ele>
        <time>2018-02-25T08:13:55.000Z</time>
      </trkpt>
      <trkpt lat="43.55926" lon="2.99562">
        <ele>483.4</ele>
        <time>2018-02-25T08:13:57.000Z</time>
      </trkpt>
      <trkpt lat="43.55924" lon="2.9956">
        <ele>483.6</ele>
        <time>2018-02-25T08:13:59.000Z</time>
      </trkpt>
      <trkpt lat="43.5592" lon="2.9956">
        <ele>483.8</ele>
        <time>2018-02-25T08:14:01.000Z</time>
      </trkpt>
      <trkpt lat="43.55916" lon="2.99561">
        <ele>484</ele>
        <time>2018-02-25T08:14:03.000Z</time>
      </trkpt>
      <trkpt lat="43.55912" lon="2.99564">
        <ele>484.3</ele>
        <time>2018-02-25T08:14:05.000Z</time>
      </trkpt>
      <trkpt lat="43.55909" lon="2.99565">
        <ele>484.5</ele>
        <time>2018-02-25T08:14:07.000Z</time>
      </trkpt>
      <trkpt lat="43.55906" lon="2.99566">
        <ele>485.2</ele>
        <time>2018-02-25T08:14:09.000Z</time>
      </trkpt>
      <trkpt lat="43.55902" lon="2.99567">
        <ele>485.6</ele>
        <time>2018-02-25T08:14:11.000Z</time>
      </trkpt>
      <trkpt lat="43.559" lon="2.99568">
        <ele>485.8</ele>
        <time>2018-02-25T08:14:13.000Z</time>
      </trkpt>
      <trkpt lat="43.55895" lon="2.9957">
        <ele>486.2</ele>
        <time>2018-02-25T08:14:15.000Z</time>
      </trkpt>
      <trkpt lat="43.55891" lon="2.99573">
        <ele>486.5</ele>
        <time>2018-02-25T08:14:17.000Z</time>
      </trkpt>
      <trkpt lat="43.55887" lon="2.99575">
        <ele>486.8</ele>
        <time>2018-02-25T08:14:19.000Z</time>
      </trkpt>
      <trkpt lat="43.55884" lon="2.99575">
        <ele>487.3</ele>
        <time>2018-02-25T08:14:22.000Z</time>
      </trkpt>
      <trkpt lat="43.55881" lon="2.99575">
        <ele>487.7</ele>
        <time>2018-02-25T08:14:24.000Z</time>
      </trkpt>
      <trkpt lat="43.55878" lon="2.99577">
        <ele>488.1</ele>
        <time>2018-02-25T08:14:26.000Z</time>
      </trkpt>
      <trkpt lat="43.55874" lon="2.99579">
        <ele>488.5</ele>
        <time>2018-02-25T08:14:29.000Z</time>
      </trkpt>
      <trkpt lat="43.55871" lon="2.99581">
        <ele>488.8</ele>
        <time>2018-02-25T08:14:31.000Z</time>
      </trkpt>
      <trkpt lat="43.55868" lon="2.99583">
        <ele>489.1</ele>
        <time>2018-02-25T08:14:33.000Z</time>
      </trkpt>
      <trkpt lat="43.55864" lon="2.99585">
        <ele>489.3</ele>
        <time>2018-02-25T08:14:35.000Z</time>
      </trkpt>
      <trkpt lat="43.55861" lon="2.99589">
        <ele>489.6</ele>
        <time>2018-02-25T08:14:37.000Z</time>
      </trkpt>
      <trkpt lat="43.55858" lon="2.99592">
        <ele>490.2</ele>
        <time>2018-02-25T08:14:39.000Z</time>
      </trkpt>
      <trkpt lat="43.55855" lon="2.99595">
        <ele>490.9</ele>
        <time>2018-02-25T08:14:41.000Z</time>
      </trkpt>
      <trkpt lat="43.55851" lon="2.99598">
        <ele>491.4</ele>
        <time>2018-02-25T08:14:43.000Z</time>
      </trkpt>
      <trkpt lat="43.55849" lon="2.996">
        <ele>491.6</ele>
        <time>2018-02-25T08:14:45.000Z</time>
      </trkpt>
      <trkpt lat="43.55846" lon="2.99602">
        <ele>491.8</ele>
        <time>2018-02-25T08:14:47.000Z</time>
      </trkpt>
      <trkpt lat="43.55842" lon="2.99604">
        <ele>492</ele>
        <time>2018-02-25T08:14:49.000Z</time>
      </trkpt>
      <trkpt lat="43.55839" lon="2.99605">
        <ele>492.2</ele>
        <time>2018-02-25T08:14:51.000Z</time>
      </trkpt>
      <trkpt lat="43.55836" lon="2.99608">
        <ele>492.5</ele>
        <time>2018-02-25T08:14:53.000Z</time>
      </trkpt>
      <trkpt lat="43.55832" lon="2.99611">
        <ele>493.1</ele>
        <time>2018-02-25T08:14:55.000Z</time>
      </trkpt>
      <trkpt lat="43.55828" lon="2.99613">
        <ele>493.9</ele>
        <time>2018-02-25T08:14:57.000Z</time>
      </trkpt>
      <trkpt lat="43.55825" lon="2.99615">
        <ele>494.1</ele>
        <time>2018-02-25T08:14:58.000Z</time>
      </trkpt>
      <trkpt lat="43.55821" lon="2.99618">
        <ele>494.5</ele>
        <time>2018-02-25T08:15:00.000Z</time>
      </trkpt>
      <trkpt lat="43.55818" lon="2.99619">
        <ele>494.6</ele>
        <time>2018-02-25T08:15:02.000Z</time>
      </trkpt>
      <trkpt lat="43.55814" lon="2.9962">
        <ele>494.8</ele>
        <time>2018-02-25T08:15:04.000Z</time>
      </trkpt>
      <trkpt lat="43.5581" lon="2.99622">
        <ele>495.1</ele>
        <time>2018-02-25T08:15:06.000Z</time>
      </trkpt>
      <trkpt lat="43.55806" lon="2.99624">
        <ele>495.4</ele>
        <time>2018-02-25T08:15:08.000Z</time>
      </trkpt>
      <trkpt lat="43.55803" lon="2.99625">
        <ele>495.6</ele>
        <time>2018-02-25T08:15:10.000Z</time>
      </trkpt>
      <trkpt lat="43.55799" lon="2.99624">
        <ele>496.3</ele>
        <time>2018-02-25T08:15:13.000Z</time>
      </trkpt>
      <trkpt lat="43.55795" lon="2.99625">
        <ele>497</ele>
        <time>2018-02-25T08:15:15.000Z</time>
      </trkpt>
      <trkpt lat="43.55792" lon="2.99626">
        <ele>497.3</ele>
        <time>2018-02-25T08:15:17.000Z</time>
      </trkpt>
      <trkpt lat="43.55789" lon="2.99628">
        <ele>497.6</ele>
        <time>2018-02-25T08:15:19.000Z</time>
      </trkpt>
      <trkpt lat="43.55784" lon="2.9963">
        <ele>498</ele>
        <time>2018-02-25T08:15:21.000Z</time>
      </trkpt>
      <trkpt lat="43.5578" lon="2.99632">
        <ele>498.3</ele>
        <time>2018-02-25T08:15:23.000Z</time>
      </trkpt>
      <trkpt lat="43.55776" lon="2.99634">
        <ele>498.6</ele>
        <time>2018-02-25T08:15:25.000Z</time>
      </trkpt>
      <trkpt lat="43.55773" lon="2.99636">
        <ele>499.3</ele>
        <time>2018-02-25T08:15:27.000Z</time>
      </trkpt>
      <trkpt lat="43.55769" lon="2.99637">
        <ele>500</ele>
        <time>2018-02-25T08:15:29.000Z</time>
      </trkpt>
      <trkpt lat="43.55766" lon="2.99638">
        <ele>500.3</ele>
        <time>2018-02-25T08:15:31.000Z</time>
      </trkpt>
      <trkpt lat="43.55762" lon="2.99639">
        <ele>500.6</ele>
        <time>2018-02-25T08:15:33.000Z</time>
      </trkpt>
      <trkpt lat="43.55758" lon="2.99641">
        <ele>500.9</ele>
        <time>2018-02-25T08:15:35.000Z</time>
      </trkpt>
      <trkpt lat="43.55755" lon="2.99644">
        <ele>501.2</ele>
        <time>2018-02-25T08:15:37.000Z</time>
      </trkpt>
      <trkpt lat="43.55752" lon="2.99645">
        <ele>501.5</ele>
        <time>2018-02-25T08:15:39.000Z</time>
      </trkpt>
      <trkpt lat="43.55748" lon="2.99647">
        <ele>502</ele>
        <time>2018-02-25T08:15:41.000Z</time>
      </trkpt>
      <trkpt lat="43.55744" lon="2.9965">
        <ele>502.8</ele>
        <time>2018-02-25T08:15:43.000Z</time>
      </trkpt>
      <trkpt lat="43.55741" lon="2.99652">
        <ele>503.3</ele>
        <time>2018-02-25T08:15:44.000Z</time>
      </trkpt>
      <trkpt lat="43.55739" lon="2.99654">
        <ele>503.6</ele>
        <time>2018-02-25T08:15:45.000Z</time>
      </trkpt>
      <trkpt lat="43.55736" lon="2.99656">
        <ele>503.9</ele>
        <time>2018-02-25T08:15:46.000Z</time>
      </trkpt>
      <trkpt lat="43.55733" lon="2.99658">
        <ele>504.2</ele>
        <time>2018-02-25T08:15:48.000Z</time>
      </trkpt>
      <trkpt lat="43.55729" lon="2.9966">
        <ele>504.4</ele>
        <time>2018-02-25T08:15:50.000Z</time>
      </trkpt>
      <trkpt lat="43.55725" lon="2.99662">
        <ele>504.8</ele>
        <time>2018-02-25T08:15:52.000Z</time>
      </trkpt>
      <trkpt lat="43.55723" lon="2.99663">
        <ele>505.3</ele>
        <time>2018-02-25T08:15:54.000Z</time>
      </trkpt>
      <trkpt lat="43.55719" lon="2.99663">
        <ele>505.8</ele>
        <time>2018-02-25T08:15:56.000Z</time>
      </trkpt>
      <trkpt lat="43.55715" lon="2.99664">
        <ele>506.2</ele>
        <time>2018-02-25T08:15:58.000Z</time>
      </trkpt>
      <trkpt lat="43.55711" lon="2.99664">
        <ele>506.4</ele>
        <time>2018-02-25T08:16:00.000Z</time>
      </trkpt>
      <trkpt lat="43.55707" lon="2.99667">
        <ele>506.8</ele>
        <time>2018-02-25T08:16:02.000Z</time>
      </trkpt>
      <trkpt lat="43.55703" lon="2.9967">
        <ele>507</ele>
        <time>2018-02-25T08:16:04.000Z</time>
      </trkpt>
      <trkpt lat="43.557" lon="2.99675">
        <ele>507</ele>
        <time>2018-02-25T08:16:06.000Z</time>
      </trkpt>
      <trkpt lat="43.55698" lon="2.9968">
        <ele>507</ele>
        <time>2018-02-25T08:16:08.000Z</time>
      </trkpt>
      <trkpt lat="43.55695" lon="2.99683">
        <ele>507.1</ele>
        <time>2018-02-25T08:16:10.000Z</time>
      </trkpt>
      <trkpt lat="43.55692" lon="2.99688">
        <ele>507.2</ele>
        <time>2018-02-25T08:16:12.000Z</time>
      </trkpt>
      <trkpt lat="43.5569" lon="2.9969">
        <ele>507.3</ele>
        <time>2018-02-25T08:16:14.000Z</time>
      </trkpt>
      <trkpt lat="43.55687" lon="2.99693">
        <ele>507.4</ele>
        <time>2018-02-25T08:16:16.000Z</time>
      </trkpt>
      <trkpt lat="43.55684" lon="2.99696">
        <ele>507.6</ele>
        <time>2018-02-25T08:16:18.000Z</time>
      </trkpt>
      <trkpt lat="43.55682" lon="2.99699">
        <ele>507.7</ele>
        <time>2018-02-25T08:16:20.000Z</time>
      </trkpt>
      <trkpt lat="43.55679" lon="2.99701">
        <ele>507.8</ele>
        <time>2018-02-25T08:16:22.000Z</time>
      </trkpt>
      <trkpt lat="43.55676" lon="2.99703">
        <ele>508</ele>
        <time>2018-02-25T08:16:24.000Z</time>
      </trkpt>
      <trkpt lat="43.55673" lon="2.99705">
        <ele>508.1</ele>
        <time>2018-02-25T08:16:27.000Z</time>
      </trkpt>
      <trkpt lat="43.5567" lon="2.99709">
        <ele>508.3</ele>
        <time>2018-02-25T08:16:29.000Z</time>
      </trkpt>
      <trkpt lat="43.55667" lon="2.99711">
        <ele>508.4</ele>
        <time>2018-02-25T08:16:31.000Z</time>
      </trkpt>
      <trkpt lat="43.55664" lon="2.99713">
        <ele>508.6</ele>
        <time>2018-02-25T08:16:33.000Z</time>
      </trkpt>
      <trkpt lat="43.55661" lon="2.99715">
        <ele>509.1</ele>
        <time>2018-02-25T08:16:35.000Z</time>
      </trkpt>
      <trkpt lat="43.55658" lon="2.99717">
        <ele>509.5</ele>
        <time>2018-02-25T08:16:37.000Z</time>
      </trkpt>
      <trkpt lat="43.55655" lon="2.9972">
        <ele>509.8</ele>
        <time>2018-02-25T08:16:39.000Z</time>
      </trkpt>
      <trkpt lat="43.55652" lon="2.99724">
        <ele>510.1</ele>
        <time>2018-02-25T08:16:41.000Z</time>
      </trkpt>
      <trkpt lat="43.55648" lon="2.99727">
        <ele>510.2</ele>
        <time>2018-02-25T08:16:43.000Z</time>
      </trkpt>
      <trkpt lat="43.55645" lon="2.9973">
        <ele>510.4</ele>
        <time>2018-02-25T08:16:45.000Z</time>
      </trkpt>
      <trkpt lat="43.55641" lon="2.99734">
        <ele>510.6</ele>
        <time>2018-02-25T08:16:47.000Z</time>
      </trkpt>
      <trkpt lat="43.55637" lon="2.99738">
        <ele>510.7</ele>
        <time>2018-02-25T08:16:49.000Z</time>
      </trkpt>
      <trkpt lat="43.55633" lon="2.99739">
        <ele>510.9</ele>
        <time>2018-02-25T08:16:51.000Z</time>
      </trkpt>
      <trkpt lat="43.55631" lon="2.99741">
        <ele>511</ele>
        <time>2018-02-25T08:16:53.000Z</time>
      </trkpt>
      <trkpt lat="43.55628" lon="2.99743">
        <ele>511.3</ele>
        <time>2018-02-25T08:16:55.000Z</time>
      </trkpt>
      <trkpt lat="43.55625" lon="2.99745">
        <ele>511.6</ele>
        <time>2018-02-25T08:16:57.000Z</time>
      </trkpt>
      <trkpt lat="43.55622" lon="2.99747">
        <ele>512</ele>
        <time>2018-02-25T08:16:59.000Z</time>
      </trkpt>
      <trkpt lat="43.55619" lon="2.99749">
        <ele>512.4</ele>
        <time>2018-02-25T08:17:01.000Z</time>
      </trkpt>
      <trkpt lat="43.55616" lon="2.99753">
        <ele>512.9</ele>
        <time>2018-02-25T08:17:03.000Z</time>
      </trkpt>
      <trkpt lat="43.55613" lon="2.99758">
        <ele>513</ele>
        <time>2018-02-25T08:17:05.000Z</time>
      </trkpt>
      <trkpt lat="43.5561" lon="2.99762">
        <ele>513.2</ele>
        <time>2018-02-25T08:17:07.000Z</time>
      </trkpt>
      <trkpt lat="43.55607" lon="2.99767">
        <ele>513.3</ele>
        <time>2018-02-25T08:17:10.000Z</time>
      </trkpt>
      <trkpt lat="43.55605" lon="2.99772">
        <ele>513.4</ele>
        <time>2018-02-25T08:17:12.000Z</time>
      </trkpt>
      <trkpt lat="43.55603" lon="2.99774">
        <ele>513.5</ele>
        <time>2018-02-25T08:17:15.000Z</time>
      </trkpt>
      <trkpt lat="43.556" lon="2.99777">
        <ele>513.6</ele>
        <time>2018-02-25T08:17:21.000Z</time>
      </trkpt>
      <trkpt lat="43.55598" lon="2.99782">
        <ele>513.8</ele>
        <time>2018-02-25T08:17:23.000Z</time>
      </trkpt>
      <trkpt lat="43.55595" lon="2.99786">
        <ele>513.9</ele>
        <time>2018-02-25T08:17:25.000Z</time>
      </trkpt>
      <trkpt lat="43.55593" lon="2.99791">
        <ele>514.1</ele>
        <time>2018-02-25T08:17:27.000Z</time>
      </trkpt>
      <trkpt lat="43.55591" lon="2.99796">
        <ele>514.3</ele>
        <time>2018-02-25T08:17:29.000Z</time>
      </trkpt>
      <trkpt lat="43.55588" lon="2.998">
        <ele>514.5</ele>
        <time>2018-02-25T08:17:31.000Z</time>
      </trkpt>
      <trkpt lat="43.55585" lon="2.99805">
        <ele>515</ele>
        <time>2018-02-25T08:17:33.000Z</time>
      </trkpt>
      <trkpt lat="43.55581" lon="2.9981">
        <ele>515.6</ele>
        <time>2018-02-25T08:17:35.000Z</time>
      </trkpt>
      <trkpt lat="43.55579" lon="2.99812">
        <ele>515.9</ele>
        <time>2018-02-25T08:17:36.000Z</time>
      </trkpt>
      <trkpt lat="43.55577" lon="2.99815">
        <ele>516</ele>
        <time>2018-02-25T08:17:37.000Z</time>
      </trkpt>
      <trkpt lat="43.55573" lon="2.99818">
        <ele>516.2</ele>
        <time>2018-02-25T08:17:39.000Z</time>
      </trkpt>
      <trkpt lat="43.5557" lon="2.99821">
        <ele>516.3</ele>
        <time>2018-02-25T08:17:41.000Z</time>
      </trkpt>
      <trkpt lat="43.55566" lon="2.99823">
        <ele>516.5</ele>
        <time>2018-02-25T08:17:43.000Z</time>
      </trkpt>
      <trkpt lat="43.55562" lon="2.99827">
        <ele>516.6</ele>
        <time>2018-02-25T08:17:45.000Z</time>
      </trkpt>
      <trkpt lat="43.55559" lon="2.9983">
        <ele>516.9</ele>
        <time>2018-02-25T08:17:47.000Z</time>
      </trkpt>
      <trkpt lat="43.55555" lon="2.99834">
        <ele>517.1</ele>
        <time>2018-02-25T08:17:49.000Z</time>
      </trkpt>
      <trkpt lat="43.55552" lon="2.99837">
        <ele>517.3</ele>
        <time>2018-02-25T08:17:51.000Z</time>
      </trkpt>
      <trkpt lat="43.5555" lon="2.99841">
        <ele>517.8</ele>
        <time>2018-02-25T08:17:53.000Z</time>
      </trkpt>
      <trkpt lat="43.55547" lon="2.99845">
        <ele>518.3</ele>
        <time>2018-02-25T08:17:55.000Z</time>
      </trkpt>
      <trkpt lat="43.55544" lon="2.99849">
        <ele>518.7</ele>
        <time>2018-02-25T08:17:57.000Z</time>
      </trkpt>
      <trkpt lat="43.55541" lon="2.99854">
        <ele>518.9</ele>
        <time>2018-02-25T08:17:59.000Z</time>
      </trkpt>
      <trkpt lat="43.55539" lon="2.99859">
        <ele>519.1</ele>
        <time>2018-02-25T08:18:01.000Z</time>
      </trkpt>
      <trkpt lat="43.55537" lon="2.99864">
        <ele>519.2</ele>
        <time>2018-02-25T08:18:03.000Z</time>
      </trkpt>
      <trkpt lat="43.55535" lon="2.99869">
        <ele>519.3</ele>
        <time>2018-02-25T08:18:05.000Z</time>
      </trkpt>
      <trkpt lat="43.55533" lon="2.99873">
        <ele>519.4</ele>
        <time>2018-02-25T08:18:07.000Z</time>
      </trkpt>
      <trkpt lat="43.55531" lon="2.99878">
        <ele>519.6</ele>
        <time>2018-02-25T08:18:09.000Z</time>
      </trkpt>
      <trkpt lat="43.55531" lon="2.99882">
        <ele>519.6</ele>
        <time>2018-02-25T08:18:11.000Z</time>
      </trkpt>
      <trkpt lat="43.55529" lon="2.99887">
        <ele>519.8</ele>
        <time>2018-02-25T08:18:13.000Z</time>
      </trkpt>
      <trkpt lat="43.55528" lon="2.99892">
        <ele>520</ele>
        <time>2018-02-25T08:18:15.000Z</time>
      </trkpt>
      <trkpt lat="43.55526" lon="2.99897">
        <ele>520.2</ele>
        <time>2018-02-25T08:18:17.000Z</time>
      </trkpt>
      <trkpt lat="43.55525" lon="2.99901">
        <ele>520.6</ele>
        <time>2018-02-25T08:18:19.000Z</time>
      </trkpt>
      <trkpt lat="43.55523" lon="2.99907">
        <ele>521.2</ele>
        <time>2018-02-25T08:18:21.000Z</time>
      </trkpt>
      <trkpt lat="43.55522" lon="2.99912">
        <ele>521.6</ele>
        <time>2018-02-25T08:18:23.000Z</time>
      </trkpt>
      <trkpt lat="43.55521" lon="2.99916">
        <ele>521.8</ele>
        <time>2018-02-25T08:18:25.000Z</time>
      </trkpt>
      <trkpt lat="43.5552" lon="2.99921">
        <ele>522</ele>
        <time>2018-02-25T08:18:27.000Z</time>
      </trkpt>
      <trkpt lat="43.55519" lon="2.99926">
        <ele>522.2</ele>
        <time>2018-02-25T08:18:29.000Z</time>
      </trkpt>
      <trkpt lat="43.55518" lon="2.99931">
        <ele>522.4</ele>
        <time>2018-02-25T08:18:31.000Z</time>
      </trkpt>
      <trkpt lat="43.55516" lon="2.99934">
        <ele>522.6</ele>
        <time>2018-02-25T08:18:33.000Z</time>
      </trkpt>
      <trkpt lat="43.55513" lon="2.99938">
        <ele>522.8</ele>
        <time>2018-02-25T08:18:35.000Z</time>
      </trkpt>
      <trkpt lat="43.55511" lon="2.99942">
        <ele>523.1</ele>
        <time>2018-02-25T08:18:37.000Z</time>
      </trkpt>
      <trkpt lat="43.5551" lon="2.99946">
        <ele>523.5</ele>
        <time>2018-02-25T08:18:39.000Z</time>
      </trkpt>
      <trkpt lat="43.55508" lon="2.9995">
        <ele>524</ele>
        <time>2018-02-25T08:18:42.000Z</time>
      </trkpt>
      <trkpt lat="43.55505" lon="2.99951">
        <ele>524.4</ele>
        <time>2018-02-25T08:18:44.000Z</time>
      </trkpt>
      <trkpt lat="43.55502" lon="2.99955">
        <ele>524.7</ele>
        <time>2018-02-25T08:18:47.000Z</time>
      </trkpt>
      <trkpt lat="43.55504" lon="2.99958">
        <ele>524.8</ele>
        <time>2018-02-25T08:18:50.000Z</time>
      </trkpt>
      <trkpt lat="43.55506" lon="2.99958">
        <ele>525</ele>
        <time>2018-02-25T08:19:32.000Z</time>
      </trkpt>
      <trkpt lat="43.55504" lon="2.99953">
        <ele>525.4</ele>
        <time>2018-02-25T08:19:34.000Z</time>
      </trkpt>
      <trkpt lat="43.55501" lon="2.99951">
        <ele>528.7</ele>
        <time>2018-02-25T08:19:35.000Z</time>
      </trkpt>
      <trkpt lat="43.55498" lon="2.9995">
        <ele>529.1</ele>
        <time>2018-02-25T08:19:36.000Z</time>
      </trkpt>
      <trkpt lat="43.55494" lon="2.9995">
        <ele>529.4</ele>
        <time>2018-02-25T08:19:37.000Z</time>
      </trkpt>
      <trkpt lat="43.55489" lon="2.9995">
        <ele>529.7</ele>
        <time>2018-02-25T08:19:38.000Z</time>
      </trkpt>
      <trkpt lat="43.55484" lon="2.99951">
        <ele>530.1</ele>
        <time>2018-02-25T08:19:39.000Z</time>
      </trkpt>
      <trkpt lat="43.55476" lon="2.99952">
        <ele>528.7</ele>
        <time>2018-02-25T08:19:40.000Z</time>
      </trkpt>
      <trkpt lat="43.5547" lon="2.99948">
        <ele>527.2</ele>
        <time>2018-02-25T08:19:41.000Z</time>
      </trkpt>
      <trkpt lat="43.55466" lon="2.99945">
        <ele>526.6</ele>
        <time>2018-02-25T08:19:42.000Z</time>
      </trkpt>
      <trkpt lat="43.5546" lon="2.99942">
        <ele>525.2</ele>
        <time>2018-02-25T08:19:43.000Z</time>
      </trkpt>
      <trkpt lat="43.55458" lon="2.99944">
        <ele>524.8</ele>
        <time>2018-02-25T08:19:46.000Z</time>
      </trkpt>
      <trkpt lat="43.5545" lon="2.99952">
        <ele>525.7</ele>
        <time>2018-02-25T08:20:43.000Z</time>
      </trkpt>
      <trkpt lat="43.55447" lon="2.99955">
        <ele>526</ele>
        <time>2018-02-25T08:21:33.000Z</time>
      </trkpt>
      <trkpt lat="43.55444" lon="2.99956">
        <ele>525.8</ele>
        <time>2018-02-25T08:21:36.000Z</time>
      </trkpt>
      <trkpt lat="43.55441" lon="2.99955">
        <ele>525.6</ele>
        <time>2018-02-25T08:21:39.000Z</time>
      </trkpt>
      <trkpt lat="43.55436" lon="2.99954">
        <ele>525.5</ele>
        <time>2018-02-25T08:21:41.000Z</time>
      </trkpt>
      <trkpt lat="43.55432" lon="2.99954">
        <ele>525.4</ele>
        <time>2018-02-25T08:21:43.000Z</time>
      </trkpt>
      <trkpt lat="43.55429" lon="2.99955">
        <ele>525.3</ele>
        <time>2018-02-25T08:21:45.000Z</time>
      </trkpt>
      <trkpt lat="43.55425" lon="2.99954">
        <ele>525.3</ele>
        <time>2018-02-25T08:21:47.000Z</time>
      </trkpt>
      <trkpt lat="43.5542" lon="2.99952">
        <ele>525</ele>
        <time>2018-02-25T08:21:49.000Z</time>
      </trkpt>
      <trkpt lat="43.55415" lon="2.99952">
        <ele>525.1</ele>
        <time>2018-02-25T08:21:51.000Z</time>
      </trkpt>
      <trkpt lat="43.55412" lon="2.99953">
        <ele>525.2</ele>
        <time>2018-02-25T08:21:53.000Z</time>
      </trkpt>
      <trkpt lat="43.55408" lon="2.99953">
        <ele>526.3</ele>
        <time>2018-02-25T08:21:56.000Z</time>
      </trkpt>
      <trkpt lat="43.55406" lon="2.99952">
        <ele>525.5</ele>
        <time>2018-02-25T08:21:59.000Z</time>
      </trkpt>
      <trkpt lat="43.55402" lon="2.99951">
        <ele>525.6</ele>
        <time>2018-02-25T08:22:01.000Z</time>
      </trkpt>
      <trkpt lat="43.55399" lon="2.99951">
        <ele>525.7</ele>
        <time>2018-02-25T08:22:03.000Z</time>
      </trkpt>
      <trkpt lat="43.55396" lon="2.99952">
        <ele>526.3</ele>
        <time>2018-02-25T08:22:05.000Z</time>
      </trkpt>
      <trkpt lat="43.55389" lon="2.99954">
        <ele>527.3</ele>
        <time>2018-02-25T08:22:07.000Z</time>
      </trkpt>
      <trkpt lat="43.55386" lon="2.99957">
        <ele>527.8</ele>
        <time>2018-02-25T08:22:08.000Z</time>
      </trkpt>
      <trkpt lat="43.55384" lon="2.9996">
        <ele>528</ele>
        <time>2018-02-25T08:22:09.000Z</time>
      </trkpt>
      <trkpt lat="43.55382" lon="2.99963">
        <ele>528.2</ele>
        <time>2018-02-25T08:22:11.000Z</time>
      </trkpt>
      <trkpt lat="43.55381" lon="2.99968">
        <ele>528.3</ele>
        <time>2018-02-25T08:22:13.000Z</time>
      </trkpt>
      <trkpt lat="43.5538" lon="2.99972">
        <ele>528.4</ele>
        <time>2018-02-25T08:22:16.000Z</time>
      </trkpt>
      <trkpt lat="43.55379" lon="2.99976">
        <ele>528.4</ele>
        <time>2018-02-25T08:22:18.000Z</time>
      </trkpt>
      <trkpt lat="43.55377" lon="2.99981">
        <ele>528.4</ele>
        <time>2018-02-25T08:22:20.000Z</time>
      </trkpt>
      <trkpt lat="43.55376" lon="2.99986">
        <ele>528.4</ele>
        <time>2018-02-25T08:22:23.000Z</time>
      </trkpt>
      <trkpt lat="43.55374" lon="2.99985">
        <ele>528.3</ele>
        <time>2018-02-25T08:22:27.000Z</time>
      </trkpt>
      <trkpt lat="43.55376" lon="2.99988">
        <ele>528.1</ele>
        <time>2018-02-25T08:23:04.000Z</time>
      </trkpt>
      <trkpt lat="43.55378" lon="2.99992">
        <ele>527.9</ele>
        <time>2018-02-25T08:23:09.000Z</time>
      </trkpt>
      <trkpt lat="43.5538" lon="2.99997">
        <ele>527.7</ele>
        <time>2018-02-25T08:23:11.000Z</time>
      </trkpt>
      <trkpt lat="43.55384" lon="3.00002">
        <ele>527.3</ele>
        <time>2018-02-25T08:23:13.000Z</time>
      </trkpt>
      <trkpt lat="43.55387" lon="3.00005">
        <ele>527.1</ele>
        <time>2018-02-25T08:23:14.000Z</time>
      </trkpt>
      <trkpt lat="43.55389" lon="3.00008">
        <ele>526.9</ele>
        <time>2018-02-25T08:23:15.000Z</time>
      </trkpt>
      <trkpt lat="43.55392" lon="3.00011">
        <ele>526.7</ele>
        <time>2018-02-25T08:23:16.000Z</time>
      </trkpt>
      <trkpt lat="43.55394" lon="3.00013">
        <ele>526.5</ele>
        <time>2018-02-25T08:23:17.000Z</time>
      </trkpt>
      <trkpt lat="43.55396" lon="3.00017">
        <ele>526.3</ele>
        <time>2018-02-25T08:23:18.000Z</time>
      </trkpt>
      <trkpt lat="43.55398" lon="3.00023">
        <ele>525.7</ele>
        <time>2018-02-25T08:23:19.000Z</time>
      </trkpt>
      <trkpt lat="43.554" lon="3.00028">
        <ele>524.9</ele>
        <time>2018-02-25T08:23:20.000Z</time>
      </trkpt>
      <trkpt lat="43.55402" lon="3.00033">
        <ele>524.3</ele>
        <time>2018-02-25T08:23:22.000Z</time>
      </trkpt>
      <trkpt lat="43.55407" lon="3.00038">
        <ele>523.6</ele>
        <time>2018-02-25T08:23:24.000Z</time>
      </trkpt>
      <trkpt lat="43.5541" lon="3.00041">
        <ele>522.7</ele>
        <time>2018-02-25T08:23:25.000Z</time>
      </trkpt>
      <trkpt lat="43.55415" lon="3.00045">
        <ele>521.4</ele>
        <time>2018-02-25T08:23:26.000Z</time>
      </trkpt>
      <trkpt lat="43.5542" lon="3.00048">
        <ele>520.5</ele>
        <time>2018-02-25T08:23:27.000Z</time>
      </trkpt>
      <trkpt lat="43.55422" lon="3.00051">
        <ele>520</ele>
        <time>2018-02-25T08:23:28.000Z</time>
      </trkpt>
      <trkpt lat="43.55425" lon="3.00052">
        <ele>519.7</ele>
        <time>2018-02-25T08:23:29.000Z</time>
      </trkpt>
      <trkpt lat="43.55428" lon="3.00053">
        <ele>519.5</ele>
        <time>2018-02-25T08:23:30.000Z</time>
      </trkpt>
      <trkpt lat="43.55431" lon="3.00058">
        <ele>518.7</ele>
        <time>2018-02-25T08:23:32.000Z</time>
      </trkpt>
      <trkpt lat="43.55434" lon="3.00061">
        <ele>518.1</ele>
        <time>2018-02-25T08:23:33.000Z</time>
      </trkpt>
      <trkpt lat="43.55436" lon="3.00063">
        <ele>517.5</ele>
        <time>2018-02-25T08:23:34.000Z</time>
      </trkpt>
      <trkpt lat="43.55438" lon="3.00066">
        <ele>516.9</ele>
        <time>2018-02-25T08:23:35.000Z</time>
      </trkpt>
      <trkpt lat="43.55441" lon="3.00069">
        <ele>516</ele>
        <time>2018-02-25T08:23:37.000Z</time>
      </trkpt>
      <trkpt lat="43.55439" lon="3.00074">
        <ele>515.5</ele>
        <time>2018-02-25T08:23:40.000Z</time>
      </trkpt>
      <trkpt lat="43.55435" lon="3.00077">
        <ele>515.5</ele>
        <time>2018-02-25T08:23:42.000Z</time>
      </trkpt>
      <trkpt lat="43.55432" lon="3.00079">
        <ele>515.6</ele>
        <time>2018-02-25T08:23:43.000Z</time>
      </trkpt>
      <trkpt lat="43.55429" lon="3.00082">
        <ele>515.6</ele>
        <time>2018-02-25T08:23:44.000Z</time>
      </trkpt>
      <trkpt lat="43.55426" lon="3.00084">
        <ele>515.7</ele>
        <time>2018-02-25T08:23:45.000Z</time>
      </trkpt>
      <trkpt lat="43.55423" lon="3.00086">
        <ele>515.7</ele>
        <time>2018-02-25T08:23:46.000Z</time>
      </trkpt>
      <trkpt lat="43.5542" lon="3.00088">
        <ele>515.8</ele>
        <time>2018-02-25T08:23:47.000Z</time>
      </trkpt>
      <trkpt lat="43.55416" lon="3.00091">
        <ele>515.8</ele>
        <time>2018-02-25T08:23:48.000Z</time>
      </trkpt>
      <trkpt lat="43.55414" lon="3.00095">
        <ele>515.6</ele>
        <time>2018-02-25T08:23:49.000Z</time>
      </trkpt>
      <trkpt lat="43.55412" lon="3.00099">
        <ele>514.4</ele>
        <time>2018-02-25T08:23:50.000Z</time>
      </trkpt>
      <trkpt lat="43.55411" lon="3.00105">
        <ele>512.8</ele>
        <time>2018-02-25T08:23:51.000Z</time>
      </trkpt>
      <trkpt lat="43.55411" lon="3.00111">
        <ele>510.7</ele>
        <time>2018-02-25T08:23:52.000Z</time>
      </trkpt>
      <trkpt lat="43.55412" lon="3.00117">
        <ele>508.8</ele>
        <time>2018-02-25T08:23:53.000Z</time>
      </trkpt>
      <trkpt lat="43.55413" lon="3.00122">
        <ele>508.2</ele>
        <time>2018-02-25T08:23:54.000Z</time>
      </trkpt>
      <trkpt lat="43.55416" lon="3.00125">
        <ele>507.8</ele>
        <time>2018-02-25T08:23:56.000Z</time>
      </trkpt>
      <trkpt lat="43.55413" lon="3.00125">
        <ele>507.1</ele>
        <time>2018-02-25T08:23:59.000Z</time>
      </trkpt>
      <trkpt lat="43.55409" lon="3.00125">
        <ele>506.7</ele>
        <time>2018-02-25T08:24:01.000Z</time>
      </trkpt>
      <trkpt lat="43.55403" lon="3.00128">
        <ele>505.5</ele>
        <time>2018-02-25T08:24:03.000Z</time>
      </trkpt>
      <trkpt lat="43.554" lon="3.0013">
        <ele>504.4</ele>
        <time>2018-02-25T08:24:04.000Z</time>
      </trkpt>
      <trkpt lat="43.55397" lon="3.00132">
        <ele>502.8</ele>
        <time>2018-02-25T08:24:05.000Z</time>
      </trkpt>
      <trkpt lat="43.55394" lon="3.00134">
        <ele>501.8</ele>
        <time>2018-02-25T08:24:06.000Z</time>
      </trkpt>
      <trkpt lat="43.55391" lon="3.00134">
        <ele>501.2</ele>
        <time>2018-02-25T08:24:08.000Z</time>
      </trkpt>
      <trkpt lat="43.55387" lon="3.00136">
        <ele>501.7</ele>
        <time>2018-02-25T08:24:11.000Z</time>
      </trkpt>
      <trkpt lat="43.55389" lon="3.00142">
        <ele>501.4</ele>
        <time>2018-02-25T08:24:14.000Z</time>
      </trkpt>
      <trkpt lat="43.55391" lon="3.00146">
        <ele>501.3</ele>
        <time>2018-02-25T08:24:15.000Z</time>
      </trkpt>
      <trkpt lat="43.55394" lon="3.0015">
        <ele>501.4</ele>
        <time>2018-02-25T08:24:16.000Z</time>
      </trkpt>
      <trkpt lat="43.55396" lon="3.00154">
        <ele>501.6</ele>
        <time>2018-02-25T08:24:17.000Z</time>
      </trkpt>
      <trkpt lat="43.55397" lon="3.00158">
        <ele>501.8</ele>
        <time>2018-02-25T08:24:18.000Z</time>
      </trkpt>
      <trkpt lat="43.554" lon="3.00162">
        <ele>502</ele>
        <time>2018-02-25T08:24:19.000Z</time>
      </trkpt>
      <trkpt lat="43.55402" lon="3.00166">
        <ele>502.3</ele>
        <time>2018-02-25T08:24:20.000Z</time>
      </trkpt>
      <trkpt lat="43.55405" lon="3.0017">
        <ele>502.1</ele>
        <time>2018-02-25T08:24:21.000Z</time>
      </trkpt>
      <trkpt lat="43.55409" lon="3.00173">
        <ele>501.8</ele>
        <time>2018-02-25T08:24:22.000Z</time>
      </trkpt>
      <trkpt lat="43.55413" lon="3.00176">
        <ele>501.6</ele>
        <time>2018-02-25T08:24:23.000Z</time>
      </trkpt>
      <trkpt lat="43.55416" lon="3.00179">
        <ele>501.8</ele>
        <time>2018-02-25T08:24:24.000Z</time>
      </trkpt>
      <trkpt lat="43.55419" lon="3.00181">
        <ele>501.8</ele>
        <time>2018-02-25T08:24:26.000Z</time>
      </trkpt>
      <trkpt lat="43.55418" lon="3.00186">
        <ele>501.3</ele>
        <time>2018-02-25T08:24:28.000Z</time>
      </trkpt>
      <trkpt lat="43.55414" lon="3.00191">
        <ele>499.7</ele>
        <time>2018-02-25T08:24:30.000Z</time>
      </trkpt>
      <trkpt lat="43.5541" lon="3.00193">
        <ele>498.7</ele>
        <time>2018-02-25T08:24:31.000Z</time>
      </trkpt>
      <trkpt lat="43.55406" lon="3.00196">
        <ele>497.9</ele>
        <time>2018-02-25T08:24:32.000Z</time>
      </trkpt>
      <trkpt lat="43.55403" lon="3.002">
        <ele>496.9</ele>
        <time>2018-02-25T08:24:33.000Z</time>
      </trkpt>
      <trkpt lat="43.55401" lon="3.00204">
        <ele>496</ele>
        <time>2018-02-25T08:24:34.000Z</time>
      </trkpt>
      <trkpt lat="43.55398" lon="3.00209">
        <ele>495</ele>
        <time>2018-02-25T08:24:35.000Z</time>
      </trkpt>
      <trkpt lat="43.55395" lon="3.00214">
        <ele>493.9</ele>
        <time>2018-02-25T08:24:36.000Z</time>
      </trkpt>
      <trkpt lat="43.55393" lon="3.00219">
        <ele>493.6</ele>
        <time>2018-02-25T08:24:37.000Z</time>
      </trkpt>
      <trkpt lat="43.55391" lon="3.00222">
        <ele>492.3</ele>
        <time>2018-02-25T08:24:38.000Z</time>
      </trkpt>
      <trkpt lat="43.55387" lon="3.00224">
        <ele>491</ele>
        <time>2018-02-25T08:24:39.000Z</time>
      </trkpt>
      <trkpt lat="43.55383" lon="3.00225">
        <ele>488.5</ele>
        <time>2018-02-25T08:24:40.000Z</time>
      </trkpt>
      <trkpt lat="43.55378" lon="3.00226">
        <ele>487.2</ele>
        <time>2018-02-25T08:24:41.000Z</time>
      </trkpt>
      <trkpt lat="43.55373" lon="3.00227">
        <ele>484.8</ele>
        <time>2018-02-25T08:24:42.000Z</time>
      </trkpt>
      <trkpt lat="43.5537" lon="3.00229">
        <ele>483.3</ele>
        <time>2018-02-25T08:24:43.000Z</time>
      </trkpt>
      <trkpt lat="43.55366" lon="3.00231">
        <ele>481.7</ele>
        <time>2018-02-25T08:24:44.000Z</time>
      </trkpt>
      <trkpt lat="43.55364" lon="3.00232">
        <ele>481.6</ele>
        <time>2018-02-25T08:24:45.000Z</time>
      </trkpt>
      <trkpt lat="43.55359" lon="3.00235">
        <ele>481.1</ele>
        <time>2018-02-25T08:24:47.000Z</time>
      </trkpt>
      <trkpt lat="43.55356" lon="3.00237">
        <ele>480.6</ele>
        <time>2018-02-25T08:24:48.000Z</time>
      </trkpt>
      <trkpt lat="43.55353" lon="3.00239">
        <ele>479.8</ele>
        <time>2018-02-25T08:24:49.000Z</time>
      </trkpt>
      <trkpt lat="43.5535" lon="3.00242">
        <ele>478.3</ele>
        <time>2018-02-25T08:24:50.000Z</time>
      </trkpt>
      <trkpt lat="43.55345" lon="3.00248">
        <ele>476.5</ele>
        <time>2018-02-25T08:24:52.000Z</time>
      </trkpt>
      <trkpt lat="43.55344" lon="3.00252">
        <ele>475.4</ele>
        <time>2018-02-25T08:24:53.000Z</time>
      </trkpt>
      <trkpt lat="43.55342" lon="3.00258">
        <ele>473.8</ele>
        <time>2018-02-25T08:24:54.000Z</time>
      </trkpt>
      <trkpt lat="43.55342" lon="3.00263">
        <ele>472.5</ele>
        <time>2018-02-25T08:24:55.000Z</time>
      </trkpt>
      <trkpt lat="43.55341" lon="3.00268">
        <ele>472.5</ele>
        <time>2018-02-25T08:24:56.000Z</time>
      </trkpt>
      <trkpt lat="43.55339" lon="3.00272">
        <ele>472.6</ele>
        <time>2018-02-25T08:24:57.000Z</time>
      </trkpt>
      <trkpt lat="43.55338" lon="3.00277">
        <ele>472.6</ele>
        <time>2018-02-25T08:24:58.000Z</time>
      </trkpt>
      <trkpt lat="43.55336" lon="3.00283">
        <ele>472.7</ele>
        <time>2018-02-25T08:24:59.000Z</time>
      </trkpt>
      <trkpt lat="43.55335" lon="3.00288">
        <ele>473.7</ele>
        <time>2018-02-25T08:25:00.000Z</time>
      </trkpt>
      <trkpt lat="43.55334" lon="3.00293">
        <ele>474.8</ele>
        <time>2018-02-25T08:25:01.000Z</time>
      </trkpt>
      <trkpt lat="43.55334" lon="3.00298">
        <ele>474.5</ele>
        <time>2018-02-25T08:25:02.000Z</time>
      </trkpt>
      <trkpt lat="43.55333" lon="3.00302">
        <ele>473.9</ele>
        <time>2018-02-25T08:25:03.000Z</time>
      </trkpt>
      <trkpt lat="43.55333" lon="3.00308">
        <ele>473.4</ele>
        <time>2018-02-25T08:25:05.000Z</time>
      </trkpt>
      <trkpt lat="43.55334" lon="3.00314">
        <ele>473.6</ele>
        <time>2018-02-25T08:25:07.000Z</time>
      </trkpt>
      <trkpt lat="43.55332" lon="3.0032">
        <ele>473.2</ele>
        <time>2018-02-25T08:25:09.000Z</time>
      </trkpt>
      <trkpt lat="43.55331" lon="3.00323">
        <ele>472.5</ele>
        <time>2018-02-25T08:25:10.000Z</time>
      </trkpt>
      <trkpt lat="43.5533" lon="3.00331">
        <ele>471.2</ele>
        <time>2018-02-25T08:25:12.000Z</time>
      </trkpt>
      <trkpt lat="43.55329" lon="3.00334">
        <ele>470.6</ele>
        <time>2018-02-25T08:25:14.000Z</time>
      </trkpt>
      <trkpt lat="43.55327" lon="3.00341">
        <ele>471</ele>
        <time>2018-02-25T08:25:16.000Z</time>
      </trkpt>
      <trkpt lat="43.55327" lon="3.00346">
        <ele>470.2</ele>
        <time>2018-02-25T08:25:17.000Z</time>
      </trkpt>
      <trkpt lat="43.55326" lon="3.00352">
        <ele>468.8</ele>
        <time>2018-02-25T08:25:18.000Z</time>
      </trkpt>
      <trkpt lat="43.55326" lon="3.00359">
        <ele>468.3</ele>
        <time>2018-02-25T08:25:19.000Z</time>
      </trkpt>
      <trkpt lat="43.55327" lon="3.00366">
        <ele>468</ele>
        <time>2018-02-25T08:25:20.000Z</time>
      </trkpt>
      <trkpt lat="43.55328" lon="3.0037">
        <ele>467.8</ele>
        <time>2018-02-25T08:25:21.000Z</time>
      </trkpt>
      <trkpt lat="43.55329" lon="3.00374">
        <ele>467.6</ele>
        <time>2018-02-25T08:25:22.000Z</time>
      </trkpt>
      <trkpt lat="43.5533" lon="3.00379">
        <ele>467.5</ele>
        <time>2018-02-25T08:25:23.000Z</time>
      </trkpt>
      <trkpt lat="43.5533" lon="3.00384">
        <ele>467.9</ele>
        <time>2018-02-25T08:25:24.000Z</time>
      </trkpt>
      <trkpt lat="43.5533" lon="3.00391">
        <ele>468.3</ele>
        <time>2018-02-25T08:25:25.000Z</time>
      </trkpt>
      <trkpt lat="43.55329" lon="3.00399">
        <ele>468.8</ele>
        <time>2018-02-25T08:25:26.000Z</time>
      </trkpt>
      <trkpt lat="43.55329" lon="3.00407">
        <ele>470</ele>
        <time>2018-02-25T08:25:27.000Z</time>
      </trkpt>
      <trkpt lat="43.55329" lon="3.00413">
        <ele>470.6</ele>
        <time>2018-02-25T08:25:28.000Z</time>
      </trkpt>
      <trkpt lat="43.5533" lon="3.00418">
        <ele>470.8</ele>
        <time>2018-02-25T08:25:30.000Z</time>
      </trkpt>
      <trkpt lat="43.55333" lon="3.00421">
        <ele>470.9</ele>
        <time>2018-02-25T08:25:32.000Z</time>
      </trkpt>
      <trkpt lat="43.55335" lon="3.00425">
        <ele>471.1</ele>
        <time>2018-02-25T08:25:34.000Z</time>
      </trkpt>
      <trkpt lat="43.55336" lon="3.00429">
        <ele>471.2</ele>
        <time>2018-02-25T08:25:36.000Z</time>
      </trkpt>
      <trkpt lat="43.55336" lon="3.00434">
        <ele>471.3</ele>
        <time>2018-02-25T08:25:38.000Z</time>
      </trkpt>
      <trkpt lat="43.55336" lon="3.0044">
        <ele>471.4</ele>
        <time>2018-02-25T08:25:40.000Z</time>
      </trkpt>
      <trkpt lat="43.55334" lon="3.00447">
        <ele>471.8</ele>
        <time>2018-02-25T08:25:42.000Z</time>
      </trkpt>
      <trkpt lat="43.55333" lon="3.00451">
        <ele>472.6</ele>
        <time>2018-02-25T08:25:43.000Z</time>
      </trkpt>
      <trkpt lat="43.55333" lon="3.00455">
        <ele>473.3</ele>
        <time>2018-02-25T08:25:44.000Z</time>
      </trkpt>
      <trkpt lat="43.55333" lon="3.00459">
        <ele>473.7</ele>
        <time>2018-02-25T08:25:45.000Z</time>
      </trkpt>
      <trkpt lat="43.55333" lon="3.00463">
        <ele>474.2</ele>
        <time>2018-02-25T08:25:46.000Z</time>
      </trkpt>
      <trkpt lat="43.55333" lon="3.00467">
        <ele>474.2</ele>
        <time>2018-02-25T08:25:47.000Z</time>
      </trkpt>
      <trkpt lat="43.55333" lon="3.00471">
        <ele>474.2</ele>
        <time>2018-02-25T08:25:48.000Z</time>
      </trkpt>
      <trkpt lat="43.55333" lon="3.00476">
        <ele>474.6</ele>
        <time>2018-02-25T08:25:49.000Z</time>
      </trkpt>
      <trkpt lat="43.55333" lon="3.0048">
        <ele>475.2</ele>
        <time>2018-02-25T08:25:50.000Z</time>
      </trkpt>
      <trkpt lat="43.55333" lon="3.00485">
        <ele>475.8</ele>
        <time>2018-02-25T08:25:51.000Z</time>
      </trkpt>
      <trkpt lat="43.55334" lon="3.0049">
        <ele>476.3</ele>
        <time>2018-02-25T08:25:52.000Z</time>
      </trkpt>
      <trkpt lat="43.55334" lon="3.00497">
        <ele>477.3</ele>
        <time>2018-02-25T08:25:54.000Z</time>
      </trkpt>
      <trkpt lat="43.55334" lon="3.00503">
        <ele>478.8</ele>
        <time>2018-02-25T08:25:56.000Z</time>
      </trkpt>
      <trkpt lat="43.55333" lon="3.00509">
        <ele>479.4</ele>
        <time>2018-02-25T08:25:58.000Z</time>
      </trkpt>
      <trkpt lat="43.55332" lon="3.00514">
        <ele>479.6</ele>
        <time>2018-02-25T08:25:59.000Z</time>
      </trkpt>
      <trkpt lat="43.55331" lon="3.00518">
        <ele>480.1</ele>
        <time>2018-02-25T08:26:01.000Z</time>
      </trkpt>
      <trkpt lat="43.55339" lon="3.00533">
        <ele>481.5</ele>
        <time>2018-02-25T08:28:50.000Z</time>
      </trkpt>
      <trkpt lat="43.5534" lon="3.00537">
        <ele>482.1</ele>
        <time>2018-02-25T08:28:51.000Z</time>
      </trkpt>
      <trkpt lat="43.55342" lon="3.00542">
        <ele>482.9</ele>
        <time>2018-02-25T08:28:53.000Z</time>
      </trkpt>
      <trkpt lat="43.55343" lon="3.00546">
        <ele>483.1</ele>
        <time>2018-02-25T08:28:56.000Z</time>
      </trkpt>
      <trkpt lat="43.55344" lon="3.00551">
        <ele>483.3</ele>
        <time>2018-02-25T08:28:58.000Z</time>
      </trkpt>
      <trkpt lat="43.55346" lon="3.00554">
        <ele>483.7</ele>
        <time>2018-02-25T08:29:00.000Z</time>
      </trkpt>
      <trkpt lat="43.55347" lon="3.0056">
        <ele>484.5</ele>
        <time>2018-02-25T08:29:03.000Z</time>
      </trkpt>
      <trkpt lat="43.55348" lon="3.00564">
        <ele>485</ele>
        <time>2018-02-25T08:29:05.000Z</time>
      </trkpt>
      <trkpt lat="43.55348" lon="3.00567">
        <ele>485.1</ele>
        <time>2018-02-25T08:29:07.000Z</time>
      </trkpt>
      <trkpt lat="43.55349" lon="3.00572">
        <ele>485.3</ele>
        <time>2018-02-25T08:29:09.000Z</time>
      </trkpt>
      <trkpt lat="43.55349" lon="3.00576">
        <ele>485.6</ele>
        <time>2018-02-25T08:29:11.000Z</time>
      </trkpt>
      <trkpt lat="43.55349" lon="3.00582">
        <ele>485.9</ele>
        <time>2018-02-25T08:29:14.000Z</time>
      </trkpt>
      <trkpt lat="43.55348" lon="3.00587">
        <ele>486.2</ele>
        <time>2018-02-25T08:29:17.000Z</time>
      </trkpt>
      <trkpt lat="43.55347" lon="3.00591">
        <ele>486.5</ele>
        <time>2018-02-25T08:29:19.000Z</time>
      </trkpt>
      <trkpt lat="43.55345" lon="3.00593">
        <ele>486.8</ele>
        <time>2018-02-25T08:29:20.000Z</time>
      </trkpt>
      <trkpt lat="43.55342" lon="3.00596">
        <ele>486.5</ele>
        <time>2018-02-25T08:29:21.000Z</time>
      </trkpt>
      <trkpt lat="43.55339" lon="3.006">
        <ele>485.9</ele>
        <time>2018-02-25T08:29:22.000Z</time>
      </trkpt>
      <trkpt lat="43.55336" lon="3.00603">
        <ele>485.3</ele>
        <time>2018-02-25T08:29:24.000Z</time>
      </trkpt>
      <trkpt lat="43.55333" lon="3.00608">
        <ele>485.1</ele>
        <time>2018-02-25T08:29:26.000Z</time>
      </trkpt>
      <trkpt lat="43.55331" lon="3.00614">
        <ele>484.8</ele>
        <time>2018-02-25T08:29:28.000Z</time>
      </trkpt>
      <trkpt lat="43.5533" lon="3.00619">
        <ele>483.9</ele>
        <time>2018-02-25T08:29:30.000Z</time>
      </trkpt>
      <trkpt lat="43.55328" lon="3.00624">
        <ele>483.3</ele>
        <time>2018-02-25T08:29:32.000Z</time>
      </trkpt>
      <trkpt lat="43.55326" lon="3.00629">
        <ele>483</ele>
        <time>2018-02-25T08:29:34.000Z</time>
      </trkpt>
      <trkpt lat="43.55323" lon="3.00633">
        <ele>482.4</ele>
        <time>2018-02-25T08:29:36.000Z</time>
      </trkpt>
      <trkpt lat="43.5532" lon="3.00637">
        <ele>481.9</ele>
        <time>2018-02-25T08:29:38.000Z</time>
      </trkpt>
      <trkpt lat="43.55317" lon="3.00641">
        <ele>481.8</ele>
        <time>2018-02-25T08:29:40.000Z</time>
      </trkpt>
      <trkpt lat="43.55315" lon="3.00645">
        <ele>481.7</ele>
        <time>2018-02-25T08:29:42.000Z</time>
      </trkpt>
      <trkpt lat="43.55312" lon="3.00651">
        <ele>481.4</ele>
        <time>2018-02-25T08:29:44.000Z</time>
      </trkpt>
      <trkpt lat="43.55309" lon="3.00655">
        <ele>481.5</ele>
        <time>2018-02-25T08:29:46.000Z</time>
      </trkpt>
      <trkpt lat="43.55306" lon="3.00657">
        <ele>481.6</ele>
        <time>2018-02-25T08:29:48.000Z</time>
      </trkpt>
      <trkpt lat="43.55302" lon="3.00661">
        <ele>481.7</ele>
        <time>2018-02-25T08:29:51.000Z</time>
      </trkpt>
      <trkpt lat="43.553" lon="3.00664">
        <ele>481.8</ele>
        <time>2018-02-25T08:29:54.000Z</time>
      </trkpt>
      <trkpt lat="43.55297" lon="3.00668">
        <ele>481.8</ele>
        <time>2018-02-25T08:29:58.000Z</time>
      </trkpt>
      <trkpt lat="43.55295" lon="3.00671">
        <ele>481.8</ele>
        <time>2018-02-25T08:30:00.000Z</time>
      </trkpt>
      <trkpt lat="43.55292" lon="3.00677">
        <ele>481.9</ele>
        <time>2018-02-25T08:30:03.000Z</time>
      </trkpt>
      <trkpt lat="43.5529" lon="3.0068">
        <ele>481.8</ele>
        <time>2018-02-25T08:30:06.000Z</time>
      </trkpt>
      <trkpt lat="43.55286" lon="3.00687">
        <ele>481.5</ele>
        <time>2018-02-25T08:30:31.000Z</time>
      </trkpt>
      <trkpt lat="43.55284" lon="3.0069">
        <ele>481.3</ele>
        <time>2018-02-25T08:30:34.000Z</time>
      </trkpt>
      <trkpt lat="43.55282" lon="3.00693">
        <ele>481.1</ele>
        <time>2018-02-25T08:30:38.000Z</time>
      </trkpt>
      <trkpt lat="43.55279" lon="3.00696">
        <ele>480.7</ele>
        <time>2018-02-25T08:30:42.000Z</time>
      </trkpt>
      <trkpt lat="43.55278" lon="3.007">
        <ele>480.3</ele>
        <time>2018-02-25T08:30:47.000Z</time>
      </trkpt>
      <trkpt lat="43.55277" lon="3.00704">
        <ele>479.9</ele>
        <time>2018-02-25T08:30:49.000Z</time>
      </trkpt>
      <trkpt lat="43.55278" lon="3.00708">
        <ele>479.6</ele>
        <time>2018-02-25T08:30:51.000Z</time>
      </trkpt>
      <trkpt lat="43.55279" lon="3.00713">
        <ele>479.5</ele>
        <time>2018-02-25T08:30:53.000Z</time>
      </trkpt>
      <trkpt lat="43.5528" lon="3.00718">
        <ele>479.3</ele>
        <time>2018-02-25T08:30:55.000Z</time>
      </trkpt>
      <trkpt lat="43.5528" lon="3.00722">
        <ele>479.1</ele>
        <time>2018-02-25T08:30:57.000Z</time>
      </trkpt>
      <trkpt lat="43.55278" lon="3.00727">
        <ele>478.9</ele>
        <time>2018-02-25T08:30:59.000Z</time>
      </trkpt>
      <trkpt lat="43.55276" lon="3.00731">
        <ele>479</ele>
        <time>2018-02-25T08:31:01.000Z</time>
      </trkpt>
      <trkpt lat="43.55275" lon="3.00737">
        <ele>479.2</ele>
        <time>2018-02-25T08:31:03.000Z</time>
      </trkpt>
      <trkpt lat="43.55274" lon="3.00743">
        <ele>479.4</ele>
        <time>2018-02-25T08:31:05.000Z</time>
      </trkpt>
      <trkpt lat="43.55273" lon="3.00748">
        <ele>479.6</ele>
        <time>2018-02-25T08:31:07.000Z</time>
      </trkpt>
      <trkpt lat="43.55274" lon="3.00753">
        <ele>479.9</ele>
        <time>2018-02-25T08:31:09.000Z</time>
      </trkpt>
      <trkpt lat="43.55275" lon="3.00758">
        <ele>480.2</ele>
        <time>2018-02-25T08:31:11.000Z</time>
      </trkpt>
      <trkpt lat="43.55274" lon="3.00764">
        <ele>480.7</ele>
        <time>2018-02-25T08:31:13.000Z</time>
      </trkpt>
      <trkpt lat="43.55272" lon="3.0077">
        <ele>481.1</ele>
        <time>2018-02-25T08:31:15.000Z</time>
      </trkpt>
      <trkpt lat="43.5527" lon="3.00775">
        <ele>481.4</ele>
        <time>2018-02-25T08:31:17.000Z</time>
      </trkpt>
      <trkpt lat="43.5527" lon="3.00781">
        <ele>481.9</ele>
        <time>2018-02-25T08:31:19.000Z</time>
      </trkpt>
      <trkpt lat="43.55268" lon="3.00786">
        <ele>482.4</ele>
        <time>2018-02-25T08:31:21.000Z</time>
      </trkpt>
      <trkpt lat="43.55266" lon="3.00792">
        <ele>483.2</ele>
        <time>2018-02-25T08:31:23.000Z</time>
      </trkpt>
      <trkpt lat="43.55263" lon="3.00797">
        <ele>484</ele>
        <time>2018-02-25T08:31:25.000Z</time>
      </trkpt>
      <trkpt lat="43.55263" lon="3.00801">
        <ele>483.9</ele>
        <time>2018-02-25T08:31:27.000Z</time>
      </trkpt>
      <trkpt lat="43.55264" lon="3.00806">
        <ele>483.8</ele>
        <time>2018-02-25T08:31:29.000Z</time>
      </trkpt>
      <trkpt lat="43.55265" lon="3.00811">
        <ele>484</ele>
        <time>2018-02-25T08:31:31.000Z</time>
      </trkpt>
      <trkpt lat="43.55266" lon="3.00816">
        <ele>484.3</ele>
        <time>2018-02-25T08:31:34.000Z</time>
      </trkpt>
      <trkpt lat="43.55266" lon="3.00821">
        <ele>484.4</ele>
        <time>2018-02-25T08:31:36.000Z</time>
      </trkpt>
      <trkpt lat="43.55266" lon="3.00826">
        <ele>484.6</ele>
        <time>2018-02-25T08:31:38.000Z</time>
      </trkpt>
      <trkpt lat="43.55265" lon="3.0083">
        <ele>484.8</ele>
        <time>2018-02-25T08:31:40.000Z</time>
      </trkpt>
      <trkpt lat="43.55265" lon="3.00835">
        <ele>484.9</ele>
        <time>2018-02-25T08:31:42.000Z</time>
      </trkpt>
      <trkpt lat="43.55265" lon="3.00839">
        <ele>485</ele>
        <time>2018-02-25T08:31:44.000Z</time>
      </trkpt>
      <trkpt lat="43.55264" lon="3.00843">
        <ele>485.1</ele>
        <time>2018-02-25T08:31:46.000Z</time>
      </trkpt>
      <trkpt lat="43.55264" lon="3.00848">
        <ele>485.3</ele>
        <time>2018-02-25T08:31:48.000Z</time>
      </trkpt>
      <trkpt lat="43.55265" lon="3.00854">
        <ele>485.7</ele>
        <time>2018-02-25T08:31:50.000Z</time>
      </trkpt>
      <trkpt lat="43.55265" lon="3.0086">
        <ele>486.3</ele>
        <time>2018-02-25T08:31:52.000Z</time>
      </trkpt>
      <trkpt lat="43.55264" lon="3.00866">
        <ele>486.8</ele>
        <time>2018-02-25T08:31:54.000Z</time>
      </trkpt>
      <trkpt lat="43.55264" lon="3.0087">
        <ele>487.1</ele>
        <time>2018-02-25T08:31:55.000Z</time>
      </trkpt>
      <trkpt lat="43.55262" lon="3.00876">
        <ele>487.6</ele>
        <time>2018-02-25T08:31:57.000Z</time>
      </trkpt>
      <trkpt lat="43.55261" lon="3.00881">
        <ele>488</ele>
        <time>2018-02-25T08:31:59.000Z</time>
      </trkpt>
      <trkpt lat="43.55261" lon="3.00885">
        <ele>488.3</ele>
        <time>2018-02-25T08:32:01.000Z</time>
      </trkpt>
      <trkpt lat="43.5526" lon="3.0089">
        <ele>488.9</ele>
        <time>2018-02-25T08:32:03.000Z</time>
      </trkpt>
      <trkpt lat="43.5526" lon="3.00894">
        <ele>489.3</ele>
        <time>2018-02-25T08:32:05.000Z</time>
      </trkpt>
      <trkpt lat="43.55259" lon="3.00899">
        <ele>489.8</ele>
        <time>2018-02-25T08:32:07.000Z</time>
      </trkpt>
      <trkpt lat="43.55258" lon="3.00905">
        <ele>490.2</ele>
        <time>2018-02-25T08:32:09.000Z</time>
      </trkpt>
      <trkpt lat="43.55258" lon="3.00911">
        <ele>490.5</ele>
        <time>2018-02-25T08:32:12.000Z</time>
      </trkpt>
      <trkpt lat="43.55257" lon="3.00916">
        <ele>490.8</ele>
        <time>2018-02-25T08:32:14.000Z</time>
      </trkpt>
      <trkpt lat="43.55257" lon="3.00921">
        <ele>491</ele>
        <time>2018-02-25T08:32:16.000Z</time>
      </trkpt>
      <trkpt lat="43.55258" lon="3.00926">
        <ele>491.2</ele>
        <time>2018-02-25T08:32:19.000Z</time>
      </trkpt>
      <trkpt lat="43.55258" lon="3.0093">
        <ele>491.4</ele>
        <time>2018-02-25T08:32:21.000Z</time>
      </trkpt>
      <trkpt lat="43.55257" lon="3.00936">
        <ele>491.9</ele>
        <time>2018-02-25T08:32:24.000Z</time>
      </trkpt>
      <trkpt lat="43.55256" lon="3.00941">
        <ele>492.5</ele>
        <time>2018-02-25T08:32:26.000Z</time>
      </trkpt>
      <trkpt lat="43.55255" lon="3.00945">
        <ele>492.9</ele>
        <time>2018-02-25T08:32:28.000Z</time>
      </trkpt>
      <trkpt lat="43.55255" lon="3.0095">
        <ele>493.3</ele>
        <time>2018-02-25T08:32:32.000Z</time>
      </trkpt>
      <trkpt lat="43.55254" lon="3.00954">
        <ele>493.7</ele>
        <time>2018-02-25T08:32:35.000Z</time>
      </trkpt>
      <trkpt lat="43.55254" lon="3.00959">
        <ele>494.3</ele>
        <time>2018-02-25T08:32:38.000Z</time>
      </trkpt>
      <trkpt lat="43.55254" lon="3.00963">
        <ele>494.9</ele>
        <time>2018-02-25T08:32:41.000Z</time>
      </trkpt>
      <trkpt lat="43.55252" lon="3.00966">
        <ele>495.4</ele>
        <time>2018-02-25T08:32:43.000Z</time>
      </trkpt>
      <trkpt lat="43.5525" lon="3.0097">
        <ele>495.8</ele>
        <time>2018-02-25T08:32:48.000Z</time>
      </trkpt>
      <trkpt lat="43.55249" lon="3.00974">
        <ele>496.2</ele>
        <time>2018-02-25T08:32:52.000Z</time>
      </trkpt>
      <trkpt lat="43.55248" lon="3.00979">
        <ele>496.6</ele>
        <time>2018-02-25T08:32:58.000Z</time>
      </trkpt>
      <trkpt lat="43.55246" lon="3.00986">
        <ele>496.7</ele>
        <time>2018-02-25T08:33:08.000Z</time>
      </trkpt>
      <trkpt lat="43.55244" lon="3.00991">
        <ele>496.4</ele>
        <time>2018-02-25T08:33:09.000Z</time>
      </trkpt>
      <trkpt lat="43.55242" lon="3.00994">
        <ele>496.2</ele>
        <time>2018-02-25T08:33:10.000Z</time>
      </trkpt>
      <trkpt lat="43.55239" lon="3.01">
        <ele>495.9</ele>
        <time>2018-02-25T08:33:12.000Z</time>
      </trkpt>
      <trkpt lat="43.55237" lon="3.01005">
        <ele>495.8</ele>
        <time>2018-02-25T08:33:14.000Z</time>
      </trkpt>
      <trkpt lat="43.55235" lon="3.0101">
        <ele>495.8</ele>
        <time>2018-02-25T08:33:16.000Z</time>
      </trkpt>
      <trkpt lat="43.55232" lon="3.01013">
        <ele>496</ele>
        <time>2018-02-25T08:33:18.000Z</time>
      </trkpt>
      <trkpt lat="43.55229" lon="3.01016">
        <ele>496.1</ele>
        <time>2018-02-25T08:33:20.000Z</time>
      </trkpt>
      <trkpt lat="43.55226" lon="3.0102">
        <ele>496.3</ele>
        <time>2018-02-25T08:33:22.000Z</time>
      </trkpt>
      <trkpt lat="43.55224" lon="3.01024">
        <ele>496.5</ele>
        <time>2018-02-25T08:33:25.000Z</time>
      </trkpt>
      <trkpt lat="43.55221" lon="3.01027">
        <ele>496.7</ele>
        <time>2018-02-25T08:33:27.000Z</time>
      </trkpt>
      <trkpt lat="43.55219" lon="3.0103">
        <ele>496.9</ele>
        <time>2018-02-25T08:33:29.000Z</time>
      </trkpt>
      <trkpt lat="43.55217" lon="3.01033">
        <ele>497.1</ele>
        <time>2018-02-25T08:33:31.000Z</time>
      </trkpt>
      <trkpt lat="43.55215" lon="3.01037">
        <ele>497.2</ele>
        <time>2018-02-25T08:33:33.000Z</time>
      </trkpt>
      <trkpt lat="43.55213" lon="3.01041">
        <ele>497.3</ele>
        <time>2018-02-25T08:33:35.000Z</time>
      </trkpt>
      <trkpt lat="43.5521" lon="3.01044">
        <ele>497.3</ele>
        <time>2018-02-25T08:33:38.000Z</time>
      </trkpt>
      <trkpt lat="43.55208" lon="3.01047">
        <ele>497.4</ele>
        <time>2018-02-25T08:33:40.000Z</time>
      </trkpt>
      <trkpt lat="43.55205" lon="3.0105">
        <ele>497.5</ele>
        <time>2018-02-25T08:33:42.000Z</time>
      </trkpt>
      <trkpt lat="43.55203" lon="3.01053">
        <ele>497.5</ele>
        <time>2018-02-25T08:33:44.000Z</time>
      </trkpt>
      <trkpt lat="43.55201" lon="3.01057">
        <ele>497.7</ele>
        <time>2018-02-25T08:33:46.000Z</time>
      </trkpt>
      <trkpt lat="43.55198" lon="3.0106">
        <ele>498</ele>
        <time>2018-02-25T08:33:49.000Z</time>
      </trkpt>
      <trkpt lat="43.55195" lon="3.01064">
        <ele>498.3</ele>
        <time>2018-02-25T08:33:52.000Z</time>
      </trkpt>
      <trkpt lat="43.55193" lon="3.01068">
        <ele>498.5</ele>
        <time>2018-02-25T08:33:54.000Z</time>
      </trkpt>
      <trkpt lat="43.55191" lon="3.01071">
        <ele>498.6</ele>
        <time>2018-02-25T08:33:56.000Z</time>
      </trkpt>
      <trkpt lat="43.55189" lon="3.01076">
        <ele>498.7</ele>
        <time>2018-02-25T08:33:58.000Z</time>
      </trkpt>
      <trkpt lat="43.55187" lon="3.0108">
        <ele>498.8</ele>
        <time>2018-02-25T08:34:00.000Z</time>
      </trkpt>
      <trkpt lat="43.55184" lon="3.01083">
        <ele>498.9</ele>
        <time>2018-02-25T08:34:02.000Z</time>
      </trkpt>
      <trkpt lat="43.55181" lon="3.01087">
        <ele>499</ele>
        <time>2018-02-25T08:34:05.000Z</time>
      </trkpt>
      <trkpt lat="43.55179" lon="3.01091">
        <ele>499.2</ele>
        <time>2018-02-25T08:34:07.000Z</time>
      </trkpt>
      <trkpt lat="43.55176" lon="3.01094">
        <ele>499.4</ele>
        <time>2018-02-25T08:34:09.000Z</time>
      </trkpt>
      <trkpt lat="43.55174" lon="3.01098">
        <ele>499.6</ele>
        <time>2018-02-25T08:34:11.000Z</time>
      </trkpt>
      <trkpt lat="43.55171" lon="3.01102">
        <ele>499.7</ele>
        <time>2018-02-25T08:34:13.000Z</time>
      </trkpt>
      <trkpt lat="43.55168" lon="3.01106">
        <ele>499.8</ele>
        <time>2018-02-25T08:34:15.000Z</time>
      </trkpt>
      <trkpt lat="43.55166" lon="3.01109">
        <ele>499.8</ele>
        <time>2018-02-25T08:34:17.000Z</time>
      </trkpt>
      <trkpt lat="43.55164" lon="3.01113">
        <ele>499.9</ele>
        <time>2018-02-25T08:34:19.000Z</time>
      </trkpt>
      <trkpt lat="43.55161" lon="3.01117">
        <ele>499.9</ele>
        <time>2018-02-25T08:34:21.000Z</time>
      </trkpt>
      <trkpt lat="43.55159" lon="3.0112">
        <ele>500</ele>
        <time>2018-02-25T08:34:22.000Z</time>
      </trkpt>
      <trkpt lat="43.55158" lon="3.01123">
        <ele>500.1</ele>
        <time>2018-02-25T08:34:23.000Z</time>
      </trkpt>
      <trkpt lat="43.55155" lon="3.01127">
        <ele>500.2</ele>
        <time>2018-02-25T08:34:25.000Z</time>
      </trkpt>
      <trkpt lat="43.55152" lon="3.01131">
        <ele>500.4</ele>
        <time>2018-02-25T08:34:27.000Z</time>
      </trkpt>
      <trkpt lat="43.5515" lon="3.01136">
        <ele>500.6</ele>
        <time>2018-02-25T08:34:29.000Z</time>
      </trkpt>
      <trkpt lat="43.55147" lon="3.0114">
        <ele>500.7</ele>
        <time>2018-02-25T08:34:31.000Z</time>
      </trkpt>
      <trkpt lat="43.55144" lon="3.01142">
        <ele>500.8</ele>
        <time>2018-02-25T08:34:33.000Z</time>
      </trkpt>
      <trkpt lat="43.5514" lon="3.01145">
        <ele>500.9</ele>
        <time>2018-02-25T08:34:35.000Z</time>
      </trkpt>
      <trkpt lat="43.55137" lon="3.01148">
        <ele>500.9</ele>
        <time>2018-02-25T08:34:37.000Z</time>
      </trkpt>
      <trkpt lat="43.55133" lon="3.0115">
        <ele>501</ele>
        <time>2018-02-25T08:34:40.000Z</time>
      </trkpt>
      <trkpt lat="43.55128" lon="3.01152">
        <ele>501.1</ele>
        <time>2018-02-25T08:34:42.000Z</time>
      </trkpt>
      <trkpt lat="43.55124" lon="3.01153">
        <ele>501.4</ele>
        <time>2018-02-25T08:34:44.000Z</time>
      </trkpt>
      <trkpt lat="43.5512" lon="3.01152">
        <ele>501.6</ele>
        <time>2018-02-25T08:34:46.000Z</time>
      </trkpt>
      <trkpt lat="43.55116" lon="3.01152">
        <ele>501.7</ele>
        <time>2018-02-25T08:34:48.000Z</time>
      </trkpt>
      <trkpt lat="43.55113" lon="3.01153">
        <ele>501.7</ele>
        <time>2018-02-25T08:34:50.000Z</time>
      </trkpt>
      <trkpt lat="43.5511" lon="3.01154">
        <ele>501.8</ele>
        <time>2018-02-25T08:34:52.000Z</time>
      </trkpt>
      <trkpt lat="43.55106" lon="3.01156">
        <ele>501.8</ele>
        <time>2018-02-25T08:34:54.000Z</time>
      </trkpt>
      <trkpt lat="43.55103" lon="3.01158">
        <ele>501.9</ele>
        <time>2018-02-25T08:34:56.000Z</time>
      </trkpt>
      <trkpt lat="43.55099" lon="3.01161">
        <ele>501.9</ele>
        <time>2018-02-25T08:34:58.000Z</time>
      </trkpt>
      <trkpt lat="43.55096" lon="3.01165">
        <ele>501.9</ele>
        <time>2018-02-25T08:35:00.000Z</time>
      </trkpt>
      <trkpt lat="43.55093" lon="3.01169">
        <ele>502</ele>
        <time>2018-02-25T08:35:02.000Z</time>
      </trkpt>
      <trkpt lat="43.55091" lon="3.01174">
        <ele>502.2</ele>
        <time>2018-02-25T08:35:04.000Z</time>
      </trkpt>
      <trkpt lat="43.55088" lon="3.01177">
        <ele>502.4</ele>
        <time>2018-02-25T08:35:06.000Z</time>
      </trkpt>
      <trkpt lat="43.55085" lon="3.0118">
        <ele>502.6</ele>
        <time>2018-02-25T08:35:08.000Z</time>
      </trkpt>
      <trkpt lat="43.55082" lon="3.01183">
        <ele>502.8</ele>
        <time>2018-02-25T08:35:11.000Z</time>
      </trkpt>
      <trkpt lat="43.5508" lon="3.01186">
        <ele>502.8</ele>
        <time>2018-02-25T08:35:14.000Z</time>
      </trkpt>
      <trkpt lat="43.55076" lon="3.01188">
        <ele>502.9</ele>
        <time>2018-02-25T08:35:19.000Z</time>
      </trkpt>
      <trkpt lat="43.55076" lon="3.01183">
        <ele>503</ele>
        <time>2018-02-25T08:35:23.000Z</time>
      </trkpt>
      <trkpt lat="43.55078" lon="3.01179">
        <ele>503</ele>
        <time>2018-02-25T08:35:25.000Z</time>
      </trkpt>
      <trkpt lat="43.5508" lon="3.01176">
        <ele>502.8</ele>
        <time>2018-02-25T08:35:27.000Z</time>
      </trkpt>
      <trkpt lat="43.55083" lon="3.01176">
        <ele>502.7</ele>
        <time>2018-02-25T08:35:31.000Z</time>
      </trkpt>
      <trkpt lat="43.55083" lon="3.0118">
        <ele>502.5</ele>
        <time>2018-02-25T08:35:33.000Z</time>
      </trkpt>
      <trkpt lat="43.5508" lon="3.01183">
        <ele>502.3</ele>
        <time>2018-02-25T08:35:35.000Z</time>
      </trkpt>
      <trkpt lat="43.55077" lon="3.01186">
        <ele>502.1</ele>
        <time>2018-02-25T08:35:37.000Z</time>
      </trkpt>
      <trkpt lat="43.55074" lon="3.01188">
        <ele>501.9</ele>
        <time>2018-02-25T08:35:39.000Z</time>
      </trkpt>
      <trkpt lat="43.5507" lon="3.0119">
        <ele>501.7</ele>
        <time>2018-02-25T08:35:41.000Z</time>
      </trkpt>
      <trkpt lat="43.55068" lon="3.01194">
        <ele>501.5</ele>
        <time>2018-02-25T08:35:43.000Z</time>
      </trkpt>
      <trkpt lat="43.55066" lon="3.01197">
        <ele>501.4</ele>
        <time>2018-02-25T08:35:46.000Z</time>
      </trkpt>
      <trkpt lat="43.55063" lon="3.01201">
        <ele>501.2</ele>
        <time>2018-02-25T08:35:48.000Z</time>
      </trkpt>
      <trkpt lat="43.55062" lon="3.01205">
        <ele>501</ele>
        <time>2018-02-25T08:35:50.000Z</time>
      </trkpt>
      <trkpt lat="43.5506" lon="3.01209">
        <ele>500.9</ele>
        <time>2018-02-25T08:35:52.000Z</time>
      </trkpt>
      <trkpt lat="43.55057" lon="3.01212">
        <ele>500.7</ele>
        <time>2018-02-25T08:35:54.000Z</time>
      </trkpt>
      <trkpt lat="43.55055" lon="3.01215">
        <ele>500.6</ele>
        <time>2018-02-25T08:35:56.000Z</time>
      </trkpt>
      <trkpt lat="43.55052" lon="3.01219">
        <ele>500.4</ele>
        <time>2018-02-25T08:35:58.000Z</time>
      </trkpt>
      <trkpt lat="43.5505" lon="3.01223">
        <ele>500.2</ele>
        <time>2018-02-25T08:36:00.000Z</time>
      </trkpt>
      <trkpt lat="43.55047" lon="3.01229">
        <ele>499.9</ele>
        <time>2018-02-25T08:36:02.000Z</time>
      </trkpt>
      <trkpt lat="43.55044" lon="3.01235">
        <ele>499.7</ele>
        <time>2018-02-25T08:36:04.000Z</time>
      </trkpt>
      <trkpt lat="43.55041" lon="3.0124">
        <ele>499.5</ele>
        <time>2018-02-25T08:36:06.000Z</time>
      </trkpt>
      <trkpt lat="43.5504" lon="3.01244">
        <ele>499.3</ele>
        <time>2018-02-25T08:36:08.000Z</time>
      </trkpt>
      <trkpt lat="43.55038" lon="3.01247">
        <ele>499.2</ele>
        <time>2018-02-25T08:36:11.000Z</time>
      </trkpt>
      <trkpt lat="43.55036" lon="3.0125">
        <ele>499.1</ele>
        <time>2018-02-25T08:36:13.000Z</time>
      </trkpt>
      <trkpt lat="43.55033" lon="3.01257">
        <ele>498.8</ele>
        <time>2018-02-25T08:36:15.000Z</time>
      </trkpt>
      <trkpt lat="43.55031" lon="3.01261">
        <ele>498.7</ele>
        <time>2018-02-25T08:36:17.000Z</time>
      </trkpt>
      <trkpt lat="43.55029" lon="3.01266">
        <ele>498.5</ele>
        <time>2018-02-25T08:36:19.000Z</time>
      </trkpt>
      <trkpt lat="43.55028" lon="3.0127">
        <ele>498.4</ele>
        <time>2018-02-25T08:36:20.000Z</time>
      </trkpt>
      <trkpt lat="43.55027" lon="3.01273">
        <ele>498.3</ele>
        <time>2018-02-25T08:36:21.000Z</time>
      </trkpt>
      <trkpt lat="43.55026" lon="3.01277">
        <ele>498.2</ele>
        <time>2018-02-25T08:36:22.000Z</time>
      </trkpt>
      <trkpt lat="43.55025" lon="3.01283">
        <ele>498</ele>
        <time>2018-02-25T08:36:24.000Z</time>
      </trkpt>
      <trkpt lat="43.55023" lon="3.01289">
        <ele>497.8</ele>
        <time>2018-02-25T08:36:26.000Z</time>
      </trkpt>
      <trkpt lat="43.55022" lon="3.01295">
        <ele>497.7</ele>
        <time>2018-02-25T08:36:28.000Z</time>
      </trkpt>
      <trkpt lat="43.5502" lon="3.01301">
        <ele>497.5</ele>
        <time>2018-02-25T08:36:30.000Z</time>
      </trkpt>
      <trkpt lat="43.55018" lon="3.01308">
        <ele>497.2</ele>
        <time>2018-02-25T08:36:32.000Z</time>
      </trkpt>
      <trkpt lat="43.55017" lon="3.01315">
        <ele>496.8</ele>
        <time>2018-02-25T08:36:34.000Z</time>
      </trkpt>
      <trkpt lat="43.55014" lon="3.01321">
        <ele>496.3</ele>
        <time>2018-02-25T08:36:36.000Z</time>
      </trkpt>
      <trkpt lat="43.55012" lon="3.01325">
        <ele>496</ele>
        <time>2018-02-25T08:36:38.000Z</time>
      </trkpt>
      <trkpt lat="43.55011" lon="3.01333">
        <ele>495.5</ele>
        <time>2018-02-25T08:36:40.000Z</time>
      </trkpt>
      <trkpt lat="43.55009" lon="3.01339">
        <ele>495</ele>
        <time>2018-02-25T08:36:42.000Z</time>
      </trkpt>
      <trkpt lat="43.55008" lon="3.01343">
        <ele>494.8</ele>
        <time>2018-02-25T08:36:44.000Z</time>
      </trkpt>
      <trkpt lat="43.55008" lon="3.01348">
        <ele>494.6</ele>
        <time>2018-02-25T08:36:46.000Z</time>
      </trkpt>
      <trkpt lat="43.55006" lon="3.01353">
        <ele>494.4</ele>
        <time>2018-02-25T08:36:48.000Z</time>
      </trkpt>
      <trkpt lat="43.55005" lon="3.01358">
        <ele>494.2</ele>
        <time>2018-02-25T08:36:50.000Z</time>
      </trkpt>
      <trkpt lat="43.55003" lon="3.01364">
        <ele>494</ele>
        <time>2018-02-25T08:36:52.000Z</time>
      </trkpt>
      <trkpt lat="43.55002" lon="3.01367">
        <ele>493.9</ele>
        <time>2018-02-25T08:36:53.000Z</time>
      </trkpt>
      <trkpt lat="43.55001" lon="3.01371">
        <ele>493.8</ele>
        <time>2018-02-25T08:36:54.000Z</time>
      </trkpt>
      <trkpt lat="43.55" lon="3.01378">
        <ele>493.6</ele>
        <time>2018-02-25T08:36:56.000Z</time>
      </trkpt>
      <trkpt lat="43.54999" lon="3.01383">
        <ele>493.4</ele>
        <time>2018-02-25T08:36:58.000Z</time>
      </trkpt>
      <trkpt lat="43.54999" lon="3.01387">
        <ele>493.2</ele>
        <time>2018-02-25T08:37:00.000Z</time>
      </trkpt>
      <trkpt lat="43.54999" lon="3.01392">
        <ele>493.1</ele>
        <time>2018-02-25T08:37:03.000Z</time>
      </trkpt>
      <trkpt lat="43.54997" lon="3.01398">
        <ele>492.9</ele>
        <time>2018-02-25T08:37:05.000Z</time>
      </trkpt>
      <trkpt lat="43.54996" lon="3.01403">
        <ele>492.4</ele>
        <time>2018-02-25T08:37:07.000Z</time>
      </trkpt>
      <trkpt lat="43.54995" lon="3.01408">
        <ele>492</ele>
        <time>2018-02-25T08:37:09.000Z</time>
      </trkpt>
      <trkpt lat="43.54995" lon="3.01413">
        <ele>491.5</ele>
        <time>2018-02-25T08:37:11.000Z</time>
      </trkpt>
      <trkpt lat="43.54994" lon="3.01419">
        <ele>491.1</ele>
        <time>2018-02-25T08:37:13.000Z</time>
      </trkpt>
      <trkpt lat="43.54993" lon="3.01423">
        <ele>490.8</ele>
        <time>2018-02-25T08:37:15.000Z</time>
      </trkpt>
      <trkpt lat="43.54991" lon="3.01426">
        <ele>490.6</ele>
        <time>2018-02-25T08:37:17.000Z</time>
      </trkpt>
      <trkpt lat="43.54988" lon="3.01423">
        <ele>490.1</ele>
        <time>2018-02-25T08:37:20.000Z</time>
      </trkpt>
      <trkpt lat="43.54986" lon="3.01419">
        <ele>490.2</ele>
        <time>2018-02-25T08:37:26.000Z</time>
      </trkpt>
      <trkpt lat="43.54986" lon="3.01415">
        <ele>490.2</ele>
        <time>2018-02-25T08:37:28.000Z</time>
      </trkpt>
      <trkpt lat="43.54986" lon="3.0141">
        <ele>490.3</ele>
        <time>2018-02-25T08:37:30.000Z</time>
      </trkpt>
      <trkpt lat="43.54986" lon="3.01405">
        <ele>490.3</ele>
        <time>2018-02-25T08:37:32.000Z</time>
      </trkpt>
      <trkpt lat="43.54986" lon="3.01401">
        <ele>490.4</ele>
        <time>2018-02-25T08:37:34.000Z</time>
      </trkpt>
      <trkpt lat="43.54986" lon="3.01396">
        <ele>490.4</ele>
        <time>2018-02-25T08:37:36.000Z</time>
      </trkpt>
      <trkpt lat="43.54986" lon="3.01391">
        <ele>490.4</ele>
        <time>2018-02-25T08:37:38.000Z</time>
      </trkpt>
      <trkpt lat="43.54985" lon="3.01385">
        <ele>490.5</ele>
        <time>2018-02-25T08:37:40.000Z</time>
      </trkpt>
      <trkpt lat="43.54985" lon="3.0138">
        <ele>490.5</ele>
        <time>2018-02-25T08:37:42.000Z</time>
      </trkpt>
      <trkpt lat="43.54983" lon="3.01375">
        <ele>490.6</ele>
        <time>2018-02-25T08:37:44.000Z</time>
      </trkpt>
      <trkpt lat="43.54983" lon="3.01371">
        <ele>490.6</ele>
        <time>2018-02-25T08:37:46.000Z</time>
      </trkpt>
      <trkpt lat="43.54984" lon="3.01366">
        <ele>490.7</ele>
        <time>2018-02-25T08:37:48.000Z</time>
      </trkpt>
      <trkpt lat="43.54985" lon="3.01362">
        <ele>490.7</ele>
        <time>2018-02-25T08:37:50.000Z</time>
      </trkpt>
      <trkpt lat="43.54985" lon="3.01357">
        <ele>490.8</ele>
        <time>2018-02-25T08:37:52.000Z</time>
      </trkpt>
      <trkpt lat="43.54985" lon="3.01351">
        <ele>490.9</ele>
        <time>2018-02-25T08:37:54.000Z</time>
      </trkpt>
      <trkpt lat="43.54985" lon="3.01346">
        <ele>490.9</ele>
        <time>2018-02-25T08:37:56.000Z</time>
      </trkpt>
      <trkpt lat="43.54986" lon="3.01341">
        <ele>491</ele>
        <time>2018-02-25T08:37:58.000Z</time>
      </trkpt>
      <trkpt lat="43.54987" lon="3.01336">
        <ele>491.1</ele>
        <time>2018-02-25T08:38:00.000Z</time>
      </trkpt>
      <trkpt lat="43.54988" lon="3.01331">
        <ele>491.3</ele>
        <time>2018-02-25T08:38:02.000Z</time>
      </trkpt>
      <trkpt lat="43.54988" lon="3.01325">
        <ele>491.6</ele>
        <time>2018-02-25T08:38:04.000Z</time>
      </trkpt>
      <trkpt lat="43.54989" lon="3.01321">
        <ele>491.9</ele>
        <time>2018-02-25T08:38:06.000Z</time>
      </trkpt>
      <trkpt lat="43.54991" lon="3.01317">
        <ele>492.4</ele>
        <time>2018-02-25T08:38:08.000Z</time>
      </trkpt>
      <trkpt lat="43.54991" lon="3.01313">
        <ele>492.8</ele>
        <time>2018-02-25T08:38:10.000Z</time>
      </trkpt>
      <trkpt lat="43.54991" lon="3.01308">
        <ele>493.1</ele>
        <time>2018-02-25T08:38:12.000Z</time>
      </trkpt>
      <trkpt lat="43.54992" lon="3.01304">
        <ele>493.3</ele>
        <time>2018-02-25T08:38:14.000Z</time>
      </trkpt>
      <trkpt lat="43.54991" lon="3.013">
        <ele>493.5</ele>
        <time>2018-02-25T08:38:16.000Z</time>
      </trkpt>
      <trkpt lat="43.54991" lon="3.01296">
        <ele>493.6</ele>
        <time>2018-02-25T08:38:18.000Z</time>
      </trkpt>
      <trkpt lat="43.5499" lon="3.0129">
        <ele>493.8</ele>
        <time>2018-02-25T08:38:20.000Z</time>
      </trkpt>
      <trkpt lat="43.5499" lon="3.01286">
        <ele>493.9</ele>
        <time>2018-02-25T08:38:22.000Z</time>
      </trkpt>
      <trkpt lat="43.54992" lon="3.01282">
        <ele>494</ele>
        <time>2018-02-25T08:38:24.000Z</time>
      </trkpt>
      <trkpt lat="43.54994" lon="3.01277">
        <ele>494.1</ele>
        <time>2018-02-25T08:38:26.000Z</time>
      </trkpt>
      <trkpt lat="43.54996" lon="3.01272">
        <ele>494.2</ele>
        <time>2018-02-25T08:38:28.000Z</time>
      </trkpt>
      <trkpt lat="43.54997" lon="3.01267">
        <ele>494.4</ele>
        <time>2018-02-25T08:38:30.000Z</time>
      </trkpt>
      <trkpt lat="43.54997" lon="3.01263">
        <ele>494.6</ele>
        <time>2018-02-25T08:38:32.000Z</time>
      </trkpt>
      <trkpt lat="43.54998" lon="3.01259">
        <ele>494.9</ele>
        <time>2018-02-25T08:38:34.000Z</time>
      </trkpt>
      <trkpt lat="43.55" lon="3.01254">
        <ele>495.4</ele>
        <time>2018-02-25T08:38:36.000Z</time>
      </trkpt>
      <trkpt lat="43.55001" lon="3.0125">
        <ele>495.9</ele>
        <time>2018-02-25T08:38:38.000Z</time>
      </trkpt>
      <trkpt lat="43.55002" lon="3.01247">
        <ele>496.4</ele>
        <time>2018-02-25T08:38:40.000Z</time>
      </trkpt>
      <trkpt lat="43.55004" lon="3.01242">
        <ele>497.2</ele>
        <time>2018-02-25T08:38:42.000Z</time>
      </trkpt>
      <trkpt lat="43.55005" lon="3.01238">
        <ele>497.8</ele>
        <time>2018-02-25T08:38:44.000Z</time>
      </trkpt>
      <trkpt lat="43.55006" lon="3.01234">
        <ele>498.4</ele>
        <time>2018-02-25T08:38:46.000Z</time>
      </trkpt>
      <trkpt lat="43.55008" lon="3.0123">
        <ele>499</ele>
        <time>2018-02-25T08:38:48.000Z</time>
      </trkpt>
      <trkpt lat="43.55008" lon="3.01224">
        <ele>499.4</ele>
        <time>2018-02-25T08:38:50.000Z</time>
      </trkpt>
      <trkpt lat="43.55007" lon="3.01219">
        <ele>499.7</ele>
        <time>2018-02-25T08:38:52.000Z</time>
      </trkpt>
      <trkpt lat="43.55008" lon="3.01215">
        <ele>500.1</ele>
        <time>2018-02-25T08:38:54.000Z</time>
      </trkpt>
      <trkpt lat="43.5501" lon="3.01212">
        <ele>500.4</ele>
        <time>2018-02-25T08:38:56.000Z</time>
      </trkpt>
      <trkpt lat="43.55012" lon="3.01209">
        <ele>500.6</ele>
        <time>2018-02-25T08:38:58.000Z</time>
      </trkpt>
      <trkpt lat="43.55013" lon="3.01205">
        <ele>501.2</ele>
        <time>2018-02-25T08:39:01.000Z</time>
      </trkpt>
      <trkpt lat="43.55014" lon="3.01199">
        <ele>502</ele>
        <time>2018-02-25T08:39:04.000Z</time>
      </trkpt>
      <trkpt lat="43.55015" lon="3.01196">
        <ele>502.5</ele>
        <time>2018-02-25T08:39:06.000Z</time>
      </trkpt>
      <trkpt lat="43.55016" lon="3.01192">
        <ele>503</ele>
        <time>2018-02-25T08:39:08.000Z</time>
      </trkpt>
      <trkpt lat="43.55018" lon="3.01188">
        <ele>503.7</ele>
        <time>2018-02-25T08:39:11.000Z</time>
      </trkpt>
      <trkpt lat="43.5502" lon="3.01185">
        <ele>504.4</ele>
        <time>2018-02-25T08:39:13.000Z</time>
      </trkpt>
      <trkpt lat="43.55023" lon="3.01182">
        <ele>505</ele>
        <time>2018-02-25T08:39:16.000Z</time>
      </trkpt>
      <trkpt lat="43.55025" lon="3.01178">
        <ele>505.3</ele>
        <time>2018-02-25T08:39:18.000Z</time>
      </trkpt>
      <trkpt lat="43.55025" lon="3.01175">
        <ele>505.6</ele>
        <time>2018-02-25T08:39:21.000Z</time>
      </trkpt>
      <trkpt lat="43.55022" lon="3.01172">
        <ele>506.1</ele>
        <time>2018-02-25T08:39:24.000Z</time>
      </trkpt>
      <trkpt lat="43.55019" lon="3.0117">
        <ele>506.5</ele>
        <time>2018-02-25T08:39:26.000Z</time>
      </trkpt>
      <trkpt lat="43.55015" lon="3.01171">
        <ele>507.5</ele>
        <time>2018-02-25T08:39:29.000Z</time>
      </trkpt>
      <trkpt lat="43.55012" lon="3.01172">
        <ele>508.2</ele>
        <time>2018-02-25T08:39:31.000Z</time>
      </trkpt>
      <trkpt lat="43.55009" lon="3.01173">
        <ele>508.8</ele>
        <time>2018-02-25T08:39:33.000Z</time>
      </trkpt>
      <trkpt lat="43.55006" lon="3.01174">
        <ele>509.7</ele>
        <time>2018-02-25T08:39:38.000Z</time>
      </trkpt>
      <trkpt lat="43.55003" lon="3.01175">
        <ele>510.7</ele>
        <time>2018-02-25T08:39:41.000Z</time>
      </trkpt>
      <trkpt lat="43.55" lon="3.01177">
        <ele>511.6</ele>
        <time>2018-02-25T08:39:44.000Z</time>
      </trkpt>
      <trkpt lat="43.54998" lon="3.01179">
        <ele>513.3</ele>
        <time>2018-02-25T08:39:47.000Z</time>
      </trkpt>
      <trkpt lat="43.54995" lon="3.01182">
        <ele>514</ele>
        <time>2018-02-25T08:39:51.000Z</time>
      </trkpt>
      <trkpt lat="43.54992" lon="3.01183">
        <ele>514.4</ele>
        <time>2018-02-25T08:39:53.000Z</time>
      </trkpt>
      <trkpt lat="43.54989" lon="3.01183">
        <ele>514.8</ele>
        <time>2018-02-25T08:39:55.000Z</time>
      </trkpt>
      <trkpt lat="43.54986" lon="3.01183">
        <ele>515.6</ele>
        <time>2018-02-25T08:39:57.000Z</time>
      </trkpt>
      <trkpt lat="43.54983" lon="3.01184">
        <ele>516.5</ele>
        <time>2018-02-25T08:39:59.000Z</time>
      </trkpt>
      <trkpt lat="43.5498" lon="3.01185">
        <ele>517</ele>
        <time>2018-02-25T08:40:01.000Z</time>
      </trkpt>
      <trkpt lat="43.54978" lon="3.01186">
        <ele>517.5</ele>
        <time>2018-02-25T08:40:03.000Z</time>
      </trkpt>
      <trkpt lat="43.54975" lon="3.01186">
        <ele>518.2</ele>
        <time>2018-02-25T08:40:06.000Z</time>
      </trkpt>
      <trkpt lat="43.54972" lon="3.01187">
        <ele>519.3</ele>
        <time>2018-02-25T08:40:09.000Z</time>
      </trkpt>
      <trkpt lat="43.54968" lon="3.01188">
        <ele>519.8</ele>
        <time>2018-02-25T08:40:12.000Z</time>
      </trkpt>
      <trkpt lat="43.54965" lon="3.01192">
        <ele>520.3</ele>
        <time>2018-02-25T08:40:15.000Z</time>
      </trkpt>
      <trkpt lat="43.54963" lon="3.01194">
        <ele>521</ele>
        <time>2018-02-25T08:40:18.000Z</time>
      </trkpt>
      <trkpt lat="43.5496" lon="3.01197">
        <ele>521.9</ele>
        <time>2018-02-25T08:40:21.000Z</time>
      </trkpt>
      <trkpt lat="43.54958" lon="3.01199">
        <ele>522.4</ele>
        <time>2018-02-25T08:40:24.000Z</time>
      </trkpt>
      <trkpt lat="43.54956" lon="3.01201">
        <ele>522.8</ele>
        <time>2018-02-25T08:40:27.000Z</time>
      </trkpt>
      <trkpt lat="43.54953" lon="3.01203">
        <ele>523.1</ele>
        <time>2018-02-25T08:40:30.000Z</time>
      </trkpt>
      <trkpt lat="43.5495" lon="3.01203">
        <ele>523.4</ele>
        <time>2018-02-25T08:40:33.000Z</time>
      </trkpt>
      <trkpt lat="43.54947" lon="3.01205">
        <ele>524.4</ele>
        <time>2018-02-25T08:40:35.000Z</time>
      </trkpt>
      <trkpt lat="43.54943" lon="3.01208">
        <ele>525.5</ele>
        <time>2018-02-25T08:40:37.000Z</time>
      </trkpt>
      <trkpt lat="43.5494" lon="3.0121">
        <ele>526.2</ele>
        <time>2018-02-25T08:40:39.000Z</time>
      </trkpt>
      <trkpt lat="43.54937" lon="3.0121">
        <ele>527.2</ele>
        <time>2018-02-25T08:40:41.000Z</time>
      </trkpt>
      <trkpt lat="43.54934" lon="3.0121">
        <ele>528</ele>
        <time>2018-02-25T08:40:44.000Z</time>
      </trkpt>
      <trkpt lat="43.54931" lon="3.01212">
        <ele>528.1</ele>
        <time>2018-02-25T08:40:47.000Z</time>
      </trkpt>
      <trkpt lat="43.54929" lon="3.01213">
        <ele>528.2</ele>
        <time>2018-02-25T08:40:51.000Z</time>
      </trkpt>
      <trkpt lat="43.54926" lon="3.01214">
        <ele>528.3</ele>
        <time>2018-02-25T08:40:54.000Z</time>
      </trkpt>
      <trkpt lat="43.54922" lon="3.01217">
        <ele>528.4</ele>
        <time>2018-02-25T08:40:58.000Z</time>
      </trkpt>
      <trkpt lat="43.54919" lon="3.01218">
        <ele>528.7</ele>
        <time>2018-02-25T08:41:02.000Z</time>
      </trkpt>
      <trkpt lat="43.54916" lon="3.01219">
        <ele>529.1</ele>
        <time>2018-02-25T08:41:05.000Z</time>
      </trkpt>
      <trkpt lat="43.54913" lon="3.01221">
        <ele>529.9</ele>
        <time>2018-02-25T08:41:09.000Z</time>
      </trkpt>
      <trkpt lat="43.54909" lon="3.01223">
        <ele>530.6</ele>
        <time>2018-02-25T08:41:12.000Z</time>
      </trkpt>
      <trkpt lat="43.54906" lon="3.01225">
        <ele>531.3</ele>
        <time>2018-02-25T08:41:15.000Z</time>
      </trkpt>
      <trkpt lat="43.54903" lon="3.01225">
        <ele>532.1</ele>
        <time>2018-02-25T08:41:17.000Z</time>
      </trkpt>
      <trkpt lat="43.54899" lon="3.01225">
        <ele>532.5</ele>
        <time>2018-02-25T08:41:19.000Z</time>
      </trkpt>
      <trkpt lat="43.54895" lon="3.01225">
        <ele>533</ele>
        <time>2018-02-25T08:41:21.000Z</time>
      </trkpt>
      <trkpt lat="43.54891" lon="3.01226">
        <ele>533.9</ele>
        <time>2018-02-25T08:41:24.000Z</time>
      </trkpt>
      <trkpt lat="43.54889" lon="3.01227">
        <ele>534.3</ele>
        <time>2018-02-25T08:41:26.000Z</time>
      </trkpt>
      <trkpt lat="43.54885" lon="3.0123">
        <ele>535</ele>
        <time>2018-02-25T08:41:29.000Z</time>
      </trkpt>
      <trkpt lat="43.54882" lon="3.01232">
        <ele>535.7</ele>
        <time>2018-02-25T08:41:31.000Z</time>
      </trkpt>
      <trkpt lat="43.54878" lon="3.01233">
        <ele>536.4</ele>
        <time>2018-02-25T08:41:34.000Z</time>
      </trkpt>
      <trkpt lat="43.54874" lon="3.01233">
        <ele>537</ele>
        <time>2018-02-25T08:41:37.000Z</time>
      </trkpt>
      <trkpt lat="43.54871" lon="3.01232">
        <ele>537.5</ele>
        <time>2018-02-25T08:41:40.000Z</time>
      </trkpt>
      <trkpt lat="43.54868" lon="3.0123">
        <ele>537.8</ele>
        <time>2018-02-25T08:41:43.000Z</time>
      </trkpt>
      <trkpt lat="43.54865" lon="3.01228">
        <ele>538</ele>
        <time>2018-02-25T08:41:46.000Z</time>
      </trkpt>
      <trkpt lat="43.54863" lon="3.01227">
        <ele>538.1</ele>
        <time>2018-02-25T08:41:48.000Z</time>
      </trkpt>
      <trkpt lat="43.5486" lon="3.01225">
        <ele>538.2</ele>
        <time>2018-02-25T08:41:51.000Z</time>
      </trkpt>
      <trkpt lat="43.54856" lon="3.01225">
        <ele>538.3</ele>
        <time>2018-02-25T08:41:54.000Z</time>
      </trkpt>
      <trkpt lat="43.54854" lon="3.01225">
        <ele>538.5</ele>
        <time>2018-02-25T08:41:56.000Z</time>
      </trkpt>
      <trkpt lat="43.54851" lon="3.01225">
        <ele>538.7</ele>
        <time>2018-02-25T08:41:58.000Z</time>
      </trkpt>
      <trkpt lat="43.54846" lon="3.01225">
        <ele>539.3</ele>
        <time>2018-02-25T08:42:01.000Z</time>
      </trkpt>
      <trkpt lat="43.54844" lon="3.01225">
        <ele>539.9</ele>
        <time>2018-02-25T08:42:03.000Z</time>
      </trkpt>
      <trkpt lat="43.5484" lon="3.01223">
        <ele>540.4</ele>
        <time>2018-02-25T08:42:06.000Z</time>
      </trkpt>
      <trkpt lat="43.54837" lon="3.01221">
        <ele>541</ele>
        <time>2018-02-25T08:42:09.000Z</time>
      </trkpt>
      <trkpt lat="43.54834" lon="3.0122">
        <ele>541.8</ele>
        <time>2018-02-25T08:42:12.000Z</time>
      </trkpt>
      <trkpt lat="43.54832" lon="3.01216">
        <ele>542.2</ele>
        <time>2018-02-25T08:42:15.000Z</time>
      </trkpt>
      <trkpt lat="43.54829" lon="3.01215">
        <ele>542.5</ele>
        <time>2018-02-25T08:42:17.000Z</time>
      </trkpt>
      <trkpt lat="43.54825" lon="3.01212">
        <ele>543.4</ele>
        <time>2018-02-25T08:42:20.000Z</time>
      </trkpt>
      <trkpt lat="43.54822" lon="3.0121">
        <ele>544</ele>
        <time>2018-02-25T08:42:23.000Z</time>
      </trkpt>
      <trkpt lat="43.54819" lon="3.01209">
        <ele>544.5</ele>
        <time>2018-02-25T08:42:26.000Z</time>
      </trkpt>
      <trkpt lat="43.54816" lon="3.01208">
        <ele>544.8</ele>
        <time>2018-02-25T08:42:29.000Z</time>
      </trkpt>
      <trkpt lat="43.54812" lon="3.01206">
        <ele>545.2</ele>
        <time>2018-02-25T08:42:32.000Z</time>
      </trkpt>
      <trkpt lat="43.5481" lon="3.01204">
        <ele>545.8</ele>
        <time>2018-02-25T08:42:34.000Z</time>
      </trkpt>
      <trkpt lat="43.54807" lon="3.01201">
        <ele>546.3</ele>
        <time>2018-02-25T08:42:37.000Z</time>
      </trkpt>
      <trkpt lat="43.54805" lon="3.01197">
        <ele>546.6</ele>
        <time>2018-02-25T08:42:39.000Z</time>
      </trkpt>
      <trkpt lat="43.54805" lon="3.01194">
        <ele>546.8</ele>
        <time>2018-02-25T08:42:42.000Z</time>
      </trkpt>
      <trkpt lat="43.54805" lon="3.0119">
        <ele>547.1</ele>
        <time>2018-02-25T08:42:44.000Z</time>
      </trkpt>
      <trkpt lat="43.54808" lon="3.01185">
        <ele>547.7</ele>
        <time>2018-02-25T08:42:46.000Z</time>
      </trkpt>
      <trkpt lat="43.54809" lon="3.01181">
        <ele>548.1</ele>
        <time>2018-02-25T08:42:48.000Z</time>
      </trkpt>
      <trkpt lat="43.54811" lon="3.01178">
        <ele>548.3</ele>
        <time>2018-02-25T08:42:50.000Z</time>
      </trkpt>
      <trkpt lat="43.54814" lon="3.01174">
        <ele>548.7</ele>
        <time>2018-02-25T08:42:52.000Z</time>
      </trkpt>
      <trkpt lat="43.54816" lon="3.01171">
        <ele>549</ele>
        <time>2018-02-25T08:42:55.000Z</time>
      </trkpt>
      <trkpt lat="43.54818" lon="3.01168">
        <ele>549.4</ele>
        <time>2018-02-25T08:42:58.000Z</time>
      </trkpt>
      <trkpt lat="43.54821" lon="3.01165">
        <ele>549.9</ele>
        <time>2018-02-25T08:43:01.000Z</time>
      </trkpt>
      <trkpt lat="43.54822" lon="3.01161">
        <ele>550.2</ele>
        <time>2018-02-25T08:43:04.000Z</time>
      </trkpt>
      <trkpt lat="43.54824" lon="3.01158">
        <ele>550.5</ele>
        <time>2018-02-25T08:43:07.000Z</time>
      </trkpt>
      <trkpt lat="43.54827" lon="3.01156">
        <ele>550.7</ele>
        <time>2018-02-25T08:43:10.000Z</time>
      </trkpt>
      <trkpt lat="43.5483" lon="3.01154">
        <ele>551</ele>
        <time>2018-02-25T08:43:12.000Z</time>
      </trkpt>
      <trkpt lat="43.54833" lon="3.01151">
        <ele>551.4</ele>
        <time>2018-02-25T08:43:15.000Z</time>
      </trkpt>
      <trkpt lat="43.54836" lon="3.01148">
        <ele>552</ele>
        <time>2018-02-25T08:43:18.000Z</time>
      </trkpt>
      <trkpt lat="43.54838" lon="3.01145">
        <ele>552.3</ele>
        <time>2018-02-25T08:43:20.000Z</time>
      </trkpt>
      <trkpt lat="43.5484" lon="3.01143">
        <ele>552.6</ele>
        <time>2018-02-25T08:43:23.000Z</time>
      </trkpt>
      <trkpt lat="43.54842" lon="3.0114">
        <ele>552.8</ele>
        <time>2018-02-25T08:43:26.000Z</time>
      </trkpt>
      <trkpt lat="43.54845" lon="3.0114">
        <ele>553</ele>
        <time>2018-02-25T08:43:28.000Z</time>
      </trkpt>
      <trkpt lat="43.54848" lon="3.01139">
        <ele>553.5</ele>
        <time>2018-02-25T08:43:31.000Z</time>
      </trkpt>
      <trkpt lat="43.5485" lon="3.01136">
        <ele>554.2</ele>
        <time>2018-02-25T08:43:34.000Z</time>
      </trkpt>
      <trkpt lat="43.54853" lon="3.01133">
        <ele>554.6</ele>
        <time>2018-02-25T08:43:37.000Z</time>
      </trkpt>
      <trkpt lat="43.54856" lon="3.01131">
        <ele>555</ele>
        <time>2018-02-25T08:43:40.000Z</time>
      </trkpt>
      <trkpt lat="43.54858" lon="3.01128">
        <ele>555.3</ele>
        <time>2018-02-25T08:43:43.000Z</time>
      </trkpt>
      <trkpt lat="43.54861" lon="3.01126">
        <ele>555.9</ele>
        <time>2018-02-25T08:43:47.000Z</time>
      </trkpt>
      <trkpt lat="43.54864" lon="3.01123">
        <ele>556.4</ele>
        <time>2018-02-25T08:43:50.000Z</time>
      </trkpt>
      <trkpt lat="43.54866" lon="3.0112">
        <ele>556.7</ele>
        <time>2018-02-25T08:43:53.000Z</time>
      </trkpt>
      <trkpt lat="43.54868" lon="3.01116">
        <ele>557.1</ele>
        <time>2018-02-25T08:43:56.000Z</time>
      </trkpt>
      <trkpt lat="43.5487" lon="3.01113">
        <ele>557.7</ele>
        <time>2018-02-25T08:43:58.000Z</time>
      </trkpt>
      <trkpt lat="43.54872" lon="3.0111">
        <ele>558.1</ele>
        <time>2018-02-25T08:44:00.000Z</time>
      </trkpt>
      <trkpt lat="43.54873" lon="3.01106">
        <ele>558.8</ele>
        <time>2018-02-25T08:44:03.000Z</time>
      </trkpt>
      <trkpt lat="43.54876" lon="3.01103">
        <ele>559.1</ele>
        <time>2018-02-25T08:44:06.000Z</time>
      </trkpt>
      <trkpt lat="43.54878" lon="3.01099">
        <ele>559.6</ele>
        <time>2018-02-25T08:44:09.000Z</time>
      </trkpt>
      <trkpt lat="43.5488" lon="3.01096">
        <ele>560.2</ele>
        <time>2018-02-25T08:44:11.000Z</time>
      </trkpt>
      <trkpt lat="43.54881" lon="3.01093">
        <ele>560.8</ele>
        <time>2018-02-25T08:44:13.000Z</time>
      </trkpt>
      <trkpt lat="43.54882" lon="3.01089">
        <ele>561.4</ele>
        <time>2018-02-25T08:44:15.000Z</time>
      </trkpt>
      <trkpt lat="43.54883" lon="3.01084">
        <ele>562.3</ele>
        <time>2018-02-25T08:44:18.000Z</time>
      </trkpt>
      <trkpt lat="43.54885" lon="3.01079">
        <ele>562.6</ele>
        <time>2018-02-25T08:44:21.000Z</time>
      </trkpt>
      <trkpt lat="43.54887" lon="3.01076">
        <ele>562.8</ele>
        <time>2018-02-25T08:44:24.000Z</time>
      </trkpt>
      <trkpt lat="43.54889" lon="3.01074">
        <ele>563.1</ele>
        <time>2018-02-25T08:44:26.000Z</time>
      </trkpt>
      <trkpt lat="43.54892" lon="3.01071">
        <ele>563.8</ele>
        <time>2018-02-25T08:44:28.000Z</time>
      </trkpt>
      <trkpt lat="43.54895" lon="3.01068">
        <ele>564.7</ele>
        <time>2018-02-25T08:44:31.000Z</time>
      </trkpt>
      <trkpt lat="43.54898" lon="3.01066">
        <ele>564.9</ele>
        <time>2018-02-25T08:44:33.000Z</time>
      </trkpt>
      <trkpt lat="43.54901" lon="3.01063">
        <ele>565.3</ele>
        <time>2018-02-25T08:44:36.000Z</time>
      </trkpt>
      <trkpt lat="43.54899" lon="3.01059">
        <ele>565.9</ele>
        <time>2018-02-25T08:44:42.000Z</time>
      </trkpt>
      <trkpt lat="43.54896" lon="3.01057">
        <ele>566.5</ele>
        <time>2018-02-25T08:44:45.000Z</time>
      </trkpt>
      <trkpt lat="43.54892" lon="3.01057">
        <ele>566.9</ele>
        <time>2018-02-25T08:44:48.000Z</time>
      </trkpt>
      <trkpt lat="43.54889" lon="3.01057">
        <ele>567.3</ele>
        <time>2018-02-25T08:44:51.000Z</time>
      </trkpt>
      <trkpt lat="43.54886" lon="3.01058">
        <ele>567.8</ele>
        <time>2018-02-25T08:44:54.000Z</time>
      </trkpt>
      <trkpt lat="43.54883" lon="3.01057">
        <ele>568.3</ele>
        <time>2018-02-25T08:44:57.000Z</time>
      </trkpt>
      <trkpt lat="43.5488" lon="3.01056">
        <ele>568.6</ele>
        <time>2018-02-25T08:45:01.000Z</time>
      </trkpt>
      <trkpt lat="43.54877" lon="3.01055">
        <ele>568.8</ele>
        <time>2018-02-25T08:45:05.000Z</time>
      </trkpt>
      <trkpt lat="43.54874" lon="3.01056">
        <ele>568.9</ele>
        <time>2018-02-25T08:45:09.000Z</time>
      </trkpt>
      <trkpt lat="43.5487" lon="3.01058">
        <ele>569.1</ele>
        <time>2018-02-25T08:45:12.000Z</time>
      </trkpt>
      <trkpt lat="43.54867" lon="3.01058">
        <ele>569.2</ele>
        <time>2018-02-25T08:45:15.000Z</time>
      </trkpt>
      <trkpt lat="43.54864" lon="3.01059">
        <ele>569.3</ele>
        <time>2018-02-25T08:45:17.000Z</time>
      </trkpt>
      <trkpt lat="43.5486" lon="3.0106">
        <ele>569.5</ele>
        <time>2018-02-25T08:45:19.000Z</time>
      </trkpt>
      <trkpt lat="43.54856" lon="3.01061">
        <ele>570</ele>
        <time>2018-02-25T08:45:21.000Z</time>
      </trkpt>
      <trkpt lat="43.54853" lon="3.01062">
        <ele>570.4</ele>
        <time>2018-02-25T08:45:23.000Z</time>
      </trkpt>
      <trkpt lat="43.5485" lon="3.01064">
        <ele>570.7</ele>
        <time>2018-02-25T08:45:25.000Z</time>
      </trkpt>
      <trkpt lat="43.54846" lon="3.01065">
        <ele>570.9</ele>
        <time>2018-02-25T08:45:27.000Z</time>
      </trkpt>
      <trkpt lat="43.54843" lon="3.01065">
        <ele>571.1</ele>
        <time>2018-02-25T08:45:29.000Z</time>
      </trkpt>
      <trkpt lat="43.5484" lon="3.01065">
        <ele>571.2</ele>
        <time>2018-02-25T08:45:31.000Z</time>
      </trkpt>
      <trkpt lat="43.54837" lon="3.01065">
        <ele>571.5</ele>
        <time>2018-02-25T08:45:33.000Z</time>
      </trkpt>
      <trkpt lat="43.54834" lon="3.01066">
        <ele>572</ele>
        <time>2018-02-25T08:45:35.000Z</time>
      </trkpt>
      <trkpt lat="43.5483" lon="3.01068">
        <ele>572.5</ele>
        <time>2018-02-25T08:45:37.000Z</time>
      </trkpt>
      <trkpt lat="43.54826" lon="3.01068">
        <ele>572.8</ele>
        <time>2018-02-25T08:45:40.000Z</time>
      </trkpt>
      <trkpt lat="43.54823" lon="3.01067">
        <ele>573</ele>
        <time>2018-02-25T08:45:43.000Z</time>
      </trkpt>
      <trkpt lat="43.5482" lon="3.01065">
        <ele>573.2</ele>
        <time>2018-02-25T08:45:46.000Z</time>
      </trkpt>
      <trkpt lat="43.54817" lon="3.01062">
        <ele>573.5</ele>
        <time>2018-02-25T08:45:49.000Z</time>
      </trkpt>
      <trkpt lat="43.54813" lon="3.01061">
        <ele>574.1</ele>
        <time>2018-02-25T08:45:52.000Z</time>
      </trkpt>
      <trkpt lat="43.54808" lon="3.0106">
        <ele>574.6</ele>
        <time>2018-02-25T08:45:54.000Z</time>
      </trkpt>
      <trkpt lat="43.54805" lon="3.01059">
        <ele>574.8</ele>
        <time>2018-02-25T08:45:56.000Z</time>
      </trkpt>
      <trkpt lat="43.54802" lon="3.01058">
        <ele>575.1</ele>
        <time>2018-02-25T08:45:58.000Z</time>
      </trkpt>
      <trkpt lat="43.548" lon="3.01054">
        <ele>575.3</ele>
        <time>2018-02-25T08:46:00.000Z</time>
      </trkpt>
      <trkpt lat="43.54797" lon="3.01051">
        <ele>575.6</ele>
        <time>2018-02-25T08:46:02.000Z</time>
      </trkpt>
      <trkpt lat="43.54795" lon="3.01049">
        <ele>576</ele>
        <time>2018-02-25T08:46:04.000Z</time>
      </trkpt>
      <trkpt lat="43.54792" lon="3.01048">
        <ele>576.4</ele>
        <time>2018-02-25T08:46:06.000Z</time>
      </trkpt>
      <trkpt lat="43.54789" lon="3.01047">
        <ele>576.7</ele>
        <time>2018-02-25T08:46:08.000Z</time>
      </trkpt>
      <trkpt lat="43.54786" lon="3.01046">
        <ele>576.9</ele>
        <time>2018-02-25T08:46:11.000Z</time>
      </trkpt>
      <trkpt lat="43.54783" lon="3.01044">
        <ele>577</ele>
        <time>2018-02-25T08:46:14.000Z</time>
      </trkpt>
      <trkpt lat="43.54781" lon="3.01042">
        <ele>577</ele>
        <time>2018-02-25T08:46:16.000Z</time>
      </trkpt>
      <trkpt lat="43.54778" lon="3.0104">
        <ele>577</ele>
        <time>2018-02-25T08:46:19.000Z</time>
      </trkpt>
      <trkpt lat="43.54775" lon="3.01038">
        <ele>578.1</ele>
        <time>2018-02-25T08:46:22.000Z</time>
      </trkpt>
      <trkpt lat="43.54771" lon="3.01036">
        <ele>579.5</ele>
        <time>2018-02-25T08:46:25.000Z</time>
      </trkpt>
      <trkpt lat="43.54768" lon="3.01032">
        <ele>580.4</ele>
        <time>2018-02-25T08:46:28.000Z</time>
      </trkpt>
      <trkpt lat="43.54766" lon="3.0103">
        <ele>580.7</ele>
        <time>2018-02-25T08:46:31.000Z</time>
      </trkpt>
      <trkpt lat="43.54763" lon="3.01025">
        <ele>581.2</ele>
        <time>2018-02-25T08:46:34.000Z</time>
      </trkpt>
      <trkpt lat="43.54761" lon="3.01022">
        <ele>582.1</ele>
        <time>2018-02-25T08:46:36.000Z</time>
      </trkpt>
      <trkpt lat="43.54757" lon="3.01019">
        <ele>583.1</ele>
        <time>2018-02-25T08:46:38.000Z</time>
      </trkpt>
      <trkpt lat="43.54752" lon="3.01016">
        <ele>583.6</ele>
        <time>2018-02-25T08:46:40.000Z</time>
      </trkpt>
      <trkpt lat="43.54748" lon="3.01013">
        <ele>584.1</ele>
        <time>2018-02-25T08:46:42.000Z</time>
      </trkpt>
      <trkpt lat="43.54744" lon="3.01011">
        <ele>584.4</ele>
        <time>2018-02-25T08:46:43.000Z</time>
      </trkpt>
      <trkpt lat="43.54741" lon="3.0101">
        <ele>584.8</ele>
        <time>2018-02-25T08:46:44.000Z</time>
      </trkpt>
      <trkpt lat="43.54736" lon="3.01007">
        <ele>585.4</ele>
        <time>2018-02-25T08:46:47.000Z</time>
      </trkpt>
      <trkpt lat="43.54733" lon="3.01004">
        <ele>586.1</ele>
        <time>2018-02-25T08:46:49.000Z</time>
      </trkpt>
      <trkpt lat="43.54731" lon="3.01">
        <ele>586.6</ele>
        <time>2018-02-25T08:46:52.000Z</time>
      </trkpt>
      <trkpt lat="43.54729" lon="3.00998">
        <ele>586.6</ele>
        <time>2018-02-25T08:46:54.000Z</time>
      </trkpt>
      <trkpt lat="43.54726" lon="3.00995">
        <ele>586.7</ele>
        <time>2018-02-25T08:46:57.000Z</time>
      </trkpt>
      <trkpt lat="43.54723" lon="3.00996">
        <ele>586.7</ele>
        <time>2018-02-25T08:46:59.000Z</time>
      </trkpt>
      <trkpt lat="43.5472" lon="3.00997">
        <ele>586.9</ele>
        <time>2018-02-25T08:47:01.000Z</time>
      </trkpt>
      <trkpt lat="43.54717" lon="3.00999">
        <ele>587.1</ele>
        <time>2018-02-25T08:47:03.000Z</time>
      </trkpt>
      <trkpt lat="43.54714" lon="3.01">
        <ele>587.3</ele>
        <time>2018-02-25T08:47:05.000Z</time>
      </trkpt>
      <trkpt lat="43.54711" lon="3.01002">
        <ele>587.4</ele>
        <time>2018-02-25T08:47:07.000Z</time>
      </trkpt>
      <trkpt lat="43.54707" lon="3.01006">
        <ele>586.9</ele>
        <time>2018-02-25T08:47:10.000Z</time>
      </trkpt>
      <trkpt lat="43.54704" lon="3.01008">
        <ele>586.4</ele>
        <time>2018-02-25T08:47:13.000Z</time>
      </trkpt>
      <trkpt lat="43.54702" lon="3.0101">
        <ele>586</ele>
        <time>2018-02-25T08:47:15.000Z</time>
      </trkpt>
      <trkpt lat="43.547" lon="3.01014">
        <ele>585.6</ele>
        <time>2018-02-25T08:47:18.000Z</time>
      </trkpt>
      <trkpt lat="43.54698" lon="3.01018">
        <ele>585.3</ele>
        <time>2018-02-25T08:47:21.000Z</time>
      </trkpt>
      <trkpt lat="43.54696" lon="3.01021">
        <ele>585.1</ele>
        <time>2018-02-25T08:47:23.000Z</time>
      </trkpt>
      <trkpt lat="43.54695" lon="3.01025">
        <ele>584.6</ele>
        <time>2018-02-25T08:47:26.000Z</time>
      </trkpt>
      <trkpt lat="43.54693" lon="3.01029">
        <ele>583.6</ele>
        <time>2018-02-25T08:47:28.000Z</time>
      </trkpt>
      <trkpt lat="43.54691" lon="3.01034">
        <ele>582.6</ele>
        <time>2018-02-25T08:47:30.000Z</time>
      </trkpt>
      <trkpt lat="43.54689" lon="3.01036">
        <ele>582.3</ele>
        <time>2018-02-25T08:47:32.000Z</time>
      </trkpt>
      <trkpt lat="43.54688" lon="3.0104">
        <ele>582</ele>
        <time>2018-02-25T08:47:35.000Z</time>
      </trkpt>
      <trkpt lat="43.54686" lon="3.01044">
        <ele>581.7</ele>
        <time>2018-02-25T08:47:38.000Z</time>
      </trkpt>
      <trkpt lat="43.54684" lon="3.01048">
        <ele>581.1</ele>
        <time>2018-02-25T08:47:40.000Z</time>
      </trkpt>
      <trkpt lat="43.54683" lon="3.01054">
        <ele>580.6</ele>
        <time>2018-02-25T08:47:43.000Z</time>
      </trkpt>
      <trkpt lat="43.54681" lon="3.01058">
        <ele>580.3</ele>
        <time>2018-02-25T08:47:45.000Z</time>
      </trkpt>
      <trkpt lat="43.5468" lon="3.01062">
        <ele>580.1</ele>
        <time>2018-02-25T08:47:47.000Z</time>
      </trkpt>
      <trkpt lat="43.54678" lon="3.01065">
        <ele>580.1</ele>
        <time>2018-02-25T08:47:49.000Z</time>
      </trkpt>
      <trkpt lat="43.54676" lon="3.01069">
        <ele>580.1</ele>
        <time>2018-02-25T08:47:51.000Z</time>
      </trkpt>
      <trkpt lat="43.54673" lon="3.01073">
        <ele>580.3</ele>
        <time>2018-02-25T08:47:53.000Z</time>
      </trkpt>
      <trkpt lat="43.54671" lon="3.01076">
        <ele>580.5</ele>
        <time>2018-02-25T08:47:55.000Z</time>
      </trkpt>
      <trkpt lat="43.54669" lon="3.01079">
        <ele>580.7</ele>
        <time>2018-02-25T08:47:57.000Z</time>
      </trkpt>
      <trkpt lat="43.54667" lon="3.01082">
        <ele>580.9</ele>
        <time>2018-02-25T08:47:59.000Z</time>
      </trkpt>
      <trkpt lat="43.54664" lon="3.01085">
        <ele>581.3</ele>
        <time>2018-02-25T08:48:02.000Z</time>
      </trkpt>
      <trkpt lat="43.54662" lon="3.01088">
        <ele>581.6</ele>
        <time>2018-02-25T08:48:04.000Z</time>
      </trkpt>
      <trkpt lat="43.5466" lon="3.01092">
        <ele>581.8</ele>
        <time>2018-02-25T08:48:06.000Z</time>
      </trkpt>
      <trkpt lat="43.54659" lon="3.01096">
        <ele>582</ele>
        <time>2018-02-25T08:48:08.000Z</time>
      </trkpt>
      <trkpt lat="43.54657" lon="3.01099">
        <ele>582.1</ele>
        <time>2018-02-25T08:48:10.000Z</time>
      </trkpt>
      <trkpt lat="43.54655" lon="3.01102">
        <ele>581.9</ele>
        <time>2018-02-25T08:48:12.000Z</time>
      </trkpt>
      <trkpt lat="43.54653" lon="3.01104">
        <ele>581.7</ele>
        <time>2018-02-25T08:48:14.000Z</time>
      </trkpt>
      <trkpt lat="43.54651" lon="3.01107">
        <ele>581.7</ele>
        <time>2018-02-25T08:48:16.000Z</time>
      </trkpt>
      <trkpt lat="43.54649" lon="3.01111">
        <ele>581.8</ele>
        <time>2018-02-25T08:48:18.000Z</time>
      </trkpt>
      <trkpt lat="43.54646" lon="3.01115">
        <ele>581.9</ele>
        <time>2018-02-25T08:48:21.000Z</time>
      </trkpt>
      <trkpt lat="43.54645" lon="3.01119">
        <ele>582</ele>
        <time>2018-02-25T08:48:23.000Z</time>
      </trkpt>
      <trkpt lat="43.54643" lon="3.01123">
        <ele>582.2</ele>
        <time>2018-02-25T08:48:25.000Z</time>
      </trkpt>
      <trkpt lat="43.5464" lon="3.01126">
        <ele>581.9</ele>
        <time>2018-02-25T08:48:27.000Z</time>
      </trkpt>
      <trkpt lat="43.54637" lon="3.0113">
        <ele>581.5</ele>
        <time>2018-02-25T08:48:29.000Z</time>
      </trkpt>
      <trkpt lat="43.54635" lon="3.01133">
        <ele>580.8</ele>
        <time>2018-02-25T08:48:31.000Z</time>
      </trkpt>
      <trkpt lat="43.54633" lon="3.01136">
        <ele>580.1</ele>
        <time>2018-02-25T08:48:33.000Z</time>
      </trkpt>
      <trkpt lat="43.54631" lon="3.0114">
        <ele>579.6</ele>
        <time>2018-02-25T08:48:35.000Z</time>
      </trkpt>
      <trkpt lat="43.5463" lon="3.01145">
        <ele>579.4</ele>
        <time>2018-02-25T08:48:38.000Z</time>
      </trkpt>
      <trkpt lat="43.5463" lon="3.01149">
        <ele>579.2</ele>
        <time>2018-02-25T08:48:41.000Z</time>
      </trkpt>
      <trkpt lat="43.54629" lon="3.01153">
        <ele>578.5</ele>
        <time>2018-02-25T08:48:44.000Z</time>
      </trkpt>
      <trkpt lat="43.54627" lon="3.01157">
        <ele>577.8</ele>
        <time>2018-02-25T08:48:47.000Z</time>
      </trkpt>
      <trkpt lat="43.54625" lon="3.01162">
        <ele>577</ele>
        <time>2018-02-25T08:48:50.000Z</time>
      </trkpt>
      <trkpt lat="43.54623" lon="3.01164">
        <ele>576.4</ele>
        <time>2018-02-25T08:48:53.000Z</time>
      </trkpt>
      <trkpt lat="43.54621" lon="3.01168">
        <ele>576.1</ele>
        <time>2018-02-25T08:48:56.000Z</time>
      </trkpt>
      <trkpt lat="43.5462" lon="3.01172">
        <ele>576.1</ele>
        <time>2018-02-25T08:48:58.000Z</time>
      </trkpt>
      <trkpt lat="43.54617" lon="3.01174">
        <ele>576.3</ele>
        <time>2018-02-25T08:49:01.000Z</time>
      </trkpt>
      <trkpt lat="43.54618" lon="3.01169">
        <ele>576</ele>
        <time>2018-02-25T08:49:04.000Z</time>
      </trkpt>
      <trkpt lat="43.54617" lon="3.01165">
        <ele>576.1</ele>
        <time>2018-02-25T08:49:09.000Z</time>
      </trkpt>
      <trkpt lat="43.54616" lon="3.01161">
        <ele>576.3</ele>
        <time>2018-02-25T08:49:12.000Z</time>
      </trkpt>
      <trkpt lat="43.54618" lon="3.01158">
        <ele>576.8</ele>
        <time>2018-02-25T08:49:21.000Z</time>
      </trkpt>
      <trkpt lat="43.54619" lon="3.01153">
        <ele>577.4</ele>
        <time>2018-02-25T08:49:37.000Z</time>
      </trkpt>
      <trkpt lat="43.54619" lon="3.01148">
        <ele>578</ele>
        <time>2018-02-25T08:49:39.000Z</time>
      </trkpt>
      <trkpt lat="43.5462" lon="3.01142">
        <ele>578.8</ele>
        <time>2018-02-25T08:49:41.000Z</time>
      </trkpt>
      <trkpt lat="43.54621" lon="3.01136">
        <ele>579.3</ele>
        <time>2018-02-25T08:49:43.000Z</time>
      </trkpt>
      <trkpt lat="43.54622" lon="3.0113">
        <ele>579.6</ele>
        <time>2018-02-25T08:49:45.000Z</time>
      </trkpt>
      <trkpt lat="43.54622" lon="3.01125">
        <ele>579.8</ele>
        <time>2018-02-25T08:49:47.000Z</time>
      </trkpt>
      <trkpt lat="43.54622" lon="3.01121">
        <ele>580.5</ele>
        <time>2018-02-25T08:49:49.000Z</time>
      </trkpt>
      <trkpt lat="43.54623" lon="3.01115">
        <ele>582.5</ele>
        <time>2018-02-25T08:49:52.000Z</time>
      </trkpt>
      <trkpt lat="43.54621" lon="3.0111">
        <ele>584.4</ele>
        <time>2018-02-25T08:49:57.000Z</time>
      </trkpt>
      <trkpt lat="43.5462" lon="3.01105">
        <ele>585.5</ele>
        <time>2018-02-25T08:49:59.000Z</time>
      </trkpt>
      <trkpt lat="43.54618" lon="3.01101">
        <ele>587.4</ele>
        <time>2018-02-25T08:50:01.000Z</time>
      </trkpt>
      <trkpt lat="43.54618" lon="3.01096">
        <ele>588.4</ele>
        <time>2018-02-25T08:50:03.000Z</time>
      </trkpt>
      <trkpt lat="43.54619" lon="3.01092">
        <ele>588.4</ele>
        <time>2018-02-25T08:50:05.000Z</time>
      </trkpt>
      <trkpt lat="43.54621" lon="3.01089">
        <ele>589.2</ele>
        <time>2018-02-25T08:50:09.000Z</time>
      </trkpt>
      <trkpt lat="43.54624" lon="3.01078">
        <ele>590</ele>
        <time>2018-02-25T08:50:30.000Z</time>
      </trkpt>
      <trkpt lat="43.54624" lon="3.01074">
        <ele>590.8</ele>
        <time>2018-02-25T08:50:34.000Z</time>
      </trkpt>
      <trkpt lat="43.54622" lon="3.0107">
        <ele>591.7</ele>
        <time>2018-02-25T08:50:39.000Z</time>
      </trkpt>
      <trkpt lat="43.54623" lon="3.01066">
        <ele>592.6</ele>
        <time>2018-02-25T08:50:45.000Z</time>
      </trkpt>
      <trkpt lat="43.54622" lon="3.01062">
        <ele>593.5</ele>
        <time>2018-02-25T08:50:48.000Z</time>
      </trkpt>
      <trkpt lat="43.54622" lon="3.01058">
        <ele>594.4</ele>
        <time>2018-02-25T08:50:53.000Z</time>
      </trkpt>
      <trkpt lat="43.54624" lon="3.01054">
        <ele>595.2</ele>
        <time>2018-02-25T08:50:58.000Z</time>
      </trkpt>
      <trkpt lat="43.54624" lon="3.01051">
        <ele>596</ele>
        <time>2018-02-25T08:51:03.000Z</time>
      </trkpt>
      <trkpt lat="43.54625" lon="3.01046">
        <ele>596.8</ele>
        <time>2018-02-25T08:51:12.000Z</time>
      </trkpt>
      <trkpt lat="43.54625" lon="3.01041">
        <ele>596.5</ele>
        <time>2018-02-25T08:51:16.000Z</time>
      </trkpt>
      <trkpt lat="43.54626" lon="3.01036">
        <ele>597.2</ele>
        <time>2018-02-25T08:51:19.000Z</time>
      </trkpt>
      <trkpt lat="43.54625" lon="3.01032">
        <ele>597.9</ele>
        <time>2018-02-25T08:51:24.000Z</time>
      </trkpt>
      <trkpt lat="43.54624" lon="3.01028">
        <ele>599.8</ele>
        <time>2018-02-25T08:51:29.000Z</time>
      </trkpt>
      <trkpt lat="43.54623" lon="3.01024">
        <ele>601.1</ele>
        <time>2018-02-25T08:51:37.000Z</time>
      </trkpt>
      <trkpt lat="43.54622" lon="3.01021">
        <ele>602</ele>
        <time>2018-02-25T08:51:46.000Z</time>
      </trkpt>
      <trkpt lat="43.54621" lon="3.01017">
        <ele>603.1</ele>
        <time>2018-02-25T08:51:49.000Z</time>
      </trkpt>
      <trkpt lat="43.54619" lon="3.01014">
        <ele>603.9</ele>
        <time>2018-02-25T08:51:52.000Z</time>
      </trkpt>
      <trkpt lat="43.54618" lon="3.0101">
        <ele>605.7</ele>
        <time>2018-02-25T08:51:57.000Z</time>
      </trkpt>
      <trkpt lat="43.54619" lon="3.01006">
        <ele>605.5</ele>
        <time>2018-02-25T08:52:02.000Z</time>
      </trkpt>
      <trkpt lat="43.5462" lon="3.01002">
        <ele>606.3</ele>
        <time>2018-02-25T08:52:06.000Z</time>
      </trkpt>
      <trkpt lat="43.54618" lon="3.00998">
        <ele>608.1</ele>
        <time>2018-02-25T08:52:11.000Z</time>
      </trkpt>
      <trkpt lat="43.54617" lon="3.00994">
        <ele>608.9</ele>
        <time>2018-02-25T08:52:14.000Z</time>
      </trkpt>
      <trkpt lat="43.54617" lon="3.00991">
        <ele>609.7</ele>
        <time>2018-02-25T08:52:16.000Z</time>
      </trkpt>
      <trkpt lat="43.54617" lon="3.00981">
        <ele>611.4</ele>
        <time>2018-02-25T08:52:19.000Z</time>
      </trkpt>
      <trkpt lat="43.54618" lon="3.00976">
        <ele>612.3</ele>
        <time>2018-02-25T08:52:40.000Z</time>
      </trkpt>
      <trkpt lat="43.54618" lon="3.00971">
        <ele>613.2</ele>
        <time>2018-02-25T08:52:43.000Z</time>
      </trkpt>
      <trkpt lat="43.54618" lon="3.00966">
        <ele>614</ele>
        <time>2018-02-25T08:52:49.000Z</time>
      </trkpt>
      <trkpt lat="43.54618" lon="3.00961">
        <ele>615.6</ele>
        <time>2018-02-25T08:52:53.000Z</time>
      </trkpt>
      <trkpt lat="43.54619" lon="3.00956">
        <ele>615.4</ele>
        <time>2018-02-25T08:53:16.000Z</time>
      </trkpt>
      <trkpt lat="43.54619" lon="3.00951">
        <ele>616.2</ele>
        <time>2018-02-25T08:53:17.000Z</time>
      </trkpt>
      <trkpt lat="43.54619" lon="3.00946">
        <ele>617</ele>
        <time>2018-02-25T08:53:19.000Z</time>
      </trkpt>
      <trkpt lat="43.54618" lon="3.00942">
        <ele>618.9</ele>
        <time>2018-02-25T08:53:26.000Z</time>
      </trkpt>
      <trkpt lat="43.54616" lon="3.00938">
        <ele>619.9</ele>
        <time>2018-02-25T08:53:30.000Z</time>
      </trkpt>
      <trkpt lat="43.54616" lon="3.00934">
        <ele>620.8</ele>
        <time>2018-02-25T08:53:34.000Z</time>
      </trkpt>
      <trkpt lat="43.54617" lon="3.0093">
        <ele>621.8</ele>
        <time>2018-02-25T08:53:42.000Z</time>
      </trkpt>
      <trkpt lat="43.54618" lon="3.00926">
        <ele>622.7</ele>
        <time>2018-02-25T08:53:49.000Z</time>
      </trkpt>
      <trkpt lat="43.5462" lon="3.00922">
        <ele>621.8</ele>
        <time>2018-02-25T08:53:53.000Z</time>
      </trkpt>
      <trkpt lat="43.54622" lon="3.00915">
        <ele>622.7</ele>
        <time>2018-02-25T08:54:11.000Z</time>
      </trkpt>
      <trkpt lat="43.54623" lon="3.0091">
        <ele>623.7</ele>
        <time>2018-02-25T08:54:14.000Z</time>
      </trkpt>
      <trkpt lat="43.54623" lon="3.00906">
        <ele>624.7</ele>
        <time>2018-02-25T08:54:17.000Z</time>
      </trkpt>
      <trkpt lat="43.54626" lon="3.00903">
        <ele>624.8</ele>
        <time>2018-02-25T08:54:21.000Z</time>
      </trkpt>
      <trkpt lat="43.54628" lon="3.00899">
        <ele>624.9</ele>
        <time>2018-02-25T08:54:29.000Z</time>
      </trkpt>
      <trkpt lat="43.54631" lon="3.00897">
        <ele>626</ele>
        <time>2018-02-25T08:54:33.000Z</time>
      </trkpt>
      <trkpt lat="43.54632" lon="3.00893">
        <ele>625.2</ele>
        <time>2018-02-25T08:54:40.000Z</time>
      </trkpt>
      <trkpt lat="43.54633" lon="3.00889">
        <ele>626.2</ele>
        <time>2018-02-25T08:54:44.000Z</time>
      </trkpt>
      <trkpt lat="43.54636" lon="3.00887">
        <ele>626.4</ele>
        <time>2018-02-25T08:54:47.000Z</time>
      </trkpt>
      <trkpt lat="43.54639" lon="3.00876">
        <ele>627.6</ele>
        <time>2018-02-25T08:55:10.000Z</time>
      </trkpt>
      <trkpt lat="43.5464" lon="3.00872">
        <ele>628.5</ele>
        <time>2018-02-25T08:55:13.000Z</time>
      </trkpt>
      <trkpt lat="43.5464" lon="3.00868">
        <ele>629.4</ele>
        <time>2018-02-25T08:55:16.000Z</time>
      </trkpt>
      <trkpt lat="43.54642" lon="3.00865">
        <ele>629.4</ele>
        <time>2018-02-25T08:55:23.000Z</time>
      </trkpt>
      <trkpt lat="43.54642" lon="3.0086">
        <ele>630.3</ele>
        <time>2018-02-25T08:55:28.000Z</time>
      </trkpt>
      <trkpt lat="43.54645" lon="3.00858">
        <ele>630.4</ele>
        <time>2018-02-25T08:55:33.000Z</time>
      </trkpt>
      <trkpt lat="43.54646" lon="3.00853">
        <ele>631.4</ele>
        <time>2018-02-25T08:55:37.000Z</time>
      </trkpt>
      <trkpt lat="43.54647" lon="3.0085">
        <ele>630.7</ele>
        <time>2018-02-25T08:55:44.000Z</time>
      </trkpt>
      <trkpt lat="43.5465" lon="3.00842">
        <ele>632</ele>
        <time>2018-02-25T08:56:01.000Z</time>
      </trkpt>
      <trkpt lat="43.5465" lon="3.00838">
        <ele>632.4</ele>
        <time>2018-02-25T08:56:04.000Z</time>
      </trkpt>
      <trkpt lat="43.54651" lon="3.00835">
        <ele>632.8</ele>
        <time>2018-02-25T08:56:08.000Z</time>
      </trkpt>
      <trkpt lat="43.5465" lon="3.00832">
        <ele>633.3</ele>
        <time>2018-02-25T08:56:15.000Z</time>
      </trkpt>
      <trkpt lat="43.54648" lon="3.00828">
        <ele>633.9</ele>
        <time>2018-02-25T08:56:18.000Z</time>
      </trkpt>
      <trkpt lat="43.54647" lon="3.00823">
        <ele>634.5</ele>
        <time>2018-02-25T08:56:21.000Z</time>
      </trkpt>
      <trkpt lat="43.54647" lon="3.00819">
        <ele>634.9</ele>
        <time>2018-02-25T08:56:23.000Z</time>
      </trkpt>
      <trkpt lat="43.54646" lon="3.00814">
        <ele>635.4</ele>
        <time>2018-02-25T08:56:26.000Z</time>
      </trkpt>
      <trkpt lat="43.54647" lon="3.0081">
        <ele>635.6</ele>
        <time>2018-02-25T08:56:31.000Z</time>
      </trkpt>
      <trkpt lat="43.54646" lon="3.00806">
        <ele>635.8</ele>
        <time>2018-02-25T08:56:35.000Z</time>
      </trkpt>
      <trkpt lat="43.54647" lon="3.00802">
        <ele>636</ele>
        <time>2018-02-25T08:56:40.000Z</time>
      </trkpt>
      <trkpt lat="43.54649" lon="3.00799">
        <ele>636.2</ele>
        <time>2018-02-25T08:56:48.000Z</time>
      </trkpt>
      <trkpt lat="43.54646" lon="3.00796">
        <ele>636.4</ele>
        <time>2018-02-25T08:58:33.000Z</time>
      </trkpt>
      <trkpt lat="43.54643" lon="3.00796">
        <ele>636.5</ele>
        <time>2018-02-25T08:58:34.000Z</time>
      </trkpt>
      <trkpt lat="43.54641" lon="3.00795">
        <ele>636.7</ele>
        <time>2018-02-25T08:58:39.000Z</time>
      </trkpt>
      <trkpt lat="43.54643" lon="3.00792">
        <ele>636.9</ele>
        <time>2018-02-25T08:58:59.000Z</time>
      </trkpt>
      <trkpt lat="43.54645" lon="3.00788">
        <ele>637.2</ele>
        <time>2018-02-25T09:02:45.000Z</time>
      </trkpt>
      <trkpt lat="43.54641" lon="3.00785">
        <ele>637.6</ele>
        <time>2018-02-25T09:02:47.000Z</time>
      </trkpt>
      <trkpt lat="43.54637" lon="3.0078">
        <ele>637.9</ele>
        <time>2018-02-25T09:02:49.000Z</time>
      </trkpt>
      <trkpt lat="43.54634" lon="3.00776">
        <ele>637.4</ele>
        <time>2018-02-25T09:02:50.000Z</time>
      </trkpt>
      <trkpt lat="43.54631" lon="3.00772">
        <ele>637</ele>
        <time>2018-02-25T09:02:51.000Z</time>
      </trkpt>
      <trkpt lat="43.54628" lon="3.00768">
        <ele>636.5</ele>
        <time>2018-02-25T09:02:52.000Z</time>
      </trkpt>
      <trkpt lat="43.54624" lon="3.00765">
        <ele>635.9</ele>
        <time>2018-02-25T09:02:53.000Z</time>
      </trkpt>
      <trkpt lat="43.54622" lon="3.00763">
        <ele>635.5</ele>
        <time>2018-02-25T09:02:54.000Z</time>
      </trkpt>
      <trkpt lat="43.5462" lon="3.00757">
        <ele>634.9</ele>
        <time>2018-02-25T09:02:56.000Z</time>
      </trkpt>
      <trkpt lat="43.54619" lon="3.0075">
        <ele>633.9</ele>
        <time>2018-02-25T09:02:58.000Z</time>
      </trkpt>
      <trkpt lat="43.54618" lon="3.00746">
        <ele>633.3</ele>
        <time>2018-02-25T09:03:00.000Z</time>
      </trkpt>
      <trkpt lat="43.54616" lon="3.00741">
        <ele>632.6</ele>
        <time>2018-02-25T09:03:02.000Z</time>
      </trkpt>
      <trkpt lat="43.54614" lon="3.00735">
        <ele>631.3</ele>
        <time>2018-02-25T09:03:03.000Z</time>
      </trkpt>
      <trkpt lat="43.54611" lon="3.00728">
        <ele>629.9</ele>
        <time>2018-02-25T09:03:04.000Z</time>
      </trkpt>
      <trkpt lat="43.54608" lon="3.00721">
        <ele>628.3</ele>
        <time>2018-02-25T09:03:05.000Z</time>
      </trkpt>
      <trkpt lat="43.54603" lon="3.00704">
        <ele>625.2</ele>
        <time>2018-02-25T09:03:06.000Z</time>
      </trkpt>
      <trkpt lat="43.54601" lon="3.00696">
        <ele>623.8</ele>
        <time>2018-02-25T09:03:07.000Z</time>
      </trkpt>
      <trkpt lat="43.54598" lon="3.00689">
        <ele>622.3</ele>
        <time>2018-02-25T09:03:08.000Z</time>
      </trkpt>
      <trkpt lat="43.54595" lon="3.00681">
        <ele>620.7</ele>
        <time>2018-02-25T09:03:09.000Z</time>
      </trkpt>
      <trkpt lat="43.54593" lon="3.00676">
        <ele>619.7</ele>
        <time>2018-02-25T09:03:10.000Z</time>
      </trkpt>
      <trkpt lat="43.5459" lon="3.00672">
        <ele>618.8</ele>
        <time>2018-02-25T09:03:11.000Z</time>
      </trkpt>
      <trkpt lat="43.54587" lon="3.00666">
        <ele>617.8</ele>
        <time>2018-02-25T09:03:12.000Z</time>
      </trkpt>
      <trkpt lat="43.54584" lon="3.00659">
        <ele>616.8</ele>
        <time>2018-02-25T09:03:13.000Z</time>
      </trkpt>
      <trkpt lat="43.54582" lon="3.0065">
        <ele>615.9</ele>
        <time>2018-02-25T09:03:14.000Z</time>
      </trkpt>
      <trkpt lat="43.54579" lon="3.00642">
        <ele>615.2</ele>
        <time>2018-02-25T09:03:15.000Z</time>
      </trkpt>
      <trkpt lat="43.54577" lon="3.0064">
        <ele>614.9</ele>
        <time>2018-02-25T09:03:16.000Z</time>
      </trkpt>
      <trkpt lat="43.54571" lon="3.0063">
        <ele>614.1</ele>
        <time>2018-02-25T09:03:17.000Z</time>
      </trkpt>
      <trkpt lat="43.54566" lon="3.0062">
        <ele>613.4</ele>
        <time>2018-02-25T09:03:18.000Z</time>
      </trkpt>
      <trkpt lat="43.54564" lon="3.00614">
        <ele>613.2</ele>
        <time>2018-02-25T09:03:19.000Z</time>
      </trkpt>
      <trkpt lat="43.54562" lon="3.00609">
        <ele>613</ele>
        <time>2018-02-25T09:03:20.000Z</time>
      </trkpt>
      <trkpt lat="43.54557" lon="3.00606">
        <ele>612.7</ele>
        <time>2018-02-25T09:03:21.000Z</time>
      </trkpt>
      <trkpt lat="43.54555" lon="3.00602">
        <ele>612.5</ele>
        <time>2018-02-25T09:03:22.000Z</time>
      </trkpt>
      <trkpt lat="43.54553" lon="3.00595">
        <ele>612</ele>
        <time>2018-02-25T09:03:23.000Z</time>
      </trkpt>
      <trkpt lat="43.54547" lon="3.00585">
        <ele>611.1</ele>
        <time>2018-02-25T09:03:25.000Z</time>
      </trkpt>
      <trkpt lat="43.5455" lon="3.00576">
        <ele>610.7</ele>
        <time>2018-02-25T09:03:26.000Z</time>
      </trkpt>
      <trkpt lat="43.54551" lon="3.00565">
        <ele>610.3</ele>
        <time>2018-02-25T09:03:27.000Z</time>
      </trkpt>
      <trkpt lat="43.54549" lon="3.00554">
        <ele>610.1</ele>
        <time>2018-02-25T09:03:28.000Z</time>
      </trkpt>
      <trkpt lat="43.5455" lon="3.00548">
        <ele>610</ele>
        <time>2018-02-25T09:03:29.000Z</time>
      </trkpt>
      <trkpt lat="43.54547" lon="3.00539">
        <ele>609.8</ele>
        <time>2018-02-25T09:03:30.000Z</time>
      </trkpt>
      <trkpt lat="43.54547" lon="3.00533">
        <ele>609.7</ele>
        <time>2018-02-25T09:03:31.000Z</time>
      </trkpt>
      <trkpt lat="43.54545" lon="3.00528">
        <ele>609.6</ele>
        <time>2018-02-25T09:03:32.000Z</time>
      </trkpt>
      <trkpt lat="43.54543" lon="3.00527">
        <ele>609.4</ele>
        <time>2018-02-25T09:03:33.000Z</time>
      </trkpt>
      <trkpt lat="43.5454" lon="3.00525">
        <ele>609.2</ele>
        <time>2018-02-25T09:03:34.000Z</time>
      </trkpt>
      <trkpt lat="43.54539" lon="3.00519">
        <ele>608.9</ele>
        <time>2018-02-25T09:03:36.000Z</time>
      </trkpt>
      <trkpt lat="43.54536" lon="3.00516">
        <ele>608.5</ele>
        <time>2018-02-25T09:03:37.000Z</time>
      </trkpt>
      <trkpt lat="43.54535" lon="3.00512">
        <ele>608.3</ele>
        <time>2018-02-25T09:03:40.000Z</time>
      </trkpt>
      <trkpt lat="43.54534" lon="3.00505">
        <ele>607.7</ele>
        <time>2018-02-25T09:03:42.000Z</time>
      </trkpt>
      <trkpt lat="43.54535" lon="3.00499">
        <ele>607.2</ele>
        <time>2018-02-25T09:03:43.000Z</time>
      </trkpt>
      <trkpt lat="43.54536" lon="3.00492">
        <ele>606.3</ele>
        <time>2018-02-25T09:03:44.000Z</time>
      </trkpt>
      <trkpt lat="43.54536" lon="3.00484">
        <ele>605.4</ele>
        <time>2018-02-25T09:03:45.000Z</time>
      </trkpt>
      <trkpt lat="43.54537" lon="3.00478">
        <ele>604.5</ele>
        <time>2018-02-25T09:03:46.000Z</time>
      </trkpt>
      <trkpt lat="43.54537" lon="3.00472">
        <ele>603.8</ele>
        <time>2018-02-25T09:03:47.000Z</time>
      </trkpt>
      <trkpt lat="43.54537" lon="3.00466">
        <ele>603.1</ele>
        <time>2018-02-25T09:03:48.000Z</time>
      </trkpt>
      <trkpt lat="43.54537" lon="3.0046">
        <ele>602.3</ele>
        <time>2018-02-25T09:03:49.000Z</time>
      </trkpt>
      <trkpt lat="43.54536" lon="3.00455">
        <ele>601.8</ele>
        <time>2018-02-25T09:03:50.000Z</time>
      </trkpt>
      <trkpt lat="43.54536" lon="3.0045">
        <ele>601.2</ele>
        <time>2018-02-25T09:03:51.000Z</time>
      </trkpt>
      <trkpt lat="43.54535" lon="3.00444">
        <ele>600.5</ele>
        <time>2018-02-25T09:03:52.000Z</time>
      </trkpt>
      <trkpt lat="43.54534" lon="3.00438">
        <ele>599.7</ele>
        <time>2018-02-25T09:03:53.000Z</time>
      </trkpt>
      <trkpt lat="43.54534" lon="3.00432">
        <ele>599.2</ele>
        <time>2018-02-25T09:03:54.000Z</time>
      </trkpt>
      <trkpt lat="43.54533" lon="3.00427">
        <ele>599</ele>
        <time>2018-02-25T09:03:55.000Z</time>
      </trkpt>
      <trkpt lat="43.54532" lon="3.00423">
        <ele>598.7</ele>
        <time>2018-02-25T09:03:56.000Z</time>
      </trkpt>
      <trkpt lat="43.54532" lon="3.00418">
        <ele>598.6</ele>
        <time>2018-02-25T09:03:57.000Z</time>
      </trkpt>
      <trkpt lat="43.54531" lon="3.00414">
        <ele>598.4</ele>
        <time>2018-02-25T09:03:58.000Z</time>
      </trkpt>
      <trkpt lat="43.5453" lon="3.0041">
        <ele>598.3</ele>
        <time>2018-02-25T09:03:59.000Z</time>
      </trkpt>
      <trkpt lat="43.54529" lon="3.00405">
        <ele>598.1</ele>
        <time>2018-02-25T09:04:00.000Z</time>
      </trkpt>
      <trkpt lat="43.54529" lon="3.004">
        <ele>597.8</ele>
        <time>2018-02-25T09:04:01.000Z</time>
      </trkpt>
      <trkpt lat="43.54528" lon="3.00393">
        <ele>597.4</ele>
        <time>2018-02-25T09:04:02.000Z</time>
      </trkpt>
      <trkpt lat="43.54528" lon="3.00386">
        <ele>597.1</ele>
        <time>2018-02-25T09:04:03.000Z</time>
      </trkpt>
      <trkpt lat="43.54528" lon="3.00381">
        <ele>596.7</ele>
        <time>2018-02-25T09:04:04.000Z</time>
      </trkpt>
      <trkpt lat="43.54527" lon="3.00376">
        <ele>596.3</ele>
        <time>2018-02-25T09:04:06.000Z</time>
      </trkpt>
      <trkpt lat="43.54524" lon="3.00373">
        <ele>595.8</ele>
        <time>2018-02-25T09:04:08.000Z</time>
      </trkpt>
      <trkpt lat="43.54521" lon="3.0037">
        <ele>595.4</ele>
        <time>2018-02-25T09:04:09.000Z</time>
      </trkpt>
      <trkpt lat="43.54519" lon="3.00365">
        <ele>594.8</ele>
        <time>2018-02-25T09:04:10.000Z</time>
      </trkpt>
      <trkpt lat="43.54517" lon="3.00359">
        <ele>593.9</ele>
        <time>2018-02-25T09:04:11.000Z</time>
      </trkpt>
      <trkpt lat="43.54515" lon="3.00354">
        <ele>592.5</ele>
        <time>2018-02-25T09:04:12.000Z</time>
      </trkpt>
      <trkpt lat="43.54513" lon="3.0035">
        <ele>591.3</ele>
        <time>2018-02-25T09:04:13.000Z</time>
      </trkpt>
      <trkpt lat="43.54511" lon="3.00346">
        <ele>589.9</ele>
        <time>2018-02-25T09:04:15.000Z</time>
      </trkpt>
      <trkpt lat="43.54508" lon="3.00341">
        <ele>588.4</ele>
        <time>2018-02-25T09:04:17.000Z</time>
      </trkpt>
      <trkpt lat="43.54505" lon="3.0034">
        <ele>587.6</ele>
        <time>2018-02-25T09:04:18.000Z</time>
      </trkpt>
      <trkpt lat="43.54501" lon="3.00338">
        <ele>586.9</ele>
        <time>2018-02-25T09:04:19.000Z</time>
      </trkpt>
      <trkpt lat="43.54497" lon="3.00336">
        <ele>586</ele>
        <time>2018-02-25T09:04:20.000Z</time>
      </trkpt>
      <trkpt lat="43.54492" lon="3.00333">
        <ele>585.6</ele>
        <time>2018-02-25T09:04:21.000Z</time>
      </trkpt>
      <trkpt lat="43.54489" lon="3.0033">
        <ele>585.4</ele>
        <time>2018-02-25T09:04:22.000Z</time>
      </trkpt>
      <trkpt lat="43.54487" lon="3.00327">
        <ele>585.1</ele>
        <time>2018-02-25T09:04:23.000Z</time>
      </trkpt>
      <trkpt lat="43.54484" lon="3.00324">
        <ele>584.7</ele>
        <time>2018-02-25T09:04:24.000Z</time>
      </trkpt>
      <trkpt lat="43.54482" lon="3.00321">
        <ele>584.3</ele>
        <time>2018-02-25T09:04:25.000Z</time>
      </trkpt>
      <trkpt lat="43.54479" lon="3.00317">
        <ele>583.8</ele>
        <time>2018-02-25T09:04:26.000Z</time>
      </trkpt>
      <trkpt lat="43.54476" lon="3.00314">
        <ele>583.3</ele>
        <time>2018-02-25T09:04:27.000Z</time>
      </trkpt>
      <trkpt lat="43.54474" lon="3.00312">
        <ele>582.8</ele>
        <time>2018-02-25T09:04:28.000Z</time>
      </trkpt>
      <trkpt lat="43.54472" lon="3.00309">
        <ele>582.2</ele>
        <time>2018-02-25T09:04:29.000Z</time>
      </trkpt>
      <trkpt lat="43.54471" lon="3.00305">
        <ele>581.5</ele>
        <time>2018-02-25T09:04:30.000Z</time>
      </trkpt>
      <trkpt lat="43.54469" lon="3.003">
        <ele>580.5</ele>
        <time>2018-02-25T09:04:31.000Z</time>
      </trkpt>
      <trkpt lat="43.54467" lon="3.00295">
        <ele>579.5</ele>
        <time>2018-02-25T09:04:32.000Z</time>
      </trkpt>
      <trkpt lat="43.54464" lon="3.00291">
        <ele>578.2</ele>
        <time>2018-02-25T09:04:33.000Z</time>
      </trkpt>
      <trkpt lat="43.54461" lon="3.00286">
        <ele>576.1</ele>
        <time>2018-02-25T09:04:34.000Z</time>
      </trkpt>
      <trkpt lat="43.5446" lon="3.00283">
        <ele>575</ele>
        <time>2018-02-25T09:04:35.000Z</time>
      </trkpt>
      <trkpt lat="43.54458" lon="3.00278">
        <ele>573.7</ele>
        <time>2018-02-25T09:04:37.000Z</time>
      </trkpt>
      <trkpt lat="43.54457" lon="3.00272">
        <ele>571.9</ele>
        <time>2018-02-25T09:04:39.000Z</time>
      </trkpt>
      <trkpt lat="43.54455" lon="3.00268">
        <ele>570.6</ele>
        <time>2018-02-25T09:04:41.000Z</time>
      </trkpt>
      <trkpt lat="43.54454" lon="3.00264">
        <ele>569.8</ele>
        <time>2018-02-25T09:04:44.000Z</time>
      </trkpt>
      <trkpt lat="43.54453" lon="3.00261">
        <ele>569.4</ele>
        <time>2018-02-25T09:04:47.000Z</time>
      </trkpt>
      <trkpt lat="43.5445" lon="3.00256">
        <ele>568.9</ele>
        <time>2018-02-25T09:04:50.000Z</time>
      </trkpt>
      <trkpt lat="43.54446" lon="3.00253">
        <ele>568.5</ele>
        <time>2018-02-25T09:04:52.000Z</time>
      </trkpt>
      <trkpt lat="43.54441" lon="3.0025">
        <ele>568.1</ele>
        <time>2018-02-25T09:04:54.000Z</time>
      </trkpt>
      <trkpt lat="43.54438" lon="3.00248">
        <ele>567.9</ele>
        <time>2018-02-25T09:04:55.000Z</time>
      </trkpt>
      <trkpt lat="43.54435" lon="3.00243">
        <ele>567.7</ele>
        <time>2018-02-25T09:04:57.000Z</time>
      </trkpt>
      <trkpt lat="43.54432" lon="3.0024">
        <ele>567.6</ele>
        <time>2018-02-25T09:04:58.000Z</time>
      </trkpt>
      <trkpt lat="43.5443" lon="3.00237">
        <ele>567.5</ele>
        <time>2018-02-25T09:04:59.000Z</time>
      </trkpt>
      <trkpt lat="43.54427" lon="3.00233">
        <ele>567.4</ele>
        <time>2018-02-25T09:05:00.000Z</time>
      </trkpt>
      <trkpt lat="43.54423" lon="3.00229">
        <ele>567.2</ele>
        <time>2018-02-25T09:05:01.000Z</time>
      </trkpt>
      <trkpt lat="43.54418" lon="3.00225">
        <ele>567.1</ele>
        <time>2018-02-25T09:05:02.000Z</time>
      </trkpt>
      <trkpt lat="43.54414" lon="3.00222">
        <ele>566.9</ele>
        <time>2018-02-25T09:05:03.000Z</time>
      </trkpt>
      <trkpt lat="43.5441" lon="3.00218">
        <ele>566.7</ele>
        <time>2018-02-25T09:05:04.000Z</time>
      </trkpt>
      <trkpt lat="43.54406" lon="3.00213">
        <ele>566.6</ele>
        <time>2018-02-25T09:05:05.000Z</time>
      </trkpt>
      <trkpt lat="43.54402" lon="3.00209">
        <ele>566.3</ele>
        <time>2018-02-25T09:05:06.000Z</time>
      </trkpt>
      <trkpt lat="43.54398" lon="3.00204">
        <ele>566.1</ele>
        <time>2018-02-25T09:05:07.000Z</time>
      </trkpt>
      <trkpt lat="43.54398" lon="3.00187">
        <ele>565.5</ele>
        <time>2018-02-25T09:05:08.000Z</time>
      </trkpt>
      <trkpt lat="43.54398" lon="3.00181">
        <ele>564.9</ele>
        <time>2018-02-25T09:05:09.000Z</time>
      </trkpt>
      <trkpt lat="43.54397" lon="3.00171">
        <ele>563.6</ele>
        <time>2018-02-25T09:05:10.000Z</time>
      </trkpt>
      <trkpt lat="43.54397" lon="3.00162">
        <ele>562.5</ele>
        <time>2018-02-25T09:05:11.000Z</time>
      </trkpt>
      <trkpt lat="43.54392" lon="3.0015">
        <ele>559.9</ele>
        <time>2018-02-25T09:05:12.000Z</time>
      </trkpt>
      <trkpt lat="43.54387" lon="3.00145">
        <ele>558</ele>
        <time>2018-02-25T09:05:13.000Z</time>
      </trkpt>
      <trkpt lat="43.54384" lon="3.00136">
        <ele>556</ele>
        <time>2018-02-25T09:05:14.000Z</time>
      </trkpt>
      <trkpt lat="43.54383" lon="3.00132">
        <ele>555.5</ele>
        <time>2018-02-25T09:05:15.000Z</time>
      </trkpt>
      <trkpt lat="43.54378" lon="3.00125">
        <ele>554.4</ele>
        <time>2018-02-25T09:05:16.000Z</time>
      </trkpt>
      <trkpt lat="43.54377" lon="3.00119">
        <ele>553.7</ele>
        <time>2018-02-25T09:05:17.000Z</time>
      </trkpt>
      <trkpt lat="43.54375" lon="3.0011">
        <ele>553</ele>
        <time>2018-02-25T09:05:18.000Z</time>
      </trkpt>
      <trkpt lat="43.54372" lon="3.00107">
        <ele>552.7</ele>
        <time>2018-02-25T09:05:19.000Z</time>
      </trkpt>
      <trkpt lat="43.54369" lon="3.00104">
        <ele>552.4</ele>
        <time>2018-02-25T09:05:21.000Z</time>
      </trkpt>
      <trkpt lat="43.54366" lon="3.00101">
        <ele>552.2</ele>
        <time>2018-02-25T09:05:22.000Z</time>
      </trkpt>
      <trkpt lat="43.54363" lon="3.00097">
        <ele>552</ele>
        <time>2018-02-25T09:05:23.000Z</time>
      </trkpt>
      <trkpt lat="43.54358" lon="3.00093">
        <ele>551.9</ele>
        <time>2018-02-25T09:05:24.000Z</time>
      </trkpt>
      <trkpt lat="43.54355" lon="3.00088">
        <ele>551.9</ele>
        <time>2018-02-25T09:05:26.000Z</time>
      </trkpt>
      <trkpt lat="43.54351" lon="3.00087">
        <ele>551.8</ele>
        <time>2018-02-25T09:05:27.000Z</time>
      </trkpt>
      <trkpt lat="43.54347" lon="3.00084">
        <ele>551.8</ele>
        <time>2018-02-25T09:05:29.000Z</time>
      </trkpt>
      <trkpt lat="43.54343" lon="3.00081">
        <ele>551.7</ele>
        <time>2018-02-25T09:05:31.000Z</time>
      </trkpt>
      <trkpt lat="43.54337" lon="3.00077">
        <ele>551.7</ele>
        <time>2018-02-25T09:05:33.000Z</time>
      </trkpt>
      <trkpt lat="43.54334" lon="3.00075">
        <ele>551.7</ele>
        <time>2018-02-25T09:05:34.000Z</time>
      </trkpt>
      <trkpt lat="43.5433" lon="3.00072">
        <ele>551.6</ele>
        <time>2018-02-25T09:05:35.000Z</time>
      </trkpt>
      <trkpt lat="43.54327" lon="3.0007">
        <ele>551.6</ele>
        <time>2018-02-25T09:05:36.000Z</time>
      </trkpt>
      <trkpt lat="43.54323" lon="3.00068">
        <ele>551.6</ele>
        <time>2018-02-25T09:05:37.000Z</time>
      </trkpt>
      <trkpt lat="43.5432" lon="3.00065">
        <ele>551.6</ele>
        <time>2018-02-25T09:05:38.000Z</time>
      </trkpt>
      <trkpt lat="43.54317" lon="3.00061">
        <ele>551.6</ele>
        <time>2018-02-25T09:05:39.000Z</time>
      </trkpt>
      <trkpt lat="43.54313" lon="3.00058">
        <ele>551.5</ele>
        <time>2018-02-25T09:05:40.000Z</time>
      </trkpt>
      <trkpt lat="43.54309" lon="3.00055">
        <ele>551.4</ele>
        <time>2018-02-25T09:05:41.000Z</time>
      </trkpt>
      <trkpt lat="43.54305" lon="3.00053">
        <ele>551.3</ele>
        <time>2018-02-25T09:05:42.000Z</time>
      </trkpt>
      <trkpt lat="43.54302" lon="3.00051">
        <ele>551.2</ele>
        <time>2018-02-25T09:05:43.000Z</time>
      </trkpt>
      <trkpt lat="43.54299" lon="3.00048">
        <ele>551.1</ele>
        <time>2018-02-25T09:05:44.000Z</time>
      </trkpt>
      <trkpt lat="43.54297" lon="3.00046">
        <ele>551</ele>
        <time>2018-02-25T09:05:45.000Z</time>
      </trkpt>
      <trkpt lat="43.54292" lon="3.00045">
        <ele>550.7</ele>
        <time>2018-02-25T09:05:47.000Z</time>
      </trkpt>
      <trkpt lat="43.54288" lon="3.00043">
        <ele>550.4</ele>
        <time>2018-02-25T09:05:48.000Z</time>
      </trkpt>
      <trkpt lat="43.54284" lon="3.00041">
        <ele>549.9</ele>
        <time>2018-02-25T09:05:49.000Z</time>
      </trkpt>
      <trkpt lat="43.54281" lon="3.00039">
        <ele>549.4</ele>
        <time>2018-02-25T09:05:50.000Z</time>
      </trkpt>
      <trkpt lat="43.54277" lon="3.00037">
        <ele>548.9</ele>
        <time>2018-02-25T09:05:51.000Z</time>
      </trkpt>
      <trkpt lat="43.54273" lon="3.00034">
        <ele>548.2</ele>
        <time>2018-02-25T09:05:52.000Z</time>
      </trkpt>
      <trkpt lat="43.54268" lon="3.00031">
        <ele>547.3</ele>
        <time>2018-02-25T09:05:53.000Z</time>
      </trkpt>
      <trkpt lat="43.54263" lon="3.00028">
        <ele>546.5</ele>
        <time>2018-02-25T09:05:54.000Z</time>
      </trkpt>
      <trkpt lat="43.54258" lon="3.00024">
        <ele>545.7</ele>
        <time>2018-02-25T09:05:55.000Z</time>
      </trkpt>
      <trkpt lat="43.54247" lon="3.00014">
        <ele>543.7</ele>
        <time>2018-02-25T09:05:56.000Z</time>
      </trkpt>
      <trkpt lat="43.54241" lon="3.00012">
        <ele>542.8</ele>
        <time>2018-02-25T09:05:57.000Z</time>
      </trkpt>
      <trkpt lat="43.54237" lon="3.00009">
        <ele>542.2</ele>
        <time>2018-02-25T09:05:58.000Z</time>
      </trkpt>
      <trkpt lat="43.54233" lon="3.00005">
        <ele>541.4</ele>
        <time>2018-02-25T09:05:59.000Z</time>
      </trkpt>
      <trkpt lat="43.54226" lon="2.99999">
        <ele>540.4</ele>
        <time>2018-02-25T09:06:00.000Z</time>
      </trkpt>
      <trkpt lat="43.54222" lon="2.99996">
        <ele>539.7</ele>
        <time>2018-02-25T09:06:01.000Z</time>
      </trkpt>
      <trkpt lat="43.54215" lon="2.99993">
        <ele>538.6</ele>
        <time>2018-02-25T09:06:02.000Z</time>
      </trkpt>
      <trkpt lat="43.54207" lon="2.99991">
        <ele>537.3</ele>
        <time>2018-02-25T09:06:03.000Z</time>
      </trkpt>
      <trkpt lat="43.54201" lon="2.99985">
        <ele>535.7</ele>
        <time>2018-02-25T09:06:04.000Z</time>
      </trkpt>
      <trkpt lat="43.54195" lon="2.99971">
        <ele>532.7</ele>
        <time>2018-02-25T09:06:06.000Z</time>
      </trkpt>
      <trkpt lat="43.54191" lon="2.99966">
        <ele>531.5</ele>
        <time>2018-02-25T09:06:07.000Z</time>
      </trkpt>
      <trkpt lat="43.54188" lon="2.99962">
        <ele>530.8</ele>
        <time>2018-02-25T09:06:08.000Z</time>
      </trkpt>
      <trkpt lat="43.54184" lon="2.99956">
        <ele>530.1</ele>
        <time>2018-02-25T09:06:09.000Z</time>
      </trkpt>
      <trkpt lat="43.5418" lon="2.99951">
        <ele>529.5</ele>
        <time>2018-02-25T09:06:10.000Z</time>
      </trkpt>
      <trkpt lat="43.54176" lon="2.99944">
        <ele>529.3</ele>
        <time>2018-02-25T09:06:11.000Z</time>
      </trkpt>
      <trkpt lat="43.54173" lon="2.99944">
        <ele>529.1</ele>
        <time>2018-02-25T09:06:12.000Z</time>
      </trkpt>
      <trkpt lat="43.54167" lon="2.99945">
        <ele>528.8</ele>
        <time>2018-02-25T09:06:13.000Z</time>
      </trkpt>
      <trkpt lat="43.54162" lon="2.99944">
        <ele>528.5</ele>
        <time>2018-02-25T09:06:14.000Z</time>
      </trkpt>
      <trkpt lat="43.54157" lon="2.99942">
        <ele>528.2</ele>
        <time>2018-02-25T09:06:15.000Z</time>
      </trkpt>
      <trkpt lat="43.54153" lon="2.99942">
        <ele>528</ele>
        <time>2018-02-25T09:06:16.000Z</time>
      </trkpt>
      <trkpt lat="43.54148" lon="2.99942">
        <ele>527.8</ele>
        <time>2018-02-25T09:06:17.000Z</time>
      </trkpt>
      <trkpt lat="43.54144" lon="2.99941">
        <ele>527.6</ele>
        <time>2018-02-25T09:06:18.000Z</time>
      </trkpt>
      <trkpt lat="43.54139" lon="2.99941">
        <ele>527.5</ele>
        <time>2018-02-25T09:06:19.000Z</time>
      </trkpt>
      <trkpt lat="43.54137" lon="2.99944">
        <ele>527.5</ele>
        <time>2018-02-25T09:06:20.000Z</time>
      </trkpt>
      <trkpt lat="43.54133" lon="2.99944">
        <ele>527.4</ele>
        <time>2018-02-25T09:06:21.000Z</time>
      </trkpt>
      <trkpt lat="43.5413" lon="2.99945">
        <ele>527.4</ele>
        <time>2018-02-25T09:06:22.000Z</time>
      </trkpt>
      <trkpt lat="43.54127" lon="2.99946">
        <ele>527.3</ele>
        <time>2018-02-25T09:06:23.000Z</time>
      </trkpt>
      <trkpt lat="43.54125" lon="2.99945">
        <ele>527.3</ele>
        <time>2018-02-25T09:06:24.000Z</time>
      </trkpt>
      <trkpt lat="43.54121" lon="2.99943">
        <ele>527.2</ele>
        <time>2018-02-25T09:06:26.000Z</time>
      </trkpt>
      <trkpt lat="43.54117" lon="2.99939">
        <ele>527</ele>
        <time>2018-02-25T09:06:28.000Z</time>
      </trkpt>
      <trkpt lat="43.54114" lon="2.99936">
        <ele>526.8</ele>
        <time>2018-02-25T09:06:31.000Z</time>
      </trkpt>
      <trkpt lat="43.54111" lon="2.99935">
        <ele>526.6</ele>
        <time>2018-02-25T09:06:33.000Z</time>
      </trkpt>
      <trkpt lat="43.54107" lon="2.99932">
        <ele>525.8</ele>
        <time>2018-02-25T09:06:35.000Z</time>
      </trkpt>
      <trkpt lat="43.54102" lon="2.99931">
        <ele>524.6</ele>
        <time>2018-02-25T09:06:37.000Z</time>
      </trkpt>
      <trkpt lat="43.54099" lon="2.9993">
        <ele>523.6</ele>
        <time>2018-02-25T09:06:39.000Z</time>
      </trkpt>
      <trkpt lat="43.54096" lon="2.99926">
        <ele>522.3</ele>
        <time>2018-02-25T09:06:41.000Z</time>
      </trkpt>
      <trkpt lat="43.54093" lon="2.99922">
        <ele>520.7</ele>
        <time>2018-02-25T09:06:43.000Z</time>
      </trkpt>
      <trkpt lat="43.5409" lon="2.99921">
        <ele>519.3</ele>
        <time>2018-02-25T09:06:44.000Z</time>
      </trkpt>
      <trkpt lat="43.54084" lon="2.99916">
        <ele>516.2</ele>
        <time>2018-02-25T09:06:45.000Z</time>
      </trkpt>
      <trkpt lat="43.5408" lon="2.99912">
        <ele>514.7</ele>
        <time>2018-02-25T09:06:46.000Z</time>
      </trkpt>
      <trkpt lat="43.54075" lon="2.99908">
        <ele>513.3</ele>
        <time>2018-02-25T09:06:47.000Z</time>
      </trkpt>
      <trkpt lat="43.5407" lon="2.99905">
        <ele>512.3</ele>
        <time>2018-02-25T09:06:48.000Z</time>
      </trkpt>
      <trkpt lat="43.54067" lon="2.99902">
        <ele>511.5</ele>
        <time>2018-02-25T09:06:49.000Z</time>
      </trkpt>
      <trkpt lat="43.54065" lon="2.999">
        <ele>510.8</ele>
        <time>2018-02-25T09:06:50.000Z</time>
      </trkpt>
      <trkpt lat="43.54062" lon="2.99896">
        <ele>509.6</ele>
        <time>2018-02-25T09:06:52.000Z</time>
      </trkpt>
      <trkpt lat="43.54058" lon="2.99895">
        <ele>508.6</ele>
        <time>2018-02-25T09:06:54.000Z</time>
      </trkpt>
      <trkpt lat="43.54053" lon="2.99892">
        <ele>506.3</ele>
        <time>2018-02-25T09:06:56.000Z</time>
      </trkpt>
      <trkpt lat="43.5405" lon="2.99888">
        <ele>505.2</ele>
        <time>2018-02-25T09:06:58.000Z</time>
      </trkpt>
      <trkpt lat="43.54049" lon="2.99884">
        <ele>504.4</ele>
        <time>2018-02-25T09:07:00.000Z</time>
      </trkpt>
      <trkpt lat="43.54047" lon="2.99875">
        <ele>503.2</ele>
        <time>2018-02-25T09:08:50.000Z</time>
      </trkpt>
      <trkpt lat="43.54046" lon="2.99872">
        <ele>502.8</ele>
        <time>2018-02-25T09:08:57.000Z</time>
      </trkpt>
      <trkpt lat="43.54041" lon="2.99864">
        <ele>501.2</ele>
        <time>2018-02-25T09:11:40.000Z</time>
      </trkpt>
      <trkpt lat="43.5404" lon="2.99861">
        <ele>499.8</ele>
        <time>2018-02-25T09:11:41.000Z</time>
      </trkpt>
      <trkpt lat="43.54039" lon="2.99854">
        <ele>497</ele>
        <time>2018-02-25T09:11:43.000Z</time>
      </trkpt>
      <trkpt lat="43.54038" lon="2.99849">
        <ele>495.8</ele>
        <time>2018-02-25T09:11:45.000Z</time>
      </trkpt>
      <trkpt lat="43.54037" lon="2.99845">
        <ele>495</ele>
        <time>2018-02-25T09:11:48.000Z</time>
      </trkpt>
      <trkpt lat="43.54036" lon="2.99841">
        <ele>494.8</ele>
        <time>2018-02-25T09:11:56.000Z</time>
      </trkpt>
      <trkpt lat="43.54037" lon="2.99837">
        <ele>494.5</ele>
        <time>2018-02-25T09:13:17.000Z</time>
      </trkpt>
      <trkpt lat="43.54037" lon="2.99833">
        <ele>494.3</ele>
        <time>2018-02-25T09:13:19.000Z</time>
      </trkpt>
      <trkpt lat="43.54037" lon="2.99829">
        <ele>494.1</ele>
        <time>2018-02-25T09:13:20.000Z</time>
      </trkpt>
      <trkpt lat="43.54037" lon="2.99824">
        <ele>493.8</ele>
        <time>2018-02-25T09:13:21.000Z</time>
      </trkpt>
      <trkpt lat="43.54038" lon="2.99819">
        <ele>493.3</ele>
        <time>2018-02-25T09:13:22.000Z</time>
      </trkpt>
      <trkpt lat="43.54039" lon="2.99813">
        <ele>492.8</ele>
        <time>2018-02-25T09:13:23.000Z</time>
      </trkpt>
      <trkpt lat="43.5404" lon="2.99808">
        <ele>492.2</ele>
        <time>2018-02-25T09:13:24.000Z</time>
      </trkpt>
      <trkpt lat="43.54041" lon="2.99804">
        <ele>491.7</ele>
        <time>2018-02-25T09:13:25.000Z</time>
      </trkpt>
      <trkpt lat="43.54042" lon="2.99796">
        <ele>490.8</ele>
        <time>2018-02-25T09:13:26.000Z</time>
      </trkpt>
      <trkpt lat="43.54042" lon="2.9979">
        <ele>490</ele>
        <time>2018-02-25T09:13:27.000Z</time>
      </trkpt>
      <trkpt lat="43.54041" lon="2.99783">
        <ele>489</ele>
        <time>2018-02-25T09:13:28.000Z</time>
      </trkpt>
      <trkpt lat="43.54035" lon="2.99779">
        <ele>487.9</ele>
        <time>2018-02-25T09:13:30.000Z</time>
      </trkpt>
      <trkpt lat="43.54033" lon="2.99775">
        <ele>487.3</ele>
        <time>2018-02-25T09:13:31.000Z</time>
      </trkpt>
      <trkpt lat="43.54033" lon="2.9977">
        <ele>486.7</ele>
        <time>2018-02-25T09:13:32.000Z</time>
      </trkpt>
      <trkpt lat="43.54032" lon="2.99765">
        <ele>486.2</ele>
        <time>2018-02-25T09:13:33.000Z</time>
      </trkpt>
      <trkpt lat="43.54031" lon="2.99769">
        <ele>485.6</ele>
        <time>2018-02-25T09:13:35.000Z</time>
      </trkpt>
      <trkpt lat="43.54029" lon="2.99765">
        <ele>485</ele>
        <time>2018-02-25T09:13:37.000Z</time>
      </trkpt>
      <trkpt lat="43.54028" lon="2.99761">
        <ele>484.5</ele>
        <time>2018-02-25T09:13:38.000Z</time>
      </trkpt>
      <trkpt lat="43.54026" lon="2.99757">
        <ele>483.8</ele>
        <time>2018-02-25T09:13:39.000Z</time>
      </trkpt>
      <trkpt lat="43.54023" lon="2.99755">
        <ele>482.8</ele>
        <time>2018-02-25T09:13:40.000Z</time>
      </trkpt>
      <trkpt lat="43.5402" lon="2.99753">
        <ele>481.2</ele>
        <time>2018-02-25T09:13:41.000Z</time>
      </trkpt>
      <trkpt lat="43.54017" lon="2.9975">
        <ele>479.9</ele>
        <time>2018-02-25T09:13:42.000Z</time>
      </trkpt>
      <trkpt lat="43.54015" lon="2.99748">
        <ele>479</ele>
        <time>2018-02-25T09:13:43.000Z</time>
      </trkpt>
      <trkpt lat="43.54013" lon="2.99746">
        <ele>478.1</ele>
        <time>2018-02-25T09:13:44.000Z</time>
      </trkpt>
      <trkpt lat="43.5401" lon="2.99743">
        <ele>477.3</ele>
        <time>2018-02-25T09:13:45.000Z</time>
      </trkpt>
      <trkpt lat="43.54007" lon="2.99742">
        <ele>476.3</ele>
        <time>2018-02-25T09:13:46.000Z</time>
      </trkpt>
      <trkpt lat="43.54004" lon="2.9974">
        <ele>475.2</ele>
        <time>2018-02-25T09:13:47.000Z</time>
      </trkpt>
      <trkpt lat="43.54001" lon="2.99739">
        <ele>474.1</ele>
        <time>2018-02-25T09:13:48.000Z</time>
      </trkpt>
      <trkpt lat="43.53998" lon="2.99741">
        <ele>472.6</ele>
        <time>2018-02-25T09:13:50.000Z</time>
      </trkpt>
      <trkpt lat="43.53996" lon="2.99747">
        <ele>471.8</ele>
        <time>2018-02-25T09:13:52.000Z</time>
      </trkpt>
      <trkpt lat="43.53996" lon="2.99751">
        <ele>472.1</ele>
        <time>2018-02-25T09:13:55.000Z</time>
      </trkpt>
      <trkpt lat="43.53993" lon="2.99753">
        <ele>470.6</ele>
        <time>2018-02-25T09:14:07.000Z</time>
      </trkpt>
      <trkpt lat="43.53993" lon="2.99758">
        <ele>470.9</ele>
        <time>2018-02-25T09:14:10.000Z</time>
      </trkpt>
      <trkpt lat="43.53989" lon="2.99763">
        <ele>469.8</ele>
        <time>2018-02-25T09:14:12.000Z</time>
      </trkpt>
      <trkpt lat="43.53988" lon="2.99767">
        <ele>470.1</ele>
        <time>2018-02-25T09:14:13.000Z</time>
      </trkpt>
      <trkpt lat="43.53984" lon="2.9977">
        <ele>469.1</ele>
        <time>2018-02-25T09:14:15.000Z</time>
      </trkpt>
      <trkpt lat="43.53982" lon="2.99774">
        <ele>468</ele>
        <time>2018-02-25T09:14:17.000Z</time>
      </trkpt>
      <trkpt lat="43.53983" lon="2.99779">
        <ele>468.1</ele>
        <time>2018-02-25T09:14:19.000Z</time>
      </trkpt>
      <trkpt lat="43.53984" lon="2.99784">
        <ele>469.5</ele>
        <time>2018-02-25T09:14:21.000Z</time>
      </trkpt>
      <trkpt lat="43.53984" lon="2.99789">
        <ele>469.6</ele>
        <time>2018-02-25T09:14:23.000Z</time>
      </trkpt>
      <trkpt lat="43.53983" lon="2.99793">
        <ele>468.4</ele>
        <time>2018-02-25T09:14:24.000Z</time>
      </trkpt>
      <trkpt lat="43.53981" lon="2.99797">
        <ele>468.4</ele>
        <time>2018-02-25T09:14:25.000Z</time>
      </trkpt>
      <trkpt lat="43.53978" lon="2.99801">
        <ele>467</ele>
        <time>2018-02-25T09:14:26.000Z</time>
      </trkpt>
      <trkpt lat="43.53976" lon="2.99805">
        <ele>465.6</ele>
        <time>2018-02-25T09:14:27.000Z</time>
      </trkpt>
      <trkpt lat="43.53977" lon="2.99814">
        <ele>465.5</ele>
        <time>2018-02-25T09:14:28.000Z</time>
      </trkpt>
      <trkpt lat="43.53976" lon="2.9982">
        <ele>465.3</ele>
        <time>2018-02-25T09:14:29.000Z</time>
      </trkpt>
      <trkpt lat="43.53974" lon="2.99828">
        <ele>463.6</ele>
        <time>2018-02-25T09:14:30.000Z</time>
      </trkpt>
      <trkpt lat="43.53972" lon="2.9984">
        <ele>463.2</ele>
        <time>2018-02-25T09:14:31.000Z</time>
      </trkpt>
      <trkpt lat="43.53969" lon="2.99846">
        <ele>461.3</ele>
        <time>2018-02-25T09:14:32.000Z</time>
      </trkpt>
      <trkpt lat="43.53968" lon="2.99853">
        <ele>461.1</ele>
        <time>2018-02-25T09:14:33.000Z</time>
      </trkpt>
      <trkpt lat="43.53964" lon="2.99858">
        <ele>457.9</ele>
        <time>2018-02-25T09:14:34.000Z</time>
      </trkpt>
      <trkpt lat="43.53961" lon="2.99864">
        <ele>456.4</ele>
        <time>2018-02-25T09:14:35.000Z</time>
      </trkpt>
      <trkpt lat="43.53958" lon="2.9987">
        <ele>454.9</ele>
        <time>2018-02-25T09:14:36.000Z</time>
      </trkpt>
      <trkpt lat="43.53953" lon="2.9988">
        <ele>452.9</ele>
        <time>2018-02-25T09:14:37.000Z</time>
      </trkpt>
      <trkpt lat="43.53952" lon="2.99884">
        <ele>451.2</ele>
        <time>2018-02-25T09:14:38.000Z</time>
      </trkpt>
      <trkpt lat="43.53951" lon="2.99889">
        <ele>450.8</ele>
        <time>2018-02-25T09:14:39.000Z</time>
      </trkpt>
      <trkpt lat="43.5395" lon="2.99895">
        <ele>450.4</ele>
        <time>2018-02-25T09:14:40.000Z</time>
      </trkpt>
      <trkpt lat="43.53946" lon="2.99906">
        <ele>446.3</ele>
        <time>2018-02-25T09:14:41.000Z</time>
      </trkpt>
      <trkpt lat="43.53943" lon="2.99914">
        <ele>444.3</ele>
        <time>2018-02-25T09:14:42.000Z</time>
      </trkpt>
      <trkpt lat="43.53941" lon="2.9992">
        <ele>443.4</ele>
        <time>2018-02-25T09:14:43.000Z</time>
      </trkpt>
      <trkpt lat="43.53939" lon="2.99924">
        <ele>441.5</ele>
        <time>2018-02-25T09:14:44.000Z</time>
      </trkpt>
      <trkpt lat="43.53935" lon="2.99934">
        <ele>438.8</ele>
        <time>2018-02-25T09:14:45.000Z</time>
      </trkpt>
      <trkpt lat="43.53933" lon="2.99938">
        <ele>436.9</ele>
        <time>2018-02-25T09:14:46.000Z</time>
      </trkpt>
      <trkpt lat="43.53931" lon="2.99942">
        <ele>436.3</ele>
        <time>2018-02-25T09:14:47.000Z</time>
      </trkpt>
      <trkpt lat="43.5393" lon="2.99947">
        <ele>434.2</ele>
        <time>2018-02-25T09:14:48.000Z</time>
      </trkpt>
      <trkpt lat="43.53926" lon="2.99949">
        <ele>432.2</ele>
        <time>2018-02-25T09:14:49.000Z</time>
      </trkpt>
      <trkpt lat="43.53924" lon="2.99952">
        <ele>430.6</ele>
        <time>2018-02-25T09:14:50.000Z</time>
      </trkpt>
      <trkpt lat="43.53924" lon="2.99959">
        <ele>429.5</ele>
        <time>2018-02-25T09:14:51.000Z</time>
      </trkpt>
      <trkpt lat="43.53925" lon="2.99965">
        <ele>430.4</ele>
        <time>2018-02-25T09:14:53.000Z</time>
      </trkpt>
      <trkpt lat="43.53927" lon="2.99968">
        <ele>429.8</ele>
        <time>2018-02-25T09:14:56.000Z</time>
      </trkpt>
      <trkpt lat="43.53928" lon="2.99974">
        <ele>428.6</ele>
        <time>2018-02-25T09:14:58.000Z</time>
      </trkpt>
      <trkpt lat="43.53929" lon="2.99979">
        <ele>429.3</ele>
        <time>2018-02-25T09:14:59.000Z</time>
      </trkpt>
      <trkpt lat="43.53931" lon="2.99983">
        <ele>429.8</ele>
        <time>2018-02-25T09:15:00.000Z</time>
      </trkpt>
      <trkpt lat="43.53937" lon="2.9999">
        <ele>430.2</ele>
        <time>2018-02-25T09:15:01.000Z</time>
      </trkpt>
      <trkpt lat="43.53941" lon="2.99996">
        <ele>430.9</ele>
        <time>2018-02-25T09:15:02.000Z</time>
      </trkpt>
      <trkpt lat="43.53946" lon="3">
        <ele>431.2</ele>
        <time>2018-02-25T09:15:03.000Z</time>
      </trkpt>
      <trkpt lat="43.53951" lon="3.00005">
        <ele>432.9</ele>
        <time>2018-02-25T09:15:04.000Z</time>
      </trkpt>
      <trkpt lat="43.53958" lon="3.00008">
        <ele>435.2</ele>
        <time>2018-02-25T09:15:05.000Z</time>
      </trkpt>
      <trkpt lat="43.53963" lon="3.00012">
        <ele>436.3</ele>
        <time>2018-02-25T09:15:06.000Z</time>
      </trkpt>
      <trkpt lat="43.53969" lon="3.00017">
        <ele>437.6</ele>
        <time>2018-02-25T09:15:07.000Z</time>
      </trkpt>
      <trkpt lat="43.53968" lon="3.00021">
        <ele>434</ele>
        <time>2018-02-25T09:15:08.000Z</time>
      </trkpt>
      <trkpt lat="43.53972" lon="3.00023">
        <ele>436.4</ele>
        <time>2018-02-25T09:15:09.000Z</time>
      </trkpt>
      <trkpt lat="43.53978" lon="3.00029">
        <ele>437.4</ele>
        <time>2018-02-25T09:15:10.000Z</time>
      </trkpt>
      <trkpt lat="43.5398" lon="3.00032">
        <ele>435.9</ele>
        <time>2018-02-25T09:15:11.000Z</time>
      </trkpt>
      <trkpt lat="43.53984" lon="3.00039">
        <ele>434.8</ele>
        <time>2018-02-25T09:15:12.000Z</time>
      </trkpt>
      <trkpt lat="43.53987" lon="3.00046">
        <ele>433.3</ele>
        <time>2018-02-25T09:15:13.000Z</time>
      </trkpt>
      <trkpt lat="43.53991" lon="3.00051">
        <ele>433.7</ele>
        <time>2018-02-25T09:15:14.000Z</time>
      </trkpt>
      <trkpt lat="43.53996" lon="3.00053">
        <ele>433.3</ele>
        <time>2018-02-25T09:15:15.000Z</time>
      </trkpt>
      <trkpt lat="43.53998" lon="3.00058">
        <ele>432.9</ele>
        <time>2018-02-25T09:15:16.000Z</time>
      </trkpt>
      <trkpt lat="43.53997" lon="3.00062">
        <ele>431.5</ele>
        <time>2018-02-25T09:15:19.000Z</time>
      </trkpt>
      <trkpt lat="43.54001" lon="3.00065">
        <ele>431.1</ele>
        <time>2018-02-25T09:15:20.000Z</time>
      </trkpt>
      <trkpt lat="43.54003" lon="3.00069">
        <ele>430.7</ele>
        <time>2018-02-25T09:15:21.000Z</time>
      </trkpt>
      <trkpt lat="43.54005" lon="3.00071">
        <ele>430.6</ele>
        <time>2018-02-25T09:15:22.000Z</time>
      </trkpt>
      <trkpt lat="43.54008" lon="3.00077">
        <ele>430.1</ele>
        <time>2018-02-25T09:15:24.000Z</time>
      </trkpt>
      <trkpt lat="43.54009" lon="3.0008">
        <ele>429.5</ele>
        <time>2018-02-25T09:15:25.000Z</time>
      </trkpt>
      <trkpt lat="43.54012" lon="3.00083">
        <ele>428</ele>
        <time>2018-02-25T09:15:26.000Z</time>
      </trkpt>
      <trkpt lat="43.54014" lon="3.00087">
        <ele>427.5</ele>
        <time>2018-02-25T09:15:27.000Z</time>
      </trkpt>
      <trkpt lat="43.54017" lon="3.0009">
        <ele>427.1</ele>
        <time>2018-02-25T09:15:28.000Z</time>
      </trkpt>
      <trkpt lat="43.54018" lon="3.00094">
        <ele>427.1</ele>
        <time>2018-02-25T09:15:29.000Z</time>
      </trkpt>
      <trkpt lat="43.54019" lon="3.001">
        <ele>425.7</ele>
        <time>2018-02-25T09:15:31.000Z</time>
      </trkpt>
      <trkpt lat="43.54022" lon="3.00106">
        <ele>425.6</ele>
        <time>2018-02-25T09:15:33.000Z</time>
      </trkpt>
      <trkpt lat="43.54025" lon="3.00109">
        <ele>425.6</ele>
        <time>2018-02-25T09:15:34.000Z</time>
      </trkpt>
      <trkpt lat="43.54027" lon="3.00112">
        <ele>424.2</ele>
        <time>2018-02-25T09:15:35.000Z</time>
      </trkpt>
      <trkpt lat="43.5403" lon="3.00115">
        <ele>425.5</ele>
        <time>2018-02-25T09:15:36.000Z</time>
      </trkpt>
      <trkpt lat="43.54031" lon="3.00119">
        <ele>425.6</ele>
        <time>2018-02-25T09:15:37.000Z</time>
      </trkpt>
      <trkpt lat="43.54033" lon="3.00123">
        <ele>424.3</ele>
        <time>2018-02-25T09:15:38.000Z</time>
      </trkpt>
      <trkpt lat="43.54034" lon="3.00128">
        <ele>424.5</ele>
        <time>2018-02-25T09:15:39.000Z</time>
      </trkpt>
      <trkpt lat="43.54035" lon="3.00132">
        <ele>423.4</ele>
        <time>2018-02-25T09:15:40.000Z</time>
      </trkpt>
      <trkpt lat="43.54036" lon="3.00136">
        <ele>422.3</ele>
        <time>2018-02-25T09:15:41.000Z</time>
      </trkpt>
      <trkpt lat="43.54037" lon="3.00141">
        <ele>422.8</ele>
        <time>2018-02-25T09:15:42.000Z</time>
      </trkpt>
      <trkpt lat="43.54038" lon="3.00147">
        <ele>421.2</ele>
        <time>2018-02-25T09:15:43.000Z</time>
      </trkpt>
      <trkpt lat="43.54037" lon="3.00153">
        <ele>420.4</ele>
        <time>2018-02-25T09:15:44.000Z</time>
      </trkpt>
      <trkpt lat="43.54036" lon="3.00158">
        <ele>418</ele>
        <time>2018-02-25T09:15:45.000Z</time>
      </trkpt>
      <trkpt lat="43.54035" lon="3.00164">
        <ele>416.5</ele>
        <time>2018-02-25T09:15:46.000Z</time>
      </trkpt>
      <trkpt lat="43.54035" lon="3.0017">
        <ele>415.7</ele>
        <time>2018-02-25T09:15:47.000Z</time>
      </trkpt>
      <trkpt lat="43.54035" lon="3.00175">
        <ele>414.9</ele>
        <time>2018-02-25T09:15:48.000Z</time>
      </trkpt>
      <trkpt lat="43.54033" lon="3.00181">
        <ele>411.8</ele>
        <time>2018-02-25T09:15:49.000Z</time>
      </trkpt>
      <trkpt lat="43.54032" lon="3.00187">
        <ele>411.1</ele>
        <time>2018-02-25T09:15:50.000Z</time>
      </trkpt>
      <trkpt lat="43.54031" lon="3.00191">
        <ele>410.5</ele>
        <time>2018-02-25T09:15:51.000Z</time>
      </trkpt>
      <trkpt lat="43.54029" lon="3.00195">
        <ele>408</ele>
        <time>2018-02-25T09:15:52.000Z</time>
      </trkpt>
      <trkpt lat="43.54026" lon="3.00201">
        <ele>405.6</ele>
        <time>2018-02-25T09:15:53.000Z</time>
      </trkpt>
      <trkpt lat="43.54023" lon="3.00208">
        <ele>402.7</ele>
        <time>2018-02-25T09:15:54.000Z</time>
      </trkpt>
      <trkpt lat="43.54021" lon="3.00213">
        <ele>400.5</ele>
        <time>2018-02-25T09:15:55.000Z</time>
      </trkpt>
      <trkpt lat="43.54019" lon="3.00216">
        <ele>399.9</ele>
        <time>2018-02-25T09:15:56.000Z</time>
      </trkpt>
      <trkpt lat="43.54017" lon="3.0022">
        <ele>397.7</ele>
        <time>2018-02-25T09:15:58.000Z</time>
      </trkpt>
      <trkpt lat="43.54015" lon="3.00218">
        <ele>396.6</ele>
        <time>2018-02-25T09:16:01.000Z</time>
      </trkpt>
      <trkpt lat="43.54016" lon="3.00212">
        <ele>398.6</ele>
        <time>2018-02-25T09:16:03.000Z</time>
      </trkpt>
      <trkpt lat="43.54018" lon="3.00207">
        <ele>399.1</ele>
        <time>2018-02-25T09:16:05.000Z</time>
      </trkpt>
      <trkpt lat="43.54019" lon="3.00203">
        <ele>401.3</ele>
        <time>2018-02-25T09:16:07.000Z</time>
      </trkpt>
      <trkpt lat="43.54021" lon="3.00206">
        <ele>400.6</ele>
        <time>2018-02-25T09:16:09.000Z</time>
      </trkpt>
      <trkpt lat="43.54019" lon="3.00212">
        <ele>400.1</ele>
        <time>2018-02-25T09:16:12.000Z</time>
      </trkpt>
      <trkpt lat="43.54017" lon="3.00219">
        <ele>397.4</ele>
        <time>2018-02-25T09:16:14.000Z</time>
      </trkpt>
      <trkpt lat="43.54015" lon="3.00222">
        <ele>395.7</ele>
        <time>2018-02-25T09:16:15.000Z</time>
      </trkpt>
      <trkpt lat="43.54013" lon="3.00226">
        <ele>395.3</ele>
        <time>2018-02-25T09:16:16.000Z</time>
      </trkpt>
      <trkpt lat="43.54011" lon="3.0023">
        <ele>393.2</ele>
        <time>2018-02-25T09:16:17.000Z</time>
      </trkpt>
      <trkpt lat="43.54008" lon="3.00234">
        <ele>391.2</ele>
        <time>2018-02-25T09:16:18.000Z</time>
      </trkpt>
      <trkpt lat="43.54005" lon="3.00237">
        <ele>389.2</ele>
        <time>2018-02-25T09:16:19.000Z</time>
      </trkpt>
      <trkpt lat="43.54003" lon="3.0024">
        <ele>389.2</ele>
        <time>2018-02-25T09:16:20.000Z</time>
      </trkpt>
      <trkpt lat="43.54002" lon="3.00243">
        <ele>387.1</ele>
        <time>2018-02-25T09:16:21.000Z</time>
      </trkpt>
      <trkpt lat="43.54" lon="3.00247">
        <ele>386.7</ele>
        <time>2018-02-25T09:16:22.000Z</time>
      </trkpt>
      <trkpt lat="43.53998" lon="3.0025">
        <ele>384.6</ele>
        <time>2018-02-25T09:16:23.000Z</time>
      </trkpt>
      <trkpt lat="43.53996" lon="3.00254">
        <ele>382.5</ele>
        <time>2018-02-25T09:16:24.000Z</time>
      </trkpt>
      <trkpt lat="43.53994" lon="3.00257">
        <ele>382.4</ele>
        <time>2018-02-25T09:16:25.000Z</time>
      </trkpt>
      <trkpt lat="43.53992" lon="3.0026">
        <ele>380.5</ele>
        <time>2018-02-25T09:16:26.000Z</time>
      </trkpt>
      <trkpt lat="43.5399" lon="3.00263">
        <ele>380.2</ele>
        <time>2018-02-25T09:16:27.000Z</time>
      </trkpt>
      <trkpt lat="43.53988" lon="3.00267">
        <ele>378.5</ele>
        <time>2018-02-25T09:16:28.000Z</time>
      </trkpt>
      <trkpt lat="43.53986" lon="3.00271">
        <ele>376.9</ele>
        <time>2018-02-25T09:16:29.000Z</time>
      </trkpt>
      <trkpt lat="43.53983" lon="3.00275">
        <ele>375.3</ele>
        <time>2018-02-25T09:16:30.000Z</time>
      </trkpt>
      <trkpt lat="43.5398" lon="3.00278">
        <ele>373.8</ele>
        <time>2018-02-25T09:16:31.000Z</time>
      </trkpt>
      <trkpt lat="43.53977" lon="3.00281">
        <ele>372.2</ele>
        <time>2018-02-25T09:16:32.000Z</time>
      </trkpt>
      <trkpt lat="43.53975" lon="3.00284">
        <ele>372.1</ele>
        <time>2018-02-25T09:16:33.000Z</time>
      </trkpt>
      <trkpt lat="43.53972" lon="3.00287">
        <ele>370.4</ele>
        <time>2018-02-25T09:16:34.000Z</time>
      </trkpt>
      <trkpt lat="43.53969" lon="3.00289">
        <ele>368.7</ele>
        <time>2018-02-25T09:16:35.000Z</time>
      </trkpt>
      <trkpt lat="43.53965" lon="3.00293">
        <ele>365.6</ele>
        <time>2018-02-25T09:16:37.000Z</time>
      </trkpt>
      <trkpt lat="43.53962" lon="3.00296">
        <ele>364.4</ele>
        <time>2018-02-25T09:16:39.000Z</time>
      </trkpt>
      <trkpt lat="43.5396" lon="3.003">
        <ele>364.3</ele>
        <time>2018-02-25T09:16:40.000Z</time>
      </trkpt>
      <trkpt lat="43.53957" lon="3.00304">
        <ele>363.1</ele>
        <time>2018-02-25T09:16:41.000Z</time>
      </trkpt>
      <trkpt lat="43.53953" lon="3.00308">
        <ele>361.9</ele>
        <time>2018-02-25T09:16:42.000Z</time>
      </trkpt>
      <trkpt lat="43.5395" lon="3.00311">
        <ele>360.6</ele>
        <time>2018-02-25T09:16:43.000Z</time>
      </trkpt>
      <trkpt lat="43.53947" lon="3.00316">
        <ele>359.2</ele>
        <time>2018-02-25T09:16:45.000Z</time>
      </trkpt>
      <trkpt lat="43.53944" lon="3.0032">
        <ele>357.8</ele>
        <time>2018-02-25T09:16:46.000Z</time>
      </trkpt>
      <trkpt lat="43.5394" lon="3.00324">
        <ele>356.6</ele>
        <time>2018-02-25T09:16:47.000Z</time>
      </trkpt>
      <trkpt lat="43.53938" lon="3.00327">
        <ele>355.5</ele>
        <time>2018-02-25T09:16:48.000Z</time>
      </trkpt>
      <trkpt lat="43.53935" lon="3.0033">
        <ele>354.2</ele>
        <time>2018-02-25T09:16:49.000Z</time>
      </trkpt>
      <trkpt lat="43.53933" lon="3.00333">
        <ele>353.3</ele>
        <time>2018-02-25T09:16:50.000Z</time>
      </trkpt>
      <trkpt lat="43.5393" lon="3.00335">
        <ele>352.5</ele>
        <time>2018-02-25T09:16:51.000Z</time>
      </trkpt>
      <trkpt lat="43.53926" lon="3.00335">
        <ele>351.2</ele>
        <time>2018-02-25T09:16:52.000Z</time>
      </trkpt>
      <trkpt lat="43.53923" lon="3.00336">
        <ele>349.9</ele>
        <time>2018-02-25T09:16:53.000Z</time>
      </trkpt>
      <trkpt lat="43.53919" lon="3.00337">
        <ele>348.5</ele>
        <time>2018-02-25T09:16:54.000Z</time>
      </trkpt>
      <trkpt lat="43.53915" lon="3.0034">
        <ele>346.3</ele>
        <time>2018-02-25T09:16:55.000Z</time>
      </trkpt>
      <trkpt lat="43.53911" lon="3.00343">
        <ele>345</ele>
        <time>2018-02-25T09:16:56.000Z</time>
      </trkpt>
      <trkpt lat="43.53907" lon="3.00346">
        <ele>344.3</ele>
        <time>2018-02-25T09:16:57.000Z</time>
      </trkpt>
      <trkpt lat="43.53903" lon="3.00349">
        <ele>343.7</ele>
        <time>2018-02-25T09:16:58.000Z</time>
      </trkpt>
      <trkpt lat="43.53899" lon="3.00352">
        <ele>341.9</ele>
        <time>2018-02-25T09:16:59.000Z</time>
      </trkpt>
      <trkpt lat="43.53894" lon="3.00356">
        <ele>341.3</ele>
        <time>2018-02-25T09:17:00.000Z</time>
      </trkpt>
      <trkpt lat="43.5389" lon="3.00358">
        <ele>338.9</ele>
        <time>2018-02-25T09:17:01.000Z</time>
      </trkpt>
      <trkpt lat="43.53887" lon="3.0036">
        <ele>337.6</ele>
        <time>2018-02-25T09:17:02.000Z</time>
      </trkpt>
      <trkpt lat="43.53871" lon="3.00365">
        <ele>333.4</ele>
        <time>2018-02-25T09:17:06.000Z</time>
      </trkpt>
      <trkpt lat="43.5386" lon="3.00372">
        <ele>330.4</ele>
        <time>2018-02-25T09:17:54.000Z</time>
      </trkpt>
      <trkpt lat="43.53848" lon="3.00379">
        <ele>327.1</ele>
        <time>2018-02-25T09:17:55.000Z</time>
      </trkpt>
      <trkpt lat="43.53842" lon="3.0038">
        <ele>325.2</ele>
        <time>2018-02-25T09:17:56.000Z</time>
      </trkpt>
      <trkpt lat="43.53834" lon="3.00379">
        <ele>322</ele>
        <time>2018-02-25T09:17:57.000Z</time>
      </trkpt>
      <trkpt lat="43.5383" lon="3.0038">
        <ele>320.9</ele>
        <time>2018-02-25T09:17:58.000Z</time>
      </trkpt>
      <trkpt lat="43.53826" lon="3.00381">
        <ele>319.9</ele>
        <time>2018-02-25T09:17:59.000Z</time>
      </trkpt>
      <trkpt lat="43.53823" lon="3.00379">
        <ele>319</ele>
        <time>2018-02-25T09:18:00.000Z</time>
      </trkpt>
      <trkpt lat="43.53819" lon="3.00381">
        <ele>318.1</ele>
        <time>2018-02-25T09:18:01.000Z</time>
      </trkpt>
      <trkpt lat="43.53816" lon="3.00382">
        <ele>317.8</ele>
        <time>2018-02-25T09:18:53.000Z</time>
      </trkpt>
      <trkpt lat="43.53812" lon="3.00385">
        <ele>315.8</ele>
        <time>2018-02-25T09:18:58.000Z</time>
      </trkpt>
      <trkpt lat="43.53809" lon="3.00387">
        <ele>315.2</ele>
        <time>2018-02-25T09:19:00.000Z</time>
      </trkpt>
      <trkpt lat="43.53806" lon="3.00388">
        <ele>314.2</ele>
        <time>2018-02-25T09:19:01.000Z</time>
      </trkpt>
      <trkpt lat="43.53803" lon="3.00389">
        <ele>313.2</ele>
        <time>2018-02-25T09:19:02.000Z</time>
      </trkpt>
      <trkpt lat="43.53799" lon="3.0039">
        <ele>312.2</ele>
        <time>2018-02-25T09:19:03.000Z</time>
      </trkpt>
      <trkpt lat="43.53796" lon="3.00392">
        <ele>311.7</ele>
        <time>2018-02-25T09:19:04.000Z</time>
      </trkpt>
      <trkpt lat="43.53792" lon="3.00395">
        <ele>311.2</ele>
        <time>2018-02-25T09:19:05.000Z</time>
      </trkpt>
      <trkpt lat="43.53789" lon="3.00397">
        <ele>310.3</ele>
        <time>2018-02-25T09:19:06.000Z</time>
      </trkpt>
      <trkpt lat="43.53787" lon="3.004">
        <ele>309.8</ele>
        <time>2018-02-25T09:19:07.000Z</time>
      </trkpt>
      <trkpt lat="43.53784" lon="3.00402">
        <ele>308.9</ele>
        <time>2018-02-25T09:19:08.000Z</time>
      </trkpt>
      <trkpt lat="43.53781" lon="3.00405">
        <ele>308.3</ele>
        <time>2018-02-25T09:19:09.000Z</time>
      </trkpt>
      <trkpt lat="43.53777" lon="3.00406">
        <ele>307.4</ele>
        <time>2018-02-25T09:19:10.000Z</time>
      </trkpt>
      <trkpt lat="43.53774" lon="3.00407">
        <ele>306.5</ele>
        <time>2018-02-25T09:19:11.000Z</time>
      </trkpt>
      <trkpt lat="43.53771" lon="3.00409">
        <ele>305.9</ele>
        <time>2018-02-25T09:19:12.000Z</time>
      </trkpt>
      <trkpt lat="43.53767" lon="3.00411">
        <ele>305.1</ele>
        <time>2018-02-25T09:19:13.000Z</time>
      </trkpt>
      <trkpt lat="43.53763" lon="3.00414">
        <ele>303.9</ele>
        <time>2018-02-25T09:19:14.000Z</time>
      </trkpt>
      <trkpt lat="43.53752" lon="3.0042">
        <ele>302</ele>
        <time>2018-02-25T09:19:15.000Z</time>
      </trkpt>
      <trkpt lat="43.53746" lon="3.00423">
        <ele>300.4</ele>
        <time>2018-02-25T09:19:16.000Z</time>
      </trkpt>
      <trkpt lat="43.53743" lon="3.00427">
        <ele>299.6</ele>
        <time>2018-02-25T09:19:17.000Z</time>
      </trkpt>
      <trkpt lat="43.53732" lon="3.00429">
        <ele>297.6</ele>
        <time>2018-02-25T09:19:18.000Z</time>
      </trkpt>
      <trkpt lat="43.53728" lon="3.00431">
        <ele>296.1</ele>
        <time>2018-02-25T09:19:19.000Z</time>
      </trkpt>
      <trkpt lat="43.53724" lon="3.00433">
        <ele>295.2</ele>
        <time>2018-02-25T09:19:20.000Z</time>
      </trkpt>
      <trkpt lat="43.53721" lon="3.00433">
        <ele>294.4</ele>
        <time>2018-02-25T09:19:21.000Z</time>
      </trkpt>
      <trkpt lat="43.53718" lon="3.00432">
        <ele>293.6</ele>
        <time>2018-02-25T09:19:22.000Z</time>
      </trkpt>
      <trkpt lat="43.53713" lon="3.00433">
        <ele>292.3</ele>
        <time>2018-02-25T09:19:23.000Z</time>
      </trkpt>
      <trkpt lat="43.53709" lon="3.00432">
        <ele>291.7</ele>
        <time>2018-02-25T09:19:24.000Z</time>
      </trkpt>
      <trkpt lat="43.53706" lon="3.00433">
        <ele>291</ele>
        <time>2018-02-25T09:19:25.000Z</time>
      </trkpt>
      <trkpt lat="43.53701" lon="3.00432">
        <ele>290.4</ele>
        <time>2018-02-25T09:19:26.000Z</time>
      </trkpt>
      <trkpt lat="43.53698" lon="3.00435">
        <ele>289.4</ele>
        <time>2018-02-25T09:19:27.000Z</time>
      </trkpt>
      <trkpt lat="43.53693" lon="3.00436">
        <ele>287.9</ele>
        <time>2018-02-25T09:19:28.000Z</time>
      </trkpt>
      <trkpt lat="43.53689" lon="3.00435">
        <ele>287.2</ele>
        <time>2018-02-25T09:19:29.000Z</time>
      </trkpt>
      <trkpt lat="43.53686" lon="3.00435">
        <ele>286.5</ele>
        <time>2018-02-25T09:19:30.000Z</time>
      </trkpt>
      <trkpt lat="43.53682" lon="3.00434">
        <ele>285.9</ele>
        <time>2018-02-25T09:19:31.000Z</time>
      </trkpt>
      <trkpt lat="43.5368" lon="3.00433">
        <ele>285.6</ele>
        <time>2018-02-25T09:19:32.000Z</time>
      </trkpt>
      <trkpt lat="43.53676" lon="3.00431">
        <ele>284.2</ele>
        <time>2018-02-25T09:19:34.000Z</time>
      </trkpt>
      <trkpt lat="43.53671" lon="3.00428">
        <ele>283.7</ele>
        <time>2018-02-25T09:19:36.000Z</time>
      </trkpt>
      <trkpt lat="43.53667" lon="3.00425">
        <ele>283</ele>
        <time>2018-02-25T09:19:38.000Z</time>
      </trkpt>
      <trkpt lat="43.53663" lon="3.00422">
        <ele>281.7</ele>
        <time>2018-02-25T09:19:40.000Z</time>
      </trkpt>
      <trkpt lat="43.5366" lon="3.00419">
        <ele>281.2</ele>
        <time>2018-02-25T09:19:42.000Z</time>
      </trkpt>
      <trkpt lat="43.53656" lon="3.00418">
        <ele>280.5</ele>
        <time>2018-02-25T09:19:44.000Z</time>
      </trkpt>
      <trkpt lat="43.53654" lon="3.00418">
        <ele>279.8</ele>
        <time>2018-02-25T09:19:45.000Z</time>
      </trkpt>
      <trkpt lat="43.5365" lon="3.00418">
        <ele>279.1</ele>
        <time>2018-02-25T09:19:46.000Z</time>
      </trkpt>
      <trkpt lat="43.53647" lon="3.00418">
        <ele>278.5</ele>
        <time>2018-02-25T09:19:47.000Z</time>
      </trkpt>
      <trkpt lat="43.53643" lon="3.00417">
        <ele>277.8</ele>
        <time>2018-02-25T09:19:48.000Z</time>
      </trkpt>
      <trkpt lat="43.53639" lon="3.00417">
        <ele>277.1</ele>
        <time>2018-02-25T09:19:49.000Z</time>
      </trkpt>
      <trkpt lat="43.53635" lon="3.00417">
        <ele>275.5</ele>
        <time>2018-02-25T09:19:50.000Z</time>
      </trkpt>
      <trkpt lat="43.53591" lon="3.00423">
        <ele>263.8</ele>
        <time>2018-02-25T09:20:06.000Z</time>
      </trkpt>
      <trkpt lat="43.53587" lon="3.00426">
        <ele>263.5</ele>
        <time>2018-02-25T09:20:07.000Z</time>
      </trkpt>
      <trkpt lat="43.53583" lon="3.00428">
        <ele>263.2</ele>
        <time>2018-02-25T09:20:08.000Z</time>
      </trkpt>
      <trkpt lat="43.5358" lon="3.00427">
        <ele>262.8</ele>
        <time>2018-02-25T09:20:09.000Z</time>
      </trkpt>
      <trkpt lat="43.53577" lon="3.00422">
        <ele>262.2</ele>
        <time>2018-02-25T09:20:11.000Z</time>
      </trkpt>
      <trkpt lat="43.53576" lon="3.00417">
        <ele>261.9</ele>
        <time>2018-02-25T09:20:13.000Z</time>
      </trkpt>
      <trkpt lat="43.53573" lon="3.00413">
        <ele>261.7</ele>
        <time>2018-02-25T09:20:15.000Z</time>
      </trkpt>
      <trkpt lat="43.53568" lon="3.00412">
        <ele>261.4</ele>
        <time>2018-02-25T09:20:17.000Z</time>
      </trkpt>
      <trkpt lat="43.53565" lon="3.00414">
        <ele>261.3</ele>
        <time>2018-02-25T09:20:18.000Z</time>
      </trkpt>
      <trkpt lat="43.53562" lon="3.00415">
        <ele>260.9</ele>
        <time>2018-02-25T09:20:19.000Z</time>
      </trkpt>
      <trkpt lat="43.53558" lon="3.00418">
        <ele>260.3</ele>
        <time>2018-02-25T09:20:21.000Z</time>
      </trkpt>
      <trkpt lat="43.53553" lon="3.0042">
        <ele>260.1</ele>
        <time>2018-02-25T09:20:23.000Z</time>
      </trkpt>
      <trkpt lat="43.5355" lon="3.00421">
        <ele>259.9</ele>
        <time>2018-02-25T09:20:25.000Z</time>
      </trkpt>
      <trkpt lat="43.53547" lon="3.0042">
        <ele>259.8</ele>
        <time>2018-02-25T09:20:33.000Z</time>
      </trkpt>
      <trkpt lat="43.53544" lon="3.00419">
        <ele>259.7</ele>
        <time>2018-02-25T09:21:11.000Z</time>
      </trkpt>
      <trkpt lat="43.53552" lon="3.00422">
        <ele>259.9</ele>
        <time>2018-02-25T09:25:57.000Z</time>
      </trkpt>
      <trkpt lat="43.53553" lon="3.00426">
        <ele>260.1</ele>
        <time>2018-02-25T09:26:01.000Z</time>
      </trkpt>
      <trkpt lat="43.53556" lon="3.00425">
        <ele>260.4</ele>
        <time>2018-02-25T09:26:05.000Z</time>
      </trkpt>
      <trkpt lat="43.53559" lon="3.00426">
        <ele>260.8</ele>
        <time>2018-02-25T09:26:08.000Z</time>
      </trkpt>
      <trkpt lat="43.53561" lon="3.00429">
        <ele>261.3</ele>
        <time>2018-02-25T09:26:11.000Z</time>
      </trkpt>
      <trkpt lat="43.53563" lon="3.00433">
        <ele>261.5</ele>
        <time>2018-02-25T09:26:14.000Z</time>
      </trkpt>
      <trkpt lat="43.53565" lon="3.00437">
        <ele>261.7</ele>
        <time>2018-02-25T09:26:18.000Z</time>
      </trkpt>
      <trkpt lat="43.53567" lon="3.00439">
        <ele>261.9</ele>
        <time>2018-02-25T09:26:21.000Z</time>
      </trkpt>
      <trkpt lat="43.5357" lon="3.00441">
        <ele>262.2</ele>
        <time>2018-02-25T09:26:23.000Z</time>
      </trkpt>
      <trkpt lat="43.53572" lon="3.00443">
        <ele>262.6</ele>
        <time>2018-02-25T09:26:25.000Z</time>
      </trkpt>
      <trkpt lat="43.53574" lon="3.00444">
        <ele>263</ele>
        <time>2018-02-25T09:26:27.000Z</time>
      </trkpt>
      <trkpt lat="43.53578" lon="3.00446">
        <ele>263.5</ele>
        <time>2018-02-25T09:26:30.000Z</time>
      </trkpt>
      <trkpt lat="43.53581" lon="3.00449">
        <ele>263.8</ele>
        <time>2018-02-25T09:26:33.000Z</time>
      </trkpt>
      <trkpt lat="43.53584" lon="3.00451">
        <ele>264.4</ele>
        <time>2018-02-25T09:26:36.000Z</time>
      </trkpt>
      <trkpt lat="43.53587" lon="3.00453">
        <ele>264.8</ele>
        <time>2018-02-25T09:26:38.000Z</time>
      </trkpt>
      <trkpt lat="43.5359" lon="3.00454">
        <ele>265.1</ele>
        <time>2018-02-25T09:26:40.000Z</time>
      </trkpt>
      <trkpt lat="43.53595" lon="3.00455">
        <ele>265.3</ele>
        <time>2018-02-25T09:26:42.000Z</time>
      </trkpt>
      <trkpt lat="43.53598" lon="3.00457">
        <ele>265.6</ele>
        <time>2018-02-25T09:26:44.000Z</time>
      </trkpt>
      <trkpt lat="43.53601" lon="3.00459">
        <ele>265.9</ele>
        <time>2018-02-25T09:26:46.000Z</time>
      </trkpt>
      <trkpt lat="43.53605" lon="3.0046">
        <ele>266.4</ele>
        <time>2018-02-25T09:26:56.000Z</time>
      </trkpt>
      <trkpt lat="43.53608" lon="3.00461">
        <ele>266.7</ele>
        <time>2018-02-25T09:26:59.000Z</time>
      </trkpt>
      <trkpt lat="43.53612" lon="3.00463">
        <ele>267</ele>
        <time>2018-02-25T09:27:01.000Z</time>
      </trkpt>
      <trkpt lat="43.53615" lon="3.00465">
        <ele>267.1</ele>
        <time>2018-02-25T09:27:03.000Z</time>
      </trkpt>
      <trkpt lat="43.53618" lon="3.00468">
        <ele>267.3</ele>
        <time>2018-02-25T09:27:05.000Z</time>
      </trkpt>
      <trkpt lat="43.53622" lon="3.0047">
        <ele>267.6</ele>
        <time>2018-02-25T09:27:07.000Z</time>
      </trkpt>
      <trkpt lat="43.53627" lon="3.00472">
        <ele>268.2</ele>
        <time>2018-02-25T09:27:09.000Z</time>
      </trkpt>
      <trkpt lat="43.53631" lon="3.00473">
        <ele>268.7</ele>
        <time>2018-02-25T09:27:11.000Z</time>
      </trkpt>
      <trkpt lat="43.53634" lon="3.00474">
        <ele>268.9</ele>
        <time>2018-02-25T09:27:13.000Z</time>
      </trkpt>
      <trkpt lat="43.53638" lon="3.00475">
        <ele>269.1</ele>
        <time>2018-02-25T09:27:15.000Z</time>
      </trkpt>
      <trkpt lat="43.53641" lon="3.00476">
        <ele>269.3</ele>
        <time>2018-02-25T09:27:17.000Z</time>
      </trkpt>
      <trkpt lat="43.53644" lon="3.00477">
        <ele>269.7</ele>
        <time>2018-02-25T09:27:19.000Z</time>
      </trkpt>
      <trkpt lat="43.53647" lon="3.00478">
        <ele>270.1</ele>
        <time>2018-02-25T09:27:21.000Z</time>
      </trkpt>
      <trkpt lat="43.5365" lon="3.0048">
        <ele>270.5</ele>
        <time>2018-02-25T09:27:23.000Z</time>
      </trkpt>
      <trkpt lat="43.53653" lon="3.00481">
        <ele>270.7</ele>
        <time>2018-02-25T09:27:25.000Z</time>
      </trkpt>
      <trkpt lat="43.53656" lon="3.00483">
        <ele>270.9</ele>
        <time>2018-02-25T09:27:27.000Z</time>
      </trkpt>
      <trkpt lat="43.53659" lon="3.00484">
        <ele>271.1</ele>
        <time>2018-02-25T09:27:29.000Z</time>
      </trkpt>
      <trkpt lat="43.53662" lon="3.00485">
        <ele>271.5</ele>
        <time>2018-02-25T09:27:31.000Z</time>
      </trkpt>
      <trkpt lat="43.53665" lon="3.00486">
        <ele>272.1</ele>
        <time>2018-02-25T09:27:33.000Z</time>
      </trkpt>
      <trkpt lat="43.53668" lon="3.00487">
        <ele>272.6</ele>
        <time>2018-02-25T09:27:35.000Z</time>
      </trkpt>
      <trkpt lat="43.53672" lon="3.0049">
        <ele>273.1</ele>
        <time>2018-02-25T09:27:38.000Z</time>
      </trkpt>
      <trkpt lat="43.53675" lon="3.00491">
        <ele>273.8</ele>
        <time>2018-02-25T09:27:40.000Z</time>
      </trkpt>
      <trkpt lat="43.53678" lon="3.00493">
        <ele>274.1</ele>
        <time>2018-02-25T09:27:42.000Z</time>
      </trkpt>
      <trkpt lat="43.53681" lon="3.00495">
        <ele>274.4</ele>
        <time>2018-02-25T09:27:44.000Z</time>
      </trkpt>
      <trkpt lat="43.53683" lon="3.00496">
        <ele>274.6</ele>
        <time>2018-02-25T09:27:46.000Z</time>
      </trkpt>
      <trkpt lat="43.53687" lon="3.00499">
        <ele>274.9</ele>
        <time>2018-02-25T09:27:49.000Z</time>
      </trkpt>
      <trkpt lat="43.53689" lon="3.00501">
        <ele>275.4</ele>
        <time>2018-02-25T09:27:51.000Z</time>
      </trkpt>
      <trkpt lat="43.53692" lon="3.00503">
        <ele>276</ele>
        <time>2018-02-25T09:27:53.000Z</time>
      </trkpt>
      <trkpt lat="43.53694" lon="3.00504">
        <ele>276.2</ele>
        <time>2018-02-25T09:27:55.000Z</time>
      </trkpt>
      <trkpt lat="43.53697" lon="3.00507">
        <ele>276.4</ele>
        <time>2018-02-25T09:27:58.000Z</time>
      </trkpt>
      <trkpt lat="43.537" lon="3.0051">
        <ele>276.8</ele>
        <time>2018-02-25T09:28:01.000Z</time>
      </trkpt>
      <trkpt lat="43.53703" lon="3.00513">
        <ele>277.5</ele>
        <time>2018-02-25T09:28:04.000Z</time>
      </trkpt>
      <trkpt lat="43.53707" lon="3.00514">
        <ele>278.1</ele>
        <time>2018-02-25T09:28:06.000Z</time>
      </trkpt>
      <trkpt lat="43.5371" lon="3.00516">
        <ele>278.4</ele>
        <time>2018-02-25T09:28:08.000Z</time>
      </trkpt>
      <trkpt lat="43.53713" lon="3.00517">
        <ele>278.6</ele>
        <time>2018-02-25T09:28:10.000Z</time>
      </trkpt>
      <trkpt lat="43.53716" lon="3.0052">
        <ele>279.2</ele>
        <time>2018-02-25T09:28:13.000Z</time>
      </trkpt>
      <trkpt lat="43.53719" lon="3.00523">
        <ele>279.8</ele>
        <time>2018-02-25T09:28:16.000Z</time>
      </trkpt>
      <trkpt lat="43.53722" lon="3.00524">
        <ele>279.9</ele>
        <time>2018-02-25T09:28:19.000Z</time>
      </trkpt>
      <trkpt lat="43.53725" lon="3.00527">
        <ele>280.2</ele>
        <time>2018-02-25T09:28:22.000Z</time>
      </trkpt>
      <trkpt lat="43.53728" lon="3.00529">
        <ele>280.3</ele>
        <time>2018-02-25T09:28:24.000Z</time>
      </trkpt>
      <trkpt lat="43.53731" lon="3.00532">
        <ele>280.8</ele>
        <time>2018-02-25T09:28:27.000Z</time>
      </trkpt>
      <trkpt lat="43.53733" lon="3.00534">
        <ele>281.2</ele>
        <time>2018-02-25T09:28:29.000Z</time>
      </trkpt>
      <trkpt lat="43.53736" lon="3.00537">
        <ele>281.6</ele>
        <time>2018-02-25T09:28:32.000Z</time>
      </trkpt>
      <trkpt lat="43.53739" lon="3.0054">
        <ele>281.9</ele>
        <time>2018-02-25T09:28:35.000Z</time>
      </trkpt>
      <trkpt lat="43.53741" lon="3.00543">
        <ele>282.4</ele>
        <time>2018-02-25T09:28:38.000Z</time>
      </trkpt>
      <trkpt lat="43.53744" lon="3.00546">
        <ele>282.9</ele>
        <time>2018-02-25T09:28:41.000Z</time>
      </trkpt>
      <trkpt lat="43.53746" lon="3.00549">
        <ele>283.3</ele>
        <time>2018-02-25T09:28:43.000Z</time>
      </trkpt>
      <trkpt lat="43.53749" lon="3.00551">
        <ele>283.5</ele>
        <time>2018-02-25T09:28:45.000Z</time>
      </trkpt>
      <trkpt lat="43.53751" lon="3.00553">
        <ele>283.7</ele>
        <time>2018-02-25T09:28:47.000Z</time>
      </trkpt>
      <trkpt lat="43.53753" lon="3.00556">
        <ele>284.1</ele>
        <time>2018-02-25T09:28:49.000Z</time>
      </trkpt>
      <trkpt lat="43.53756" lon="3.0056">
        <ele>284.7</ele>
        <time>2018-02-25T09:28:52.000Z</time>
      </trkpt>
      <trkpt lat="43.53759" lon="3.00562">
        <ele>285.1</ele>
        <time>2018-02-25T09:28:54.000Z</time>
      </trkpt>
      <trkpt lat="43.53761" lon="3.00566">
        <ele>285.3</ele>
        <time>2018-02-25T09:28:56.000Z</time>
      </trkpt>
      <trkpt lat="43.53762" lon="3.00569">
        <ele>285.5</ele>
        <time>2018-02-25T09:28:58.000Z</time>
      </trkpt>
      <trkpt lat="43.53765" lon="3.00573">
        <ele>285.9</ele>
        <time>2018-02-25T09:29:01.000Z</time>
      </trkpt>
      <trkpt lat="43.53768" lon="3.00577">
        <ele>286.4</ele>
        <time>2018-02-25T09:29:03.000Z</time>
      </trkpt>
      <trkpt lat="43.5377" lon="3.00581">
        <ele>286.8</ele>
        <time>2018-02-25T09:29:06.000Z</time>
      </trkpt>
      <trkpt lat="43.53772" lon="3.00584">
        <ele>287</ele>
        <time>2018-02-25T09:29:08.000Z</time>
      </trkpt>
      <trkpt lat="43.53774" lon="3.00587">
        <ele>287.1</ele>
        <time>2018-02-25T09:29:10.000Z</time>
      </trkpt>
      <trkpt lat="43.53776" lon="3.00591">
        <ele>287.3</ele>
        <time>2018-02-25T09:29:12.000Z</time>
      </trkpt>
      <trkpt lat="43.53777" lon="3.00595">
        <ele>287.5</ele>
        <time>2018-02-25T09:29:14.000Z</time>
      </trkpt>
      <trkpt lat="43.53778" lon="3.00598">
        <ele>287.7</ele>
        <time>2018-02-25T09:29:16.000Z</time>
      </trkpt>
      <trkpt lat="43.5378" lon="3.00601">
        <ele>288</ele>
        <time>2018-02-25T09:29:18.000Z</time>
      </trkpt>
      <trkpt lat="43.53783" lon="3.00604">
        <ele>288.5</ele>
        <time>2018-02-25T09:29:21.000Z</time>
      </trkpt>
      <trkpt lat="43.53786" lon="3.00605">
        <ele>288.7</ele>
        <time>2018-02-25T09:29:23.000Z</time>
      </trkpt>
      <trkpt lat="43.53789" lon="3.00607">
        <ele>288.9</ele>
        <time>2018-02-25T09:29:25.000Z</time>
      </trkpt>
      <trkpt lat="43.53791" lon="3.00609">
        <ele>289</ele>
        <time>2018-02-25T09:29:27.000Z</time>
      </trkpt>
      <trkpt lat="43.53794" lon="3.00612">
        <ele>289.2</ele>
        <time>2018-02-25T09:29:30.000Z</time>
      </trkpt>
      <trkpt lat="43.53797" lon="3.00615">
        <ele>289.3</ele>
        <time>2018-02-25T09:29:32.000Z</time>
      </trkpt>
      <trkpt lat="43.53799" lon="3.00618">
        <ele>289.5</ele>
        <time>2018-02-25T09:29:34.000Z</time>
      </trkpt>
      <trkpt lat="43.53802" lon="3.00621">
        <ele>289.9</ele>
        <time>2018-02-25T09:29:37.000Z</time>
      </trkpt>
      <trkpt lat="43.53804" lon="3.00623">
        <ele>290.2</ele>
        <time>2018-02-25T09:29:39.000Z</time>
      </trkpt>
      <trkpt lat="43.53807" lon="3.00625">
        <ele>290.4</ele>
        <time>2018-02-25T09:29:41.000Z</time>
      </trkpt>
      <trkpt lat="43.5381" lon="3.00626">
        <ele>290.5</ele>
        <time>2018-02-25T09:29:43.000Z</time>
      </trkpt>
      <trkpt lat="43.53813" lon="3.00627">
        <ele>290.6</ele>
        <time>2018-02-25T09:29:45.000Z</time>
      </trkpt>
      <trkpt lat="43.53817" lon="3.00629">
        <ele>290.8</ele>
        <time>2018-02-25T09:29:47.000Z</time>
      </trkpt>
      <trkpt lat="43.53819" lon="3.00631">
        <ele>290.9</ele>
        <time>2018-02-25T09:29:49.000Z</time>
      </trkpt>
      <trkpt lat="43.53823" lon="3.00633">
        <ele>291.3</ele>
        <time>2018-02-25T09:29:52.000Z</time>
      </trkpt>
      <trkpt lat="43.53826" lon="3.00635">
        <ele>291.8</ele>
        <time>2018-02-25T09:29:55.000Z</time>
      </trkpt>
      <trkpt lat="43.5383" lon="3.00636">
        <ele>292.3</ele>
        <time>2018-02-25T09:29:57.000Z</time>
      </trkpt>
      <trkpt lat="43.53833" lon="3.00637">
        <ele>292.4</ele>
        <time>2018-02-25T09:29:59.000Z</time>
      </trkpt>
      <trkpt lat="43.53837" lon="3.00639">
        <ele>292.6</ele>
        <time>2018-02-25T09:30:02.000Z</time>
      </trkpt>
      <trkpt lat="43.53839" lon="3.0064">
        <ele>292.8</ele>
        <time>2018-02-25T09:30:04.000Z</time>
      </trkpt>
      <trkpt lat="43.53842" lon="3.00641">
        <ele>292.9</ele>
        <time>2018-02-25T09:30:06.000Z</time>
      </trkpt>
      <trkpt lat="43.53845" lon="3.00642">
        <ele>293.2</ele>
        <time>2018-02-25T09:30:08.000Z</time>
      </trkpt>
      <trkpt lat="43.53848" lon="3.00643">
        <ele>293.6</ele>
        <time>2018-02-25T09:30:10.000Z</time>
      </trkpt>
      <trkpt lat="43.53851" lon="3.00645">
        <ele>294</ele>
        <time>2018-02-25T09:30:12.000Z</time>
      </trkpt>
      <trkpt lat="43.53854" lon="3.00646">
        <ele>294.2</ele>
        <time>2018-02-25T09:30:14.000Z</time>
      </trkpt>
      <trkpt lat="43.53858" lon="3.00645">
        <ele>294.4</ele>
        <time>2018-02-25T09:30:16.000Z</time>
      </trkpt>
      <trkpt lat="43.5386" lon="3.00644">
        <ele>294.5</ele>
        <time>2018-02-25T09:30:20.000Z</time>
      </trkpt>
      <trkpt lat="43.53859" lon="3.0064">
        <ele>294.4</ele>
        <time>2018-02-25T09:30:23.000Z</time>
      </trkpt>
      <trkpt lat="43.53856" lon="3.00639">
        <ele>294.2</ele>
        <time>2018-02-25T09:30:26.000Z</time>
      </trkpt>
      <trkpt lat="43.53852" lon="3.00639">
        <ele>293.9</ele>
        <time>2018-02-25T09:30:29.000Z</time>
      </trkpt>
      <trkpt lat="43.53849" lon="3.00638">
        <ele>293.5</ele>
        <time>2018-02-25T09:30:31.000Z</time>
      </trkpt>
      <trkpt lat="43.53845" lon="3.00636">
        <ele>293</ele>
        <time>2018-02-25T09:30:34.000Z</time>
      </trkpt>
      <trkpt lat="43.53843" lon="3.00634">
        <ele>292.9</ele>
        <time>2018-02-25T09:30:36.000Z</time>
      </trkpt>
      <trkpt lat="43.5384" lon="3.00632">
        <ele>292.7</ele>
        <time>2018-02-25T09:30:38.000Z</time>
      </trkpt>
      <trkpt lat="43.53837" lon="3.0063">
        <ele>292.6</ele>
        <time>2018-02-25T09:30:40.000Z</time>
      </trkpt>
      <trkpt lat="43.53835" lon="3.00628">
        <ele>292.5</ele>
        <time>2018-02-25T09:30:42.000Z</time>
      </trkpt>
      <trkpt lat="43.53833" lon="3.00624">
        <ele>292.3</ele>
        <time>2018-02-25T09:30:45.000Z</time>
      </trkpt>
      <trkpt lat="43.53832" lon="3.0062">
        <ele>295.8</ele>
        <time>2018-02-25T09:30:47.000Z</time>
      </trkpt>
      <trkpt lat="43.53829" lon="3.00617">
        <ele>298.6</ele>
        <time>2018-02-25T09:30:49.000Z</time>
      </trkpt>
      <trkpt lat="43.53827" lon="3.00614">
        <ele>299.2</ele>
        <time>2018-02-25T09:30:51.000Z</time>
      </trkpt>
      <trkpt lat="43.53825" lon="3.0061">
        <ele>299.7</ele>
        <time>2018-02-25T09:30:54.000Z</time>
      </trkpt>
      <trkpt lat="43.53823" lon="3.00608">
        <ele>299.9</ele>
        <time>2018-02-25T09:30:57.000Z</time>
      </trkpt>
      <trkpt lat="43.53821" lon="3.00603">
        <ele>300.2</ele>
        <time>2018-02-25T09:31:00.000Z</time>
      </trkpt>
      <trkpt lat="43.53819" lon="3.006">
        <ele>300.7</ele>
        <time>2018-02-25T09:31:02.000Z</time>
      </trkpt>
      <trkpt lat="43.53816" lon="3.00597">
        <ele>301.1</ele>
        <time>2018-02-25T09:31:04.000Z</time>
      </trkpt>
      <trkpt lat="43.53815" lon="3.00594">
        <ele>301.3</ele>
        <time>2018-02-25T09:31:06.000Z</time>
      </trkpt>
      <trkpt lat="43.53813" lon="3.00591">
        <ele>301.5</ele>
        <time>2018-02-25T09:31:08.000Z</time>
      </trkpt>
      <trkpt lat="43.53812" lon="3.00586">
        <ele>301.6</ele>
        <time>2018-02-25T09:31:10.000Z</time>
      </trkpt>
      <trkpt lat="43.53811" lon="3.00582">
        <ele>301.7</ele>
        <time>2018-02-25T09:31:12.000Z</time>
      </trkpt>
      <trkpt lat="43.5381" lon="3.00577">
        <ele>301.8</ele>
        <time>2018-02-25T09:31:15.000Z</time>
      </trkpt>
      <trkpt lat="43.53808" lon="3.00573">
        <ele>302</ele>
        <time>2018-02-25T09:31:17.000Z</time>
      </trkpt>
      <trkpt lat="43.53807" lon="3.00569">
        <ele>302.2</ele>
        <time>2018-02-25T09:31:19.000Z</time>
      </trkpt>
      <trkpt lat="43.53806" lon="3.00566">
        <ele>302.5</ele>
        <time>2018-02-25T09:31:21.000Z</time>
      </trkpt>
      <trkpt lat="43.53804" lon="3.00561">
        <ele>303</ele>
        <time>2018-02-25T09:31:23.000Z</time>
      </trkpt>
      <trkpt lat="43.53803" lon="3.00556">
        <ele>303.5</ele>
        <time>2018-02-25T09:31:26.000Z</time>
      </trkpt>
      <trkpt lat="43.53803" lon="3.00551">
        <ele>303.8</ele>
        <time>2018-02-25T09:31:28.000Z</time>
      </trkpt>
      <trkpt lat="43.53802" lon="3.00547">
        <ele>304.1</ele>
        <time>2018-02-25T09:31:30.000Z</time>
      </trkpt>
      <trkpt lat="43.53801" lon="3.00543">
        <ele>304.5</ele>
        <time>2018-02-25T09:31:32.000Z</time>
      </trkpt>
      <trkpt lat="43.538" lon="3.00539">
        <ele>304.8</ele>
        <time>2018-02-25T09:31:34.000Z</time>
      </trkpt>
      <trkpt lat="43.53799" lon="3.00536">
        <ele>304.9</ele>
        <time>2018-02-25T09:31:36.000Z</time>
      </trkpt>
      <trkpt lat="43.53798" lon="3.00532">
        <ele>305.1</ele>
        <time>2018-02-25T09:31:38.000Z</time>
      </trkpt>
      <trkpt lat="43.53797" lon="3.00528">
        <ele>305.3</ele>
        <time>2018-02-25T09:31:40.000Z</time>
      </trkpt>
      <trkpt lat="43.53796" lon="3.00524">
        <ele>305.5</ele>
        <time>2018-02-25T09:31:43.000Z</time>
      </trkpt>
      <trkpt lat="43.53795" lon="3.00519">
        <ele>305.8</ele>
        <time>2018-02-25T09:31:45.000Z</time>
      </trkpt>
      <trkpt lat="43.53797" lon="3.00515">
        <ele>306.4</ele>
        <time>2018-02-25T09:31:47.000Z</time>
      </trkpt>
      <trkpt lat="43.53799" lon="3.00511">
        <ele>307.2</ele>
        <time>2018-02-25T09:31:49.000Z</time>
      </trkpt>
      <trkpt lat="43.53802" lon="3.00509">
        <ele>307.7</ele>
        <time>2018-02-25T09:31:52.000Z</time>
      </trkpt>
      <trkpt lat="43.53803" lon="3.00512">
        <ele>308.1</ele>
        <time>2018-02-25T09:31:55.000Z</time>
      </trkpt>
      <trkpt lat="43.53806" lon="3.00516">
        <ele>308.6</ele>
        <time>2018-02-25T09:31:58.000Z</time>
      </trkpt>
      <trkpt lat="43.53808" lon="3.00521">
        <ele>308.8</ele>
        <time>2018-02-25T09:32:01.000Z</time>
      </trkpt>
      <trkpt lat="43.5381" lon="3.00524">
        <ele>309</ele>
        <time>2018-02-25T09:32:04.000Z</time>
      </trkpt>
      <trkpt lat="43.53812" lon="3.00528">
        <ele>309.2</ele>
        <time>2018-02-25T09:32:07.000Z</time>
      </trkpt>
      <trkpt lat="43.53813" lon="3.00531">
        <ele>309.3</ele>
        <time>2018-02-25T09:32:11.000Z</time>
      </trkpt>
      <trkpt lat="43.53816" lon="3.00535">
        <ele>309.7</ele>
        <time>2018-02-25T09:32:14.000Z</time>
      </trkpt>
      <trkpt lat="43.53818" lon="3.00539">
        <ele>310.3</ele>
        <time>2018-02-25T09:32:16.000Z</time>
      </trkpt>
      <trkpt lat="43.5382" lon="3.00542">
        <ele>310.7</ele>
        <time>2018-02-25T09:32:18.000Z</time>
      </trkpt>
      <trkpt lat="43.53822" lon="3.00544">
        <ele>311</ele>
        <time>2018-02-25T09:32:20.000Z</time>
      </trkpt>
      <trkpt lat="43.53824" lon="3.00547">
        <ele>311.3</ele>
        <time>2018-02-25T09:32:22.000Z</time>
      </trkpt>
      <trkpt lat="43.53827" lon="3.0055">
        <ele>311.9</ele>
        <time>2018-02-25T09:32:25.000Z</time>
      </trkpt>
      <trkpt lat="43.5383" lon="3.00553">
        <ele>312.3</ele>
        <time>2018-02-25T09:32:27.000Z</time>
      </trkpt>
      <trkpt lat="43.53832" lon="3.00554">
        <ele>312.6</ele>
        <time>2018-02-25T09:32:29.000Z</time>
      </trkpt>
      <trkpt lat="43.53835" lon="3.00557">
        <ele>312.9</ele>
        <time>2018-02-25T09:32:32.000Z</time>
      </trkpt>
      <trkpt lat="43.53838" lon="3.00561">
        <ele>313.1</ele>
        <time>2018-02-25T09:32:35.000Z</time>
      </trkpt>
      <trkpt lat="43.53841" lon="3.00563">
        <ele>313.7</ele>
        <time>2018-02-25T09:32:37.000Z</time>
      </trkpt>
      <trkpt lat="43.53844" lon="3.00565">
        <ele>314.2</ele>
        <time>2018-02-25T09:32:39.000Z</time>
      </trkpt>
      <trkpt lat="43.53847" lon="3.00567">
        <ele>314.6</ele>
        <time>2018-02-25T09:32:42.000Z</time>
      </trkpt>
      <trkpt lat="43.5385" lon="3.00569">
        <ele>314.9</ele>
        <time>2018-02-25T09:32:44.000Z</time>
      </trkpt>
      <trkpt lat="43.53852" lon="3.00571">
        <ele>315.2</ele>
        <time>2018-02-25T09:32:46.000Z</time>
      </trkpt>
      <trkpt lat="43.53855" lon="3.00573">
        <ele>315.7</ele>
        <time>2018-02-25T09:32:48.000Z</time>
      </trkpt>
      <trkpt lat="43.53858" lon="3.00575">
        <ele>316.2</ele>
        <time>2018-02-25T09:32:50.000Z</time>
      </trkpt>
      <trkpt lat="43.53861" lon="3.00577">
        <ele>316.5</ele>
        <time>2018-02-25T09:32:52.000Z</time>
      </trkpt>
      <trkpt lat="43.53865" lon="3.00579">
        <ele>316.9</ele>
        <time>2018-02-25T09:32:54.000Z</time>
      </trkpt>
      <trkpt lat="43.53869" lon="3.0058">
        <ele>317.5</ele>
        <time>2018-02-25T09:32:56.000Z</time>
      </trkpt>
      <trkpt lat="43.53873" lon="3.00582">
        <ele>317.8</ele>
        <time>2018-02-25T09:32:58.000Z</time>
      </trkpt>
      <trkpt lat="43.53877" lon="3.00584">
        <ele>318</ele>
        <time>2018-02-25T09:33:00.000Z</time>
      </trkpt>
      <trkpt lat="43.5388" lon="3.00586">
        <ele>318.2</ele>
        <time>2018-02-25T09:33:02.000Z</time>
      </trkpt>
      <trkpt lat="43.53884" lon="3.00589">
        <ele>318.4</ele>
        <time>2018-02-25T09:33:05.000Z</time>
      </trkpt>
      <trkpt lat="43.53886" lon="3.0059">
        <ele>318.6</ele>
        <time>2018-02-25T09:33:07.000Z</time>
      </trkpt>
      <trkpt lat="43.5389" lon="3.00592">
        <ele>319</ele>
        <time>2018-02-25T09:33:09.000Z</time>
      </trkpt>
      <trkpt lat="43.53893" lon="3.00593">
        <ele>319.4</ele>
        <time>2018-02-25T09:33:11.000Z</time>
      </trkpt>
      <trkpt lat="43.53896" lon="3.00594">
        <ele>319.5</ele>
        <time>2018-02-25T09:33:13.000Z</time>
      </trkpt>
      <trkpt lat="43.539" lon="3.00596">
        <ele>319.6</ele>
        <time>2018-02-25T09:33:15.000Z</time>
      </trkpt>
      <trkpt lat="43.53903" lon="3.00597">
        <ele>319.8</ele>
        <time>2018-02-25T09:33:17.000Z</time>
      </trkpt>
      <trkpt lat="43.53907" lon="3.00598">
        <ele>319.9</ele>
        <time>2018-02-25T09:33:20.000Z</time>
      </trkpt>
      <trkpt lat="43.53909" lon="3.00599">
        <ele>320</ele>
        <time>2018-02-25T09:33:22.000Z</time>
      </trkpt>
      <trkpt lat="43.53913" lon="3.00601">
        <ele>320.3</ele>
        <time>2018-02-25T09:33:24.000Z</time>
      </trkpt>
      <trkpt lat="43.53918" lon="3.00601">
        <ele>320.8</ele>
        <time>2018-02-25T09:33:26.000Z</time>
      </trkpt>
      <trkpt lat="43.53921" lon="3.00602">
        <ele>321.2</ele>
        <time>2018-02-25T09:33:28.000Z</time>
      </trkpt>
      <trkpt lat="43.53925" lon="3.00603">
        <ele>321.6</ele>
        <time>2018-02-25T09:33:30.000Z</time>
      </trkpt>
      <trkpt lat="43.53929" lon="3.00603">
        <ele>321.8</ele>
        <time>2018-02-25T09:33:32.000Z</time>
      </trkpt>
      <trkpt lat="43.53934" lon="3.00604">
        <ele>322</ele>
        <time>2018-02-25T09:33:34.000Z</time>
      </trkpt>
      <trkpt lat="43.53939" lon="3.00605">
        <ele>322.3</ele>
        <time>2018-02-25T09:33:36.000Z</time>
      </trkpt>
      <trkpt lat="43.53943" lon="3.00605">
        <ele>322.5</ele>
        <time>2018-02-25T09:33:38.000Z</time>
      </trkpt>
      <trkpt lat="43.53946" lon="3.00605">
        <ele>322.8</ele>
        <time>2018-02-25T09:33:40.000Z</time>
      </trkpt>
      <trkpt lat="43.53949" lon="3.00606">
        <ele>323</ele>
        <time>2018-02-25T09:33:42.000Z</time>
      </trkpt>
      <trkpt lat="43.53952" lon="3.0061">
        <ele>323</ele>
        <time>2018-02-25T09:33:44.000Z</time>
      </trkpt>
      <trkpt lat="43.53954" lon="3.00615">
        <ele>323.1</ele>
        <time>2018-02-25T09:33:46.000Z</time>
      </trkpt>
      <trkpt lat="43.53956" lon="3.00621">
        <ele>323.2</ele>
        <time>2018-02-25T09:33:48.000Z</time>
      </trkpt>
      <trkpt lat="43.53956" lon="3.00626">
        <ele>323.2</ele>
        <time>2018-02-25T09:33:50.000Z</time>
      </trkpt>
      <trkpt lat="43.53955" lon="3.00632">
        <ele>323.3</ele>
        <time>2018-02-25T09:33:52.000Z</time>
      </trkpt>
      <trkpt lat="43.53951" lon="3.00636">
        <ele>323.3</ele>
        <time>2018-02-25T09:33:54.000Z</time>
      </trkpt>
      <trkpt lat="43.53947" lon="3.00639">
        <ele>323.3</ele>
        <time>2018-02-25T09:33:56.000Z</time>
      </trkpt>
      <trkpt lat="43.53943" lon="3.00643">
        <ele>323.3</ele>
        <time>2018-02-25T09:33:58.000Z</time>
      </trkpt>
      <trkpt lat="43.5394" lon="3.00646">
        <ele>323.3</ele>
        <time>2018-02-25T09:34:00.000Z</time>
      </trkpt>
      <trkpt lat="43.53936" lon="3.0065">
        <ele>323.3</ele>
        <time>2018-02-25T09:34:02.000Z</time>
      </trkpt>
      <trkpt lat="43.53933" lon="3.00655">
        <ele>323.3</ele>
        <time>2018-02-25T09:34:04.000Z</time>
      </trkpt>
      <trkpt lat="43.5393" lon="3.00659">
        <ele>323.3</ele>
        <time>2018-02-25T09:34:06.000Z</time>
      </trkpt>
      <trkpt lat="43.53929" lon="3.00665">
        <ele>323.3</ele>
        <time>2018-02-25T09:34:08.000Z</time>
      </trkpt>
      <trkpt lat="43.53927" lon="3.00671">
        <ele>323.3</ele>
        <time>2018-02-25T09:34:10.000Z</time>
      </trkpt>
      <trkpt lat="43.53925" lon="3.00677">
        <ele>323.3</ele>
        <time>2018-02-25T09:34:12.000Z</time>
      </trkpt>
      <trkpt lat="43.53925" lon="3.00683">
        <ele>323.3</ele>
        <time>2018-02-25T09:34:14.000Z</time>
      </trkpt>
      <trkpt lat="43.53924" lon="3.00687">
        <ele>323.3</ele>
        <time>2018-02-25T09:34:15.000Z</time>
      </trkpt>
      <trkpt lat="43.53923" lon="3.00692">
        <ele>323.3</ele>
        <time>2018-02-25T09:34:17.000Z</time>
      </trkpt>
      <trkpt lat="43.53923" lon="3.00698">
        <ele>323.3</ele>
        <time>2018-02-25T09:34:19.000Z</time>
      </trkpt>
      <trkpt lat="43.53924" lon="3.00703">
        <ele>323.3</ele>
        <time>2018-02-25T09:34:21.000Z</time>
      </trkpt>
      <trkpt lat="43.53923" lon="3.00708">
        <ele>323.4</ele>
        <time>2018-02-25T09:34:23.000Z</time>
      </trkpt>
      <trkpt lat="43.53922" lon="3.00714">
        <ele>323.4</ele>
        <time>2018-02-25T09:34:25.000Z</time>
      </trkpt>
      <trkpt lat="43.53923" lon="3.00719">
        <ele>323.5</ele>
        <time>2018-02-25T09:34:27.000Z</time>
      </trkpt>
      <trkpt lat="43.53923" lon="3.00724">
        <ele>323.5</ele>
        <time>2018-02-25T09:34:29.000Z</time>
      </trkpt>
      <trkpt lat="43.53925" lon="3.00729">
        <ele>323.6</ele>
        <time>2018-02-25T09:34:31.000Z</time>
      </trkpt>
      <trkpt lat="43.53927" lon="3.00732">
        <ele>323.6</ele>
        <time>2018-02-25T09:34:33.000Z</time>
      </trkpt>
      <trkpt lat="43.5393" lon="3.00736">
        <ele>323.8</ele>
        <time>2018-02-25T09:34:35.000Z</time>
      </trkpt>
      <trkpt lat="43.53934" lon="3.0074">
        <ele>323.9</ele>
        <time>2018-02-25T09:34:37.000Z</time>
      </trkpt>
      <trkpt lat="43.53937" lon="3.00743">
        <ele>324.3</ele>
        <time>2018-02-25T09:34:39.000Z</time>
      </trkpt>
      <trkpt lat="43.5394" lon="3.00746">
        <ele>324.6</ele>
        <time>2018-02-25T09:34:41.000Z</time>
      </trkpt>
      <trkpt lat="43.53943" lon="3.0075">
        <ele>324.9</ele>
        <time>2018-02-25T09:34:43.000Z</time>
      </trkpt>
      <trkpt lat="43.53946" lon="3.00754">
        <ele>325</ele>
        <time>2018-02-25T09:34:45.000Z</time>
      </trkpt>
      <trkpt lat="43.53948" lon="3.00756">
        <ele>325.1</ele>
        <time>2018-02-25T09:34:47.000Z</time>
      </trkpt>
      <trkpt lat="43.53951" lon="3.00758">
        <ele>325.2</ele>
        <time>2018-02-25T09:34:49.000Z</time>
      </trkpt>
      <trkpt lat="43.53953" lon="3.00761">
        <ele>325.4</ele>
        <time>2018-02-25T09:34:51.000Z</time>
      </trkpt>
      <trkpt lat="43.53955" lon="3.00766">
        <ele>325.5</ele>
        <time>2018-02-25T09:34:53.000Z</time>
      </trkpt>
      <trkpt lat="43.53957" lon="3.0077">
        <ele>325.8</ele>
        <time>2018-02-25T09:34:55.000Z</time>
      </trkpt>
      <trkpt lat="43.53959" lon="3.00773">
        <ele>326.2</ele>
        <time>2018-02-25T09:34:57.000Z</time>
      </trkpt>
      <trkpt lat="43.53962" lon="3.00777">
        <ele>326.7</ele>
        <time>2018-02-25T09:34:59.000Z</time>
      </trkpt>
      <trkpt lat="43.53964" lon="3.0078">
        <ele>327</ele>
        <time>2018-02-25T09:35:01.000Z</time>
      </trkpt>
      <trkpt lat="43.53967" lon="3.00783">
        <ele>327.3</ele>
        <time>2018-02-25T09:35:03.000Z</time>
      </trkpt>
      <trkpt lat="43.5397" lon="3.00786">
        <ele>327.8</ele>
        <time>2018-02-25T09:35:05.000Z</time>
      </trkpt>
      <trkpt lat="43.53973" lon="3.00789">
        <ele>328.5</ele>
        <time>2018-02-25T09:35:07.000Z</time>
      </trkpt>
      <trkpt lat="43.53976" lon="3.00791">
        <ele>328.8</ele>
        <time>2018-02-25T09:35:09.000Z</time>
      </trkpt>
      <trkpt lat="43.53979" lon="3.00793">
        <ele>329.1</ele>
        <time>2018-02-25T09:35:11.000Z</time>
      </trkpt>
      <trkpt lat="43.53982" lon="3.00795">
        <ele>329.6</ele>
        <time>2018-02-25T09:35:13.000Z</time>
      </trkpt>
      <trkpt lat="43.53984" lon="3.00797">
        <ele>330.1</ele>
        <time>2018-02-25T09:35:15.000Z</time>
      </trkpt>
      <trkpt lat="43.53986" lon="3.008">
        <ele>330.6</ele>
        <time>2018-02-25T09:35:17.000Z</time>
      </trkpt>
      <trkpt lat="43.53989" lon="3.00803">
        <ele>330.9</ele>
        <time>2018-02-25T09:35:20.000Z</time>
      </trkpt>
      <trkpt lat="43.53992" lon="3.00804">
        <ele>331.1</ele>
        <time>2018-02-25T09:35:23.000Z</time>
      </trkpt>
      <trkpt lat="43.53996" lon="3.00805">
        <ele>331.3</ele>
        <time>2018-02-25T09:35:26.000Z</time>
      </trkpt>
      <trkpt lat="43.53999" lon="3.00809">
        <ele>331.7</ele>
        <time>2018-02-25T09:35:28.000Z</time>
      </trkpt>
      <trkpt lat="43.54001" lon="3.00813">
        <ele>332.4</ele>
        <time>2018-02-25T09:35:30.000Z</time>
      </trkpt>
      <trkpt lat="43.54004" lon="3.00817">
        <ele>332.8</ele>
        <time>2018-02-25T09:35:32.000Z</time>
      </trkpt>
      <trkpt lat="43.54007" lon="3.00821">
        <ele>333.4</ele>
        <time>2018-02-25T09:35:34.000Z</time>
      </trkpt>
      <trkpt lat="43.54009" lon="3.00826">
        <ele>334</ele>
        <time>2018-02-25T09:35:36.000Z</time>
      </trkpt>
      <trkpt lat="43.54012" lon="3.00831">
        <ele>334.3</ele>
        <time>2018-02-25T09:35:38.000Z</time>
      </trkpt>
      <trkpt lat="43.54014" lon="3.00834">
        <ele>334.5</ele>
        <time>2018-02-25T09:35:40.000Z</time>
      </trkpt>
      <trkpt lat="43.54017" lon="3.00836">
        <ele>334.7</ele>
        <time>2018-02-25T09:35:42.000Z</time>
      </trkpt>
      <trkpt lat="43.5402" lon="3.00837">
        <ele>334.8</ele>
        <time>2018-02-25T09:35:44.000Z</time>
      </trkpt>
      <trkpt lat="43.54023" lon="3.00838">
        <ele>335</ele>
        <time>2018-02-25T09:35:47.000Z</time>
      </trkpt>
      <trkpt lat="43.54024" lon="3.00842">
        <ele>335.4</ele>
        <time>2018-02-25T09:35:49.000Z</time>
      </trkpt>
      <trkpt lat="43.54025" lon="3.00845">
        <ele>335.5</ele>
        <time>2018-02-25T09:35:51.000Z</time>
      </trkpt>
      <trkpt lat="43.54025" lon="3.0085">
        <ele>335.7</ele>
        <time>2018-02-25T09:35:53.000Z</time>
      </trkpt>
      <trkpt lat="43.54023" lon="3.00854">
        <ele>335.8</ele>
        <time>2018-02-25T09:35:55.000Z</time>
      </trkpt>
      <trkpt lat="43.54019" lon="3.00855">
        <ele>335.9</ele>
        <time>2018-02-25T09:35:57.000Z</time>
      </trkpt>
      <trkpt lat="43.54015" lon="3.00854">
        <ele>336</ele>
        <time>2018-02-25T09:35:59.000Z</time>
      </trkpt>
      <trkpt lat="43.54012" lon="3.00854">
        <ele>336.1</ele>
        <time>2018-02-25T09:36:01.000Z</time>
      </trkpt>
      <trkpt lat="43.54008" lon="3.00854">
        <ele>336.1</ele>
        <time>2018-02-25T09:36:03.000Z</time>
      </trkpt>
      <trkpt lat="43.54004" lon="3.00854">
        <ele>336.2</ele>
        <time>2018-02-25T09:36:05.000Z</time>
      </trkpt>
      <trkpt lat="43.54001" lon="3.00855">
        <ele>336.2</ele>
        <time>2018-02-25T09:36:07.000Z</time>
      </trkpt>
      <trkpt lat="43.53997" lon="3.00855">
        <ele>336.3</ele>
        <time>2018-02-25T09:36:09.000Z</time>
      </trkpt>
      <trkpt lat="43.53994" lon="3.00856">
        <ele>336.3</ele>
        <time>2018-02-25T09:36:11.000Z</time>
      </trkpt>
      <trkpt lat="43.53991" lon="3.00857">
        <ele>336.4</ele>
        <time>2018-02-25T09:36:13.000Z</time>
      </trkpt>
      <trkpt lat="43.53987" lon="3.00859">
        <ele>336.4</ele>
        <time>2018-02-25T09:36:15.000Z</time>
      </trkpt>
      <trkpt lat="43.53984" lon="3.00861">
        <ele>336.5</ele>
        <time>2018-02-25T09:36:17.000Z</time>
      </trkpt>
      <trkpt lat="43.53982" lon="3.00863">
        <ele>336.6</ele>
        <time>2018-02-25T09:36:19.000Z</time>
      </trkpt>
      <trkpt lat="43.53978" lon="3.00865">
        <ele>336.7</ele>
        <time>2018-02-25T09:36:22.000Z</time>
      </trkpt>
      <trkpt lat="43.53974" lon="3.00866">
        <ele>336.8</ele>
        <time>2018-02-25T09:36:24.000Z</time>
      </trkpt>
      <trkpt lat="43.53971" lon="3.00866">
        <ele>337</ele>
        <time>2018-02-25T09:36:26.000Z</time>
      </trkpt>
      <trkpt lat="43.53968" lon="3.00867">
        <ele>337.5</ele>
        <time>2018-02-25T09:36:28.000Z</time>
      </trkpt>
      <trkpt lat="43.53964" lon="3.00866">
        <ele>337.8</ele>
        <time>2018-02-25T09:36:30.000Z</time>
      </trkpt>
      <trkpt lat="43.53961" lon="3.00866">
        <ele>338</ele>
        <time>2018-02-25T09:36:32.000Z</time>
      </trkpt>
      <trkpt lat="43.53958" lon="3.00866">
        <ele>338.3</ele>
        <time>2018-02-25T09:36:34.000Z</time>
      </trkpt>
      <trkpt lat="43.53954" lon="3.00867">
        <ele>338.6</ele>
        <time>2018-02-25T09:36:36.000Z</time>
      </trkpt>
      <trkpt lat="43.53951" lon="3.00867">
        <ele>339.2</ele>
        <time>2018-02-25T09:36:39.000Z</time>
      </trkpt>
      <trkpt lat="43.53948" lon="3.00868">
        <ele>339.5</ele>
        <time>2018-02-25T09:36:41.000Z</time>
      </trkpt>
      <trkpt lat="43.53944" lon="3.00868">
        <ele>339.8</ele>
        <time>2018-02-25T09:36:43.000Z</time>
      </trkpt>
      <trkpt lat="43.53942" lon="3.00869">
        <ele>340</ele>
        <time>2018-02-25T09:36:45.000Z</time>
      </trkpt>
      <trkpt lat="43.53939" lon="3.00869">
        <ele>340.1</ele>
        <time>2018-02-25T09:36:47.000Z</time>
      </trkpt>
      <trkpt lat="43.53935" lon="3.00869">
        <ele>340.3</ele>
        <time>2018-02-25T09:36:49.000Z</time>
      </trkpt>
      <trkpt lat="43.53932" lon="3.00869">
        <ele>340.7</ele>
        <time>2018-02-25T09:36:51.000Z</time>
      </trkpt>
      <trkpt lat="43.53929" lon="3.0087">
        <ele>341.1</ele>
        <time>2018-02-25T09:36:53.000Z</time>
      </trkpt>
      <trkpt lat="43.53925" lon="3.00871">
        <ele>341.3</ele>
        <time>2018-02-25T09:36:55.000Z</time>
      </trkpt>
      <trkpt lat="43.53922" lon="3.00872">
        <ele>341.5</ele>
        <time>2018-02-25T09:36:57.000Z</time>
      </trkpt>
      <trkpt lat="43.53919" lon="3.00874">
        <ele>341.6</ele>
        <time>2018-02-25T09:36:59.000Z</time>
      </trkpt>
      <trkpt lat="43.53915" lon="3.00876">
        <ele>341.8</ele>
        <time>2018-02-25T09:37:01.000Z</time>
      </trkpt>
      <trkpt lat="43.53912" lon="3.00877">
        <ele>341.9</ele>
        <time>2018-02-25T09:37:03.000Z</time>
      </trkpt>
      <trkpt lat="43.53909" lon="3.00879">
        <ele>342</ele>
        <time>2018-02-25T09:37:05.000Z</time>
      </trkpt>
      <trkpt lat="43.53906" lon="3.00879">
        <ele>342.3</ele>
        <time>2018-02-25T09:37:07.000Z</time>
      </trkpt>
      <trkpt lat="43.53903" lon="3.0088">
        <ele>342.7</ele>
        <time>2018-02-25T09:37:09.000Z</time>
      </trkpt>
      <trkpt lat="43.53899" lon="3.0088">
        <ele>343.1</ele>
        <time>2018-02-25T09:37:11.000Z</time>
      </trkpt>
      <trkpt lat="43.53896" lon="3.00881">
        <ele>343.4</ele>
        <time>2018-02-25T09:37:13.000Z</time>
      </trkpt>
      <trkpt lat="43.53893" lon="3.00881">
        <ele>343.6</ele>
        <time>2018-02-25T09:37:15.000Z</time>
      </trkpt>
      <trkpt lat="43.5389" lon="3.00881">
        <ele>343.7</ele>
        <time>2018-02-25T09:37:17.000Z</time>
      </trkpt>
      <trkpt lat="43.53886" lon="3.00882">
        <ele>343.9</ele>
        <time>2018-02-25T09:37:20.000Z</time>
      </trkpt>
      <trkpt lat="43.53883" lon="3.00883">
        <ele>344.1</ele>
        <time>2018-02-25T09:37:22.000Z</time>
      </trkpt>
      <trkpt lat="43.53881" lon="3.00884">
        <ele>344.5</ele>
        <time>2018-02-25T09:37:24.000Z</time>
      </trkpt>
      <trkpt lat="43.53878" lon="3.00884">
        <ele>344.9</ele>
        <time>2018-02-25T09:37:26.000Z</time>
      </trkpt>
      <trkpt lat="43.53875" lon="3.00885">
        <ele>345.2</ele>
        <time>2018-02-25T09:37:28.000Z</time>
      </trkpt>
      <trkpt lat="43.5387" lon="3.00887">
        <ele>345.5</ele>
        <time>2018-02-25T09:37:30.000Z</time>
      </trkpt>
      <trkpt lat="43.53866" lon="3.00887">
        <ele>345.7</ele>
        <time>2018-02-25T09:37:32.000Z</time>
      </trkpt>
      <trkpt lat="43.53862" lon="3.00888">
        <ele>345.8</ele>
        <time>2018-02-25T09:37:34.000Z</time>
      </trkpt>
      <trkpt lat="43.53859" lon="3.00888">
        <ele>346</ele>
        <time>2018-02-25T09:37:36.000Z</time>
      </trkpt>
      <trkpt lat="43.53856" lon="3.00891">
        <ele>346.5</ele>
        <time>2018-02-25T09:37:38.000Z</time>
      </trkpt>
      <trkpt lat="43.53854" lon="3.00893">
        <ele>347</ele>
        <time>2018-02-25T09:37:40.000Z</time>
      </trkpt>
      <trkpt lat="43.53851" lon="3.00895">
        <ele>347.4</ele>
        <time>2018-02-25T09:37:42.000Z</time>
      </trkpt>
      <trkpt lat="43.53847" lon="3.00898">
        <ele>348.1</ele>
        <time>2018-02-25T09:37:45.000Z</time>
      </trkpt>
      <trkpt lat="43.53844" lon="3.009">
        <ele>348.7</ele>
        <time>2018-02-25T09:37:48.000Z</time>
      </trkpt>
      <trkpt lat="43.53842" lon="3.00902">
        <ele>349</ele>
        <time>2018-02-25T09:37:50.000Z</time>
      </trkpt>
      <trkpt lat="43.53839" lon="3.00904">
        <ele>349.2</ele>
        <time>2018-02-25T09:37:52.000Z</time>
      </trkpt>
      <trkpt lat="43.53836" lon="3.00906">
        <ele>349.4</ele>
        <time>2018-02-25T09:37:54.000Z</time>
      </trkpt>
      <trkpt lat="43.53832" lon="3.00908">
        <ele>349.7</ele>
        <time>2018-02-25T09:37:57.000Z</time>
      </trkpt>
      <trkpt lat="43.5383" lon="3.0091">
        <ele>349.9</ele>
        <time>2018-02-25T09:37:59.000Z</time>
      </trkpt>
      <trkpt lat="43.53828" lon="3.00913">
        <ele>350.4</ele>
        <time>2018-02-25T09:38:01.000Z</time>
      </trkpt>
      <trkpt lat="43.53825" lon="3.00915">
        <ele>351</ele>
        <time>2018-02-25T09:38:03.000Z</time>
      </trkpt>
      <trkpt lat="43.53822" lon="3.00915">
        <ele>351.3</ele>
        <time>2018-02-25T09:38:05.000Z</time>
      </trkpt>
      <trkpt lat="43.53819" lon="3.00916">
        <ele>351.8</ele>
        <time>2018-02-25T09:38:07.000Z</time>
      </trkpt>
      <trkpt lat="43.53816" lon="3.00917">
        <ele>352.4</ele>
        <time>2018-02-25T09:38:09.000Z</time>
      </trkpt>
      <trkpt lat="43.53813" lon="3.00917">
        <ele>352.9</ele>
        <time>2018-02-25T09:38:11.000Z</time>
      </trkpt>
      <trkpt lat="43.53809" lon="3.00917">
        <ele>353</ele>
        <time>2018-02-25T09:38:13.000Z</time>
      </trkpt>
      <trkpt lat="43.53806" lon="3.00917">
        <ele>353.2</ele>
        <time>2018-02-25T09:38:15.000Z</time>
      </trkpt>
      <trkpt lat="43.53803" lon="3.00917">
        <ele>353.4</ele>
        <time>2018-02-25T09:38:18.000Z</time>
      </trkpt>
      <trkpt lat="43.538" lon="3.00918">
        <ele>353.5</ele>
        <time>2018-02-25T09:38:20.000Z</time>
      </trkpt>
      <trkpt lat="43.53797" lon="3.00918">
        <ele>353.5</ele>
        <time>2018-02-25T09:38:22.000Z</time>
      </trkpt>
      <trkpt lat="43.53793" lon="3.00919">
        <ele>353.3</ele>
        <time>2018-02-25T09:38:24.000Z</time>
      </trkpt>
      <trkpt lat="43.5379" lon="3.0092">
        <ele>353.1</ele>
        <time>2018-02-25T09:38:26.000Z</time>
      </trkpt>
      <trkpt lat="43.53786" lon="3.00921">
        <ele>353.1</ele>
        <time>2018-02-25T09:38:28.000Z</time>
      </trkpt>
      <trkpt lat="43.53782" lon="3.00922">
        <ele>353.1</ele>
        <time>2018-02-25T09:38:30.000Z</time>
      </trkpt>
      <trkpt lat="43.53779" lon="3.00923">
        <ele>353.1</ele>
        <time>2018-02-25T09:38:32.000Z</time>
      </trkpt>
      <trkpt lat="43.53777" lon="3.00923">
        <ele>353.1</ele>
        <time>2018-02-25T09:38:34.000Z</time>
      </trkpt>
      <trkpt lat="43.53773" lon="3.00923">
        <ele>353.2</ele>
        <time>2018-02-25T09:38:36.000Z</time>
      </trkpt>
      <trkpt lat="43.53771" lon="3.00924">
        <ele>353.4</ele>
        <time>2018-02-25T09:38:38.000Z</time>
      </trkpt>
      <trkpt lat="43.53767" lon="3.00925">
        <ele>353.9</ele>
        <time>2018-02-25T09:38:41.000Z</time>
      </trkpt>
      <trkpt lat="43.53763" lon="3.00927">
        <ele>354.2</ele>
        <time>2018-02-25T09:38:44.000Z</time>
      </trkpt>
      <trkpt lat="43.5376" lon="3.00928">
        <ele>354.3</ele>
        <time>2018-02-25T09:38:46.000Z</time>
      </trkpt>
      <trkpt lat="43.53757" lon="3.0093">
        <ele>354.4</ele>
        <time>2018-02-25T09:38:48.000Z</time>
      </trkpt>
      <trkpt lat="43.53754" lon="3.00931">
        <ele>354.6</ele>
        <time>2018-02-25T09:38:50.000Z</time>
      </trkpt>
      <trkpt lat="43.53751" lon="3.00934">
        <ele>354.7</ele>
        <time>2018-02-25T09:38:53.000Z</time>
      </trkpt>
      <trkpt lat="43.53747" lon="3.00938">
        <ele>354.9</ele>
        <time>2018-02-25T09:38:56.000Z</time>
      </trkpt>
      <trkpt lat="43.53744" lon="3.00941">
        <ele>355.3</ele>
        <time>2018-02-25T09:38:58.000Z</time>
      </trkpt>
      <trkpt lat="43.53742" lon="3.00944">
        <ele>355.8</ele>
        <time>2018-02-25T09:39:00.000Z</time>
      </trkpt>
      <trkpt lat="43.53739" lon="3.00947">
        <ele>356.2</ele>
        <time>2018-02-25T09:39:02.000Z</time>
      </trkpt>
      <trkpt lat="43.53736" lon="3.00949">
        <ele>356.5</ele>
        <time>2018-02-25T09:39:04.000Z</time>
      </trkpt>
      <trkpt lat="43.53733" lon="3.00951">
        <ele>357</ele>
        <time>2018-02-25T09:39:06.000Z</time>
      </trkpt>
      <trkpt lat="43.53731" lon="3.00953">
        <ele>357.4</ele>
        <time>2018-02-25T09:39:08.000Z</time>
      </trkpt>
      <trkpt lat="43.53728" lon="3.00955">
        <ele>357.6</ele>
        <time>2018-02-25T09:39:10.000Z</time>
      </trkpt>
      <trkpt lat="43.53726" lon="3.00958">
        <ele>357.9</ele>
        <time>2018-02-25T09:39:12.000Z</time>
      </trkpt>
      <trkpt lat="43.53723" lon="3.00959">
        <ele>358</ele>
        <time>2018-02-25T09:39:14.000Z</time>
      </trkpt>
      <trkpt lat="43.5372" lon="3.00959">
        <ele>358.1</ele>
        <time>2018-02-25T09:39:16.000Z</time>
      </trkpt>
      <trkpt lat="43.53716" lon="3.00961">
        <ele>358.3</ele>
        <time>2018-02-25T09:39:19.000Z</time>
      </trkpt>
      <trkpt lat="43.53712" lon="3.00963">
        <ele>358.5</ele>
        <time>2018-02-25T09:39:21.000Z</time>
      </trkpt>
      <trkpt lat="43.53709" lon="3.00965">
        <ele>358.7</ele>
        <time>2018-02-25T09:39:23.000Z</time>
      </trkpt>
      <trkpt lat="43.53705" lon="3.00967">
        <ele>359.3</ele>
        <time>2018-02-25T09:39:25.000Z</time>
      </trkpt>
      <trkpt lat="43.53702" lon="3.0097">
        <ele>360.3</ele>
        <time>2018-02-25T09:39:27.000Z</time>
      </trkpt>
      <trkpt lat="43.53699" lon="3.00973">
        <ele>361</ele>
        <time>2018-02-25T09:39:29.000Z</time>
      </trkpt>
      <trkpt lat="43.53697" lon="3.00975">
        <ele>361.3</ele>
        <time>2018-02-25T09:39:31.000Z</time>
      </trkpt>
      <trkpt lat="43.53694" lon="3.00979">
        <ele>361.5</ele>
        <time>2018-02-25T09:39:33.000Z</time>
      </trkpt>
      <trkpt lat="43.53691" lon="3.00982">
        <ele>361.7</ele>
        <time>2018-02-25T09:39:35.000Z</time>
      </trkpt>
      <trkpt lat="43.53689" lon="3.00986">
        <ele>361.9</ele>
        <time>2018-02-25T09:39:37.000Z</time>
      </trkpt>
      <trkpt lat="43.53687" lon="3.0099">
        <ele>362</ele>
        <time>2018-02-25T09:39:40.000Z</time>
      </trkpt>
      <trkpt lat="43.53686" lon="3.00993">
        <ele>362.1</ele>
        <time>2018-02-25T09:39:42.000Z</time>
      </trkpt>
      <trkpt lat="43.53685" lon="3.00997">
        <ele>362.2</ele>
        <time>2018-02-25T09:39:44.000Z</time>
      </trkpt>
      <trkpt lat="43.53684" lon="3.01001">
        <ele>362.4</ele>
        <time>2018-02-25T09:39:46.000Z</time>
      </trkpt>
      <trkpt lat="43.53684" lon="3.01005">
        <ele>362.6</ele>
        <time>2018-02-25T09:39:48.000Z</time>
      </trkpt>
      <trkpt lat="43.53683" lon="3.01009">
        <ele>363</ele>
        <time>2018-02-25T09:39:50.000Z</time>
      </trkpt>
      <trkpt lat="43.53684" lon="3.01013">
        <ele>363.4</ele>
        <time>2018-02-25T09:39:53.000Z</time>
      </trkpt>
      <trkpt lat="43.53683" lon="3.01018">
        <ele>363.6</ele>
        <time>2018-02-25T09:39:56.000Z</time>
      </trkpt>
      <trkpt lat="43.53682" lon="3.01022">
        <ele>363.8</ele>
        <time>2018-02-25T09:39:58.000Z</time>
      </trkpt>
      <trkpt lat="43.53681" lon="3.01026">
        <ele>363.9</ele>
        <time>2018-02-25T09:40:00.000Z</time>
      </trkpt>
      <trkpt lat="43.5368" lon="3.0103">
        <ele>364</ele>
        <time>2018-02-25T09:40:02.000Z</time>
      </trkpt>
      <trkpt lat="43.5368" lon="3.01034">
        <ele>364.2</ele>
        <time>2018-02-25T09:40:04.000Z</time>
      </trkpt>
      <trkpt lat="43.5368" lon="3.01038">
        <ele>364.4</ele>
        <time>2018-02-25T09:40:06.000Z</time>
      </trkpt>
      <trkpt lat="43.53679" lon="3.01042">
        <ele>364.9</ele>
        <time>2018-02-25T09:40:08.000Z</time>
      </trkpt>
      <trkpt lat="43.53677" lon="3.01046">
        <ele>365.7</ele>
        <time>2018-02-25T09:40:10.000Z</time>
      </trkpt>
      <trkpt lat="43.53674" lon="3.0105">
        <ele>366.4</ele>
        <time>2018-02-25T09:40:13.000Z</time>
      </trkpt>
      <trkpt lat="43.53672" lon="3.01052">
        <ele>366.8</ele>
        <time>2018-02-25T09:40:15.000Z</time>
      </trkpt>
      <trkpt lat="43.53671" lon="3.01056">
        <ele>367</ele>
        <time>2018-02-25T09:40:17.000Z</time>
      </trkpt>
      <trkpt lat="43.5367" lon="3.0106">
        <ele>367.2</ele>
        <time>2018-02-25T09:40:19.000Z</time>
      </trkpt>
      <trkpt lat="43.53669" lon="3.01064">
        <ele>367.4</ele>
        <time>2018-02-25T09:40:21.000Z</time>
      </trkpt>
      <trkpt lat="43.53668" lon="3.01068">
        <ele>367.5</ele>
        <time>2018-02-25T09:40:23.000Z</time>
      </trkpt>
      <trkpt lat="43.53667" lon="3.01072">
        <ele>367.7</ele>
        <time>2018-02-25T09:40:25.000Z</time>
      </trkpt>
      <trkpt lat="43.53666" lon="3.01077">
        <ele>368.1</ele>
        <time>2018-02-25T09:40:27.000Z</time>
      </trkpt>
      <trkpt lat="43.53665" lon="3.0108">
        <ele>368.6</ele>
        <time>2018-02-25T09:40:29.000Z</time>
      </trkpt>
      <trkpt lat="43.53664" lon="3.01085">
        <ele>368.9</ele>
        <time>2018-02-25T09:40:31.000Z</time>
      </trkpt>
      <trkpt lat="43.53663" lon="3.0109">
        <ele>369.1</ele>
        <time>2018-02-25T09:40:34.000Z</time>
      </trkpt>
      <trkpt lat="43.53661" lon="3.01094">
        <ele>369.3</ele>
        <time>2018-02-25T09:40:36.000Z</time>
      </trkpt>
      <trkpt lat="43.5366" lon="3.01098">
        <ele>369.4</ele>
        <time>2018-02-25T09:40:38.000Z</time>
      </trkpt>
      <trkpt lat="43.53659" lon="3.01101">
        <ele>369.7</ele>
        <time>2018-02-25T09:40:40.000Z</time>
      </trkpt>
      <trkpt lat="43.53658" lon="3.01107">
        <ele>370</ele>
        <time>2018-02-25T09:40:43.000Z</time>
      </trkpt>
      <trkpt lat="43.53658" lon="3.01111">
        <ele>370.2</ele>
        <time>2018-02-25T09:40:45.000Z</time>
      </trkpt>
      <trkpt lat="43.53658" lon="3.01116">
        <ele>370.3</ele>
        <time>2018-02-25T09:40:47.000Z</time>
      </trkpt>
      <trkpt lat="43.53658" lon="3.01121">
        <ele>370.4</ele>
        <time>2018-02-25T09:40:49.000Z</time>
      </trkpt>
      <trkpt lat="43.53657" lon="3.01126">
        <ele>370.6</ele>
        <time>2018-02-25T09:40:51.000Z</time>
      </trkpt>
      <trkpt lat="43.53658" lon="3.0113">
        <ele>370.7</ele>
        <time>2018-02-25T09:40:53.000Z</time>
      </trkpt>
      <trkpt lat="43.53659" lon="3.01134">
        <ele>370.8</ele>
        <time>2018-02-25T09:40:56.000Z</time>
      </trkpt>
      <trkpt lat="43.53659" lon="3.01138">
        <ele>370.8</ele>
        <time>2018-02-25T09:40:58.000Z</time>
      </trkpt>
      <trkpt lat="43.53659" lon="3.01143">
        <ele>370.9</ele>
        <time>2018-02-25T09:41:00.000Z</time>
      </trkpt>
      <trkpt lat="43.53659" lon="3.01148">
        <ele>370.9</ele>
        <time>2018-02-25T09:41:02.000Z</time>
      </trkpt>
      <trkpt lat="43.53659" lon="3.01153">
        <ele>371</ele>
        <time>2018-02-25T09:41:04.000Z</time>
      </trkpt>
      <trkpt lat="43.53657" lon="3.01158">
        <ele>371.1</ele>
        <time>2018-02-25T09:41:06.000Z</time>
      </trkpt>
      <trkpt lat="43.53656" lon="3.01163">
        <ele>371.2</ele>
        <time>2018-02-25T09:41:08.000Z</time>
      </trkpt>
      <trkpt lat="43.53655" lon="3.01168">
        <ele>371.3</ele>
        <time>2018-02-25T09:41:10.000Z</time>
      </trkpt>
      <trkpt lat="43.53653" lon="3.01173">
        <ele>371.7</ele>
        <time>2018-02-25T09:41:12.000Z</time>
      </trkpt>
      <trkpt lat="43.53651" lon="3.01177">
        <ele>372.2</ele>
        <time>2018-02-25T09:41:14.000Z</time>
      </trkpt>
      <trkpt lat="43.5365" lon="3.01183">
        <ele>372.8</ele>
        <time>2018-02-25T09:41:16.000Z</time>
      </trkpt>
      <trkpt lat="43.53649" lon="3.01187">
        <ele>373.1</ele>
        <time>2018-02-25T09:41:18.000Z</time>
      </trkpt>
      <trkpt lat="43.53647" lon="3.0119">
        <ele>373.6</ele>
        <time>2018-02-25T09:41:20.000Z</time>
      </trkpt>
      <trkpt lat="43.53644" lon="3.01194">
        <ele>374.1</ele>
        <time>2018-02-25T09:41:22.000Z</time>
      </trkpt>
      <trkpt lat="43.53642" lon="3.01197">
        <ele>374.5</ele>
        <time>2018-02-25T09:41:24.000Z</time>
      </trkpt>
      <trkpt lat="43.5364" lon="3.012">
        <ele>374.8</ele>
        <time>2018-02-25T09:41:26.000Z</time>
      </trkpt>
      <trkpt lat="43.53637" lon="3.01203">
        <ele>375</ele>
        <time>2018-02-25T09:41:28.000Z</time>
      </trkpt>
      <trkpt lat="43.53634" lon="3.01205">
        <ele>375.2</ele>
        <time>2018-02-25T09:41:30.000Z</time>
      </trkpt>
      <trkpt lat="43.53632" lon="3.01208">
        <ele>375.4</ele>
        <time>2018-02-25T09:41:32.000Z</time>
      </trkpt>
      <trkpt lat="43.53629" lon="3.01211">
        <ele>375.6</ele>
        <time>2018-02-25T09:41:34.000Z</time>
      </trkpt>
      <trkpt lat="43.53627" lon="3.01214">
        <ele>376.2</ele>
        <time>2018-02-25T09:41:36.000Z</time>
      </trkpt>
      <trkpt lat="43.53623" lon="3.01217">
        <ele>376.6</ele>
        <time>2018-02-25T09:41:39.000Z</time>
      </trkpt>
      <trkpt lat="43.53621" lon="3.01219">
        <ele>376.8</ele>
        <time>2018-02-25T09:41:41.000Z</time>
      </trkpt>
      <trkpt lat="43.53618" lon="3.0122">
        <ele>377.4</ele>
        <time>2018-02-25T09:41:44.000Z</time>
      </trkpt>
      <trkpt lat="43.53615" lon="3.01222">
        <ele>377.8</ele>
        <time>2018-02-25T09:41:46.000Z</time>
      </trkpt>
      <trkpt lat="43.53613" lon="3.01225">
        <ele>378</ele>
        <time>2018-02-25T09:41:48.000Z</time>
      </trkpt>
      <trkpt lat="43.5361" lon="3.01228">
        <ele>378.2</ele>
        <time>2018-02-25T09:41:50.000Z</time>
      </trkpt>
      <trkpt lat="43.53607" lon="3.0123">
        <ele>378.4</ele>
        <time>2018-02-25T09:41:52.000Z</time>
      </trkpt>
      <trkpt lat="43.53605" lon="3.01233">
        <ele>378.6</ele>
        <time>2018-02-25T09:41:54.000Z</time>
      </trkpt>
      <trkpt lat="43.53602" lon="3.01236">
        <ele>378.7</ele>
        <time>2018-02-25T09:41:56.000Z</time>
      </trkpt>
      <trkpt lat="43.53601" lon="3.0124">
        <ele>378.9</ele>
        <time>2018-02-25T09:41:58.000Z</time>
      </trkpt>
      <trkpt lat="43.53599" lon="3.01244">
        <ele>379</ele>
        <time>2018-02-25T09:42:00.000Z</time>
      </trkpt>
      <trkpt lat="43.53597" lon="3.01248">
        <ele>379.4</ele>
        <time>2018-02-25T09:42:02.000Z</time>
      </trkpt>
      <trkpt lat="43.53596" lon="3.01252">
        <ele>379.8</ele>
        <time>2018-02-25T09:42:04.000Z</time>
      </trkpt>
      <trkpt lat="43.53594" lon="3.01255">
        <ele>380.1</ele>
        <time>2018-02-25T09:42:06.000Z</time>
      </trkpt>
      <trkpt lat="43.53593" lon="3.01259">
        <ele>380.5</ele>
        <time>2018-02-25T09:42:09.000Z</time>
      </trkpt>
      <trkpt lat="43.53592" lon="3.01265">
        <ele>381.1</ele>
        <time>2018-02-25T09:42:12.000Z</time>
      </trkpt>
      <trkpt lat="43.53591" lon="3.01269">
        <ele>381.5</ele>
        <time>2018-02-25T09:42:14.000Z</time>
      </trkpt>
      <trkpt lat="43.53592" lon="3.01273">
        <ele>381.7</ele>
        <time>2018-02-25T09:42:17.000Z</time>
      </trkpt>
      <trkpt lat="43.53591" lon="3.01277">
        <ele>381.9</ele>
        <time>2018-02-25T09:42:19.000Z</time>
      </trkpt>
      <trkpt lat="43.5359" lon="3.0128">
        <ele>382.1</ele>
        <time>2018-02-25T09:42:21.000Z</time>
      </trkpt>
      <trkpt lat="43.5359" lon="3.01285">
        <ele>382.5</ele>
        <time>2018-02-25T09:42:23.000Z</time>
      </trkpt>
      <trkpt lat="43.53591" lon="3.01289">
        <ele>382.9</ele>
        <time>2018-02-25T09:42:25.000Z</time>
      </trkpt>
      <trkpt lat="43.53591" lon="3.01294">
        <ele>383.5</ele>
        <time>2018-02-25T09:42:28.000Z</time>
      </trkpt>
      <trkpt lat="43.53592" lon="3.01299">
        <ele>384.1</ele>
        <time>2018-02-25T09:42:31.000Z</time>
      </trkpt>
      <trkpt lat="43.53593" lon="3.01304">
        <ele>384.7</ele>
        <time>2018-02-25T09:42:34.000Z</time>
      </trkpt>
      <trkpt lat="43.53594" lon="3.01309">
        <ele>385</ele>
        <time>2018-02-25T09:42:37.000Z</time>
      </trkpt>
      <trkpt lat="43.53596" lon="3.01314">
        <ele>385.2</ele>
        <time>2018-02-25T09:42:39.000Z</time>
      </trkpt>
      <trkpt lat="43.53597" lon="3.01319">
        <ele>385.4</ele>
        <time>2018-02-25T09:42:41.000Z</time>
      </trkpt>
      <trkpt lat="43.53598" lon="3.01324">
        <ele>385.6</ele>
        <time>2018-02-25T09:42:43.000Z</time>
      </trkpt>
      <trkpt lat="43.536" lon="3.01328">
        <ele>386.2</ele>
        <time>2018-02-25T09:42:46.000Z</time>
      </trkpt>
      <trkpt lat="43.536" lon="3.01333">
        <ele>386.3</ele>
        <time>2018-02-25T09:42:49.000Z</time>
      </trkpt>
      <trkpt lat="43.53601" lon="3.01337">
        <ele>386.5</ele>
        <time>2018-02-25T09:42:51.000Z</time>
      </trkpt>
      <trkpt lat="43.53603" lon="3.01342">
        <ele>386.6</ele>
        <time>2018-02-25T09:42:54.000Z</time>
      </trkpt>
      <trkpt lat="43.53604" lon="3.01347">
        <ele>386.9</ele>
        <time>2018-02-25T09:42:57.000Z</time>
      </trkpt>
      <trkpt lat="43.53604" lon="3.01352">
        <ele>387</ele>
        <time>2018-02-25T09:43:00.000Z</time>
      </trkpt>
      <trkpt lat="43.53605" lon="3.01357">
        <ele>387.1</ele>
        <time>2018-02-25T09:43:02.000Z</time>
      </trkpt>
      <trkpt lat="43.53606" lon="3.01362">
        <ele>387.2</ele>
        <time>2018-02-25T09:43:04.000Z</time>
      </trkpt>
      <trkpt lat="43.53607" lon="3.01366">
        <ele>387.3</ele>
        <time>2018-02-25T09:43:06.000Z</time>
      </trkpt>
      <trkpt lat="43.53608" lon="3.0137">
        <ele>387.5</ele>
        <time>2018-02-25T09:43:08.000Z</time>
      </trkpt>
      <trkpt lat="43.53608" lon="3.01374">
        <ele>387.6</ele>
        <time>2018-02-25T09:43:10.000Z</time>
      </trkpt>
      <trkpt lat="43.53608" lon="3.01379">
        <ele>387.9</ele>
        <time>2018-02-25T09:43:12.000Z</time>
      </trkpt>
      <trkpt lat="43.53607" lon="3.01382">
        <ele>388.3</ele>
        <time>2018-02-25T09:43:14.000Z</time>
      </trkpt>
      <trkpt lat="43.53607" lon="3.01388">
        <ele>388.6</ele>
        <time>2018-02-25T09:43:17.000Z</time>
      </trkpt>
      <trkpt lat="43.53607" lon="3.01393">
        <ele>388.9</ele>
        <time>2018-02-25T09:43:20.000Z</time>
      </trkpt>
      <trkpt lat="43.53607" lon="3.01399">
        <ele>389.3</ele>
        <time>2018-02-25T09:43:23.000Z</time>
      </trkpt>
      <trkpt lat="43.53608" lon="3.01404">
        <ele>389.8</ele>
        <time>2018-02-25T09:43:25.000Z</time>
      </trkpt>
      <trkpt lat="43.53608" lon="3.01409">
        <ele>390.2</ele>
        <time>2018-02-25T09:43:27.000Z</time>
      </trkpt>
      <trkpt lat="43.53608" lon="3.01415">
        <ele>390.5</ele>
        <time>2018-02-25T09:43:29.000Z</time>
      </trkpt>
      <trkpt lat="43.53609" lon="3.0142">
        <ele>390.8</ele>
        <time>2018-02-25T09:43:31.000Z</time>
      </trkpt>
      <trkpt lat="43.53609" lon="3.01425">
        <ele>391</ele>
        <time>2018-02-25T09:43:33.000Z</time>
      </trkpt>
      <trkpt lat="43.5361" lon="3.01429">
        <ele>391.4</ele>
        <time>2018-02-25T09:43:35.000Z</time>
      </trkpt>
      <trkpt lat="43.53611" lon="3.01433">
        <ele>391.7</ele>
        <time>2018-02-25T09:43:37.000Z</time>
      </trkpt>
      <trkpt lat="43.53611" lon="3.01437">
        <ele>392</ele>
        <time>2018-02-25T09:43:39.000Z</time>
      </trkpt>
      <trkpt lat="43.53612" lon="3.01441">
        <ele>392.2</ele>
        <time>2018-02-25T09:43:41.000Z</time>
      </trkpt>
      <trkpt lat="43.53611" lon="3.01447">
        <ele>392.4</ele>
        <time>2018-02-25T09:43:43.000Z</time>
      </trkpt>
      <trkpt lat="43.5361" lon="3.01452">
        <ele>392.5</ele>
        <time>2018-02-25T09:43:45.000Z</time>
      </trkpt>
      <trkpt lat="43.5361" lon="3.01457">
        <ele>392.6</ele>
        <time>2018-02-25T09:43:47.000Z</time>
      </trkpt>
      <trkpt lat="43.53611" lon="3.01461">
        <ele>392.7</ele>
        <time>2018-02-25T09:43:49.000Z</time>
      </trkpt>
      <trkpt lat="43.53612" lon="3.01466">
        <ele>393.1</ele>
        <time>2018-02-25T09:43:52.000Z</time>
      </trkpt>
      <trkpt lat="43.53613" lon="3.01472">
        <ele>393.6</ele>
        <time>2018-02-25T09:43:55.000Z</time>
      </trkpt>
      <trkpt lat="43.53613" lon="3.01476">
        <ele>393.8</ele>
        <time>2018-02-25T09:43:57.000Z</time>
      </trkpt>
      <trkpt lat="43.53614" lon="3.01479">
        <ele>393.9</ele>
        <time>2018-02-25T09:43:59.000Z</time>
      </trkpt>
      <trkpt lat="43.53616" lon="3.01484">
        <ele>394.4</ele>
        <time>2018-02-25T09:44:02.000Z</time>
      </trkpt>
      <trkpt lat="43.53618" lon="3.01487">
        <ele>394.6</ele>
        <time>2018-02-25T09:44:04.000Z</time>
      </trkpt>
      <trkpt lat="43.5362" lon="3.0149">
        <ele>394.9</ele>
        <time>2018-02-25T09:44:06.000Z</time>
      </trkpt>
      <trkpt lat="43.53623" lon="3.01493">
        <ele>395.7</ele>
        <time>2018-02-25T09:44:08.000Z</time>
      </trkpt>
      <trkpt lat="43.53626" lon="3.01496">
        <ele>396.4</ele>
        <time>2018-02-25T09:44:10.000Z</time>
      </trkpt>
      <trkpt lat="43.5363" lon="3.01498">
        <ele>396.7</ele>
        <time>2018-02-25T09:44:12.000Z</time>
      </trkpt>
      <trkpt lat="43.53633" lon="3.01499">
        <ele>397</ele>
        <time>2018-02-25T09:44:14.000Z</time>
      </trkpt>
      <trkpt lat="43.53635" lon="3.015">
        <ele>397.4</ele>
        <time>2018-02-25T09:44:16.000Z</time>
      </trkpt>
      <trkpt lat="43.53638" lon="3.01502">
        <ele>397.9</ele>
        <time>2018-02-25T09:44:18.000Z</time>
      </trkpt>
      <trkpt lat="43.53641" lon="3.01504">
        <ele>398.5</ele>
        <time>2018-02-25T09:44:20.000Z</time>
      </trkpt>
      <trkpt lat="43.53644" lon="3.01506">
        <ele>399.1</ele>
        <time>2018-02-25T09:44:22.000Z</time>
      </trkpt>
      <trkpt lat="43.53646" lon="3.01509">
        <ele>399.5</ele>
        <time>2018-02-25T09:44:24.000Z</time>
      </trkpt>
      <trkpt lat="43.53649" lon="3.01511">
        <ele>399.7</ele>
        <time>2018-02-25T09:44:26.000Z</time>
      </trkpt>
      <trkpt lat="43.53652" lon="3.01512">
        <ele>400.1</ele>
        <time>2018-02-25T09:44:28.000Z</time>
      </trkpt>
      <trkpt lat="43.53656" lon="3.01513">
        <ele>400.8</ele>
        <time>2018-02-25T09:44:30.000Z</time>
      </trkpt>
      <trkpt lat="43.53659" lon="3.01513">
        <ele>401.4</ele>
        <time>2018-02-25T09:44:32.000Z</time>
      </trkpt>
      <trkpt lat="43.53662" lon="3.01514">
        <ele>401.7</ele>
        <time>2018-02-25T09:44:34.000Z</time>
      </trkpt>
      <trkpt lat="43.53665" lon="3.01514">
        <ele>401.9</ele>
        <time>2018-02-25T09:44:36.000Z</time>
      </trkpt>
      <trkpt lat="43.53668" lon="3.01513">
        <ele>402.1</ele>
        <time>2018-02-25T09:44:38.000Z</time>
      </trkpt>
      <trkpt lat="43.53672" lon="3.01512">
        <ele>402.5</ele>
        <time>2018-02-25T09:44:40.000Z</time>
      </trkpt>
      <trkpt lat="43.53675" lon="3.01511">
        <ele>403.2</ele>
        <time>2018-02-25T09:44:42.000Z</time>
      </trkpt>
      <trkpt lat="43.53679" lon="3.0151">
        <ele>403.9</ele>
        <time>2018-02-25T09:44:45.000Z</time>
      </trkpt>
      <trkpt lat="43.53683" lon="3.01509">
        <ele>404.4</ele>
        <time>2018-02-25T09:44:47.000Z</time>
      </trkpt>
      <trkpt lat="43.53687" lon="3.01508">
        <ele>404.8</ele>
        <time>2018-02-25T09:44:49.000Z</time>
      </trkpt>
      <trkpt lat="43.53691" lon="3.01508">
        <ele>405.1</ele>
        <time>2018-02-25T09:44:51.000Z</time>
      </trkpt>
      <trkpt lat="43.53695" lon="3.01508">
        <ele>405.6</ele>
        <time>2018-02-25T09:44:53.000Z</time>
      </trkpt>
      <trkpt lat="43.53699" lon="3.01508">
        <ele>406.3</ele>
        <time>2018-02-25T09:44:55.000Z</time>
      </trkpt>
      <trkpt lat="43.53703" lon="3.01507">
        <ele>406.9</ele>
        <time>2018-02-25T09:44:57.000Z</time>
      </trkpt>
      <trkpt lat="43.53706" lon="3.01504">
        <ele>407.1</ele>
        <time>2018-02-25T09:44:59.000Z</time>
      </trkpt>
      <trkpt lat="43.5371" lon="3.01503">
        <ele>407.4</ele>
        <time>2018-02-25T09:45:02.000Z</time>
      </trkpt>
      <trkpt lat="43.53713" lon="3.01502">
        <ele>407.7</ele>
        <time>2018-02-25T09:45:04.000Z</time>
      </trkpt>
      <trkpt lat="43.53718" lon="3.01502">
        <ele>408.2</ele>
        <time>2018-02-25T09:45:06.000Z</time>
      </trkpt>
      <trkpt lat="43.53721" lon="3.01502">
        <ele>408.8</ele>
        <time>2018-02-25T09:45:09.000Z</time>
      </trkpt>
      <trkpt lat="43.53724" lon="3.01502">
        <ele>409.4</ele>
        <time>2018-02-25T09:45:11.000Z</time>
      </trkpt>
      <trkpt lat="43.53727" lon="3.01502">
        <ele>409.6</ele>
        <time>2018-02-25T09:45:13.000Z</time>
      </trkpt>
      <trkpt lat="43.5373" lon="3.01502">
        <ele>409.8</ele>
        <time>2018-02-25T09:45:15.000Z</time>
      </trkpt>
      <trkpt lat="43.53733" lon="3.01502">
        <ele>410.1</ele>
        <time>2018-02-25T09:45:17.000Z</time>
      </trkpt>
      <trkpt lat="43.53737" lon="3.01502">
        <ele>410.5</ele>
        <time>2018-02-25T09:45:19.000Z</time>
      </trkpt>
      <trkpt lat="43.53741" lon="3.01501">
        <ele>411.2</ele>
        <time>2018-02-25T09:45:21.000Z</time>
      </trkpt>
      <trkpt lat="43.53744" lon="3.015">
        <ele>411.8</ele>
        <time>2018-02-25T09:45:23.000Z</time>
      </trkpt>
      <trkpt lat="43.53747" lon="3.01501">
        <ele>412</ele>
        <time>2018-02-25T09:45:25.000Z</time>
      </trkpt>
      <trkpt lat="43.5375" lon="3.01501">
        <ele>412.2</ele>
        <time>2018-02-25T09:45:27.000Z</time>
      </trkpt>
      <trkpt lat="43.53753" lon="3.01501">
        <ele>412.4</ele>
        <time>2018-02-25T09:45:29.000Z</time>
      </trkpt>
      <trkpt lat="43.53757" lon="3.015">
        <ele>412.7</ele>
        <time>2018-02-25T09:45:31.000Z</time>
      </trkpt>
      <trkpt lat="43.5376" lon="3.015">
        <ele>413</ele>
        <time>2018-02-25T09:45:33.000Z</time>
      </trkpt>
      <trkpt lat="43.53763" lon="3.015">
        <ele>413.4</ele>
        <time>2018-02-25T09:45:35.000Z</time>
      </trkpt>
      <trkpt lat="43.53766" lon="3.01501">
        <ele>414</ele>
        <time>2018-02-25T09:45:37.000Z</time>
      </trkpt>
      <trkpt lat="43.53769" lon="3.01503">
        <ele>414.6</ele>
        <time>2018-02-25T09:45:40.000Z</time>
      </trkpt>
      <trkpt lat="43.53772" lon="3.01504">
        <ele>415</ele>
        <time>2018-02-25T09:45:42.000Z</time>
      </trkpt>
      <trkpt lat="43.53775" lon="3.01504">
        <ele>415.4</ele>
        <time>2018-02-25T09:45:44.000Z</time>
      </trkpt>
      <trkpt lat="43.53779" lon="3.01505">
        <ele>415.8</ele>
        <time>2018-02-25T09:45:46.000Z</time>
      </trkpt>
      <trkpt lat="43.53783" lon="3.01504">
        <ele>416.4</ele>
        <time>2018-02-25T09:45:48.000Z</time>
      </trkpt>
      <trkpt lat="43.53787" lon="3.01505">
        <ele>417.1</ele>
        <time>2018-02-25T09:45:50.000Z</time>
      </trkpt>
      <trkpt lat="43.5379" lon="3.01505">
        <ele>417.6</ele>
        <time>2018-02-25T09:45:52.000Z</time>
      </trkpt>
      <trkpt lat="43.53794" lon="3.01504">
        <ele>417.9</ele>
        <time>2018-02-25T09:45:54.000Z</time>
      </trkpt>
      <trkpt lat="43.53797" lon="3.01504">
        <ele>418.2</ele>
        <time>2018-02-25T09:45:56.000Z</time>
      </trkpt>
      <trkpt lat="43.538" lon="3.01504">
        <ele>418.6</ele>
        <time>2018-02-25T09:45:58.000Z</time>
      </trkpt>
      <trkpt lat="43.53804" lon="3.01505">
        <ele>419.3</ele>
        <time>2018-02-25T09:46:00.000Z</time>
      </trkpt>
      <trkpt lat="43.53808" lon="3.01506">
        <ele>420.1</ele>
        <time>2018-02-25T09:46:02.000Z</time>
      </trkpt>
      <trkpt lat="43.53812" lon="3.01506">
        <ele>420.4</ele>
        <time>2018-02-25T09:46:04.000Z</time>
      </trkpt>
      <trkpt lat="43.53815" lon="3.01506">
        <ele>420.7</ele>
        <time>2018-02-25T09:46:06.000Z</time>
      </trkpt>
      <trkpt lat="43.53818" lon="3.01506">
        <ele>421.4</ele>
        <time>2018-02-25T09:46:08.000Z</time>
      </trkpt>
      <trkpt lat="43.53822" lon="3.01506">
        <ele>422</ele>
        <time>2018-02-25T09:46:11.000Z</time>
      </trkpt>
      <trkpt lat="43.53824" lon="3.01506">
        <ele>422.2</ele>
        <time>2018-02-25T09:46:13.000Z</time>
      </trkpt>
      <trkpt lat="43.53828" lon="3.01507">
        <ele>422.5</ele>
        <time>2018-02-25T09:46:15.000Z</time>
      </trkpt>
      <trkpt lat="43.5383" lon="3.01508">
        <ele>422.8</ele>
        <time>2018-02-25T09:46:17.000Z</time>
      </trkpt>
      <trkpt lat="43.53834" lon="3.01509">
        <ele>423.1</ele>
        <time>2018-02-25T09:46:19.000Z</time>
      </trkpt>
      <trkpt lat="43.53837" lon="3.01511">
        <ele>423.5</ele>
        <time>2018-02-25T09:46:21.000Z</time>
      </trkpt>
      <trkpt lat="43.5384" lon="3.01513">
        <ele>424.1</ele>
        <time>2018-02-25T09:46:23.000Z</time>
      </trkpt>
      <trkpt lat="43.53842" lon="3.01517">
        <ele>424.8</ele>
        <time>2018-02-25T09:46:26.000Z</time>
      </trkpt>
      <trkpt lat="43.53844" lon="3.0152">
        <ele>425.3</ele>
        <time>2018-02-25T09:46:28.000Z</time>
      </trkpt>
      <trkpt lat="43.53846" lon="3.01524">
        <ele>425.5</ele>
        <time>2018-02-25T09:46:30.000Z</time>
      </trkpt>
      <trkpt lat="43.53847" lon="3.01529">
        <ele>425.8</ele>
        <time>2018-02-25T09:46:32.000Z</time>
      </trkpt>
      <trkpt lat="43.53847" lon="3.01533">
        <ele>426.1</ele>
        <time>2018-02-25T09:46:34.000Z</time>
      </trkpt>
      <trkpt lat="43.53848" lon="3.01538">
        <ele>426.8</ele>
        <time>2018-02-25T09:46:36.000Z</time>
      </trkpt>
      <trkpt lat="43.53848" lon="3.01542">
        <ele>427.3</ele>
        <time>2018-02-25T09:46:38.000Z</time>
      </trkpt>
      <trkpt lat="43.53848" lon="3.01547">
        <ele>427.6</ele>
        <time>2018-02-25T09:46:40.000Z</time>
      </trkpt>
      <trkpt lat="43.53848" lon="3.01553">
        <ele>427.9</ele>
        <time>2018-02-25T09:46:42.000Z</time>
      </trkpt>
      <trkpt lat="43.53847" lon="3.01558">
        <ele>428.1</ele>
        <time>2018-02-25T09:46:44.000Z</time>
      </trkpt>
      <trkpt lat="43.53847" lon="3.01562">
        <ele>428.4</ele>
        <time>2018-02-25T09:46:46.000Z</time>
      </trkpt>
      <trkpt lat="43.53847" lon="3.01567">
        <ele>429.1</ele>
        <time>2018-02-25T09:46:48.000Z</time>
      </trkpt>
      <trkpt lat="43.53846" lon="3.01571">
        <ele>429.7</ele>
        <time>2018-02-25T09:46:50.000Z</time>
      </trkpt>
      <trkpt lat="43.53846" lon="3.01575">
        <ele>430.2</ele>
        <time>2018-02-25T09:46:52.000Z</time>
      </trkpt>
      <trkpt lat="43.53846" lon="3.0158">
        <ele>430.6</ele>
        <time>2018-02-25T09:46:54.000Z</time>
      </trkpt>
      <trkpt lat="43.53846" lon="3.01584">
        <ele>430.9</ele>
        <time>2018-02-25T09:46:56.000Z</time>
      </trkpt>
      <trkpt lat="43.53846" lon="3.01589">
        <ele>431.2</ele>
        <time>2018-02-25T09:46:58.000Z</time>
      </trkpt>
      <trkpt lat="43.53846" lon="3.01594">
        <ele>431.6</ele>
        <time>2018-02-25T09:47:00.000Z</time>
      </trkpt>
      <trkpt lat="43.53847" lon="3.01598">
        <ele>432.3</ele>
        <time>2018-02-25T09:47:02.000Z</time>
      </trkpt>
      <trkpt lat="43.53847" lon="3.01603">
        <ele>432.9</ele>
        <time>2018-02-25T09:47:04.000Z</time>
      </trkpt>
      <trkpt lat="43.53847" lon="3.01608">
        <ele>433.2</ele>
        <time>2018-02-25T09:47:06.000Z</time>
      </trkpt>
      <trkpt lat="43.53847" lon="3.01612">
        <ele>433.5</ele>
        <time>2018-02-25T09:47:08.000Z</time>
      </trkpt>
      <trkpt lat="43.53847" lon="3.01618">
        <ele>433.8</ele>
        <time>2018-02-25T09:47:10.000Z</time>
      </trkpt>
      <trkpt lat="43.53847" lon="3.01623">
        <ele>434.4</ele>
        <time>2018-02-25T09:47:12.000Z</time>
      </trkpt>
      <trkpt lat="43.53848" lon="3.01628">
        <ele>435</ele>
        <time>2018-02-25T09:47:15.000Z</time>
      </trkpt>
      <trkpt lat="43.53848" lon="3.01632">
        <ele>435.5</ele>
        <time>2018-02-25T09:47:17.000Z</time>
      </trkpt>
      <trkpt lat="43.53847" lon="3.01637">
        <ele>435.7</ele>
        <time>2018-02-25T09:47:19.000Z</time>
      </trkpt>
      <trkpt lat="43.53847" lon="3.01642">
        <ele>435.9</ele>
        <time>2018-02-25T09:47:21.000Z</time>
      </trkpt>
      <trkpt lat="43.53846" lon="3.01647">
        <ele>436.2</ele>
        <time>2018-02-25T09:47:23.000Z</time>
      </trkpt>
      <trkpt lat="43.53847" lon="3.01653">
        <ele>436.9</ele>
        <time>2018-02-25T09:47:26.000Z</time>
      </trkpt>
      <trkpt lat="43.53847" lon="3.01658">
        <ele>437.6</ele>
        <time>2018-02-25T09:47:28.000Z</time>
      </trkpt>
      <trkpt lat="43.53848" lon="3.01663">
        <ele>437.9</ele>
        <time>2018-02-25T09:47:30.000Z</time>
      </trkpt>
      <trkpt lat="43.53847" lon="3.01667">
        <ele>438.1</ele>
        <time>2018-02-25T09:47:32.000Z</time>
      </trkpt>
      <trkpt lat="43.53848" lon="3.01671">
        <ele>438.3</ele>
        <time>2018-02-25T09:47:34.000Z</time>
      </trkpt>
      <trkpt lat="43.53848" lon="3.01675">
        <ele>438.6</ele>
        <time>2018-02-25T09:47:36.000Z</time>
      </trkpt>
      <trkpt lat="43.53849" lon="3.01679">
        <ele>439</ele>
        <time>2018-02-25T09:47:38.000Z</time>
      </trkpt>
      <trkpt lat="43.53849" lon="3.01684">
        <ele>439.6</ele>
        <time>2018-02-25T09:47:40.000Z</time>
      </trkpt>
      <trkpt lat="43.5385" lon="3.01688">
        <ele>440.2</ele>
        <time>2018-02-25T09:47:42.000Z</time>
      </trkpt>
      <trkpt lat="43.53851" lon="3.01693">
        <ele>440.5</ele>
        <time>2018-02-25T09:47:44.000Z</time>
      </trkpt>
      <trkpt lat="43.53852" lon="3.01697">
        <ele>440.8</ele>
        <time>2018-02-25T09:47:46.000Z</time>
      </trkpt>
      <trkpt lat="43.53853" lon="3.01702">
        <ele>441</ele>
        <time>2018-02-25T09:47:48.000Z</time>
      </trkpt>
      <trkpt lat="43.53853" lon="3.01707">
        <ele>441.1</ele>
        <time>2018-02-25T09:47:50.000Z</time>
      </trkpt>
      <trkpt lat="43.53854" lon="3.01712">
        <ele>441.3</ele>
        <time>2018-02-25T09:47:52.000Z</time>
      </trkpt>
      <trkpt lat="43.53854" lon="3.01717">
        <ele>441.5</ele>
        <time>2018-02-25T09:47:54.000Z</time>
      </trkpt>
      <trkpt lat="43.53855" lon="3.01721">
        <ele>441.7</ele>
        <time>2018-02-25T09:47:56.000Z</time>
      </trkpt>
      <trkpt lat="43.53857" lon="3.01726">
        <ele>442.2</ele>
        <time>2018-02-25T09:47:58.000Z</time>
      </trkpt>
      <trkpt lat="43.53859" lon="3.0173">
        <ele>442.9</ele>
        <time>2018-02-25T09:48:00.000Z</time>
      </trkpt>
      <trkpt lat="43.5386" lon="3.01734">
        <ele>443.3</ele>
        <time>2018-02-25T09:48:02.000Z</time>
      </trkpt>
      <trkpt lat="43.53862" lon="3.01739">
        <ele>443.6</ele>
        <time>2018-02-25T09:48:04.000Z</time>
      </trkpt>
      <trkpt lat="43.53864" lon="3.01744">
        <ele>443.8</ele>
        <time>2018-02-25T09:48:06.000Z</time>
      </trkpt>
      <trkpt lat="43.53866" lon="3.01747">
        <ele>444.1</ele>
        <time>2018-02-25T09:48:08.000Z</time>
      </trkpt>
      <trkpt lat="43.53869" lon="3.01749">
        <ele>444.8</ele>
        <time>2018-02-25T09:48:10.000Z</time>
      </trkpt>
      <trkpt lat="43.53872" lon="3.01753">
        <ele>445.5</ele>
        <time>2018-02-25T09:48:12.000Z</time>
      </trkpt>
      <trkpt lat="43.53875" lon="3.01757">
        <ele>446</ele>
        <time>2018-02-25T09:48:14.000Z</time>
      </trkpt>
      <trkpt lat="43.53878" lon="3.0176">
        <ele>446.3</ele>
        <time>2018-02-25T09:48:16.000Z</time>
      </trkpt>
      <trkpt lat="43.53881" lon="3.01762">
        <ele>446.6</ele>
        <time>2018-02-25T09:48:18.000Z</time>
      </trkpt>
      <trkpt lat="43.53884" lon="3.01762">
        <ele>446.8</ele>
        <time>2018-02-25T09:48:20.000Z</time>
      </trkpt>
      <trkpt lat="43.53888" lon="3.0176">
        <ele>447.3</ele>
        <time>2018-02-25T09:48:23.000Z</time>
      </trkpt>
      <trkpt lat="43.53892" lon="3.0176">
        <ele>448.1</ele>
        <time>2018-02-25T09:48:25.000Z</time>
      </trkpt>
      <trkpt lat="43.53895" lon="3.0176">
        <ele>448.4</ele>
        <time>2018-02-25T09:48:27.000Z</time>
      </trkpt>
      <trkpt lat="43.53899" lon="3.01761">
        <ele>448.7</ele>
        <time>2018-02-25T09:48:29.000Z</time>
      </trkpt>
      <trkpt lat="43.53903" lon="3.01761">
        <ele>449.1</ele>
        <time>2018-02-25T09:48:31.000Z</time>
      </trkpt>
      <trkpt lat="43.53906" lon="3.01761">
        <ele>449.7</ele>
        <time>2018-02-25T09:48:33.000Z</time>
      </trkpt>
      <trkpt lat="43.53909" lon="3.01761">
        <ele>450.3</ele>
        <time>2018-02-25T09:48:35.000Z</time>
      </trkpt>
      <trkpt lat="43.53913" lon="3.01763">
        <ele>450.7</ele>
        <time>2018-02-25T09:48:37.000Z</time>
      </trkpt>
      <trkpt lat="43.53916" lon="3.01764">
        <ele>450.9</ele>
        <time>2018-02-25T09:48:39.000Z</time>
      </trkpt>
      <trkpt lat="43.53919" lon="3.01765">
        <ele>451.1</ele>
        <time>2018-02-25T09:48:41.000Z</time>
      </trkpt>
      <trkpt lat="43.53923" lon="3.01766">
        <ele>451.4</ele>
        <time>2018-02-25T09:48:43.000Z</time>
      </trkpt>
      <trkpt lat="43.53926" lon="3.01767">
        <ele>451.6</ele>
        <time>2018-02-25T09:48:45.000Z</time>
      </trkpt>
      <trkpt lat="43.53929" lon="3.01768">
        <ele>451.7</ele>
        <time>2018-02-25T09:48:47.000Z</time>
      </trkpt>
      <trkpt lat="43.53932" lon="3.0177">
        <ele>452.2</ele>
        <time>2018-02-25T09:48:49.000Z</time>
      </trkpt>
      <trkpt lat="43.53935" lon="3.01772">
        <ele>452.6</ele>
        <time>2018-02-25T09:48:51.000Z</time>
      </trkpt>
      <trkpt lat="43.53937" lon="3.01775">
        <ele>453.1</ele>
        <time>2018-02-25T09:48:53.000Z</time>
      </trkpt>
      <trkpt lat="43.53939" lon="3.01779">
        <ele>453.3</ele>
        <time>2018-02-25T09:48:55.000Z</time>
      </trkpt>
      <trkpt lat="43.5394" lon="3.01782">
        <ele>453.4</ele>
        <time>2018-02-25T09:48:57.000Z</time>
      </trkpt>
      <trkpt lat="43.53941" lon="3.01786">
        <ele>453.6</ele>
        <time>2018-02-25T09:48:59.000Z</time>
      </trkpt>
      <trkpt lat="43.53942" lon="3.0179">
        <ele>453.8</ele>
        <time>2018-02-25T09:49:01.000Z</time>
      </trkpt>
      <trkpt lat="43.53943" lon="3.01794">
        <ele>454</ele>
        <time>2018-02-25T09:49:03.000Z</time>
      </trkpt>
      <trkpt lat="43.53944" lon="3.01798">
        <ele>454.3</ele>
        <time>2018-02-25T09:49:05.000Z</time>
      </trkpt>
      <trkpt lat="43.53945" lon="3.01802">
        <ele>454.8</ele>
        <time>2018-02-25T09:49:07.000Z</time>
      </trkpt>
      <trkpt lat="43.53947" lon="3.01807">
        <ele>455.5</ele>
        <time>2018-02-25T09:49:09.000Z</time>
      </trkpt>
      <trkpt lat="43.53948" lon="3.01812">
        <ele>456</ele>
        <time>2018-02-25T09:49:12.000Z</time>
      </trkpt>
      <trkpt lat="43.5395" lon="3.01817">
        <ele>456.3</ele>
        <time>2018-02-25T09:49:15.000Z</time>
      </trkpt>
      <trkpt lat="43.53951" lon="3.01821">
        <ele>456.5</ele>
        <time>2018-02-25T09:49:17.000Z</time>
      </trkpt>
      <trkpt lat="43.53952" lon="3.01826">
        <ele>456.7</ele>
        <time>2018-02-25T09:49:19.000Z</time>
      </trkpt>
      <trkpt lat="43.53952" lon="3.0183">
        <ele>456.8</ele>
        <time>2018-02-25T09:49:21.000Z</time>
      </trkpt>
      <trkpt lat="43.53952" lon="3.01835">
        <ele>457</ele>
        <time>2018-02-25T09:49:23.000Z</time>
      </trkpt>
      <trkpt lat="43.53952" lon="3.0184">
        <ele>457.4</ele>
        <time>2018-02-25T09:49:25.000Z</time>
      </trkpt>
      <trkpt lat="43.5395" lon="3.01845">
        <ele>457.9</ele>
        <time>2018-02-25T09:49:27.000Z</time>
      </trkpt>
      <trkpt lat="43.53949" lon="3.01849">
        <ele>458.3</ele>
        <time>2018-02-25T09:49:29.000Z</time>
      </trkpt>
      <trkpt lat="43.53947" lon="3.01854">
        <ele>458.6</ele>
        <time>2018-02-25T09:49:31.000Z</time>
      </trkpt>
      <trkpt lat="43.53946" lon="3.01858">
        <ele>458.8</ele>
        <time>2018-02-25T09:49:33.000Z</time>
      </trkpt>
      <trkpt lat="43.53945" lon="3.01863">
        <ele>459.1</ele>
        <time>2018-02-25T09:49:35.000Z</time>
      </trkpt>
      <trkpt lat="43.53944" lon="3.01868">
        <ele>459.3</ele>
        <time>2018-02-25T09:49:37.000Z</time>
      </trkpt>
      <trkpt lat="43.53944" lon="3.01872">
        <ele>459.6</ele>
        <time>2018-02-25T09:49:39.000Z</time>
      </trkpt>
      <trkpt lat="43.53943" lon="3.01877">
        <ele>460.3</ele>
        <time>2018-02-25T09:49:41.000Z</time>
      </trkpt>
      <trkpt lat="43.53943" lon="3.01881">
        <ele>460.9</ele>
        <time>2018-02-25T09:49:43.000Z</time>
      </trkpt>
      <trkpt lat="43.53942" lon="3.01885">
        <ele>461.1</ele>
        <time>2018-02-25T09:49:45.000Z</time>
      </trkpt>
      <trkpt lat="43.53941" lon="3.01889">
        <ele>461.3</ele>
        <time>2018-02-25T09:49:47.000Z</time>
      </trkpt>
      <trkpt lat="43.5394" lon="3.01895">
        <ele>461.6</ele>
        <time>2018-02-25T09:49:50.000Z</time>
      </trkpt>
      <trkpt lat="43.5394" lon="3.019">
        <ele>461.9</ele>
        <time>2018-02-25T09:49:53.000Z</time>
      </trkpt>
      <trkpt lat="43.5394" lon="3.01904">
        <ele>462.2</ele>
        <time>2018-02-25T09:49:55.000Z</time>
      </trkpt>
      <trkpt lat="43.5394" lon="3.0191">
        <ele>463</ele>
        <time>2018-02-25T09:49:58.000Z</time>
      </trkpt>
      <trkpt lat="43.5394" lon="3.01915">
        <ele>463.3</ele>
        <time>2018-02-25T09:50:00.000Z</time>
      </trkpt>
      <trkpt lat="43.53939" lon="3.01919">
        <ele>463.6</ele>
        <time>2018-02-25T09:50:02.000Z</time>
      </trkpt>
      <trkpt lat="43.53938" lon="3.01923">
        <ele>463.8</ele>
        <time>2018-02-25T09:50:04.000Z</time>
      </trkpt>
      <trkpt lat="43.53936" lon="3.01928">
        <ele>464</ele>
        <time>2018-02-25T09:50:06.000Z</time>
      </trkpt>
      <trkpt lat="43.53934" lon="3.01932">
        <ele>464.6</ele>
        <time>2018-02-25T09:50:08.000Z</time>
      </trkpt>
      <trkpt lat="43.53933" lon="3.01935">
        <ele>465.2</ele>
        <time>2018-02-25T09:50:10.000Z</time>
      </trkpt>
      <trkpt lat="43.53931" lon="3.01939">
        <ele>465.7</ele>
        <time>2018-02-25T09:50:12.000Z</time>
      </trkpt>
      <trkpt lat="43.5393" lon="3.01943">
        <ele>466.2</ele>
        <time>2018-02-25T09:50:14.000Z</time>
      </trkpt>
      <trkpt lat="43.53928" lon="3.01947">
        <ele>466.5</ele>
        <time>2018-02-25T09:50:16.000Z</time>
      </trkpt>
      <trkpt lat="43.53927" lon="3.01951">
        <ele>466.8</ele>
        <time>2018-02-25T09:50:18.000Z</time>
      </trkpt>
      <trkpt lat="43.53925" lon="3.01955">
        <ele>467.1</ele>
        <time>2018-02-25T09:50:20.000Z</time>
      </trkpt>
      <trkpt lat="43.53924" lon="3.01959">
        <ele>467.3</ele>
        <time>2018-02-25T09:50:22.000Z</time>
      </trkpt>
      <trkpt lat="43.53922" lon="3.01963">
        <ele>467.9</ele>
        <time>2018-02-25T09:50:24.000Z</time>
      </trkpt>
      <trkpt lat="43.53921" lon="3.01967">
        <ele>468.5</ele>
        <time>2018-02-25T09:50:26.000Z</time>
      </trkpt>
      <trkpt lat="43.5392" lon="3.01971">
        <ele>468.8</ele>
        <time>2018-02-25T09:50:28.000Z</time>
      </trkpt>
      <trkpt lat="43.53919" lon="3.01975">
        <ele>469.1</ele>
        <time>2018-02-25T09:50:30.000Z</time>
      </trkpt>
      <trkpt lat="43.53918" lon="3.01979">
        <ele>469.5</ele>
        <time>2018-02-25T09:50:32.000Z</time>
      </trkpt>
      <trkpt lat="43.53916" lon="3.01984">
        <ele>470.3</ele>
        <time>2018-02-25T09:50:34.000Z</time>
      </trkpt>
      <trkpt lat="43.53914" lon="3.01989">
        <ele>470.9</ele>
        <time>2018-02-25T09:50:36.000Z</time>
      </trkpt>
      <trkpt lat="43.53913" lon="3.01993">
        <ele>471.2</ele>
        <time>2018-02-25T09:50:38.000Z</time>
      </trkpt>
      <trkpt lat="43.53912" lon="3.01997">
        <ele>471.5</ele>
        <time>2018-02-25T09:50:41.000Z</time>
      </trkpt>
      <trkpt lat="43.53912" lon="3.02001">
        <ele>471.7</ele>
        <time>2018-02-25T09:50:43.000Z</time>
      </trkpt>
      <trkpt lat="43.53912" lon="3.02005">
        <ele>471.9</ele>
        <time>2018-02-25T09:50:45.000Z</time>
      </trkpt>
      <trkpt lat="43.53911" lon="3.02009">
        <ele>472.2</ele>
        <time>2018-02-25T09:50:47.000Z</time>
      </trkpt>
      <trkpt lat="43.53911" lon="3.02013">
        <ele>472.7</ele>
        <time>2018-02-25T09:50:49.000Z</time>
      </trkpt>
      <trkpt lat="43.53911" lon="3.02017">
        <ele>473.2</ele>
        <time>2018-02-25T09:50:51.000Z</time>
      </trkpt>
      <trkpt lat="43.53911" lon="3.02023">
        <ele>473.7</ele>
        <time>2018-02-25T09:50:54.000Z</time>
      </trkpt>
      <trkpt lat="43.53909" lon="3.02028">
        <ele>473.9</ele>
        <time>2018-02-25T09:50:56.000Z</time>
      </trkpt>
      <trkpt lat="43.53908" lon="3.02032">
        <ele>474.2</ele>
        <time>2018-02-25T09:50:58.000Z</time>
      </trkpt>
      <trkpt lat="43.53906" lon="3.02037">
        <ele>474.5</ele>
        <time>2018-02-25T09:51:00.000Z</time>
      </trkpt>
      <trkpt lat="43.53904" lon="3.02042">
        <ele>475.2</ele>
        <time>2018-02-25T09:51:02.000Z</time>
      </trkpt>
      <trkpt lat="43.53903" lon="3.02046">
        <ele>475.8</ele>
        <time>2018-02-25T09:51:04.000Z</time>
      </trkpt>
      <trkpt lat="43.53903" lon="3.02051">
        <ele>476.2</ele>
        <time>2018-02-25T09:51:06.000Z</time>
      </trkpt>
      <trkpt lat="43.53904" lon="3.02055">
        <ele>476.5</ele>
        <time>2018-02-25T09:51:08.000Z</time>
      </trkpt>
      <trkpt lat="43.53904" lon="3.0206">
        <ele>476.9</ele>
        <time>2018-02-25T09:51:11.000Z</time>
      </trkpt>
      <trkpt lat="43.53904" lon="3.02066">
        <ele>477.7</ele>
        <time>2018-02-25T09:51:14.000Z</time>
      </trkpt>
      <trkpt lat="43.53904" lon="3.0207">
        <ele>478.3</ele>
        <time>2018-02-25T09:51:16.000Z</time>
      </trkpt>
      <trkpt lat="43.53905" lon="3.02075">
        <ele>478.9</ele>
        <time>2018-02-25T09:51:18.000Z</time>
      </trkpt>
      <trkpt lat="43.53904" lon="3.0208">
        <ele>479.3</ele>
        <time>2018-02-25T09:51:20.000Z</time>
      </trkpt>
      <trkpt lat="43.53903" lon="3.02084">
        <ele>479.6</ele>
        <time>2018-02-25T09:51:22.000Z</time>
      </trkpt>
      <trkpt lat="43.53904" lon="3.02089">
        <ele>479.9</ele>
        <time>2018-02-25T09:51:24.000Z</time>
      </trkpt>
      <trkpt lat="43.53907" lon="3.02093">
        <ele>480.6</ele>
        <time>2018-02-25T09:51:26.000Z</time>
      </trkpt>
      <trkpt lat="43.53909" lon="3.02094">
        <ele>481.2</ele>
        <time>2018-02-25T09:51:28.000Z</time>
      </trkpt>
      <trkpt lat="43.53913" lon="3.02096">
        <ele>481.5</ele>
        <time>2018-02-25T09:51:30.000Z</time>
      </trkpt>
      <trkpt lat="43.53915" lon="3.02097">
        <ele>481.6</ele>
        <time>2018-02-25T09:51:32.000Z</time>
      </trkpt>
      <trkpt lat="43.53919" lon="3.02096">
        <ele>481.9</ele>
        <time>2018-02-25T09:51:34.000Z</time>
      </trkpt>
      <trkpt lat="43.53922" lon="3.02094">
        <ele>482.1</ele>
        <time>2018-02-25T09:51:36.000Z</time>
      </trkpt>
      <trkpt lat="43.53925" lon="3.02092">
        <ele>482.7</ele>
        <time>2018-02-25T09:51:38.000Z</time>
      </trkpt>
      <trkpt lat="43.53928" lon="3.02089">
        <ele>483.4</ele>
        <time>2018-02-25T09:51:40.000Z</time>
      </trkpt>
      <trkpt lat="43.53932" lon="3.02087">
        <ele>484</ele>
        <time>2018-02-25T09:51:42.000Z</time>
      </trkpt>
      <trkpt lat="43.53934" lon="3.02085">
        <ele>484.4</ele>
        <time>2018-02-25T09:51:44.000Z</time>
      </trkpt>
      <trkpt lat="43.53937" lon="3.02083">
        <ele>484.8</ele>
        <time>2018-02-25T09:51:46.000Z</time>
      </trkpt>
      <trkpt lat="43.53941" lon="3.02082">
        <ele>485.2</ele>
        <time>2018-02-25T09:51:49.000Z</time>
      </trkpt>
      <trkpt lat="43.53944" lon="3.02081">
        <ele>485.9</ele>
        <time>2018-02-25T09:51:52.000Z</time>
      </trkpt>
      <trkpt lat="43.53949" lon="3.02082">
        <ele>486.6</ele>
        <time>2018-02-25T09:51:54.000Z</time>
      </trkpt>
      <trkpt lat="43.53952" lon="3.02083">
        <ele>486.9</ele>
        <time>2018-02-25T09:51:59.000Z</time>
      </trkpt>
      <trkpt lat="43.53955" lon="3.02082">
        <ele>487.1</ele>
        <time>2018-02-25T09:52:02.000Z</time>
      </trkpt>
      <trkpt lat="43.53958" lon="3.02081">
        <ele>487.4</ele>
        <time>2018-02-25T09:52:04.000Z</time>
      </trkpt>
      <trkpt lat="43.53962" lon="3.02081">
        <ele>487.7</ele>
        <time>2018-02-25T09:52:06.000Z</time>
      </trkpt>
      <trkpt lat="43.53966" lon="3.02081">
        <ele>488</ele>
        <time>2018-02-25T09:52:08.000Z</time>
      </trkpt>
      <trkpt lat="43.53969" lon="3.02081">
        <ele>488.9</ele>
        <time>2018-02-25T09:52:10.000Z</time>
      </trkpt>
      <trkpt lat="43.53973" lon="3.02081">
        <ele>489.8</ele>
        <time>2018-02-25T09:52:12.000Z</time>
      </trkpt>
      <trkpt lat="43.53977" lon="3.02081">
        <ele>490.9</ele>
        <time>2018-02-25T09:52:14.000Z</time>
      </trkpt>
      <trkpt lat="43.53981" lon="3.02081">
        <ele>491.9</ele>
        <time>2018-02-25T09:52:16.000Z</time>
      </trkpt>
      <trkpt lat="43.53985" lon="3.02081">
        <ele>492.4</ele>
        <time>2018-02-25T09:52:18.000Z</time>
      </trkpt>
      <trkpt lat="43.53989" lon="3.02082">
        <ele>492.7</ele>
        <time>2018-02-25T09:52:20.000Z</time>
      </trkpt>
      <trkpt lat="43.53992" lon="3.02082">
        <ele>493</ele>
        <time>2018-02-25T09:52:22.000Z</time>
      </trkpt>
      <trkpt lat="43.53995" lon="3.02082">
        <ele>493.7</ele>
        <time>2018-02-25T09:52:24.000Z</time>
      </trkpt>
      <trkpt lat="43.53998" lon="3.02082">
        <ele>494.2</ele>
        <time>2018-02-25T09:52:26.000Z</time>
      </trkpt>
      <trkpt lat="43.54001" lon="3.02083">
        <ele>494.5</ele>
        <time>2018-02-25T09:52:28.000Z</time>
      </trkpt>
      <trkpt lat="43.54004" lon="3.02083">
        <ele>494.8</ele>
        <time>2018-02-25T09:52:30.000Z</time>
      </trkpt>
      <trkpt lat="43.54008" lon="3.02082">
        <ele>495</ele>
        <time>2018-02-25T09:52:32.000Z</time>
      </trkpt>
      <trkpt lat="43.54011" lon="3.02082">
        <ele>495.3</ele>
        <time>2018-02-25T09:52:34.000Z</time>
      </trkpt>
      <trkpt lat="43.54015" lon="3.02082">
        <ele>495.6</ele>
        <time>2018-02-25T09:52:36.000Z</time>
      </trkpt>
      <trkpt lat="43.54018" lon="3.02082">
        <ele>496.2</ele>
        <time>2018-02-25T09:52:38.000Z</time>
      </trkpt>
      <trkpt lat="43.54021" lon="3.02082">
        <ele>496.8</ele>
        <time>2018-02-25T09:52:40.000Z</time>
      </trkpt>
      <trkpt lat="43.54024" lon="3.02082">
        <ele>497</ele>
        <time>2018-02-25T09:52:42.000Z</time>
      </trkpt>
      <trkpt lat="43.54027" lon="3.02082">
        <ele>497.2</ele>
        <time>2018-02-25T09:52:44.000Z</time>
      </trkpt>
      <trkpt lat="43.5403" lon="3.02081">
        <ele>497.4</ele>
        <time>2018-02-25T09:52:46.000Z</time>
      </trkpt>
      <trkpt lat="43.54034" lon="3.02081">
        <ele>497.6</ele>
        <time>2018-02-25T09:52:48.000Z</time>
      </trkpt>
      <trkpt lat="43.54038" lon="3.0208">
        <ele>497.8</ele>
        <time>2018-02-25T09:52:50.000Z</time>
      </trkpt>
      <trkpt lat="43.54041" lon="3.0208">
        <ele>498.1</ele>
        <time>2018-02-25T09:52:52.000Z</time>
      </trkpt>
      <trkpt lat="43.54045" lon="3.0208">
        <ele>498.2</ele>
        <time>2018-02-25T09:52:54.000Z</time>
      </trkpt>
      <trkpt lat="43.54048" lon="3.0208">
        <ele>498.5</ele>
        <time>2018-02-25T09:52:56.000Z</time>
      </trkpt>
      <trkpt lat="43.54051" lon="3.02079">
        <ele>499.1</ele>
        <time>2018-02-25T09:52:58.000Z</time>
      </trkpt>
      <trkpt lat="43.54054" lon="3.02079">
        <ele>499.4</ele>
        <time>2018-02-25T09:53:00.000Z</time>
      </trkpt>
      <trkpt lat="43.54057" lon="3.02079">
        <ele>499.6</ele>
        <time>2018-02-25T09:53:02.000Z</time>
      </trkpt>
      <trkpt lat="43.5406" lon="3.02078">
        <ele>499.9</ele>
        <time>2018-02-25T09:53:04.000Z</time>
      </trkpt>
      <trkpt lat="43.54063" lon="3.02077">
        <ele>500.1</ele>
        <time>2018-02-25T09:53:06.000Z</time>
      </trkpt>
      <trkpt lat="43.54066" lon="3.02076">
        <ele>500.3</ele>
        <time>2018-02-25T09:53:08.000Z</time>
      </trkpt>
      <trkpt lat="43.5407" lon="3.02075">
        <ele>500.6</ele>
        <time>2018-02-25T09:53:10.000Z</time>
      </trkpt>
      <trkpt lat="43.54073" lon="3.02074">
        <ele>500.9</ele>
        <time>2018-02-25T09:53:13.000Z</time>
      </trkpt>
      <trkpt lat="43.54076" lon="3.02073">
        <ele>501.6</ele>
        <time>2018-02-25T09:53:17.000Z</time>
      </trkpt>
      <trkpt lat="43.5408" lon="3.02072">
        <ele>502.3</ele>
        <time>2018-02-25T09:53:20.000Z</time>
      </trkpt>
      <trkpt lat="43.54083" lon="3.02072">
        <ele>502.8</ele>
        <time>2018-02-25T09:53:22.000Z</time>
      </trkpt>
      <trkpt lat="43.54086" lon="3.0207">
        <ele>503.3</ele>
        <time>2018-02-25T09:53:24.000Z</time>
      </trkpt>
      <trkpt lat="43.54089" lon="3.02068">
        <ele>504.1</ele>
        <time>2018-02-25T09:53:26.000Z</time>
      </trkpt>
      <trkpt lat="43.54092" lon="3.02066">
        <ele>504.6</ele>
        <time>2018-02-25T09:53:28.000Z</time>
      </trkpt>
      <trkpt lat="43.54095" lon="3.02065">
        <ele>504.9</ele>
        <time>2018-02-25T09:53:30.000Z</time>
      </trkpt>
      <trkpt lat="43.54098" lon="3.02063">
        <ele>505.1</ele>
        <time>2018-02-25T09:53:32.000Z</time>
      </trkpt>
      <trkpt lat="43.54101" lon="3.02061">
        <ele>505.3</ele>
        <time>2018-02-25T09:53:34.000Z</time>
      </trkpt>
      <trkpt lat="43.54104" lon="3.02059">
        <ele>505.5</ele>
        <time>2018-02-25T09:53:36.000Z</time>
      </trkpt>
      <trkpt lat="43.54106" lon="3.02057">
        <ele>505.9</ele>
        <time>2018-02-25T09:53:38.000Z</time>
      </trkpt>
      <trkpt lat="43.54109" lon="3.02055">
        <ele>506.6</ele>
        <time>2018-02-25T09:53:40.000Z</time>
      </trkpt>
      <trkpt lat="43.54111" lon="3.02052">
        <ele>507.1</ele>
        <time>2018-02-25T09:53:42.000Z</time>
      </trkpt>
      <trkpt lat="43.54114" lon="3.02048">
        <ele>507.5</ele>
        <time>2018-02-25T09:53:45.000Z</time>
      </trkpt>
      <trkpt lat="43.54115" lon="3.02044">
        <ele>507.9</ele>
        <time>2018-02-25T09:53:49.000Z</time>
      </trkpt>
      <trkpt lat="43.54117" lon="3.02041">
        <ele>508.4</ele>
        <time>2018-02-25T09:53:51.000Z</time>
      </trkpt>
      <trkpt lat="43.54118" lon="3.02037">
        <ele>509.1</ele>
        <time>2018-02-25T09:53:54.000Z</time>
      </trkpt>
      <trkpt lat="43.54119" lon="3.02034">
        <ele>509.6</ele>
        <time>2018-02-25T09:53:57.000Z</time>
      </trkpt>
      <trkpt lat="43.5412" lon="3.02029">
        <ele>510.1</ele>
        <time>2018-02-25T09:54:00.000Z</time>
      </trkpt>
      <trkpt lat="43.54122" lon="3.02026">
        <ele>510.4</ele>
        <time>2018-02-25T09:54:02.000Z</time>
      </trkpt>
      <trkpt lat="43.54125" lon="3.02023">
        <ele>510.7</ele>
        <time>2018-02-25T09:54:04.000Z</time>
      </trkpt>
      <trkpt lat="43.54128" lon="3.0202">
        <ele>511.2</ele>
        <time>2018-02-25T09:54:06.000Z</time>
      </trkpt>
      <trkpt lat="43.5413" lon="3.02016">
        <ele>511.8</ele>
        <time>2018-02-25T09:54:08.000Z</time>
      </trkpt>
      <trkpt lat="43.54133" lon="3.02014">
        <ele>512.2</ele>
        <time>2018-02-25T09:54:10.000Z</time>
      </trkpt>
      <trkpt lat="43.54137" lon="3.02011">
        <ele>512.5</ele>
        <time>2018-02-25T09:54:12.000Z</time>
      </trkpt>
      <trkpt lat="43.54139" lon="3.02008">
        <ele>512.7</ele>
        <time>2018-02-25T09:54:14.000Z</time>
      </trkpt>
      <trkpt lat="43.54142" lon="3.02005">
        <ele>513</ele>
        <time>2018-02-25T09:54:16.000Z</time>
      </trkpt>
      <trkpt lat="43.54145" lon="3.02003">
        <ele>513.4</ele>
        <time>2018-02-25T09:54:18.000Z</time>
      </trkpt>
      <trkpt lat="43.54147" lon="3.02">
        <ele>513.7</ele>
        <time>2018-02-25T09:54:20.000Z</time>
      </trkpt>
      <trkpt lat="43.54149" lon="3.01997">
        <ele>514</ele>
        <time>2018-02-25T09:54:22.000Z</time>
      </trkpt>
      <trkpt lat="43.5415" lon="3.01992">
        <ele>514.9</ele>
        <time>2018-02-25T09:54:26.000Z</time>
      </trkpt>
      <trkpt lat="43.54151" lon="3.01987">
        <ele>515.9</ele>
        <time>2018-02-25T09:54:29.000Z</time>
      </trkpt>
      <trkpt lat="43.54152" lon="3.01983">
        <ele>516.2</ele>
        <time>2018-02-25T09:54:31.000Z</time>
      </trkpt>
      <trkpt lat="43.54153" lon="3.0198">
        <ele>516.6</ele>
        <time>2018-02-25T09:54:33.000Z</time>
      </trkpt>
      <trkpt lat="43.54154" lon="3.01976">
        <ele>516.9</ele>
        <time>2018-02-25T09:54:35.000Z</time>
      </trkpt>
      <trkpt lat="43.54157" lon="3.01973">
        <ele>517.9</ele>
        <time>2018-02-25T09:54:37.000Z</time>
      </trkpt>
      <trkpt lat="43.54159" lon="3.01969">
        <ele>518.4</ele>
        <time>2018-02-25T09:54:39.000Z</time>
      </trkpt>
      <trkpt lat="43.5416" lon="3.01965">
        <ele>518.7</ele>
        <time>2018-02-25T09:54:41.000Z</time>
      </trkpt>
      <trkpt lat="43.54161" lon="3.0196">
        <ele>519</ele>
        <time>2018-02-25T09:54:44.000Z</time>
      </trkpt>
      <trkpt lat="43.54162" lon="3.01956">
        <ele>519.3</ele>
        <time>2018-02-25T09:54:46.000Z</time>
      </trkpt>
      <trkpt lat="43.54163" lon="3.01952">
        <ele>519.9</ele>
        <time>2018-02-25T09:54:49.000Z</time>
      </trkpt>
      <trkpt lat="43.54165" lon="3.01947">
        <ele>520.6</ele>
        <time>2018-02-25T09:54:52.000Z</time>
      </trkpt>
      <trkpt lat="43.54166" lon="3.01944">
        <ele>520.7</ele>
        <time>2018-02-25T09:54:54.000Z</time>
      </trkpt>
      <trkpt lat="43.54167" lon="3.0194">
        <ele>520.8</ele>
        <time>2018-02-25T09:54:56.000Z</time>
      </trkpt>
      <trkpt lat="43.54167" lon="3.01934">
        <ele>520.9</ele>
        <time>2018-02-25T09:54:59.000Z</time>
      </trkpt>
      <trkpt lat="43.54167" lon="3.0193">
        <ele>520.9</ele>
        <time>2018-02-25T09:55:01.000Z</time>
      </trkpt>
      <trkpt lat="43.54169" lon="3.01927">
        <ele>521</ele>
        <time>2018-02-25T09:55:03.000Z</time>
      </trkpt>
      <trkpt lat="43.5417" lon="3.01922">
        <ele>521</ele>
        <time>2018-02-25T09:55:05.000Z</time>
      </trkpt>
      <trkpt lat="43.54169" lon="3.01918">
        <ele>520.9</ele>
        <time>2018-02-25T09:55:08.000Z</time>
      </trkpt>
      <trkpt lat="43.54169" lon="3.01914">
        <ele>520.8</ele>
        <time>2018-02-25T09:55:10.000Z</time>
      </trkpt>
      <trkpt lat="43.5417" lon="3.0191">
        <ele>520.9</ele>
        <time>2018-02-25T09:55:12.000Z</time>
      </trkpt>
      <trkpt lat="43.54172" lon="3.01904">
        <ele>521.1</ele>
        <time>2018-02-25T09:55:15.000Z</time>
      </trkpt>
      <trkpt lat="43.54175" lon="3.019">
        <ele>521.8</ele>
        <time>2018-02-25T09:55:17.000Z</time>
      </trkpt>
      <trkpt lat="43.54177" lon="3.01897">
        <ele>522.3</ele>
        <time>2018-02-25T09:55:19.000Z</time>
      </trkpt>
      <trkpt lat="43.54179" lon="3.01894">
        <ele>522.6</ele>
        <time>2018-02-25T09:55:21.000Z</time>
      </trkpt>
      <trkpt lat="43.54181" lon="3.01889">
        <ele>523.1</ele>
        <time>2018-02-25T09:55:24.000Z</time>
      </trkpt>
      <trkpt lat="43.54183" lon="3.01884">
        <ele>524.1</ele>
        <time>2018-02-25T09:55:27.000Z</time>
      </trkpt>
      <trkpt lat="43.54184" lon="3.0188">
        <ele>524.9</ele>
        <time>2018-02-25T09:55:29.000Z</time>
      </trkpt>
      <trkpt lat="43.54187" lon="3.01877">
        <ele>525.4</ele>
        <time>2018-02-25T09:55:31.000Z</time>
      </trkpt>
      <trkpt lat="43.54188" lon="3.01873">
        <ele>525.8</ele>
        <time>2018-02-25T09:55:33.000Z</time>
      </trkpt>
      <trkpt lat="43.54188" lon="3.01868">
        <ele>526.6</ele>
        <time>2018-02-25T09:55:35.000Z</time>
      </trkpt>
      <trkpt lat="43.5419" lon="3.01863">
        <ele>527.4</ele>
        <time>2018-02-25T09:55:37.000Z</time>
      </trkpt>
      <trkpt lat="43.54193" lon="3.01859">
        <ele>527.8</ele>
        <time>2018-02-25T09:55:39.000Z</time>
      </trkpt>
      <trkpt lat="43.54197" lon="3.01855">
        <ele>528.1</ele>
        <time>2018-02-25T09:55:41.000Z</time>
      </trkpt>
      <trkpt lat="43.542" lon="3.01852">
        <ele>528.5</ele>
        <time>2018-02-25T09:55:43.000Z</time>
      </trkpt>
      <trkpt lat="43.54202" lon="3.01848">
        <ele>528.8</ele>
        <time>2018-02-25T09:55:45.000Z</time>
      </trkpt>
      <trkpt lat="43.54204" lon="3.01843">
        <ele>528.7</ele>
        <time>2018-02-25T09:55:47.000Z</time>
      </trkpt>
      <trkpt lat="43.54207" lon="3.01839">
        <ele>528.4</ele>
        <time>2018-02-25T09:55:49.000Z</time>
      </trkpt>
      <trkpt lat="43.54208" lon="3.01835">
        <ele>528.2</ele>
        <time>2018-02-25T09:55:51.000Z</time>
      </trkpt>
      <trkpt lat="43.54207" lon="3.01831">
        <ele>528</ele>
        <time>2018-02-25T09:55:53.000Z</time>
      </trkpt>
      <trkpt lat="43.54208" lon="3.01827">
        <ele>527.8</ele>
        <time>2018-02-25T09:55:56.000Z</time>
      </trkpt>
      <trkpt lat="43.54209" lon="3.01822">
        <ele>527.6</ele>
        <time>2018-02-25T09:55:59.000Z</time>
      </trkpt>
      <trkpt lat="43.5421" lon="3.01817">
        <ele>527.5</ele>
        <time>2018-02-25T09:56:01.000Z</time>
      </trkpt>
      <trkpt lat="43.54213" lon="3.01814">
        <ele>527.8</ele>
        <time>2018-02-25T09:56:03.000Z</time>
      </trkpt>
      <trkpt lat="43.54215" lon="3.01809">
        <ele>528.7</ele>
        <time>2018-02-25T09:56:05.000Z</time>
      </trkpt>
      <trkpt lat="43.54217" lon="3.01805">
        <ele>529.5</ele>
        <time>2018-02-25T09:56:07.000Z</time>
      </trkpt>
      <trkpt lat="43.54217" lon="3.01801">
        <ele>530.1</ele>
        <time>2018-02-25T09:56:09.000Z</time>
      </trkpt>
      <trkpt lat="43.54217" lon="3.01797">
        <ele>530.7</ele>
        <time>2018-02-25T09:56:11.000Z</time>
      </trkpt>
      <trkpt lat="43.54217" lon="3.01793">
        <ele>531.1</ele>
        <time>2018-02-25T09:56:13.000Z</time>
      </trkpt>
      <trkpt lat="43.54217" lon="3.01788">
        <ele>531.3</ele>
        <time>2018-02-25T09:56:16.000Z</time>
      </trkpt>
      <trkpt lat="43.54218" lon="3.01784">
        <ele>531.5</ele>
        <time>2018-02-25T09:56:19.000Z</time>
      </trkpt>
      <trkpt lat="43.54219" lon="3.0178">
        <ele>531.7</ele>
        <time>2018-02-25T09:56:21.000Z</time>
      </trkpt>
      <trkpt lat="43.5422" lon="3.01776">
        <ele>531.9</ele>
        <time>2018-02-25T09:56:23.000Z</time>
      </trkpt>
      <trkpt lat="43.54221" lon="3.01772">
        <ele>532</ele>
        <time>2018-02-25T09:56:25.000Z</time>
      </trkpt>
      <trkpt lat="43.54223" lon="3.01768">
        <ele>532.2</ele>
        <time>2018-02-25T09:56:27.000Z</time>
      </trkpt>
      <trkpt lat="43.54225" lon="3.01765">
        <ele>532.5</ele>
        <time>2018-02-25T09:56:29.000Z</time>
      </trkpt>
      <trkpt lat="43.54228" lon="3.0176">
        <ele>533.4</ele>
        <time>2018-02-25T09:56:31.000Z</time>
      </trkpt>
      <trkpt lat="43.54231" lon="3.01756">
        <ele>534.2</ele>
        <time>2018-02-25T09:56:33.000Z</time>
      </trkpt>
      <trkpt lat="43.54235" lon="3.01752">
        <ele>534.7</ele>
        <time>2018-02-25T09:56:35.000Z</time>
      </trkpt>
      <trkpt lat="43.54237" lon="3.01749">
        <ele>534.9</ele>
        <time>2018-02-25T09:56:37.000Z</time>
      </trkpt>
      <trkpt lat="43.54238" lon="3.01746">
        <ele>535.2</ele>
        <time>2018-02-25T09:56:39.000Z</time>
      </trkpt>
      <trkpt lat="43.54239" lon="3.01741">
        <ele>535.5</ele>
        <time>2018-02-25T09:56:42.000Z</time>
      </trkpt>
      <trkpt lat="43.54241" lon="3.01738">
        <ele>536</ele>
        <time>2018-02-25T09:56:44.000Z</time>
      </trkpt>
      <trkpt lat="43.54243" lon="3.01733">
        <ele>536.4</ele>
        <time>2018-02-25T09:56:46.000Z</time>
      </trkpt>
      <trkpt lat="43.54245" lon="3.01729">
        <ele>536.6</ele>
        <time>2018-02-25T09:56:48.000Z</time>
      </trkpt>
      <trkpt lat="43.54248" lon="3.01725">
        <ele>536.7</ele>
        <time>2018-02-25T09:56:50.000Z</time>
      </trkpt>
      <trkpt lat="43.54253" lon="3.01721">
        <ele>536.9</ele>
        <time>2018-02-25T09:56:52.000Z</time>
      </trkpt>
      <trkpt lat="43.54255" lon="3.01717">
        <ele>537</ele>
        <time>2018-02-25T09:56:54.000Z</time>
      </trkpt>
      <trkpt lat="43.54258" lon="3.01713">
        <ele>537.1</ele>
        <time>2018-02-25T09:56:56.000Z</time>
      </trkpt>
      <trkpt lat="43.5426" lon="3.01708">
        <ele>537.2</ele>
        <time>2018-02-25T09:56:58.000Z</time>
      </trkpt>
      <trkpt lat="43.54263" lon="3.01705">
        <ele>537.2</ele>
        <time>2018-02-25T09:57:00.000Z</time>
      </trkpt>
      <trkpt lat="43.54264" lon="3.01702">
        <ele>537.3</ele>
        <time>2018-02-25T09:57:02.000Z</time>
      </trkpt>
      <trkpt lat="43.54267" lon="3.017">
        <ele>537.4</ele>
        <time>2018-02-25T09:57:04.000Z</time>
      </trkpt>
      <trkpt lat="43.54271" lon="3.01697">
        <ele>537.5</ele>
        <time>2018-02-25T09:57:06.000Z</time>
      </trkpt>
      <trkpt lat="43.54272" lon="3.01692">
        <ele>537.6</ele>
        <time>2018-02-25T09:57:09.000Z</time>
      </trkpt>
      <trkpt lat="43.54272" lon="3.01688">
        <ele>537.7</ele>
        <time>2018-02-25T09:57:11.000Z</time>
      </trkpt>
      <trkpt lat="43.54274" lon="3.01684">
        <ele>537.8</ele>
        <time>2018-02-25T09:57:13.000Z</time>
      </trkpt>
      <trkpt lat="43.54276" lon="3.01681">
        <ele>538</ele>
        <time>2018-02-25T09:57:15.000Z</time>
      </trkpt>
      <trkpt lat="43.54278" lon="3.01678">
        <ele>538.3</ele>
        <time>2018-02-25T09:57:17.000Z</time>
      </trkpt>
      <trkpt lat="43.5428" lon="3.01676">
        <ele>538.6</ele>
        <time>2018-02-25T09:57:19.000Z</time>
      </trkpt>
      <trkpt lat="43.54283" lon="3.01675">
        <ele>539</ele>
        <time>2018-02-25T09:57:21.000Z</time>
      </trkpt>
      <trkpt lat="43.54287" lon="3.01676">
        <ele>539.4</ele>
        <time>2018-02-25T09:57:23.000Z</time>
      </trkpt>
      <trkpt lat="43.54289" lon="3.01679">
        <ele>539.5</ele>
        <time>2018-02-25T09:57:25.000Z</time>
      </trkpt>
      <trkpt lat="43.54291" lon="3.01684">
        <ele>539.7</ele>
        <time>2018-02-25T09:57:27.000Z</time>
      </trkpt>
      <trkpt lat="43.54292" lon="3.0169">
        <ele>539.7</ele>
        <time>2018-02-25T09:57:30.000Z</time>
      </trkpt>
      <trkpt lat="43.54293" lon="3.01695">
        <ele>539.8</ele>
        <time>2018-02-25T09:57:32.000Z</time>
      </trkpt>
      <trkpt lat="43.54293" lon="3.01699">
        <ele>539.9</ele>
        <time>2018-02-25T09:57:34.000Z</time>
      </trkpt>
      <trkpt lat="43.54294" lon="3.01704">
        <ele>539.9</ele>
        <time>2018-02-25T09:57:36.000Z</time>
      </trkpt>
      <trkpt lat="43.54295" lon="3.01707">
        <ele>540</ele>
        <time>2018-02-25T09:57:38.000Z</time>
      </trkpt>
      <trkpt lat="43.54296" lon="3.01713">
        <ele>540</ele>
        <time>2018-02-25T09:57:40.000Z</time>
      </trkpt>
      <trkpt lat="43.54297" lon="3.01718">
        <ele>540</ele>
        <time>2018-02-25T09:57:42.000Z</time>
      </trkpt>
      <trkpt lat="43.54298" lon="3.01723">
        <ele>540.1</ele>
        <time>2018-02-25T09:57:44.000Z</time>
      </trkpt>
      <trkpt lat="43.543" lon="3.01729">
        <ele>540.1</ele>
        <time>2018-02-25T09:57:46.000Z</time>
      </trkpt>
      <trkpt lat="43.54301" lon="3.01734">
        <ele>540.1</ele>
        <time>2018-02-25T09:57:48.000Z</time>
      </trkpt>
      <trkpt lat="43.54302" lon="3.01739">
        <ele>540.2</ele>
        <time>2018-02-25T09:57:50.000Z</time>
      </trkpt>
      <trkpt lat="43.54304" lon="3.01744">
        <ele>540.2</ele>
        <time>2018-02-25T09:57:52.000Z</time>
      </trkpt>
      <trkpt lat="43.54306" lon="3.01749">
        <ele>540.2</ele>
        <time>2018-02-25T09:57:54.000Z</time>
      </trkpt>
      <trkpt lat="43.54308" lon="3.01755">
        <ele>540.2</ele>
        <time>2018-02-25T09:57:56.000Z</time>
      </trkpt>
      <trkpt lat="43.5431" lon="3.01759">
        <ele>540.3</ele>
        <time>2018-02-25T09:57:59.000Z</time>
      </trkpt>
      <trkpt lat="43.54312" lon="3.01763">
        <ele>540.3</ele>
        <time>2018-02-25T09:58:01.000Z</time>
      </trkpt>
      <trkpt lat="43.54316" lon="3.01768">
        <ele>540.3</ele>
        <time>2018-02-25T09:58:03.000Z</time>
      </trkpt>
      <trkpt lat="43.54318" lon="3.01772">
        <ele>540.3</ele>
        <time>2018-02-25T09:58:05.000Z</time>
      </trkpt>
      <trkpt lat="43.54321" lon="3.01774">
        <ele>540.3</ele>
        <time>2018-02-25T09:58:06.000Z</time>
      </trkpt>
      <trkpt lat="43.54323" lon="3.01776">
        <ele>540.4</ele>
        <time>2018-02-25T09:58:07.000Z</time>
      </trkpt>
      <trkpt lat="43.54326" lon="3.01778">
        <ele>540.4</ele>
        <time>2018-02-25T09:58:08.000Z</time>
      </trkpt>
      <trkpt lat="43.54328" lon="3.01779">
        <ele>540.4</ele>
        <time>2018-02-25T09:58:09.000Z</time>
      </trkpt>
      <trkpt lat="43.54332" lon="3.01782">
        <ele>540.4</ele>
        <time>2018-02-25T09:58:11.000Z</time>
      </trkpt>
      <trkpt lat="43.54336" lon="3.01784">
        <ele>540.5</ele>
        <time>2018-02-25T09:58:13.000Z</time>
      </trkpt>
      <trkpt lat="43.54341" lon="3.01784">
        <ele>540.5</ele>
        <time>2018-02-25T09:58:15.000Z</time>
      </trkpt>
      <trkpt lat="43.54346" lon="3.01782">
        <ele>540.5</ele>
        <time>2018-02-25T09:58:17.000Z</time>
      </trkpt>
      <trkpt lat="43.54349" lon="3.01781">
        <ele>540.5</ele>
        <time>2018-02-25T09:58:19.000Z</time>
      </trkpt>
      <trkpt lat="43.54353" lon="3.01779">
        <ele>540.6</ele>
        <time>2018-02-25T09:58:22.000Z</time>
      </trkpt>
      <trkpt lat="43.54356" lon="3.01778">
        <ele>540.6</ele>
        <time>2018-02-25T09:58:24.000Z</time>
      </trkpt>
      <trkpt lat="43.54358" lon="3.01777">
        <ele>540.6</ele>
        <time>2018-02-25T09:58:26.000Z</time>
      </trkpt>
      <trkpt lat="43.54362" lon="3.01775">
        <ele>540.7</ele>
        <time>2018-02-25T09:58:28.000Z</time>
      </trkpt>
      <trkpt lat="43.54366" lon="3.01772">
        <ele>540.7</ele>
        <time>2018-02-25T09:58:30.000Z</time>
      </trkpt>
      <trkpt lat="43.54369" lon="3.01771">
        <ele>540.8</ele>
        <time>2018-02-25T09:58:32.000Z</time>
      </trkpt>
      <trkpt lat="43.54372" lon="3.01768">
        <ele>540.8</ele>
        <time>2018-02-25T09:58:34.000Z</time>
      </trkpt>
      <trkpt lat="43.54376" lon="3.01764">
        <ele>540.9</ele>
        <time>2018-02-25T09:58:36.000Z</time>
      </trkpt>
      <trkpt lat="43.54379" lon="3.01761">
        <ele>540.9</ele>
        <time>2018-02-25T09:58:37.000Z</time>
      </trkpt>
      <trkpt lat="43.54381" lon="3.01758">
        <ele>541</ele>
        <time>2018-02-25T09:58:38.000Z</time>
      </trkpt>
      <trkpt lat="43.54383" lon="3.01754">
        <ele>541</ele>
        <time>2018-02-25T09:58:39.000Z</time>
      </trkpt>
      <trkpt lat="43.54386" lon="3.01751">
        <ele>541.1</ele>
        <time>2018-02-25T09:58:40.000Z</time>
      </trkpt>
      <trkpt lat="43.54388" lon="3.01749">
        <ele>541.2</ele>
        <time>2018-02-25T09:58:41.000Z</time>
      </trkpt>
      <trkpt lat="43.54391" lon="3.01747">
        <ele>541.3</ele>
        <time>2018-02-25T09:58:42.000Z</time>
      </trkpt>
      <trkpt lat="43.54394" lon="3.01745">
        <ele>541.3</ele>
        <time>2018-02-25T09:58:43.000Z</time>
      </trkpt>
      <trkpt lat="43.54397" lon="3.01744">
        <ele>541.4</ele>
        <time>2018-02-25T09:58:44.000Z</time>
      </trkpt>
      <trkpt lat="43.544" lon="3.01742">
        <ele>541.5</ele>
        <time>2018-02-25T09:58:45.000Z</time>
      </trkpt>
      <trkpt lat="43.54403" lon="3.01742">
        <ele>541.7</ele>
        <time>2018-02-25T09:58:46.000Z</time>
      </trkpt>
      <trkpt lat="43.54407" lon="3.01742">
        <ele>542.1</ele>
        <time>2018-02-25T09:58:47.000Z</time>
      </trkpt>
      <trkpt lat="43.5441" lon="3.01744">
        <ele>542.3</ele>
        <time>2018-02-25T09:58:48.000Z</time>
      </trkpt>
      <trkpt lat="43.54412" lon="3.01747">
        <ele>542.6</ele>
        <time>2018-02-25T09:58:49.000Z</time>
      </trkpt>
      <trkpt lat="43.54415" lon="3.01751">
        <ele>542.7</ele>
        <time>2018-02-25T09:58:50.000Z</time>
      </trkpt>
      <trkpt lat="43.54417" lon="3.01755">
        <ele>542.8</ele>
        <time>2018-02-25T09:58:51.000Z</time>
      </trkpt>
      <trkpt lat="43.54418" lon="3.0176">
        <ele>542.9</ele>
        <time>2018-02-25T09:58:52.000Z</time>
      </trkpt>
      <trkpt lat="43.54419" lon="3.01765">
        <ele>542.9</ele>
        <time>2018-02-25T09:58:53.000Z</time>
      </trkpt>
      <trkpt lat="43.54419" lon="3.0177">
        <ele>543</ele>
        <time>2018-02-25T09:58:54.000Z</time>
      </trkpt>
      <trkpt lat="43.5442" lon="3.01775">
        <ele>543</ele>
        <time>2018-02-25T09:58:55.000Z</time>
      </trkpt>
      <trkpt lat="43.54421" lon="3.0178">
        <ele>543.1</ele>
        <time>2018-02-25T09:58:56.000Z</time>
      </trkpt>
      <trkpt lat="43.54422" lon="3.01784">
        <ele>543.1</ele>
        <time>2018-02-25T09:58:57.000Z</time>
      </trkpt>
      <trkpt lat="43.54424" lon="3.0179">
        <ele>543.1</ele>
        <time>2018-02-25T09:58:58.000Z</time>
      </trkpt>
      <trkpt lat="43.54425" lon="3.01795">
        <ele>543.2</ele>
        <time>2018-02-25T09:58:59.000Z</time>
      </trkpt>
      <trkpt lat="43.54427" lon="3.018">
        <ele>543.2</ele>
        <time>2018-02-25T09:59:00.000Z</time>
      </trkpt>
      <trkpt lat="43.54429" lon="3.01804">
        <ele>543.2</ele>
        <time>2018-02-25T09:59:01.000Z</time>
      </trkpt>
      <trkpt lat="43.5443" lon="3.01809">
        <ele>543.2</ele>
        <time>2018-02-25T09:59:02.000Z</time>
      </trkpt>
      <trkpt lat="43.54432" lon="3.01813">
        <ele>543.3</ele>
        <time>2018-02-25T09:59:03.000Z</time>
      </trkpt>
      <trkpt lat="43.54433" lon="3.01817">
        <ele>543.3</ele>
        <time>2018-02-25T09:59:04.000Z</time>
      </trkpt>
      <trkpt lat="43.54434" lon="3.01821">
        <ele>543.3</ele>
        <time>2018-02-25T09:59:05.000Z</time>
      </trkpt>
      <trkpt lat="43.54435" lon="3.01825">
        <ele>543.3</ele>
        <time>2018-02-25T09:59:06.000Z</time>
      </trkpt>
      <trkpt lat="43.54437" lon="3.01829">
        <ele>543.3</ele>
        <time>2018-02-25T09:59:07.000Z</time>
      </trkpt>
      <trkpt lat="43.54438" lon="3.01833">
        <ele>543.4</ele>
        <time>2018-02-25T09:59:08.000Z</time>
      </trkpt>
      <trkpt lat="43.54439" lon="3.01837">
        <ele>543.4</ele>
        <time>2018-02-25T09:59:09.000Z</time>
      </trkpt>
      <trkpt lat="43.54441" lon="3.01841">
        <ele>543.4</ele>
        <time>2018-02-25T09:59:10.000Z</time>
      </trkpt>
      <trkpt lat="43.54443" lon="3.01844">
        <ele>543.4</ele>
        <time>2018-02-25T09:59:11.000Z</time>
      </trkpt>
      <trkpt lat="43.54446" lon="3.01847">
        <ele>543.5</ele>
        <time>2018-02-25T09:59:12.000Z</time>
      </trkpt>
      <trkpt lat="43.54449" lon="3.01849">
        <ele>543.5</ele>
        <time>2018-02-25T09:59:13.000Z</time>
      </trkpt>
      <trkpt lat="43.54452" lon="3.01851">
        <ele>543.6</ele>
        <time>2018-02-25T09:59:14.000Z</time>
      </trkpt>
      <trkpt lat="43.54455" lon="3.01853">
        <ele>543.6</ele>
        <time>2018-02-25T09:59:15.000Z</time>
      </trkpt>
      <trkpt lat="43.54458" lon="3.01855">
        <ele>543.6</ele>
        <time>2018-02-25T09:59:16.000Z</time>
      </trkpt>
      <trkpt lat="43.54462" lon="3.01857">
        <ele>543.7</ele>
        <time>2018-02-25T09:59:17.000Z</time>
      </trkpt>
      <trkpt lat="43.54466" lon="3.01859">
        <ele>543.8</ele>
        <time>2018-02-25T09:59:18.000Z</time>
      </trkpt>
      <trkpt lat="43.5447" lon="3.01861">
        <ele>543.8</ele>
        <time>2018-02-25T09:59:19.000Z</time>
      </trkpt>
      <trkpt lat="43.54475" lon="3.01863">
        <ele>543.9</ele>
        <time>2018-02-25T09:59:21.000Z</time>
      </trkpt>
      <trkpt lat="43.5448" lon="3.01866">
        <ele>544</ele>
        <time>2018-02-25T09:59:23.000Z</time>
      </trkpt>
      <trkpt lat="43.54484" lon="3.01868">
        <ele>544.1</ele>
        <time>2018-02-25T09:59:24.000Z</time>
      </trkpt>
      <trkpt lat="43.54489" lon="3.01868">
        <ele>544.3</ele>
        <time>2018-02-25T09:59:25.000Z</time>
      </trkpt>
      <trkpt lat="43.54493" lon="3.01868">
        <ele>544.7</ele>
        <time>2018-02-25T09:59:26.000Z</time>
      </trkpt>
      <trkpt lat="43.54497" lon="3.01867">
        <ele>545.2</ele>
        <time>2018-02-25T09:59:28.000Z</time>
      </trkpt>
      <trkpt lat="43.54501" lon="3.01865">
        <ele>545.7</ele>
        <time>2018-02-25T09:59:30.000Z</time>
      </trkpt>
      <trkpt lat="43.54506" lon="3.01863">
        <ele>545.9</ele>
        <time>2018-02-25T09:59:32.000Z</time>
      </trkpt>
      <trkpt lat="43.54509" lon="3.01862">
        <ele>546</ele>
        <time>2018-02-25T09:59:33.000Z</time>
      </trkpt>
      <trkpt lat="43.54512" lon="3.01861">
        <ele>546</ele>
        <time>2018-02-25T09:59:34.000Z</time>
      </trkpt>
      <trkpt lat="43.54515" lon="3.01861">
        <ele>546.1</ele>
        <time>2018-02-25T09:59:35.000Z</time>
      </trkpt>
      <trkpt lat="43.5452" lon="3.01862">
        <ele>546.2</ele>
        <time>2018-02-25T09:59:37.000Z</time>
      </trkpt>
      <trkpt lat="43.54523" lon="3.01863">
        <ele>546.2</ele>
        <time>2018-02-25T09:59:38.000Z</time>
      </trkpt>
      <trkpt lat="43.54525" lon="3.01866">
        <ele>546.3</ele>
        <time>2018-02-25T09:59:39.000Z</time>
      </trkpt>
      <trkpt lat="43.54528" lon="3.01869">
        <ele>546.4</ele>
        <time>2018-02-25T09:59:40.000Z</time>
      </trkpt>
      <trkpt lat="43.54529" lon="3.01872">
        <ele>546.4</ele>
        <time>2018-02-25T09:59:41.000Z</time>
      </trkpt>
      <trkpt lat="43.54531" lon="3.01879">
        <ele>546.6</ele>
        <time>2018-02-25T09:59:43.000Z</time>
      </trkpt>
      <trkpt lat="43.54531" lon="3.01883">
        <ele>546.6</ele>
        <time>2018-02-25T09:59:44.000Z</time>
      </trkpt>
      <trkpt lat="43.54531" lon="3.01888">
        <ele>546.7</ele>
        <time>2018-02-25T09:59:45.000Z</time>
      </trkpt>
      <trkpt lat="43.54532" lon="3.01891">
        <ele>546.7</ele>
        <time>2018-02-25T09:59:46.000Z</time>
      </trkpt>
      <trkpt lat="43.54532" lon="3.01895">
        <ele>546.8</ele>
        <time>2018-02-25T09:59:47.000Z</time>
      </trkpt>
      <trkpt lat="43.54532" lon="3.01899">
        <ele>546.8</ele>
        <time>2018-02-25T09:59:48.000Z</time>
      </trkpt>
      <trkpt lat="43.54532" lon="3.01905">
        <ele>546.9</ele>
        <time>2018-02-25T09:59:50.000Z</time>
      </trkpt>
      <trkpt lat="43.54531" lon="3.01911">
        <ele>547</ele>
        <time>2018-02-25T09:59:52.000Z</time>
      </trkpt>
      <trkpt lat="43.5453" lon="3.01918">
        <ele>547.2</ele>
        <time>2018-02-25T09:59:54.000Z</time>
      </trkpt>
      <trkpt lat="43.54529" lon="3.01921">
        <ele>547.3</ele>
        <time>2018-02-25T09:59:55.000Z</time>
      </trkpt>
      <trkpt lat="43.54528" lon="3.01925">
        <ele>547.4</ele>
        <time>2018-02-25T09:59:56.000Z</time>
      </trkpt>
      <trkpt lat="43.54525" lon="3.01931">
        <ele>548</ele>
        <time>2018-02-25T09:59:58.000Z</time>
      </trkpt>
      <trkpt lat="43.54525" lon="3.01935">
        <ele>548.2</ele>
        <time>2018-02-25T09:59:59.000Z</time>
      </trkpt>
      <trkpt lat="43.54523" lon="3.01941">
        <ele>548.7</ele>
        <time>2018-02-25T10:00:01.000Z</time>
      </trkpt>
      <trkpt lat="43.54521" lon="3.01948">
        <ele>548.9</ele>
        <time>2018-02-25T10:00:03.000Z</time>
      </trkpt>
      <trkpt lat="43.54519" lon="3.01953">
        <ele>549</ele>
        <time>2018-02-25T10:00:04.000Z</time>
      </trkpt>
      <trkpt lat="43.54518" lon="3.01956">
        <ele>549.1</ele>
        <time>2018-02-25T10:00:05.000Z</time>
      </trkpt>
      <trkpt lat="43.54514" lon="3.01962">
        <ele>549.2</ele>
        <time>2018-02-25T10:00:07.000Z</time>
      </trkpt>
      <trkpt lat="43.54512" lon="3.01965">
        <ele>549.2</ele>
        <time>2018-02-25T10:00:08.000Z</time>
      </trkpt>
      <trkpt lat="43.54511" lon="3.01968">
        <ele>549.3</ele>
        <time>2018-02-25T10:00:09.000Z</time>
      </trkpt>
      <trkpt lat="43.54508" lon="3.01973">
        <ele>549.4</ele>
        <time>2018-02-25T10:00:11.000Z</time>
      </trkpt>
      <trkpt lat="43.54507" lon="3.01979">
        <ele>549.5</ele>
        <time>2018-02-25T10:00:13.000Z</time>
      </trkpt>
      <trkpt lat="43.54504" lon="3.01985">
        <ele>549.6</ele>
        <time>2018-02-25T10:00:15.000Z</time>
      </trkpt>
      <trkpt lat="43.54503" lon="3.01988">
        <ele>549.7</ele>
        <time>2018-02-25T10:00:16.000Z</time>
      </trkpt>
      <trkpt lat="43.54501" lon="3.01994">
        <ele>549.8</ele>
        <time>2018-02-25T10:00:18.000Z</time>
      </trkpt>
      <trkpt lat="43.54499" lon="3.01999">
        <ele>549.9</ele>
        <time>2018-02-25T10:00:20.000Z</time>
      </trkpt>
      <trkpt lat="43.54496" lon="3.02004">
        <ele>550</ele>
        <time>2018-02-25T10:00:22.000Z</time>
      </trkpt>
      <trkpt lat="43.54495" lon="3.02008">
        <ele>550.1</ele>
        <time>2018-02-25T10:00:24.000Z</time>
      </trkpt>
      <trkpt lat="43.54495" lon="3.02013">
        <ele>550.3</ele>
        <time>2018-02-25T10:00:26.000Z</time>
      </trkpt>
      <trkpt lat="43.54496" lon="3.02019">
        <ele>550.5</ele>
        <time>2018-02-25T10:00:28.000Z</time>
      </trkpt>
      <trkpt lat="43.54497" lon="3.02023">
        <ele>551</ele>
        <time>2018-02-25T10:00:30.000Z</time>
      </trkpt>
      <trkpt lat="43.545" lon="3.02025">
        <ele>551.5</ele>
        <time>2018-02-25T10:00:32.000Z</time>
      </trkpt>
      <trkpt lat="43.54504" lon="3.02025">
        <ele>551.8</ele>
        <time>2018-02-25T10:00:34.000Z</time>
      </trkpt>
      <trkpt lat="43.54508" lon="3.02023">
        <ele>552.3</ele>
        <time>2018-02-25T10:00:36.000Z</time>
      </trkpt>
      <trkpt lat="43.54511" lon="3.02019">
        <ele>553.2</ele>
        <time>2018-02-25T10:00:38.000Z</time>
      </trkpt>
      <trkpt lat="43.54513" lon="3.02015">
        <ele>554</ele>
        <time>2018-02-25T10:00:40.000Z</time>
      </trkpt>
      <trkpt lat="43.54515" lon="3.02011">
        <ele>554.5</ele>
        <time>2018-02-25T10:00:42.000Z</time>
      </trkpt>
      <trkpt lat="43.54518" lon="3.02008">
        <ele>554.9</ele>
        <time>2018-02-25T10:00:44.000Z</time>
      </trkpt>
      <trkpt lat="43.5452" lon="3.02003">
        <ele>555.4</ele>
        <time>2018-02-25T10:00:46.000Z</time>
      </trkpt>
      <trkpt lat="43.54521" lon="3.01997">
        <ele>556.1</ele>
        <time>2018-02-25T10:00:48.000Z</time>
      </trkpt>
      <trkpt lat="43.54521" lon="3.01993">
        <ele>556.8</ele>
        <time>2018-02-25T10:00:50.000Z</time>
      </trkpt>
      <trkpt lat="43.54522" lon="3.01988">
        <ele>557.2</ele>
        <time>2018-02-25T10:00:52.000Z</time>
      </trkpt>
      <trkpt lat="43.54524" lon="3.01985">
        <ele>557.6</ele>
        <time>2018-02-25T10:00:54.000Z</time>
      </trkpt>
      <trkpt lat="43.54526" lon="3.0198">
        <ele>558.4</ele>
        <time>2018-02-25T10:00:57.000Z</time>
      </trkpt>
      <trkpt lat="43.54529" lon="3.01975">
        <ele>559</ele>
        <time>2018-02-25T10:00:59.000Z</time>
      </trkpt>
      <trkpt lat="43.54531" lon="3.01969">
        <ele>559.3</ele>
        <time>2018-02-25T10:01:01.000Z</time>
      </trkpt>
      <trkpt lat="43.54534" lon="3.01963">
        <ele>559.5</ele>
        <time>2018-02-25T10:01:03.000Z</time>
      </trkpt>
      <trkpt lat="43.54536" lon="3.0196">
        <ele>559.6</ele>
        <time>2018-02-25T10:01:04.000Z</time>
      </trkpt>
      <trkpt lat="43.54537" lon="3.01954">
        <ele>559.7</ele>
        <time>2018-02-25T10:01:06.000Z</time>
      </trkpt>
      <trkpt lat="43.54538" lon="3.0195">
        <ele>559.7</ele>
        <time>2018-02-25T10:01:08.000Z</time>
      </trkpt>
      <trkpt lat="43.54539" lon="3.01946">
        <ele>559.8</ele>
        <time>2018-02-25T10:01:10.000Z</time>
      </trkpt>
      <trkpt lat="43.54542" lon="3.01941">
        <ele>559.8</ele>
        <time>2018-02-25T10:01:12.000Z</time>
      </trkpt>
      <trkpt lat="43.54546" lon="3.01936">
        <ele>559.9</ele>
        <time>2018-02-25T10:01:14.000Z</time>
      </trkpt>
      <trkpt lat="43.54549" lon="3.01932">
        <ele>559.9</ele>
        <time>2018-02-25T10:01:16.000Z</time>
      </trkpt>
      <trkpt lat="43.54551" lon="3.0193">
        <ele>560</ele>
        <time>2018-02-25T10:01:17.000Z</time>
      </trkpt>
      <trkpt lat="43.54553" lon="3.01924">
        <ele>560</ele>
        <time>2018-02-25T10:01:19.000Z</time>
      </trkpt>
      <trkpt lat="43.54556" lon="3.0192">
        <ele>560.1</ele>
        <time>2018-02-25T10:01:21.000Z</time>
      </trkpt>
      <trkpt lat="43.54558" lon="3.01914">
        <ele>560.2</ele>
        <time>2018-02-25T10:01:23.000Z</time>
      </trkpt>
      <trkpt lat="43.5456" lon="3.0191">
        <ele>560.3</ele>
        <time>2018-02-25T10:01:25.000Z</time>
      </trkpt>
      <trkpt lat="43.54562" lon="3.01905">
        <ele>560.6</ele>
        <time>2018-02-25T10:01:27.000Z</time>
      </trkpt>
      <trkpt lat="43.54564" lon="3.019">
        <ele>560.7</ele>
        <time>2018-02-25T10:01:29.000Z</time>
      </trkpt>
      <trkpt lat="43.54566" lon="3.01895">
        <ele>560.9</ele>
        <time>2018-02-25T10:01:31.000Z</time>
      </trkpt>
      <trkpt lat="43.54567" lon="3.0189">
        <ele>561</ele>
        <time>2018-02-25T10:01:33.000Z</time>
      </trkpt>
      <trkpt lat="43.54568" lon="3.01885">
        <ele>561.2</ele>
        <time>2018-02-25T10:01:35.000Z</time>
      </trkpt>
      <trkpt lat="43.54568" lon="3.0188">
        <ele>561.6</ele>
        <time>2018-02-25T10:01:37.000Z</time>
      </trkpt>
      <trkpt lat="43.5457" lon="3.01875">
        <ele>562.3</ele>
        <time>2018-02-25T10:01:39.000Z</time>
      </trkpt>
      <trkpt lat="43.54573" lon="3.0187">
        <ele>563</ele>
        <time>2018-02-25T10:01:41.000Z</time>
      </trkpt>
      <trkpt lat="43.54576" lon="3.01865">
        <ele>563.8</ele>
        <time>2018-02-25T10:01:43.000Z</time>
      </trkpt>
      <trkpt lat="43.54576" lon="3.01859">
        <ele>564.6</ele>
        <time>2018-02-25T10:01:45.000Z</time>
      </trkpt>
      <trkpt lat="43.54576" lon="3.01853">
        <ele>565.4</ele>
        <time>2018-02-25T10:01:47.000Z</time>
      </trkpt>
      <trkpt lat="43.54574" lon="3.01848">
        <ele>565.8</ele>
        <time>2018-02-25T10:01:49.000Z</time>
      </trkpt>
      <trkpt lat="43.54574" lon="3.01843">
        <ele>566</ele>
        <time>2018-02-25T10:01:51.000Z</time>
      </trkpt>
      <trkpt lat="43.54575" lon="3.01837">
        <ele>566.4</ele>
        <time>2018-02-25T10:01:53.000Z</time>
      </trkpt>
      <trkpt lat="43.54575" lon="3.01831">
        <ele>566.8</ele>
        <time>2018-02-25T10:01:55.000Z</time>
      </trkpt>
      <trkpt lat="43.54576" lon="3.01826">
        <ele>567.5</ele>
        <time>2018-02-25T10:01:57.000Z</time>
      </trkpt>
      <trkpt lat="43.54577" lon="3.0182">
        <ele>567.8</ele>
        <time>2018-02-25T10:01:59.000Z</time>
      </trkpt>
      <trkpt lat="43.54579" lon="3.01814">
        <ele>568</ele>
        <time>2018-02-25T10:02:01.000Z</time>
      </trkpt>
      <trkpt lat="43.54578" lon="3.01809">
        <ele>568.3</ele>
        <time>2018-02-25T10:02:03.000Z</time>
      </trkpt>
      <trkpt lat="43.54577" lon="3.01804">
        <ele>568.5</ele>
        <time>2018-02-25T10:02:05.000Z</time>
      </trkpt>
      <trkpt lat="43.54577" lon="3.018">
        <ele>568.7</ele>
        <time>2018-02-25T10:02:07.000Z</time>
      </trkpt>
      <trkpt lat="43.54576" lon="3.01794">
        <ele>569.1</ele>
        <time>2018-02-25T10:02:10.000Z</time>
      </trkpt>
      <trkpt lat="43.54576" lon="3.0179">
        <ele>569.6</ele>
        <time>2018-02-25T10:02:12.000Z</time>
      </trkpt>
      <trkpt lat="43.54575" lon="3.01786">
        <ele>570</ele>
        <time>2018-02-25T10:02:14.000Z</time>
      </trkpt>
      <trkpt lat="43.54575" lon="3.01782">
        <ele>570.2</ele>
        <time>2018-02-25T10:02:17.000Z</time>
      </trkpt>
      <trkpt lat="43.54575" lon="3.01775">
        <ele>570.6</ele>
        <time>2018-02-25T10:03:51.000Z</time>
      </trkpt>
      <trkpt lat="43.54573" lon="3.01773">
        <ele>570.9</ele>
        <time>2018-02-25T10:03:53.000Z</time>
      </trkpt>
      <trkpt lat="43.5457" lon="3.01768">
        <ele>571.3</ele>
        <time>2018-02-25T10:03:55.000Z</time>
      </trkpt>
      <trkpt lat="43.54567" lon="3.01764">
        <ele>571.7</ele>
        <time>2018-02-25T10:03:57.000Z</time>
      </trkpt>
      <trkpt lat="43.54565" lon="3.0176">
        <ele>571.8</ele>
        <time>2018-02-25T10:03:59.000Z</time>
      </trkpt>
      <trkpt lat="43.54562" lon="3.01756">
        <ele>572.1</ele>
        <time>2018-02-25T10:04:01.000Z</time>
      </trkpt>
      <trkpt lat="43.54559" lon="3.01751">
        <ele>572.7</ele>
        <time>2018-02-25T10:04:03.000Z</time>
      </trkpt>
      <trkpt lat="43.54557" lon="3.01748">
        <ele>573.2</ele>
        <time>2018-02-25T10:04:05.000Z</time>
      </trkpt>
      <trkpt lat="43.54554" lon="3.01745">
        <ele>573.6</ele>
        <time>2018-02-25T10:04:07.000Z</time>
      </trkpt>
      <trkpt lat="43.54551" lon="3.01743">
        <ele>574.3</ele>
        <time>2018-02-25T10:04:10.000Z</time>
      </trkpt>
      <trkpt lat="43.54547" lon="3.01741">
        <ele>574.8</ele>
        <time>2018-02-25T10:04:12.000Z</time>
      </trkpt>
      <trkpt lat="43.54544" lon="3.01739">
        <ele>575.3</ele>
        <time>2018-02-25T10:04:14.000Z</time>
      </trkpt>
      <trkpt lat="43.5454" lon="3.01737">
        <ele>575.7</ele>
        <time>2018-02-25T10:04:16.000Z</time>
      </trkpt>
      <trkpt lat="43.54538" lon="3.01735">
        <ele>576</ele>
        <time>2018-02-25T10:04:18.000Z</time>
      </trkpt>
      <trkpt lat="43.54535" lon="3.01732">
        <ele>576.3</ele>
        <time>2018-02-25T10:04:21.000Z</time>
      </trkpt>
      <trkpt lat="43.54533" lon="3.01728">
        <ele>576.6</ele>
        <time>2018-02-25T10:04:24.000Z</time>
      </trkpt>
      <trkpt lat="43.54531" lon="3.01725">
        <ele>576.8</ele>
        <time>2018-02-25T10:04:29.000Z</time>
      </trkpt>
      <trkpt lat="43.54527" lon="3.01723">
        <ele>577</ele>
        <time>2018-02-25T10:04:31.000Z</time>
      </trkpt>
      <trkpt lat="43.54524" lon="3.01722">
        <ele>577.2</ele>
        <time>2018-02-25T10:04:33.000Z</time>
      </trkpt>
      <trkpt lat="43.54521" lon="3.0172">
        <ele>577.4</ele>
        <time>2018-02-25T10:04:36.000Z</time>
      </trkpt>
      <trkpt lat="43.54517" lon="3.01718">
        <ele>577.6</ele>
        <time>2018-02-25T10:04:39.000Z</time>
      </trkpt>
      <trkpt lat="43.54514" lon="3.01716">
        <ele>577.8</ele>
        <time>2018-02-25T10:04:41.000Z</time>
      </trkpt>
      <trkpt lat="43.5451" lon="3.01714">
        <ele>578</ele>
        <time>2018-02-25T10:04:43.000Z</time>
      </trkpt>
      <trkpt lat="43.54507" lon="3.01713">
        <ele>578.1</ele>
        <time>2018-02-25T10:04:45.000Z</time>
      </trkpt>
      <trkpt lat="43.54503" lon="3.0171">
        <ele>578.3</ele>
        <time>2018-02-25T10:04:47.000Z</time>
      </trkpt>
      <trkpt lat="43.54499" lon="3.01708">
        <ele>578.5</ele>
        <time>2018-02-25T10:04:49.000Z</time>
      </trkpt>
      <trkpt lat="43.54496" lon="3.01704">
        <ele>578.7</ele>
        <time>2018-02-25T10:04:51.000Z</time>
      </trkpt>
      <trkpt lat="43.54493" lon="3.01701">
        <ele>578.9</ele>
        <time>2018-02-25T10:04:53.000Z</time>
      </trkpt>
      <trkpt lat="43.5449" lon="3.01698">
        <ele>579.4</ele>
        <time>2018-02-25T10:04:55.000Z</time>
      </trkpt>
      <trkpt lat="43.54489" lon="3.01695">
        <ele>579.8</ele>
        <time>2018-02-25T10:04:57.000Z</time>
      </trkpt>
      <trkpt lat="43.54487" lon="3.01691">
        <ele>580.4</ele>
        <time>2018-02-25T10:04:59.000Z</time>
      </trkpt>
      <trkpt lat="43.54484" lon="3.01687">
        <ele>581.2</ele>
        <time>2018-02-25T10:05:01.000Z</time>
      </trkpt>
      <trkpt lat="43.54481" lon="3.01684">
        <ele>581.6</ele>
        <time>2018-02-25T10:05:03.000Z</time>
      </trkpt>
      <trkpt lat="43.54479" lon="3.0168">
        <ele>582</ele>
        <time>2018-02-25T10:05:05.000Z</time>
      </trkpt>
      <trkpt lat="43.54476" lon="3.01677">
        <ele>582.4</ele>
        <time>2018-02-25T10:05:07.000Z</time>
      </trkpt>
      <trkpt lat="43.54474" lon="3.01674">
        <ele>582.9</ele>
        <time>2018-02-25T10:05:09.000Z</time>
      </trkpt>
      <trkpt lat="43.54471" lon="3.01671">
        <ele>583.5</ele>
        <time>2018-02-25T10:05:11.000Z</time>
      </trkpt>
      <trkpt lat="43.54468" lon="3.01668">
        <ele>583.9</ele>
        <time>2018-02-25T10:05:13.000Z</time>
      </trkpt>
      <trkpt lat="43.54466" lon="3.01666">
        <ele>584.3</ele>
        <time>2018-02-25T10:05:15.000Z</time>
      </trkpt>
      <trkpt lat="43.54464" lon="3.01662">
        <ele>584.6</ele>
        <time>2018-02-25T10:05:17.000Z</time>
      </trkpt>
      <trkpt lat="43.54462" lon="3.01659">
        <ele>584.9</ele>
        <time>2018-02-25T10:05:19.000Z</time>
      </trkpt>
      <trkpt lat="43.5446" lon="3.01655">
        <ele>585.3</ele>
        <time>2018-02-25T10:05:21.000Z</time>
      </trkpt>
      <trkpt lat="43.54458" lon="3.0165">
        <ele>585.6</ele>
        <time>2018-02-25T10:05:23.000Z</time>
      </trkpt>
      <trkpt lat="43.54457" lon="3.01647">
        <ele>585.9</ele>
        <time>2018-02-25T10:05:25.000Z</time>
      </trkpt>
      <trkpt lat="43.54454" lon="3.01643">
        <ele>586.3</ele>
        <time>2018-02-25T10:05:28.000Z</time>
      </trkpt>
      <trkpt lat="43.54453" lon="3.01639">
        <ele>586.6</ele>
        <time>2018-02-25T10:05:30.000Z</time>
      </trkpt>
      <trkpt lat="43.54452" lon="3.01635">
        <ele>587</ele>
        <time>2018-02-25T10:05:32.000Z</time>
      </trkpt>
      <trkpt lat="43.54449" lon="3.0163">
        <ele>587.4</ele>
        <time>2018-02-25T10:05:34.000Z</time>
      </trkpt>
      <trkpt lat="43.54447" lon="3.01626">
        <ele>587.8</ele>
        <time>2018-02-25T10:05:36.000Z</time>
      </trkpt>
      <trkpt lat="43.54445" lon="3.01621">
        <ele>588.2</ele>
        <time>2018-02-25T10:05:38.000Z</time>
      </trkpt>
      <trkpt lat="43.54443" lon="3.01615">
        <ele>588.6</ele>
        <time>2018-02-25T10:05:40.000Z</time>
      </trkpt>
      <trkpt lat="43.54441" lon="3.0161">
        <ele>588.9</ele>
        <time>2018-02-25T10:05:42.000Z</time>
      </trkpt>
      <trkpt lat="43.54439" lon="3.01605">
        <ele>589.1</ele>
        <time>2018-02-25T10:05:44.000Z</time>
      </trkpt>
      <trkpt lat="43.54436" lon="3.01599">
        <ele>589.4</ele>
        <time>2018-02-25T10:05:46.000Z</time>
      </trkpt>
      <trkpt lat="43.54434" lon="3.01596">
        <ele>589.5</ele>
        <time>2018-02-25T10:05:47.000Z</time>
      </trkpt>
      <trkpt lat="43.54431" lon="3.01591">
        <ele>589.8</ele>
        <time>2018-02-25T10:05:49.000Z</time>
      </trkpt>
      <trkpt lat="43.54428" lon="3.01587">
        <ele>590</ele>
        <time>2018-02-25T10:05:51.000Z</time>
      </trkpt>
      <trkpt lat="43.54425" lon="3.01583">
        <ele>590.2</ele>
        <time>2018-02-25T10:05:53.000Z</time>
      </trkpt>
      <trkpt lat="43.54422" lon="3.01579">
        <ele>590.3</ele>
        <time>2018-02-25T10:05:55.000Z</time>
      </trkpt>
      <trkpt lat="43.54421" lon="3.01574">
        <ele>590.4</ele>
        <time>2018-02-25T10:05:57.000Z</time>
      </trkpt>
      <trkpt lat="43.54421" lon="3.01567">
        <ele>590.4</ele>
        <time>2018-02-25T10:05:59.000Z</time>
      </trkpt>
      <trkpt lat="43.54419" lon="3.0156">
        <ele>590.3</ele>
        <time>2018-02-25T10:06:01.000Z</time>
      </trkpt>
      <trkpt lat="43.5442" lon="3.01553">
        <ele>590.2</ele>
        <time>2018-02-25T10:06:03.000Z</time>
      </trkpt>
      <trkpt lat="43.54423" lon="3.01547">
        <ele>590.1</ele>
        <time>2018-02-25T10:06:05.000Z</time>
      </trkpt>
      <trkpt lat="43.54425" lon="3.01544">
        <ele>590</ele>
        <time>2018-02-25T10:06:06.000Z</time>
      </trkpt>
      <trkpt lat="43.54426" lon="3.01541">
        <ele>590</ele>
        <time>2018-02-25T10:06:07.000Z</time>
      </trkpt>
      <trkpt lat="43.54428" lon="3.01538">
        <ele>589.9</ele>
        <time>2018-02-25T10:06:08.000Z</time>
      </trkpt>
      <trkpt lat="43.54429" lon="3.01533">
        <ele>589.8</ele>
        <time>2018-02-25T10:06:10.000Z</time>
      </trkpt>
      <trkpt lat="43.54429" lon="3.01527">
        <ele>589.9</ele>
        <time>2018-02-25T10:06:12.000Z</time>
      </trkpt>
      <trkpt lat="43.54429" lon="3.01523">
        <ele>590</ele>
        <time>2018-02-25T10:06:13.000Z</time>
      </trkpt>
      <trkpt lat="43.54429" lon="3.01516">
        <ele>590.4</ele>
        <time>2018-02-25T10:06:15.000Z</time>
      </trkpt>
      <trkpt lat="43.54429" lon="3.01512">
        <ele>590.6</ele>
        <time>2018-02-25T10:06:16.000Z</time>
      </trkpt>
      <trkpt lat="43.54429" lon="3.01508">
        <ele>590.8</ele>
        <time>2018-02-25T10:06:17.000Z</time>
      </trkpt>
      <trkpt lat="43.54429" lon="3.01504">
        <ele>591</ele>
        <time>2018-02-25T10:06:18.000Z</time>
      </trkpt>
      <trkpt lat="43.54429" lon="3.01499">
        <ele>591.2</ele>
        <time>2018-02-25T10:06:19.000Z</time>
      </trkpt>
      <trkpt lat="43.5443" lon="3.01495">
        <ele>591.5</ele>
        <time>2018-02-25T10:06:20.000Z</time>
      </trkpt>
      <trkpt lat="43.5443" lon="3.01491">
        <ele>591.8</ele>
        <time>2018-02-25T10:06:21.000Z</time>
      </trkpt>
      <trkpt lat="43.54431" lon="3.01485">
        <ele>592.1</ele>
        <time>2018-02-25T10:06:23.000Z</time>
      </trkpt>
      <trkpt lat="43.54432" lon="3.01481">
        <ele>592.2</ele>
        <time>2018-02-25T10:06:24.000Z</time>
      </trkpt>
      <trkpt lat="43.54432" lon="3.01474">
        <ele>592.2</ele>
        <time>2018-02-25T10:06:26.000Z</time>
      </trkpt>
      <trkpt lat="43.54431" lon="3.01468">
        <ele>592.3</ele>
        <time>2018-02-25T10:06:28.000Z</time>
      </trkpt>
      <trkpt lat="43.5443" lon="3.01462">
        <ele>592.4</ele>
        <time>2018-02-25T10:06:30.000Z</time>
      </trkpt>
      <trkpt lat="43.54429" lon="3.01457">
        <ele>592.4</ele>
        <time>2018-02-25T10:06:31.000Z</time>
      </trkpt>
      <trkpt lat="43.54429" lon="3.0145">
        <ele>592.3</ele>
        <time>2018-02-25T10:06:33.000Z</time>
      </trkpt>
      <trkpt lat="43.54428" lon="3.01446">
        <ele>592.3</ele>
        <time>2018-02-25T10:06:34.000Z</time>
      </trkpt>
      <trkpt lat="43.54428" lon="3.01442">
        <ele>592.2</ele>
        <time>2018-02-25T10:06:35.000Z</time>
      </trkpt>
      <trkpt lat="43.54427" lon="3.01438">
        <ele>592.2</ele>
        <time>2018-02-25T10:06:36.000Z</time>
      </trkpt>
      <trkpt lat="43.54427" lon="3.01434">
        <ele>592.1</ele>
        <time>2018-02-25T10:06:37.000Z</time>
      </trkpt>
      <trkpt lat="43.54427" lon="3.01428">
        <ele>591.8</ele>
        <time>2018-02-25T10:06:39.000Z</time>
      </trkpt>
      <trkpt lat="43.54426" lon="3.01422">
        <ele>591.6</ele>
        <time>2018-02-25T10:06:41.000Z</time>
      </trkpt>
      <trkpt lat="43.54427" lon="3.01416">
        <ele>591.6</ele>
        <time>2018-02-25T10:06:43.000Z</time>
      </trkpt>
      <trkpt lat="43.54429" lon="3.0141">
        <ele>591.4</ele>
        <time>2018-02-25T10:06:45.000Z</time>
      </trkpt>
      <trkpt lat="43.54429" lon="3.01404">
        <ele>591.2</ele>
        <time>2018-02-25T10:06:47.000Z</time>
      </trkpt>
      <trkpt lat="43.54428" lon="3.01398">
        <ele>591</ele>
        <time>2018-02-25T10:06:49.000Z</time>
      </trkpt>
      <trkpt lat="43.54427" lon="3.01391">
        <ele>590.8</ele>
        <time>2018-02-25T10:06:51.000Z</time>
      </trkpt>
      <trkpt lat="43.54427" lon="3.01384">
        <ele>590.9</ele>
        <time>2018-02-25T10:06:53.000Z</time>
      </trkpt>
      <trkpt lat="43.54429" lon="3.01379">
        <ele>590.9</ele>
        <time>2018-02-25T10:06:55.000Z</time>
      </trkpt>
      <trkpt lat="43.54431" lon="3.01373">
        <ele>590.7</ele>
        <time>2018-02-25T10:06:57.000Z</time>
      </trkpt>
      <trkpt lat="43.54433" lon="3.01367">
        <ele>590.5</ele>
        <time>2018-02-25T10:06:59.000Z</time>
      </trkpt>
      <trkpt lat="43.54435" lon="3.01361">
        <ele>590.4</ele>
        <time>2018-02-25T10:07:01.000Z</time>
      </trkpt>
      <trkpt lat="43.54437" lon="3.01355">
        <ele>590.7</ele>
        <time>2018-02-25T10:07:03.000Z</time>
      </trkpt>
      <trkpt lat="43.54436" lon="3.01349">
        <ele>590.9</ele>
        <time>2018-02-25T10:07:05.000Z</time>
      </trkpt>
      <trkpt lat="43.54436" lon="3.01343">
        <ele>590.7</ele>
        <time>2018-02-25T10:07:07.000Z</time>
      </trkpt>
      <trkpt lat="43.54437" lon="3.01336">
        <ele>590.7</ele>
        <time>2018-02-25T10:07:09.000Z</time>
      </trkpt>
      <trkpt lat="43.54439" lon="3.01332">
        <ele>590.7</ele>
        <time>2018-02-25T10:07:10.000Z</time>
      </trkpt>
      <trkpt lat="43.54441" lon="3.01327">
        <ele>590.6</ele>
        <time>2018-02-25T10:07:11.000Z</time>
      </trkpt>
      <trkpt lat="43.54443" lon="3.01322">
        <ele>590.5</ele>
        <time>2018-02-25T10:07:12.000Z</time>
      </trkpt>
      <trkpt lat="43.54444" lon="3.01318">
        <ele>590.4</ele>
        <time>2018-02-25T10:07:13.000Z</time>
      </trkpt>
      <trkpt lat="43.54446" lon="3.01314">
        <ele>590.4</ele>
        <time>2018-02-25T10:07:14.000Z</time>
      </trkpt>
      <trkpt lat="43.54447" lon="3.0131">
        <ele>590.5</ele>
        <time>2018-02-25T10:07:15.000Z</time>
      </trkpt>
      <trkpt lat="43.54449" lon="3.01306">
        <ele>590.4</ele>
        <time>2018-02-25T10:07:16.000Z</time>
      </trkpt>
      <trkpt lat="43.5445" lon="3.01302">
        <ele>590.4</ele>
        <time>2018-02-25T10:07:17.000Z</time>
      </trkpt>
      <trkpt lat="43.54453" lon="3.01296">
        <ele>590.4</ele>
        <time>2018-02-25T10:07:19.000Z</time>
      </trkpt>
      <trkpt lat="43.54454" lon="3.01292">
        <ele>590.6</ele>
        <time>2018-02-25T10:07:20.000Z</time>
      </trkpt>
      <trkpt lat="43.54454" lon="3.01287">
        <ele>590.7</ele>
        <time>2018-02-25T10:07:21.000Z</time>
      </trkpt>
      <trkpt lat="43.54455" lon="3.01283">
        <ele>591.1</ele>
        <time>2018-02-25T10:07:22.000Z</time>
      </trkpt>
      <trkpt lat="43.54457" lon="3.01276">
        <ele>591.8</ele>
        <time>2018-02-25T10:07:24.000Z</time>
      </trkpt>
      <trkpt lat="43.54457" lon="3.01272">
        <ele>592.1</ele>
        <time>2018-02-25T10:07:25.000Z</time>
      </trkpt>
      <trkpt lat="43.54458" lon="3.01269">
        <ele>592.1</ele>
        <time>2018-02-25T10:07:26.000Z</time>
      </trkpt>
      <trkpt lat="43.54459" lon="3.01264">
        <ele>592.2</ele>
        <time>2018-02-25T10:07:27.000Z</time>
      </trkpt>
      <trkpt lat="43.54459" lon="3.01257">
        <ele>592.5</ele>
        <time>2018-02-25T10:07:29.000Z</time>
      </trkpt>
      <trkpt lat="43.54459" lon="3.01253">
        <ele>592.8</ele>
        <time>2018-02-25T10:07:30.000Z</time>
      </trkpt>
      <trkpt lat="43.5446" lon="3.01249">
        <ele>593.1</ele>
        <time>2018-02-25T10:07:31.000Z</time>
      </trkpt>
      <trkpt lat="43.54461" lon="3.01244">
        <ele>593.5</ele>
        <time>2018-02-25T10:07:33.000Z</time>
      </trkpt>
      <trkpt lat="43.54463" lon="3.0124">
        <ele>593.9</ele>
        <time>2018-02-25T10:07:35.000Z</time>
      </trkpt>
      <trkpt lat="43.54465" lon="3.01232">
        <ele>594.9</ele>
        <time>2018-02-25T10:07:37.000Z</time>
      </trkpt>
      <trkpt lat="43.54466" lon="3.01227">
        <ele>595.4</ele>
        <time>2018-02-25T10:07:38.000Z</time>
      </trkpt>
      <trkpt lat="43.54467" lon="3.01222">
        <ele>595.5</ele>
        <time>2018-02-25T10:07:39.000Z</time>
      </trkpt>
      <trkpt lat="43.54468" lon="3.01218">
        <ele>595.7</ele>
        <time>2018-02-25T10:07:40.000Z</time>
      </trkpt>
      <trkpt lat="43.54469" lon="3.01212">
        <ele>596</ele>
        <time>2018-02-25T10:07:41.000Z</time>
      </trkpt>
      <trkpt lat="43.5447" lon="3.01207">
        <ele>596.3</ele>
        <time>2018-02-25T10:07:42.000Z</time>
      </trkpt>
      <trkpt lat="43.54471" lon="3.01203">
        <ele>596.7</ele>
        <time>2018-02-25T10:07:43.000Z</time>
      </trkpt>
      <trkpt lat="43.54472" lon="3.01199">
        <ele>597.2</ele>
        <time>2018-02-25T10:07:44.000Z</time>
      </trkpt>
      <trkpt lat="43.54473" lon="3.01195">
        <ele>597.7</ele>
        <time>2018-02-25T10:07:45.000Z</time>
      </trkpt>
      <trkpt lat="43.54475" lon="3.01191">
        <ele>598.1</ele>
        <time>2018-02-25T10:07:46.000Z</time>
      </trkpt>
      <trkpt lat="43.54477" lon="3.01187">
        <ele>598.3</ele>
        <time>2018-02-25T10:07:47.000Z</time>
      </trkpt>
      <trkpt lat="43.54479" lon="3.01184">
        <ele>598.5</ele>
        <time>2018-02-25T10:07:48.000Z</time>
      </trkpt>
      <trkpt lat="43.54481" lon="3.01181">
        <ele>598.6</ele>
        <time>2018-02-25T10:07:50.000Z</time>
      </trkpt>
      <trkpt lat="43.54487" lon="3.01177">
        <ele>599.1</ele>
        <time>2018-02-25T10:07:53.000Z</time>
      </trkpt>
      <trkpt lat="43.54491" lon="3.01176">
        <ele>599</ele>
        <time>2018-02-25T10:07:54.000Z</time>
      </trkpt>
      <trkpt lat="43.54494" lon="3.01174">
        <ele>598.7</ele>
        <time>2018-02-25T10:07:55.000Z</time>
      </trkpt>
      <trkpt lat="43.54498" lon="3.01173">
        <ele>598.6</ele>
        <time>2018-02-25T10:07:56.000Z</time>
      </trkpt>
      <trkpt lat="43.54501" lon="3.01171">
        <ele>598.6</ele>
        <time>2018-02-25T10:07:57.000Z</time>
      </trkpt>
      <trkpt lat="43.54504" lon="3.0117">
        <ele>598.4</ele>
        <time>2018-02-25T10:07:58.000Z</time>
      </trkpt>
      <trkpt lat="43.54508" lon="3.01169">
        <ele>598.3</ele>
        <time>2018-02-25T10:07:59.000Z</time>
      </trkpt>
      <trkpt lat="43.54511" lon="3.01168">
        <ele>598.2</ele>
        <time>2018-02-25T10:08:00.000Z</time>
      </trkpt>
      <trkpt lat="43.54516" lon="3.01166">
        <ele>598.2</ele>
        <time>2018-02-25T10:08:02.000Z</time>
      </trkpt>
      <trkpt lat="43.5452" lon="3.01165">
        <ele>597.7</ele>
        <time>2018-02-25T10:08:04.000Z</time>
      </trkpt>
      <trkpt lat="43.54524" lon="3.01165">
        <ele>597.1</ele>
        <time>2018-02-25T10:08:05.000Z</time>
      </trkpt>
      <trkpt lat="43.54527" lon="3.01164">
        <ele>596.9</ele>
        <time>2018-02-25T10:08:06.000Z</time>
      </trkpt>
      <trkpt lat="43.54531" lon="3.01164">
        <ele>596.8</ele>
        <time>2018-02-25T10:08:07.000Z</time>
      </trkpt>
      <trkpt lat="43.54535" lon="3.01164">
        <ele>596.5</ele>
        <time>2018-02-25T10:08:08.000Z</time>
      </trkpt>
      <trkpt lat="43.54538" lon="3.01164">
        <ele>596</ele>
        <time>2018-02-25T10:08:09.000Z</time>
      </trkpt>
      <trkpt lat="43.54542" lon="3.01165">
        <ele>595.4</ele>
        <time>2018-02-25T10:08:10.000Z</time>
      </trkpt>
      <trkpt lat="43.54545" lon="3.01166">
        <ele>594.7</ele>
        <time>2018-02-25T10:08:11.000Z</time>
      </trkpt>
      <trkpt lat="43.5455" lon="3.01167">
        <ele>593.7</ele>
        <time>2018-02-25T10:08:12.000Z</time>
      </trkpt>
      <trkpt lat="43.54553" lon="3.01168">
        <ele>592.5</ele>
        <time>2018-02-25T10:08:13.000Z</time>
      </trkpt>
      <trkpt lat="43.54557" lon="3.01169">
        <ele>591.3</ele>
        <time>2018-02-25T10:08:14.000Z</time>
      </trkpt>
      <trkpt lat="43.54562" lon="3.01169">
        <ele>590.2</ele>
        <time>2018-02-25T10:08:15.000Z</time>
      </trkpt>
      <trkpt lat="43.54566" lon="3.0117">
        <ele>589.1</ele>
        <time>2018-02-25T10:08:16.000Z</time>
      </trkpt>
      <trkpt lat="43.5457" lon="3.01171">
        <ele>588.3</ele>
        <time>2018-02-25T10:08:17.000Z</time>
      </trkpt>
      <trkpt lat="43.54574" lon="3.01171">
        <ele>587.5</ele>
        <time>2018-02-25T10:08:18.000Z</time>
      </trkpt>
      <trkpt lat="43.54578" lon="3.01172">
        <ele>586.4</ele>
        <time>2018-02-25T10:08:19.000Z</time>
      </trkpt>
      <trkpt lat="43.54582" lon="3.01173">
        <ele>585.3</ele>
        <time>2018-02-25T10:08:20.000Z</time>
      </trkpt>
      <trkpt lat="43.54587" lon="3.01175">
        <ele>584.3</ele>
        <time>2018-02-25T10:08:21.000Z</time>
      </trkpt>
      <trkpt lat="43.54591" lon="3.01175">
        <ele>583.2</ele>
        <time>2018-02-25T10:08:22.000Z</time>
      </trkpt>
      <trkpt lat="43.54595" lon="3.01176">
        <ele>582</ele>
        <time>2018-02-25T10:08:23.000Z</time>
      </trkpt>
      <trkpt lat="43.54599" lon="3.01176">
        <ele>581</ele>
        <time>2018-02-25T10:08:24.000Z</time>
      </trkpt>
      <trkpt lat="43.54603" lon="3.01175">
        <ele>580.2</ele>
        <time>2018-02-25T10:08:25.000Z</time>
      </trkpt>
      <trkpt lat="43.54607" lon="3.01174">
        <ele>579.4</ele>
        <time>2018-02-25T10:08:26.000Z</time>
      </trkpt>
      <trkpt lat="43.5461" lon="3.01173">
        <ele>578.7</ele>
        <time>2018-02-25T10:08:27.000Z</time>
      </trkpt>
      <trkpt lat="43.54613" lon="3.01173">
        <ele>578.1</ele>
        <time>2018-02-25T10:08:28.000Z</time>
      </trkpt>
      <trkpt lat="43.54616" lon="3.01172">
        <ele>577.4</ele>
        <time>2018-02-25T10:08:30.000Z</time>
      </trkpt>
      <trkpt lat="43.54618" lon="3.01168">
        <ele>576.9</ele>
        <time>2018-02-25T10:08:32.000Z</time>
      </trkpt>
      <trkpt lat="43.54618" lon="3.01164">
        <ele>576.4</ele>
        <time>2018-02-25T10:08:37.000Z</time>
      </trkpt>
      <trkpt lat="43.54617" lon="3.0116">
        <ele>576.1</ele>
        <time>2018-02-25T10:08:41.000Z</time>
      </trkpt>
      <trkpt lat="43.5462" lon="3.01159">
        <ele>576</ele>
        <time>2018-02-25T10:08:45.000Z</time>
      </trkpt>
      <trkpt lat="43.54622" lon="3.01155">
        <ele>576.3</ele>
        <time>2018-02-25T10:08:50.000Z</time>
      </trkpt>
      <trkpt lat="43.54622" lon="3.01151">
        <ele>576.7</ele>
        <time>2018-02-25T10:08:52.000Z</time>
      </trkpt>
      <trkpt lat="43.54622" lon="3.01147">
        <ele>577.4</ele>
        <time>2018-02-25T10:08:54.000Z</time>
      </trkpt>
      <trkpt lat="43.54623" lon="3.01142">
        <ele>578.1</ele>
        <time>2018-02-25T10:08:56.000Z</time>
      </trkpt>
      <trkpt lat="43.54624" lon="3.01138">
        <ele>578.7</ele>
        <time>2018-02-25T10:08:58.000Z</time>
      </trkpt>
      <trkpt lat="43.54623" lon="3.01134">
        <ele>579.2</ele>
        <time>2018-02-25T10:09:00.000Z</time>
      </trkpt>
      <trkpt lat="43.54621" lon="3.0113">
        <ele>579.4</ele>
        <time>2018-02-25T10:09:02.000Z</time>
      </trkpt>
      <trkpt lat="43.5462" lon="3.01125">
        <ele>579.7</ele>
        <time>2018-02-25T10:09:05.000Z</time>
      </trkpt>
      <trkpt lat="43.54621" lon="3.0112">
        <ele>580.4</ele>
        <time>2018-02-25T10:09:07.000Z</time>
      </trkpt>
      <trkpt lat="43.54625" lon="3.01115">
        <ele>581.5</ele>
        <time>2018-02-25T10:09:09.000Z</time>
      </trkpt>
      <trkpt lat="43.54627" lon="3.01112">
        <ele>581.8</ele>
        <time>2018-02-25T10:09:10.000Z</time>
      </trkpt>
      <trkpt lat="43.54629" lon="3.01108">
        <ele>582.2</ele>
        <time>2018-02-25T10:09:12.000Z</time>
      </trkpt>
      <trkpt lat="43.54628" lon="3.01104">
        <ele>583.2</ele>
        <time>2018-02-25T10:09:14.000Z</time>
      </trkpt>
      <trkpt lat="43.54625" lon="3.01101">
        <ele>585</ele>
        <time>2018-02-25T10:09:16.000Z</time>
      </trkpt>
      <trkpt lat="43.54623" lon="3.01098">
        <ele>586.9</ele>
        <time>2018-02-25T10:09:18.000Z</time>
      </trkpt>
      <trkpt lat="43.54621" lon="3.01092">
        <ele>588.7</ele>
        <time>2018-02-25T10:09:20.000Z</time>
      </trkpt>
      <trkpt lat="43.5462" lon="3.01088">
        <ele>589.5</ele>
        <time>2018-02-25T10:09:21.000Z</time>
      </trkpt>
      <trkpt lat="43.5462" lon="3.01084">
        <ele>590.4</ele>
        <time>2018-02-25T10:09:24.000Z</time>
      </trkpt>
      <trkpt lat="43.54619" lon="3.0108">
        <ele>591.3</ele>
        <time>2018-02-25T10:09:29.000Z</time>
      </trkpt>
      <trkpt lat="43.54621" lon="3.01077">
        <ele>592.2</ele>
        <time>2018-02-25T10:09:35.000Z</time>
      </trkpt>
      <trkpt lat="43.54623" lon="3.01074">
        <ele>591.2</ele>
        <time>2018-02-25T10:09:38.000Z</time>
      </trkpt>
      <trkpt lat="43.54625" lon="3.0107">
        <ele>592.1</ele>
        <time>2018-02-25T10:09:49.000Z</time>
      </trkpt>
      <trkpt lat="43.54624" lon="3.01066">
        <ele>593</ele>
        <time>2018-02-25T10:09:53.000Z</time>
      </trkpt>
      <trkpt lat="43.54624" lon="3.01062">
        <ele>593.9</ele>
        <time>2018-02-25T10:09:57.000Z</time>
      </trkpt>
      <trkpt lat="43.54623" lon="3.01057">
        <ele>594.8</ele>
        <time>2018-02-25T10:10:01.000Z</time>
      </trkpt>
      <trkpt lat="43.54622" lon="3.01053">
        <ele>595.6</ele>
        <time>2018-02-25T10:10:07.000Z</time>
      </trkpt>
      <trkpt lat="43.54623" lon="3.01049">
        <ele>596.4</ele>
        <time>2018-02-25T10:10:12.000Z</time>
      </trkpt>
      <trkpt lat="43.54624" lon="3.01046">
        <ele>597.2</ele>
        <time>2018-02-25T10:10:16.000Z</time>
      </trkpt>
      <trkpt lat="43.54625" lon="3.01041">
        <ele>596.9</ele>
        <time>2018-02-25T10:10:24.000Z</time>
      </trkpt>
      <trkpt lat="43.54625" lon="3.01037">
        <ele>597.6</ele>
        <time>2018-02-25T10:10:27.000Z</time>
      </trkpt>
      <trkpt lat="43.54624" lon="3.01033">
        <ele>599.4</ele>
        <time>2018-02-25T10:10:31.000Z</time>
      </trkpt>
      <trkpt lat="43.54624" lon="3.01029">
        <ele>600.2</ele>
        <time>2018-02-25T10:10:36.000Z</time>
      </trkpt>
      <trkpt lat="43.54623" lon="3.01024">
        <ele>601.5</ele>
        <time>2018-02-25T10:10:41.000Z</time>
      </trkpt>
      <trkpt lat="43.54622" lon="3.0102">
        <ele>602.4</ele>
        <time>2018-02-25T10:10:52.000Z</time>
      </trkpt>
      <trkpt lat="43.54623" lon="3.01016">
        <ele>603.2</ele>
        <time>2018-02-25T10:10:56.000Z</time>
      </trkpt>
      <trkpt lat="43.54623" lon="3.01012">
        <ele>604</ele>
        <time>2018-02-25T10:11:00.000Z</time>
      </trkpt>
      <trkpt lat="43.54623" lon="3.01007">
        <ele>604.8</ele>
        <time>2018-02-25T10:11:05.000Z</time>
      </trkpt>
      <trkpt lat="43.54622" lon="3.01004">
        <ele>605.6</ele>
        <time>2018-02-25T10:11:08.000Z</time>
      </trkpt>
      <trkpt lat="43.54619" lon="3.01001">
        <ele>606.7</ele>
        <time>2018-02-25T10:11:13.000Z</time>
      </trkpt>
      <trkpt lat="43.54618" lon="3.00997">
        <ele>608.5</ele>
        <time>2018-02-25T10:11:18.000Z</time>
      </trkpt>
      <trkpt lat="43.54616" lon="3.00994">
        <ele>609.3</ele>
        <time>2018-02-25T10:11:22.000Z</time>
      </trkpt>
      <trkpt lat="43.54615" lon="3.00989">
        <ele>611</ele>
        <time>2018-02-25T10:11:26.000Z</time>
      </trkpt>
      <trkpt lat="43.54614" lon="3.00985">
        <ele>611.8</ele>
        <time>2018-02-25T10:11:30.000Z</time>
      </trkpt>
      <trkpt lat="43.54615" lon="3.00981">
        <ele>612.7</ele>
        <time>2018-02-25T10:11:34.000Z</time>
      </trkpt>
      <trkpt lat="43.54617" lon="3.00978">
        <ele>612.7</ele>
        <time>2018-02-25T10:11:37.000Z</time>
      </trkpt>
      <trkpt lat="43.54615" lon="3.00973">
        <ele>614.6</ele>
        <time>2018-02-25T10:11:42.000Z</time>
      </trkpt>
      <trkpt lat="43.54615" lon="3.00969">
        <ele>615.4</ele>
        <time>2018-02-25T10:11:50.000Z</time>
      </trkpt>
      <trkpt lat="43.54615" lon="3.00964">
        <ele>616.3</ele>
        <time>2018-02-25T10:11:55.000Z</time>
      </trkpt>
      <trkpt lat="43.54616" lon="3.00961">
        <ele>616.1</ele>
        <time>2018-02-25T10:11:59.000Z</time>
      </trkpt>
      <trkpt lat="43.54616" lon="3.00957">
        <ele>616.1</ele>
        <time>2018-02-25T10:12:03.000Z</time>
      </trkpt>
      <trkpt lat="43.54618" lon="3.00954">
        <ele>616.9</ele>
        <time>2018-02-25T10:12:07.000Z</time>
      </trkpt>
      <trkpt lat="43.54621" lon="3.00947">
        <ele>617.5</ele>
        <time>2018-02-25T10:12:53.000Z</time>
      </trkpt>
      <trkpt lat="43.54621" lon="3.00941">
        <ele>618.4</ele>
        <time>2018-02-25T10:12:55.000Z</time>
      </trkpt>
      <trkpt lat="43.5462" lon="3.00937">
        <ele>619.3</ele>
        <time>2018-02-25T10:12:57.000Z</time>
      </trkpt>
      <trkpt lat="43.54619" lon="3.00933">
        <ele>620.2</ele>
        <time>2018-02-25T10:13:00.000Z</time>
      </trkpt>
      <trkpt lat="43.54617" lon="3.00929">
        <ele>622.2</ele>
        <time>2018-02-25T10:13:04.000Z</time>
      </trkpt>
      <trkpt lat="43.54619" lon="3.00926">
        <ele>622.2</ele>
        <time>2018-02-25T10:13:13.000Z</time>
      </trkpt>
      <trkpt lat="43.5462" lon="3.00922">
        <ele>623.2</ele>
        <time>2018-02-25T10:13:32.000Z</time>
      </trkpt>
      <trkpt lat="43.54621" lon="3.00918">
        <ele>623.2</ele>
        <time>2018-02-25T10:13:35.000Z</time>
      </trkpt>
      <trkpt lat="43.54622" lon="3.00915">
        <ele>623.3</ele>
        <time>2018-02-25T10:13:38.000Z</time>
      </trkpt>
      <trkpt lat="43.54624" lon="3.00911">
        <ele>624.2</ele>
        <time>2018-02-25T10:13:41.000Z</time>
      </trkpt>
      <trkpt lat="43.54624" lon="3.00908">
        <ele>625.2</ele>
        <time>2018-02-25T10:13:45.000Z</time>
      </trkpt>
      <trkpt lat="43.54625" lon="3.00903">
        <ele>626.2</ele>
        <time>2018-02-25T10:13:50.000Z</time>
      </trkpt>
      <trkpt lat="43.54626" lon="3.009">
        <ele>626.3</ele>
        <time>2018-02-25T10:13:53.000Z</time>
      </trkpt>
      <trkpt lat="43.54628" lon="3.00895">
        <ele>626.5</ele>
        <time>2018-02-25T10:14:01.000Z</time>
      </trkpt>
      <trkpt lat="43.54631" lon="3.00893">
        <ele>626.5</ele>
        <time>2018-02-25T10:14:04.000Z</time>
      </trkpt>
      <trkpt lat="43.54635" lon="3.0089">
        <ele>625.9</ele>
        <time>2018-02-25T10:14:07.000Z</time>
      </trkpt>
      <trkpt lat="43.54638" lon="3.00889">
        <ele>625</ele>
        <time>2018-02-25T10:14:10.000Z</time>
      </trkpt>
      <trkpt lat="43.54639" lon="3.00885">
        <ele>626.1</ele>
        <time>2018-02-25T10:14:17.000Z</time>
      </trkpt>
      <trkpt lat="43.54639" lon="3.00881">
        <ele>627.1</ele>
        <time>2018-02-25T10:14:22.000Z</time>
      </trkpt>
      <trkpt lat="43.54641" lon="3.00877">
        <ele>627.3</ele>
        <time>2018-02-25T10:14:28.000Z</time>
      </trkpt>
      <trkpt lat="43.54643" lon="3.00873">
        <ele>628.2</ele>
        <time>2018-02-25T10:14:32.000Z</time>
      </trkpt>
      <trkpt lat="43.54645" lon="3.00871">
        <ele>627.4</ele>
        <time>2018-02-25T10:14:36.000Z</time>
      </trkpt>
      <trkpt lat="43.54646" lon="3.00867">
        <ele>628.4</ele>
        <time>2018-02-25T10:15:00.000Z</time>
      </trkpt>
      <trkpt lat="43.54648" lon="3.00863">
        <ele>628.5</ele>
        <time>2018-02-25T10:15:03.000Z</time>
      </trkpt>
      <trkpt lat="43.5465" lon="3.00859">
        <ele>628.7</ele>
        <time>2018-02-25T10:15:06.000Z</time>
      </trkpt>
      <trkpt lat="43.54651" lon="3.00855">
        <ele>629.6</ele>
        <time>2018-02-25T10:15:09.000Z</time>
      </trkpt>
      <trkpt lat="43.5465" lon="3.00851">
        <ele>630.6</ele>
        <time>2018-02-25T10:15:13.000Z</time>
      </trkpt>
      <trkpt lat="43.5465" lon="3.00847">
        <ele>631.6</ele>
        <time>2018-02-25T10:15:17.000Z</time>
      </trkpt>
      <trkpt lat="43.54652" lon="3.00844">
        <ele>632</ele>
        <time>2018-02-25T10:15:19.000Z</time>
      </trkpt>
      <trkpt lat="43.54652" lon="3.00839">
        <ele>632.6</ele>
        <time>2018-02-25T10:15:23.000Z</time>
      </trkpt>
      <trkpt lat="43.54651" lon="3.00831">
        <ele>633.6</ele>
        <time>2018-02-25T10:15:44.000Z</time>
      </trkpt>
      <trkpt lat="43.5465" lon="3.00826">
        <ele>634.2</ele>
        <time>2018-02-25T10:15:47.000Z</time>
      </trkpt>
      <trkpt lat="43.54651" lon="3.00822">
        <ele>634.7</ele>
        <time>2018-02-25T10:15:50.000Z</time>
      </trkpt>
      <trkpt lat="43.54651" lon="3.00817">
        <ele>635.3</ele>
        <time>2018-02-25T10:15:53.000Z</time>
      </trkpt>
      <trkpt lat="43.5465" lon="3.00813">
        <ele>635.5</ele>
        <time>2018-02-25T10:15:56.000Z</time>
      </trkpt>
      <trkpt lat="43.5465" lon="3.00808">
        <ele>635.8</ele>
        <time>2018-02-25T10:15:59.000Z</time>
      </trkpt>
      <trkpt lat="43.54649" lon="3.00804">
        <ele>636</ele>
        <time>2018-02-25T10:16:03.000Z</time>
      </trkpt>
      <trkpt lat="43.5465" lon="3.008">
        <ele>636.2</ele>
        <time>2018-02-25T10:16:06.000Z</time>
      </trkpt>
      <trkpt lat="43.54651" lon="3.00795">
        <ele>636.4</ele>
        <time>2018-02-25T10:16:09.000Z</time>
      </trkpt>
      <trkpt lat="43.54653" lon="3.00791">
        <ele>636.6</ele>
        <time>2018-02-25T10:16:12.000Z</time>
      </trkpt>
      <trkpt lat="43.54655" lon="3.00787">
        <ele>636.9</ele>
        <time>2018-02-25T10:16:16.000Z</time>
      </trkpt>
      <trkpt lat="43.54651" lon="3.0078">
        <ele>637.4</ele>
        <time>2018-02-25T10:19:38.000Z</time>
      </trkpt>
      <trkpt lat="43.54653" lon="3.00778">
        <ele>639.9</ele>
        <time>2018-02-25T10:19:45.000Z</time>
      </trkpt>
      <trkpt lat="43.54655" lon="3.00776">
        <ele>640.4</ele>
        <time>2018-02-25T10:22:50.000Z</time>
      </trkpt>
      <trkpt lat="43.54659" lon="3.00773">
        <ele>641.6</ele>
        <time>2018-02-25T10:22:52.000Z</time>
      </trkpt>
      <trkpt lat="43.54662" lon="3.0077">
        <ele>641.7</ele>
        <time>2018-02-25T10:22:54.000Z</time>
      </trkpt>
      <trkpt lat="43.54666" lon="3.00769">
        <ele>641.9</ele>
        <time>2018-02-25T10:22:56.000Z</time>
      </trkpt>
      <trkpt lat="43.54671" lon="3.00767">
        <ele>642</ele>
        <time>2018-02-25T10:22:58.000Z</time>
      </trkpt>
      <trkpt lat="43.54675" lon="3.00763">
        <ele>642.1</ele>
        <time>2018-02-25T10:23:00.000Z</time>
      </trkpt>
      <trkpt lat="43.54679" lon="3.0076">
        <ele>642.1</ele>
        <time>2018-02-25T10:23:02.000Z</time>
      </trkpt>
      <trkpt lat="43.54681" lon="3.00758">
        <ele>642.1</ele>
        <time>2018-02-25T10:23:04.000Z</time>
      </trkpt>
      <trkpt lat="43.54685" lon="3.00757">
        <ele>642.2</ele>
        <time>2018-02-25T10:23:07.000Z</time>
      </trkpt>
      <trkpt lat="43.54688" lon="3.00756">
        <ele>642.2</ele>
        <time>2018-02-25T10:23:10.000Z</time>
      </trkpt>
      <trkpt lat="43.54693" lon="3.00755">
        <ele>642.2</ele>
        <time>2018-02-25T10:23:12.000Z</time>
      </trkpt>
      <trkpt lat="43.54696" lon="3.00755">
        <ele>642.2</ele>
        <time>2018-02-25T10:23:13.000Z</time>
      </trkpt>
      <trkpt lat="43.547" lon="3.00755">
        <ele>642.3</ele>
        <time>2018-02-25T10:23:15.000Z</time>
      </trkpt>
      <trkpt lat="43.54704" lon="3.00755">
        <ele>642.4</ele>
        <time>2018-02-25T10:23:17.000Z</time>
      </trkpt>
      <trkpt lat="43.54709" lon="3.00755">
        <ele>642.6</ele>
        <time>2018-02-25T10:23:19.000Z</time>
      </trkpt>
      <trkpt lat="43.54711" lon="3.00756">
        <ele>642.7</ele>
        <time>2018-02-25T10:23:21.000Z</time>
      </trkpt>
      <trkpt lat="43.54715" lon="3.00756">
        <ele>642.8</ele>
        <time>2018-02-25T10:23:24.000Z</time>
      </trkpt>
      <trkpt lat="43.54718" lon="3.00756">
        <ele>643</ele>
        <time>2018-02-25T10:23:26.000Z</time>
      </trkpt>
      <trkpt lat="43.54722" lon="3.00756">
        <ele>643.5</ele>
        <time>2018-02-25T10:23:28.000Z</time>
      </trkpt>
      <trkpt lat="43.54725" lon="3.00756">
        <ele>644.2</ele>
        <time>2018-02-25T10:23:31.000Z</time>
      </trkpt>
      <trkpt lat="43.54729" lon="3.00756">
        <ele>644.8</ele>
        <time>2018-02-25T10:23:34.000Z</time>
      </trkpt>
      <trkpt lat="43.54732" lon="3.00757">
        <ele>645.2</ele>
        <time>2018-02-25T10:23:36.000Z</time>
      </trkpt>
      <trkpt lat="43.54735" lon="3.00759">
        <ele>645.7</ele>
        <time>2018-02-25T10:23:39.000Z</time>
      </trkpt>
      <trkpt lat="43.54739" lon="3.00763">
        <ele>646.2</ele>
        <time>2018-02-25T10:23:41.000Z</time>
      </trkpt>
      <trkpt lat="43.54741" lon="3.00767">
        <ele>646.3</ele>
        <time>2018-02-25T10:23:42.000Z</time>
      </trkpt>
      <trkpt lat="43.54744" lon="3.00772">
        <ele>646.3</ele>
        <time>2018-02-25T10:23:43.000Z</time>
      </trkpt>
      <trkpt lat="43.54746" lon="3.00775">
        <ele>646.3</ele>
        <time>2018-02-25T10:23:44.000Z</time>
      </trkpt>
      <trkpt lat="43.54748" lon="3.00779">
        <ele>646.2</ele>
        <time>2018-02-25T10:23:45.000Z</time>
      </trkpt>
      <trkpt lat="43.54752" lon="3.00783">
        <ele>646.2</ele>
        <time>2018-02-25T10:23:46.000Z</time>
      </trkpt>
      <trkpt lat="43.54755" lon="3.00788">
        <ele>645.9</ele>
        <time>2018-02-25T10:23:47.000Z</time>
      </trkpt>
      <trkpt lat="43.54759" lon="3.00792">
        <ele>645.4</ele>
        <time>2018-02-25T10:23:48.000Z</time>
      </trkpt>
      <trkpt lat="43.54762" lon="3.00795">
        <ele>645</ele>
        <time>2018-02-25T10:23:49.000Z</time>
      </trkpt>
      <trkpt lat="43.54765" lon="3.00798">
        <ele>644.6</ele>
        <time>2018-02-25T10:23:50.000Z</time>
      </trkpt>
      <trkpt lat="43.54769" lon="3.008">
        <ele>643.8</ele>
        <time>2018-02-25T10:23:51.000Z</time>
      </trkpt>
      <trkpt lat="43.54774" lon="3.00803">
        <ele>642.6</ele>
        <time>2018-02-25T10:23:52.000Z</time>
      </trkpt>
      <trkpt lat="43.54779" lon="3.00804">
        <ele>641.6</ele>
        <time>2018-02-25T10:23:53.000Z</time>
      </trkpt>
      <trkpt lat="43.54784" lon="3.00806">
        <ele>640.4</ele>
        <time>2018-02-25T10:23:54.000Z</time>
      </trkpt>
      <trkpt lat="43.54788" lon="3.00808">
        <ele>639.5</ele>
        <time>2018-02-25T10:23:55.000Z</time>
      </trkpt>
      <trkpt lat="43.54792" lon="3.00811">
        <ele>639</ele>
        <time>2018-02-25T10:23:56.000Z</time>
      </trkpt>
      <trkpt lat="43.54795" lon="3.00814">
        <ele>638.3</ele>
        <time>2018-02-25T10:23:57.000Z</time>
      </trkpt>
      <trkpt lat="43.54797" lon="3.00817">
        <ele>637.9</ele>
        <time>2018-02-25T10:23:58.000Z</time>
      </trkpt>
      <trkpt lat="43.548" lon="3.00819">
        <ele>637.4</ele>
        <time>2018-02-25T10:24:00.000Z</time>
      </trkpt>
      <trkpt lat="43.54803" lon="3.0082">
        <ele>637</ele>
        <time>2018-02-25T10:24:01.000Z</time>
      </trkpt>
      <trkpt lat="43.54806" lon="3.0082">
        <ele>636.8</ele>
        <time>2018-02-25T10:24:02.000Z</time>
      </trkpt>
      <trkpt lat="43.5481" lon="3.00821">
        <ele>636.6</ele>
        <time>2018-02-25T10:24:03.000Z</time>
      </trkpt>
      <trkpt lat="43.54815" lon="3.00821">
        <ele>636.4</ele>
        <time>2018-02-25T10:24:04.000Z</time>
      </trkpt>
      <trkpt lat="43.5482" lon="3.00822">
        <ele>636</ele>
        <time>2018-02-25T10:24:05.000Z</time>
      </trkpt>
      <trkpt lat="43.54823" lon="3.00822">
        <ele>635.6</ele>
        <time>2018-02-25T10:24:06.000Z</time>
      </trkpt>
      <trkpt lat="43.54827" lon="3.00822">
        <ele>635.2</ele>
        <time>2018-02-25T10:24:07.000Z</time>
      </trkpt>
      <trkpt lat="43.5483" lon="3.00822">
        <ele>634.9</ele>
        <time>2018-02-25T10:24:08.000Z</time>
      </trkpt>
      <trkpt lat="43.54833" lon="3.00821">
        <ele>634.6</ele>
        <time>2018-02-25T10:24:10.000Z</time>
      </trkpt>
      <trkpt lat="43.54836" lon="3.0082">
        <ele>634.5</ele>
        <time>2018-02-25T10:24:12.000Z</time>
      </trkpt>
      <trkpt lat="43.54839" lon="3.00819">
        <ele>634.3</ele>
        <time>2018-02-25T10:24:14.000Z</time>
      </trkpt>
      <trkpt lat="43.54842" lon="3.00816">
        <ele>634.1</ele>
        <time>2018-02-25T10:24:17.000Z</time>
      </trkpt>
      <trkpt lat="43.54845" lon="3.00812">
        <ele>633.8</ele>
        <time>2018-02-25T10:24:19.000Z</time>
      </trkpt>
      <trkpt lat="43.54848" lon="3.0081">
        <ele>633.5</ele>
        <time>2018-02-25T10:24:21.000Z</time>
      </trkpt>
      <trkpt lat="43.54851" lon="3.00807">
        <ele>633.2</ele>
        <time>2018-02-25T10:24:23.000Z</time>
      </trkpt>
      <trkpt lat="43.54855" lon="3.00805">
        <ele>633.1</ele>
        <time>2018-02-25T10:24:25.000Z</time>
      </trkpt>
      <trkpt lat="43.5486" lon="3.00805">
        <ele>632.9</ele>
        <time>2018-02-25T10:24:27.000Z</time>
      </trkpt>
      <trkpt lat="43.54863" lon="3.00803">
        <ele>632.9</ele>
        <time>2018-02-25T10:24:29.000Z</time>
      </trkpt>
      <trkpt lat="43.54868" lon="3.00801">
        <ele>632.8</ele>
        <time>2018-02-25T10:24:31.000Z</time>
      </trkpt>
      <trkpt lat="43.54872" lon="3.00797">
        <ele>632.7</ele>
        <time>2018-02-25T10:24:33.000Z</time>
      </trkpt>
      <trkpt lat="43.54874" lon="3.00793">
        <ele>632.7</ele>
        <time>2018-02-25T10:24:35.000Z</time>
      </trkpt>
      <trkpt lat="43.54871" lon="3.00786">
        <ele>632.7</ele>
        <time>2018-02-25T10:24:37.000Z</time>
      </trkpt>
      <trkpt lat="43.54868" lon="3.00781">
        <ele>632.7</ele>
        <time>2018-02-25T10:24:39.000Z</time>
      </trkpt>
      <trkpt lat="43.54869" lon="3.00775">
        <ele>632.7</ele>
        <time>2018-02-25T10:24:41.000Z</time>
      </trkpt>
      <trkpt lat="43.5487" lon="3.00772">
        <ele>632.7</ele>
        <time>2018-02-25T10:24:42.000Z</time>
      </trkpt>
      <trkpt lat="43.54872" lon="3.00769">
        <ele>632.6</ele>
        <time>2018-02-25T10:24:43.000Z</time>
      </trkpt>
      <trkpt lat="43.54875" lon="3.00764">
        <ele>632.6</ele>
        <time>2018-02-25T10:24:45.000Z</time>
      </trkpt>
      <trkpt lat="43.54879" lon="3.00759">
        <ele>632.5</ele>
        <time>2018-02-25T10:24:47.000Z</time>
      </trkpt>
      <trkpt lat="43.54881" lon="3.00755">
        <ele>632.4</ele>
        <time>2018-02-25T10:24:48.000Z</time>
      </trkpt>
      <trkpt lat="43.54882" lon="3.00751">
        <ele>632.4</ele>
        <time>2018-02-25T10:24:49.000Z</time>
      </trkpt>
      <trkpt lat="43.54884" lon="3.00746">
        <ele>632.2</ele>
        <time>2018-02-25T10:24:51.000Z</time>
      </trkpt>
      <trkpt lat="43.54886" lon="3.0074">
        <ele>631.9</ele>
        <time>2018-02-25T10:24:53.000Z</time>
      </trkpt>
      <trkpt lat="43.54888" lon="3.00737">
        <ele>631.5</ele>
        <time>2018-02-25T10:24:56.000Z</time>
      </trkpt>
      <trkpt lat="43.54887" lon="3.00733">
        <ele>630.9</ele>
        <time>2018-02-25T10:24:58.000Z</time>
      </trkpt>
      <trkpt lat="43.54884" lon="3.00727">
        <ele>630</ele>
        <time>2018-02-25T10:25:00.000Z</time>
      </trkpt>
      <trkpt lat="43.54882" lon="3.00724">
        <ele>629.3</ele>
        <time>2018-02-25T10:25:01.000Z</time>
      </trkpt>
      <trkpt lat="43.54884" lon="3.00718">
        <ele>627.6</ele>
        <time>2018-02-25T10:25:03.000Z</time>
      </trkpt>
      <trkpt lat="43.54886" lon="3.00715">
        <ele>627.5</ele>
        <time>2018-02-25T10:25:04.000Z</time>
      </trkpt>
      <trkpt lat="43.54888" lon="3.00713">
        <ele>627.6</ele>
        <time>2018-02-25T10:25:05.000Z</time>
      </trkpt>
      <trkpt lat="43.54891" lon="3.00711">
        <ele>627.7</ele>
        <time>2018-02-25T10:25:06.000Z</time>
      </trkpt>
      <trkpt lat="43.54895" lon="3.0071">
        <ele>627.9</ele>
        <time>2018-02-25T10:25:07.000Z</time>
      </trkpt>
      <trkpt lat="43.54899" lon="3.00708">
        <ele>628</ele>
        <time>2018-02-25T10:25:08.000Z</time>
      </trkpt>
      <trkpt lat="43.54902" lon="3.00704">
        <ele>620.8</ele>
        <time>2018-02-25T10:25:09.000Z</time>
      </trkpt>
      <trkpt lat="43.54906" lon="3.007">
        <ele>619.9</ele>
        <time>2018-02-25T10:25:10.000Z</time>
      </trkpt>
      <trkpt lat="43.5491" lon="3.00695">
        <ele>618.9</ele>
        <time>2018-02-25T10:25:11.000Z</time>
      </trkpt>
      <trkpt lat="43.54911" lon="3.00689">
        <ele>617.9</ele>
        <time>2018-02-25T10:25:12.000Z</time>
      </trkpt>
      <trkpt lat="43.54913" lon="3.00684">
        <ele>617</ele>
        <time>2018-02-25T10:25:13.000Z</time>
      </trkpt>
      <trkpt lat="43.54914" lon="3.00681">
        <ele>616.3</ele>
        <time>2018-02-25T10:25:14.000Z</time>
      </trkpt>
      <trkpt lat="43.54917" lon="3.00679">
        <ele>615.5</ele>
        <time>2018-02-25T10:25:16.000Z</time>
      </trkpt>
      <trkpt lat="43.54921" lon="3.00682">
        <ele>614.1</ele>
        <time>2018-02-25T10:25:18.000Z</time>
      </trkpt>
      <trkpt lat="43.54926" lon="3.00683">
        <ele>612.8</ele>
        <time>2018-02-25T10:25:20.000Z</time>
      </trkpt>
      <trkpt lat="43.54931" lon="3.00682">
        <ele>611.5</ele>
        <time>2018-02-25T10:25:22.000Z</time>
      </trkpt>
      <trkpt lat="43.54935" lon="3.00682">
        <ele>610.8</ele>
        <time>2018-02-25T10:25:24.000Z</time>
      </trkpt>
      <trkpt lat="43.54938" lon="3.00683">
        <ele>610.4</ele>
        <time>2018-02-25T10:25:26.000Z</time>
      </trkpt>
      <trkpt lat="43.54944" lon="3.00679">
        <ele>609.3</ele>
        <time>2018-02-25T10:25:28.000Z</time>
      </trkpt>
      <trkpt lat="43.54947" lon="3.00676">
        <ele>608.3</ele>
        <time>2018-02-25T10:25:29.000Z</time>
      </trkpt>
      <trkpt lat="43.5495" lon="3.00672">
        <ele>607.4</ele>
        <time>2018-02-25T10:25:30.000Z</time>
      </trkpt>
      <trkpt lat="43.54953" lon="3.0067">
        <ele>606.5</ele>
        <time>2018-02-25T10:25:31.000Z</time>
      </trkpt>
      <trkpt lat="43.54956" lon="3.00668">
        <ele>605.6</ele>
        <time>2018-02-25T10:25:32.000Z</time>
      </trkpt>
      <trkpt lat="43.5496" lon="3.00667">
        <ele>604.7</ele>
        <time>2018-02-25T10:25:33.000Z</time>
      </trkpt>
      <trkpt lat="43.54964" lon="3.00667">
        <ele>603.6</ele>
        <time>2018-02-25T10:25:34.000Z</time>
      </trkpt>
      <trkpt lat="43.54968" lon="3.00669">
        <ele>602.2</ele>
        <time>2018-02-25T10:25:35.000Z</time>
      </trkpt>
      <trkpt lat="43.54974" lon="3.00671">
        <ele>600.7</ele>
        <time>2018-02-25T10:25:36.000Z</time>
      </trkpt>
      <trkpt lat="43.54978" lon="3.00673">
        <ele>600</ele>
        <time>2018-02-25T10:25:37.000Z</time>
      </trkpt>
      <trkpt lat="43.54981" lon="3.00674">
        <ele>599.6</ele>
        <time>2018-02-25T10:25:38.000Z</time>
      </trkpt>
      <trkpt lat="43.54986" lon="3.00677">
        <ele>598.9</ele>
        <time>2018-02-25T10:25:40.000Z</time>
      </trkpt>
      <trkpt lat="43.5499" lon="3.00679">
        <ele>598.3</ele>
        <time>2018-02-25T10:25:41.000Z</time>
      </trkpt>
      <trkpt lat="43.54993" lon="3.00683">
        <ele>597.7</ele>
        <time>2018-02-25T10:25:42.000Z</time>
      </trkpt>
      <trkpt lat="43.54996" lon="3.00687">
        <ele>597</ele>
        <time>2018-02-25T10:25:43.000Z</time>
      </trkpt>
      <trkpt lat="43.55005" lon="3.00701">
        <ele>595</ele>
        <time>2018-02-25T10:25:44.000Z</time>
      </trkpt>
      <trkpt lat="43.55014" lon="3.00703">
        <ele>593.7</ele>
        <time>2018-02-25T10:25:45.000Z</time>
      </trkpt>
      <trkpt lat="43.55016" lon="3.00708">
        <ele>593</ele>
        <time>2018-02-25T10:25:46.000Z</time>
      </trkpt>
      <trkpt lat="43.5502" lon="3.00712">
        <ele>592.1</ele>
        <time>2018-02-25T10:25:47.000Z</time>
      </trkpt>
      <trkpt lat="43.55023" lon="3.00714">
        <ele>591.4</ele>
        <time>2018-02-25T10:25:48.000Z</time>
      </trkpt>
      <trkpt lat="43.55027" lon="3.00715">
        <ele>590.6</ele>
        <time>2018-02-25T10:25:49.000Z</time>
      </trkpt>
      <trkpt lat="43.55031" lon="3.00719">
        <ele>589.4</ele>
        <time>2018-02-25T10:25:50.000Z</time>
      </trkpt>
      <trkpt lat="43.55036" lon="3.00721">
        <ele>588.2</ele>
        <time>2018-02-25T10:25:51.000Z</time>
      </trkpt>
      <trkpt lat="43.55036" lon="3.00727">
        <ele>587</ele>
        <time>2018-02-25T10:25:52.000Z</time>
      </trkpt>
      <trkpt lat="43.5504" lon="3.00731">
        <ele>585.8</ele>
        <time>2018-02-25T10:25:53.000Z</time>
      </trkpt>
      <trkpt lat="43.55044" lon="3.00734">
        <ele>584.6</ele>
        <time>2018-02-25T10:25:54.000Z</time>
      </trkpt>
      <trkpt lat="43.55049" lon="3.00738">
        <ele>582.9</ele>
        <time>2018-02-25T10:25:55.000Z</time>
      </trkpt>
      <trkpt lat="43.55047" lon="3.00741">
        <ele>582.1</ele>
        <time>2018-02-25T10:25:56.000Z</time>
      </trkpt>
      <trkpt lat="43.55048" lon="3.00749">
        <ele>580.8</ele>
        <time>2018-02-25T10:25:58.000Z</time>
      </trkpt>
      <trkpt lat="43.55049" lon="3.00753">
        <ele>581.1</ele>
        <time>2018-02-25T10:26:00.000Z</time>
      </trkpt>
      <trkpt lat="43.55047" lon="3.00749">
        <ele>581.3</ele>
        <time>2018-02-25T10:26:11.000Z</time>
      </trkpt>
      <trkpt lat="43.55046" lon="3.00745">
        <ele>581.5</ele>
        <time>2018-02-25T10:26:13.000Z</time>
      </trkpt>
      <trkpt lat="43.55045" lon="3.00741">
        <ele>581.7</ele>
        <time>2018-02-25T10:26:15.000Z</time>
      </trkpt>
      <trkpt lat="43.55042" lon="3.00738">
        <ele>581.8</ele>
        <time>2018-02-25T10:26:17.000Z</time>
      </trkpt>
      <trkpt lat="43.55042" lon="3.00733">
        <ele>582</ele>
        <time>2018-02-25T10:26:21.000Z</time>
      </trkpt>
      <trkpt lat="43.55042" lon="3.00728">
        <ele>582.2</ele>
        <time>2018-02-25T10:26:24.000Z</time>
      </trkpt>
      <trkpt lat="43.55043" lon="3.00722">
        <ele>582.5</ele>
        <time>2018-02-25T10:26:26.000Z</time>
      </trkpt>
      <trkpt lat="43.55045" lon="3.00717">
        <ele>582.7</ele>
        <time>2018-02-25T10:26:28.000Z</time>
      </trkpt>
      <trkpt lat="43.55045" lon="3.00713">
        <ele>582.9</ele>
        <time>2018-02-25T10:26:29.000Z</time>
      </trkpt>
      <trkpt lat="43.55045" lon="3.00706">
        <ele>583.1</ele>
        <time>2018-02-25T10:26:31.000Z</time>
      </trkpt>
      <trkpt lat="43.55048" lon="3.00701">
        <ele>583.4</ele>
        <time>2018-02-25T10:26:33.000Z</time>
      </trkpt>
      <trkpt lat="43.55051" lon="3.00699">
        <ele>583.6</ele>
        <time>2018-02-25T10:26:35.000Z</time>
      </trkpt>
      <trkpt lat="43.55055" lon="3.00695">
        <ele>583.8</ele>
        <time>2018-02-25T10:26:37.000Z</time>
      </trkpt>
      <trkpt lat="43.55056" lon="3.00692">
        <ele>584</ele>
        <time>2018-02-25T10:26:38.000Z</time>
      </trkpt>
      <trkpt lat="43.55056" lon="3.00687">
        <ele>583.7</ele>
        <time>2018-02-25T10:26:39.000Z</time>
      </trkpt>
      <trkpt lat="43.55056" lon="3.00682">
        <ele>583.5</ele>
        <time>2018-02-25T10:26:40.000Z</time>
      </trkpt>
      <trkpt lat="43.55056" lon="3.00676">
        <ele>583.3</ele>
        <time>2018-02-25T10:26:41.000Z</time>
      </trkpt>
      <trkpt lat="43.55057" lon="3.00671">
        <ele>583</ele>
        <time>2018-02-25T10:26:42.000Z</time>
      </trkpt>
      <trkpt lat="43.55057" lon="3.00667">
        <ele>581.4</ele>
        <time>2018-02-25T10:26:43.000Z</time>
      </trkpt>
      <trkpt lat="43.55058" lon="3.00662">
        <ele>581.2</ele>
        <time>2018-02-25T10:26:44.000Z</time>
      </trkpt>
      <trkpt lat="43.55059" lon="3.00656">
        <ele>581.1</ele>
        <time>2018-02-25T10:26:45.000Z</time>
      </trkpt>
      <trkpt lat="43.5506" lon="3.0065">
        <ele>580.8</ele>
        <time>2018-02-25T10:26:46.000Z</time>
      </trkpt>
      <trkpt lat="43.5506" lon="3.00645">
        <ele>580.6</ele>
        <time>2018-02-25T10:26:47.000Z</time>
      </trkpt>
      <trkpt lat="43.55059" lon="3.0064">
        <ele>580.4</ele>
        <time>2018-02-25T10:26:48.000Z</time>
      </trkpt>
      <trkpt lat="43.55057" lon="3.00635">
        <ele>580.2</ele>
        <time>2018-02-25T10:26:49.000Z</time>
      </trkpt>
      <trkpt lat="43.55056" lon="3.0063">
        <ele>581.9</ele>
        <time>2018-02-25T10:26:50.000Z</time>
      </trkpt>
      <trkpt lat="43.55054" lon="3.00626">
        <ele>581.8</ele>
        <time>2018-02-25T10:26:51.000Z</time>
      </trkpt>
      <trkpt lat="43.55053" lon="3.00622">
        <ele>583.4</ele>
        <time>2018-02-25T10:26:52.000Z</time>
      </trkpt>
      <trkpt lat="43.55051" lon="3.00614">
        <ele>583.2</ele>
        <time>2018-02-25T10:26:54.000Z</time>
      </trkpt>
      <trkpt lat="43.5505" lon="3.00609">
        <ele>584.8</ele>
        <time>2018-02-25T10:26:55.000Z</time>
      </trkpt>
      <trkpt lat="43.55049" lon="3.00605">
        <ele>584.8</ele>
        <time>2018-02-25T10:26:56.000Z</time>
      </trkpt>
      <trkpt lat="43.55048" lon="3.00601">
        <ele>584.6</ele>
        <time>2018-02-25T10:26:57.000Z</time>
      </trkpt>
      <trkpt lat="43.55047" lon="3.00594">
        <ele>586</ele>
        <time>2018-02-25T10:26:59.000Z</time>
      </trkpt>
      <trkpt lat="43.55046" lon="3.0059">
        <ele>585.8</ele>
        <time>2018-02-25T10:27:00.000Z</time>
      </trkpt>
      <trkpt lat="43.55044" lon="3.00585">
        <ele>586.9</ele>
        <time>2018-02-25T10:27:02.000Z</time>
      </trkpt>
      <trkpt lat="43.55043" lon="3.00581">
        <ele>586.6</ele>
        <time>2018-02-25T10:27:04.000Z</time>
      </trkpt>
      <trkpt lat="43.5504" lon="3.00579">
        <ele>587.6</ele>
        <time>2018-02-25T10:27:06.000Z</time>
      </trkpt>
      <trkpt lat="43.55039" lon="3.00575">
        <ele>587.3</ele>
        <time>2018-02-25T10:27:07.000Z</time>
      </trkpt>
      <trkpt lat="43.55038" lon="3.00571">
        <ele>588.2</ele>
        <time>2018-02-25T10:27:09.000Z</time>
      </trkpt>
      <trkpt lat="43.55037" lon="3.00566">
        <ele>587.9</ele>
        <time>2018-02-25T10:27:12.000Z</time>
      </trkpt>
      <trkpt lat="43.55036" lon="3.00562">
        <ele>587.6</ele>
        <time>2018-02-25T10:27:15.000Z</time>
      </trkpt>
      <trkpt lat="43.55034" lon="3.00554">
        <ele>588.5</ele>
        <time>2018-02-25T10:27:28.000Z</time>
      </trkpt>
      <trkpt lat="43.55033" lon="3.0055">
        <ele>588.2</ele>
        <time>2018-02-25T10:27:29.000Z</time>
      </trkpt>
      <trkpt lat="43.55034" lon="3.00544">
        <ele>587.9</ele>
        <time>2018-02-25T10:27:31.000Z</time>
      </trkpt>
      <trkpt lat="43.55035" lon="3.00538">
        <ele>587.5</ele>
        <time>2018-02-25T10:27:33.000Z</time>
      </trkpt>
      <trkpt lat="43.55034" lon="3.00533">
        <ele>587.1</ele>
        <time>2018-02-25T10:27:37.000Z</time>
      </trkpt>
      <trkpt lat="43.55034" lon="3.00528">
        <ele>586.7</ele>
        <time>2018-02-25T10:27:39.000Z</time>
      </trkpt>
      <trkpt lat="43.55037" lon="3.00523">
        <ele>585</ele>
        <time>2018-02-25T10:27:41.000Z</time>
      </trkpt>
      <trkpt lat="43.5504" lon="3.00519">
        <ele>583.6</ele>
        <time>2018-02-25T10:27:43.000Z</time>
      </trkpt>
      <trkpt lat="43.55042" lon="3.00515">
        <ele>582.1</ele>
        <time>2018-02-25T10:27:45.000Z</time>
      </trkpt>
      <trkpt lat="43.55043" lon="3.00512">
        <ele>581.6</ele>
        <time>2018-02-25T10:27:46.000Z</time>
      </trkpt>
      <trkpt lat="43.55046" lon="3.00506">
        <ele>580</ele>
        <time>2018-02-25T10:27:47.000Z</time>
      </trkpt>
      <trkpt lat="43.55051" lon="3.00489">
        <ele>575.9</ele>
        <time>2018-02-25T10:27:48.000Z</time>
      </trkpt>
      <trkpt lat="43.55057" lon="3.00482">
        <ele>571.9</ele>
        <time>2018-02-25T10:27:49.000Z</time>
      </trkpt>
      <trkpt lat="43.55063" lon="3.00475">
        <ele>568</ele>
        <time>2018-02-25T10:27:50.000Z</time>
      </trkpt>
      <trkpt lat="43.55068" lon="3.00469">
        <ele>565.9</ele>
        <time>2018-02-25T10:27:51.000Z</time>
      </trkpt>
      <trkpt lat="43.55074" lon="3.00465">
        <ele>562.3</ele>
        <time>2018-02-25T10:27:52.000Z</time>
      </trkpt>
      <trkpt lat="43.55079" lon="3.00462">
        <ele>558.4</ele>
        <time>2018-02-25T10:27:54.000Z</time>
      </trkpt>
      <trkpt lat="43.55085" lon="3.0046">
        <ele>556.3</ele>
        <time>2018-02-25T10:27:55.000Z</time>
      </trkpt>
      <trkpt lat="43.5509" lon="3.00458">
        <ele>552.2</ele>
        <time>2018-02-25T10:27:56.000Z</time>
      </trkpt>
      <trkpt lat="43.55093" lon="3.00453">
        <ele>549.7</ele>
        <time>2018-02-25T10:27:57.000Z</time>
      </trkpt>
      <trkpt lat="43.55096" lon="3.00451">
        <ele>547.6</ele>
        <time>2018-02-25T10:27:59.000Z</time>
      </trkpt>
      <trkpt lat="43.55098" lon="3.00449">
        <ele>545.1</ele>
        <time>2018-02-25T10:28:00.000Z</time>
      </trkpt>
      <trkpt lat="43.55102" lon="3.00446">
        <ele>543</ele>
        <time>2018-02-25T10:28:01.000Z</time>
      </trkpt>
      <trkpt lat="43.55106" lon="3.00444">
        <ele>540.5</ele>
        <time>2018-02-25T10:28:02.000Z</time>
      </trkpt>
      <trkpt lat="43.55111" lon="3.00441">
        <ele>536</ele>
        <time>2018-02-25T10:28:03.000Z</time>
      </trkpt>
      <trkpt lat="43.55131" lon="3.00427">
        <ele>523.9</ele>
        <time>2018-02-25T10:28:05.000Z</time>
      </trkpt>
      <trkpt lat="43.55135" lon="3.00426">
        <ele>519.7</ele>
        <time>2018-02-25T10:28:07.000Z</time>
      </trkpt>
      <trkpt lat="43.55139" lon="3.00424">
        <ele>517.2</ele>
        <time>2018-02-25T10:28:08.000Z</time>
      </trkpt>
      <trkpt lat="43.55144" lon="3.00424">
        <ele>514.8</ele>
        <time>2018-02-25T10:28:09.000Z</time>
      </trkpt>
      <trkpt lat="43.55151" lon="3.00423">
        <ele>509</ele>
        <time>2018-02-25T10:28:10.000Z</time>
      </trkpt>
      <trkpt lat="43.55156" lon="3.00423">
        <ele>507.1</ele>
        <time>2018-02-25T10:28:11.000Z</time>
      </trkpt>
      <trkpt lat="43.55164" lon="3.00426">
        <ele>501.8</ele>
        <time>2018-02-25T10:28:12.000Z</time>
      </trkpt>
      <trkpt lat="43.5517" lon="3.00428">
        <ele>497.8</ele>
        <time>2018-02-25T10:28:13.000Z</time>
      </trkpt>
      <trkpt lat="43.55174" lon="3.0043">
        <ele>495.9</ele>
        <time>2018-02-25T10:28:14.000Z</time>
      </trkpt>
      <trkpt lat="43.5518" lon="3.00432">
        <ele>492.6</ele>
        <time>2018-02-25T10:28:15.000Z</time>
      </trkpt>
      <trkpt lat="43.55182" lon="3.00437">
        <ele>490.9</ele>
        <time>2018-02-25T10:28:16.000Z</time>
      </trkpt>
      <trkpt lat="43.55186" lon="3.00444">
        <ele>489.2</ele>
        <time>2018-02-25T10:28:18.000Z</time>
      </trkpt>
      <trkpt lat="43.55185" lon="3.0045">
        <ele>488.9</ele>
        <time>2018-02-25T10:28:19.000Z</time>
      </trkpt>
      <trkpt lat="43.55183" lon="3.00459">
        <ele>490.1</ele>
        <time>2018-02-25T10:28:20.000Z</time>
      </trkpt>
      <trkpt lat="43.55182" lon="3.00463">
        <ele>489.8</ele>
        <time>2018-02-25T10:28:21.000Z</time>
      </trkpt>
      <trkpt lat="43.55182" lon="3.00468">
        <ele>489.5</ele>
        <time>2018-02-25T10:28:23.000Z</time>
      </trkpt>
      <trkpt lat="43.55182" lon="3.00472">
        <ele>489.2</ele>
        <time>2018-02-25T10:28:24.000Z</time>
      </trkpt>
      <trkpt lat="43.55181" lon="3.00476">
        <ele>490.2</ele>
        <time>2018-02-25T10:28:25.000Z</time>
      </trkpt>
      <trkpt lat="43.55182" lon="3.00482">
        <ele>488.7</ele>
        <time>2018-02-25T10:28:27.000Z</time>
      </trkpt>
      <trkpt lat="43.55184" lon="3.00487">
        <ele>488.5</ele>
        <time>2018-02-25T10:28:28.000Z</time>
      </trkpt>
      <trkpt lat="43.55186" lon="3.00492">
        <ele>486.9</ele>
        <time>2018-02-25T10:28:29.000Z</time>
      </trkpt>
      <trkpt lat="43.55187" lon="3.00496">
        <ele>486.7</ele>
        <time>2018-02-25T10:28:30.000Z</time>
      </trkpt>
      <trkpt lat="43.5519" lon="3.005">
        <ele>485</ele>
        <time>2018-02-25T10:28:31.000Z</time>
      </trkpt>
      <trkpt lat="43.55193" lon="3.00506">
        <ele>483.3</ele>
        <time>2018-02-25T10:28:32.000Z</time>
      </trkpt>
      <trkpt lat="43.55196" lon="3.0051">
        <ele>481.7</ele>
        <time>2018-02-25T10:28:33.000Z</time>
      </trkpt>
      <trkpt lat="43.552" lon="3.00513">
        <ele>480.3</ele>
        <time>2018-02-25T10:28:34.000Z</time>
      </trkpt>
      <trkpt lat="43.55204" lon="3.00515">
        <ele>477.9</ele>
        <time>2018-02-25T10:28:35.000Z</time>
      </trkpt>
      <trkpt lat="43.55211" lon="3.00517">
        <ele>477.2</ele>
        <time>2018-02-25T10:28:36.000Z</time>
      </trkpt>
      <trkpt lat="43.55215" lon="3.00519">
        <ele>476.6</ele>
        <time>2018-02-25T10:28:37.000Z</time>
      </trkpt>
      <trkpt lat="43.55219" lon="3.00519">
        <ele>476.1</ele>
        <time>2018-02-25T10:28:38.000Z</time>
      </trkpt>
      <trkpt lat="43.55222" lon="3.00519">
        <ele>475.6</ele>
        <time>2018-02-25T10:28:39.000Z</time>
      </trkpt>
      <trkpt lat="43.55226" lon="3.00518">
        <ele>475.2</ele>
        <time>2018-02-25T10:28:40.000Z</time>
      </trkpt>
      <trkpt lat="43.55229" lon="3.00517">
        <ele>474.7</ele>
        <time>2018-02-25T10:28:41.000Z</time>
      </trkpt>
      <trkpt lat="43.55234" lon="3.00517">
        <ele>474.1</ele>
        <time>2018-02-25T10:28:43.000Z</time>
      </trkpt>
      <trkpt lat="43.55233" lon="3.00522">
        <ele>474.6</ele>
        <time>2018-02-25T10:28:46.000Z</time>
      </trkpt>
      <trkpt lat="43.55231" lon="3.00524">
        <ele>475.5</ele>
        <time>2018-02-25T10:28:49.000Z</time>
      </trkpt>
      <trkpt lat="43.55228" lon="3.00527">
        <ele>476.6</ele>
        <time>2018-02-25T10:29:35.000Z</time>
      </trkpt>
      <trkpt lat="43.55227" lon="3.00531">
        <ele>477.3</ele>
        <time>2018-02-25T10:29:37.000Z</time>
      </trkpt>
      <trkpt lat="43.55228" lon="3.00535">
        <ele>478.1</ele>
        <time>2018-02-25T10:29:39.000Z</time>
      </trkpt>
      <trkpt lat="43.55228" lon="3.00539">
        <ele>478.6</ele>
        <time>2018-02-25T10:29:41.000Z</time>
      </trkpt>
      <trkpt lat="43.5523" lon="3.00545">
        <ele>478.9</ele>
        <time>2018-02-25T10:29:43.000Z</time>
      </trkpt>
      <trkpt lat="43.5523" lon="3.00552">
        <ele>478.6</ele>
        <time>2018-02-25T10:29:45.000Z</time>
      </trkpt>
      <trkpt lat="43.55232" lon="3.00558">
        <ele>478.4</ele>
        <time>2018-02-25T10:29:47.000Z</time>
      </trkpt>
      <trkpt lat="43.55234" lon="3.00562">
        <ele>478.3</ele>
        <time>2018-02-25T10:29:48.000Z</time>
      </trkpt>
      <trkpt lat="43.55235" lon="3.00565">
        <ele>478.2</ele>
        <time>2018-02-25T10:29:49.000Z</time>
      </trkpt>
      <trkpt lat="43.55237" lon="3.00568">
        <ele>478</ele>
        <time>2018-02-25T10:29:50.000Z</time>
      </trkpt>
      <trkpt lat="43.55238" lon="3.00572">
        <ele>477.9</ele>
        <time>2018-02-25T10:29:51.000Z</time>
      </trkpt>
      <trkpt lat="43.5524" lon="3.00576">
        <ele>477.7</ele>
        <time>2018-02-25T10:29:52.000Z</time>
      </trkpt>
      <trkpt lat="43.55241" lon="3.00581">
        <ele>477.6</ele>
        <time>2018-02-25T10:29:53.000Z</time>
      </trkpt>
      <trkpt lat="43.55243" lon="3.00586">
        <ele>477.4</ele>
        <time>2018-02-25T10:29:54.000Z</time>
      </trkpt>
      <trkpt lat="43.55245" lon="3.00589">
        <ele>477.3</ele>
        <time>2018-02-25T10:29:55.000Z</time>
      </trkpt>
      <trkpt lat="43.55247" lon="3.00592">
        <ele>477.2</ele>
        <time>2018-02-25T10:29:57.000Z</time>
      </trkpt>
      <trkpt lat="43.55248" lon="3.00596">
        <ele>477</ele>
        <time>2018-02-25T10:29:59.000Z</time>
      </trkpt>
      <trkpt lat="43.55248" lon="3.006">
        <ele>476.7</ele>
        <time>2018-02-25T10:30:00.000Z</time>
      </trkpt>
      <trkpt lat="43.55248" lon="3.00604">
        <ele>476.7</ele>
        <time>2018-02-25T10:30:01.000Z</time>
      </trkpt>
      <trkpt lat="43.55247" lon="3.00609">
        <ele>476.8</ele>
        <time>2018-02-25T10:30:02.000Z</time>
      </trkpt>
      <trkpt lat="43.55246" lon="3.00612">
        <ele>476.6</ele>
        <time>2018-02-25T10:30:03.000Z</time>
      </trkpt>
      <trkpt lat="43.55245" lon="3.00618">
        <ele>476.1</ele>
        <time>2018-02-25T10:30:05.000Z</time>
      </trkpt>
      <trkpt lat="43.55244" lon="3.00622">
        <ele>476.3</ele>
        <time>2018-02-25T10:30:07.000Z</time>
      </trkpt>
      <trkpt lat="43.55244" lon="3.0063">
        <ele>476.6</ele>
        <time>2018-02-25T10:33:47.000Z</time>
      </trkpt>
      <trkpt lat="43.55243" lon="3.00635">
        <ele>476.5</ele>
        <time>2018-02-25T10:33:49.000Z</time>
      </trkpt>
      <trkpt lat="43.55244" lon="3.0063">
        <ele>476.8</ele>
        <time>2018-02-25T10:34:01.000Z</time>
      </trkpt>
      <trkpt lat="43.5525" lon="3.00628">
        <ele>476.2</ele>
        <time>2018-02-25T10:34:03.000Z</time>
      </trkpt>
      <trkpt lat="43.55255" lon="3.00627">
        <ele>476.4</ele>
        <time>2018-02-25T10:34:04.000Z</time>
      </trkpt>
      <trkpt lat="43.5526" lon="3.00628">
        <ele>476.2</ele>
        <time>2018-02-25T10:34:05.000Z</time>
      </trkpt>
      <trkpt lat="43.55264" lon="3.00628">
        <ele>476.6</ele>
        <time>2018-02-25T10:34:06.000Z</time>
      </trkpt>
      <trkpt lat="43.55269" lon="3.0063">
        <ele>476.9</ele>
        <time>2018-02-25T10:34:07.000Z</time>
      </trkpt>
      <trkpt lat="43.55272" lon="3.00632">
        <ele>477.4</ele>
        <time>2018-02-25T10:34:08.000Z</time>
      </trkpt>
      <trkpt lat="43.55277" lon="3.00634">
        <ele>478.1</ele>
        <time>2018-02-25T10:34:09.000Z</time>
      </trkpt>
      <trkpt lat="43.55281" lon="3.00636">
        <ele>478.7</ele>
        <time>2018-02-25T10:34:10.000Z</time>
      </trkpt>
      <trkpt lat="43.55285" lon="3.00638">
        <ele>479.6</ele>
        <time>2018-02-25T10:34:11.000Z</time>
      </trkpt>
      <trkpt lat="43.55289" lon="3.0064">
        <ele>480.5</ele>
        <time>2018-02-25T10:34:12.000Z</time>
      </trkpt>
      <trkpt lat="43.55293" lon="3.00643">
        <ele>481.5</ele>
        <time>2018-02-25T10:34:13.000Z</time>
      </trkpt>
      <trkpt lat="43.55296" lon="3.00645">
        <ele>481.4</ele>
        <time>2018-02-25T10:34:14.000Z</time>
      </trkpt>
      <trkpt lat="43.55299" lon="3.00646">
        <ele>481.4</ele>
        <time>2018-02-25T10:34:15.000Z</time>
      </trkpt>
      <trkpt lat="43.55302" lon="3.00648">
        <ele>481.5</ele>
        <time>2018-02-25T10:34:16.000Z</time>
      </trkpt>
      <trkpt lat="43.55306" lon="3.00649">
        <ele>481.6</ele>
        <time>2018-02-25T10:34:17.000Z</time>
      </trkpt>
      <trkpt lat="43.55311" lon="3.00649">
        <ele>481.7</ele>
        <time>2018-02-25T10:34:18.000Z</time>
      </trkpt>
      <trkpt lat="43.55313" lon="3.00648">
        <ele>481.8</ele>
        <time>2018-02-25T10:34:19.000Z</time>
      </trkpt>
      <trkpt lat="43.55316" lon="3.00643">
        <ele>481.8</ele>
        <time>2018-02-25T10:34:21.000Z</time>
      </trkpt>
      <trkpt lat="43.55317" lon="3.00639">
        <ele>481.8</ele>
        <time>2018-02-25T10:34:24.000Z</time>
      </trkpt>
      <trkpt lat="43.55314" lon="3.00642">
        <ele>481.8</ele>
        <time>2018-02-25T10:34:36.000Z</time>
      </trkpt>
      <trkpt lat="43.55311" lon="3.00646">
        <ele>481.6</ele>
        <time>2018-02-25T10:34:37.000Z</time>
      </trkpt>
      <trkpt lat="43.55309" lon="3.00649">
        <ele>481.5</ele>
        <time>2018-02-25T10:34:38.000Z</time>
      </trkpt>
      <trkpt lat="43.55306" lon="3.00653">
        <ele>481.5</ele>
        <time>2018-02-25T10:34:40.000Z</time>
      </trkpt>
      <trkpt lat="43.55303" lon="3.00656">
        <ele>481.6</ele>
        <time>2018-02-25T10:34:42.000Z</time>
      </trkpt>
      <trkpt lat="43.553" lon="3.0066">
        <ele>481.7</ele>
        <time>2018-02-25T10:34:45.000Z</time>
      </trkpt>
      <trkpt lat="43.55298" lon="3.00663">
        <ele>481.8</ele>
        <time>2018-02-25T10:34:47.000Z</time>
      </trkpt>
      <trkpt lat="43.55295" lon="3.00667">
        <ele>481.8</ele>
        <time>2018-02-25T10:34:51.000Z</time>
      </trkpt>
      <trkpt lat="43.55292" lon="3.00671">
        <ele>481.8</ele>
        <time>2018-02-25T10:34:53.000Z</time>
      </trkpt>
      <trkpt lat="43.55291" lon="3.00675">
        <ele>481.9</ele>
        <time>2018-02-25T10:34:55.000Z</time>
      </trkpt>
      <trkpt lat="43.55289" lon="3.00679">
        <ele>481.8</ele>
        <time>2018-02-25T10:34:58.000Z</time>
      </trkpt>
      <trkpt lat="43.55287" lon="3.00683">
        <ele>481.6</ele>
        <time>2018-02-25T10:35:00.000Z</time>
      </trkpt>
      <trkpt lat="43.55285" lon="3.00686">
        <ele>481.5</ele>
        <time>2018-02-25T10:35:06.000Z</time>
      </trkpt>
      <trkpt lat="43.55283" lon="3.0069">
        <ele>481.4</ele>
        <time>2018-02-25T10:35:10.000Z</time>
      </trkpt>
      <trkpt lat="43.55282" lon="3.00695">
        <ele>481.1</ele>
        <time>2018-02-25T10:35:20.000Z</time>
      </trkpt>
      <trkpt lat="43.55281" lon="3.00698">
        <ele>480.8</ele>
        <time>2018-02-25T10:35:22.000Z</time>
      </trkpt>
      <trkpt lat="43.55279" lon="3.00701">
        <ele>480.4</ele>
        <time>2018-02-25T10:35:26.000Z</time>
      </trkpt>
      <trkpt lat="43.5528" lon="3.00705">
        <ele>480</ele>
        <time>2018-02-25T10:35:28.000Z</time>
      </trkpt>
      <trkpt lat="43.55281" lon="3.0071">
        <ele>479.6</ele>
        <time>2018-02-25T10:35:30.000Z</time>
      </trkpt>
      <trkpt lat="43.5528" lon="3.00715">
        <ele>479.4</ele>
        <time>2018-02-25T10:35:32.000Z</time>
      </trkpt>
      <trkpt lat="43.55279" lon="3.00719">
        <ele>479.3</ele>
        <time>2018-02-25T10:35:33.000Z</time>
      </trkpt>
      <trkpt lat="43.55278" lon="3.00724">
        <ele>479.1</ele>
        <time>2018-02-25T10:35:34.000Z</time>
      </trkpt>
      <trkpt lat="43.55277" lon="3.00729">
        <ele>479</ele>
        <time>2018-02-25T10:35:35.000Z</time>
      </trkpt>
      <trkpt lat="43.55275" lon="3.00734">
        <ele>479</ele>
        <time>2018-02-25T10:35:36.000Z</time>
      </trkpt>
      <trkpt lat="43.55274" lon="3.00738">
        <ele>479.1</ele>
        <time>2018-02-25T10:35:37.000Z</time>
      </trkpt>
      <trkpt lat="43.55274" lon="3.00742">
        <ele>479.3</ele>
        <time>2018-02-25T10:35:38.000Z</time>
      </trkpt>
      <trkpt lat="43.55274" lon="3.0075">
        <ele>479.6</ele>
        <time>2018-02-25T10:35:40.000Z</time>
      </trkpt>
      <trkpt lat="43.55274" lon="3.00755">
        <ele>479.8</ele>
        <time>2018-02-25T10:35:41.000Z</time>
      </trkpt>
      <trkpt lat="43.55274" lon="3.00759">
        <ele>480.1</ele>
        <time>2018-02-25T10:35:42.000Z</time>
      </trkpt>
      <trkpt lat="43.55273" lon="3.00763">
        <ele>480.4</ele>
        <time>2018-02-25T10:35:43.000Z</time>
      </trkpt>
      <trkpt lat="43.55272" lon="3.00768">
        <ele>480.8</ele>
        <time>2018-02-25T10:35:45.000Z</time>
      </trkpt>
      <trkpt lat="43.55271" lon="3.00773">
        <ele>481.1</ele>
        <time>2018-02-25T10:35:47.000Z</time>
      </trkpt>
      <trkpt lat="43.5527" lon="3.00777">
        <ele>481.3</ele>
        <time>2018-02-25T10:35:49.000Z</time>
      </trkpt>
      <trkpt lat="43.5527" lon="3.00782">
        <ele>481.7</ele>
        <time>2018-02-25T10:35:51.000Z</time>
      </trkpt>
      <trkpt lat="43.55271" lon="3.00786">
        <ele>482</ele>
        <time>2018-02-25T10:35:52.000Z</time>
      </trkpt>
      <trkpt lat="43.55271" lon="3.0079">
        <ele>482.4</ele>
        <time>2018-02-25T10:35:53.000Z</time>
      </trkpt>
      <trkpt lat="43.5527" lon="3.00797">
        <ele>483.2</ele>
        <time>2018-02-25T10:35:55.000Z</time>
      </trkpt>
      <trkpt lat="43.55271" lon="3.00804">
        <ele>484</ele>
        <time>2018-02-25T10:35:57.000Z</time>
      </trkpt>
      <trkpt lat="43.55272" lon="3.00808">
        <ele>483.9</ele>
        <time>2018-02-25T10:35:58.000Z</time>
      </trkpt>
      <trkpt lat="43.55273" lon="3.00811">
        <ele>483.8</ele>
        <time>2018-02-25T10:35:59.000Z</time>
      </trkpt>
      <trkpt lat="43.55273" lon="3.00818">
        <ele>484.1</ele>
        <time>2018-02-25T10:36:01.000Z</time>
      </trkpt>
      <trkpt lat="43.55272" lon="3.00825">
        <ele>484.4</ele>
        <time>2018-02-25T10:36:03.000Z</time>
      </trkpt>
      <trkpt lat="43.55271" lon="3.00831">
        <ele>484.6</ele>
        <time>2018-02-25T10:36:05.000Z</time>
      </trkpt>
      <trkpt lat="43.55271" lon="3.00835">
        <ele>484.7</ele>
        <time>2018-02-25T10:36:07.000Z</time>
      </trkpt>
      <trkpt lat="43.5527" lon="3.00839">
        <ele>484.8</ele>
        <time>2018-02-25T10:36:09.000Z</time>
      </trkpt>
      <trkpt lat="43.55269" lon="3.00845">
        <ele>485</ele>
        <time>2018-02-25T10:36:11.000Z</time>
      </trkpt>
      <trkpt lat="43.55268" lon="3.00852">
        <ele>485.3</ele>
        <time>2018-02-25T10:36:13.000Z</time>
      </trkpt>
      <trkpt lat="43.55267" lon="3.00858">
        <ele>485.8</ele>
        <time>2018-02-25T10:36:15.000Z</time>
      </trkpt>
      <trkpt lat="43.55265" lon="3.00865">
        <ele>486.4</ele>
        <time>2018-02-25T10:36:17.000Z</time>
      </trkpt>
      <trkpt lat="43.55264" lon="3.00871">
        <ele>486.9</ele>
        <time>2018-02-25T10:36:19.000Z</time>
      </trkpt>
      <trkpt lat="43.55263" lon="3.00878">
        <ele>487.5</ele>
        <time>2018-02-25T10:36:21.000Z</time>
      </trkpt>
      <trkpt lat="43.55261" lon="3.00884">
        <ele>488</ele>
        <time>2018-02-25T10:36:23.000Z</time>
      </trkpt>
      <trkpt lat="43.55262" lon="3.0089">
        <ele>488.6</ele>
        <time>2018-02-25T10:36:25.000Z</time>
      </trkpt>
      <trkpt lat="43.55263" lon="3.00896">
        <ele>489.3</ele>
        <time>2018-02-25T10:36:27.000Z</time>
      </trkpt>
      <trkpt lat="43.55263" lon="3.00902">
        <ele>489.9</ele>
        <time>2018-02-25T10:36:29.000Z</time>
      </trkpt>
      <trkpt lat="43.55262" lon="3.0091">
        <ele>490.3</ele>
        <time>2018-02-25T10:36:31.000Z</time>
      </trkpt>
      <trkpt lat="43.5526" lon="3.00917">
        <ele>490.7</ele>
        <time>2018-02-25T10:36:33.000Z</time>
      </trkpt>
      <trkpt lat="43.55259" lon="3.00921">
        <ele>490.9</ele>
        <time>2018-02-25T10:36:34.000Z</time>
      </trkpt>
      <trkpt lat="43.55258" lon="3.00925">
        <ele>491.1</ele>
        <time>2018-02-25T10:36:35.000Z</time>
      </trkpt>
      <trkpt lat="43.55255" lon="3.00932">
        <ele>491.5</ele>
        <time>2018-02-25T10:36:37.000Z</time>
      </trkpt>
      <trkpt lat="43.55252" lon="3.00938">
        <ele>492.2</ele>
        <time>2018-02-25T10:36:39.000Z</time>
      </trkpt>
      <trkpt lat="43.5525" lon="3.00943">
        <ele>492.8</ele>
        <time>2018-02-25T10:36:41.000Z</time>
      </trkpt>
      <trkpt lat="43.5525" lon="3.00948">
        <ele>493.3</ele>
        <time>2018-02-25T10:36:43.000Z</time>
      </trkpt>
      <trkpt lat="43.55249" lon="3.00952">
        <ele>493.6</ele>
        <time>2018-02-25T10:36:45.000Z</time>
      </trkpt>
      <trkpt lat="43.5525" lon="3.00956">
        <ele>494.1</ele>
        <time>2018-02-25T10:36:47.000Z</time>
      </trkpt>
      <trkpt lat="43.5525" lon="3.0096">
        <ele>494.7</ele>
        <time>2018-02-25T10:36:48.000Z</time>
      </trkpt>
      <trkpt lat="43.5525" lon="3.00967">
        <ele>495.4</ele>
        <time>2018-02-25T10:36:51.000Z</time>
      </trkpt>
      <trkpt lat="43.5525" lon="3.00971">
        <ele>495.9</ele>
        <time>2018-02-25T10:36:55.000Z</time>
      </trkpt>
      <trkpt lat="43.55254" lon="3.00968">
        <ele>497.6</ele>
        <time>2018-02-25T10:37:32.000Z</time>
      </trkpt>
      <trkpt lat="43.55257" lon="3.00965">
        <ele>497.8</ele>
        <time>2018-02-25T10:37:35.000Z</time>
      </trkpt>
      <trkpt lat="43.55258" lon="3.0096">
        <ele>498</ele>
        <time>2018-02-25T10:37:38.000Z</time>
      </trkpt>
      <trkpt lat="43.55259" lon="3.00956">
        <ele>498.1</ele>
        <time>2018-02-25T10:37:40.000Z</time>
      </trkpt>
      <trkpt lat="43.55261" lon="3.00953">
        <ele>498.3</ele>
        <time>2018-02-25T10:37:42.000Z</time>
      </trkpt>
      <trkpt lat="43.55263" lon="3.00948">
        <ele>498.4</ele>
        <time>2018-02-25T10:37:45.000Z</time>
      </trkpt>
      <trkpt lat="43.55264" lon="3.00944">
        <ele>498.6</ele>
        <time>2018-02-25T10:37:47.000Z</time>
      </trkpt>
      <trkpt lat="43.55265" lon="3.0094">
        <ele>498.7</ele>
        <time>2018-02-25T10:37:49.000Z</time>
      </trkpt>
      <trkpt lat="43.55267" lon="3.00936">
        <ele>498.8</ele>
        <time>2018-02-25T10:37:51.000Z</time>
      </trkpt>
      <trkpt lat="43.55268" lon="3.00933">
        <ele>499</ele>
        <time>2018-02-25T10:37:53.000Z</time>
      </trkpt>
      <trkpt lat="43.5527" lon="3.00929">
        <ele>499.1</ele>
        <time>2018-02-25T10:37:55.000Z</time>
      </trkpt>
      <trkpt lat="43.55271" lon="3.00926">
        <ele>499.2</ele>
        <time>2018-02-25T10:37:57.000Z</time>
      </trkpt>
      <trkpt lat="43.55273" lon="3.00922">
        <ele>499.3</ele>
        <time>2018-02-25T10:37:59.000Z</time>
      </trkpt>
      <trkpt lat="43.55275" lon="3.00919">
        <ele>499.4</ele>
        <time>2018-02-25T10:38:01.000Z</time>
      </trkpt>
      <trkpt lat="43.55277" lon="3.00916">
        <ele>499.5</ele>
        <time>2018-02-25T10:38:03.000Z</time>
      </trkpt>
      <trkpt lat="43.55279" lon="3.00913">
        <ele>499.6</ele>
        <time>2018-02-25T10:38:05.000Z</time>
      </trkpt>
      <trkpt lat="43.55282" lon="3.00909">
        <ele>499.7</ele>
        <time>2018-02-25T10:38:07.000Z</time>
      </trkpt>
      <trkpt lat="43.55283" lon="3.00904">
        <ele>499.8</ele>
        <time>2018-02-25T10:38:09.000Z</time>
      </trkpt>
      <trkpt lat="43.55285" lon="3.00899">
        <ele>499.9</ele>
        <time>2018-02-25T10:38:11.000Z</time>
      </trkpt>
      <trkpt lat="43.55286" lon="3.00894">
        <ele>500.1</ele>
        <time>2018-02-25T10:38:13.000Z</time>
      </trkpt>
      <trkpt lat="43.55287" lon="3.0089">
        <ele>500.2</ele>
        <time>2018-02-25T10:38:15.000Z</time>
      </trkpt>
      <trkpt lat="43.55288" lon="3.00886">
        <ele>500.4</ele>
        <time>2018-02-25T10:38:17.000Z</time>
      </trkpt>
      <trkpt lat="43.55289" lon="3.00882">
        <ele>500.5</ele>
        <time>2018-02-25T10:38:19.000Z</time>
      </trkpt>
      <trkpt lat="43.55289" lon="3.00878">
        <ele>500.7</ele>
        <time>2018-02-25T10:38:21.000Z</time>
      </trkpt>
      <trkpt lat="43.5529" lon="3.00875">
        <ele>500.9</ele>
        <time>2018-02-25T10:38:23.000Z</time>
      </trkpt>
      <trkpt lat="43.55291" lon="3.0087">
        <ele>501.1</ele>
        <time>2018-02-25T10:38:26.000Z</time>
      </trkpt>
      <trkpt lat="43.55292" lon="3.00866">
        <ele>501.3</ele>
        <time>2018-02-25T10:38:28.000Z</time>
      </trkpt>
      <trkpt lat="43.55293" lon="3.00862">
        <ele>501.5</ele>
        <time>2018-02-25T10:38:30.000Z</time>
      </trkpt>
      <trkpt lat="43.55294" lon="3.00856">
        <ele>501.7</ele>
        <time>2018-02-25T10:38:32.000Z</time>
      </trkpt>
      <trkpt lat="43.55295" lon="3.00852">
        <ele>501.9</ele>
        <time>2018-02-25T10:38:34.000Z</time>
      </trkpt>
      <trkpt lat="43.55297" lon="3.00848">
        <ele>502.2</ele>
        <time>2018-02-25T10:38:36.000Z</time>
      </trkpt>
      <trkpt lat="43.55299" lon="3.00843">
        <ele>502.4</ele>
        <time>2018-02-25T10:38:38.000Z</time>
      </trkpt>
      <trkpt lat="43.553" lon="3.00839">
        <ele>502.5</ele>
        <time>2018-02-25T10:38:40.000Z</time>
      </trkpt>
      <trkpt lat="43.55303" lon="3.00836">
        <ele>502.8</ele>
        <time>2018-02-25T10:38:42.000Z</time>
      </trkpt>
      <trkpt lat="43.55305" lon="3.00832">
        <ele>503</ele>
        <time>2018-02-25T10:38:44.000Z</time>
      </trkpt>
      <trkpt lat="43.55307" lon="3.00828">
        <ele>503.2</ele>
        <time>2018-02-25T10:38:46.000Z</time>
      </trkpt>
      <trkpt lat="43.55309" lon="3.00824">
        <ele>503.3</ele>
        <time>2018-02-25T10:38:48.000Z</time>
      </trkpt>
      <trkpt lat="43.55311" lon="3.00821">
        <ele>503.5</ele>
        <time>2018-02-25T10:38:50.000Z</time>
      </trkpt>
      <trkpt lat="43.55314" lon="3.00819">
        <ele>503.7</ele>
        <time>2018-02-25T10:38:52.000Z</time>
      </trkpt>
      <trkpt lat="43.55318" lon="3.00818">
        <ele>503.9</ele>
        <time>2018-02-25T10:38:54.000Z</time>
      </trkpt>
      <trkpt lat="43.55323" lon="3.00817">
        <ele>504.2</ele>
        <time>2018-02-25T10:38:56.000Z</time>
      </trkpt>
      <trkpt lat="43.55328" lon="3.00817">
        <ele>504.5</ele>
        <time>2018-02-25T10:38:58.000Z</time>
      </trkpt>
      <trkpt lat="43.55332" lon="3.00817">
        <ele>504.7</ele>
        <time>2018-02-25T10:39:00.000Z</time>
      </trkpt>
      <trkpt lat="43.55336" lon="3.00818">
        <ele>505</ele>
        <time>2018-02-25T10:39:02.000Z</time>
      </trkpt>
      <trkpt lat="43.55339" lon="3.00817">
        <ele>505.2</ele>
        <time>2018-02-25T10:39:05.000Z</time>
      </trkpt>
      <trkpt lat="43.55342" lon="3.00817">
        <ele>505.5</ele>
        <time>2018-02-25T10:39:07.000Z</time>
      </trkpt>
      <trkpt lat="43.55346" lon="3.00817">
        <ele>505.8</ele>
        <time>2018-02-25T10:39:09.000Z</time>
      </trkpt>
      <trkpt lat="43.55349" lon="3.00817">
        <ele>506.1</ele>
        <time>2018-02-25T10:39:11.000Z</time>
      </trkpt>
      <trkpt lat="43.55353" lon="3.00818">
        <ele>506.5</ele>
        <time>2018-02-25T10:39:14.000Z</time>
      </trkpt>
      <trkpt lat="43.55357" lon="3.00818">
        <ele>506.9</ele>
        <time>2018-02-25T10:39:16.000Z</time>
      </trkpt>
      <trkpt lat="43.5536" lon="3.00818">
        <ele>507.2</ele>
        <time>2018-02-25T10:39:18.000Z</time>
      </trkpt>
      <trkpt lat="43.55364" lon="3.00819">
        <ele>507.6</ele>
        <time>2018-02-25T10:39:21.000Z</time>
      </trkpt>
      <trkpt lat="43.55367" lon="3.0082">
        <ele>507.9</ele>
        <time>2018-02-25T10:39:23.000Z</time>
      </trkpt>
      <trkpt lat="43.5537" lon="3.00821">
        <ele>508.3</ele>
        <time>2018-02-25T10:39:26.000Z</time>
      </trkpt>
      <trkpt lat="43.55374" lon="3.00823">
        <ele>508.6</ele>
        <time>2018-02-25T10:39:28.000Z</time>
      </trkpt>
      <trkpt lat="43.55378" lon="3.00825">
        <ele>509</ele>
        <time>2018-02-25T10:39:30.000Z</time>
      </trkpt>
      <trkpt lat="43.55382" lon="3.00828">
        <ele>509.3</ele>
        <time>2018-02-25T10:39:32.000Z</time>
      </trkpt>
      <trkpt lat="43.55386" lon="3.0083">
        <ele>509.5</ele>
        <time>2018-02-25T10:39:34.000Z</time>
      </trkpt>
      <trkpt lat="43.55389" lon="3.00831">
        <ele>509.6</ele>
        <time>2018-02-25T10:39:36.000Z</time>
      </trkpt>
      <trkpt lat="43.55391" lon="3.00834">
        <ele>509.8</ele>
        <time>2018-02-25T10:39:38.000Z</time>
      </trkpt>
      <trkpt lat="43.55394" lon="3.00836">
        <ele>509.9</ele>
        <time>2018-02-25T10:39:41.000Z</time>
      </trkpt>
      <trkpt lat="43.55397" lon="3.00838">
        <ele>510</ele>
        <time>2018-02-25T10:39:43.000Z</time>
      </trkpt>
      <trkpt lat="43.55401" lon="3.00841">
        <ele>510.1</ele>
        <time>2018-02-25T10:39:45.000Z</time>
      </trkpt>
      <trkpt lat="43.55404" lon="3.00844">
        <ele>510.2</ele>
        <time>2018-02-25T10:39:47.000Z</time>
      </trkpt>
      <trkpt lat="43.55409" lon="3.00847">
        <ele>510.3</ele>
        <time>2018-02-25T10:39:49.000Z</time>
      </trkpt>
      <trkpt lat="43.55414" lon="3.0085">
        <ele>510.3</ele>
        <time>2018-02-25T10:39:51.000Z</time>
      </trkpt>
      <trkpt lat="43.55418" lon="3.00852">
        <ele>510.3</ele>
        <time>2018-02-25T10:39:53.000Z</time>
      </trkpt>
      <trkpt lat="43.55421" lon="3.00854">
        <ele>510.3</ele>
        <time>2018-02-25T10:39:55.000Z</time>
      </trkpt>
      <trkpt lat="43.55423" lon="3.00856">
        <ele>510.3</ele>
        <time>2018-02-25T10:39:57.000Z</time>
      </trkpt>
      <trkpt lat="43.55425" lon="3.00859">
        <ele>510.3</ele>
        <time>2018-02-25T10:39:59.000Z</time>
      </trkpt>
      <trkpt lat="43.55428" lon="3.00862">
        <ele>510.4</ele>
        <time>2018-02-25T10:40:01.000Z</time>
      </trkpt>
      <trkpt lat="43.55431" lon="3.00866">
        <ele>510.4</ele>
        <time>2018-02-25T10:40:03.000Z</time>
      </trkpt>
      <trkpt lat="43.55434" lon="3.0087">
        <ele>510.4</ele>
        <time>2018-02-25T10:40:05.000Z</time>
      </trkpt>
      <trkpt lat="43.55437" lon="3.00873">
        <ele>510.4</ele>
        <time>2018-02-25T10:40:07.000Z</time>
      </trkpt>
      <trkpt lat="43.55441" lon="3.00876">
        <ele>510.4</ele>
        <time>2018-02-25T10:40:09.000Z</time>
      </trkpt>
      <trkpt lat="43.55445" lon="3.00879">
        <ele>510.4</ele>
        <time>2018-02-25T10:40:11.000Z</time>
      </trkpt>
      <trkpt lat="43.55448" lon="3.00881">
        <ele>510.4</ele>
        <time>2018-02-25T10:40:13.000Z</time>
      </trkpt>
      <trkpt lat="43.55451" lon="3.00884">
        <ele>510.5</ele>
        <time>2018-02-25T10:40:15.000Z</time>
      </trkpt>
      <trkpt lat="43.55454" lon="3.00886">
        <ele>510.5</ele>
        <time>2018-02-25T10:40:17.000Z</time>
      </trkpt>
      <trkpt lat="43.55457" lon="3.00889">
        <ele>510.5</ele>
        <time>2018-02-25T10:40:19.000Z</time>
      </trkpt>
      <trkpt lat="43.55461" lon="3.00892">
        <ele>510.6</ele>
        <time>2018-02-25T10:40:21.000Z</time>
      </trkpt>
      <trkpt lat="43.55465" lon="3.00895">
        <ele>510.7</ele>
        <time>2018-02-25T10:40:23.000Z</time>
      </trkpt>
      <trkpt lat="43.55468" lon="3.00897">
        <ele>510.8</ele>
        <time>2018-02-25T10:40:25.000Z</time>
      </trkpt>
      <trkpt lat="43.55471" lon="3.00899">
        <ele>511</ele>
        <time>2018-02-25T10:40:27.000Z</time>
      </trkpt>
      <trkpt lat="43.55473" lon="3.009">
        <ele>511.1</ele>
        <time>2018-02-25T10:40:29.000Z</time>
      </trkpt>
      <trkpt lat="43.55476" lon="3.00902">
        <ele>511.2</ele>
        <time>2018-02-25T10:40:32.000Z</time>
      </trkpt>
      <trkpt lat="43.55479" lon="3.00902">
        <ele>511.4</ele>
        <time>2018-02-25T10:40:34.000Z</time>
      </trkpt>
      <trkpt lat="43.55482" lon="3.00903">
        <ele>511.6</ele>
        <time>2018-02-25T10:40:36.000Z</time>
      </trkpt>
      <trkpt lat="43.55485" lon="3.00905">
        <ele>511.8</ele>
        <time>2018-02-25T10:40:38.000Z</time>
      </trkpt>
      <trkpt lat="43.55489" lon="3.00905">
        <ele>511.9</ele>
        <time>2018-02-25T10:40:40.000Z</time>
      </trkpt>
      <trkpt lat="43.55493" lon="3.00905">
        <ele>512.1</ele>
        <time>2018-02-25T10:40:42.000Z</time>
      </trkpt>
      <trkpt lat="43.55496" lon="3.00904">
        <ele>512.2</ele>
        <time>2018-02-25T10:40:44.000Z</time>
      </trkpt>
      <trkpt lat="43.55498" lon="3.009">
        <ele>512.6</ele>
        <time>2018-02-25T10:40:47.000Z</time>
      </trkpt>
      <trkpt lat="43.55497" lon="3.00894">
        <ele>513</ele>
        <time>2018-02-25T10:40:50.000Z</time>
      </trkpt>
      <trkpt lat="43.55494" lon="3.00891">
        <ele>513.3</ele>
        <time>2018-02-25T10:40:52.000Z</time>
      </trkpt>
      <trkpt lat="43.55491" lon="3.00887">
        <ele>513.6</ele>
        <time>2018-02-25T10:40:55.000Z</time>
      </trkpt>
      <trkpt lat="43.55488" lon="3.00883">
        <ele>513.8</ele>
        <time>2018-02-25T10:40:57.000Z</time>
      </trkpt>
      <trkpt lat="43.55486" lon="3.00879">
        <ele>514.1</ele>
        <time>2018-02-25T10:40:59.000Z</time>
      </trkpt>
      <trkpt lat="43.55483" lon="3.00875">
        <ele>514.3</ele>
        <time>2018-02-25T10:41:01.000Z</time>
      </trkpt>
      <trkpt lat="43.5548" lon="3.00872">
        <ele>514.5</ele>
        <time>2018-02-25T10:41:03.000Z</time>
      </trkpt>
      <trkpt lat="43.55478" lon="3.00867">
        <ele>514.7</ele>
        <time>2018-02-25T10:41:05.000Z</time>
      </trkpt>
      <trkpt lat="43.55476" lon="3.00862">
        <ele>514.9</ele>
        <time>2018-02-25T10:41:07.000Z</time>
      </trkpt>
      <trkpt lat="43.55474" lon="3.00858">
        <ele>515.1</ele>
        <time>2018-02-25T10:41:09.000Z</time>
      </trkpt>
      <trkpt lat="43.55472" lon="3.00853">
        <ele>515.3</ele>
        <time>2018-02-25T10:41:12.000Z</time>
      </trkpt>
      <trkpt lat="43.55469" lon="3.00848">
        <ele>515.5</ele>
        <time>2018-02-25T10:41:14.000Z</time>
      </trkpt>
      <trkpt lat="43.55466" lon="3.00844">
        <ele>515.7</ele>
        <time>2018-02-25T10:41:16.000Z</time>
      </trkpt>
      <trkpt lat="43.55464" lon="3.0084">
        <ele>515.9</ele>
        <time>2018-02-25T10:41:18.000Z</time>
      </trkpt>
      <trkpt lat="43.55461" lon="3.00835">
        <ele>516.1</ele>
        <time>2018-02-25T10:41:20.000Z</time>
      </trkpt>
      <trkpt lat="43.5546" lon="3.0083">
        <ele>516.2</ele>
        <time>2018-02-25T10:41:22.000Z</time>
      </trkpt>
      <trkpt lat="43.5546" lon="3.00825">
        <ele>516.3</ele>
        <time>2018-02-25T10:41:25.000Z</time>
      </trkpt>
      <trkpt lat="43.55459" lon="3.0082">
        <ele>516.5</ele>
        <time>2018-02-25T10:41:27.000Z</time>
      </trkpt>
      <trkpt lat="43.55458" lon="3.00815">
        <ele>516.6</ele>
        <time>2018-02-25T10:41:29.000Z</time>
      </trkpt>
      <trkpt lat="43.55457" lon="3.00811">
        <ele>516.7</ele>
        <time>2018-02-25T10:41:31.000Z</time>
      </trkpt>
      <trkpt lat="43.55456" lon="3.00807">
        <ele>516.8</ele>
        <time>2018-02-25T10:41:33.000Z</time>
      </trkpt>
      <trkpt lat="43.55454" lon="3.00802">
        <ele>516.9</ele>
        <time>2018-02-25T10:41:35.000Z</time>
      </trkpt>
      <trkpt lat="43.55453" lon="3.00796">
        <ele>517.1</ele>
        <time>2018-02-25T10:41:37.000Z</time>
      </trkpt>
      <trkpt lat="43.55451" lon="3.00791">
        <ele>517.2</ele>
        <time>2018-02-25T10:41:39.000Z</time>
      </trkpt>
      <trkpt lat="43.5545" lon="3.00788">
        <ele>517.3</ele>
        <time>2018-02-25T10:41:41.000Z</time>
      </trkpt>
      <trkpt lat="43.55446" lon="3.00784">
        <ele>517.5</ele>
        <time>2018-02-25T10:41:43.000Z</time>
      </trkpt>
      <trkpt lat="43.55443" lon="3.00781">
        <ele>517.7</ele>
        <time>2018-02-25T10:41:45.000Z</time>
      </trkpt>
      <trkpt lat="43.55442" lon="3.00778">
        <ele>517.8</ele>
        <time>2018-02-25T10:41:47.000Z</time>
      </trkpt>
      <trkpt lat="43.55439" lon="3.00775">
        <ele>518</ele>
        <time>2018-02-25T10:41:49.000Z</time>
      </trkpt>
      <trkpt lat="43.55437" lon="3.00771">
        <ele>518.2</ele>
        <time>2018-02-25T10:41:51.000Z</time>
      </trkpt>
      <trkpt lat="43.55434" lon="3.00767">
        <ele>518.3</ele>
        <time>2018-02-25T10:41:53.000Z</time>
      </trkpt>
      <trkpt lat="43.55432" lon="3.00764">
        <ele>518.5</ele>
        <time>2018-02-25T10:41:55.000Z</time>
      </trkpt>
      <trkpt lat="43.5543" lon="3.00757">
        <ele>518.7</ele>
        <time>2018-02-25T10:41:57.000Z</time>
      </trkpt>
      <trkpt lat="43.55429" lon="3.00752">
        <ele>518.9</ele>
        <time>2018-02-25T10:41:59.000Z</time>
      </trkpt>
      <trkpt lat="43.55429" lon="3.00748">
        <ele>519</ele>
        <time>2018-02-25T10:42:00.000Z</time>
      </trkpt>
      <trkpt lat="43.55428" lon="3.00742">
        <ele>519.2</ele>
        <time>2018-02-25T10:42:02.000Z</time>
      </trkpt>
      <trkpt lat="43.55428" lon="3.00737">
        <ele>519.3</ele>
        <time>2018-02-25T10:42:04.000Z</time>
      </trkpt>
      <trkpt lat="43.55427" lon="3.00734">
        <ele>519.4</ele>
        <time>2018-02-25T10:42:06.000Z</time>
      </trkpt>
      <trkpt lat="43.55427" lon="3.00727">
        <ele>519.6</ele>
        <time>2018-02-25T10:42:10.000Z</time>
      </trkpt>
      <trkpt lat="43.55426" lon="3.00722">
        <ele>519.8</ele>
        <time>2018-02-25T10:42:12.000Z</time>
      </trkpt>
      <trkpt lat="43.55423" lon="3.00717">
        <ele>519.9</ele>
        <time>2018-02-25T10:42:14.000Z</time>
      </trkpt>
      <trkpt lat="43.55421" lon="3.00714">
        <ele>520.1</ele>
        <time>2018-02-25T10:42:17.000Z</time>
      </trkpt>
      <trkpt lat="43.55418" lon="3.0071">
        <ele>520.2</ele>
        <time>2018-02-25T10:42:20.000Z</time>
      </trkpt>
      <trkpt lat="43.55416" lon="3.00707">
        <ele>520.3</ele>
        <time>2018-02-25T10:42:22.000Z</time>
      </trkpt>
      <trkpt lat="43.55413" lon="3.00703">
        <ele>520.5</ele>
        <time>2018-02-25T10:42:24.000Z</time>
      </trkpt>
      <trkpt lat="43.55411" lon="3.00699">
        <ele>520.6</ele>
        <time>2018-02-25T10:42:26.000Z</time>
      </trkpt>
      <trkpt lat="43.5541" lon="3.00693">
        <ele>520.8</ele>
        <time>2018-02-25T10:42:29.000Z</time>
      </trkpt>
      <trkpt lat="43.5541" lon="3.00689">
        <ele>520.9</ele>
        <time>2018-02-25T10:42:31.000Z</time>
      </trkpt>
      <trkpt lat="43.55412" lon="3.00685">
        <ele>520.9</ele>
        <time>2018-02-25T10:42:33.000Z</time>
      </trkpt>
      <trkpt lat="43.55412" lon="3.0068">
        <ele>521</ele>
        <time>2018-02-25T10:42:35.000Z</time>
      </trkpt>
      <trkpt lat="43.55414" lon="3.00676">
        <ele>521</ele>
        <time>2018-02-25T10:42:37.000Z</time>
      </trkpt>
      <trkpt lat="43.55415" lon="3.00672">
        <ele>521</ele>
        <time>2018-02-25T10:42:39.000Z</time>
      </trkpt>
      <trkpt lat="43.55417" lon="3.00669">
        <ele>521</ele>
        <time>2018-02-25T10:42:41.000Z</time>
      </trkpt>
      <trkpt lat="43.55419" lon="3.00666">
        <ele>520.9</ele>
        <time>2018-02-25T10:42:43.000Z</time>
      </trkpt>
      <trkpt lat="43.55421" lon="3.00661">
        <ele>520.5</ele>
        <time>2018-02-25T10:42:46.000Z</time>
      </trkpt>
      <trkpt lat="43.55422" lon="3.00657">
        <ele>521</ele>
        <time>2018-02-25T10:42:48.000Z</time>
      </trkpt>
      <trkpt lat="43.55424" lon="3.00653">
        <ele>521.4</ele>
        <time>2018-02-25T10:42:50.000Z</time>
      </trkpt>
      <trkpt lat="43.55424" lon="3.00649">
        <ele>521.8</ele>
        <time>2018-02-25T10:42:52.000Z</time>
      </trkpt>
      <trkpt lat="43.55426" lon="3.00646">
        <ele>522.1</ele>
        <time>2018-02-25T10:42:54.000Z</time>
      </trkpt>
      <trkpt lat="43.55428" lon="3.00642">
        <ele>522.4</ele>
        <time>2018-02-25T10:42:56.000Z</time>
      </trkpt>
      <trkpt lat="43.55429" lon="3.00638">
        <ele>522.7</ele>
        <time>2018-02-25T10:42:58.000Z</time>
      </trkpt>
      <trkpt lat="43.55431" lon="3.00634">
        <ele>522.9</ele>
        <time>2018-02-25T10:43:00.000Z</time>
      </trkpt>
      <trkpt lat="43.55431" lon="3.00629">
        <ele>523.2</ele>
        <time>2018-02-25T10:43:02.000Z</time>
      </trkpt>
      <trkpt lat="43.55432" lon="3.00624">
        <ele>523.4</ele>
        <time>2018-02-25T10:43:04.000Z</time>
      </trkpt>
      <trkpt lat="43.55433" lon="3.0062">
        <ele>523.6</ele>
        <time>2018-02-25T10:43:06.000Z</time>
      </trkpt>
      <trkpt lat="43.55433" lon="3.00616">
        <ele>523.8</ele>
        <time>2018-02-25T10:43:08.000Z</time>
      </trkpt>
      <trkpt lat="43.55435" lon="3.0061">
        <ele>524</ele>
        <time>2018-02-25T10:43:10.000Z</time>
      </trkpt>
      <trkpt lat="43.55437" lon="3.00605">
        <ele>524.2</ele>
        <time>2018-02-25T10:43:12.000Z</time>
      </trkpt>
      <trkpt lat="43.55439" lon="3.006">
        <ele>524.4</ele>
        <time>2018-02-25T10:43:14.000Z</time>
      </trkpt>
      <trkpt lat="43.5544" lon="3.00594">
        <ele>524.6</ele>
        <time>2018-02-25T10:43:16.000Z</time>
      </trkpt>
      <trkpt lat="43.55441" lon="3.00589">
        <ele>524.8</ele>
        <time>2018-02-25T10:43:18.000Z</time>
      </trkpt>
      <trkpt lat="43.55441" lon="3.00584">
        <ele>524.9</ele>
        <time>2018-02-25T10:43:20.000Z</time>
      </trkpt>
      <trkpt lat="43.55441" lon="3.0058">
        <ele>525.1</ele>
        <time>2018-02-25T10:43:22.000Z</time>
      </trkpt>
      <trkpt lat="43.55442" lon="3.00575">
        <ele>525.2</ele>
        <time>2018-02-25T10:43:24.000Z</time>
      </trkpt>
      <trkpt lat="43.55441" lon="3.0057">
        <ele>525.4</ele>
        <time>2018-02-25T10:43:26.000Z</time>
      </trkpt>
      <trkpt lat="43.5544" lon="3.00565">
        <ele>525.5</ele>
        <time>2018-02-25T10:43:28.000Z</time>
      </trkpt>
      <trkpt lat="43.55441" lon="3.0056">
        <ele>525.6</ele>
        <time>2018-02-25T10:43:30.000Z</time>
      </trkpt>
      <trkpt lat="43.55441" lon="3.00555">
        <ele>525.8</ele>
        <time>2018-02-25T10:43:32.000Z</time>
      </trkpt>
      <trkpt lat="43.55441" lon="3.00549">
        <ele>525.9</ele>
        <time>2018-02-25T10:43:34.000Z</time>
      </trkpt>
      <trkpt lat="43.55442" lon="3.00544">
        <ele>526</ele>
        <time>2018-02-25T10:43:36.000Z</time>
      </trkpt>
      <trkpt lat="43.55443" lon="3.0054">
        <ele>526.1</ele>
        <time>2018-02-25T10:43:38.000Z</time>
      </trkpt>
      <trkpt lat="43.55444" lon="3.00536">
        <ele>526.1</ele>
        <time>2018-02-25T10:43:40.000Z</time>
      </trkpt>
      <trkpt lat="43.55444" lon="3.00532">
        <ele>526.2</ele>
        <time>2018-02-25T10:43:42.000Z</time>
      </trkpt>
      <trkpt lat="43.55445" lon="3.00527">
        <ele>526.3</ele>
        <time>2018-02-25T10:43:45.000Z</time>
      </trkpt>
      <trkpt lat="43.55446" lon="3.00523">
        <ele>526.4</ele>
        <time>2018-02-25T10:43:47.000Z</time>
      </trkpt>
      <trkpt lat="43.55447" lon="3.00519">
        <ele>526.5</ele>
        <time>2018-02-25T10:43:49.000Z</time>
      </trkpt>
      <trkpt lat="43.55448" lon="3.00514">
        <ele>526.6</ele>
        <time>2018-02-25T10:43:51.000Z</time>
      </trkpt>
      <trkpt lat="43.5545" lon="3.00508">
        <ele>526.8</ele>
        <time>2018-02-25T10:43:53.000Z</time>
      </trkpt>
      <trkpt lat="43.55449" lon="3.00503">
        <ele>526.9</ele>
        <time>2018-02-25T10:43:56.000Z</time>
      </trkpt>
      <trkpt lat="43.55448" lon="3.00498">
        <ele>527</ele>
        <time>2018-02-25T10:43:58.000Z</time>
      </trkpt>
      <trkpt lat="43.55446" lon="3.00493">
        <ele>527.2</ele>
        <time>2018-02-25T10:44:00.000Z</time>
      </trkpt>
      <trkpt lat="43.55447" lon="3.00488">
        <ele>527.3</ele>
        <time>2018-02-25T10:44:02.000Z</time>
      </trkpt>
      <trkpt lat="43.55447" lon="3.00484">
        <ele>527.4</ele>
        <time>2018-02-25T10:44:04.000Z</time>
      </trkpt>
      <trkpt lat="43.55449" lon="3.00479">
        <ele>527.5</ele>
        <time>2018-02-25T10:44:06.000Z</time>
      </trkpt>
      <trkpt lat="43.5545" lon="3.00475">
        <ele>527.6</ele>
        <time>2018-02-25T10:44:08.000Z</time>
      </trkpt>
      <trkpt lat="43.55451" lon="3.0047">
        <ele>527.6</ele>
        <time>2018-02-25T10:44:10.000Z</time>
      </trkpt>
      <trkpt lat="43.55451" lon="3.00465">
        <ele>527.7</ele>
        <time>2018-02-25T10:44:12.000Z</time>
      </trkpt>
      <trkpt lat="43.5545" lon="3.00461">
        <ele>527.7</ele>
        <time>2018-02-25T10:44:14.000Z</time>
      </trkpt>
      <trkpt lat="43.5545" lon="3.00456">
        <ele>527.7</ele>
        <time>2018-02-25T10:44:16.000Z</time>
      </trkpt>
      <trkpt lat="43.5545" lon="3.00452">
        <ele>527.8</ele>
        <time>2018-02-25T10:44:18.000Z</time>
      </trkpt>
      <trkpt lat="43.5545" lon="3.00448">
        <ele>527.8</ele>
        <time>2018-02-25T10:44:20.000Z</time>
      </trkpt>
      <trkpt lat="43.55449" lon="3.00443">
        <ele>527.8</ele>
        <time>2018-02-25T10:44:22.000Z</time>
      </trkpt>
      <trkpt lat="43.55448" lon="3.00438">
        <ele>527.9</ele>
        <time>2018-02-25T10:44:24.000Z</time>
      </trkpt>
      <trkpt lat="43.55447" lon="3.00434">
        <ele>527.9</ele>
        <time>2018-02-25T10:44:26.000Z</time>
      </trkpt>
      <trkpt lat="43.55446" lon="3.0043">
        <ele>527.9</ele>
        <time>2018-02-25T10:44:28.000Z</time>
      </trkpt>
      <trkpt lat="43.55444" lon="3.00425">
        <ele>527.9</ele>
        <time>2018-02-25T10:44:30.000Z</time>
      </trkpt>
      <trkpt lat="43.55443" lon="3.0042">
        <ele>527.9</ele>
        <time>2018-02-25T10:44:32.000Z</time>
      </trkpt>
      <trkpt lat="43.55442" lon="3.00416">
        <ele>527.9</ele>
        <time>2018-02-25T10:44:34.000Z</time>
      </trkpt>
      <trkpt lat="43.5544" lon="3.00412">
        <ele>527.9</ele>
        <time>2018-02-25T10:44:36.000Z</time>
      </trkpt>
      <trkpt lat="43.55438" lon="3.00408">
        <ele>527.9</ele>
        <time>2018-02-25T10:44:38.000Z</time>
      </trkpt>
      <trkpt lat="43.55436" lon="3.00404">
        <ele>527.9</ele>
        <time>2018-02-25T10:44:40.000Z</time>
      </trkpt>
      <trkpt lat="43.55434" lon="3.004">
        <ele>527.8</ele>
        <time>2018-02-25T10:44:43.000Z</time>
      </trkpt>
      <trkpt lat="43.55432" lon="3.00397">
        <ele>527.8</ele>
        <time>2018-02-25T10:44:45.000Z</time>
      </trkpt>
      <trkpt lat="43.5543" lon="3.00393">
        <ele>527.8</ele>
        <time>2018-02-25T10:44:47.000Z</time>
      </trkpt>
      <trkpt lat="43.55428" lon="3.0039">
        <ele>528.9</ele>
        <time>2018-02-25T10:44:49.000Z</time>
      </trkpt>
      <trkpt lat="43.55426" lon="3.00385">
        <ele>529.2</ele>
        <time>2018-02-25T10:44:52.000Z</time>
      </trkpt>
      <trkpt lat="43.55424" lon="3.00381">
        <ele>529.4</ele>
        <time>2018-02-25T10:44:54.000Z</time>
      </trkpt>
      <trkpt lat="43.55422" lon="3.00376">
        <ele>529.6</ele>
        <time>2018-02-25T10:44:56.000Z</time>
      </trkpt>
      <trkpt lat="43.55421" lon="3.00371">
        <ele>529.8</ele>
        <time>2018-02-25T10:44:58.000Z</time>
      </trkpt>
      <trkpt lat="43.55419" lon="3.00366">
        <ele>530</ele>
        <time>2018-02-25T10:45:00.000Z</time>
      </trkpt>
      <trkpt lat="43.55418" lon="3.00361">
        <ele>530.2</ele>
        <time>2018-02-25T10:45:02.000Z</time>
      </trkpt>
      <trkpt lat="43.55416" lon="3.00357">
        <ele>530.4</ele>
        <time>2018-02-25T10:45:04.000Z</time>
      </trkpt>
      <trkpt lat="43.55417" lon="3.00352">
        <ele>530.5</ele>
        <time>2018-02-25T10:45:06.000Z</time>
      </trkpt>
      <trkpt lat="43.55417" lon="3.00347">
        <ele>530.6</ele>
        <time>2018-02-25T10:45:08.000Z</time>
      </trkpt>
      <trkpt lat="43.55418" lon="3.00341">
        <ele>530.7</ele>
        <time>2018-02-25T10:45:10.000Z</time>
      </trkpt>
      <trkpt lat="43.55419" lon="3.00336">
        <ele>530.7</ele>
        <time>2018-02-25T10:45:12.000Z</time>
      </trkpt>
      <trkpt lat="43.5542" lon="3.00331">
        <ele>530.7</ele>
        <time>2018-02-25T10:45:14.000Z</time>
      </trkpt>
      <trkpt lat="43.55421" lon="3.00325">
        <ele>530.7</ele>
        <time>2018-02-25T10:45:16.000Z</time>
      </trkpt>
      <trkpt lat="43.55423" lon="3.0032">
        <ele>530.8</ele>
        <time>2018-02-25T10:45:18.000Z</time>
      </trkpt>
      <trkpt lat="43.55426" lon="3.00316">
        <ele>530.8</ele>
        <time>2018-02-25T10:45:20.000Z</time>
      </trkpt>
      <trkpt lat="43.5543" lon="3.00312">
        <ele>530.8</ele>
        <time>2018-02-25T10:45:22.000Z</time>
      </trkpt>
      <trkpt lat="43.55433" lon="3.00308">
        <ele>530.8</ele>
        <time>2018-02-25T10:45:24.000Z</time>
      </trkpt>
      <trkpt lat="43.55437" lon="3.00305">
        <ele>530.9</ele>
        <time>2018-02-25T10:45:26.000Z</time>
      </trkpt>
      <trkpt lat="43.55439" lon="3.00303">
        <ele>530.9</ele>
        <time>2018-02-25T10:45:28.000Z</time>
      </trkpt>
      <trkpt lat="43.55442" lon="3.00299">
        <ele>530.9</ele>
        <time>2018-02-25T10:45:30.000Z</time>
      </trkpt>
      <trkpt lat="43.55445" lon="3.00295">
        <ele>531</ele>
        <time>2018-02-25T10:45:32.000Z</time>
      </trkpt>
      <trkpt lat="43.55447" lon="3.00292">
        <ele>531</ele>
        <time>2018-02-25T10:45:34.000Z</time>
      </trkpt>
      <trkpt lat="43.5545" lon="3.00288">
        <ele>531</ele>
        <time>2018-02-25T10:45:36.000Z</time>
      </trkpt>
      <trkpt lat="43.55454" lon="3.00285">
        <ele>531.2</ele>
        <time>2018-02-25T10:45:38.000Z</time>
      </trkpt>
      <trkpt lat="43.55457" lon="3.00282">
        <ele>531.4</ele>
        <time>2018-02-25T10:45:40.000Z</time>
      </trkpt>
      <trkpt lat="43.55461" lon="3.00279">
        <ele>531.6</ele>
        <time>2018-02-25T10:45:42.000Z</time>
      </trkpt>
      <trkpt lat="43.55465" lon="3.00276">
        <ele>531.7</ele>
        <time>2018-02-25T10:45:44.000Z</time>
      </trkpt>
      <trkpt lat="43.55469" lon="3.00274">
        <ele>531.8</ele>
        <time>2018-02-25T10:45:46.000Z</time>
      </trkpt>
      <trkpt lat="43.55472" lon="3.00272">
        <ele>531.8</ele>
        <time>2018-02-25T10:45:47.000Z</time>
      </trkpt>
      <trkpt lat="43.55476" lon="3.00268">
        <ele>531.9</ele>
        <time>2018-02-25T10:45:49.000Z</time>
      </trkpt>
      <trkpt lat="43.5548" lon="3.00264">
        <ele>532</ele>
        <time>2018-02-25T10:45:51.000Z</time>
      </trkpt>
      <trkpt lat="43.55483" lon="3.00261">
        <ele>532</ele>
        <time>2018-02-25T10:45:53.000Z</time>
      </trkpt>
      <trkpt lat="43.55485" lon="3.00257">
        <ele>532.1</ele>
        <time>2018-02-25T10:45:55.000Z</time>
      </trkpt>
      <trkpt lat="43.55488" lon="3.00254">
        <ele>532.1</ele>
        <time>2018-02-25T10:45:57.000Z</time>
      </trkpt>
      <trkpt lat="43.5549" lon="3.00252">
        <ele>532.2</ele>
        <time>2018-02-25T10:45:59.000Z</time>
      </trkpt>
      <trkpt lat="43.55492" lon="3.00249">
        <ele>532.2</ele>
        <time>2018-02-25T10:46:01.000Z</time>
      </trkpt>
      <trkpt lat="43.55494" lon="3.00246">
        <ele>532.2</ele>
        <time>2018-02-25T10:46:03.000Z</time>
      </trkpt>
      <trkpt lat="43.55498" lon="3.00244">
        <ele>532.4</ele>
        <time>2018-02-25T10:46:05.000Z</time>
      </trkpt>
      <trkpt lat="43.55502" lon="3.00242">
        <ele>532.5</ele>
        <time>2018-02-25T10:46:07.000Z</time>
      </trkpt>
      <trkpt lat="43.55507" lon="3.0024">
        <ele>532.7</ele>
        <time>2018-02-25T10:46:09.000Z</time>
      </trkpt>
      <trkpt lat="43.5551" lon="3.0024">
        <ele>532.8</ele>
        <time>2018-02-25T10:46:10.000Z</time>
      </trkpt>
      <trkpt lat="43.55513" lon="3.00239">
        <ele>532.9</ele>
        <time>2018-02-25T10:46:11.000Z</time>
      </trkpt>
      <trkpt lat="43.55516" lon="3.00239">
        <ele>532.9</ele>
        <time>2018-02-25T10:46:12.000Z</time>
      </trkpt>
      <trkpt lat="43.55518" lon="3.00239">
        <ele>532.9</ele>
        <time>2018-02-25T10:46:13.000Z</time>
      </trkpt>
      <trkpt lat="43.55523" lon="3.00239">
        <ele>533</ele>
        <time>2018-02-25T10:46:15.000Z</time>
      </trkpt>
      <trkpt lat="43.55527" lon="3.00239">
        <ele>533</ele>
        <time>2018-02-25T10:46:17.000Z</time>
      </trkpt>
      <trkpt lat="43.55531" lon="3.00239">
        <ele>533.1</ele>
        <time>2018-02-25T10:46:19.000Z</time>
      </trkpt>
      <trkpt lat="43.55535" lon="3.0024">
        <ele>533.1</ele>
        <time>2018-02-25T10:46:21.000Z</time>
      </trkpt>
      <trkpt lat="43.5554" lon="3.0024">
        <ele>533.1</ele>
        <time>2018-02-25T10:46:23.000Z</time>
      </trkpt>
      <trkpt lat="43.55543" lon="3.0024">
        <ele>533.1</ele>
        <time>2018-02-25T10:46:24.000Z</time>
      </trkpt>
      <trkpt lat="43.55548" lon="3.0024">
        <ele>533.1</ele>
        <time>2018-02-25T10:46:26.000Z</time>
      </trkpt>
      <trkpt lat="43.55552" lon="3.0024">
        <ele>533.1</ele>
        <time>2018-02-25T10:46:28.000Z</time>
      </trkpt>
      <trkpt lat="43.55556" lon="3.00239">
        <ele>533.1</ele>
        <time>2018-02-25T10:46:30.000Z</time>
      </trkpt>
      <trkpt lat="43.5556" lon="3.0024">
        <ele>533.2</ele>
        <time>2018-02-25T10:46:32.000Z</time>
      </trkpt>
      <trkpt lat="43.55563" lon="3.00242">
        <ele>533.2</ele>
        <time>2018-02-25T10:46:34.000Z</time>
      </trkpt>
      <trkpt lat="43.55567" lon="3.00246">
        <ele>533.4</ele>
        <time>2018-02-25T10:46:36.000Z</time>
      </trkpt>
      <trkpt lat="43.55571" lon="3.00251">
        <ele>533.6</ele>
        <time>2018-02-25T10:46:38.000Z</time>
      </trkpt>
      <trkpt lat="43.55574" lon="3.00253">
        <ele>533.7</ele>
        <time>2018-02-25T10:46:39.000Z</time>
      </trkpt>
      <trkpt lat="43.55576" lon="3.00255">
        <ele>533.8</ele>
        <time>2018-02-25T10:46:40.000Z</time>
      </trkpt>
      <trkpt lat="43.55578" lon="3.00258">
        <ele>533.8</ele>
        <time>2018-02-25T10:46:41.000Z</time>
      </trkpt>
      <trkpt lat="43.55581" lon="3.00259">
        <ele>533.9</ele>
        <time>2018-02-25T10:46:42.000Z</time>
      </trkpt>
      <trkpt lat="43.55585" lon="3.00263">
        <ele>533.9</ele>
        <time>2018-02-25T10:46:44.000Z</time>
      </trkpt>
      <trkpt lat="43.55588" lon="3.00267">
        <ele>533.9</ele>
        <time>2018-02-25T10:46:46.000Z</time>
      </trkpt>
      <trkpt lat="43.55591" lon="3.00269">
        <ele>533.9</ele>
        <time>2018-02-25T10:46:48.000Z</time>
      </trkpt>
      <trkpt lat="43.55595" lon="3.00272">
        <ele>533.9</ele>
        <time>2018-02-25T10:46:50.000Z</time>
      </trkpt>
      <trkpt lat="43.55597" lon="3.00277">
        <ele>533.9</ele>
        <time>2018-02-25T10:46:52.000Z</time>
      </trkpt>
      <trkpt lat="43.55597" lon="3.00283">
        <ele>533.8</ele>
        <time>2018-02-25T10:46:54.000Z</time>
      </trkpt>
      <trkpt lat="43.55597" lon="3.00289">
        <ele>533.8</ele>
        <time>2018-02-25T10:46:56.000Z</time>
      </trkpt>
      <trkpt lat="43.55601" lon="3.00293">
        <ele>533.8</ele>
        <time>2018-02-25T10:46:58.000Z</time>
      </trkpt>
      <trkpt lat="43.55604" lon="3.00296">
        <ele>533.8</ele>
        <time>2018-02-25T10:47:00.000Z</time>
      </trkpt>
      <trkpt lat="43.55608" lon="3.003">
        <ele>533.7</ele>
        <time>2018-02-25T10:47:02.000Z</time>
      </trkpt>
      <trkpt lat="43.5561" lon="3.00303">
        <ele>533.7</ele>
        <time>2018-02-25T10:47:04.000Z</time>
      </trkpt>
      <trkpt lat="43.55612" lon="3.00307">
        <ele>533.7</ele>
        <time>2018-02-25T10:47:06.000Z</time>
      </trkpt>
      <trkpt lat="43.55614" lon="3.0031">
        <ele>533.7</ele>
        <time>2018-02-25T10:47:08.000Z</time>
      </trkpt>
      <trkpt lat="43.55619" lon="3.0031">
        <ele>533.7</ele>
        <time>2018-02-25T10:47:10.000Z</time>
      </trkpt>
      <trkpt lat="43.55624" lon="3.00309">
        <ele>533.7</ele>
        <time>2018-02-25T10:47:12.000Z</time>
      </trkpt>
      <trkpt lat="43.55626" lon="3.00308">
        <ele>533.6</ele>
        <time>2018-02-25T10:47:13.000Z</time>
      </trkpt>
      <trkpt lat="43.55629" lon="3.00307">
        <ele>533.6</ele>
        <time>2018-02-25T10:47:14.000Z</time>
      </trkpt>
      <trkpt lat="43.55634" lon="3.00306">
        <ele>533.7</ele>
        <time>2018-02-25T10:47:16.000Z</time>
      </trkpt>
      <trkpt lat="43.55639" lon="3.00305">
        <ele>533.7</ele>
        <time>2018-02-25T10:47:18.000Z</time>
      </trkpt>
      <trkpt lat="43.55643" lon="3.00304">
        <ele>533.7</ele>
        <time>2018-02-25T10:47:20.000Z</time>
      </trkpt>
      <trkpt lat="43.55648" lon="3.00304">
        <ele>533.7</ele>
        <time>2018-02-25T10:47:22.000Z</time>
      </trkpt>
      <trkpt lat="43.55652" lon="3.00304">
        <ele>533.8</ele>
        <time>2018-02-25T10:47:24.000Z</time>
      </trkpt>
      <trkpt lat="43.55656" lon="3.00306">
        <ele>533.9</ele>
        <time>2018-02-25T10:47:26.000Z</time>
      </trkpt>
      <trkpt lat="43.55659" lon="3.00308">
        <ele>534</ele>
        <time>2018-02-25T10:47:28.000Z</time>
      </trkpt>
      <trkpt lat="43.55664" lon="3.00312">
        <ele>534.2</ele>
        <time>2018-02-25T10:47:30.000Z</time>
      </trkpt>
      <trkpt lat="43.55667" lon="3.00316">
        <ele>534.3</ele>
        <time>2018-02-25T10:47:32.000Z</time>
      </trkpt>
      <trkpt lat="43.55669" lon="3.00318">
        <ele>534.3</ele>
        <time>2018-02-25T10:47:33.000Z</time>
      </trkpt>
      <trkpt lat="43.55671" lon="3.00321">
        <ele>534.4</ele>
        <time>2018-02-25T10:47:34.000Z</time>
      </trkpt>
      <trkpt lat="43.55674" lon="3.00324">
        <ele>534.4</ele>
        <time>2018-02-25T10:47:35.000Z</time>
      </trkpt>
      <trkpt lat="43.55678" lon="3.00329">
        <ele>534.4</ele>
        <time>2018-02-25T10:47:37.000Z</time>
      </trkpt>
      <trkpt lat="43.55681" lon="3.00331">
        <ele>534.4</ele>
        <time>2018-02-25T10:47:38.000Z</time>
      </trkpt>
      <trkpt lat="43.55683" lon="3.00333">
        <ele>534.4</ele>
        <time>2018-02-25T10:47:39.000Z</time>
      </trkpt>
      <trkpt lat="43.55688" lon="3.00337">
        <ele>534.4</ele>
        <time>2018-02-25T10:47:41.000Z</time>
      </trkpt>
      <trkpt lat="43.55692" lon="3.00341">
        <ele>534.4</ele>
        <time>2018-02-25T10:47:43.000Z</time>
      </trkpt>
      <trkpt lat="43.55695" lon="3.00343">
        <ele>534.4</ele>
        <time>2018-02-25T10:47:44.000Z</time>
      </trkpt>
      <trkpt lat="43.55698" lon="3.00345">
        <ele>534.4</ele>
        <time>2018-02-25T10:47:45.000Z</time>
      </trkpt>
      <trkpt lat="43.557" lon="3.00348">
        <ele>534.4</ele>
        <time>2018-02-25T10:47:46.000Z</time>
      </trkpt>
      <trkpt lat="43.55703" lon="3.00351">
        <ele>534.4</ele>
        <time>2018-02-25T10:47:47.000Z</time>
      </trkpt>
      <trkpt lat="43.55705" lon="3.00354">
        <ele>534.4</ele>
        <time>2018-02-25T10:47:48.000Z</time>
      </trkpt>
      <trkpt lat="43.55707" lon="3.00357">
        <ele>534.4</ele>
        <time>2018-02-25T10:47:49.000Z</time>
      </trkpt>
      <trkpt lat="43.5571" lon="3.00363">
        <ele>534.4</ele>
        <time>2018-02-25T10:47:51.000Z</time>
      </trkpt>
      <trkpt lat="43.55711" lon="3.00371">
        <ele>534.4</ele>
        <time>2018-02-25T10:47:53.000Z</time>
      </trkpt>
      <trkpt lat="43.55712" lon="3.00375">
        <ele>534.4</ele>
        <time>2018-02-25T10:47:54.000Z</time>
      </trkpt>
      <trkpt lat="43.55713" lon="3.0038">
        <ele>534.3</ele>
        <time>2018-02-25T10:47:55.000Z</time>
      </trkpt>
      <trkpt lat="43.55714" lon="3.00384">
        <ele>534.3</ele>
        <time>2018-02-25T10:47:56.000Z</time>
      </trkpt>
      <trkpt lat="43.55715" lon="3.00388">
        <ele>534.3</ele>
        <time>2018-02-25T10:47:57.000Z</time>
      </trkpt>
      <trkpt lat="43.55717" lon="3.00392">
        <ele>534.3</ele>
        <time>2018-02-25T10:47:58.000Z</time>
      </trkpt>
      <trkpt lat="43.55717" lon="3.00396">
        <ele>534.3</ele>
        <time>2018-02-25T10:47:59.000Z</time>
      </trkpt>
      <trkpt lat="43.55718" lon="3.004">
        <ele>534.2</ele>
        <time>2018-02-25T10:48:00.000Z</time>
      </trkpt>
      <trkpt lat="43.55719" lon="3.00404">
        <ele>534.2</ele>
        <time>2018-02-25T10:48:01.000Z</time>
      </trkpt>
      <trkpt lat="43.5572" lon="3.0041">
        <ele>534.2</ele>
        <time>2018-02-25T10:48:03.000Z</time>
      </trkpt>
      <trkpt lat="43.55723" lon="3.00415">
        <ele>534.2</ele>
        <time>2018-02-25T10:48:05.000Z</time>
      </trkpt>
      <trkpt lat="43.55725" lon="3.00418">
        <ele>534.1</ele>
        <time>2018-02-25T10:48:06.000Z</time>
      </trkpt>
      <trkpt lat="43.55728" lon="3.00423">
        <ele>534.1</ele>
        <time>2018-02-25T10:48:08.000Z</time>
      </trkpt>
      <trkpt lat="43.5573" lon="3.00427">
        <ele>534.1</ele>
        <time>2018-02-25T10:48:09.000Z</time>
      </trkpt>
      <trkpt lat="43.55731" lon="3.0043">
        <ele>534</ele>
        <time>2018-02-25T10:48:10.000Z</time>
      </trkpt>
      <trkpt lat="43.55732" lon="3.00434">
        <ele>534</ele>
        <time>2018-02-25T10:48:11.000Z</time>
      </trkpt>
      <trkpt lat="43.55733" lon="3.00439">
        <ele>534</ele>
        <time>2018-02-25T10:48:12.000Z</time>
      </trkpt>
      <trkpt lat="43.55734" lon="3.00442">
        <ele>534</ele>
        <time>2018-02-25T10:48:13.000Z</time>
      </trkpt>
      <trkpt lat="43.55736" lon="3.00445">
        <ele>533.9</ele>
        <time>2018-02-25T10:48:14.000Z</time>
      </trkpt>
      <trkpt lat="43.55739" lon="3.00447">
        <ele>533.9</ele>
        <time>2018-02-25T10:48:15.000Z</time>
      </trkpt>
      <trkpt lat="43.55744" lon="3.00446">
        <ele>533.8</ele>
        <time>2018-02-25T10:48:17.000Z</time>
      </trkpt>
      <trkpt lat="43.55746" lon="3.0044">
        <ele>533.7</ele>
        <time>2018-02-25T10:48:19.000Z</time>
      </trkpt>
      <trkpt lat="43.55747" lon="3.00433">
        <ele>533.6</ele>
        <time>2018-02-25T10:48:21.000Z</time>
      </trkpt>
      <trkpt lat="43.55747" lon="3.00427">
        <ele>533.5</ele>
        <time>2018-02-25T10:48:23.000Z</time>
      </trkpt>
      <trkpt lat="43.55747" lon="3.00423">
        <ele>533.5</ele>
        <time>2018-02-25T10:48:24.000Z</time>
      </trkpt>
      <trkpt lat="43.55748" lon="3.00419">
        <ele>533.4</ele>
        <time>2018-02-25T10:48:25.000Z</time>
      </trkpt>
      <trkpt lat="43.55749" lon="3.00415">
        <ele>533.4</ele>
        <time>2018-02-25T10:48:26.000Z</time>
      </trkpt>
      <trkpt lat="43.5575" lon="3.00411">
        <ele>533.4</ele>
        <time>2018-02-25T10:48:27.000Z</time>
      </trkpt>
      <trkpt lat="43.55752" lon="3.00406">
        <ele>533.3</ele>
        <time>2018-02-25T10:48:29.000Z</time>
      </trkpt>
      <trkpt lat="43.55754" lon="3.00401">
        <ele>533.3</ele>
        <time>2018-02-25T10:48:31.000Z</time>
      </trkpt>
      <trkpt lat="43.55756" lon="3.00396">
        <ele>533.2</ele>
        <time>2018-02-25T10:48:33.000Z</time>
      </trkpt>
      <trkpt lat="43.55757" lon="3.0039">
        <ele>533.2</ele>
        <time>2018-02-25T10:48:35.000Z</time>
      </trkpt>
      <trkpt lat="43.55758" lon="3.00386">
        <ele>533.2</ele>
        <time>2018-02-25T10:48:36.000Z</time>
      </trkpt>
      <trkpt lat="43.55758" lon="3.00381">
        <ele>533.2</ele>
        <time>2018-02-25T10:48:37.000Z</time>
      </trkpt>
      <trkpt lat="43.55758" lon="3.00377">
        <ele>533.1</ele>
        <time>2018-02-25T10:48:38.000Z</time>
      </trkpt>
      <trkpt lat="43.55758" lon="3.00372">
        <ele>533.1</ele>
        <time>2018-02-25T10:48:39.000Z</time>
      </trkpt>
      <trkpt lat="43.55758" lon="3.00367">
        <ele>533.1</ele>
        <time>2018-02-25T10:48:40.000Z</time>
      </trkpt>
      <trkpt lat="43.55757" lon="3.00362">
        <ele>533</ele>
        <time>2018-02-25T10:48:41.000Z</time>
      </trkpt>
      <trkpt lat="43.55756" lon="3.00358">
        <ele>533</ele>
        <time>2018-02-25T10:48:42.000Z</time>
      </trkpt>
      <trkpt lat="43.55756" lon="3.00354">
        <ele>533</ele>
        <time>2018-02-25T10:48:43.000Z</time>
      </trkpt>
      <trkpt lat="43.55755" lon="3.0035">
        <ele>533</ele>
        <time>2018-02-25T10:48:44.000Z</time>
      </trkpt>
      <trkpt lat="43.55754" lon="3.00346">
        <ele>532.9</ele>
        <time>2018-02-25T10:48:45.000Z</time>
      </trkpt>
      <trkpt lat="43.55753" lon="3.00343">
        <ele>532.9</ele>
        <time>2018-02-25T10:48:46.000Z</time>
      </trkpt>
      <trkpt lat="43.55751" lon="3.00339">
        <ele>532.9</ele>
        <time>2018-02-25T10:48:47.000Z</time>
      </trkpt>
      <trkpt lat="43.5575" lon="3.00334">
        <ele>532.9</ele>
        <time>2018-02-25T10:48:48.000Z</time>
      </trkpt>
      <trkpt lat="43.55749" lon="3.00329">
        <ele>532.9</ele>
        <time>2018-02-25T10:48:49.000Z</time>
      </trkpt>
      <trkpt lat="43.55748" lon="3.00325">
        <ele>532.8</ele>
        <time>2018-02-25T10:48:50.000Z</time>
      </trkpt>
      <trkpt lat="43.55747" lon="3.0032">
        <ele>532.8</ele>
        <time>2018-02-25T10:48:52.000Z</time>
      </trkpt>
      <trkpt lat="43.55746" lon="3.00315">
        <ele>532.8</ele>
        <time>2018-02-25T10:48:54.000Z</time>
      </trkpt>
      <trkpt lat="43.55744" lon="3.00309">
        <ele>532.8</ele>
        <time>2018-02-25T10:48:56.000Z</time>
      </trkpt>
      <trkpt lat="43.55742" lon="3.00302">
        <ele>532.7</ele>
        <time>2018-02-25T10:48:58.000Z</time>
      </trkpt>
      <trkpt lat="43.55741" lon="3.00298">
        <ele>532.7</ele>
        <time>2018-02-25T10:48:59.000Z</time>
      </trkpt>
      <trkpt lat="43.5574" lon="3.00294">
        <ele>532.7</ele>
        <time>2018-02-25T10:49:00.000Z</time>
      </trkpt>
      <trkpt lat="43.55738" lon="3.00288">
        <ele>532.7</ele>
        <time>2018-02-25T10:49:02.000Z</time>
      </trkpt>
      <trkpt lat="43.55734" lon="3.00282">
        <ele>532.6</ele>
        <time>2018-02-25T10:49:04.000Z</time>
      </trkpt>
      <trkpt lat="43.55732" lon="3.00279">
        <ele>532.6</ele>
        <time>2018-02-25T10:49:05.000Z</time>
      </trkpt>
      <trkpt lat="43.55729" lon="3.00276">
        <ele>532.6</ele>
        <time>2018-02-25T10:49:06.000Z</time>
      </trkpt>
      <trkpt lat="43.55727" lon="3.00272">
        <ele>532.6</ele>
        <time>2018-02-25T10:49:07.000Z</time>
      </trkpt>
      <trkpt lat="43.55725" lon="3.00268">
        <ele>532.5</ele>
        <time>2018-02-25T10:49:08.000Z</time>
      </trkpt>
      <trkpt lat="43.55723" lon="3.00263">
        <ele>532.5</ele>
        <time>2018-02-25T10:49:10.000Z</time>
      </trkpt>
      <trkpt lat="43.5572" lon="3.00258">
        <ele>532.5</ele>
        <time>2018-02-25T10:49:12.000Z</time>
      </trkpt>
      <trkpt lat="43.55719" lon="3.00254">
        <ele>532.5</ele>
        <time>2018-02-25T10:49:13.000Z</time>
      </trkpt>
      <trkpt lat="43.55718" lon="3.00248">
        <ele>532.5</ele>
        <time>2018-02-25T10:49:14.000Z</time>
      </trkpt>
      <trkpt lat="43.55716" lon="3.00244">
        <ele>532.5</ele>
        <time>2018-02-25T10:49:15.000Z</time>
      </trkpt>
      <trkpt lat="43.55715" lon="3.0024">
        <ele>532.4</ele>
        <time>2018-02-25T10:49:16.000Z</time>
      </trkpt>
      <trkpt lat="43.55713" lon="3.00235">
        <ele>532.4</ele>
        <time>2018-02-25T10:49:17.000Z</time>
      </trkpt>
      <trkpt lat="43.55711" lon="3.00231">
        <ele>532.4</ele>
        <time>2018-02-25T10:49:18.000Z</time>
      </trkpt>
      <trkpt lat="43.5571" lon="3.00226">
        <ele>532.4</ele>
        <time>2018-02-25T10:49:19.000Z</time>
      </trkpt>
      <trkpt lat="43.55709" lon="3.00221">
        <ele>532.4</ele>
        <time>2018-02-25T10:49:20.000Z</time>
      </trkpt>
      <trkpt lat="43.55707" lon="3.00216">
        <ele>532.5</ele>
        <time>2018-02-25T10:49:21.000Z</time>
      </trkpt>
      <trkpt lat="43.55705" lon="3.00211">
        <ele>532.5</ele>
        <time>2018-02-25T10:49:22.000Z</time>
      </trkpt>
      <trkpt lat="43.55704" lon="3.00207">
        <ele>532.7</ele>
        <time>2018-02-25T10:49:23.000Z</time>
      </trkpt>
      <trkpt lat="43.55702" lon="3.00203">
        <ele>532.8</ele>
        <time>2018-02-25T10:49:24.000Z</time>
      </trkpt>
      <trkpt lat="43.557" lon="3.00198">
        <ele>533</ele>
        <time>2018-02-25T10:49:26.000Z</time>
      </trkpt>
      <trkpt lat="43.55698" lon="3.00192">
        <ele>533.2</ele>
        <time>2018-02-25T10:49:28.000Z</time>
      </trkpt>
      <trkpt lat="43.55697" lon="3.00188">
        <ele>533.2</ele>
        <time>2018-02-25T10:49:29.000Z</time>
      </trkpt>
      <trkpt lat="43.55696" lon="3.00184">
        <ele>533.3</ele>
        <time>2018-02-25T10:49:30.000Z</time>
      </trkpt>
      <trkpt lat="43.55695" lon="3.00178">
        <ele>533.3</ele>
        <time>2018-02-25T10:49:31.000Z</time>
      </trkpt>
      <trkpt lat="43.55694" lon="3.00172">
        <ele>533.3</ele>
        <time>2018-02-25T10:49:32.000Z</time>
      </trkpt>
      <trkpt lat="43.55692" lon="3.00165">
        <ele>533.3</ele>
        <time>2018-02-25T10:49:33.000Z</time>
      </trkpt>
      <trkpt lat="43.5569" lon="3.00158">
        <ele>533.3</ele>
        <time>2018-02-25T10:49:34.000Z</time>
      </trkpt>
      <trkpt lat="43.55688" lon="3.00153">
        <ele>533.4</ele>
        <time>2018-02-25T10:49:35.000Z</time>
      </trkpt>
      <trkpt lat="43.55685" lon="3.00147">
        <ele>533.4</ele>
        <time>2018-02-25T10:49:36.000Z</time>
      </trkpt>
      <trkpt lat="43.55682" lon="3.00143">
        <ele>533.4</ele>
        <time>2018-02-25T10:49:37.000Z</time>
      </trkpt>
      <trkpt lat="43.55678" lon="3.00139">
        <ele>533.4</ele>
        <time>2018-02-25T10:49:38.000Z</time>
      </trkpt>
      <trkpt lat="43.55676" lon="3.00136">
        <ele>533.3</ele>
        <time>2018-02-25T10:49:39.000Z</time>
      </trkpt>
      <trkpt lat="43.55673" lon="3.00133">
        <ele>533.3</ele>
        <time>2018-02-25T10:49:40.000Z</time>
      </trkpt>
      <trkpt lat="43.5567" lon="3.00131">
        <ele>533.3</ele>
        <time>2018-02-25T10:49:41.000Z</time>
      </trkpt>
      <trkpt lat="43.55667" lon="3.00128">
        <ele>533.3</ele>
        <time>2018-02-25T10:49:42.000Z</time>
      </trkpt>
      <trkpt lat="43.55665" lon="3.00125">
        <ele>533.4</ele>
        <time>2018-02-25T10:49:43.000Z</time>
      </trkpt>
      <trkpt lat="43.55662" lon="3.00122">
        <ele>533.4</ele>
        <time>2018-02-25T10:49:44.000Z</time>
      </trkpt>
      <trkpt lat="43.5566" lon="3.00119">
        <ele>533.4</ele>
        <time>2018-02-25T10:49:45.000Z</time>
      </trkpt>
      <trkpt lat="43.55657" lon="3.00117">
        <ele>533.4</ele>
        <time>2018-02-25T10:49:46.000Z</time>
      </trkpt>
      <trkpt lat="43.55655" lon="3.00114">
        <ele>533.4</ele>
        <time>2018-02-25T10:49:47.000Z</time>
      </trkpt>
      <trkpt lat="43.55652" lon="3.00111">
        <ele>533.4</ele>
        <time>2018-02-25T10:49:48.000Z</time>
      </trkpt>
      <trkpt lat="43.5565" lon="3.00107">
        <ele>533.5</ele>
        <time>2018-02-25T10:49:49.000Z</time>
      </trkpt>
      <trkpt lat="43.55647" lon="3.00103">
        <ele>533.6</ele>
        <time>2018-02-25T10:49:50.000Z</time>
      </trkpt>
      <trkpt lat="43.55645" lon="3.00099">
        <ele>533.7</ele>
        <time>2018-02-25T10:49:51.000Z</time>
      </trkpt>
      <trkpt lat="43.55643" lon="3.00095">
        <ele>533.8</ele>
        <time>2018-02-25T10:49:52.000Z</time>
      </trkpt>
      <trkpt lat="43.5564" lon="3.0009">
        <ele>533.9</ele>
        <time>2018-02-25T10:49:53.000Z</time>
      </trkpt>
      <trkpt lat="43.55638" lon="3.00087">
        <ele>534</ele>
        <time>2018-02-25T10:49:54.000Z</time>
      </trkpt>
      <trkpt lat="43.55636" lon="3.00083">
        <ele>534</ele>
        <time>2018-02-25T10:49:55.000Z</time>
      </trkpt>
      <trkpt lat="43.55633" lon="3.00078">
        <ele>534.1</ele>
        <time>2018-02-25T10:49:56.000Z</time>
      </trkpt>
      <trkpt lat="43.55631" lon="3.00073">
        <ele>534.1</ele>
        <time>2018-02-25T10:49:57.000Z</time>
      </trkpt>
      <trkpt lat="43.5563" lon="3.00069">
        <ele>534.1</ele>
        <time>2018-02-25T10:49:58.000Z</time>
      </trkpt>
      <trkpt lat="43.55628" lon="3.00064">
        <ele>534.1</ele>
        <time>2018-02-25T10:49:59.000Z</time>
      </trkpt>
      <trkpt lat="43.55625" lon="3.00059">
        <ele>534.1</ele>
        <time>2018-02-25T10:50:00.000Z</time>
      </trkpt>
      <trkpt lat="43.55623" lon="3.00056">
        <ele>534.1</ele>
        <time>2018-02-25T10:50:01.000Z</time>
      </trkpt>
      <trkpt lat="43.5562" lon="3.00052">
        <ele>534.1</ele>
        <time>2018-02-25T10:50:02.000Z</time>
      </trkpt>
      <trkpt lat="43.55616" lon="3.00049">
        <ele>534.1</ele>
        <time>2018-02-25T10:50:03.000Z</time>
      </trkpt>
      <trkpt lat="43.55613" lon="3.00047">
        <ele>534.1</ele>
        <time>2018-02-25T10:50:04.000Z</time>
      </trkpt>
      <trkpt lat="43.55609" lon="3.00045">
        <ele>534.1</ele>
        <time>2018-02-25T10:50:05.000Z</time>
      </trkpt>
      <trkpt lat="43.55605" lon="3.00043">
        <ele>534</ele>
        <time>2018-02-25T10:50:06.000Z</time>
      </trkpt>
      <trkpt lat="43.55602" lon="3.00042">
        <ele>534</ele>
        <time>2018-02-25T10:50:07.000Z</time>
      </trkpt>
      <trkpt lat="43.55599" lon="3.00041">
        <ele>534</ele>
        <time>2018-02-25T10:50:08.000Z</time>
      </trkpt>
      <trkpt lat="43.55596" lon="3.0004">
        <ele>533.9</ele>
        <time>2018-02-25T10:50:09.000Z</time>
      </trkpt>
      <trkpt lat="43.55592" lon="3.0004">
        <ele>533.9</ele>
        <time>2018-02-25T10:50:10.000Z</time>
      </trkpt>
      <trkpt lat="43.55589" lon="3.0004">
        <ele>533.9</ele>
        <time>2018-02-25T10:50:11.000Z</time>
      </trkpt>
      <trkpt lat="43.55586" lon="3.0004">
        <ele>533.9</ele>
        <time>2018-02-25T10:50:12.000Z</time>
      </trkpt>
      <trkpt lat="43.55582" lon="3.00039">
        <ele>533.9</ele>
        <time>2018-02-25T10:50:13.000Z</time>
      </trkpt>
      <trkpt lat="43.55579" lon="3.00039">
        <ele>533.8</ele>
        <time>2018-02-25T10:50:14.000Z</time>
      </trkpt>
      <trkpt lat="43.55576" lon="3.00038">
        <ele>533.8</ele>
        <time>2018-02-25T10:50:15.000Z</time>
      </trkpt>
      <trkpt lat="43.55573" lon="3.00037">
        <ele>533.8</ele>
        <time>2018-02-25T10:50:16.000Z</time>
      </trkpt>
      <trkpt lat="43.5557" lon="3.00036">
        <ele>533.8</ele>
        <time>2018-02-25T10:50:17.000Z</time>
      </trkpt>
      <trkpt lat="43.55566" lon="3.00034">
        <ele>533.8</ele>
        <time>2018-02-25T10:50:18.000Z</time>
      </trkpt>
      <trkpt lat="43.55563" lon="3.00032">
        <ele>533.8</ele>
        <time>2018-02-25T10:50:19.000Z</time>
      </trkpt>
      <trkpt lat="43.5556" lon="3.0003">
        <ele>533.7</ele>
        <time>2018-02-25T10:50:20.000Z</time>
      </trkpt>
      <trkpt lat="43.55557" lon="3.00028">
        <ele>533.7</ele>
        <time>2018-02-25T10:50:21.000Z</time>
      </trkpt>
      <trkpt lat="43.55553" lon="3.00026">
        <ele>533.7</ele>
        <time>2018-02-25T10:50:22.000Z</time>
      </trkpt>
      <trkpt lat="43.55549" lon="3.00023">
        <ele>533.7</ele>
        <time>2018-02-25T10:50:23.000Z</time>
      </trkpt>
      <trkpt lat="43.55546" lon="3.0002">
        <ele>533.6</ele>
        <time>2018-02-25T10:50:24.000Z</time>
      </trkpt>
      <trkpt lat="43.55542" lon="3.00017">
        <ele>533.6</ele>
        <time>2018-02-25T10:50:25.000Z</time>
      </trkpt>
      <trkpt lat="43.55539" lon="3.00014">
        <ele>533.6</ele>
        <time>2018-02-25T10:50:26.000Z</time>
      </trkpt>
      <trkpt lat="43.55536" lon="3.00012">
        <ele>533.6</ele>
        <time>2018-02-25T10:50:27.000Z</time>
      </trkpt>
      <trkpt lat="43.55533" lon="3.0001">
        <ele>533.6</ele>
        <time>2018-02-25T10:50:28.000Z</time>
      </trkpt>
      <trkpt lat="43.5553" lon="3.00007">
        <ele>533.5</ele>
        <time>2018-02-25T10:50:29.000Z</time>
      </trkpt>
      <trkpt lat="43.55527" lon="3.00005">
        <ele>533.5</ele>
        <time>2018-02-25T10:50:30.000Z</time>
      </trkpt>
      <trkpt lat="43.55524" lon="3.00003">
        <ele>533.5</ele>
        <time>2018-02-25T10:50:31.000Z</time>
      </trkpt>
      <trkpt lat="43.5552" lon="3">
        <ele>533.4</ele>
        <time>2018-02-25T10:50:32.000Z</time>
      </trkpt>
      <trkpt lat="43.55517" lon="2.99998">
        <ele>533.4</ele>
        <time>2018-02-25T10:50:33.000Z</time>
      </trkpt>
      <trkpt lat="43.55514" lon="2.99996">
        <ele>533.4</ele>
        <time>2018-02-25T10:50:34.000Z</time>
      </trkpt>
      <trkpt lat="43.55511" lon="2.99994">
        <ele>533.3</ele>
        <time>2018-02-25T10:50:35.000Z</time>
      </trkpt>
      <trkpt lat="43.55507" lon="2.99992">
        <ele>533.3</ele>
        <time>2018-02-25T10:50:36.000Z</time>
      </trkpt>
      <trkpt lat="43.55505" lon="2.9999">
        <ele>533.3</ele>
        <time>2018-02-25T10:50:37.000Z</time>
      </trkpt>
      <trkpt lat="43.55502" lon="2.99989">
        <ele>533.3</ele>
        <time>2018-02-25T10:50:38.000Z</time>
      </trkpt>
      <trkpt lat="43.55499" lon="2.99985">
        <ele>533.2</ele>
        <time>2018-02-25T10:50:40.000Z</time>
      </trkpt>
      <trkpt lat="43.55497" lon="2.99982">
        <ele>533.2</ele>
        <time>2018-02-25T10:50:41.000Z</time>
      </trkpt>
      <trkpt lat="43.55495" lon="2.99979">
        <ele>533.1</ele>
        <time>2018-02-25T10:50:42.000Z</time>
      </trkpt>
      <trkpt lat="43.55493" lon="2.99973">
        <ele>533</ele>
        <time>2018-02-25T10:50:44.000Z</time>
      </trkpt>
      <trkpt lat="43.55493" lon="2.99967">
        <ele>532.8</ele>
        <time>2018-02-25T10:50:46.000Z</time>
      </trkpt>
      <trkpt lat="43.55495" lon="2.99962">
        <ele>532.7</ele>
        <time>2018-02-25T10:50:48.000Z</time>
      </trkpt>
      <trkpt lat="43.55497" lon="2.99959">
        <ele>530.3</ele>
        <time>2018-02-25T10:50:50.000Z</time>
      </trkpt>
      <trkpt lat="43.555" lon="2.99956">
        <ele>529.9</ele>
        <time>2018-02-25T10:50:54.000Z</time>
      </trkpt>
      <trkpt lat="43.55502" lon="2.99953">
        <ele>529.6</ele>
        <time>2018-02-25T10:56:01.000Z</time>
      </trkpt>
      <trkpt lat="43.55499" lon="2.99952">
        <ele>528.8</ele>
        <time>2018-02-25T10:56:02.000Z</time>
      </trkpt>
      <trkpt lat="43.55494" lon="2.99952">
        <ele>527.9</ele>
        <time>2018-02-25T10:56:04.000Z</time>
      </trkpt>
      <trkpt lat="43.5549" lon="2.99953">
        <ele>527.9</ele>
        <time>2018-02-25T10:56:05.000Z</time>
      </trkpt>
      <trkpt lat="43.55487" lon="2.99954">
        <ele>527.5</ele>
        <time>2018-02-25T10:56:06.000Z</time>
      </trkpt>
      <trkpt lat="43.55484" lon="2.99955">
        <ele>527.2</ele>
        <time>2018-02-25T10:56:08.000Z</time>
      </trkpt>
      <trkpt lat="43.55481" lon="2.99955">
        <ele>526.8</ele>
        <time>2018-02-25T10:56:10.000Z</time>
      </trkpt>
      <trkpt lat="43.55478" lon="2.99953">
        <ele>526.4</ele>
        <time>2018-02-25T10:56:13.000Z</time>
      </trkpt>
      <trkpt lat="43.55472" lon="2.99952">
        <ele>525.1</ele>
        <time>2018-02-25T10:56:46.000Z</time>
      </trkpt>
      <trkpt lat="43.55469" lon="2.99952">
        <ele>524.8</ele>
        <time>2018-02-25T10:56:50.000Z</time>
      </trkpt>
      <trkpt lat="43.55465" lon="2.99953">
        <ele>525.1</ele>
        <time>2018-02-25T10:56:53.000Z</time>
      </trkpt>
      <trkpt lat="43.55462" lon="2.99952">
        <ele>524.2</ele>
        <time>2018-02-25T10:56:56.000Z</time>
      </trkpt>
      <trkpt lat="43.55456" lon="2.99951">
        <ele>523.8</ele>
        <time>2018-02-25T10:57:07.000Z</time>
      </trkpt>
      <trkpt lat="43.55453" lon="2.99953">
        <ele>524.2</ele>
        <time>2018-02-25T10:57:12.000Z</time>
      </trkpt>
      <trkpt lat="43.5545" lon="2.99954">
        <ele>524.1</ele>
        <time>2018-02-25T10:57:17.000Z</time>
      </trkpt>
      <trkpt lat="43.55446" lon="2.99956">
        <ele>524</ele>
        <time>2018-02-25T10:57:19.000Z</time>
      </trkpt>
      <trkpt lat="43.55443" lon="2.99958">
        <ele>524.5</ele>
        <time>2018-02-25T10:57:20.000Z</time>
      </trkpt>
      <trkpt lat="43.5544" lon="2.99957">
        <ele>524.5</ele>
        <time>2018-02-25T10:57:22.000Z</time>
      </trkpt>
      <trkpt lat="43.55437" lon="2.99956">
        <ele>524</ele>
        <time>2018-02-25T10:57:24.000Z</time>
      </trkpt>
      <trkpt lat="43.55432" lon="2.99954">
        <ele>524.2</ele>
        <time>2018-02-25T10:57:26.000Z</time>
      </trkpt>
      <trkpt lat="43.55428" lon="2.99951">
        <ele>523.7</ele>
        <time>2018-02-25T10:57:28.000Z</time>
      </trkpt>
      <trkpt lat="43.55423" lon="2.99947">
        <ele>523.5</ele>
        <time>2018-02-25T10:57:30.000Z</time>
      </trkpt>
      <trkpt lat="43.55421" lon="2.99946">
        <ele>523.7</ele>
        <time>2018-02-25T10:57:32.000Z</time>
      </trkpt>
      <trkpt lat="43.55417" lon="2.99947">
        <ele>524</ele>
        <time>2018-02-25T10:57:35.000Z</time>
      </trkpt>
      <trkpt lat="43.55415" lon="2.99947">
        <ele>524.4</ele>
        <time>2018-02-25T10:57:38.000Z</time>
      </trkpt>
      <trkpt lat="43.55412" lon="2.99947">
        <ele>524.3</ele>
        <time>2018-02-25T10:57:40.000Z</time>
      </trkpt>
      <trkpt lat="43.55408" lon="2.99945">
        <ele>525.1</ele>
        <time>2018-02-25T10:57:42.000Z</time>
      </trkpt>
      <trkpt lat="43.55405" lon="2.99945">
        <ele>525.4</ele>
        <time>2018-02-25T10:57:43.000Z</time>
      </trkpt>
      <trkpt lat="43.55401" lon="2.99943">
        <ele>525.1</ele>
        <time>2018-02-25T10:57:44.000Z</time>
      </trkpt>
      <trkpt lat="43.55398" lon="2.99942">
        <ele>525.4</ele>
        <time>2018-02-25T10:57:45.000Z</time>
      </trkpt>
      <trkpt lat="43.55393" lon="2.99942">
        <ele>525.8</ele>
        <time>2018-02-25T10:57:47.000Z</time>
      </trkpt>
      <trkpt lat="43.5539" lon="2.99942">
        <ele>526.6</ele>
        <time>2018-02-25T10:57:49.000Z</time>
      </trkpt>
      <trkpt lat="43.55386" lon="2.99941">
        <ele>526.9</ele>
        <time>2018-02-25T10:57:51.000Z</time>
      </trkpt>
      <trkpt lat="43.55381" lon="2.99939">
        <ele>526.6</ele>
        <time>2018-02-25T10:57:53.000Z</time>
      </trkpt>
      <trkpt lat="43.55378" lon="2.99938">
        <ele>526.3</ele>
        <time>2018-02-25T10:57:55.000Z</time>
      </trkpt>
      <trkpt lat="43.55375" lon="2.99937">
        <ele>526</ele>
        <time>2018-02-25T10:57:58.000Z</time>
      </trkpt>
      <trkpt lat="43.55371" lon="2.99935">
        <ele>525.5</ele>
        <time>2018-02-25T10:58:01.000Z</time>
      </trkpt>
      <trkpt lat="43.55368" lon="2.99933">
        <ele>525.2</ele>
        <time>2018-02-25T10:58:03.000Z</time>
      </trkpt>
      <trkpt lat="43.55365" lon="2.99931">
        <ele>524.8</ele>
        <time>2018-02-25T10:58:05.000Z</time>
      </trkpt>
      <trkpt lat="43.5536" lon="2.9993">
        <ele>523.9</ele>
        <time>2018-02-25T10:58:07.000Z</time>
      </trkpt>
      <trkpt lat="43.55357" lon="2.9993">
        <ele>523.3</ele>
        <time>2018-02-25T10:58:09.000Z</time>
      </trkpt>
      <trkpt lat="43.55353" lon="2.9993">
        <ele>522.7</ele>
        <time>2018-02-25T10:58:11.000Z</time>
      </trkpt>
      <trkpt lat="43.55349" lon="2.9993">
        <ele>522.3</ele>
        <time>2018-02-25T10:58:13.000Z</time>
      </trkpt>
      <trkpt lat="43.55345" lon="2.99928">
        <ele>522</ele>
        <time>2018-02-25T10:58:15.000Z</time>
      </trkpt>
      <trkpt lat="43.55341" lon="2.99925">
        <ele>521.7</ele>
        <time>2018-02-25T10:58:17.000Z</time>
      </trkpt>
      <trkpt lat="43.55339" lon="2.99923">
        <ele>521.5</ele>
        <time>2018-02-25T10:58:19.000Z</time>
      </trkpt>
      <trkpt lat="43.55336" lon="2.99918">
        <ele>521.1</ele>
        <time>2018-02-25T10:58:22.000Z</time>
      </trkpt>
      <trkpt lat="43.55333" lon="2.99915">
        <ele>520.9</ele>
        <time>2018-02-25T10:58:23.000Z</time>
      </trkpt>
      <trkpt lat="43.55331" lon="2.99913">
        <ele>520.7</ele>
        <time>2018-02-25T10:58:24.000Z</time>
      </trkpt>
      <trkpt lat="43.55329" lon="2.99909">
        <ele>520.3</ele>
        <time>2018-02-25T10:58:25.000Z</time>
      </trkpt>
      <trkpt lat="43.55327" lon="2.99906">
        <ele>520</ele>
        <time>2018-02-25T10:58:26.000Z</time>
      </trkpt>
      <trkpt lat="43.55325" lon="2.99902">
        <ele>519.4</ele>
        <time>2018-02-25T10:58:27.000Z</time>
      </trkpt>
      <trkpt lat="43.55323" lon="2.99898">
        <ele>518.6</ele>
        <time>2018-02-25T10:58:28.000Z</time>
      </trkpt>
      <trkpt lat="43.55321" lon="2.99893">
        <ele>517.9</ele>
        <time>2018-02-25T10:58:29.000Z</time>
      </trkpt>
      <trkpt lat="43.55317" lon="2.99887">
        <ele>517.1</ele>
        <time>2018-02-25T10:58:30.000Z</time>
      </trkpt>
      <trkpt lat="43.55314" lon="2.99882">
        <ele>515.9</ele>
        <time>2018-02-25T10:58:31.000Z</time>
      </trkpt>
      <trkpt lat="43.55309" lon="2.99877">
        <ele>514.8</ele>
        <time>2018-02-25T10:58:32.000Z</time>
      </trkpt>
      <trkpt lat="43.55306" lon="2.99873">
        <ele>513.8</ele>
        <time>2018-02-25T10:58:33.000Z</time>
      </trkpt>
      <trkpt lat="43.55302" lon="2.99869">
        <ele>512.9</ele>
        <time>2018-02-25T10:58:34.000Z</time>
      </trkpt>
      <trkpt lat="43.553" lon="2.99864">
        <ele>512</ele>
        <time>2018-02-25T10:58:35.000Z</time>
      </trkpt>
      <trkpt lat="43.55297" lon="2.9986">
        <ele>511</ele>
        <time>2018-02-25T10:58:36.000Z</time>
      </trkpt>
      <trkpt lat="43.55295" lon="2.99854">
        <ele>509.9</ele>
        <time>2018-02-25T10:58:37.000Z</time>
      </trkpt>
      <trkpt lat="43.55293" lon="2.99848">
        <ele>508.9</ele>
        <time>2018-02-25T10:58:38.000Z</time>
      </trkpt>
      <trkpt lat="43.55291" lon="2.99843">
        <ele>507.7</ele>
        <time>2018-02-25T10:58:39.000Z</time>
      </trkpt>
      <trkpt lat="43.55289" lon="2.99839">
        <ele>506.6</ele>
        <time>2018-02-25T10:58:40.000Z</time>
      </trkpt>
      <trkpt lat="43.55287" lon="2.99835">
        <ele>506</ele>
        <time>2018-02-25T10:58:41.000Z</time>
      </trkpt>
      <trkpt lat="43.55285" lon="2.99831">
        <ele>505.3</ele>
        <time>2018-02-25T10:58:42.000Z</time>
      </trkpt>
      <trkpt lat="43.55282" lon="2.99827">
        <ele>504.5</ele>
        <time>2018-02-25T10:58:43.000Z</time>
      </trkpt>
      <trkpt lat="43.55279" lon="2.99825">
        <ele>503.6</ele>
        <time>2018-02-25T10:58:44.000Z</time>
      </trkpt>
      <trkpt lat="43.55276" lon="2.99822">
        <ele>502.9</ele>
        <time>2018-02-25T10:58:45.000Z</time>
      </trkpt>
      <trkpt lat="43.55274" lon="2.9982">
        <ele>502.4</ele>
        <time>2018-02-25T10:58:46.000Z</time>
      </trkpt>
      <trkpt lat="43.55272" lon="2.99817">
        <ele>501.7</ele>
        <time>2018-02-25T10:58:47.000Z</time>
      </trkpt>
      <trkpt lat="43.5527" lon="2.99813">
        <ele>501.1</ele>
        <time>2018-02-25T10:58:48.000Z</time>
      </trkpt>
      <trkpt lat="43.55269" lon="2.99809">
        <ele>500.4</ele>
        <time>2018-02-25T10:58:49.000Z</time>
      </trkpt>
      <trkpt lat="43.55268" lon="2.99804">
        <ele>499.5</ele>
        <time>2018-02-25T10:58:50.000Z</time>
      </trkpt>
      <trkpt lat="43.55266" lon="2.998">
        <ele>498.7</ele>
        <time>2018-02-25T10:58:51.000Z</time>
      </trkpt>
      <trkpt lat="43.55264" lon="2.99797">
        <ele>497.9</ele>
        <time>2018-02-25T10:58:52.000Z</time>
      </trkpt>
      <trkpt lat="43.55262" lon="2.99794">
        <ele>497.2</ele>
        <time>2018-02-25T10:58:53.000Z</time>
      </trkpt>
      <trkpt lat="43.5526" lon="2.99791">
        <ele>496.7</ele>
        <time>2018-02-25T10:58:54.000Z</time>
      </trkpt>
      <trkpt lat="43.55258" lon="2.99788">
        <ele>496.1</ele>
        <time>2018-02-25T10:58:55.000Z</time>
      </trkpt>
      <trkpt lat="43.55256" lon="2.99783">
        <ele>495.5</ele>
        <time>2018-02-25T10:58:56.000Z</time>
      </trkpt>
      <trkpt lat="43.55253" lon="2.99778">
        <ele>494.7</ele>
        <time>2018-02-25T10:58:57.000Z</time>
      </trkpt>
      <trkpt lat="43.5525" lon="2.99773">
        <ele>493.9</ele>
        <time>2018-02-25T10:58:58.000Z</time>
      </trkpt>
      <trkpt lat="43.55248" lon="2.99768">
        <ele>493.1</ele>
        <time>2018-02-25T10:58:59.000Z</time>
      </trkpt>
      <trkpt lat="43.55245" lon="2.99764">
        <ele>492.5</ele>
        <time>2018-02-25T10:59:00.000Z</time>
      </trkpt>
      <trkpt lat="43.55244" lon="2.99759">
        <ele>492</ele>
        <time>2018-02-25T10:59:02.000Z</time>
      </trkpt>
      <trkpt lat="43.55244" lon="2.99753">
        <ele>491.4</ele>
        <time>2018-02-25T10:59:04.000Z</time>
      </trkpt>
      <trkpt lat="43.55242" lon="2.99747">
        <ele>490.6</ele>
        <time>2018-02-25T10:59:06.000Z</time>
      </trkpt>
      <trkpt lat="43.5524" lon="2.99741">
        <ele>490</ele>
        <time>2018-02-25T10:59:08.000Z</time>
      </trkpt>
      <trkpt lat="43.55238" lon="2.99734">
        <ele>489</ele>
        <time>2018-02-25T10:59:10.000Z</time>
      </trkpt>
      <trkpt lat="43.55236" lon="2.9973">
        <ele>488.3</ele>
        <time>2018-02-25T10:59:11.000Z</time>
      </trkpt>
      <trkpt lat="43.55233" lon="2.99727">
        <ele>487.6</ele>
        <time>2018-02-25T10:59:12.000Z</time>
      </trkpt>
      <trkpt lat="43.5523" lon="2.99724">
        <ele>486.9</ele>
        <time>2018-02-25T10:59:14.000Z</time>
      </trkpt>
      <trkpt lat="43.55227" lon="2.99721">
        <ele>486.4</ele>
        <time>2018-02-25T10:59:16.000Z</time>
      </trkpt>
      <trkpt lat="43.55224" lon="2.99719">
        <ele>485.9</ele>
        <time>2018-02-25T10:59:18.000Z</time>
      </trkpt>
      <trkpt lat="43.55221" lon="2.99715">
        <ele>485.4</ele>
        <time>2018-02-25T10:59:21.000Z</time>
      </trkpt>
      <trkpt lat="43.5522" lon="2.99708">
        <ele>485.1</ele>
        <time>2018-02-25T10:59:23.000Z</time>
      </trkpt>
      <trkpt lat="43.5522" lon="2.99702">
        <ele>484.5</ele>
        <time>2018-02-25T10:59:25.000Z</time>
      </trkpt>
      <trkpt lat="43.55218" lon="2.99694">
        <ele>483.8</ele>
        <time>2018-02-25T10:59:27.000Z</time>
      </trkpt>
      <trkpt lat="43.55217" lon="2.9969">
        <ele>483.4</ele>
        <time>2018-02-25T10:59:28.000Z</time>
      </trkpt>
      <trkpt lat="43.55215" lon="2.99684">
        <ele>483</ele>
        <time>2018-02-25T10:59:29.000Z</time>
      </trkpt>
      <trkpt lat="43.55214" lon="2.99678">
        <ele>482.6</ele>
        <time>2018-02-25T10:59:30.000Z</time>
      </trkpt>
      <trkpt lat="43.55213" lon="2.99672">
        <ele>482.2</ele>
        <time>2018-02-25T10:59:31.000Z</time>
      </trkpt>
      <trkpt lat="43.55212" lon="2.99666">
        <ele>481.8</ele>
        <time>2018-02-25T10:59:32.000Z</time>
      </trkpt>
      <trkpt lat="43.55212" lon="2.99662">
        <ele>481.6</ele>
        <time>2018-02-25T10:59:33.000Z</time>
      </trkpt>
      <trkpt lat="43.55212" lon="2.99657">
        <ele>481.2</ele>
        <time>2018-02-25T10:59:34.000Z</time>
      </trkpt>
      <trkpt lat="43.55212" lon="2.99652">
        <ele>480.9</ele>
        <time>2018-02-25T10:59:35.000Z</time>
      </trkpt>
      <trkpt lat="43.55211" lon="2.99645">
        <ele>480.2</ele>
        <time>2018-02-25T10:59:37.000Z</time>
      </trkpt>
      <trkpt lat="43.55211" lon="2.99641">
        <ele>479.7</ele>
        <time>2018-02-25T10:59:38.000Z</time>
      </trkpt>
      <trkpt lat="43.5521" lon="2.99635">
        <ele>479.2</ele>
        <time>2018-02-25T10:59:40.000Z</time>
      </trkpt>
      <trkpt lat="43.55209" lon="2.9963">
        <ele>478.7</ele>
        <time>2018-02-25T10:59:42.000Z</time>
      </trkpt>
      <trkpt lat="43.55211" lon="2.99625">
        <ele>477.9</ele>
        <time>2018-02-25T10:59:44.000Z</time>
      </trkpt>
      <trkpt lat="43.55213" lon="2.99622">
        <ele>477.3</ele>
        <time>2018-02-25T10:59:45.000Z</time>
      </trkpt>
      <trkpt lat="43.55214" lon="2.99618">
        <ele>477</ele>
        <time>2018-02-25T10:59:46.000Z</time>
      </trkpt>
      <trkpt lat="43.55216" lon="2.99614">
        <ele>476.3</ele>
        <time>2018-02-25T10:59:47.000Z</time>
      </trkpt>
      <trkpt lat="43.55216" lon="2.99609">
        <ele>475.7</ele>
        <time>2018-02-25T10:59:48.000Z</time>
      </trkpt>
      <trkpt lat="43.55215" lon="2.99605">
        <ele>475.1</ele>
        <time>2018-02-25T10:59:49.000Z</time>
      </trkpt>
      <trkpt lat="43.55212" lon="2.996">
        <ele>474.3</ele>
        <time>2018-02-25T10:59:50.000Z</time>
      </trkpt>
      <trkpt lat="43.5521" lon="2.99596">
        <ele>473.4</ele>
        <time>2018-02-25T10:59:51.000Z</time>
      </trkpt>
      <trkpt lat="43.55209" lon="2.99592">
        <ele>472.8</ele>
        <time>2018-02-25T10:59:52.000Z</time>
      </trkpt>
      <trkpt lat="43.55208" lon="2.99588">
        <ele>472.4</ele>
        <time>2018-02-25T10:59:53.000Z</time>
      </trkpt>
      <trkpt lat="43.55207" lon="2.99585">
        <ele>472</ele>
        <time>2018-02-25T10:59:54.000Z</time>
      </trkpt>
      <trkpt lat="43.55204" lon="2.99581">
        <ele>471.3</ele>
        <time>2018-02-25T10:59:55.000Z</time>
      </trkpt>
      <trkpt lat="43.55201" lon="2.99578">
        <ele>470.5</ele>
        <time>2018-02-25T10:59:56.000Z</time>
      </trkpt>
      <trkpt lat="43.55199" lon="2.99576">
        <ele>469.8</ele>
        <time>2018-02-25T10:59:57.000Z</time>
      </trkpt>
      <trkpt lat="43.55198" lon="2.99572">
        <ele>469.4</ele>
        <time>2018-02-25T10:59:59.000Z</time>
      </trkpt>
      <trkpt lat="43.55198" lon="2.99568">
        <ele>468.8</ele>
        <time>2018-02-25T11:00:02.000Z</time>
      </trkpt>
      <trkpt lat="43.55196" lon="2.99564">
        <ele>468.6</ele>
        <time>2018-02-25T11:00:04.000Z</time>
      </trkpt>
      <trkpt lat="43.55195" lon="2.9956">
        <ele>468.5</ele>
        <time>2018-02-25T11:00:07.000Z</time>
      </trkpt>
      <trkpt lat="43.55193" lon="2.99557">
        <ele>468.9</ele>
        <time>2018-02-25T11:00:09.000Z</time>
      </trkpt>
      <trkpt lat="43.55191" lon="2.99554">
        <ele>469.4</ele>
        <time>2018-02-25T11:00:14.000Z</time>
      </trkpt>
      <trkpt lat="43.55186" lon="2.99556">
        <ele>470.2</ele>
        <time>2018-02-25T11:00:23.000Z</time>
      </trkpt>
      <trkpt lat="43.55183" lon="2.99558">
        <ele>470.8</ele>
        <time>2018-02-25T11:00:24.000Z</time>
      </trkpt>
      <trkpt lat="43.5518" lon="2.99563">
        <ele>470.1</ele>
        <time>2018-02-25T11:00:26.000Z</time>
      </trkpt>
      <trkpt lat="43.55177" lon="2.99568">
        <ele>469.6</ele>
        <time>2018-02-25T11:00:28.000Z</time>
      </trkpt>
      <trkpt lat="43.55173" lon="2.99571">
        <ele>469.7</ele>
        <time>2018-02-25T11:00:30.000Z</time>
      </trkpt>
      <trkpt lat="43.5517" lon="2.99572">
        <ele>469.6</ele>
        <time>2018-02-25T11:00:31.000Z</time>
      </trkpt>
      <trkpt lat="43.55166" lon="2.99573">
        <ele>469</ele>
        <time>2018-02-25T11:00:32.000Z</time>
      </trkpt>
      <trkpt lat="43.55163" lon="2.99571">
        <ele>468.1</ele>
        <time>2018-02-25T11:00:33.000Z</time>
      </trkpt>
      <trkpt lat="43.55161" lon="2.9957">
        <ele>467.2</ele>
        <time>2018-02-25T11:00:34.000Z</time>
      </trkpt>
      <trkpt lat="43.55158" lon="2.99567">
        <ele>466.4</ele>
        <time>2018-02-25T11:00:35.000Z</time>
      </trkpt>
      <trkpt lat="43.55157" lon="2.99564">
        <ele>466.1</ele>
        <time>2018-02-25T11:00:36.000Z</time>
      </trkpt>
      <trkpt lat="43.55154" lon="2.9956">
        <ele>465.2</ele>
        <time>2018-02-25T11:00:38.000Z</time>
      </trkpt>
      <trkpt lat="43.5515" lon="2.99558">
        <ele>463.6</ele>
        <time>2018-02-25T11:00:40.000Z</time>
      </trkpt>
      <trkpt lat="43.55147" lon="2.99554">
        <ele>462</ele>
        <time>2018-02-25T11:00:42.000Z</time>
      </trkpt>
      <trkpt lat="43.55145" lon="2.99551">
        <ele>461.3</ele>
        <time>2018-02-25T11:00:43.000Z</time>
      </trkpt>
      <trkpt lat="43.55142" lon="2.99545">
        <ele>460</ele>
        <time>2018-02-25T11:00:45.000Z</time>
      </trkpt>
      <trkpt lat="43.5514" lon="2.99541">
        <ele>459.1</ele>
        <time>2018-02-25T11:00:47.000Z</time>
      </trkpt>
      <trkpt lat="43.55137" lon="2.99541">
        <ele>458</ele>
        <time>2018-02-25T11:00:51.000Z</time>
      </trkpt>
      <trkpt lat="43.55134" lon="2.9954">
        <ele>457</ele>
        <time>2018-02-25T11:00:53.000Z</time>
      </trkpt>
      <trkpt lat="43.55132" lon="2.99536">
        <ele>455.6</ele>
        <time>2018-02-25T11:00:55.000Z</time>
      </trkpt>
      <trkpt lat="43.55129" lon="2.9953">
        <ele>454.3</ele>
        <time>2018-02-25T11:00:57.000Z</time>
      </trkpt>
      <trkpt lat="43.55127" lon="2.99527">
        <ele>454.1</ele>
        <time>2018-02-25T11:00:58.000Z</time>
      </trkpt>
      <trkpt lat="43.55126" lon="2.99523">
        <ele>453.9</ele>
        <time>2018-02-25T11:00:59.000Z</time>
      </trkpt>
      <trkpt lat="43.55124" lon="2.99519">
        <ele>453.4</ele>
        <time>2018-02-25T11:01:00.000Z</time>
      </trkpt>
      <trkpt lat="43.55123" lon="2.99515">
        <ele>452.8</ele>
        <time>2018-02-25T11:01:01.000Z</time>
      </trkpt>
      <trkpt lat="43.55122" lon="2.99511">
        <ele>452.2</ele>
        <time>2018-02-25T11:01:02.000Z</time>
      </trkpt>
      <trkpt lat="43.55121" lon="2.99507">
        <ele>451.8</ele>
        <time>2018-02-25T11:01:03.000Z</time>
      </trkpt>
      <trkpt lat="43.55119" lon="2.99502">
        <ele>451</ele>
        <time>2018-02-25T11:01:05.000Z</time>
      </trkpt>
      <trkpt lat="43.55116" lon="2.99495">
        <ele>449.5</ele>
        <time>2018-02-25T11:01:07.000Z</time>
      </trkpt>
      <trkpt lat="43.55113" lon="2.99492">
        <ele>448.5</ele>
        <time>2018-02-25T11:01:08.000Z</time>
      </trkpt>
      <trkpt lat="43.5511" lon="2.99489">
        <ele>447.6</ele>
        <time>2018-02-25T11:01:09.000Z</time>
      </trkpt>
      <trkpt lat="43.55106" lon="2.99486">
        <ele>446.6</ele>
        <time>2018-02-25T11:01:10.000Z</time>
      </trkpt>
      <trkpt lat="43.55102" lon="2.99484">
        <ele>445.6</ele>
        <time>2018-02-25T11:01:11.000Z</time>
      </trkpt>
      <trkpt lat="43.55098" lon="2.99486">
        <ele>444.8</ele>
        <time>2018-02-25T11:01:13.000Z</time>
      </trkpt>
      <trkpt lat="43.55096" lon="2.99488">
        <ele>444.2</ele>
        <time>2018-02-25T11:01:16.000Z</time>
      </trkpt>
      <trkpt lat="43.55098" lon="2.99493">
        <ele>443.2</ele>
        <time>2018-02-25T11:01:19.000Z</time>
      </trkpt>
      <trkpt lat="43.55101" lon="2.99495">
        <ele>442.4</ele>
        <time>2018-02-25T11:01:21.000Z</time>
      </trkpt>
      <trkpt lat="43.55098" lon="2.99498">
        <ele>442.3</ele>
        <time>2018-02-25T11:01:25.000Z</time>
      </trkpt>
      <trkpt lat="43.55095" lon="2.99498">
        <ele>442.4</ele>
        <time>2018-02-25T11:01:27.000Z</time>
      </trkpt>
      <trkpt lat="43.55096" lon="2.99503">
        <ele>442.8</ele>
        <time>2018-02-25T11:01:30.000Z</time>
      </trkpt>
      <trkpt lat="43.55099" lon="2.99508">
        <ele>443.2</ele>
        <time>2018-02-25T11:01:33.000Z</time>
      </trkpt>
      <trkpt lat="43.55102" lon="2.99511">
        <ele>443.4</ele>
        <time>2018-02-25T11:01:35.000Z</time>
      </trkpt>
      <trkpt lat="43.55104" lon="2.99514">
        <ele>442.6</ele>
        <time>2018-02-25T11:01:36.000Z</time>
      </trkpt>
      <trkpt lat="43.55108" lon="2.99518">
        <ele>443.7</ele>
        <time>2018-02-25T11:01:38.000Z</time>
      </trkpt>
      <trkpt lat="43.55109" lon="2.99523">
        <ele>443.8</ele>
        <time>2018-02-25T11:01:41.000Z</time>
      </trkpt>
      <trkpt lat="43.55108" lon="2.99529">
        <ele>443.9</ele>
        <time>2018-02-25T11:01:43.000Z</time>
      </trkpt>
      <trkpt lat="43.55107" lon="2.99534">
        <ele>443.9</ele>
        <time>2018-02-25T11:01:44.000Z</time>
      </trkpt>
      <trkpt lat="43.55106" lon="2.99539">
        <ele>442.7</ele>
        <time>2018-02-25T11:01:45.000Z</time>
      </trkpt>
      <trkpt lat="43.55102" lon="2.99543">
        <ele>441.3</ele>
        <time>2018-02-25T11:01:47.000Z</time>
      </trkpt>
      <trkpt lat="43.55099" lon="2.99546">
        <ele>439.7</ele>
        <time>2018-02-25T11:01:49.000Z</time>
      </trkpt>
      <trkpt lat="43.55095" lon="2.99547">
        <ele>438.2</ele>
        <time>2018-02-25T11:01:51.000Z</time>
      </trkpt>
      <trkpt lat="43.55092" lon="2.99547">
        <ele>437.1</ele>
        <time>2018-02-25T11:01:52.000Z</time>
      </trkpt>
      <trkpt lat="43.55087" lon="2.99543">
        <ele>434.7</ele>
        <time>2018-02-25T11:01:54.000Z</time>
      </trkpt>
      <trkpt lat="43.55084" lon="2.99539">
        <ele>433.2</ele>
        <time>2018-02-25T11:01:55.000Z</time>
      </trkpt>
      <trkpt lat="43.55082" lon="2.99536">
        <ele>431.7</ele>
        <time>2018-02-25T11:01:57.000Z</time>
      </trkpt>
      <trkpt lat="43.55079" lon="2.99531">
        <ele>429.6</ele>
        <time>2018-02-25T11:01:59.000Z</time>
      </trkpt>
      <trkpt lat="43.55074" lon="2.9953">
        <ele>427.2</ele>
        <time>2018-02-25T11:02:01.000Z</time>
      </trkpt>
      <trkpt lat="43.55068" lon="2.99531">
        <ele>425.5</ele>
        <time>2018-02-25T11:02:03.000Z</time>
      </trkpt>
      <trkpt lat="43.55065" lon="2.99533">
        <ele>424.4</ele>
        <time>2018-02-25T11:02:04.000Z</time>
      </trkpt>
      <trkpt lat="43.55062" lon="2.99534">
        <ele>423.4</ele>
        <time>2018-02-25T11:02:05.000Z</time>
      </trkpt>
      <trkpt lat="43.55059" lon="2.99535">
        <ele>421.2</ele>
        <time>2018-02-25T11:02:07.000Z</time>
      </trkpt>
      <trkpt lat="43.55056" lon="2.99534">
        <ele>419</ele>
        <time>2018-02-25T11:02:10.000Z</time>
      </trkpt>
      <trkpt lat="43.55055" lon="2.9953">
        <ele>416.8</ele>
        <time>2018-02-25T11:02:12.000Z</time>
      </trkpt>
      <trkpt lat="43.55052" lon="2.99529">
        <ele>415.3</ele>
        <time>2018-02-25T11:02:15.000Z</time>
      </trkpt>
      <trkpt lat="43.55048" lon="2.99532">
        <ele>413.2</ele>
        <time>2018-02-25T11:02:18.000Z</time>
      </trkpt>
      <trkpt lat="43.55045" lon="2.99535">
        <ele>411.9</ele>
        <time>2018-02-25T11:02:20.000Z</time>
      </trkpt>
      <trkpt lat="43.55041" lon="2.99537">
        <ele>411</ele>
        <time>2018-02-25T11:02:22.000Z</time>
      </trkpt>
      <trkpt lat="43.55038" lon="2.99537">
        <ele>408.6</ele>
        <time>2018-02-25T11:02:25.000Z</time>
      </trkpt>
      <trkpt lat="43.55035" lon="2.99537">
        <ele>406.7</ele>
        <time>2018-02-25T11:02:27.000Z</time>
      </trkpt>
      <trkpt lat="43.55031" lon="2.9954">
        <ele>404.6</ele>
        <time>2018-02-25T11:02:30.000Z</time>
      </trkpt>
      <trkpt lat="43.55027" lon="2.99541">
        <ele>402.8</ele>
        <time>2018-02-25T11:02:32.000Z</time>
      </trkpt>
      <trkpt lat="43.55024" lon="2.99542">
        <ele>401.3</ele>
        <time>2018-02-25T11:02:34.000Z</time>
      </trkpt>
      <trkpt lat="43.55021" lon="2.99545">
        <ele>399.4</ele>
        <time>2018-02-25T11:02:38.000Z</time>
      </trkpt>
      <trkpt lat="43.55019" lon="2.99541">
        <ele>397.4</ele>
        <time>2018-02-25T11:02:40.000Z</time>
      </trkpt>
      <trkpt lat="43.55017" lon="2.99539">
        <ele>395.9</ele>
        <time>2018-02-25T11:02:43.000Z</time>
      </trkpt>
      <trkpt lat="43.55014" lon="2.9954">
        <ele>394.3</ele>
        <time>2018-02-25T11:02:47.000Z</time>
      </trkpt>
      <trkpt lat="43.5501" lon="2.99537">
        <ele>391.8</ele>
        <time>2018-02-25T11:02:56.000Z</time>
      </trkpt>
      <trkpt lat="43.55008" lon="2.99533">
        <ele>389.7</ele>
        <time>2018-02-25T11:02:57.000Z</time>
      </trkpt>
      <trkpt lat="43.55005" lon="2.99529">
        <ele>388.1</ele>
        <time>2018-02-25T11:02:58.000Z</time>
      </trkpt>
      <trkpt lat="43.55003" lon="2.99525">
        <ele>386.8</ele>
        <time>2018-02-25T11:02:59.000Z</time>
      </trkpt>
      <trkpt lat="43.55001" lon="2.99521">
        <ele>385.8</ele>
        <time>2018-02-25T11:03:00.000Z</time>
      </trkpt>
      <trkpt lat="43.55" lon="2.99518">
        <ele>385.8</ele>
        <time>2018-02-25T11:03:01.000Z</time>
      </trkpt>
      <trkpt lat="43.54998" lon="2.99515">
        <ele>385.8</ele>
        <time>2018-02-25T11:03:02.000Z</time>
      </trkpt>
      <trkpt lat="43.54996" lon="2.99512">
        <ele>382.5</ele>
        <time>2018-02-25T11:03:03.000Z</time>
      </trkpt>
      <trkpt lat="43.54993" lon="2.99511">
        <ele>379.3</ele>
        <time>2018-02-25T11:03:04.000Z</time>
      </trkpt>
      <trkpt lat="43.54989" lon="2.9951">
        <ele>377.4</ele>
        <time>2018-02-25T11:03:05.000Z</time>
      </trkpt>
      <trkpt lat="43.54986" lon="2.99509">
        <ele>374.2</ele>
        <time>2018-02-25T11:03:06.000Z</time>
      </trkpt>
      <trkpt lat="43.54983" lon="2.99508">
        <ele>371</ele>
        <time>2018-02-25T11:03:07.000Z</time>
      </trkpt>
      <trkpt lat="43.54978" lon="2.99507">
        <ele>365.5</ele>
        <time>2018-02-25T11:03:09.000Z</time>
      </trkpt>
      <trkpt lat="43.54975" lon="2.9951">
        <ele>362.1</ele>
        <time>2018-02-25T11:03:11.000Z</time>
      </trkpt>
      <trkpt lat="43.54973" lon="2.99513">
        <ele>359.8</ele>
        <time>2018-02-25T11:03:13.000Z</time>
      </trkpt>
      <trkpt lat="43.5497" lon="2.99515">
        <ele>358.7</ele>
        <time>2018-02-25T11:03:16.000Z</time>
      </trkpt>
      <trkpt lat="43.54964" lon="2.99518">
        <ele>356.8</ele>
        <time>2018-02-25T11:03:18.000Z</time>
      </trkpt>
      <trkpt lat="43.5496" lon="2.99518">
        <ele>355.7</ele>
        <time>2018-02-25T11:03:19.000Z</time>
      </trkpt>
      <trkpt lat="43.54958" lon="2.99518">
        <ele>353.6</ele>
        <time>2018-02-25T11:03:20.000Z</time>
      </trkpt>
      <trkpt lat="43.54955" lon="2.99518">
        <ele>350.8</ele>
        <time>2018-02-25T11:03:21.000Z</time>
      </trkpt>
      <trkpt lat="43.54952" lon="2.99518">
        <ele>349.8</ele>
        <time>2018-02-25T11:03:22.000Z</time>
      </trkpt>
      <trkpt lat="43.54949" lon="2.99517">
        <ele>349</ele>
        <time>2018-02-25T11:03:23.000Z</time>
      </trkpt>
      <trkpt lat="43.54945" lon="2.99516">
        <ele>347.2</ele>
        <time>2018-02-25T11:03:25.000Z</time>
      </trkpt>
      <trkpt lat="43.54942" lon="2.99518">
        <ele>344.6</ele>
        <time>2018-02-25T11:03:27.000Z</time>
      </trkpt>
      <trkpt lat="43.5494" lon="2.99521">
        <ele>343.1</ele>
        <time>2018-02-25T11:03:29.000Z</time>
      </trkpt>
      <trkpt lat="43.54937" lon="2.99523">
        <ele>341.4</ele>
        <time>2018-02-25T11:03:32.000Z</time>
      </trkpt>
      <trkpt lat="43.54934" lon="2.99522">
        <ele>340</ele>
        <time>2018-02-25T11:03:34.000Z</time>
      </trkpt>
      <trkpt lat="43.5493" lon="2.99519">
        <ele>337.7</ele>
        <time>2018-02-25T11:03:36.000Z</time>
      </trkpt>
      <trkpt lat="43.54927" lon="2.99518">
        <ele>335.8</ele>
        <time>2018-02-25T11:03:37.000Z</time>
      </trkpt>
      <trkpt lat="43.54925" lon="2.99517">
        <ele>336</ele>
        <time>2018-02-25T11:03:38.000Z</time>
      </trkpt>
      <trkpt lat="43.5492" lon="2.99513">
        <ele>336.9</ele>
        <time>2018-02-25T11:03:40.000Z</time>
      </trkpt>
      <trkpt lat="43.54919" lon="2.9951">
        <ele>337.5</ele>
        <time>2018-02-25T11:03:41.000Z</time>
      </trkpt>
      <trkpt lat="43.54917" lon="2.99506">
        <ele>338.1</ele>
        <time>2018-02-25T11:03:43.000Z</time>
      </trkpt>
      <trkpt lat="43.54916" lon="2.99501">
        <ele>338.8</ele>
        <time>2018-02-25T11:03:45.000Z</time>
      </trkpt>
      <trkpt lat="43.54913" lon="2.99499">
        <ele>331.9</ele>
        <time>2018-02-25T11:03:47.000Z</time>
      </trkpt>
      <trkpt lat="43.5491" lon="2.99501">
        <ele>325.2</ele>
        <time>2018-02-25T11:03:49.000Z</time>
      </trkpt>
      <trkpt lat="43.54907" lon="2.99501">
        <ele>324.8</ele>
        <time>2018-02-25T11:03:52.000Z</time>
      </trkpt>
      <trkpt lat="43.54905" lon="2.99498">
        <ele>323.8</ele>
        <time>2018-02-25T11:03:53.000Z</time>
      </trkpt>
      <trkpt lat="43.54903" lon="2.99495">
        <ele>322.6</ele>
        <time>2018-02-25T11:03:54.000Z</time>
      </trkpt>
      <trkpt lat="43.54901" lon="2.99489">
        <ele>320.1</ele>
        <time>2018-02-25T11:03:56.000Z</time>
      </trkpt>
      <trkpt lat="43.549" lon="2.99485">
        <ele>319.7</ele>
        <time>2018-02-25T11:03:57.000Z</time>
      </trkpt>
      <trkpt lat="43.54898" lon="2.99482">
        <ele>319.3</ele>
        <time>2018-02-25T11:03:58.000Z</time>
      </trkpt>
      <trkpt lat="43.54896" lon="2.99477">
        <ele>318.7</ele>
        <time>2018-02-25T11:04:00.000Z</time>
      </trkpt>
      <trkpt lat="43.54891" lon="2.99472">
        <ele>317.9</ele>
        <time>2018-02-25T11:05:47.000Z</time>
      </trkpt>
      <trkpt lat="43.54888" lon="2.99471">
        <ele>317.9</ele>
        <time>2018-02-25T11:05:48.000Z</time>
      </trkpt>
      <trkpt lat="43.54885" lon="2.99469">
        <ele>318.2</ele>
        <time>2018-02-25T11:05:50.000Z</time>
      </trkpt>
      <trkpt lat="43.54882" lon="2.99466">
        <ele>316.2</ele>
        <time>2018-02-25T11:05:54.000Z</time>
      </trkpt>
      <trkpt lat="43.54879" lon="2.99466">
        <ele>315.9</ele>
        <time>2018-02-25T11:06:19.000Z</time>
      </trkpt>
      <trkpt lat="43.54876" lon="2.9947">
        <ele>313.8</ele>
        <time>2018-02-25T11:06:36.000Z</time>
      </trkpt>
      <trkpt lat="43.54872" lon="2.99476">
        <ele>312.2</ele>
        <time>2018-02-25T11:06:38.000Z</time>
      </trkpt>
      <trkpt lat="43.5487" lon="2.99479">
        <ele>311.7</ele>
        <time>2018-02-25T11:06:39.000Z</time>
      </trkpt>
      <trkpt lat="43.54867" lon="2.99482">
        <ele>310.6</ele>
        <time>2018-02-25T11:06:41.000Z</time>
      </trkpt>
      <trkpt lat="43.54865" lon="2.99483">
        <ele>309.8</ele>
        <time>2018-02-25T11:06:43.000Z</time>
      </trkpt>
      <trkpt lat="43.54862" lon="2.99485">
        <ele>308.9</ele>
        <time>2018-02-25T11:06:46.000Z</time>
      </trkpt>
      <trkpt lat="43.54859" lon="2.99485">
        <ele>308</ele>
        <time>2018-02-25T11:06:51.000Z</time>
      </trkpt>
      <trkpt lat="43.54856" lon="2.9948">
        <ele>306</ele>
        <time>2018-02-25T11:09:42.000Z</time>
      </trkpt>
      <trkpt lat="43.54856" lon="2.99475">
        <ele>306</ele>
        <time>2018-02-25T11:09:45.000Z</time>
      </trkpt>
      <trkpt lat="43.54855" lon="2.9947">
        <ele>306</ele>
        <time>2018-02-25T11:09:47.000Z</time>
      </trkpt>
      <trkpt lat="43.54855" lon="2.99466">
        <ele>306.5</ele>
        <time>2018-02-25T11:09:49.000Z</time>
      </trkpt>
      <trkpt lat="43.54855" lon="2.99461">
        <ele>307.2</ele>
        <time>2018-02-25T11:09:51.000Z</time>
      </trkpt>
      <trkpt lat="43.54853" lon="2.99457">
        <ele>308.3</ele>
        <time>2018-02-25T11:09:54.000Z</time>
      </trkpt>
      <trkpt lat="43.5485" lon="2.99454">
        <ele>309.2</ele>
        <time>2018-02-25T11:09:57.000Z</time>
      </trkpt>
      <trkpt lat="43.54848" lon="2.99452">
        <ele>309.9</ele>
        <time>2018-02-25T11:10:02.000Z</time>
      </trkpt>
      <trkpt lat="43.54847" lon="2.99448">
        <ele>310.3</ele>
        <time>2018-02-25T11:10:07.000Z</time>
      </trkpt>
      <trkpt lat="43.54846" lon="2.99444">
        <ele>310.5</ele>
        <time>2018-02-25T11:10:16.000Z</time>
      </trkpt>
      <trkpt lat="43.54833" lon="2.99416">
        <ele>309.1</ele>
        <time>2018-02-25T11:11:12.000Z</time>
      </trkpt>
      <trkpt lat="43.54832" lon="2.99412">
        <ele>308.9</ele>
        <time>2018-02-25T11:11:14.000Z</time>
      </trkpt>
      <trkpt lat="43.54829" lon="2.9941">
        <ele>308.7</ele>
        <time>2018-02-25T11:11:16.000Z</time>
      </trkpt>
      <trkpt lat="43.54827" lon="2.99408">
        <ele>308.5</ele>
        <time>2018-02-25T11:11:18.000Z</time>
      </trkpt>
      <trkpt lat="43.54826" lon="2.99404">
        <ele>308.4</ele>
        <time>2018-02-25T11:11:21.000Z</time>
      </trkpt>
      <trkpt lat="43.54823" lon="2.99404">
        <ele>308.3</ele>
        <time>2018-02-25T11:11:24.000Z</time>
      </trkpt>
      <trkpt lat="43.5482" lon="2.99405">
        <ele>308.1</ele>
        <time>2018-02-25T11:11:26.000Z</time>
      </trkpt>
      <trkpt lat="43.54817" lon="2.99409">
        <ele>307.6</ele>
        <time>2018-02-25T11:11:29.000Z</time>
      </trkpt>
      <trkpt lat="43.54814" lon="2.99411">
        <ele>306.8</ele>
        <time>2018-02-25T11:11:31.000Z</time>
      </trkpt>
      <trkpt lat="43.54811" lon="2.9941">
        <ele>306.9</ele>
        <time>2018-02-25T11:11:35.000Z</time>
      </trkpt>
      <trkpt lat="43.54808" lon="2.99409">
        <ele>307.2</ele>
        <time>2018-02-25T11:11:38.000Z</time>
      </trkpt>
      <trkpt lat="43.54805" lon="2.99408">
        <ele>307.5</ele>
        <time>2018-02-25T11:11:43.000Z</time>
      </trkpt>
      <trkpt lat="43.54799" lon="2.99412">
        <ele>307</ele>
        <time>2018-02-25T11:14:39.000Z</time>
      </trkpt>
      <trkpt lat="43.54796" lon="2.99413">
        <ele>306.6</ele>
        <time>2018-02-25T11:14:42.000Z</time>
      </trkpt>
      <trkpt lat="43.54794" lon="2.99414">
        <ele>306.3</ele>
        <time>2018-02-25T11:15:13.000Z</time>
      </trkpt>
      <trkpt lat="43.5479" lon="2.99413">
        <ele>305.8</ele>
        <time>2018-02-25T11:15:16.000Z</time>
      </trkpt>
      <trkpt lat="43.54787" lon="2.99412">
        <ele>305.4</ele>
        <time>2018-02-25T11:15:18.000Z</time>
      </trkpt>
      <trkpt lat="43.54784" lon="2.99411">
        <ele>304.8</ele>
        <time>2018-02-25T11:15:22.000Z</time>
      </trkpt>
      <trkpt lat="43.54771" lon="2.99409">
        <ele>303</ele>
        <time>2018-02-25T11:16:44.000Z</time>
      </trkpt>
      <trkpt lat="43.54768" lon="2.9941">
        <ele>302.5</ele>
        <time>2018-02-25T11:16:46.000Z</time>
      </trkpt>
      <trkpt lat="43.54765" lon="2.99412">
        <ele>302.1</ele>
        <time>2018-02-25T11:16:48.000Z</time>
      </trkpt>
      <trkpt lat="43.54761" lon="2.99412">
        <ele>301.6</ele>
        <time>2018-02-25T11:16:50.000Z</time>
      </trkpt>
      <trkpt lat="43.54758" lon="2.99414">
        <ele>301.1</ele>
        <time>2018-02-25T11:16:52.000Z</time>
      </trkpt>
      <trkpt lat="43.54754" lon="2.99415">
        <ele>300.6</ele>
        <time>2018-02-25T11:16:54.000Z</time>
      </trkpt>
      <trkpt lat="43.54751" lon="2.99413">
        <ele>300.2</ele>
        <time>2018-02-25T11:16:57.000Z</time>
      </trkpt>
      <trkpt lat="43.54748" lon="2.99413">
        <ele>300</ele>
        <time>2018-02-25T11:16:59.000Z</time>
      </trkpt>
      <trkpt lat="43.54745" lon="2.99415">
        <ele>299.8</ele>
        <time>2018-02-25T11:17:01.000Z</time>
      </trkpt>
      <trkpt lat="43.54742" lon="2.99417">
        <ele>299.4</ele>
        <time>2018-02-25T11:17:03.000Z</time>
      </trkpt>
      <trkpt lat="43.54738" lon="2.99415">
        <ele>299</ele>
        <time>2018-02-25T11:17:08.000Z</time>
      </trkpt>
      <trkpt lat="43.54734" lon="2.99419">
        <ele>298.7</ele>
        <time>2018-02-25T11:17:11.000Z</time>
      </trkpt>
      <trkpt lat="43.54731" lon="2.99421">
        <ele>298.2</ele>
        <time>2018-02-25T11:17:13.000Z</time>
      </trkpt>
      <trkpt lat="43.54728" lon="2.99423">
        <ele>297.7</ele>
        <time>2018-02-25T11:17:15.000Z</time>
      </trkpt>
      <trkpt lat="43.54723" lon="2.99425">
        <ele>297</ele>
        <time>2018-02-25T11:17:17.000Z</time>
      </trkpt>
      <trkpt lat="43.54719" lon="2.99428">
        <ele>296.3</ele>
        <time>2018-02-25T11:17:19.000Z</time>
      </trkpt>
      <trkpt lat="43.54717" lon="2.99434">
        <ele>295.5</ele>
        <time>2018-02-25T11:17:21.000Z</time>
      </trkpt>
      <trkpt lat="43.54714" lon="2.99438">
        <ele>295</ele>
        <time>2018-02-25T11:17:23.000Z</time>
      </trkpt>
      <trkpt lat="43.54711" lon="2.9944">
        <ele>294.7</ele>
        <time>2018-02-25T11:17:25.000Z</time>
      </trkpt>
      <trkpt lat="43.54708" lon="2.9944">
        <ele>294.3</ele>
        <time>2018-02-25T11:17:27.000Z</time>
      </trkpt>
      <trkpt lat="43.54704" lon="2.99439">
        <ele>293.5</ele>
        <time>2018-02-25T11:17:29.000Z</time>
      </trkpt>
      <trkpt lat="43.54701" lon="2.99438">
        <ele>292.7</ele>
        <time>2018-02-25T11:17:31.000Z</time>
      </trkpt>
      <trkpt lat="43.54697" lon="2.99436">
        <ele>291.8</ele>
        <time>2018-02-25T11:17:33.000Z</time>
      </trkpt>
      <trkpt lat="43.54694" lon="2.99434">
        <ele>291.3</ele>
        <time>2018-02-25T11:17:34.000Z</time>
      </trkpt>
      <trkpt lat="43.5469" lon="2.99432">
        <ele>290.4</ele>
        <time>2018-02-25T11:17:36.000Z</time>
      </trkpt>
      <trkpt lat="43.54686" lon="2.99433">
        <ele>289.7</ele>
        <time>2018-02-25T11:17:37.000Z</time>
      </trkpt>
      <trkpt lat="43.54682" lon="2.99435">
        <ele>288.8</ele>
        <time>2018-02-25T11:17:38.000Z</time>
      </trkpt>
      <trkpt lat="43.54679" lon="2.99438">
        <ele>288.1</ele>
        <time>2018-02-25T11:17:39.000Z</time>
      </trkpt>
      <trkpt lat="43.54675" lon="2.99441">
        <ele>287.2</ele>
        <time>2018-02-25T11:17:41.000Z</time>
      </trkpt>
      <trkpt lat="43.54671" lon="2.99442">
        <ele>286.3</ele>
        <time>2018-02-25T11:17:43.000Z</time>
      </trkpt>
      <trkpt lat="43.54668" lon="2.9944">
        <ele>285.6</ele>
        <time>2018-02-25T11:17:45.000Z</time>
      </trkpt>
      <trkpt lat="43.54665" lon="2.99438">
        <ele>284.8</ele>
        <time>2018-02-25T11:17:47.000Z</time>
      </trkpt>
      <trkpt lat="43.54664" lon="2.99434">
        <ele>284</ele>
        <time>2018-02-25T11:17:49.000Z</time>
      </trkpt>
      <trkpt lat="43.54663" lon="2.99429">
        <ele>283.2</ele>
        <time>2018-02-25T11:17:51.000Z</time>
      </trkpt>
      <trkpt lat="43.54662" lon="2.99425">
        <ele>282.6</ele>
        <time>2018-02-25T11:17:53.000Z</time>
      </trkpt>
      <trkpt lat="43.54659" lon="2.99422">
        <ele>282.1</ele>
        <time>2018-02-25T11:17:56.000Z</time>
      </trkpt>
      <trkpt lat="43.54655" lon="2.99418">
        <ele>281.5</ele>
        <time>2018-02-25T11:17:58.000Z</time>
      </trkpt>
      <trkpt lat="43.54652" lon="2.99415">
        <ele>281</ele>
        <time>2018-02-25T11:18:00.000Z</time>
      </trkpt>
      <trkpt lat="43.54651" lon="2.9941">
        <ele>280.9</ele>
        <time>2018-02-25T11:18:02.000Z</time>
      </trkpt>
      <trkpt lat="43.54651" lon="2.99405">
        <ele>281</ele>
        <time>2018-02-25T11:18:04.000Z</time>
      </trkpt>
      <trkpt lat="43.54652" lon="2.99399">
        <ele>281.8</ele>
        <time>2018-02-25T11:18:06.000Z</time>
      </trkpt>
      <trkpt lat="43.54653" lon="2.99393">
        <ele>282.6</ele>
        <time>2018-02-25T11:18:08.000Z</time>
      </trkpt>
      <trkpt lat="43.54654" lon="2.99389">
        <ele>283.3</ele>
        <time>2018-02-25T11:18:10.000Z</time>
      </trkpt>
      <trkpt lat="43.54653" lon="2.99384">
        <ele>283.8</ele>
        <time>2018-02-25T11:18:13.000Z</time>
      </trkpt>
      <trkpt lat="43.5465" lon="2.9938">
        <ele>284</ele>
        <time>2018-02-25T11:18:15.000Z</time>
      </trkpt>
      <trkpt lat="43.54649" lon="2.99376">
        <ele>283.6</ele>
        <time>2018-02-25T11:18:17.000Z</time>
      </trkpt>
      <trkpt lat="43.54646" lon="2.9937">
        <ele>282.8</ele>
        <time>2018-02-25T11:18:19.000Z</time>
      </trkpt>
      <trkpt lat="43.54644" lon="2.99365">
        <ele>281.8</ele>
        <time>2018-02-25T11:18:21.000Z</time>
      </trkpt>
      <trkpt lat="43.54642" lon="2.99359">
        <ele>280.8</ele>
        <time>2018-02-25T11:18:23.000Z</time>
      </trkpt>
      <trkpt lat="43.54641" lon="2.99353">
        <ele>279.6</ele>
        <time>2018-02-25T11:18:25.000Z</time>
      </trkpt>
      <trkpt lat="43.5464" lon="2.99349">
        <ele>278.9</ele>
        <time>2018-02-25T11:18:26.000Z</time>
      </trkpt>
      <trkpt lat="43.54639" lon="2.99345">
        <ele>278.6</ele>
        <time>2018-02-25T11:18:27.000Z</time>
      </trkpt>
      <trkpt lat="43.54638" lon="2.99342">
        <ele>278.5</ele>
        <time>2018-02-25T11:18:28.000Z</time>
      </trkpt>
      <trkpt lat="43.54636" lon="2.99335">
        <ele>277.5</ele>
        <time>2018-02-25T11:18:30.000Z</time>
      </trkpt>
      <trkpt lat="43.54634" lon="2.99329">
        <ele>275.5</ele>
        <time>2018-02-25T11:18:32.000Z</time>
      </trkpt>
      <trkpt lat="43.54633" lon="2.99325">
        <ele>274.3</ele>
        <time>2018-02-25T11:18:34.000Z</time>
      </trkpt>
      <trkpt lat="43.54632" lon="2.99321">
        <ele>273.7</ele>
        <time>2018-02-25T11:18:37.000Z</time>
      </trkpt>
      <trkpt lat="43.54629" lon="2.99318">
        <ele>272.7</ele>
        <time>2018-02-25T11:18:41.000Z</time>
      </trkpt>
      <trkpt lat="43.54626" lon="2.99316">
        <ele>271.9</ele>
        <time>2018-02-25T11:18:43.000Z</time>
      </trkpt>
      <trkpt lat="43.54624" lon="2.99311">
        <ele>270.6</ele>
        <time>2018-02-25T11:18:46.000Z</time>
      </trkpt>
      <trkpt lat="43.54622" lon="2.99308">
        <ele>269.8</ele>
        <time>2018-02-25T11:18:48.000Z</time>
      </trkpt>
      <trkpt lat="43.54617" lon="2.99305">
        <ele>268.1</ele>
        <time>2018-02-25T11:18:50.000Z</time>
      </trkpt>
      <trkpt lat="43.54615" lon="2.99301">
        <ele>266.8</ele>
        <time>2018-02-25T11:18:52.000Z</time>
      </trkpt>
      <trkpt lat="43.54615" lon="2.99296">
        <ele>266.4</ele>
        <time>2018-02-25T11:18:54.000Z</time>
      </trkpt>
      <trkpt lat="43.54615" lon="2.99289">
        <ele>265.9</ele>
        <time>2018-02-25T11:18:56.000Z</time>
      </trkpt>
      <trkpt lat="43.54615" lon="2.99284">
        <ele>265.7</ele>
        <time>2018-02-25T11:18:57.000Z</time>
      </trkpt>
      <trkpt lat="43.54614" lon="2.99279">
        <ele>265.5</ele>
        <time>2018-02-25T11:18:58.000Z</time>
      </trkpt>
      <trkpt lat="43.54614" lon="2.99274">
        <ele>265.1</ele>
        <time>2018-02-25T11:18:59.000Z</time>
      </trkpt>
      <trkpt lat="43.54615" lon="2.9927">
        <ele>264.8</ele>
        <time>2018-02-25T11:19:00.000Z</time>
      </trkpt>
      <trkpt lat="43.54615" lon="2.99266">
        <ele>264.5</ele>
        <time>2018-02-25T11:19:01.000Z</time>
      </trkpt>
      <trkpt lat="43.54616" lon="2.99261">
        <ele>264.3</ele>
        <time>2018-02-25T11:19:02.000Z</time>
      </trkpt>
      <trkpt lat="43.54616" lon="2.99257">
        <ele>264</ele>
        <time>2018-02-25T11:19:03.000Z</time>
      </trkpt>
      <trkpt lat="43.54617" lon="2.99251">
        <ele>264.3</ele>
        <time>2018-02-25T11:19:05.000Z</time>
      </trkpt>
      <trkpt lat="43.54619" lon="2.99247">
        <ele>264.6</ele>
        <time>2018-02-25T11:19:07.000Z</time>
      </trkpt>
      <trkpt lat="43.5462" lon="2.99241">
        <ele>265</ele>
        <time>2018-02-25T11:19:09.000Z</time>
      </trkpt>
      <trkpt lat="43.54619" lon="2.99236">
        <ele>265.1</ele>
        <time>2018-02-25T11:19:10.000Z</time>
      </trkpt>
      <trkpt lat="43.54618" lon="2.99229">
        <ele>265.1</ele>
        <time>2018-02-25T11:19:11.000Z</time>
      </trkpt>
      <trkpt lat="43.54618" lon="2.99224">
        <ele>265.1</ele>
        <time>2018-02-25T11:19:12.000Z</time>
      </trkpt>
      <trkpt lat="43.54618" lon="2.99217">
        <ele>265.2</ele>
        <time>2018-02-25T11:19:14.000Z</time>
      </trkpt>
      <trkpt lat="43.54617" lon="2.99213">
        <ele>265.2</ele>
        <time>2018-02-25T11:19:16.000Z</time>
      </trkpt>
      <trkpt lat="43.54615" lon="2.9921">
        <ele>265.1</ele>
        <time>2018-02-25T11:19:19.000Z</time>
      </trkpt>
      <trkpt lat="43.54616" lon="2.99205">
        <ele>265</ele>
        <time>2018-02-25T11:19:22.000Z</time>
      </trkpt>
      <trkpt lat="43.54616" lon="2.99201">
        <ele>265</ele>
        <time>2018-02-25T11:19:23.000Z</time>
      </trkpt>
      <trkpt lat="43.54615" lon="2.99196">
        <ele>264.8</ele>
        <time>2018-02-25T11:19:25.000Z</time>
      </trkpt>
      <trkpt lat="43.54614" lon="2.99193">
        <ele>264.2</ele>
        <time>2018-02-25T11:19:30.000Z</time>
      </trkpt>
      <trkpt lat="43.54615" lon="2.99188">
        <ele>263.7</ele>
        <time>2018-02-25T11:21:58.000Z</time>
      </trkpt>
      <trkpt lat="43.54616" lon="2.99184">
        <ele>263.5</ele>
        <time>2018-02-25T11:22:01.000Z</time>
      </trkpt>
      <trkpt lat="43.54617" lon="2.9918">
        <ele>263.2</ele>
        <time>2018-02-25T11:22:05.000Z</time>
      </trkpt>
      <trkpt lat="43.54616" lon="2.99177">
        <ele>263</ele>
        <time>2018-02-25T11:22:10.000Z</time>
      </trkpt>
      <trkpt lat="43.54624" lon="2.99167">
        <ele>262.2</ele>
        <time>2018-02-25T11:23:13.000Z</time>
      </trkpt>
      <trkpt lat="43.54624" lon="2.99163">
        <ele>261.8</ele>
        <time>2018-02-25T11:23:15.000Z</time>
      </trkpt>
      <trkpt lat="43.54623" lon="2.99159">
        <ele>261.6</ele>
        <time>2018-02-25T11:23:18.000Z</time>
      </trkpt>
      <trkpt lat="43.54623" lon="2.99155">
        <ele>261.4</ele>
        <time>2018-02-25T11:23:21.000Z</time>
      </trkpt>
      <trkpt lat="43.54625" lon="2.99152">
        <ele>261.1</ele>
        <time>2018-02-25T11:23:25.000Z</time>
      </trkpt>
      <trkpt lat="43.54626" lon="2.99148">
        <ele>261</ele>
        <time>2018-02-25T11:23:34.000Z</time>
      </trkpt>
      <trkpt lat="43.54626" lon="2.99144">
        <ele>260.8</ele>
        <time>2018-02-25T11:23:41.000Z</time>
      </trkpt>
      <trkpt lat="43.54626" lon="2.9914">
        <ele>260.8</ele>
        <time>2018-02-25T11:23:56.000Z</time>
      </trkpt>
      <trkpt lat="43.54625" lon="2.99137">
        <ele>260.8</ele>
        <time>2018-02-25T11:24:00.000Z</time>
      </trkpt>
      <trkpt lat="43.54622" lon="2.99134">
        <ele>260.7</ele>
        <time>2018-02-25T11:24:05.000Z</time>
      </trkpt>
      <trkpt lat="43.54621" lon="2.9913">
        <ele>260.9</ele>
        <time>2018-02-25T11:24:13.000Z</time>
      </trkpt>
      <trkpt lat="43.54622" lon="2.99126">
        <ele>261.1</ele>
        <time>2018-02-25T11:24:16.000Z</time>
      </trkpt>
      <trkpt lat="43.54624" lon="2.99123">
        <ele>261.3</ele>
        <time>2018-02-25T11:24:18.000Z</time>
      </trkpt>
      <trkpt lat="43.54624" lon="2.99119">
        <ele>261.5</ele>
        <time>2018-02-25T11:24:22.000Z</time>
      </trkpt>
      <trkpt lat="43.54624" lon="2.99115">
        <ele>261.7</ele>
        <time>2018-02-25T11:24:26.000Z</time>
      </trkpt>
      <trkpt lat="43.54625" lon="2.99111">
        <ele>261.9</ele>
        <time>2018-02-25T11:24:32.000Z</time>
      </trkpt>
      <trkpt lat="43.54626" lon="2.99108">
        <ele>262.2</ele>
        <time>2018-02-25T11:24:35.000Z</time>
      </trkpt>
      <trkpt lat="43.54629" lon="2.99105">
        <ele>262.4</ele>
        <time>2018-02-25T11:24:38.000Z</time>
      </trkpt>
      <trkpt lat="43.54631" lon="2.99101">
        <ele>262.6</ele>
        <time>2018-02-25T11:24:42.000Z</time>
      </trkpt>
      <trkpt lat="43.54633" lon="2.99099">
        <ele>262.6</ele>
        <time>2018-02-25T11:24:45.000Z</time>
      </trkpt>
      <trkpt lat="43.54632" lon="2.99095">
        <ele>262.4</ele>
        <time>2018-02-25T11:24:49.000Z</time>
      </trkpt>
      <trkpt lat="43.5463" lon="2.99091">
        <ele>262.3</ele>
        <time>2018-02-25T11:24:52.000Z</time>
      </trkpt>
      <trkpt lat="43.54628" lon="2.99087">
        <ele>262.1</ele>
        <time>2018-02-25T11:24:56.000Z</time>
      </trkpt>
      <trkpt lat="43.54625" lon="2.99084">
        <ele>261.9</ele>
        <time>2018-02-25T11:24:59.000Z</time>
      </trkpt>
      <trkpt lat="43.54625" lon="2.9908">
        <ele>261.8</ele>
        <time>2018-02-25T11:25:04.000Z</time>
      </trkpt>
      <trkpt lat="43.54627" lon="2.99076">
        <ele>261.5</ele>
        <time>2018-02-25T11:25:07.000Z</time>
      </trkpt>
      <trkpt lat="43.5463" lon="2.99075">
        <ele>261.3</ele>
        <time>2018-02-25T11:25:09.000Z</time>
      </trkpt>
      <trkpt lat="43.54633" lon="2.99073">
        <ele>261.1</ele>
        <time>2018-02-25T11:25:13.000Z</time>
      </trkpt>
      <trkpt lat="43.54636" lon="2.9907">
        <ele>261</ele>
        <time>2018-02-25T11:25:19.000Z</time>
      </trkpt>
      <trkpt lat="43.54637" lon="2.99067">
        <ele>261.1</ele>
        <time>2018-02-25T11:25:23.000Z</time>
      </trkpt>
      <trkpt lat="43.54637" lon="2.99063">
        <ele>261.1</ele>
        <time>2018-02-25T11:25:27.000Z</time>
      </trkpt>
      <trkpt lat="43.54635" lon="2.9906">
        <ele>261.2</ele>
        <time>2018-02-25T11:25:30.000Z</time>
      </trkpt>
      <trkpt lat="43.54634" lon="2.99056">
        <ele>261.3</ele>
        <time>2018-02-25T11:25:42.000Z</time>
      </trkpt>
      <trkpt lat="43.54636" lon="2.99054">
        <ele>261</ele>
        <time>2018-02-25T11:25:45.000Z</time>
      </trkpt>
      <trkpt lat="43.54638" lon="2.99048">
        <ele>260.5</ele>
        <time>2018-02-25T11:26:06.000Z</time>
      </trkpt>
      <trkpt lat="43.54637" lon="2.99044">
        <ele>260.1</ele>
        <time>2018-02-25T11:26:10.000Z</time>
      </trkpt>
      <trkpt lat="43.54639" lon="2.9904">
        <ele>259.6</ele>
        <time>2018-02-25T11:26:14.000Z</time>
      </trkpt>
      <trkpt lat="43.54641" lon="2.99037">
        <ele>259.2</ele>
        <time>2018-02-25T11:26:17.000Z</time>
      </trkpt>
      <trkpt lat="43.54643" lon="2.99034">
        <ele>258.8</ele>
        <time>2018-02-25T11:26:20.000Z</time>
      </trkpt>
      <trkpt lat="43.54644" lon="2.9903">
        <ele>258.2</ele>
        <time>2018-02-25T11:26:23.000Z</time>
      </trkpt>
      <trkpt lat="43.54646" lon="2.99027">
        <ele>257.7</ele>
        <time>2018-02-25T11:26:27.000Z</time>
      </trkpt>
      <trkpt lat="43.54646" lon="2.99023">
        <ele>257.1</ele>
        <time>2018-02-25T11:26:30.000Z</time>
      </trkpt>
      <trkpt lat="43.54645" lon="2.99018">
        <ele>257.3</ele>
        <time>2018-02-25T11:26:34.000Z</time>
      </trkpt>
      <trkpt lat="43.54644" lon="2.99014">
        <ele>258</ele>
        <time>2018-02-25T11:26:38.000Z</time>
      </trkpt>
      <trkpt lat="43.54642" lon="2.99012">
        <ele>258.7</ele>
        <time>2018-02-25T11:26:41.000Z</time>
      </trkpt>
      <trkpt lat="43.5464" lon="2.99004">
        <ele>259.7</ele>
        <time>2018-02-25T11:26:59.000Z</time>
      </trkpt>
      <trkpt lat="43.54639" lon="2.99">
        <ele>260.1</ele>
        <time>2018-02-25T11:27:05.000Z</time>
      </trkpt>
      <trkpt lat="43.54639" lon="2.98995">
        <ele>260.6</ele>
        <time>2018-02-25T11:27:09.000Z</time>
      </trkpt>
      <trkpt lat="43.54639" lon="2.98991">
        <ele>261.2</ele>
        <time>2018-02-25T11:27:12.000Z</time>
      </trkpt>
      <trkpt lat="43.54639" lon="2.98987">
        <ele>261.7</ele>
        <time>2018-02-25T11:27:15.000Z</time>
      </trkpt>
      <trkpt lat="43.54639" lon="2.98983">
        <ele>262</ele>
        <time>2018-02-25T11:27:18.000Z</time>
      </trkpt>
      <trkpt lat="43.5464" lon="2.98979">
        <ele>262</ele>
        <time>2018-02-25T11:27:21.000Z</time>
      </trkpt>
      <trkpt lat="43.5464" lon="2.98974">
        <ele>261.9</ele>
        <time>2018-02-25T11:27:24.000Z</time>
      </trkpt>
      <trkpt lat="43.5464" lon="2.98969">
        <ele>261.2</ele>
        <time>2018-02-25T11:27:27.000Z</time>
      </trkpt>
      <trkpt lat="43.54639" lon="2.98964">
        <ele>260.5</ele>
        <time>2018-02-25T11:27:30.000Z</time>
      </trkpt>
      <trkpt lat="43.54639" lon="2.9896">
        <ele>259.9</ele>
        <time>2018-02-25T11:27:34.000Z</time>
      </trkpt>
      <trkpt lat="43.5464" lon="2.98957">
        <ele>259.3</ele>
        <time>2018-02-25T11:27:41.000Z</time>
      </trkpt>
      <trkpt lat="43.54637" lon="2.98954">
        <ele>259.3</ele>
        <time>2018-02-25T11:27:56.000Z</time>
      </trkpt>
      <trkpt lat="43.54635" lon="2.98951">
        <ele>259.4</ele>
        <time>2018-02-25T11:28:03.000Z</time>
      </trkpt>
      <trkpt lat="43.54633" lon="2.98948">
        <ele>259.8</ele>
        <time>2018-02-25T11:28:07.000Z</time>
      </trkpt>
      <trkpt lat="43.54634" lon="2.98944">
        <ele>261.5</ele>
        <time>2018-02-25T11:28:10.000Z</time>
      </trkpt>
      <trkpt lat="43.54634" lon="2.98939">
        <ele>263.3</ele>
        <time>2018-02-25T11:28:16.000Z</time>
      </trkpt>
      <trkpt lat="43.54635" lon="2.98936">
        <ele>262.9</ele>
        <time>2018-02-25T11:28:20.000Z</time>
      </trkpt>
      <trkpt lat="43.54637" lon="2.98933">
        <ele>262.4</ele>
        <time>2018-02-25T11:28:24.000Z</time>
      </trkpt>
      <trkpt lat="43.54638" lon="2.98929">
        <ele>262</ele>
        <time>2018-02-25T11:28:33.000Z</time>
      </trkpt>
      <trkpt lat="43.54637" lon="2.98923">
        <ele>262.2</ele>
        <time>2018-02-25T11:28:39.000Z</time>
      </trkpt>
      <trkpt lat="43.54635" lon="2.98919">
        <ele>262.8</ele>
        <time>2018-02-25T11:28:41.000Z</time>
      </trkpt>
      <trkpt lat="43.54633" lon="2.98915">
        <ele>264</ele>
        <time>2018-02-25T11:28:45.000Z</time>
      </trkpt>
      <trkpt lat="43.54634" lon="2.98905">
        <ele>266.8</ele>
        <time>2018-02-25T11:31:52.000Z</time>
      </trkpt>
      <trkpt lat="43.54633" lon="2.989">
        <ele>268</ele>
        <time>2018-02-25T11:31:55.000Z</time>
      </trkpt>
      <trkpt lat="43.54633" lon="2.98896">
        <ele>269.1</ele>
        <time>2018-02-25T11:31:58.000Z</time>
      </trkpt>
      <trkpt lat="43.54633" lon="2.98891">
        <ele>270.2</ele>
        <time>2018-02-25T11:32:01.000Z</time>
      </trkpt>
      <trkpt lat="43.54631" lon="2.98887">
        <ele>271.2</ele>
        <time>2018-02-25T11:32:03.000Z</time>
      </trkpt>
      <trkpt lat="43.5463" lon="2.98882">
        <ele>272.1</ele>
        <time>2018-02-25T11:32:05.000Z</time>
      </trkpt>
      <trkpt lat="43.54629" lon="2.98876">
        <ele>272.4</ele>
        <time>2018-02-25T11:32:07.000Z</time>
      </trkpt>
      <trkpt lat="43.54631" lon="2.98869">
        <ele>272.9</ele>
        <time>2018-02-25T11:32:09.000Z</time>
      </trkpt>
      <trkpt lat="43.54631" lon="2.98865">
        <ele>273.8</ele>
        <time>2018-02-25T11:32:10.000Z</time>
      </trkpt>
      <trkpt lat="43.54632" lon="2.9886">
        <ele>274.9</ele>
        <time>2018-02-25T11:32:11.000Z</time>
      </trkpt>
      <trkpt lat="43.54632" lon="2.98856">
        <ele>275.3</ele>
        <time>2018-02-25T11:32:12.000Z</time>
      </trkpt>
      <trkpt lat="43.54632" lon="2.98852">
        <ele>274.6</ele>
        <time>2018-02-25T11:32:13.000Z</time>
      </trkpt>
      <trkpt lat="43.54632" lon="2.98848">
        <ele>273.9</ele>
        <time>2018-02-25T11:32:14.000Z</time>
      </trkpt>
      <trkpt lat="43.54632" lon="2.98844">
        <ele>273.8</ele>
        <time>2018-02-25T11:32:15.000Z</time>
      </trkpt>
      <trkpt lat="43.54632" lon="2.9884">
        <ele>273.9</ele>
        <time>2018-02-25T11:32:16.000Z</time>
      </trkpt>
      <trkpt lat="43.54633" lon="2.98835">
        <ele>273.6</ele>
        <time>2018-02-25T11:32:17.000Z</time>
      </trkpt>
      <trkpt lat="43.54634" lon="2.98831">
        <ele>272.9</ele>
        <time>2018-02-25T11:32:18.000Z</time>
      </trkpt>
      <trkpt lat="43.54634" lon="2.98826">
        <ele>272.5</ele>
        <time>2018-02-25T11:32:19.000Z</time>
      </trkpt>
      <trkpt lat="43.54632" lon="2.98821">
        <ele>272.8</ele>
        <time>2018-02-25T11:32:21.000Z</time>
      </trkpt>
      <trkpt lat="43.54631" lon="2.98818">
        <ele>272.8</ele>
        <time>2018-02-25T11:32:24.000Z</time>
      </trkpt>
      <trkpt lat="43.54631" lon="2.98813">
        <ele>271.9</ele>
        <time>2018-02-25T11:32:28.000Z</time>
      </trkpt>
      <trkpt lat="43.54633" lon="2.98809">
        <ele>271</ele>
        <time>2018-02-25T11:32:31.000Z</time>
      </trkpt>
      <trkpt lat="43.54635" lon="2.98805">
        <ele>270.1</ele>
        <time>2018-02-25T11:32:34.000Z</time>
      </trkpt>
      <trkpt lat="43.54637" lon="2.98802">
        <ele>269.2</ele>
        <time>2018-02-25T11:32:37.000Z</time>
      </trkpt>
      <trkpt lat="43.54636" lon="2.98798">
        <ele>268</ele>
        <time>2018-02-25T11:32:40.000Z</time>
      </trkpt>
      <trkpt lat="43.54636" lon="2.98794">
        <ele>267.1</ele>
        <time>2018-02-25T11:32:43.000Z</time>
      </trkpt>
      <trkpt lat="43.54635" lon="2.9879">
        <ele>267</ele>
        <time>2018-02-25T11:32:47.000Z</time>
      </trkpt>
      <trkpt lat="43.54636" lon="2.98786">
        <ele>267</ele>
        <time>2018-02-25T11:32:51.000Z</time>
      </trkpt>
      <trkpt lat="43.54636" lon="2.9878">
        <ele>267</ele>
        <time>2018-02-25T11:32:54.000Z</time>
      </trkpt>
      <trkpt lat="43.54634" lon="2.98776">
        <ele>267.9</ele>
        <time>2018-02-25T11:32:56.000Z</time>
      </trkpt>
      <trkpt lat="43.54629" lon="2.98766">
        <ele>270.4</ele>
        <time>2018-02-25T11:33:01.000Z</time>
      </trkpt>
      <trkpt lat="43.54627" lon="2.98763">
        <ele>271.1</ele>
        <time>2018-02-25T11:33:03.000Z</time>
      </trkpt>
      <trkpt lat="43.54625" lon="2.9876">
        <ele>271.8</ele>
        <time>2018-02-25T11:33:07.000Z</time>
      </trkpt>
      <trkpt lat="43.54624" lon="2.98756">
        <ele>272.5</ele>
        <time>2018-02-25T11:33:09.000Z</time>
      </trkpt>
      <trkpt lat="43.54623" lon="2.98751">
        <ele>273.2</ele>
        <time>2018-02-25T11:33:11.000Z</time>
      </trkpt>
      <trkpt lat="43.54624" lon="2.98746">
        <ele>274</ele>
        <time>2018-02-25T11:33:13.000Z</time>
      </trkpt>
      <trkpt lat="43.54625" lon="2.98741">
        <ele>274.8</ele>
        <time>2018-02-25T11:33:15.000Z</time>
      </trkpt>
      <trkpt lat="43.54626" lon="2.98736">
        <ele>275.5</ele>
        <time>2018-02-25T11:33:20.000Z</time>
      </trkpt>
      <trkpt lat="43.54626" lon="2.98732">
        <ele>275.6</ele>
        <time>2018-02-25T11:33:22.000Z</time>
      </trkpt>
      <trkpt lat="43.54624" lon="2.98728">
        <ele>275.3</ele>
        <time>2018-02-25T11:33:24.000Z</time>
      </trkpt>
      <trkpt lat="43.54625" lon="2.98724">
        <ele>275.1</ele>
        <time>2018-02-25T11:33:29.000Z</time>
      </trkpt>
      <trkpt lat="43.54623" lon="2.98721">
        <ele>274.8</ele>
        <time>2018-02-25T11:33:34.000Z</time>
      </trkpt>
      <trkpt lat="43.54622" lon="2.98717">
        <ele>274.4</ele>
        <time>2018-02-25T11:33:39.000Z</time>
      </trkpt>
      <trkpt lat="43.54625" lon="2.98712">
        <ele>274.1</ele>
        <time>2018-02-25T11:33:43.000Z</time>
      </trkpt>
      <trkpt lat="43.54624" lon="2.98708">
        <ele>273.9</ele>
        <time>2018-02-25T11:33:46.000Z</time>
      </trkpt>
      <trkpt lat="43.54622" lon="2.98705">
        <ele>273.6</ele>
        <time>2018-02-25T11:33:50.000Z</time>
      </trkpt>
      <trkpt lat="43.54623" lon="2.98701">
        <ele>273.4</ele>
        <time>2018-02-25T11:33:54.000Z</time>
      </trkpt>
      <trkpt lat="43.54626" lon="2.98698">
        <ele>273.2</ele>
        <time>2018-02-25T11:33:56.000Z</time>
      </trkpt>
      <trkpt lat="43.54628" lon="2.98695">
        <ele>272.9</ele>
        <time>2018-02-25T11:33:59.000Z</time>
      </trkpt>
      <trkpt lat="43.54631" lon="2.98694">
        <ele>272</ele>
        <time>2018-02-25T11:34:02.000Z</time>
      </trkpt>
      <trkpt lat="43.5463" lon="2.98689">
        <ele>271</ele>
        <time>2018-02-25T11:34:05.000Z</time>
      </trkpt>
      <trkpt lat="43.54629" lon="2.98684">
        <ele>270.9</ele>
        <time>2018-02-25T11:34:08.000Z</time>
      </trkpt>
      <trkpt lat="43.54628" lon="2.98678">
        <ele>270.8</ele>
        <time>2018-02-25T11:34:10.000Z</time>
      </trkpt>
      <trkpt lat="43.54626" lon="2.98673">
        <ele>270.7</ele>
        <time>2018-02-25T11:34:12.000Z</time>
      </trkpt>
      <trkpt lat="43.54623" lon="2.98667">
        <ele>270.6</ele>
        <time>2018-02-25T11:34:14.000Z</time>
      </trkpt>
      <trkpt lat="43.54622" lon="2.98663">
        <ele>270.5</ele>
        <time>2018-02-25T11:34:16.000Z</time>
      </trkpt>
      <trkpt lat="43.54623" lon="2.98658">
        <ele>270.4</ele>
        <time>2018-02-25T11:34:20.000Z</time>
      </trkpt>
      <trkpt lat="43.54625" lon="2.98656">
        <ele>269.7</ele>
        <time>2018-02-25T11:34:23.000Z</time>
      </trkpt>
      <trkpt lat="43.54627" lon="2.98652">
        <ele>269</ele>
        <time>2018-02-25T11:34:26.000Z</time>
      </trkpt>
      <trkpt lat="43.54628" lon="2.98647">
        <ele>268.4</ele>
        <time>2018-02-25T11:34:30.000Z</time>
      </trkpt>
      <trkpt lat="43.54628" lon="2.98643">
        <ele>268.3</ele>
        <time>2018-02-25T11:34:34.000Z</time>
      </trkpt>
      <trkpt lat="43.54625" lon="2.9864">
        <ele>268.1</ele>
        <time>2018-02-25T11:34:37.000Z</time>
      </trkpt>
      <trkpt lat="43.54622" lon="2.98633">
        <ele>270</ele>
        <time>2018-02-25T11:35:06.000Z</time>
      </trkpt>
      <trkpt lat="43.54619" lon="2.9863">
        <ele>271.1</ele>
        <time>2018-02-25T11:35:09.000Z</time>
      </trkpt>
      <trkpt lat="43.54617" lon="2.98629">
        <ele>271.5</ele>
        <time>2018-02-25T11:35:11.000Z</time>
      </trkpt>
      <trkpt lat="43.54614" lon="2.98626">
        <ele>272.2</ele>
        <time>2018-02-25T11:35:13.000Z</time>
      </trkpt>
      <trkpt lat="43.54611" lon="2.98623">
        <ele>273.5</ele>
        <time>2018-02-25T11:35:16.000Z</time>
      </trkpt>
      <trkpt lat="43.54609" lon="2.98618">
        <ele>274.7</ele>
        <time>2018-02-25T11:35:19.000Z</time>
      </trkpt>
      <trkpt lat="43.54607" lon="2.98613">
        <ele>275.1</ele>
        <time>2018-02-25T11:35:22.000Z</time>
      </trkpt>
      <trkpt lat="43.54605" lon="2.9861">
        <ele>275.6</ele>
        <time>2018-02-25T11:35:24.000Z</time>
      </trkpt>
      <trkpt lat="43.54604" lon="2.98606">
        <ele>276.4</ele>
        <time>2018-02-25T11:35:27.000Z</time>
      </trkpt>
      <trkpt lat="43.54601" lon="2.98604">
        <ele>277.2</ele>
        <time>2018-02-25T11:35:30.000Z</time>
      </trkpt>
      <trkpt lat="43.54598" lon="2.98602">
        <ele>278</ele>
        <time>2018-02-25T11:35:33.000Z</time>
      </trkpt>
      <trkpt lat="43.54596" lon="2.98599">
        <ele>278.6</ele>
        <time>2018-02-25T11:35:36.000Z</time>
      </trkpt>
      <trkpt lat="43.54594" lon="2.98595">
        <ele>279.1</ele>
        <time>2018-02-25T11:35:45.000Z</time>
      </trkpt>
      <trkpt lat="43.54589" lon="2.98587">
        <ele>280</ele>
        <time>2018-02-25T11:35:57.000Z</time>
      </trkpt>
      <trkpt lat="43.54585" lon="2.98583">
        <ele>279.9</ele>
        <time>2018-02-25T11:35:59.000Z</time>
      </trkpt>
      <trkpt lat="43.54582" lon="2.9858">
        <ele>279.8</ele>
        <time>2018-02-25T11:36:00.000Z</time>
      </trkpt>
      <trkpt lat="43.5458" lon="2.98576">
        <ele>279.7</ele>
        <time>2018-02-25T11:36:01.000Z</time>
      </trkpt>
      <trkpt lat="43.54579" lon="2.98572">
        <ele>279.5</ele>
        <time>2018-02-25T11:36:02.000Z</time>
      </trkpt>
      <trkpt lat="43.54577" lon="2.98569">
        <ele>279.4</ele>
        <time>2018-02-25T11:36:03.000Z</time>
      </trkpt>
      <trkpt lat="43.54574" lon="2.98564">
        <ele>278.7</ele>
        <time>2018-02-25T11:36:05.000Z</time>
      </trkpt>
      <trkpt lat="43.54572" lon="2.98559">
        <ele>278.1</ele>
        <time>2018-02-25T11:36:07.000Z</time>
      </trkpt>
      <trkpt lat="43.54569" lon="2.98553">
        <ele>277.2</ele>
        <time>2018-02-25T11:36:09.000Z</time>
      </trkpt>
      <trkpt lat="43.54566" lon="2.98551">
        <ele>276.7</ele>
        <time>2018-02-25T11:36:10.000Z</time>
      </trkpt>
      <trkpt lat="43.54561" lon="2.98549">
        <ele>275.3</ele>
        <time>2018-02-25T11:36:12.000Z</time>
      </trkpt>
      <trkpt lat="43.54558" lon="2.98546">
        <ele>273.5</ele>
        <time>2018-02-25T11:36:14.000Z</time>
      </trkpt>
      <trkpt lat="43.54555" lon="2.98543">
        <ele>273</ele>
        <time>2018-02-25T11:36:17.000Z</time>
      </trkpt>
      <trkpt lat="43.54552" lon="2.98542">
        <ele>273</ele>
        <time>2018-02-25T11:36:19.000Z</time>
      </trkpt>
      <trkpt lat="43.54548" lon="2.98541">
        <ele>272.9</ele>
        <time>2018-02-25T11:36:21.000Z</time>
      </trkpt>
      <trkpt lat="43.54543" lon="2.98539">
        <ele>272.7</ele>
        <time>2018-02-25T11:36:23.000Z</time>
      </trkpt>
      <trkpt lat="43.54539" lon="2.98537">
        <ele>272.3</ele>
        <time>2018-02-25T11:36:24.000Z</time>
      </trkpt>
      <trkpt lat="43.54535" lon="2.98534">
        <ele>272.2</ele>
        <time>2018-02-25T11:36:25.000Z</time>
      </trkpt>
      <trkpt lat="43.54531" lon="2.98532">
        <ele>272</ele>
        <time>2018-02-25T11:36:26.000Z</time>
      </trkpt>
      <trkpt lat="43.54527" lon="2.98532">
        <ele>271.5</ele>
        <time>2018-02-25T11:36:27.000Z</time>
      </trkpt>
      <trkpt lat="43.54522" lon="2.98532">
        <ele>270.4</ele>
        <time>2018-02-25T11:36:28.000Z</time>
      </trkpt>
      <trkpt lat="43.54518" lon="2.98532">
        <ele>270.7</ele>
        <time>2018-02-25T11:36:29.000Z</time>
      </trkpt>
      <trkpt lat="43.54515" lon="2.98533">
        <ele>271.1</ele>
        <time>2018-02-25T11:36:30.000Z</time>
      </trkpt>
      <trkpt lat="43.54511" lon="2.98536">
        <ele>270.9</ele>
        <time>2018-02-25T11:36:32.000Z</time>
      </trkpt>
      <trkpt lat="43.54508" lon="2.98539">
        <ele>271.1</ele>
        <time>2018-02-25T11:36:34.000Z</time>
      </trkpt>
      <trkpt lat="43.54503" lon="2.98543">
        <ele>272</ele>
        <time>2018-02-25T11:36:36.000Z</time>
      </trkpt>
      <trkpt lat="43.545" lon="2.98544">
        <ele>272.5</ele>
        <time>2018-02-25T11:36:37.000Z</time>
      </trkpt>
      <trkpt lat="43.54495" lon="2.98544">
        <ele>273.6</ele>
        <time>2018-02-25T11:36:39.000Z</time>
      </trkpt>
      <trkpt lat="43.54491" lon="2.98543">
        <ele>274.6</ele>
        <time>2018-02-25T11:36:41.000Z</time>
      </trkpt>
      <trkpt lat="43.54487" lon="2.98542">
        <ele>275.5</ele>
        <time>2018-02-25T11:36:43.000Z</time>
      </trkpt>
      <trkpt lat="43.54484" lon="2.98541">
        <ele>275.9</ele>
        <time>2018-02-25T11:36:44.000Z</time>
      </trkpt>
      <trkpt lat="43.5448" lon="2.98539">
        <ele>276.2</ele>
        <time>2018-02-25T11:36:45.000Z</time>
      </trkpt>
      <trkpt lat="43.54477" lon="2.98538">
        <ele>276.5</ele>
        <time>2018-02-25T11:36:46.000Z</time>
      </trkpt>
      <trkpt lat="43.54475" lon="2.98538">
        <ele>277.5</ele>
        <time>2018-02-25T11:36:47.000Z</time>
      </trkpt>
      <trkpt lat="43.54472" lon="2.98539">
        <ele>278.6</ele>
        <time>2018-02-25T11:36:48.000Z</time>
      </trkpt>
      <trkpt lat="43.54469" lon="2.9854">
        <ele>279.3</ele>
        <time>2018-02-25T11:36:49.000Z</time>
      </trkpt>
      <trkpt lat="43.54465" lon="2.98541">
        <ele>278.6</ele>
        <time>2018-02-25T11:36:50.000Z</time>
      </trkpt>
      <trkpt lat="43.54461" lon="2.98541">
        <ele>278</ele>
        <time>2018-02-25T11:36:51.000Z</time>
      </trkpt>
      <trkpt lat="43.54458" lon="2.98541">
        <ele>277.6</ele>
        <time>2018-02-25T11:36:52.000Z</time>
      </trkpt>
      <trkpt lat="43.54453" lon="2.98538">
        <ele>278.1</ele>
        <time>2018-02-25T11:36:54.000Z</time>
      </trkpt>
      <trkpt lat="43.5445" lon="2.98535">
        <ele>279</ele>
        <time>2018-02-25T11:36:56.000Z</time>
      </trkpt>
      <trkpt lat="43.54449" lon="2.9853">
        <ele>280.3</ele>
        <time>2018-02-25T11:36:58.000Z</time>
      </trkpt>
      <trkpt lat="43.54449" lon="2.98524">
        <ele>281.1</ele>
        <time>2018-02-25T11:37:00.000Z</time>
      </trkpt>
      <trkpt lat="43.54451" lon="2.98516">
        <ele>280.9</ele>
        <time>2018-02-25T11:37:02.000Z</time>
      </trkpt>
      <trkpt lat="43.54454" lon="2.98511">
        <ele>280.1</ele>
        <time>2018-02-25T11:37:04.000Z</time>
      </trkpt>
      <trkpt lat="43.54454" lon="2.98506">
        <ele>279</ele>
        <time>2018-02-25T11:37:06.000Z</time>
      </trkpt>
      <trkpt lat="43.54456" lon="2.985">
        <ele>276.8</ele>
        <time>2018-02-25T11:37:08.000Z</time>
      </trkpt>
      <trkpt lat="43.54455" lon="2.98495">
        <ele>274.5</ele>
        <time>2018-02-25T11:37:10.000Z</time>
      </trkpt>
      <trkpt lat="43.54453" lon="2.98489">
        <ele>272.5</ele>
        <time>2018-02-25T11:37:12.000Z</time>
      </trkpt>
      <trkpt lat="43.54451" lon="2.98484">
        <ele>270.1</ele>
        <time>2018-02-25T11:37:13.000Z</time>
      </trkpt>
      <trkpt lat="43.5445" lon="2.9848">
        <ele>267.3</ele>
        <time>2018-02-25T11:37:14.000Z</time>
      </trkpt>
      <trkpt lat="43.54448" lon="2.98475">
        <ele>265.4</ele>
        <time>2018-02-25T11:37:15.000Z</time>
      </trkpt>
      <trkpt lat="43.54447" lon="2.98469">
        <ele>263.5</ele>
        <time>2018-02-25T11:37:16.000Z</time>
      </trkpt>
      <trkpt lat="43.54445" lon="2.98464">
        <ele>261.7</ele>
        <time>2018-02-25T11:37:17.000Z</time>
      </trkpt>
      <trkpt lat="43.54444" lon="2.98459">
        <ele>260</ele>
        <time>2018-02-25T11:37:18.000Z</time>
      </trkpt>
      <trkpt lat="43.54442" lon="2.98454">
        <ele>258.6</ele>
        <time>2018-02-25T11:37:19.000Z</time>
      </trkpt>
      <trkpt lat="43.54441" lon="2.9845">
        <ele>257.4</ele>
        <time>2018-02-25T11:37:20.000Z</time>
      </trkpt>
      <trkpt lat="43.54439" lon="2.98447">
        <ele>256.4</ele>
        <time>2018-02-25T11:37:21.000Z</time>
      </trkpt>
      <trkpt lat="43.54437" lon="2.98444">
        <ele>255.4</ele>
        <time>2018-02-25T11:37:24.000Z</time>
      </trkpt>
      <trkpt lat="43.54436" lon="2.9844">
        <ele>254.4</ele>
        <time>2018-02-25T11:37:28.000Z</time>
      </trkpt>
      <trkpt lat="43.54435" lon="2.98436">
        <ele>253.4</ele>
        <time>2018-02-25T11:37:31.000Z</time>
      </trkpt>
      <trkpt lat="43.54434" lon="2.98431">
        <ele>252.4</ele>
        <time>2018-02-25T11:37:35.000Z</time>
      </trkpt>
      <trkpt lat="43.54429" lon="2.9842">
        <ele>249.1</ele>
        <time>2018-02-25T11:37:58.000Z</time>
      </trkpt>
      <trkpt lat="43.54427" lon="2.98414">
        <ele>247.7</ele>
        <time>2018-02-25T11:38:01.000Z</time>
      </trkpt>
      <trkpt lat="43.54425" lon="2.98408">
        <ele>247.1</ele>
        <time>2018-02-25T11:38:03.000Z</time>
      </trkpt>
      <trkpt lat="43.54424" lon="2.98405">
        <ele>246.8</ele>
        <time>2018-02-25T11:38:04.000Z</time>
      </trkpt>
      <trkpt lat="43.5442" lon="2.98401">
        <ele>246.3</ele>
        <time>2018-02-25T11:38:06.000Z</time>
      </trkpt>
      <trkpt lat="43.54417" lon="2.98399">
        <ele>245.5</ele>
        <time>2018-02-25T11:38:08.000Z</time>
      </trkpt>
      <trkpt lat="43.54414" lon="2.98395">
        <ele>244.9</ele>
        <time>2018-02-25T11:38:10.000Z</time>
      </trkpt>
      <trkpt lat="43.54412" lon="2.98389">
        <ele>245.3</ele>
        <time>2018-02-25T11:38:12.000Z</time>
      </trkpt>
      <trkpt lat="43.5441" lon="2.98385">
        <ele>246</ele>
        <time>2018-02-25T11:38:13.000Z</time>
      </trkpt>
      <trkpt lat="43.54408" lon="2.9838">
        <ele>247.6</ele>
        <time>2018-02-25T11:38:14.000Z</time>
      </trkpt>
      <trkpt lat="43.54407" lon="2.98375">
        <ele>248.8</ele>
        <time>2018-02-25T11:38:15.000Z</time>
      </trkpt>
      <trkpt lat="43.54407" lon="2.9837">
        <ele>249.4</ele>
        <time>2018-02-25T11:38:16.000Z</time>
      </trkpt>
      <trkpt lat="43.54406" lon="2.98366">
        <ele>250</ele>
        <time>2018-02-25T11:38:17.000Z</time>
      </trkpt>
      <trkpt lat="43.54405" lon="2.98362">
        <ele>249.4</ele>
        <time>2018-02-25T11:38:18.000Z</time>
      </trkpt>
      <trkpt lat="43.54401" lon="2.98358">
        <ele>247.4</ele>
        <time>2018-02-25T11:38:20.000Z</time>
      </trkpt>
      <trkpt lat="43.54398" lon="2.98357">
        <ele>245.7</ele>
        <time>2018-02-25T11:38:22.000Z</time>
      </trkpt>
      <trkpt lat="43.54397" lon="2.98348">
        <ele>246.2</ele>
        <time>2018-02-25T11:38:24.000Z</time>
      </trkpt>
      <trkpt lat="43.54398" lon="2.98343">
        <ele>246.3</ele>
        <time>2018-02-25T11:38:25.000Z</time>
      </trkpt>
      <trkpt lat="43.54398" lon="2.98339">
        <ele>245.9</ele>
        <time>2018-02-25T11:38:26.000Z</time>
      </trkpt>
      <trkpt lat="43.54397" lon="2.98334">
        <ele>245.2</ele>
        <time>2018-02-25T11:38:27.000Z</time>
      </trkpt>
      <trkpt lat="43.54396" lon="2.9833">
        <ele>243.8</ele>
        <time>2018-02-25T11:38:28.000Z</time>
      </trkpt>
      <trkpt lat="43.54395" lon="2.98326">
        <ele>242.5</ele>
        <time>2018-02-25T11:38:29.000Z</time>
      </trkpt>
      <trkpt lat="43.54393" lon="2.98322">
        <ele>240.5</ele>
        <time>2018-02-25T11:38:31.000Z</time>
      </trkpt>
      <trkpt lat="43.5439" lon="2.98317">
        <ele>238.8</ele>
        <time>2018-02-25T11:38:33.000Z</time>
      </trkpt>
      <trkpt lat="43.54387" lon="2.98312">
        <ele>237.5</ele>
        <time>2018-02-25T11:38:35.000Z</time>
      </trkpt>
      <trkpt lat="43.54387" lon="2.98307">
        <ele>236.7</ele>
        <time>2018-02-25T11:38:36.000Z</time>
      </trkpt>
      <trkpt lat="43.54388" lon="2.98303">
        <ele>235.8</ele>
        <time>2018-02-25T11:38:37.000Z</time>
      </trkpt>
      <trkpt lat="43.54388" lon="2.98296">
        <ele>231.3</ele>
        <time>2018-02-25T11:38:39.000Z</time>
      </trkpt>
      <trkpt lat="43.54388" lon="2.98289">
        <ele>227</ele>
        <time>2018-02-25T11:38:41.000Z</time>
      </trkpt>
      <trkpt lat="43.54387" lon="2.98284">
        <ele>224.4</ele>
        <time>2018-02-25T11:38:43.000Z</time>
      </trkpt>
      <trkpt lat="43.54386" lon="2.98279">
        <ele>221.5</ele>
        <time>2018-02-25T11:38:45.000Z</time>
      </trkpt>
      <trkpt lat="43.54387" lon="2.98275">
        <ele>219.7</ele>
        <time>2018-02-25T11:38:46.000Z</time>
      </trkpt>
      <trkpt lat="43.54388" lon="2.98271">
        <ele>217.7</ele>
        <time>2018-02-25T11:38:47.000Z</time>
      </trkpt>
      <trkpt lat="43.54388" lon="2.98266">
        <ele>216</ele>
        <time>2018-02-25T11:38:49.000Z</time>
      </trkpt>
      <trkpt lat="43.54385" lon="2.98265">
        <ele>214.8</ele>
        <time>2018-02-25T11:38:52.000Z</time>
      </trkpt>
      <trkpt lat="43.54383" lon="2.98269">
        <ele>213.9</ele>
        <time>2018-02-25T11:38:53.000Z</time>
      </trkpt>
      <trkpt lat="43.54381" lon="2.98273">
        <ele>211.4</ele>
        <time>2018-02-25T11:38:54.000Z</time>
      </trkpt>
      <trkpt lat="43.5438" lon="2.98276">
        <ele>209.3</ele>
        <time>2018-02-25T11:38:55.000Z</time>
      </trkpt>
      <trkpt lat="43.54376" lon="2.9828">
        <ele>207.9</ele>
        <time>2018-02-25T11:38:57.000Z</time>
      </trkpt>
      <trkpt lat="43.54373" lon="2.9828">
        <ele>208.8</ele>
        <time>2018-02-25T11:38:58.000Z</time>
      </trkpt>
      <trkpt lat="43.54369" lon="2.98279">
        <ele>212.6</ele>
        <time>2018-02-25T11:38:59.000Z</time>
      </trkpt>
      <trkpt lat="43.54364" lon="2.98278">
        <ele>216.8</ele>
        <time>2018-02-25T11:39:00.000Z</time>
      </trkpt>
      <trkpt lat="43.5436" lon="2.98277">
        <ele>220.4</ele>
        <time>2018-02-25T11:39:01.000Z</time>
      </trkpt>
      <trkpt lat="43.54357" lon="2.98276">
        <ele>222.4</ele>
        <time>2018-02-25T11:39:02.000Z</time>
      </trkpt>
      <trkpt lat="43.54353" lon="2.98275">
        <ele>224.5</ele>
        <time>2018-02-25T11:39:04.000Z</time>
      </trkpt>
      <trkpt lat="43.54348" lon="2.98272">
        <ele>227.9</ele>
        <time>2018-02-25T11:39:06.000Z</time>
      </trkpt>
      <trkpt lat="43.54345" lon="2.98269">
        <ele>230.7</ele>
        <time>2018-02-25T11:39:07.000Z</time>
      </trkpt>
      <trkpt lat="43.54341" lon="2.98266">
        <ele>232.4</ele>
        <time>2018-02-25T11:39:08.000Z</time>
      </trkpt>
      <trkpt lat="43.54337" lon="2.98263">
        <ele>233.9</ele>
        <time>2018-02-25T11:39:09.000Z</time>
      </trkpt>
      <trkpt lat="43.54333" lon="2.9826">
        <ele>234.9</ele>
        <time>2018-02-25T11:39:10.000Z</time>
      </trkpt>
      <trkpt lat="43.54331" lon="2.98256">
        <ele>235.3</ele>
        <time>2018-02-25T11:39:11.000Z</time>
      </trkpt>
      <trkpt lat="43.54328" lon="2.98252">
        <ele>235.7</ele>
        <time>2018-02-25T11:39:12.000Z</time>
      </trkpt>
      <trkpt lat="43.54326" lon="2.98248">
        <ele>236.8</ele>
        <time>2018-02-25T11:39:13.000Z</time>
      </trkpt>
      <trkpt lat="43.54324" lon="2.98243">
        <ele>236.9</ele>
        <time>2018-02-25T11:39:14.000Z</time>
      </trkpt>
      <trkpt lat="43.5432" lon="2.98238">
        <ele>236.6</ele>
        <time>2018-02-25T11:39:15.000Z</time>
      </trkpt>
      <trkpt lat="43.54317" lon="2.98232">
        <ele>236.1</ele>
        <time>2018-02-25T11:39:16.000Z</time>
      </trkpt>
      <trkpt lat="43.54313" lon="2.98227">
        <ele>235.2</ele>
        <time>2018-02-25T11:39:17.000Z</time>
      </trkpt>
      <trkpt lat="43.5431" lon="2.98224">
        <ele>234.2</ele>
        <time>2018-02-25T11:39:18.000Z</time>
      </trkpt>
      <trkpt lat="43.54307" lon="2.9822">
        <ele>232.1</ele>
        <time>2018-02-25T11:39:19.000Z</time>
      </trkpt>
      <trkpt lat="43.54304" lon="2.98218">
        <ele>230</ele>
        <time>2018-02-25T11:39:20.000Z</time>
      </trkpt>
      <trkpt lat="43.543" lon="2.98215">
        <ele>230.5</ele>
        <time>2018-02-25T11:39:21.000Z</time>
      </trkpt>
      <trkpt lat="43.54297" lon="2.98213">
        <ele>230.8</ele>
        <time>2018-02-25T11:39:22.000Z</time>
      </trkpt>
      <trkpt lat="43.54293" lon="2.98212">
        <ele>229.7</ele>
        <time>2018-02-25T11:39:23.000Z</time>
      </trkpt>
      <trkpt lat="43.54289" lon="2.9821">
        <ele>229.1</ele>
        <time>2018-02-25T11:39:24.000Z</time>
      </trkpt>
      <trkpt lat="43.54285" lon="2.98209">
        <ele>229.6</ele>
        <time>2018-02-25T11:39:25.000Z</time>
      </trkpt>
      <trkpt lat="43.54282" lon="2.98208">
        <ele>229.9</ele>
        <time>2018-02-25T11:39:26.000Z</time>
      </trkpt>
      <trkpt lat="43.54278" lon="2.98206">
        <ele>230.1</ele>
        <time>2018-02-25T11:39:27.000Z</time>
      </trkpt>
      <trkpt lat="43.54275" lon="2.98203">
        <ele>230.2</ele>
        <time>2018-02-25T11:39:28.000Z</time>
      </trkpt>
      <trkpt lat="43.54272" lon="2.98199">
        <ele>230.3</ele>
        <time>2018-02-25T11:39:29.000Z</time>
      </trkpt>
      <trkpt lat="43.54269" lon="2.98195">
        <ele>231.1</ele>
        <time>2018-02-25T11:39:30.000Z</time>
      </trkpt>
      <trkpt lat="43.54265" lon="2.9819">
        <ele>232</ele>
        <time>2018-02-25T11:39:31.000Z</time>
      </trkpt>
      <trkpt lat="43.54261" lon="2.98185">
        <ele>231.2</ele>
        <time>2018-02-25T11:39:32.000Z</time>
      </trkpt>
      <trkpt lat="43.54258" lon="2.98179">
        <ele>230</ele>
        <time>2018-02-25T11:39:33.000Z</time>
      </trkpt>
      <trkpt lat="43.54255" lon="2.98175">
        <ele>229.6</ele>
        <time>2018-02-25T11:39:34.000Z</time>
      </trkpt>
      <trkpt lat="43.54253" lon="2.98171">
        <ele>229.2</ele>
        <time>2018-02-25T11:39:35.000Z</time>
      </trkpt>
      <trkpt lat="43.5425" lon="2.98166">
        <ele>228.4</ele>
        <time>2018-02-25T11:39:36.000Z</time>
      </trkpt>
      <trkpt lat="43.54248" lon="2.98161">
        <ele>227.1</ele>
        <time>2018-02-25T11:39:37.000Z</time>
      </trkpt>
      <trkpt lat="43.54246" lon="2.98154">
        <ele>225.3</ele>
        <time>2018-02-25T11:39:38.000Z</time>
      </trkpt>
      <trkpt lat="43.54245" lon="2.98147">
        <ele>224</ele>
        <time>2018-02-25T11:39:39.000Z</time>
      </trkpt>
      <trkpt lat="43.54244" lon="2.9814">
        <ele>221.2</ele>
        <time>2018-02-25T11:39:40.000Z</time>
      </trkpt>
      <trkpt lat="43.54242" lon="2.98125">
        <ele>216.7</ele>
        <time>2018-02-25T11:39:41.000Z</time>
      </trkpt>
      <trkpt lat="43.54237" lon="2.9812">
        <ele>214.8</ele>
        <time>2018-02-25T11:39:42.000Z</time>
      </trkpt>
      <trkpt lat="43.54232" lon="2.98116">
        <ele>214.3</ele>
        <time>2018-02-25T11:39:43.000Z</time>
      </trkpt>
      <trkpt lat="43.54228" lon="2.98114">
        <ele>212.5</ele>
        <time>2018-02-25T11:39:45.000Z</time>
      </trkpt>
      <trkpt lat="43.54227" lon="2.98108">
        <ele>211.9</ele>
        <time>2018-02-25T11:39:48.000Z</time>
      </trkpt>
      <trkpt lat="43.54227" lon="2.98104">
        <ele>211.9</ele>
        <time>2018-02-25T11:39:51.000Z</time>
      </trkpt>
      <trkpt lat="43.54224" lon="2.98101">
        <ele>211.9</ele>
        <time>2018-02-25T11:39:57.000Z</time>
      </trkpt>
      <trkpt lat="43.54221" lon="2.981">
        <ele>211.9</ele>
        <time>2018-02-25T11:40:01.000Z</time>
      </trkpt>
      <trkpt lat="43.54218" lon="2.98099">
        <ele>212</ele>
        <time>2018-02-25T11:40:08.000Z</time>
      </trkpt>
      <trkpt lat="43.54215" lon="2.98096">
        <ele>212.1</ele>
        <time>2018-02-25T11:40:14.000Z</time>
      </trkpt>
      <trkpt lat="43.54213" lon="2.98093">
        <ele>212.2</ele>
        <time>2018-02-25T11:40:17.000Z</time>
      </trkpt>
      <trkpt lat="43.54212" lon="2.98089">
        <ele>212.3</ele>
        <time>2018-02-25T11:40:20.000Z</time>
      </trkpt>
      <trkpt lat="43.54212" lon="2.98085">
        <ele>212.4</ele>
        <time>2018-02-25T11:40:24.000Z</time>
      </trkpt>
      <trkpt lat="43.5421" lon="2.98082">
        <ele>211.6</ele>
        <time>2018-02-25T11:40:29.000Z</time>
      </trkpt>
      <trkpt lat="43.54208" lon="2.98078">
        <ele>210.6</ele>
        <time>2018-02-25T11:40:30.000Z</time>
      </trkpt>
      <trkpt lat="43.54207" lon="2.98074">
        <ele>209.8</ele>
        <time>2018-02-25T11:40:31.000Z</time>
      </trkpt>
      <trkpt lat="43.54205" lon="2.98069">
        <ele>209.1</ele>
        <time>2018-02-25T11:40:32.000Z</time>
      </trkpt>
      <trkpt lat="43.54202" lon="2.98063">
        <ele>207.5</ele>
        <time>2018-02-25T11:40:33.000Z</time>
      </trkpt>
      <trkpt lat="43.54201" lon="2.98058">
        <ele>205.5</ele>
        <time>2018-02-25T11:40:34.000Z</time>
      </trkpt>
      <trkpt lat="43.54199" lon="2.98052">
        <ele>204.2</ele>
        <time>2018-02-25T11:40:35.000Z</time>
      </trkpt>
      <trkpt lat="43.54198" lon="2.98047">
        <ele>203.1</ele>
        <time>2018-02-25T11:40:36.000Z</time>
      </trkpt>
      <trkpt lat="43.54195" lon="2.98041">
        <ele>200.8</ele>
        <time>2018-02-25T11:40:38.000Z</time>
      </trkpt>
      <trkpt lat="43.54191" lon="2.98036">
        <ele>199</ele>
        <time>2018-02-25T11:40:40.000Z</time>
      </trkpt>
      <trkpt lat="43.54188" lon="2.98031">
        <ele>197.7</ele>
        <time>2018-02-25T11:40:42.000Z</time>
      </trkpt>
      <trkpt lat="43.54184" lon="2.98027">
        <ele>197.5</ele>
        <time>2018-02-25T11:40:44.000Z</time>
      </trkpt>
      <trkpt lat="43.54182" lon="2.98024">
        <ele>197.3</ele>
        <time>2018-02-25T11:40:46.000Z</time>
      </trkpt>
      <trkpt lat="43.54179" lon="2.98021">
        <ele>196.8</ele>
        <time>2018-02-25T11:40:48.000Z</time>
      </trkpt>
      <trkpt lat="43.54177" lon="2.98014">
        <ele>195.6</ele>
        <time>2018-02-25T11:40:50.000Z</time>
      </trkpt>
      <trkpt lat="43.54175" lon="2.98007">
        <ele>194</ele>
        <time>2018-02-25T11:40:52.000Z</time>
      </trkpt>
      <trkpt lat="43.54171" lon="2.98">
        <ele>192.2</ele>
        <time>2018-02-25T11:40:53.000Z</time>
      </trkpt>
      <trkpt lat="43.54168" lon="2.97994">
        <ele>191.7</ele>
        <time>2018-02-25T11:40:54.000Z</time>
      </trkpt>
      <trkpt lat="43.54167" lon="2.97991">
        <ele>190.9</ele>
        <time>2018-02-25T11:40:55.000Z</time>
      </trkpt>
      <trkpt lat="43.54164" lon="2.97988">
        <ele>190.2</ele>
        <time>2018-02-25T11:40:56.000Z</time>
      </trkpt>
      <trkpt lat="43.54163" lon="2.97984">
        <ele>190</ele>
        <time>2018-02-25T11:40:58.000Z</time>
      </trkpt>
      <trkpt lat="43.54163" lon="2.97979">
        <ele>189.7</ele>
        <time>2018-02-25T11:41:00.000Z</time>
      </trkpt>
      <trkpt lat="43.54165" lon="2.97977">
        <ele>188.2</ele>
        <time>2018-02-25T11:41:02.000Z</time>
      </trkpt>
      <trkpt lat="43.54163" lon="2.97971">
        <ele>186.6</ele>
        <time>2018-02-25T11:41:05.000Z</time>
      </trkpt>
      <trkpt lat="43.54161" lon="2.97967">
        <ele>185.8</ele>
        <time>2018-02-25T11:41:06.000Z</time>
      </trkpt>
      <trkpt lat="43.54159" lon="2.97964">
        <ele>185.1</ele>
        <time>2018-02-25T11:41:07.000Z</time>
      </trkpt>
      <trkpt lat="43.54158" lon="2.97958">
        <ele>184</ele>
        <time>2018-02-25T11:41:09.000Z</time>
      </trkpt>
      <trkpt lat="43.54157" lon="2.97952">
        <ele>184</ele>
        <time>2018-02-25T11:41:11.000Z</time>
      </trkpt>
      <trkpt lat="43.54156" lon="2.97947">
        <ele>184</ele>
        <time>2018-02-25T11:41:25.000Z</time>
      </trkpt>
      <trkpt lat="43.54154" lon="2.97942">
        <ele>184</ele>
        <time>2018-02-25T11:41:27.000Z</time>
      </trkpt>
      <trkpt lat="43.54153" lon="2.97938">
        <ele>184</ele>
        <time>2018-02-25T11:41:29.000Z</time>
      </trkpt>
      <trkpt lat="43.54152" lon="2.97934">
        <ele>184</ele>
        <time>2018-02-25T11:41:33.000Z</time>
      </trkpt>
      <trkpt lat="43.54154" lon="2.9793">
        <ele>184</ele>
        <time>2018-02-25T11:41:43.000Z</time>
      </trkpt>
      <trkpt lat="43.54154" lon="2.97926">
        <ele>183.8</ele>
        <time>2018-02-25T11:41:44.000Z</time>
      </trkpt>
      <trkpt lat="43.54155" lon="2.97922">
        <ele>183.7</ele>
        <time>2018-02-25T11:41:45.000Z</time>
      </trkpt>
      <trkpt lat="43.54157" lon="2.97917">
        <ele>183.5</ele>
        <time>2018-02-25T11:41:46.000Z</time>
      </trkpt>
      <trkpt lat="43.5416" lon="2.97915">
        <ele>183.3</ele>
        <time>2018-02-25T11:41:47.000Z</time>
      </trkpt>
      <trkpt lat="43.54163" lon="2.97913">
        <ele>183.2</ele>
        <time>2018-02-25T11:41:48.000Z</time>
      </trkpt>
      <trkpt lat="43.54166" lon="2.97912">
        <ele>183</ele>
        <time>2018-02-25T11:41:49.000Z</time>
      </trkpt>
      <trkpt lat="43.54169" lon="2.97911">
        <ele>182.8</ele>
        <time>2018-02-25T11:41:50.000Z</time>
      </trkpt>
      <trkpt lat="43.54172" lon="2.97909">
        <ele>182.6</ele>
        <time>2018-02-25T11:41:51.000Z</time>
      </trkpt>
      <trkpt lat="43.54175" lon="2.97904">
        <ele>182.3</ele>
        <time>2018-02-25T11:41:53.000Z</time>
      </trkpt>
      <trkpt lat="43.54175" lon="2.979">
        <ele>182.2</ele>
        <time>2018-02-25T11:41:54.000Z</time>
      </trkpt>
      <trkpt lat="43.54176" lon="2.97896">
        <ele>182.1</ele>
        <time>2018-02-25T11:41:55.000Z</time>
      </trkpt>
      <trkpt lat="43.54177" lon="2.97889">
        <ele>181.9</ele>
        <time>2018-02-25T11:41:57.000Z</time>
      </trkpt>
      <trkpt lat="43.54179" lon="2.97885">
        <ele>181.9</ele>
        <time>2018-02-25T11:41:59.000Z</time>
      </trkpt>
      <trkpt lat="43.54183" lon="2.97878">
        <ele>182.1</ele>
        <time>2018-02-25T11:42:01.000Z</time>
      </trkpt>
      <trkpt lat="43.54186" lon="2.97874">
        <ele>182.7</ele>
        <time>2018-02-25T11:42:02.000Z</time>
      </trkpt>
      <trkpt lat="43.54189" lon="2.97869">
        <ele>183.1</ele>
        <time>2018-02-25T11:42:03.000Z</time>
      </trkpt>
      <trkpt lat="43.54193" lon="2.97865">
        <ele>183.6</ele>
        <time>2018-02-25T11:42:04.000Z</time>
      </trkpt>
      <trkpt lat="43.54197" lon="2.97861">
        <ele>183.8</ele>
        <time>2018-02-25T11:42:05.000Z</time>
      </trkpt>
      <trkpt lat="43.54201" lon="2.97857">
        <ele>183.9</ele>
        <time>2018-02-25T11:42:06.000Z</time>
      </trkpt>
      <trkpt lat="43.54204" lon="2.97853">
        <ele>183.9</ele>
        <time>2018-02-25T11:42:07.000Z</time>
      </trkpt>
      <trkpt lat="43.54201" lon="2.97842">
        <ele>183.5</ele>
        <time>2018-02-25T11:42:08.000Z</time>
      </trkpt>
      <trkpt lat="43.54199" lon="2.97834">
        <ele>183.1</ele>
        <time>2018-02-25T11:42:09.000Z</time>
      </trkpt>
      <trkpt lat="43.54198" lon="2.97828">
        <ele>182.6</ele>
        <time>2018-02-25T11:42:10.000Z</time>
      </trkpt>
      <trkpt lat="43.54201" lon="2.97823">
        <ele>181.9</ele>
        <time>2018-02-25T11:42:13.000Z</time>
      </trkpt>
      <trkpt lat="43.54204" lon="2.9782">
        <ele>181.5</ele>
        <time>2018-02-25T11:42:14.000Z</time>
      </trkpt>
      <trkpt lat="43.54199" lon="2.97818">
        <ele>180.9</ele>
        <time>2018-02-25T11:42:15.000Z</time>
      </trkpt>
      <trkpt lat="43.54203" lon="2.97818">
        <ele>180.4</ele>
        <time>2018-02-25T11:42:17.000Z</time>
      </trkpt>
      <trkpt lat="43.54204" lon="2.97814">
        <ele>180</ele>
        <time>2018-02-25T11:44:02.000Z</time>
      </trkpt>
      <trkpt lat="43.54201" lon="2.97815">
        <ele>180</ele>
        <time>2018-02-25T11:44:07.000Z</time>
      </trkpt>
      <trkpt lat="43.54204" lon="2.97818">
        <ele>180</ele>
        <time>2018-02-25T11:44:37.000Z</time>
      </trkpt>
      <trkpt lat="43.54207" lon="2.97823">
        <ele>180</ele>
        <time>2018-02-25T11:44:40.000Z</time>
      </trkpt>
      <trkpt lat="43.54208" lon="2.97827">
        <ele>180</ele>
        <time>2018-02-25T11:44:42.000Z</time>
      </trkpt>
      <trkpt lat="43.5421" lon="2.9783">
        <ele>180</ele>
        <time>2018-02-25T11:44:47.000Z</time>
      </trkpt>
      <trkpt lat="43.54209" lon="2.97827">
        <ele>180</ele>
        <time>2018-02-25T11:44:57.000Z</time>
      </trkpt>
      <trkpt lat="43.54208" lon="2.97822">
        <ele>180</ele>
        <time>2018-02-25T11:45:00.000Z</time>
      </trkpt>
      <trkpt lat="43.54206" lon="2.97819">
        <ele>180</ele>
        <time>2018-02-25T11:45:03.000Z</time>
      </trkpt>
      <trkpt lat="43.54204" lon="2.97816">
        <ele>179.9</ele>
        <time>2018-02-25T11:45:09.000Z</time>
      </trkpt>
      <trkpt lat="43.54205" lon="2.97821">
        <ele>179.9</ele>
        <time>2018-02-25T11:45:25.000Z</time>
      </trkpt>
      <trkpt lat="43.54207" lon="2.97825">
        <ele>180.3</ele>
        <time>2018-02-25T11:45:26.000Z</time>
      </trkpt>
      <trkpt lat="43.54209" lon="2.97829">
        <ele>180.6</ele>
        <time>2018-02-25T11:45:27.000Z</time>
      </trkpt>
      <trkpt lat="43.54212" lon="2.97832">
        <ele>180.7</ele>
        <time>2018-02-25T11:45:28.000Z</time>
      </trkpt>
      <trkpt lat="43.54214" lon="2.97836">
        <ele>180.5</ele>
        <time>2018-02-25T11:45:30.000Z</time>
      </trkpt>
      <trkpt lat="43.54216" lon="2.9784">
        <ele>180.4</ele>
        <time>2018-02-25T11:45:33.000Z</time>
      </trkpt>
      <trkpt lat="43.54217" lon="2.97844">
        <ele>180.3</ele>
        <time>2018-02-25T11:45:36.000Z</time>
      </trkpt>
      <trkpt lat="43.5422" lon="2.97846">
        <ele>180.4</ele>
        <time>2018-02-25T11:46:01.000Z</time>
      </trkpt>
      <trkpt lat="43.54222" lon="2.97849">
        <ele>180.5</ele>
        <time>2018-02-25T11:46:03.000Z</time>
      </trkpt>
      <trkpt lat="43.54226" lon="2.97853">
        <ele>180.5</ele>
        <time>2018-02-25T11:46:05.000Z</time>
      </trkpt>
      <trkpt lat="43.54228" lon="2.97856">
        <ele>180.5</ele>
        <time>2018-02-25T11:46:06.000Z</time>
      </trkpt>
      <trkpt lat="43.5423" lon="2.97859">
        <ele>180.7</ele>
        <time>2018-02-25T11:46:07.000Z</time>
      </trkpt>
      <trkpt lat="43.54233" lon="2.97863">
        <ele>181.1</ele>
        <time>2018-02-25T11:46:08.000Z</time>
      </trkpt>
      <trkpt lat="43.54236" lon="2.97866">
        <ele>181</ele>
        <time>2018-02-25T11:46:09.000Z</time>
      </trkpt>
      <trkpt lat="43.54238" lon="2.97869">
        <ele>180.6</ele>
        <time>2018-02-25T11:46:10.000Z</time>
      </trkpt>
      <trkpt lat="43.54241" lon="2.97872">
        <ele>180.3</ele>
        <time>2018-02-25T11:46:11.000Z</time>
      </trkpt>
      <trkpt lat="43.54243" lon="2.97875">
        <ele>180.4</ele>
        <time>2018-02-25T11:46:12.000Z</time>
      </trkpt>
      <trkpt lat="43.54246" lon="2.97878">
        <ele>180.3</ele>
        <time>2018-02-25T11:46:13.000Z</time>
      </trkpt>
      <trkpt lat="43.54248" lon="2.97881">
        <ele>180</ele>
        <time>2018-02-25T11:46:14.000Z</time>
      </trkpt>
      <trkpt lat="43.54251" lon="2.97885">
        <ele>179.3</ele>
        <time>2018-02-25T11:46:15.000Z</time>
      </trkpt>
      <trkpt lat="43.54254" lon="2.9789">
        <ele>178.2</ele>
        <time>2018-02-25T11:46:16.000Z</time>
      </trkpt>
      <trkpt lat="43.54257" lon="2.97894">
        <ele>178.1</ele>
        <time>2018-02-25T11:46:17.000Z</time>
      </trkpt>
      <trkpt lat="43.54259" lon="2.97898">
        <ele>178.3</ele>
        <time>2018-02-25T11:46:18.000Z</time>
      </trkpt>
      <trkpt lat="43.5426" lon="2.97903">
        <ele>178.5</ele>
        <time>2018-02-25T11:46:19.000Z</time>
      </trkpt>
      <trkpt lat="43.54261" lon="2.97907">
        <ele>177.8</ele>
        <time>2018-02-25T11:46:20.000Z</time>
      </trkpt>
      <trkpt lat="43.54262" lon="2.97912">
        <ele>177</ele>
        <time>2018-02-25T11:46:21.000Z</time>
      </trkpt>
      <trkpt lat="43.54264" lon="2.97917">
        <ele>176.7</ele>
        <time>2018-02-25T11:46:22.000Z</time>
      </trkpt>
      <trkpt lat="43.54266" lon="2.97922">
        <ele>176.2</ele>
        <time>2018-02-25T11:46:23.000Z</time>
      </trkpt>
      <trkpt lat="43.54268" lon="2.97927">
        <ele>175.4</ele>
        <time>2018-02-25T11:46:24.000Z</time>
      </trkpt>
      <trkpt lat="43.54271" lon="2.9793">
        <ele>175.4</ele>
        <time>2018-02-25T11:46:25.000Z</time>
      </trkpt>
      <trkpt lat="43.54274" lon="2.97934">
        <ele>175.7</ele>
        <time>2018-02-25T11:46:26.000Z</time>
      </trkpt>
      <trkpt lat="43.54276" lon="2.97938">
        <ele>176.1</ele>
        <time>2018-02-25T11:46:27.000Z</time>
      </trkpt>
      <trkpt lat="43.54277" lon="2.97942">
        <ele>176.4</ele>
        <time>2018-02-25T11:46:28.000Z</time>
      </trkpt>
      <trkpt lat="43.54279" lon="2.97945">
        <ele>176.6</ele>
        <time>2018-02-25T11:46:29.000Z</time>
      </trkpt>
      <trkpt lat="43.54284" lon="2.97959">
        <ele>176.8</ele>
        <time>2018-02-25T11:46:33.000Z</time>
      </trkpt>
      <trkpt lat="43.54286" lon="2.97965">
        <ele>177.3</ele>
        <time>2018-02-25T11:46:35.000Z</time>
      </trkpt>
      <trkpt lat="43.54288" lon="2.9797">
        <ele>174.5</ele>
        <time>2018-02-25T11:46:37.000Z</time>
      </trkpt>
      <trkpt lat="43.54291" lon="2.97976">
        <ele>171.7</ele>
        <time>2018-02-25T11:46:39.000Z</time>
      </trkpt>
      <trkpt lat="43.54292" lon="2.97982">
        <ele>172.7</ele>
        <time>2018-02-25T11:46:41.000Z</time>
      </trkpt>
      <trkpt lat="43.54293" lon="2.97987">
        <ele>174</ele>
        <time>2018-02-25T11:46:43.000Z</time>
      </trkpt>
      <trkpt lat="43.54292" lon="2.97991">
        <ele>175.4</ele>
        <time>2018-02-25T11:46:45.000Z</time>
      </trkpt>
      <trkpt lat="43.54294" lon="2.97996">
        <ele>176.8</ele>
        <time>2018-02-25T11:46:48.000Z</time>
      </trkpt>
      <trkpt lat="43.543" lon="2.97997">
        <ele>174</ele>
        <time>2018-02-25T11:46:50.000Z</time>
      </trkpt>
      <trkpt lat="43.54305" lon="2.97998">
        <ele>171.1</ele>
        <time>2018-02-25T11:46:51.000Z</time>
      </trkpt>
      <trkpt lat="43.54309" lon="2.98">
        <ele>169.3</ele>
        <time>2018-02-25T11:46:52.000Z</time>
      </trkpt>
      <trkpt lat="43.54314" lon="2.98002">
        <ele>167.6</ele>
        <time>2018-02-25T11:46:53.000Z</time>
      </trkpt>
      <trkpt lat="43.54319" lon="2.98005">
        <ele>167.1</ele>
        <time>2018-02-25T11:46:54.000Z</time>
      </trkpt>
      <trkpt lat="43.54331" lon="2.98016">
        <ele>164.3</ele>
        <time>2018-02-25T11:46:55.000Z</time>
      </trkpt>
      <trkpt lat="43.54338" lon="2.98016">
        <ele>161.3</ele>
        <time>2018-02-25T11:46:56.000Z</time>
      </trkpt>
      <trkpt lat="43.54341" lon="2.98018">
        <ele>160.9</ele>
        <time>2018-02-25T11:46:57.000Z</time>
      </trkpt>
      <trkpt lat="43.54344" lon="2.98023">
        <ele>160.7</ele>
        <time>2018-02-25T11:46:58.000Z</time>
      </trkpt>
      <trkpt lat="43.54347" lon="2.98026">
        <ele>159.4</ele>
        <time>2018-02-25T11:46:59.000Z</time>
      </trkpt>
      <trkpt lat="43.54349" lon="2.98031">
        <ele>160.1</ele>
        <time>2018-02-25T11:47:00.000Z</time>
      </trkpt>
      <trkpt lat="43.54352" lon="2.98037">
        <ele>159.6</ele>
        <time>2018-02-25T11:47:02.000Z</time>
      </trkpt>
      <trkpt lat="43.54355" lon="2.98038">
        <ele>158</ele>
        <time>2018-02-25T11:47:03.000Z</time>
      </trkpt>
      <trkpt lat="43.54359" lon="2.9804">
        <ele>157.2</ele>
        <time>2018-02-25T11:47:04.000Z</time>
      </trkpt>
      <trkpt lat="43.54363" lon="2.98042">
        <ele>155.6</ele>
        <time>2018-02-25T11:47:05.000Z</time>
      </trkpt>
      <trkpt lat="43.54365" lon="2.98048">
        <ele>156.2</ele>
        <time>2018-02-25T11:47:07.000Z</time>
      </trkpt>
      <trkpt lat="43.54368" lon="2.98054">
        <ele>156.1</ele>
        <time>2018-02-25T11:47:09.000Z</time>
      </trkpt>
      <trkpt lat="43.5437" lon="2.9806">
        <ele>157.5</ele>
        <time>2018-02-25T11:47:11.000Z</time>
      </trkpt>
      <trkpt lat="43.5437" lon="2.98066">
        <ele>158.2</ele>
        <time>2018-02-25T11:47:13.000Z</time>
      </trkpt>
      <trkpt lat="43.54373" lon="2.98072">
        <ele>158.9</ele>
        <time>2018-02-25T11:47:15.000Z</time>
      </trkpt>
      <trkpt lat="43.54375" lon="2.98078">
        <ele>159.9</ele>
        <time>2018-02-25T11:47:17.000Z</time>
      </trkpt>
      <trkpt lat="43.54377" lon="2.98081">
        <ele>158.1</ele>
        <time>2018-02-25T11:47:19.000Z</time>
      </trkpt>
      <trkpt lat="43.54379" lon="2.98085">
        <ele>157.6</ele>
        <time>2018-02-25T11:47:22.000Z</time>
      </trkpt>
      <trkpt lat="43.54382" lon="2.98085">
        <ele>157</ele>
        <time>2018-02-25T11:47:24.000Z</time>
      </trkpt>
      <trkpt lat="43.54387" lon="2.98086">
        <ele>155.3</ele>
        <time>2018-02-25T11:47:26.000Z</time>
      </trkpt>
      <trkpt lat="43.54391" lon="2.98086">
        <ele>153.5</ele>
        <time>2018-02-25T11:47:27.000Z</time>
      </trkpt>
      <trkpt lat="43.54393" lon="2.98087">
        <ele>151.8</ele>
        <time>2018-02-25T11:47:28.000Z</time>
      </trkpt>
      <trkpt lat="43.54399" lon="2.98089">
        <ele>149.8</ele>
        <time>2018-02-25T11:47:30.000Z</time>
      </trkpt>
      <trkpt lat="43.54402" lon="2.98089">
        <ele>148.9</ele>
        <time>2018-02-25T11:47:31.000Z</time>
      </trkpt>
      <trkpt lat="43.54406" lon="2.9809">
        <ele>148.4</ele>
        <time>2018-02-25T11:47:32.000Z</time>
      </trkpt>
      <trkpt lat="43.5441" lon="2.98091">
        <ele>149.1</ele>
        <time>2018-02-25T11:47:33.000Z</time>
      </trkpt>
      <trkpt lat="43.54415" lon="2.98093">
        <ele>148.5</ele>
        <time>2018-02-25T11:47:34.000Z</time>
      </trkpt>
      <trkpt lat="43.5442" lon="2.98095">
        <ele>148.3</ele>
        <time>2018-02-25T11:47:35.000Z</time>
      </trkpt>
      <trkpt lat="43.54423" lon="2.98097">
        <ele>148.2</ele>
        <time>2018-02-25T11:47:36.000Z</time>
      </trkpt>
      <trkpt lat="43.54427" lon="2.981">
        <ele>148</ele>
        <time>2018-02-25T11:47:37.000Z</time>
      </trkpt>
      <trkpt lat="43.54432" lon="2.98103">
        <ele>147.9</ele>
        <time>2018-02-25T11:47:38.000Z</time>
      </trkpt>
      <trkpt lat="43.54436" lon="2.98106">
        <ele>147.7</ele>
        <time>2018-02-25T11:47:39.000Z</time>
      </trkpt>
      <trkpt lat="43.54439" lon="2.98109">
        <ele>147.5</ele>
        <time>2018-02-25T11:47:40.000Z</time>
      </trkpt>
      <trkpt lat="43.54441" lon="2.98113">
        <ele>147.4</ele>
        <time>2018-02-25T11:47:41.000Z</time>
      </trkpt>
      <trkpt lat="43.54444" lon="2.98116">
        <ele>147.3</ele>
        <time>2018-02-25T11:47:42.000Z</time>
      </trkpt>
      <trkpt lat="43.54446" lon="2.98118">
        <ele>147.2</ele>
        <time>2018-02-25T11:47:43.000Z</time>
      </trkpt>
      <trkpt lat="43.54449" lon="2.98123">
        <ele>147</ele>
        <time>2018-02-25T11:47:45.000Z</time>
      </trkpt>
      <trkpt lat="43.54454" lon="2.98127">
        <ele>146.8</ele>
        <time>2018-02-25T11:47:47.000Z</time>
      </trkpt>
      <trkpt lat="43.54457" lon="2.98129">
        <ele>146.3</ele>
        <time>2018-02-25T11:47:49.000Z</time>
      </trkpt>
      <trkpt lat="43.54461" lon="2.98133">
        <ele>145.9</ele>
        <time>2018-02-25T11:47:51.000Z</time>
      </trkpt>
      <trkpt lat="43.54464" lon="2.98135">
        <ele>145.7</ele>
        <time>2018-02-25T11:47:53.000Z</time>
      </trkpt>
      <trkpt lat="43.54468" lon="2.98136">
        <ele>145.4</ele>
        <time>2018-02-25T11:47:56.000Z</time>
      </trkpt>
      <trkpt lat="43.5447" lon="2.98139">
        <ele>145</ele>
        <time>2018-02-25T11:47:58.000Z</time>
      </trkpt>
      <trkpt lat="43.54474" lon="2.98145">
        <ele>144.4</ele>
        <time>2018-02-25T11:48:00.000Z</time>
      </trkpt>
      <trkpt lat="43.54476" lon="2.98147">
        <ele>144.1</ele>
        <time>2018-02-25T11:48:01.000Z</time>
      </trkpt>
      <trkpt lat="43.54478" lon="2.9815">
        <ele>143.8</ele>
        <time>2018-02-25T11:48:02.000Z</time>
      </trkpt>
      <trkpt lat="43.5448" lon="2.98152">
        <ele>143.4</ele>
        <time>2018-02-25T11:48:03.000Z</time>
      </trkpt>
      <trkpt lat="43.54482" lon="2.98154">
        <ele>143.1</ele>
        <time>2018-02-25T11:48:04.000Z</time>
      </trkpt>
      <trkpt lat="43.54486" lon="2.98158">
        <ele>142.6</ele>
        <time>2018-02-25T11:48:06.000Z</time>
      </trkpt>
      <trkpt lat="43.54491" lon="2.98161">
        <ele>142.3</ele>
        <time>2018-02-25T11:48:08.000Z</time>
      </trkpt>
      <trkpt lat="43.54494" lon="2.98164">
        <ele>142.2</ele>
        <time>2018-02-25T11:48:09.000Z</time>
      </trkpt>
      <trkpt lat="43.54498" lon="2.98169">
        <ele>141.9</ele>
        <time>2018-02-25T11:48:11.000Z</time>
      </trkpt>
      <trkpt lat="43.54501" lon="2.98171">
        <ele>141.7</ele>
        <time>2018-02-25T11:48:12.000Z</time>
      </trkpt>
      <trkpt lat="43.54504" lon="2.98174">
        <ele>141.5</ele>
        <time>2018-02-25T11:48:13.000Z</time>
      </trkpt>
      <trkpt lat="43.54509" lon="2.98177">
        <ele>141.2</ele>
        <time>2018-02-25T11:48:14.000Z</time>
      </trkpt>
      <trkpt lat="43.54513" lon="2.9818">
        <ele>141</ele>
        <time>2018-02-25T11:48:15.000Z</time>
      </trkpt>
      <trkpt lat="43.54516" lon="2.98183">
        <ele>140.8</ele>
        <time>2018-02-25T11:48:16.000Z</time>
      </trkpt>
      <trkpt lat="43.54519" lon="2.98186">
        <ele>140.6</ele>
        <time>2018-02-25T11:48:17.000Z</time>
      </trkpt>
      <trkpt lat="43.54522" lon="2.98189">
        <ele>140.4</ele>
        <time>2018-02-25T11:48:18.000Z</time>
      </trkpt>
      <trkpt lat="43.54525" lon="2.98192">
        <ele>140.2</ele>
        <time>2018-02-25T11:48:19.000Z</time>
      </trkpt>
      <trkpt lat="43.54529" lon="2.98195">
        <ele>139.9</ele>
        <time>2018-02-25T11:48:20.000Z</time>
      </trkpt>
      <trkpt lat="43.54533" lon="2.98199">
        <ele>139.7</ele>
        <time>2018-02-25T11:48:21.000Z</time>
      </trkpt>
      <trkpt lat="43.54535" lon="2.98201">
        <ele>139.3</ele>
        <time>2018-02-25T11:48:22.000Z</time>
      </trkpt>
      <trkpt lat="43.54538" lon="2.98206">
        <ele>138.8</ele>
        <time>2018-02-25T11:48:24.000Z</time>
      </trkpt>
      <trkpt lat="43.54538" lon="2.9821">
        <ele>138.6</ele>
        <time>2018-02-25T11:48:27.000Z</time>
      </trkpt>
      <trkpt lat="43.54538" lon="2.98205">
        <ele>138.3</ele>
        <time>2018-02-25T11:48:33.000Z</time>
      </trkpt>
      <trkpt lat="43.54537" lon="2.98201">
        <ele>138.1</ele>
        <time>2018-02-25T11:48:36.000Z</time>
      </trkpt>
      <trkpt lat="43.5454" lon="2.98203">
        <ele>137.8</ele>
        <time>2018-02-25T11:51:35.000Z</time>
      </trkpt>
      <trkpt lat="43.54541" lon="2.982">
        <ele>137.5</ele>
        <time>2018-02-25T11:51:38.000Z</time>
      </trkpt>
      <trkpt lat="43.54544" lon="2.98194">
        <ele>136.8</ele>
        <time>2018-02-25T11:52:46.000Z</time>
      </trkpt>
      <trkpt lat="43.54548" lon="2.98194">
        <ele>136.5</ele>
        <time>2018-02-25T11:52:48.000Z</time>
      </trkpt>
      <trkpt lat="43.54551" lon="2.98195">
        <ele>136.2</ele>
        <time>2018-02-25T11:52:50.000Z</time>
      </trkpt>
      <trkpt lat="43.54554" lon="2.98197">
        <ele>135.9</ele>
        <time>2018-02-25T11:52:52.000Z</time>
      </trkpt>
      <trkpt lat="43.54558" lon="2.98199">
        <ele>135.6</ele>
        <time>2018-02-25T11:52:54.000Z</time>
      </trkpt>
      <trkpt lat="43.54562" lon="2.982">
        <ele>135.2</ele>
        <time>2018-02-25T11:52:56.000Z</time>
      </trkpt>
      <trkpt lat="43.54566" lon="2.98202">
        <ele>134.8</ele>
        <time>2018-02-25T11:52:58.000Z</time>
      </trkpt>
      <trkpt lat="43.54571" lon="2.98204">
        <ele>134.3</ele>
        <time>2018-02-25T11:53:00.000Z</time>
      </trkpt>
      <trkpt lat="43.54576" lon="2.98204">
        <ele>133.7</ele>
        <time>2018-02-25T11:53:02.000Z</time>
      </trkpt>
      <trkpt lat="43.54581" lon="2.98203">
        <ele>133.3</ele>
        <time>2018-02-25T11:53:04.000Z</time>
      </trkpt>
      <trkpt lat="43.54585" lon="2.982">
        <ele>132.7</ele>
        <time>2018-02-25T11:53:06.000Z</time>
      </trkpt>
      <trkpt lat="43.54588" lon="2.98198">
        <ele>132.3</ele>
        <time>2018-02-25T11:53:07.000Z</time>
      </trkpt>
      <trkpt lat="43.54591" lon="2.98196">
        <ele>132</ele>
        <time>2018-02-25T11:53:08.000Z</time>
      </trkpt>
      <trkpt lat="43.54594" lon="2.98195">
        <ele>131.7</ele>
        <time>2018-02-25T11:53:09.000Z</time>
      </trkpt>
      <trkpt lat="43.54597" lon="2.98194">
        <ele>131.4</ele>
        <time>2018-02-25T11:53:10.000Z</time>
      </trkpt>
      <trkpt lat="43.54601" lon="2.98191">
        <ele>130.9</ele>
        <time>2018-02-25T11:53:12.000Z</time>
      </trkpt>
      <trkpt lat="43.54605" lon="2.98189">
        <ele>130.6</ele>
        <time>2018-02-25T11:53:14.000Z</time>
      </trkpt>
      <trkpt lat="43.5461" lon="2.98187">
        <ele>130.3</ele>
        <time>2018-02-25T11:53:16.000Z</time>
      </trkpt>
      <trkpt lat="43.54614" lon="2.98183">
        <ele>130</ele>
        <time>2018-02-25T11:53:18.000Z</time>
      </trkpt>
      <trkpt lat="43.54616" lon="2.98181">
        <ele>129.8</ele>
        <time>2018-02-25T11:53:19.000Z</time>
      </trkpt>
      <trkpt lat="43.54621" lon="2.98177">
        <ele>129.4</ele>
        <time>2018-02-25T11:53:21.000Z</time>
      </trkpt>
      <trkpt lat="43.54624" lon="2.98175">
        <ele>129.1</ele>
        <time>2018-02-25T11:53:22.000Z</time>
      </trkpt>
      <trkpt lat="43.54627" lon="2.98173">
        <ele>128.9</ele>
        <time>2018-02-25T11:53:23.000Z</time>
      </trkpt>
      <trkpt lat="43.5463" lon="2.98171">
        <ele>128.7</ele>
        <time>2018-02-25T11:53:24.000Z</time>
      </trkpt>
      <trkpt lat="43.54633" lon="2.98169">
        <ele>128.5</ele>
        <time>2018-02-25T11:53:25.000Z</time>
      </trkpt>
      <trkpt lat="43.54636" lon="2.98167">
        <ele>128.2</ele>
        <time>2018-02-25T11:53:26.000Z</time>
      </trkpt>
      <trkpt lat="43.54641" lon="2.98163">
        <ele>127.8</ele>
        <time>2018-02-25T11:53:28.000Z</time>
      </trkpt>
      <trkpt lat="43.54643" lon="2.98161">
        <ele>127.7</ele>
        <time>2018-02-25T11:53:29.000Z</time>
      </trkpt>
      <trkpt lat="43.54647" lon="2.98158">
        <ele>127.5</ele>
        <time>2018-02-25T11:53:31.000Z</time>
      </trkpt>
      <trkpt lat="43.54651" lon="2.98155">
        <ele>127.3</ele>
        <time>2018-02-25T11:53:33.000Z</time>
      </trkpt>
      <trkpt lat="43.54655" lon="2.98151">
        <ele>127.1</ele>
        <time>2018-02-25T11:53:35.000Z</time>
      </trkpt>
      <trkpt lat="43.54659" lon="2.98146">
        <ele>126.9</ele>
        <time>2018-02-25T11:53:37.000Z</time>
      </trkpt>
      <trkpt lat="43.54661" lon="2.98142">
        <ele>126.8</ele>
        <time>2018-02-25T11:53:39.000Z</time>
      </trkpt>
      <trkpt lat="43.54665" lon="2.98137">
        <ele>126.6</ele>
        <time>2018-02-25T11:53:41.000Z</time>
      </trkpt>
      <trkpt lat="43.54667" lon="2.98134">
        <ele>126.5</ele>
        <time>2018-02-25T11:53:42.000Z</time>
      </trkpt>
      <trkpt lat="43.54669" lon="2.98132">
        <ele>126.2</ele>
        <time>2018-02-25T11:53:43.000Z</time>
      </trkpt>
      <trkpt lat="43.54671" lon="2.98129">
        <ele>125.9</ele>
        <time>2018-02-25T11:53:44.000Z</time>
      </trkpt>
      <trkpt lat="43.54675" lon="2.98124">
        <ele>125.5</ele>
        <time>2018-02-25T11:53:46.000Z</time>
      </trkpt>
      <trkpt lat="43.54678" lon="2.98119">
        <ele>125</ele>
        <time>2018-02-25T11:53:48.000Z</time>
      </trkpt>
      <trkpt lat="43.5468" lon="2.98115">
        <ele>124.6</ele>
        <time>2018-02-25T11:53:50.000Z</time>
      </trkpt>
      <trkpt lat="43.54682" lon="2.98111">
        <ele>124.2</ele>
        <time>2018-02-25T11:53:52.000Z</time>
      </trkpt>
      <trkpt lat="43.54686" lon="2.98106">
        <ele>123.8</ele>
        <time>2018-02-25T11:53:54.000Z</time>
      </trkpt>
      <trkpt lat="43.54689" lon="2.98103">
        <ele>123.6</ele>
        <time>2018-02-25T11:53:55.000Z</time>
      </trkpt>
      <trkpt lat="43.54692" lon="2.98099">
        <ele>123.3</ele>
        <time>2018-02-25T11:53:57.000Z</time>
      </trkpt>
      <trkpt lat="43.54695" lon="2.98095">
        <ele>123.1</ele>
        <time>2018-02-25T11:53:59.000Z</time>
      </trkpt>
      <trkpt lat="43.54698" lon="2.9809">
        <ele>122.8</ele>
        <time>2018-02-25T11:54:01.000Z</time>
      </trkpt>
      <trkpt lat="43.54701" lon="2.98085">
        <ele>122.5</ele>
        <time>2018-02-25T11:54:03.000Z</time>
      </trkpt>
      <trkpt lat="43.54703" lon="2.9808">
        <ele>122.3</ele>
        <time>2018-02-25T11:54:05.000Z</time>
      </trkpt>
      <trkpt lat="43.54706" lon="2.98075">
        <ele>122</ele>
        <time>2018-02-25T11:54:07.000Z</time>
      </trkpt>
      <trkpt lat="43.54709" lon="2.9807">
        <ele>121.7</ele>
        <time>2018-02-25T11:54:09.000Z</time>
      </trkpt>
      <trkpt lat="43.54712" lon="2.98065">
        <ele>121.3</ele>
        <time>2018-02-25T11:54:11.000Z</time>
      </trkpt>
      <trkpt lat="43.54714" lon="2.9806">
        <ele>121</ele>
        <time>2018-02-25T11:54:13.000Z</time>
      </trkpt>
      <trkpt lat="43.54716" lon="2.98056">
        <ele>120.7</ele>
        <time>2018-02-25T11:54:15.000Z</time>
      </trkpt>
      <trkpt lat="43.54717" lon="2.98052">
        <ele>120.5</ele>
        <time>2018-02-25T11:54:17.000Z</time>
      </trkpt>
      <trkpt lat="43.54718" lon="2.98047">
        <ele>120.2</ele>
        <time>2018-02-25T11:54:19.000Z</time>
      </trkpt>
      <trkpt lat="43.5472" lon="2.98042">
        <ele>120</ele>
        <time>2018-02-25T11:54:21.000Z</time>
      </trkpt>
      <trkpt lat="43.54722" lon="2.98036">
        <ele>119.7</ele>
        <time>2018-02-25T11:54:23.000Z</time>
      </trkpt>
      <trkpt lat="43.54724" lon="2.98029">
        <ele>119.4</ele>
        <time>2018-02-25T11:54:25.000Z</time>
      </trkpt>
      <trkpt lat="43.54726" lon="2.98023">
        <ele>119</ele>
        <time>2018-02-25T11:54:27.000Z</time>
      </trkpt>
      <trkpt lat="43.54728" lon="2.98016">
        <ele>118.5</ele>
        <time>2018-02-25T11:54:29.000Z</time>
      </trkpt>
      <trkpt lat="43.54729" lon="2.98012">
        <ele>118.1</ele>
        <time>2018-02-25T11:54:30.000Z</time>
      </trkpt>
      <trkpt lat="43.54731" lon="2.98009">
        <ele>117.8</ele>
        <time>2018-02-25T11:54:31.000Z</time>
      </trkpt>
      <trkpt lat="43.54732" lon="2.98005">
        <ele>117.5</ele>
        <time>2018-02-25T11:54:32.000Z</time>
      </trkpt>
      <trkpt lat="43.54733" lon="2.98002">
        <ele>117.2</ele>
        <time>2018-02-25T11:54:33.000Z</time>
      </trkpt>
      <trkpt lat="43.54736" lon="2.97996">
        <ele>116.7</ele>
        <time>2018-02-25T11:54:35.000Z</time>
      </trkpt>
      <trkpt lat="43.5474" lon="2.9799">
        <ele>116.1</ele>
        <time>2018-02-25T11:54:37.000Z</time>
      </trkpt>
      <trkpt lat="43.54741" lon="2.97987">
        <ele>116.1</ele>
        <time>2018-02-25T11:54:38.000Z</time>
      </trkpt>
      <trkpt lat="43.54743" lon="2.97984">
        <ele>116.3</ele>
        <time>2018-02-25T11:54:39.000Z</time>
      </trkpt>
      <trkpt lat="43.54746" lon="2.97978">
        <ele>116.6</ele>
        <time>2018-02-25T11:54:41.000Z</time>
      </trkpt>
      <trkpt lat="43.54751" lon="2.97974">
        <ele>117</ele>
        <time>2018-02-25T11:54:43.000Z</time>
      </trkpt>
      <trkpt lat="43.54754" lon="2.97972">
        <ele>117.5</ele>
        <time>2018-02-25T11:54:45.000Z</time>
      </trkpt>
      <trkpt lat="43.54758" lon="2.9797">
        <ele>117.9</ele>
        <time>2018-02-25T11:54:47.000Z</time>
      </trkpt>
      <trkpt lat="43.5476" lon="2.97969">
        <ele>118.2</ele>
        <time>2018-02-25T11:54:48.000Z</time>
      </trkpt>
      <trkpt lat="43.54765" lon="2.97967">
        <ele>118.8</ele>
        <time>2018-02-25T11:54:50.000Z</time>
      </trkpt>
      <trkpt lat="43.5477" lon="2.97964">
        <ele>119.3</ele>
        <time>2018-02-25T11:54:52.000Z</time>
      </trkpt>
      <trkpt lat="43.54772" lon="2.97963">
        <ele>119.4</ele>
        <time>2018-02-25T11:54:53.000Z</time>
      </trkpt>
      <trkpt lat="43.54777" lon="2.97962">
        <ele>119.7</ele>
        <time>2018-02-25T11:54:55.000Z</time>
      </trkpt>
      <trkpt lat="43.5478" lon="2.9796">
        <ele>119.8</ele>
        <time>2018-02-25T11:54:56.000Z</time>
      </trkpt>
      <trkpt lat="43.54785" lon="2.97958">
        <ele>120.1</ele>
        <time>2018-02-25T11:54:58.000Z</time>
      </trkpt>
      <trkpt lat="43.54789" lon="2.97956">
        <ele>120.3</ele>
        <time>2018-02-25T11:55:00.000Z</time>
      </trkpt>
      <trkpt lat="43.54793" lon="2.97954">
        <ele>120.5</ele>
        <time>2018-02-25T11:55:02.000Z</time>
      </trkpt>
      <trkpt lat="43.54797" lon="2.97952">
        <ele>121</ele>
        <time>2018-02-25T11:55:04.000Z</time>
      </trkpt>
      <trkpt lat="43.54802" lon="2.9795">
        <ele>121.6</ele>
        <time>2018-02-25T11:55:06.000Z</time>
      </trkpt>
      <trkpt lat="43.54806" lon="2.97948">
        <ele>122.2</ele>
        <time>2018-02-25T11:55:08.000Z</time>
      </trkpt>
      <trkpt lat="43.54811" lon="2.97948">
        <ele>122.6</ele>
        <time>2018-02-25T11:55:10.000Z</time>
      </trkpt>
      <trkpt lat="43.54814" lon="2.97948">
        <ele>122.8</ele>
        <time>2018-02-25T11:55:11.000Z</time>
      </trkpt>
      <trkpt lat="43.54818" lon="2.97949">
        <ele>123.1</ele>
        <time>2018-02-25T11:55:13.000Z</time>
      </trkpt>
      <trkpt lat="43.54823" lon="2.97951">
        <ele>123.5</ele>
        <time>2018-02-25T11:55:15.000Z</time>
      </trkpt>
      <trkpt lat="43.54826" lon="2.97953">
        <ele>123.7</ele>
        <time>2018-02-25T11:55:16.000Z</time>
      </trkpt>
      <trkpt lat="43.54828" lon="2.97955">
        <ele>123.8</ele>
        <time>2018-02-25T11:55:17.000Z</time>
      </trkpt>
      <trkpt lat="43.54831" lon="2.97956">
        <ele>124</ele>
        <time>2018-02-25T11:55:18.000Z</time>
      </trkpt>
      <trkpt lat="43.54834" lon="2.97958">
        <ele>124.2</ele>
        <time>2018-02-25T11:55:19.000Z</time>
      </trkpt>
      <trkpt lat="43.54837" lon="2.97959">
        <ele>124.4</ele>
        <time>2018-02-25T11:55:20.000Z</time>
      </trkpt>
      <trkpt lat="43.54839" lon="2.97961">
        <ele>124.6</ele>
        <time>2018-02-25T11:55:21.000Z</time>
      </trkpt>
      <trkpt lat="43.54843" lon="2.97966">
        <ele>125.1</ele>
        <time>2018-02-25T11:55:23.000Z</time>
      </trkpt>
      <trkpt lat="43.54845" lon="2.97969">
        <ele>125.4</ele>
        <time>2018-02-25T11:55:24.000Z</time>
      </trkpt>
      <trkpt lat="43.54847" lon="2.97971">
        <ele>125.8</ele>
        <time>2018-02-25T11:55:25.000Z</time>
      </trkpt>
      <trkpt lat="43.5485" lon="2.97974">
        <ele>126.1</ele>
        <time>2018-02-25T11:55:26.000Z</time>
      </trkpt>
      <trkpt lat="43.54852" lon="2.97977">
        <ele>126.4</ele>
        <time>2018-02-25T11:55:27.000Z</time>
      </trkpt>
      <trkpt lat="43.54854" lon="2.9798">
        <ele>126.8</ele>
        <time>2018-02-25T11:55:28.000Z</time>
      </trkpt>
      <trkpt lat="43.54856" lon="2.97982">
        <ele>127.1</ele>
        <time>2018-02-25T11:55:29.000Z</time>
      </trkpt>
      <trkpt lat="43.5486" lon="2.97987">
        <ele>127.5</ele>
        <time>2018-02-25T11:55:31.000Z</time>
      </trkpt>
      <trkpt lat="43.54864" lon="2.97991">
        <ele>127.8</ele>
        <time>2018-02-25T11:55:33.000Z</time>
      </trkpt>
      <trkpt lat="43.54868" lon="2.97994">
        <ele>128</ele>
        <time>2018-02-25T11:55:35.000Z</time>
      </trkpt>
      <trkpt lat="43.54872" lon="2.97998">
        <ele>128.1</ele>
        <time>2018-02-25T11:55:37.000Z</time>
      </trkpt>
      <trkpt lat="43.54875" lon="2.97999">
        <ele>128.2</ele>
        <time>2018-02-25T11:55:38.000Z</time>
      </trkpt>
      <trkpt lat="43.54878" lon="2.98001">
        <ele>128.2</ele>
        <time>2018-02-25T11:55:39.000Z</time>
      </trkpt>
      <trkpt lat="43.5488" lon="2.98002">
        <ele>128.3</ele>
        <time>2018-02-25T11:55:40.000Z</time>
      </trkpt>
      <trkpt lat="43.54883" lon="2.98004">
        <ele>128.4</ele>
        <time>2018-02-25T11:55:41.000Z</time>
      </trkpt>
      <trkpt lat="43.54887" lon="2.98008">
        <ele>128.5</ele>
        <time>2018-02-25T11:55:43.000Z</time>
      </trkpt>
      <trkpt lat="43.5489" lon="2.98012">
        <ele>128.7</ele>
        <time>2018-02-25T11:55:45.000Z</time>
      </trkpt>
      <trkpt lat="43.54894" lon="2.98014">
        <ele>128.8</ele>
        <time>2018-02-25T11:55:47.000Z</time>
      </trkpt>
      <trkpt lat="43.54897" lon="2.98016">
        <ele>129</ele>
        <time>2018-02-25T11:55:49.000Z</time>
      </trkpt>
      <trkpt lat="43.54899" lon="2.98019">
        <ele>129.1</ele>
        <time>2018-02-25T11:55:51.000Z</time>
      </trkpt>
      <trkpt lat="43.54903" lon="2.98023">
        <ele>129.4</ele>
        <time>2018-02-25T11:55:53.000Z</time>
      </trkpt>
      <trkpt lat="43.54906" lon="2.98026">
        <ele>129.8</ele>
        <time>2018-02-25T11:55:55.000Z</time>
      </trkpt>
      <trkpt lat="43.5491" lon="2.9803">
        <ele>130.3</ele>
        <time>2018-02-25T11:55:57.000Z</time>
      </trkpt>
      <trkpt lat="43.54913" lon="2.98033">
        <ele>130.7</ele>
        <time>2018-02-25T11:55:59.000Z</time>
      </trkpt>
      <trkpt lat="43.54916" lon="2.98035">
        <ele>131</ele>
        <time>2018-02-25T11:56:01.000Z</time>
      </trkpt>
      <trkpt lat="43.54921" lon="2.98038">
        <ele>131.2</ele>
        <time>2018-02-25T11:56:03.000Z</time>
      </trkpt>
      <trkpt lat="43.54924" lon="2.9804">
        <ele>131.3</ele>
        <time>2018-02-25T11:56:04.000Z</time>
      </trkpt>
      <trkpt lat="43.54927" lon="2.98041">
        <ele>131.4</ele>
        <time>2018-02-25T11:56:05.000Z</time>
      </trkpt>
      <trkpt lat="43.5493" lon="2.98042">
        <ele>131.5</ele>
        <time>2018-02-25T11:56:06.000Z</time>
      </trkpt>
      <trkpt lat="43.54933" lon="2.98043">
        <ele>131.6</ele>
        <time>2018-02-25T11:56:07.000Z</time>
      </trkpt>
      <trkpt lat="43.54937" lon="2.98046">
        <ele>131.8</ele>
        <time>2018-02-25T11:56:09.000Z</time>
      </trkpt>
      <trkpt lat="43.54942" lon="2.98049">
        <ele>131.9</ele>
        <time>2018-02-25T11:56:11.000Z</time>
      </trkpt>
      <trkpt lat="43.54945" lon="2.9805">
        <ele>132</ele>
        <time>2018-02-25T11:56:12.000Z</time>
      </trkpt>
      <trkpt lat="43.54949" lon="2.98052">
        <ele>132.1</ele>
        <time>2018-02-25T11:56:14.000Z</time>
      </trkpt>
      <trkpt lat="43.54953" lon="2.98055">
        <ele>132.3</ele>
        <time>2018-02-25T11:56:16.000Z</time>
      </trkpt>
      <trkpt lat="43.54956" lon="2.98057">
        <ele>132.4</ele>
        <time>2018-02-25T11:56:18.000Z</time>
      </trkpt>
      <trkpt lat="43.54958" lon="2.98054">
        <ele>132.6</ele>
        <time>2018-02-25T11:56:27.000Z</time>
      </trkpt>
      <trkpt lat="43.54957" lon="2.9805">
        <ele>132.5</ele>
        <time>2018-02-25T11:56:29.000Z</time>
      </trkpt>
      <trkpt lat="43.54954" lon="2.98048">
        <ele>132.3</ele>
        <time>2018-02-25T11:56:30.000Z</time>
      </trkpt>
      <trkpt lat="43.54951" lon="2.98046">
        <ele>132.2</ele>
        <time>2018-02-25T11:56:31.000Z</time>
      </trkpt>
      <trkpt lat="43.54948" lon="2.98044">
        <ele>132.1</ele>
        <time>2018-02-25T11:56:32.000Z</time>
      </trkpt>
      <trkpt lat="43.54945" lon="2.98043">
        <ele>132</ele>
        <time>2018-02-25T11:56:33.000Z</time>
      </trkpt>
      <trkpt lat="43.54941" lon="2.98041">
        <ele>131.9</ele>
        <time>2018-02-25T11:56:34.000Z</time>
      </trkpt>
      <trkpt lat="43.54939" lon="2.98039">
        <ele>131.8</ele>
        <time>2018-02-25T11:56:35.000Z</time>
      </trkpt>
      <trkpt lat="43.54935" lon="2.98038">
        <ele>131.7</ele>
        <time>2018-02-25T11:56:36.000Z</time>
      </trkpt>
      <trkpt lat="43.54932" lon="2.98036">
        <ele>131.6</ele>
        <time>2018-02-25T11:56:37.000Z</time>
      </trkpt>
      <trkpt lat="43.54929" lon="2.98035">
        <ele>131.4</ele>
        <time>2018-02-25T11:56:38.000Z</time>
      </trkpt>
      <trkpt lat="43.54925" lon="2.98032">
        <ele>131.3</ele>
        <time>2018-02-25T11:56:39.000Z</time>
      </trkpt>
      <trkpt lat="43.54922" lon="2.9803">
        <ele>131.2</ele>
        <time>2018-02-25T11:56:40.000Z</time>
      </trkpt>
      <trkpt lat="43.54919" lon="2.98028">
        <ele>131</ele>
        <time>2018-02-25T11:56:41.000Z</time>
      </trkpt>
      <trkpt lat="43.54915" lon="2.98026">
        <ele>130.7</ele>
        <time>2018-02-25T11:56:42.000Z</time>
      </trkpt>
      <trkpt lat="43.54912" lon="2.98024">
        <ele>130.4</ele>
        <time>2018-02-25T11:56:43.000Z</time>
      </trkpt>
      <trkpt lat="43.54909" lon="2.98022">
        <ele>130</ele>
        <time>2018-02-25T11:56:44.000Z</time>
      </trkpt>
      <trkpt lat="43.54906" lon="2.98021">
        <ele>129.7</ele>
        <time>2018-02-25T11:56:45.000Z</time>
      </trkpt>
      <trkpt lat="43.54904" lon="2.98019">
        <ele>129.4</ele>
        <time>2018-02-25T11:56:46.000Z</time>
      </trkpt>
      <trkpt lat="43.54899" lon="2.98017">
        <ele>129.1</ele>
        <time>2018-02-25T11:56:48.000Z</time>
      </trkpt>
      <trkpt lat="43.54895" lon="2.98014">
        <ele>128.9</ele>
        <time>2018-02-25T11:56:50.000Z</time>
      </trkpt>
      <trkpt lat="43.54891" lon="2.98011">
        <ele>128.7</ele>
        <time>2018-02-25T11:56:52.000Z</time>
      </trkpt>
      <trkpt lat="43.54888" lon="2.98009">
        <ele>128.6</ele>
        <time>2018-02-25T11:56:55.000Z</time>
      </trkpt>
      <trkpt lat="43.54886" lon="2.98007">
        <ele>128.5</ele>
        <time>2018-02-25T11:57:15.000Z</time>
      </trkpt>
      <trkpt lat="43.54885" lon="2.98011">
        <ele>128.6</ele>
        <time>2018-02-25T11:57:18.000Z</time>
      </trkpt>
      <trkpt lat="43.54888" lon="2.9801">
        <ele>128.7</ele>
        <time>2018-02-25T11:57:21.000Z</time>
      </trkpt>
      <trkpt lat="43.54891" lon="2.98011">
        <ele>128.9</ele>
        <time>2018-02-25T11:57:58.000Z</time>
      </trkpt>
      <trkpt lat="43.54893" lon="2.98015">
        <ele>129</ele>
        <time>2018-02-25T11:58:00.000Z</time>
      </trkpt>
      <trkpt lat="43.54895" lon="2.9802">
        <ele>129.2</ele>
        <time>2018-02-25T11:58:02.000Z</time>
      </trkpt>
      <trkpt lat="43.54898" lon="2.98023">
        <ele>129.5</ele>
        <time>2018-02-25T11:58:04.000Z</time>
      </trkpt>
      <trkpt lat="43.54902" lon="2.98027">
        <ele>130</ele>
        <time>2018-02-25T11:58:06.000Z</time>
      </trkpt>
      <trkpt lat="43.54906" lon="2.98031">
        <ele>130.5</ele>
        <time>2018-02-25T11:58:08.000Z</time>
      </trkpt>
      <trkpt lat="43.54911" lon="2.98034">
        <ele>130.9</ele>
        <time>2018-02-25T11:58:10.000Z</time>
      </trkpt>
      <trkpt lat="43.54916" lon="2.98037">
        <ele>131.2</ele>
        <time>2018-02-25T11:58:12.000Z</time>
      </trkpt>
      <trkpt lat="43.54919" lon="2.98038">
        <ele>131.3</ele>
        <time>2018-02-25T11:58:13.000Z</time>
      </trkpt>
      <trkpt lat="43.54923" lon="2.9804">
        <ele>131.5</ele>
        <time>2018-02-25T11:58:14.000Z</time>
      </trkpt>
      <trkpt lat="43.54926" lon="2.98041">
        <ele>131.6</ele>
        <time>2018-02-25T11:58:15.000Z</time>
      </trkpt>
      <trkpt lat="43.54929" lon="2.98043">
        <ele>131.7</ele>
        <time>2018-02-25T11:58:16.000Z</time>
      </trkpt>
      <trkpt lat="43.54932" lon="2.98044">
        <ele>131.7</ele>
        <time>2018-02-25T11:58:17.000Z</time>
      </trkpt>
      <trkpt lat="43.54934" lon="2.98046">
        <ele>131.8</ele>
        <time>2018-02-25T11:58:18.000Z</time>
      </trkpt>
      <trkpt lat="43.54937" lon="2.98047">
        <ele>131.9</ele>
        <time>2018-02-25T11:58:19.000Z</time>
      </trkpt>
      <trkpt lat="43.54942" lon="2.9805">
        <ele>132.1</ele>
        <time>2018-02-25T11:58:21.000Z</time>
      </trkpt>
      <trkpt lat="43.54947" lon="2.98052">
        <ele>132.3</ele>
        <time>2018-02-25T11:58:23.000Z</time>
      </trkpt>
      <trkpt lat="43.54951" lon="2.98054">
        <ele>132.5</ele>
        <time>2018-02-25T11:58:25.000Z</time>
      </trkpt>
      <trkpt lat="43.54955" lon="2.98057">
        <ele>132.7</ele>
        <time>2018-02-25T11:58:27.000Z</time>
      </trkpt>
      <trkpt lat="43.5496" lon="2.98059">
        <ele>132.9</ele>
        <time>2018-02-25T11:58:29.000Z</time>
      </trkpt>
      <trkpt lat="43.54964" lon="2.98062">
        <ele>133.3</ele>
        <time>2018-02-25T11:58:31.000Z</time>
      </trkpt>
      <trkpt lat="43.54968" lon="2.98065">
        <ele>133.8</ele>
        <time>2018-02-25T11:58:33.000Z</time>
      </trkpt>
      <trkpt lat="43.54972" lon="2.98068">
        <ele>134.2</ele>
        <time>2018-02-25T11:58:35.000Z</time>
      </trkpt>
      <trkpt lat="43.54976" lon="2.98071">
        <ele>134.7</ele>
        <time>2018-02-25T11:58:37.000Z</time>
      </trkpt>
      <trkpt lat="43.5498" lon="2.98074">
        <ele>135</ele>
        <time>2018-02-25T11:58:39.000Z</time>
      </trkpt>
      <trkpt lat="43.54984" lon="2.98077">
        <ele>135.2</ele>
        <time>2018-02-25T11:58:41.000Z</time>
      </trkpt>
      <trkpt lat="43.54988" lon="2.9808">
        <ele>135.3</ele>
        <time>2018-02-25T11:58:43.000Z</time>
      </trkpt>
      <trkpt lat="43.5499" lon="2.98084">
        <ele>135.5</ele>
        <time>2018-02-25T11:58:45.000Z</time>
      </trkpt>
      <trkpt lat="43.54994" lon="2.98087">
        <ele>135.7</ele>
        <time>2018-02-25T11:58:47.000Z</time>
      </trkpt>
      <trkpt lat="43.54998" lon="2.9809">
        <ele>135.9</ele>
        <time>2018-02-25T11:58:49.000Z</time>
      </trkpt>
      <trkpt lat="43.55003" lon="2.98094">
        <ele>136.1</ele>
        <time>2018-02-25T11:58:51.000Z</time>
      </trkpt>
      <trkpt lat="43.55006" lon="2.98095">
        <ele>136.3</ele>
        <time>2018-02-25T11:58:52.000Z</time>
      </trkpt>
      <trkpt lat="43.5501" lon="2.98097">
        <ele>136.5</ele>
        <time>2018-02-25T11:58:53.000Z</time>
      </trkpt>
      <trkpt lat="43.55013" lon="2.98099">
        <ele>136.6</ele>
        <time>2018-02-25T11:58:54.000Z</time>
      </trkpt>
      <trkpt lat="43.55017" lon="2.981">
        <ele>136.8</ele>
        <time>2018-02-25T11:58:55.000Z</time>
      </trkpt>
      <trkpt lat="43.5502" lon="2.98101">
        <ele>137</ele>
        <time>2018-02-25T11:58:56.000Z</time>
      </trkpt>
      <trkpt lat="43.55022" lon="2.98103">
        <ele>137.3</ele>
        <time>2018-02-25T11:58:57.000Z</time>
      </trkpt>
      <trkpt lat="43.55025" lon="2.98105">
        <ele>137.6</ele>
        <time>2018-02-25T11:58:58.000Z</time>
      </trkpt>
      <trkpt lat="43.55028" lon="2.98109">
        <ele>138</ele>
        <time>2018-02-25T11:59:00.000Z</time>
      </trkpt>
      <trkpt lat="43.5503" lon="2.98114">
        <ele>138.3</ele>
        <time>2018-02-25T11:59:02.000Z</time>
      </trkpt>
      <trkpt lat="43.55033" lon="2.98119">
        <ele>138.5</ele>
        <time>2018-02-25T11:59:04.000Z</time>
      </trkpt>
      <trkpt lat="43.55034" lon="2.98125">
        <ele>138.7</ele>
        <time>2018-02-25T11:59:06.000Z</time>
      </trkpt>
      <trkpt lat="43.55037" lon="2.98131">
        <ele>138.9</ele>
        <time>2018-02-25T11:59:08.000Z</time>
      </trkpt>
      <trkpt lat="43.5504" lon="2.98134">
        <ele>139.2</ele>
        <time>2018-02-25T11:59:09.000Z</time>
      </trkpt>
      <trkpt lat="43.55042" lon="2.98138">
        <ele>139.5</ele>
        <time>2018-02-25T11:59:10.000Z</time>
      </trkpt>
      <trkpt lat="43.55044" lon="2.98141">
        <ele>139.6</ele>
        <time>2018-02-25T11:59:11.000Z</time>
      </trkpt>
      <trkpt lat="43.55048" lon="2.98147">
        <ele>139.9</ele>
        <time>2018-02-25T11:59:13.000Z</time>
      </trkpt>
      <trkpt lat="43.55049" lon="2.9815">
        <ele>140</ele>
        <time>2018-02-25T11:59:14.000Z</time>
      </trkpt>
      <trkpt lat="43.55052" lon="2.98153">
        <ele>140.2</ele>
        <time>2018-02-25T11:59:15.000Z</time>
      </trkpt>
      <trkpt lat="43.55054" lon="2.98155">
        <ele>140.5</ele>
        <time>2018-02-25T11:59:16.000Z</time>
      </trkpt>
      <trkpt lat="43.55056" lon="2.98162">
        <ele>141.1</ele>
        <time>2018-02-25T11:59:18.000Z</time>
      </trkpt>
      <trkpt lat="43.55057" lon="2.98166">
        <ele>141.4</ele>
        <time>2018-02-25T11:59:19.000Z</time>
      </trkpt>
      <trkpt lat="43.55059" lon="2.98172">
        <ele>142</ele>
        <time>2018-02-25T11:59:21.000Z</time>
      </trkpt>
      <trkpt lat="43.5506" lon="2.98179">
        <ele>142.4</ele>
        <time>2018-02-25T11:59:23.000Z</time>
      </trkpt>
      <trkpt lat="43.55061" lon="2.98186">
        <ele>142.8</ele>
        <time>2018-02-25T11:59:25.000Z</time>
      </trkpt>
      <trkpt lat="43.55061" lon="2.98189">
        <ele>142.9</ele>
        <time>2018-02-25T11:59:26.000Z</time>
      </trkpt>
      <trkpt lat="43.55062" lon="2.98194">
        <ele>143.1</ele>
        <time>2018-02-25T11:59:27.000Z</time>
      </trkpt>
      <trkpt lat="43.55062" lon="2.98197">
        <ele>143.3</ele>
        <time>2018-02-25T11:59:28.000Z</time>
      </trkpt>
      <trkpt lat="43.55062" lon="2.98201">
        <ele>143.4</ele>
        <time>2018-02-25T11:59:29.000Z</time>
      </trkpt>
      <trkpt lat="43.55063" lon="2.98205">
        <ele>143.6</ele>
        <time>2018-02-25T11:59:30.000Z</time>
      </trkpt>
      <trkpt lat="43.55064" lon="2.98212">
        <ele>143.8</ele>
        <time>2018-02-25T11:59:32.000Z</time>
      </trkpt>
      <trkpt lat="43.55065" lon="2.98218">
        <ele>144</ele>
        <time>2018-02-25T11:59:34.000Z</time>
      </trkpt>
      <trkpt lat="43.55066" lon="2.98222">
        <ele>144.2</ele>
        <time>2018-02-25T11:59:35.000Z</time>
      </trkpt>
      <trkpt lat="43.55067" lon="2.98226">
        <ele>144.3</ele>
        <time>2018-02-25T11:59:36.000Z</time>
      </trkpt>
      <trkpt lat="43.55068" lon="2.9823">
        <ele>144.6</ele>
        <time>2018-02-25T11:59:37.000Z</time>
      </trkpt>
      <trkpt lat="43.55069" lon="2.98233">
        <ele>144.9</ele>
        <time>2018-02-25T11:59:38.000Z</time>
      </trkpt>
      <trkpt lat="43.55072" lon="2.98239">
        <ele>145.4</ele>
        <time>2018-02-25T11:59:40.000Z</time>
      </trkpt>
      <trkpt lat="43.55074" lon="2.98243">
        <ele>145.8</ele>
        <time>2018-02-25T11:59:41.000Z</time>
      </trkpt>
      <trkpt lat="43.55076" lon="2.98247">
        <ele>146.1</ele>
        <time>2018-02-25T11:59:42.000Z</time>
      </trkpt>
      <trkpt lat="43.55079" lon="2.9825">
        <ele>146.3</ele>
        <time>2018-02-25T11:59:43.000Z</time>
      </trkpt>
      <trkpt lat="43.55081" lon="2.98253">
        <ele>146.4</ele>
        <time>2018-02-25T11:59:44.000Z</time>
      </trkpt>
      <trkpt lat="43.55085" lon="2.98255">
        <ele>146.6</ele>
        <time>2018-02-25T11:59:45.000Z</time>
      </trkpt>
      <trkpt lat="43.55087" lon="2.98257">
        <ele>146.7</ele>
        <time>2018-02-25T11:59:46.000Z</time>
      </trkpt>
      <trkpt lat="43.5509" lon="2.98258">
        <ele>146.9</ele>
        <time>2018-02-25T11:59:47.000Z</time>
      </trkpt>
      <trkpt lat="43.55093" lon="2.98259">
        <ele>147</ele>
        <time>2018-02-25T11:59:48.000Z</time>
      </trkpt>
      <trkpt lat="43.55097" lon="2.9826">
        <ele>147.2</ele>
        <time>2018-02-25T11:59:50.000Z</time>
      </trkpt>
      <trkpt lat="43.55101" lon="2.9826">
        <ele>147.3</ele>
        <time>2018-02-25T11:59:52.000Z</time>
      </trkpt>
      <trkpt lat="43.55105" lon="2.9826">
        <ele>147.5</ele>
        <time>2018-02-25T11:59:54.000Z</time>
      </trkpt>
      <trkpt lat="43.55109" lon="2.98258">
        <ele>147.6</ele>
        <time>2018-02-25T11:59:56.000Z</time>
      </trkpt>
      <trkpt lat="43.55114" lon="2.98255">
        <ele>148.2</ele>
        <time>2018-02-25T11:59:58.000Z</time>
      </trkpt>
      <trkpt lat="43.55118" lon="2.98252">
        <ele>148.7</ele>
        <time>2018-02-25T12:00:00.000Z</time>
      </trkpt>
      <trkpt lat="43.55121" lon="2.98247">
        <ele>149.2</ele>
        <time>2018-02-25T12:00:02.000Z</time>
      </trkpt>
      <trkpt lat="43.55124" lon="2.98244">
        <ele>149.6</ele>
        <time>2018-02-25T12:00:03.000Z</time>
      </trkpt>
      <trkpt lat="43.55127" lon="2.98242">
        <ele>149.9</ele>
        <time>2018-02-25T12:00:04.000Z</time>
      </trkpt>
      <trkpt lat="43.55129" lon="2.9824">
        <ele>150.2</ele>
        <time>2018-02-25T12:00:05.000Z</time>
      </trkpt>
      <trkpt lat="43.55132" lon="2.98237">
        <ele>150.4</ele>
        <time>2018-02-25T12:00:06.000Z</time>
      </trkpt>
      <trkpt lat="43.55136" lon="2.98233">
        <ele>150.7</ele>
        <time>2018-02-25T12:00:08.000Z</time>
      </trkpt>
      <trkpt lat="43.55138" lon="2.98232">
        <ele>150.8</ele>
        <time>2018-02-25T12:00:09.000Z</time>
      </trkpt>
      <trkpt lat="43.55141" lon="2.9823">
        <ele>151</ele>
        <time>2018-02-25T12:00:10.000Z</time>
      </trkpt>
      <trkpt lat="43.55144" lon="2.98227">
        <ele>151.2</ele>
        <time>2018-02-25T12:00:11.000Z</time>
      </trkpt>
      <trkpt lat="43.55147" lon="2.98225">
        <ele>151.3</ele>
        <time>2018-02-25T12:00:12.000Z</time>
      </trkpt>
      <trkpt lat="43.55149" lon="2.98223">
        <ele>151.5</ele>
        <time>2018-02-25T12:00:13.000Z</time>
      </trkpt>
      <trkpt lat="43.55151" lon="2.98221">
        <ele>151.6</ele>
        <time>2018-02-25T12:00:14.000Z</time>
      </trkpt>
      <trkpt lat="43.55156" lon="2.98217">
        <ele>151.8</ele>
        <time>2018-02-25T12:00:16.000Z</time>
      </trkpt>
      <trkpt lat="43.5516" lon="2.98213">
        <ele>152</ele>
        <time>2018-02-25T12:00:18.000Z</time>
      </trkpt>
      <trkpt lat="43.55163" lon="2.98211">
        <ele>152.3</ele>
        <time>2018-02-25T12:00:19.000Z</time>
      </trkpt>
      <trkpt lat="43.55165" lon="2.98209">
        <ele>152.6</ele>
        <time>2018-02-25T12:00:20.000Z</time>
      </trkpt>
      <trkpt lat="43.55168" lon="2.98207">
        <ele>152.9</ele>
        <time>2018-02-25T12:00:21.000Z</time>
      </trkpt>
      <trkpt lat="43.5517" lon="2.98206">
        <ele>153.2</ele>
        <time>2018-02-25T12:00:22.000Z</time>
      </trkpt>
      <trkpt lat="43.55173" lon="2.98204">
        <ele>153.5</ele>
        <time>2018-02-25T12:00:23.000Z</time>
      </trkpt>
      <trkpt lat="43.55176" lon="2.98202">
        <ele>153.8</ele>
        <time>2018-02-25T12:00:24.000Z</time>
      </trkpt>
      <trkpt lat="43.55181" lon="2.98199">
        <ele>154.1</ele>
        <time>2018-02-25T12:00:26.000Z</time>
      </trkpt>
      <trkpt lat="43.55184" lon="2.98197">
        <ele>154.3</ele>
        <time>2018-02-25T12:00:27.000Z</time>
      </trkpt>
      <trkpt lat="43.55186" lon="2.98195">
        <ele>154.5</ele>
        <time>2018-02-25T12:00:28.000Z</time>
      </trkpt>
      <trkpt lat="43.55189" lon="2.98194">
        <ele>154.6</ele>
        <time>2018-02-25T12:00:29.000Z</time>
      </trkpt>
      <trkpt lat="43.55194" lon="2.98191">
        <ele>155</ele>
        <time>2018-02-25T12:00:31.000Z</time>
      </trkpt>
      <trkpt lat="43.55197" lon="2.9819">
        <ele>155.2</ele>
        <time>2018-02-25T12:00:32.000Z</time>
      </trkpt>
      <trkpt lat="43.552" lon="2.98189">
        <ele>155.4</ele>
        <time>2018-02-25T12:00:33.000Z</time>
      </trkpt>
      <trkpt lat="43.55203" lon="2.98188">
        <ele>155.7</ele>
        <time>2018-02-25T12:00:34.000Z</time>
      </trkpt>
      <trkpt lat="43.55206" lon="2.98188">
        <ele>156.1</ele>
        <time>2018-02-25T12:00:35.000Z</time>
      </trkpt>
      <trkpt lat="43.55211" lon="2.98186">
        <ele>156.8</ele>
        <time>2018-02-25T12:00:37.000Z</time>
      </trkpt>
      <trkpt lat="43.55214" lon="2.98186">
        <ele>157.1</ele>
        <time>2018-02-25T12:00:38.000Z</time>
      </trkpt>
      <trkpt lat="43.55217" lon="2.98185">
        <ele>157.4</ele>
        <time>2018-02-25T12:00:39.000Z</time>
      </trkpt>
      <trkpt lat="43.5522" lon="2.98184">
        <ele>157.7</ele>
        <time>2018-02-25T12:00:40.000Z</time>
      </trkpt>
      <trkpt lat="43.55223" lon="2.98183">
        <ele>157.9</ele>
        <time>2018-02-25T12:00:41.000Z</time>
      </trkpt>
      <trkpt lat="43.55227" lon="2.98182">
        <ele>158.1</ele>
        <time>2018-02-25T12:00:42.000Z</time>
      </trkpt>
      <trkpt lat="43.5523" lon="2.98181">
        <ele>158.2</ele>
        <time>2018-02-25T12:00:43.000Z</time>
      </trkpt>
      <trkpt lat="43.55232" lon="2.9818">
        <ele>158.4</ele>
        <time>2018-02-25T12:00:44.000Z</time>
      </trkpt>
      <trkpt lat="43.55235" lon="2.98179">
        <ele>158.5</ele>
        <time>2018-02-25T12:00:45.000Z</time>
      </trkpt>
      <trkpt lat="43.55238" lon="2.98177">
        <ele>158.6</ele>
        <time>2018-02-25T12:00:46.000Z</time>
      </trkpt>
      <trkpt lat="43.55241" lon="2.98176">
        <ele>158.7</ele>
        <time>2018-02-25T12:00:47.000Z</time>
      </trkpt>
      <trkpt lat="43.55243" lon="2.98174">
        <ele>158.8</ele>
        <time>2018-02-25T12:00:48.000Z</time>
      </trkpt>
      <trkpt lat="43.55246" lon="2.98172">
        <ele>158.9</ele>
        <time>2018-02-25T12:00:49.000Z</time>
      </trkpt>
      <trkpt lat="43.55248" lon="2.98169">
        <ele>159</ele>
        <time>2018-02-25T12:00:50.000Z</time>
      </trkpt>
      <trkpt lat="43.55251" lon="2.98167">
        <ele>159.1</ele>
        <time>2018-02-25T12:00:51.000Z</time>
      </trkpt>
      <trkpt lat="43.55254" lon="2.98164">
        <ele>159.2</ele>
        <time>2018-02-25T12:00:52.000Z</time>
      </trkpt>
      <trkpt lat="43.55257" lon="2.98161">
        <ele>159.4</ele>
        <time>2018-02-25T12:00:53.000Z</time>
      </trkpt>
      <trkpt lat="43.5526" lon="2.98158">
        <ele>159.5</ele>
        <time>2018-02-25T12:00:54.000Z</time>
      </trkpt>
      <trkpt lat="43.55262" lon="2.98155">
        <ele>159.7</ele>
        <time>2018-02-25T12:00:55.000Z</time>
      </trkpt>
      <trkpt lat="43.55265" lon="2.98152">
        <ele>159.9</ele>
        <time>2018-02-25T12:00:56.000Z</time>
      </trkpt>
      <trkpt lat="43.55267" lon="2.98148">
        <ele>160.3</ele>
        <time>2018-02-25T12:00:57.000Z</time>
      </trkpt>
      <trkpt lat="43.5527" lon="2.98145">
        <ele>160.6</ele>
        <time>2018-02-25T12:00:58.000Z</time>
      </trkpt>
      <trkpt lat="43.55271" lon="2.98142">
        <ele>160.9</ele>
        <time>2018-02-25T12:00:59.000Z</time>
      </trkpt>
      <trkpt lat="43.55273" lon="2.98139">
        <ele>161.2</ele>
        <time>2018-02-25T12:01:00.000Z</time>
      </trkpt>
      <trkpt lat="43.55275" lon="2.98136">
        <ele>161.5</ele>
        <time>2018-02-25T12:01:01.000Z</time>
      </trkpt>
      <trkpt lat="43.55278" lon="2.9813">
        <ele>162</ele>
        <time>2018-02-25T12:01:03.000Z</time>
      </trkpt>
      <trkpt lat="43.5528" lon="2.98128">
        <ele>162.3</ele>
        <time>2018-02-25T12:01:04.000Z</time>
      </trkpt>
      <trkpt lat="43.55282" lon="2.98125">
        <ele>162.6</ele>
        <time>2018-02-25T12:01:05.000Z</time>
      </trkpt>
      <trkpt lat="43.55284" lon="2.98123">
        <ele>162.9</ele>
        <time>2018-02-25T12:01:06.000Z</time>
      </trkpt>
      <trkpt lat="43.55287" lon="2.9812">
        <ele>163.1</ele>
        <time>2018-02-25T12:01:07.000Z</time>
      </trkpt>
      <trkpt lat="43.55289" lon="2.98118">
        <ele>163.4</ele>
        <time>2018-02-25T12:01:08.000Z</time>
      </trkpt>
      <trkpt lat="43.55291" lon="2.98115">
        <ele>163.5</ele>
        <time>2018-02-25T12:01:09.000Z</time>
      </trkpt>
      <trkpt lat="43.55294" lon="2.98113">
        <ele>163.6</ele>
        <time>2018-02-25T12:01:10.000Z</time>
      </trkpt>
      <trkpt lat="43.55297" lon="2.98112">
        <ele>163.7</ele>
        <time>2018-02-25T12:01:11.000Z</time>
      </trkpt>
      <trkpt lat="43.553" lon="2.98111">
        <ele>163.8</ele>
        <time>2018-02-25T12:01:12.000Z</time>
      </trkpt>
      <trkpt lat="43.55303" lon="2.9811">
        <ele>164</ele>
        <time>2018-02-25T12:01:13.000Z</time>
      </trkpt>
      <trkpt lat="43.55306" lon="2.98109">
        <ele>164</ele>
        <time>2018-02-25T12:01:14.000Z</time>
      </trkpt>
      <trkpt lat="43.55309" lon="2.98109">
        <ele>164</ele>
        <time>2018-02-25T12:01:15.000Z</time>
      </trkpt>
      <trkpt lat="43.55312" lon="2.9811">
        <ele>163.9</ele>
        <time>2018-02-25T12:01:16.000Z</time>
      </trkpt>
      <trkpt lat="43.55316" lon="2.98112">
        <ele>163.9</ele>
        <time>2018-02-25T12:01:17.000Z</time>
      </trkpt>
      <trkpt lat="43.55319" lon="2.98114">
        <ele>163.9</ele>
        <time>2018-02-25T12:01:18.000Z</time>
      </trkpt>
      <trkpt lat="43.55323" lon="2.98116">
        <ele>163.9</ele>
        <time>2018-02-25T12:01:19.000Z</time>
      </trkpt>
      <trkpt lat="43.55326" lon="2.9812">
        <ele>163.8</ele>
        <time>2018-02-25T12:01:20.000Z</time>
      </trkpt>
      <trkpt lat="43.55329" lon="2.98123">
        <ele>163.8</ele>
        <time>2018-02-25T12:01:21.000Z</time>
      </trkpt>
      <trkpt lat="43.55332" lon="2.98127">
        <ele>163.8</ele>
        <time>2018-02-25T12:01:22.000Z</time>
      </trkpt>
      <trkpt lat="43.55335" lon="2.9813">
        <ele>163.7</ele>
        <time>2018-02-25T12:01:23.000Z</time>
      </trkpt>
      <trkpt lat="43.55338" lon="2.98134">
        <ele>163.7</ele>
        <time>2018-02-25T12:01:24.000Z</time>
      </trkpt>
      <trkpt lat="43.55341" lon="2.98137">
        <ele>163.7</ele>
        <time>2018-02-25T12:01:25.000Z</time>
      </trkpt>
      <trkpt lat="43.55345" lon="2.98141">
        <ele>163.7</ele>
        <time>2018-02-25T12:01:26.000Z</time>
      </trkpt>
      <trkpt lat="43.55348" lon="2.98145">
        <ele>163.7</ele>
        <time>2018-02-25T12:01:27.000Z</time>
      </trkpt>
      <trkpt lat="43.55351" lon="2.98149">
        <ele>163.6</ele>
        <time>2018-02-25T12:01:28.000Z</time>
      </trkpt>
      <trkpt lat="43.55354" lon="2.98153">
        <ele>163.6</ele>
        <time>2018-02-25T12:01:29.000Z</time>
      </trkpt>
      <trkpt lat="43.55357" lon="2.98157">
        <ele>163.6</ele>
        <time>2018-02-25T12:01:30.000Z</time>
      </trkpt>
      <trkpt lat="43.5536" lon="2.98161">
        <ele>163.6</ele>
        <time>2018-02-25T12:01:31.000Z</time>
      </trkpt>
      <trkpt lat="43.55362" lon="2.98165">
        <ele>163.6</ele>
        <time>2018-02-25T12:01:32.000Z</time>
      </trkpt>
      <trkpt lat="43.55365" lon="2.98169">
        <ele>163.5</ele>
        <time>2018-02-25T12:01:33.000Z</time>
      </trkpt>
      <trkpt lat="43.55368" lon="2.98173">
        <ele>163.5</ele>
        <time>2018-02-25T12:01:34.000Z</time>
      </trkpt>
      <trkpt lat="43.55373" lon="2.98179">
        <ele>163.5</ele>
        <time>2018-02-25T12:01:36.000Z</time>
      </trkpt>
      <trkpt lat="43.55376" lon="2.98184">
        <ele>163.5</ele>
        <time>2018-02-25T12:01:37.000Z</time>
      </trkpt>
      <trkpt lat="43.55378" lon="2.98188">
        <ele>163.4</ele>
        <time>2018-02-25T12:01:38.000Z</time>
      </trkpt>
      <trkpt lat="43.55381" lon="2.98192">
        <ele>163.4</ele>
        <time>2018-02-25T12:01:39.000Z</time>
      </trkpt>
      <trkpt lat="43.55384" lon="2.98196">
        <ele>163.4</ele>
        <time>2018-02-25T12:01:40.000Z</time>
      </trkpt>
      <trkpt lat="43.55387" lon="2.982">
        <ele>163.4</ele>
        <time>2018-02-25T12:01:41.000Z</time>
      </trkpt>
      <trkpt lat="43.55388" lon="2.98204">
        <ele>163.4</ele>
        <time>2018-02-25T12:01:42.000Z</time>
      </trkpt>
      <trkpt lat="43.5539" lon="2.98209">
        <ele>163.3</ele>
        <time>2018-02-25T12:01:43.000Z</time>
      </trkpt>
      <trkpt lat="43.55394" lon="2.98213">
        <ele>163.3</ele>
        <time>2018-02-25T12:01:44.000Z</time>
      </trkpt>
      <trkpt lat="43.55397" lon="2.98218">
        <ele>163.2</ele>
        <time>2018-02-25T12:01:45.000Z</time>
      </trkpt>
      <trkpt lat="43.55401" lon="2.98222">
        <ele>163.2</ele>
        <time>2018-02-25T12:01:46.000Z</time>
      </trkpt>
      <trkpt lat="43.55406" lon="2.98226">
        <ele>163.1</ele>
        <time>2018-02-25T12:01:47.000Z</time>
      </trkpt>
      <trkpt lat="43.55411" lon="2.98231">
        <ele>163.1</ele>
        <time>2018-02-25T12:01:48.000Z</time>
      </trkpt>
      <trkpt lat="43.55415" lon="2.98236">
        <ele>163</ele>
        <time>2018-02-25T12:01:49.000Z</time>
      </trkpt>
      <trkpt lat="43.55419" lon="2.9824">
        <ele>163</ele>
        <time>2018-02-25T12:01:50.000Z</time>
      </trkpt>
      <trkpt lat="43.55423" lon="2.98244">
        <ele>163</ele>
        <time>2018-02-25T12:01:51.000Z</time>
      </trkpt>
      <trkpt lat="43.55425" lon="2.98249">
        <ele>162.9</ele>
        <time>2018-02-25T12:01:52.000Z</time>
      </trkpt>
      <trkpt lat="43.55428" lon="2.98253">
        <ele>162.9</ele>
        <time>2018-02-25T12:01:53.000Z</time>
      </trkpt>
      <trkpt lat="43.5543" lon="2.98258">
        <ele>162.8</ele>
        <time>2018-02-25T12:01:54.000Z</time>
      </trkpt>
      <trkpt lat="43.55432" lon="2.98262">
        <ele>162.6</ele>
        <time>2018-02-25T12:01:55.000Z</time>
      </trkpt>
      <trkpt lat="43.55437" lon="2.98266">
        <ele>162.4</ele>
        <time>2018-02-25T12:01:56.000Z</time>
      </trkpt>
      <trkpt lat="43.55439" lon="2.9827">
        <ele>162.3</ele>
        <time>2018-02-25T12:01:57.000Z</time>
      </trkpt>
      <trkpt lat="43.55441" lon="2.98275">
        <ele>162</ele>
        <time>2018-02-25T12:01:58.000Z</time>
      </trkpt>
      <trkpt lat="43.55447" lon="2.98277">
        <ele>161.8</ele>
        <time>2018-02-25T12:01:59.000Z</time>
      </trkpt>
      <trkpt lat="43.55451" lon="2.98281">
        <ele>161.5</ele>
        <time>2018-02-25T12:02:00.000Z</time>
      </trkpt>
      <trkpt lat="43.55456" lon="2.98283">
        <ele>161.3</ele>
        <time>2018-02-25T12:02:01.000Z</time>
      </trkpt>
      <trkpt lat="43.55459" lon="2.98285">
        <ele>161.1</ele>
        <time>2018-02-25T12:02:02.000Z</time>
      </trkpt>
      <trkpt lat="43.55462" lon="2.98287">
        <ele>161</ele>
        <time>2018-02-25T12:02:03.000Z</time>
      </trkpt>
      <trkpt lat="43.55467" lon="2.9829">
        <ele>160.8</ele>
        <time>2018-02-25T12:02:04.000Z</time>
      </trkpt>
      <trkpt lat="43.55471" lon="2.98293">
        <ele>160.7</ele>
        <time>2018-02-25T12:02:05.000Z</time>
      </trkpt>
      <trkpt lat="43.55474" lon="2.98295">
        <ele>160.7</ele>
        <time>2018-02-25T12:02:06.000Z</time>
      </trkpt>
      <trkpt lat="43.55477" lon="2.98298">
        <ele>160.6</ele>
        <time>2018-02-25T12:02:07.000Z</time>
      </trkpt>
      <trkpt lat="43.55481" lon="2.98301">
        <ele>160.6</ele>
        <time>2018-02-25T12:02:08.000Z</time>
      </trkpt>
      <trkpt lat="43.55485" lon="2.98303">
        <ele>160.5</ele>
        <time>2018-02-25T12:02:09.000Z</time>
      </trkpt>
      <trkpt lat="43.55488" lon="2.98306">
        <ele>160.4</ele>
        <time>2018-02-25T12:02:10.000Z</time>
      </trkpt>
      <trkpt lat="43.55492" lon="2.98309">
        <ele>160.4</ele>
        <time>2018-02-25T12:02:11.000Z</time>
      </trkpt>
      <trkpt lat="43.55496" lon="2.98312">
        <ele>160.3</ele>
        <time>2018-02-25T12:02:12.000Z</time>
      </trkpt>
      <trkpt lat="43.55499" lon="2.98314">
        <ele>160.3</ele>
        <time>2018-02-25T12:02:13.000Z</time>
      </trkpt>
      <trkpt lat="43.55503" lon="2.98316">
        <ele>160.2</ele>
        <time>2018-02-25T12:02:14.000Z</time>
      </trkpt>
      <trkpt lat="43.55509" lon="2.98317">
        <ele>160.1</ele>
        <time>2018-02-25T12:02:15.000Z</time>
      </trkpt>
      <trkpt lat="43.55514" lon="2.98318">
        <ele>160.1</ele>
        <time>2018-02-25T12:02:16.000Z</time>
      </trkpt>
      <trkpt lat="43.55518" lon="2.98319">
        <ele>160</ele>
        <time>2018-02-25T12:02:17.000Z</time>
      </trkpt>
      <trkpt lat="43.55522" lon="2.98321">
        <ele>160</ele>
        <time>2018-02-25T12:02:18.000Z</time>
      </trkpt>
      <trkpt lat="43.55529" lon="2.98321">
        <ele>159.9</ele>
        <time>2018-02-25T12:02:19.000Z</time>
      </trkpt>
      <trkpt lat="43.55534" lon="2.98324">
        <ele>159.9</ele>
        <time>2018-02-25T12:02:20.000Z</time>
      </trkpt>
      <trkpt lat="43.55538" lon="2.98327">
        <ele>159.8</ele>
        <time>2018-02-25T12:02:21.000Z</time>
      </trkpt>
      <trkpt lat="43.55544" lon="2.98331">
        <ele>159.8</ele>
        <time>2018-02-25T12:02:22.000Z</time>
      </trkpt>
      <trkpt lat="43.55548" lon="2.98335">
        <ele>159.7</ele>
        <time>2018-02-25T12:02:23.000Z</time>
      </trkpt>
      <trkpt lat="43.55552" lon="2.98339">
        <ele>159.7</ele>
        <time>2018-02-25T12:02:24.000Z</time>
      </trkpt>
      <trkpt lat="43.55554" lon="2.98343">
        <ele>159.6</ele>
        <time>2018-02-25T12:02:25.000Z</time>
      </trkpt>
      <trkpt lat="43.55558" lon="2.98346">
        <ele>159.5</ele>
        <time>2018-02-25T12:02:26.000Z</time>
      </trkpt>
      <trkpt lat="43.55562" lon="2.98349">
        <ele>159.4</ele>
        <time>2018-02-25T12:02:27.000Z</time>
      </trkpt>
      <trkpt lat="43.55567" lon="2.98353">
        <ele>159.2</ele>
        <time>2018-02-25T12:02:28.000Z</time>
      </trkpt>
      <trkpt lat="43.55572" lon="2.98355">
        <ele>159</ele>
        <time>2018-02-25T12:02:29.000Z</time>
      </trkpt>
      <trkpt lat="43.55577" lon="2.98357">
        <ele>158.7</ele>
        <time>2018-02-25T12:02:30.000Z</time>
      </trkpt>
      <trkpt lat="43.55582" lon="2.98358">
        <ele>158.4</ele>
        <time>2018-02-25T12:02:31.000Z</time>
      </trkpt>
      <trkpt lat="43.55586" lon="2.98358">
        <ele>158.1</ele>
        <time>2018-02-25T12:02:32.000Z</time>
      </trkpt>
      <trkpt lat="43.55593" lon="2.98357">
        <ele>157.8</ele>
        <time>2018-02-25T12:02:33.000Z</time>
      </trkpt>
      <trkpt lat="43.55597" lon="2.98357">
        <ele>157.5</ele>
        <time>2018-02-25T12:02:34.000Z</time>
      </trkpt>
      <trkpt lat="43.55604" lon="2.98355">
        <ele>157.2</ele>
        <time>2018-02-25T12:02:35.000Z</time>
      </trkpt>
      <trkpt lat="43.55607" lon="2.98354">
        <ele>157</ele>
        <time>2018-02-25T12:02:36.000Z</time>
      </trkpt>
      <trkpt lat="43.55614" lon="2.98352">
        <ele>156.8</ele>
        <time>2018-02-25T12:02:37.000Z</time>
      </trkpt>
      <trkpt lat="43.5562" lon="2.9835">
        <ele>156.6</ele>
        <time>2018-02-25T12:02:38.000Z</time>
      </trkpt>
      <trkpt lat="43.55625" lon="2.9835">
        <ele>156.5</ele>
        <time>2018-02-25T12:02:39.000Z</time>
      </trkpt>
      <trkpt lat="43.55631" lon="2.98348">
        <ele>156.4</ele>
        <time>2018-02-25T12:02:40.000Z</time>
      </trkpt>
      <trkpt lat="43.55636" lon="2.9835">
        <ele>156.3</ele>
        <time>2018-02-25T12:02:41.000Z</time>
      </trkpt>
      <trkpt lat="43.55643" lon="2.98347">
        <ele>156.2</ele>
        <time>2018-02-25T12:02:42.000Z</time>
      </trkpt>
      <trkpt lat="43.55649" lon="2.98346">
        <ele>156.1</ele>
        <time>2018-02-25T12:02:43.000Z</time>
      </trkpt>
      <trkpt lat="43.55657" lon="2.98347">
        <ele>156</ele>
        <time>2018-02-25T12:02:44.000Z</time>
      </trkpt>
      <trkpt lat="43.55664" lon="2.98344">
        <ele>155.7</ele>
        <time>2018-02-25T12:02:45.000Z</time>
      </trkpt>
      <trkpt lat="43.55671" lon="2.98343">
        <ele>155.4</ele>
        <time>2018-02-25T12:02:46.000Z</time>
      </trkpt>
      <trkpt lat="43.55677" lon="2.98341">
        <ele>155.1</ele>
        <time>2018-02-25T12:02:47.000Z</time>
      </trkpt>
      <trkpt lat="43.55683" lon="2.9834">
        <ele>154.8</ele>
        <time>2018-02-25T12:02:48.000Z</time>
      </trkpt>
      <trkpt lat="43.55688" lon="2.98341">
        <ele>154.6</ele>
        <time>2018-02-25T12:02:49.000Z</time>
      </trkpt>
      <trkpt lat="43.55697" lon="2.98342">
        <ele>154.2</ele>
        <time>2018-02-25T12:02:50.000Z</time>
      </trkpt>
      <trkpt lat="43.55703" lon="2.98345">
        <ele>153.9</ele>
        <time>2018-02-25T12:02:51.000Z</time>
      </trkpt>
      <trkpt lat="43.55708" lon="2.98347">
        <ele>153.8</ele>
        <time>2018-02-25T12:02:52.000Z</time>
      </trkpt>
      <trkpt lat="43.55713" lon="2.98349">
        <ele>153.7</ele>
        <time>2018-02-25T12:02:53.000Z</time>
      </trkpt>
      <trkpt lat="43.55717" lon="2.98351">
        <ele>153.6</ele>
        <time>2018-02-25T12:02:54.000Z</time>
      </trkpt>
      <trkpt lat="43.55721" lon="2.98355">
        <ele>153.5</ele>
        <time>2018-02-25T12:02:55.000Z</time>
      </trkpt>
      <trkpt lat="43.55729" lon="2.98359">
        <ele>153.4</ele>
        <time>2018-02-25T12:02:56.000Z</time>
      </trkpt>
      <trkpt lat="43.55731" lon="2.98361">
        <ele>153.3</ele>
        <time>2018-02-25T12:02:57.000Z</time>
      </trkpt>
      <trkpt lat="43.55735" lon="2.98367">
        <ele>153.1</ele>
        <time>2018-02-25T12:02:58.000Z</time>
      </trkpt>
      <trkpt lat="43.5574" lon="2.9837">
        <ele>152.8</ele>
        <time>2018-02-25T12:02:59.000Z</time>
      </trkpt>
      <trkpt lat="43.55747" lon="2.98367">
        <ele>152.5</ele>
        <time>2018-02-25T12:03:00.000Z</time>
      </trkpt>
      <trkpt lat="43.55755" lon="2.98366">
        <ele>152</ele>
        <time>2018-02-25T12:03:01.000Z</time>
      </trkpt>
      <trkpt lat="43.55758" lon="2.98364">
        <ele>151.8</ele>
        <time>2018-02-25T12:03:02.000Z</time>
      </trkpt>
      <trkpt lat="43.55761" lon="2.9836">
        <ele>151.6</ele>
        <time>2018-02-25T12:03:03.000Z</time>
      </trkpt>
      <trkpt lat="43.55766" lon="2.98355">
        <ele>151.3</ele>
        <time>2018-02-25T12:03:04.000Z</time>
      </trkpt>
      <trkpt lat="43.55769" lon="2.98346">
        <ele>150.9</ele>
        <time>2018-02-25T12:03:05.000Z</time>
      </trkpt>
      <trkpt lat="43.55773" lon="2.98333">
        <ele>150.7</ele>
        <time>2018-02-25T12:03:06.000Z</time>
      </trkpt>
      <trkpt lat="43.55778" lon="2.98329">
        <ele>150.5</ele>
        <time>2018-02-25T12:03:07.000Z</time>
      </trkpt>
      <trkpt lat="43.55789" lon="2.98325">
        <ele>150.3</ele>
        <time>2018-02-25T12:03:08.000Z</time>
      </trkpt>
      <trkpt lat="43.55795" lon="2.98318">
        <ele>150.2</ele>
        <time>2018-02-25T12:03:09.000Z</time>
      </trkpt>
      <trkpt lat="43.55802" lon="2.98312">
        <ele>150</ele>
        <time>2018-02-25T12:03:10.000Z</time>
      </trkpt>
      <trkpt lat="43.55808" lon="2.98309">
        <ele>149.9</ele>
        <time>2018-02-25T12:03:11.000Z</time>
      </trkpt>
      <trkpt lat="43.55816" lon="2.98306">
        <ele>149.7</ele>
        <time>2018-02-25T12:03:12.000Z</time>
      </trkpt>
      <trkpt lat="43.55823" lon="2.98306">
        <ele>149.6</ele>
        <time>2018-02-25T12:03:13.000Z</time>
      </trkpt>
      <trkpt lat="43.55829" lon="2.98299">
        <ele>149.5</ele>
        <time>2018-02-25T12:03:14.000Z</time>
      </trkpt>
      <trkpt lat="43.55836" lon="2.9829">
        <ele>149.1</ele>
        <time>2018-02-25T12:03:15.000Z</time>
      </trkpt>
      <trkpt lat="43.55842" lon="2.98276">
        <ele>148.6</ele>
        <time>2018-02-25T12:03:16.000Z</time>
      </trkpt>
      <trkpt lat="43.55849" lon="2.98263">
        <ele>148.1</ele>
        <time>2018-02-25T12:03:17.000Z</time>
      </trkpt>
      <trkpt lat="43.55856" lon="2.98252">
        <ele>147.8</ele>
        <time>2018-02-25T12:03:18.000Z</time>
      </trkpt>
      <trkpt lat="43.5586" lon="2.98245">
        <ele>147.7</ele>
        <time>2018-02-25T12:03:19.000Z</time>
      </trkpt>
      <trkpt lat="43.55866" lon="2.98235">
        <ele>147.5</ele>
        <time>2018-02-25T12:03:20.000Z</time>
      </trkpt>
      <trkpt lat="43.55872" lon="2.98227">
        <ele>147.4</ele>
        <time>2018-02-25T12:03:21.000Z</time>
      </trkpt>
      <trkpt lat="43.55881" lon="2.98222">
        <ele>147.3</ele>
        <time>2018-02-25T12:03:22.000Z</time>
      </trkpt>
      <trkpt lat="43.55889" lon="2.98216">
        <ele>147.1</ele>
        <time>2018-02-25T12:03:23.000Z</time>
      </trkpt>
      <trkpt lat="43.55896" lon="2.98211">
        <ele>146.9</ele>
        <time>2018-02-25T12:03:24.000Z</time>
      </trkpt>
      <trkpt lat="43.55903" lon="2.98204">
        <ele>146.7</ele>
        <time>2018-02-25T12:03:25.000Z</time>
      </trkpt>
      <trkpt lat="43.55907" lon="2.98194">
        <ele>146.5</ele>
        <time>2018-02-25T12:03:26.000Z</time>
      </trkpt>
      <trkpt lat="43.55913" lon="2.98184">
        <ele>146.3</ele>
        <time>2018-02-25T12:03:27.000Z</time>
      </trkpt>
      <trkpt lat="43.55918" lon="2.98173">
        <ele>146</ele>
        <time>2018-02-25T12:03:28.000Z</time>
      </trkpt>
      <trkpt lat="43.55926" lon="2.98163">
        <ele>145.4</ele>
        <time>2018-02-25T12:03:29.000Z</time>
      </trkpt>
      <trkpt lat="43.55934" lon="2.98153">
        <ele>145</ele>
        <time>2018-02-25T12:03:30.000Z</time>
      </trkpt>
      <trkpt lat="43.55942" lon="2.98143">
        <ele>144.7</ele>
        <time>2018-02-25T12:03:31.000Z</time>
      </trkpt>
      <trkpt lat="43.55947" lon="2.9813">
        <ele>144.5</ele>
        <time>2018-02-25T12:03:32.000Z</time>
      </trkpt>
      <trkpt lat="43.55952" lon="2.98122">
        <ele>144.3</ele>
        <time>2018-02-25T12:03:33.000Z</time>
      </trkpt>
      <trkpt lat="43.55959" lon="2.98108">
        <ele>144.1</ele>
        <time>2018-02-25T12:03:34.000Z</time>
      </trkpt>
      <trkpt lat="43.55962" lon="2.98096">
        <ele>143.9</ele>
        <time>2018-02-25T12:03:35.000Z</time>
      </trkpt>
      <trkpt lat="43.55966" lon="2.98085">
        <ele>143.6</ele>
        <time>2018-02-25T12:03:36.000Z</time>
      </trkpt>
      <trkpt lat="43.55972" lon="2.98075">
        <ele>143.3</ele>
        <time>2018-02-25T12:03:37.000Z</time>
      </trkpt>
      <trkpt lat="43.55976" lon="2.98063">
        <ele>142.9</ele>
        <time>2018-02-25T12:03:38.000Z</time>
      </trkpt>
      <trkpt lat="43.5598" lon="2.98052">
        <ele>142.6</ele>
        <time>2018-02-25T12:03:39.000Z</time>
      </trkpt>
      <trkpt lat="43.55984" lon="2.9804">
        <ele>142.2</ele>
        <time>2018-02-25T12:03:40.000Z</time>
      </trkpt>
      <trkpt lat="43.5599" lon="2.98029">
        <ele>141.9</ele>
        <time>2018-02-25T12:03:41.000Z</time>
      </trkpt>
      <trkpt lat="43.55995" lon="2.98019">
        <ele>141.6</ele>
        <time>2018-02-25T12:03:42.000Z</time>
      </trkpt>
      <trkpt lat="43.55999" lon="2.9801">
        <ele>141.5</ele>
        <time>2018-02-25T12:03:43.000Z</time>
      </trkpt>
      <trkpt lat="43.56007" lon="2.98002">
        <ele>141.3</ele>
        <time>2018-02-25T12:03:44.000Z</time>
      </trkpt>
      <trkpt lat="43.56013" lon="2.97994">
        <ele>141.1</ele>
        <time>2018-02-25T12:03:45.000Z</time>
      </trkpt>
      <trkpt lat="43.56018" lon="2.97987">
        <ele>140.9</ele>
        <time>2018-02-25T12:03:46.000Z</time>
      </trkpt>
      <trkpt lat="43.56023" lon="2.97978">
        <ele>140.7</ele>
        <time>2018-02-25T12:03:47.000Z</time>
      </trkpt>
      <trkpt lat="43.56027" lon="2.9797">
        <ele>140.4</ele>
        <time>2018-02-25T12:03:48.000Z</time>
      </trkpt>
      <trkpt lat="43.56033" lon="2.97958">
        <ele>140</ele>
        <time>2018-02-25T12:03:49.000Z</time>
      </trkpt>
      <trkpt lat="43.56036" lon="2.97949">
        <ele>140</ele>
        <time>2018-02-25T12:03:50.000Z</time>
      </trkpt>
      <trkpt lat="43.5604" lon="2.97939">
        <ele>140</ele>
        <time>2018-02-25T12:03:51.000Z</time>
      </trkpt>
      <trkpt lat="43.56045" lon="2.97928">
        <ele>139.9</ele>
        <time>2018-02-25T12:03:52.000Z</time>
      </trkpt>
      <trkpt lat="43.56049" lon="2.97917">
        <ele>139.9</ele>
        <time>2018-02-25T12:03:53.000Z</time>
      </trkpt>
      <trkpt lat="43.56051" lon="2.97905">
        <ele>139.9</ele>
        <time>2018-02-25T12:03:54.000Z</time>
      </trkpt>
      <trkpt lat="43.56053" lon="2.97893">
        <ele>139.8</ele>
        <time>2018-02-25T12:03:55.000Z</time>
      </trkpt>
      <trkpt lat="43.56055" lon="2.97881">
        <ele>139.8</ele>
        <time>2018-02-25T12:03:56.000Z</time>
      </trkpt>
      <trkpt lat="43.56056" lon="2.97871">
        <ele>139.8</ele>
        <time>2018-02-25T12:03:57.000Z</time>
      </trkpt>
      <trkpt lat="43.56057" lon="2.97859">
        <ele>139.7</ele>
        <time>2018-02-25T12:03:58.000Z</time>
      </trkpt>
      <trkpt lat="43.56058" lon="2.97848">
        <ele>139.7</ele>
        <time>2018-02-25T12:03:59.000Z</time>
      </trkpt>
      <trkpt lat="43.56058" lon="2.97839">
        <ele>139.7</ele>
        <time>2018-02-25T12:04:00.000Z</time>
      </trkpt>
      <trkpt lat="43.56057" lon="2.97828">
        <ele>139.6</ele>
        <time>2018-02-25T12:04:01.000Z</time>
      </trkpt>
      <trkpt lat="43.56055" lon="2.97816">
        <ele>139.4</ele>
        <time>2018-02-25T12:04:02.000Z</time>
      </trkpt>
      <trkpt lat="43.56054" lon="2.97806">
        <ele>139.3</ele>
        <time>2018-02-25T12:04:03.000Z</time>
      </trkpt>
      <trkpt lat="43.56054" lon="2.97795">
        <ele>139.2</ele>
        <time>2018-02-25T12:04:04.000Z</time>
      </trkpt>
      <trkpt lat="43.56053" lon="2.97784">
        <ele>139.1</ele>
        <time>2018-02-25T12:04:05.000Z</time>
      </trkpt>
      <trkpt lat="43.56053" lon="2.97773">
        <ele>139</ele>
        <time>2018-02-25T12:04:06.000Z</time>
      </trkpt>
      <trkpt lat="43.56053" lon="2.97762">
        <ele>139</ele>
        <time>2018-02-25T12:04:07.000Z</time>
      </trkpt>
      <trkpt lat="43.56053" lon="2.97751">
        <ele>139</ele>
        <time>2018-02-25T12:04:08.000Z</time>
      </trkpt>
      <trkpt lat="43.56054" lon="2.97742">
        <ele>139</ele>
        <time>2018-02-25T12:04:09.000Z</time>
      </trkpt>
      <trkpt lat="43.56054" lon="2.97732">
        <ele>139</ele>
        <time>2018-02-25T12:04:10.000Z</time>
      </trkpt>
      <trkpt lat="43.56055" lon="2.97724">
        <ele>139</ele>
        <time>2018-02-25T12:04:11.000Z</time>
      </trkpt>
      <trkpt lat="43.56056" lon="2.97715">
        <ele>139</ele>
        <time>2018-02-25T12:04:12.000Z</time>
      </trkpt>
      <trkpt lat="43.56058" lon="2.97706">
        <ele>139</ele>
        <time>2018-02-25T12:04:13.000Z</time>
      </trkpt>
      <trkpt lat="43.5606" lon="2.97698">
        <ele>139</ele>
        <time>2018-02-25T12:04:14.000Z</time>
      </trkpt>
      <trkpt lat="43.56062" lon="2.97691">
        <ele>139</ele>
        <time>2018-02-25T12:04:15.000Z</time>
      </trkpt>
      <trkpt lat="43.56066" lon="2.97685">
        <ele>139</ele>
        <time>2018-02-25T12:04:16.000Z</time>
      </trkpt>
      <trkpt lat="43.56068" lon="2.97679">
        <ele>138.9</ele>
        <time>2018-02-25T12:04:17.000Z</time>
      </trkpt>
      <trkpt lat="43.56072" lon="2.97674">
        <ele>138.8</ele>
        <time>2018-02-25T12:04:18.000Z</time>
      </trkpt>
      <trkpt lat="43.56077" lon="2.97669">
        <ele>138.7</ele>
        <time>2018-02-25T12:04:19.000Z</time>
      </trkpt>
      <trkpt lat="43.5608" lon="2.97664">
        <ele>138.6</ele>
        <time>2018-02-25T12:04:20.000Z</time>
      </trkpt>
      <trkpt lat="43.56085" lon="2.97661">
        <ele>138.5</ele>
        <time>2018-02-25T12:04:21.000Z</time>
      </trkpt>
      <trkpt lat="43.56091" lon="2.97659">
        <ele>138.4</ele>
        <time>2018-02-25T12:04:22.000Z</time>
      </trkpt>
      <trkpt lat="43.56098" lon="2.97656">
        <ele>138.3</ele>
        <time>2018-02-25T12:04:23.000Z</time>
      </trkpt>
      <trkpt lat="43.56102" lon="2.97654">
        <ele>138.3</ele>
        <time>2018-02-25T12:04:24.000Z</time>
      </trkpt>
      <trkpt lat="43.56108" lon="2.97652">
        <ele>138.2</ele>
        <time>2018-02-25T12:04:25.000Z</time>
      </trkpt>
      <trkpt lat="43.56114" lon="2.9765">
        <ele>138</ele>
        <time>2018-02-25T12:04:26.000Z</time>
      </trkpt>
      <trkpt lat="43.56119" lon="2.97647">
        <ele>138</ele>
        <time>2018-02-25T12:04:27.000Z</time>
      </trkpt>
      <trkpt lat="43.56125" lon="2.97646">
        <ele>137.9</ele>
        <time>2018-02-25T12:04:28.000Z</time>
      </trkpt>
      <trkpt lat="43.56129" lon="2.97644">
        <ele>137.9</ele>
        <time>2018-02-25T12:04:29.000Z</time>
      </trkpt>
      <trkpt lat="43.56134" lon="2.97642">
        <ele>137.8</ele>
        <time>2018-02-25T12:04:30.000Z</time>
      </trkpt>
      <trkpt lat="43.56141" lon="2.97641">
        <ele>137.8</ele>
        <time>2018-02-25T12:04:31.000Z</time>
      </trkpt>
      <trkpt lat="43.56146" lon="2.97639">
        <ele>137.7</ele>
        <time>2018-02-25T12:04:32.000Z</time>
      </trkpt>
      <trkpt lat="43.5615" lon="2.97638">
        <ele>137.7</ele>
        <time>2018-02-25T12:04:33.000Z</time>
      </trkpt>
      <trkpt lat="43.56156" lon="2.97637">
        <ele>137.7</ele>
        <time>2018-02-25T12:04:35.000Z</time>
      </trkpt>
      <trkpt lat="43.5616" lon="2.97636">
        <ele>137.7</ele>
        <time>2018-02-25T12:04:36.000Z</time>
      </trkpt>
      <trkpt lat="43.56164" lon="2.97634">
        <ele>137.6</ele>
        <time>2018-02-25T12:04:37.000Z</time>
      </trkpt>
      <trkpt lat="43.56169" lon="2.97631">
        <ele>137.6</ele>
        <time>2018-02-25T12:04:38.000Z</time>
      </trkpt>
      <trkpt lat="43.56175" lon="2.97629">
        <ele>137.6</ele>
        <time>2018-02-25T12:04:39.000Z</time>
      </trkpt>
      <trkpt lat="43.5618" lon="2.97628">
        <ele>137.6</ele>
        <time>2018-02-25T12:04:40.000Z</time>
      </trkpt>
      <trkpt lat="43.56185" lon="2.97626">
        <ele>137.6</ele>
        <time>2018-02-25T12:04:41.000Z</time>
      </trkpt>
      <trkpt lat="43.56187" lon="2.97624">
        <ele>137.6</ele>
        <time>2018-02-25T12:04:42.000Z</time>
      </trkpt>
      <trkpt lat="43.56193" lon="2.97621">
        <ele>137.6</ele>
        <time>2018-02-25T12:04:43.000Z</time>
      </trkpt>
      <trkpt lat="43.56197" lon="2.9762">
        <ele>137.6</ele>
        <time>2018-02-25T12:04:44.000Z</time>
      </trkpt>
      <trkpt lat="43.56202" lon="2.97618">
        <ele>137.5</ele>
        <time>2018-02-25T12:04:45.000Z</time>
      </trkpt>
      <trkpt lat="43.56206" lon="2.97616">
        <ele>137.5</ele>
        <time>2018-02-25T12:04:46.000Z</time>
      </trkpt>
      <trkpt lat="43.5621" lon="2.97615">
        <ele>137.4</ele>
        <time>2018-02-25T12:04:47.000Z</time>
      </trkpt>
      <trkpt lat="43.56215" lon="2.97613">
        <ele>137.4</ele>
        <time>2018-02-25T12:04:48.000Z</time>
      </trkpt>
      <trkpt lat="43.5622" lon="2.9761">
        <ele>137.3</ele>
        <time>2018-02-25T12:04:49.000Z</time>
      </trkpt>
      <trkpt lat="43.56226" lon="2.97611">
        <ele>137.3</ele>
        <time>2018-02-25T12:04:51.000Z</time>
      </trkpt>
      <trkpt lat="43.56229" lon="2.97609">
        <ele>137.2</ele>
        <time>2018-02-25T12:04:52.000Z</time>
      </trkpt>
      <trkpt lat="43.56238" lon="2.97605">
        <ele>137.2</ele>
        <time>2018-02-25T12:04:53.000Z</time>
      </trkpt>
      <trkpt lat="43.56245" lon="2.97602">
        <ele>137</ele>
        <time>2018-02-25T12:04:54.000Z</time>
      </trkpt>
      <trkpt lat="43.56248" lon="2.97602">
        <ele>136.9</ele>
        <time>2018-02-25T12:04:55.000Z</time>
      </trkpt>
      <trkpt lat="43.56254" lon="2.97597">
        <ele>136.8</ele>
        <time>2018-02-25T12:04:56.000Z</time>
      </trkpt>
      <trkpt lat="43.56258" lon="2.97595">
        <ele>136.7</ele>
        <time>2018-02-25T12:04:57.000Z</time>
      </trkpt>
      <trkpt lat="43.56264" lon="2.97593">
        <ele>136.6</ele>
        <time>2018-02-25T12:04:59.000Z</time>
      </trkpt>
      <trkpt lat="43.56267" lon="2.97591">
        <ele>136.6</ele>
        <time>2018-02-25T12:05:00.000Z</time>
      </trkpt>
      <trkpt lat="43.5627" lon="2.97589">
        <ele>136.5</ele>
        <time>2018-02-25T12:05:01.000Z</time>
      </trkpt>
      <trkpt lat="43.56274" lon="2.97587">
        <ele>136.4</ele>
        <time>2018-02-25T12:05:02.000Z</time>
      </trkpt>
      <trkpt lat="43.56281" lon="2.97585">
        <ele>136.2</ele>
        <time>2018-02-25T12:05:04.000Z</time>
      </trkpt>
      <trkpt lat="43.56284" lon="2.97585">
        <ele>136.2</ele>
        <time>2018-02-25T12:05:05.000Z</time>
      </trkpt>
      <trkpt lat="43.56287" lon="2.97584">
        <ele>136.1</ele>
        <time>2018-02-25T12:05:06.000Z</time>
      </trkpt>
      <trkpt lat="43.56291" lon="2.97583">
        <ele>136</ele>
        <time>2018-02-25T12:05:07.000Z</time>
      </trkpt>
      <trkpt lat="43.56298" lon="2.9758">
        <ele>135.7</ele>
        <time>2018-02-25T12:05:14.000Z</time>
      </trkpt>
      <trkpt lat="43.563" lon="2.97579">
        <ele>135.7</ele>
        <time>2018-02-25T12:05:15.000Z</time>
      </trkpt>
      <trkpt lat="43.56304" lon="2.97577">
        <ele>135.6</ele>
        <time>2018-02-25T12:05:16.000Z</time>
      </trkpt>
      <trkpt lat="43.56308" lon="2.97575">
        <ele>135.4</ele>
        <time>2018-02-25T12:05:17.000Z</time>
      </trkpt>
      <trkpt lat="43.56311" lon="2.97573">
        <ele>135.3</ele>
        <time>2018-02-25T12:05:18.000Z</time>
      </trkpt>
      <trkpt lat="43.56314" lon="2.97573">
        <ele>135.2</ele>
        <time>2018-02-25T12:05:19.000Z</time>
      </trkpt>
      <trkpt lat="43.56317" lon="2.97572">
        <ele>135</ele>
        <time>2018-02-25T12:05:20.000Z</time>
      </trkpt>
      <trkpt lat="43.5632" lon="2.97571">
        <ele>135.3</ele>
        <time>2018-02-25T12:05:21.000Z</time>
      </trkpt>
      <trkpt lat="43.56325" lon="2.97568">
        <ele>136.2</ele>
        <time>2018-02-25T12:05:23.000Z</time>
      </trkpt>
      <trkpt lat="43.56329" lon="2.97566">
        <ele>137</ele>
        <time>2018-02-25T12:05:24.000Z</time>
      </trkpt>
      <trkpt lat="43.56333" lon="2.97564">
        <ele>137.7</ele>
        <time>2018-02-25T12:05:25.000Z</time>
      </trkpt>
      <trkpt lat="43.56338" lon="2.97562">
        <ele>138.4</ele>
        <time>2018-02-25T12:05:26.000Z</time>
      </trkpt>
      <trkpt lat="43.56342" lon="2.97559">
        <ele>139.1</ele>
        <time>2018-02-25T12:05:27.000Z</time>
      </trkpt>
      <trkpt lat="43.56346" lon="2.97557">
        <ele>139.7</ele>
        <time>2018-02-25T12:05:28.000Z</time>
      </trkpt>
      <trkpt lat="43.56349" lon="2.97555">
        <ele>140.1</ele>
        <time>2018-02-25T12:05:29.000Z</time>
      </trkpt>
      <trkpt lat="43.56352" lon="2.97553">
        <ele>140.5</ele>
        <time>2018-02-25T12:05:30.000Z</time>
      </trkpt>
      <trkpt lat="43.56357" lon="2.97553">
        <ele>140.9</ele>
        <time>2018-02-25T12:05:32.000Z</time>
      </trkpt>
      <trkpt lat="43.5636" lon="2.97553">
        <ele>141</ele>
        <time>2018-02-25T12:05:33.000Z</time>
      </trkpt>
      <trkpt lat="43.56363" lon="2.97552">
        <ele>141.2</ele>
        <time>2018-02-25T12:05:34.000Z</time>
      </trkpt>
      <trkpt lat="43.56366" lon="2.97551">
        <ele>141.4</ele>
        <time>2018-02-25T12:05:35.000Z</time>
      </trkpt>
      <trkpt lat="43.56371" lon="2.97548">
        <ele>141.6</ele>
        <time>2018-02-25T12:05:36.000Z</time>
      </trkpt>
      <trkpt lat="43.56376" lon="2.97544">
        <ele>141.9</ele>
        <time>2018-02-25T12:05:37.000Z</time>
      </trkpt>
      <trkpt lat="43.56386" lon="2.97533">
        <ele>142.6</ele>
        <time>2018-02-25T12:05:38.000Z</time>
      </trkpt>
      <trkpt lat="43.5639" lon="2.97527">
        <ele>142.9</ele>
        <time>2018-02-25T12:05:39.000Z</time>
      </trkpt>
      <trkpt lat="43.56393" lon="2.97524">
        <ele>143.1</ele>
        <time>2018-02-25T12:05:40.000Z</time>
      </trkpt>
      <trkpt lat="43.56397" lon="2.97523">
        <ele>143.4</ele>
        <time>2018-02-25T12:05:41.000Z</time>
      </trkpt>
      <trkpt lat="43.56399" lon="2.9752">
        <ele>143.5</ele>
        <time>2018-02-25T12:05:42.000Z</time>
      </trkpt>
      <trkpt lat="43.56403" lon="2.97517">
        <ele>143.8</ele>
        <time>2018-02-25T12:05:43.000Z</time>
      </trkpt>
      <trkpt lat="43.5641" lon="2.97512">
        <ele>144.1</ele>
        <time>2018-02-25T12:05:44.000Z</time>
      </trkpt>
      <trkpt lat="43.56416" lon="2.9751">
        <ele>144.2</ele>
        <time>2018-02-25T12:05:45.000Z</time>
      </trkpt>
      <trkpt lat="43.56421" lon="2.97507">
        <ele>144.3</ele>
        <time>2018-02-25T12:05:46.000Z</time>
      </trkpt>
      <trkpt lat="43.56426" lon="2.97502">
        <ele>144.4</ele>
        <time>2018-02-25T12:05:48.000Z</time>
      </trkpt>
      <trkpt lat="43.56429" lon="2.97497">
        <ele>144.5</ele>
        <time>2018-02-25T12:05:50.000Z</time>
      </trkpt>
      <trkpt lat="43.56431" lon="2.97493">
        <ele>144.5</ele>
        <time>2018-02-25T12:05:51.000Z</time>
      </trkpt>
      <trkpt lat="43.56435" lon="2.9749">
        <ele>144.5</ele>
        <time>2018-02-25T12:05:52.000Z</time>
      </trkpt>
      <trkpt lat="43.56438" lon="2.97486">
        <ele>144.5</ele>
        <time>2018-02-25T12:05:53.000Z</time>
      </trkpt>
      <trkpt lat="43.56442" lon="2.97484">
        <ele>144.6</ele>
        <time>2018-02-25T12:05:54.000Z</time>
      </trkpt>
      <trkpt lat="43.56446" lon="2.9748">
        <ele>144.6</ele>
        <time>2018-02-25T12:05:55.000Z</time>
      </trkpt>
      <trkpt lat="43.5645" lon="2.97477">
        <ele>144.6</ele>
        <time>2018-02-25T12:05:56.000Z</time>
      </trkpt>
      <trkpt lat="43.56454" lon="2.97474">
        <ele>144.7</ele>
        <time>2018-02-25T12:05:57.000Z</time>
      </trkpt>
      <trkpt lat="43.56458" lon="2.9747">
        <ele>144.7</ele>
        <time>2018-02-25T12:05:58.000Z</time>
      </trkpt>
      <trkpt lat="43.56462" lon="2.97467">
        <ele>144.7</ele>
        <time>2018-02-25T12:05:59.000Z</time>
      </trkpt>
      <trkpt lat="43.56465" lon="2.97464">
        <ele>144.7</ele>
        <time>2018-02-25T12:06:00.000Z</time>
      </trkpt>
      <trkpt lat="43.56468" lon="2.97461">
        <ele>144.7</ele>
        <time>2018-02-25T12:06:01.000Z</time>
      </trkpt>
      <trkpt lat="43.56471" lon="2.97458">
        <ele>144.8</ele>
        <time>2018-02-25T12:06:02.000Z</time>
      </trkpt>
      <trkpt lat="43.56474" lon="2.97455">
        <ele>144.8</ele>
        <time>2018-02-25T12:06:03.000Z</time>
      </trkpt>
      <trkpt lat="43.56476" lon="2.97452">
        <ele>144.8</ele>
        <time>2018-02-25T12:06:04.000Z</time>
      </trkpt>
      <trkpt lat="43.56479" lon="2.9745">
        <ele>144.8</ele>
        <time>2018-02-25T12:06:05.000Z</time>
      </trkpt>
      <trkpt lat="43.56482" lon="2.97448">
        <ele>144.9</ele>
        <time>2018-02-25T12:06:06.000Z</time>
      </trkpt>
      <trkpt lat="43.56485" lon="2.97445">
        <ele>144.9</ele>
        <time>2018-02-25T12:06:07.000Z</time>
      </trkpt>
      <trkpt lat="43.56488" lon="2.97443">
        <ele>144.9</ele>
        <time>2018-02-25T12:06:08.000Z</time>
      </trkpt>
      <trkpt lat="43.56492" lon="2.9744">
        <ele>144.9</ele>
        <time>2018-02-25T12:06:09.000Z</time>
      </trkpt>
      <trkpt lat="43.56496" lon="2.97437">
        <ele>144.9</ele>
        <time>2018-02-25T12:06:10.000Z</time>
      </trkpt>
      <trkpt lat="43.56499" lon="2.97434">
        <ele>144.9</ele>
        <time>2018-02-25T12:06:11.000Z</time>
      </trkpt>
      <trkpt lat="43.56502" lon="2.97431">
        <ele>144.9</ele>
        <time>2018-02-25T12:06:12.000Z</time>
      </trkpt>
      <trkpt lat="43.56506" lon="2.97429">
        <ele>145</ele>
        <time>2018-02-25T12:06:13.000Z</time>
      </trkpt>
      <trkpt lat="43.56509" lon="2.97426">
        <ele>145</ele>
        <time>2018-02-25T12:06:14.000Z</time>
      </trkpt>
      <trkpt lat="43.56512" lon="2.97424">
        <ele>145.1</ele>
        <time>2018-02-25T12:06:15.000Z</time>
      </trkpt>
      <trkpt lat="43.56515" lon="2.97422">
        <ele>145.4</ele>
        <time>2018-02-25T12:06:16.000Z</time>
      </trkpt>
      <trkpt lat="43.56518" lon="2.9742">
        <ele>145.7</ele>
        <time>2018-02-25T12:06:17.000Z</time>
      </trkpt>
      <trkpt lat="43.56521" lon="2.97418">
        <ele>146.1</ele>
        <time>2018-02-25T12:06:18.000Z</time>
      </trkpt>
      <trkpt lat="43.56524" lon="2.97416">
        <ele>146.4</ele>
        <time>2018-02-25T12:06:19.000Z</time>
      </trkpt>
      <trkpt lat="43.56527" lon="2.97415">
        <ele>146.8</ele>
        <time>2018-02-25T12:06:20.000Z</time>
      </trkpt>
      <trkpt lat="43.56531" lon="2.97413">
        <ele>147.2</ele>
        <time>2018-02-25T12:06:21.000Z</time>
      </trkpt>
      <trkpt lat="43.56534" lon="2.97411">
        <ele>147.5</ele>
        <time>2018-02-25T12:06:22.000Z</time>
      </trkpt>
      <trkpt lat="43.56537" lon="2.97409">
        <ele>147.9</ele>
        <time>2018-02-25T12:06:23.000Z</time>
      </trkpt>
      <trkpt lat="43.56539" lon="2.97407">
        <ele>148</ele>
        <time>2018-02-25T12:06:24.000Z</time>
      </trkpt>
      <trkpt lat="43.56542" lon="2.97405">
        <ele>148</ele>
        <time>2018-02-25T12:06:25.000Z</time>
      </trkpt>
      <trkpt lat="43.56544" lon="2.97402">
        <ele>148</ele>
        <time>2018-02-25T12:06:26.000Z</time>
      </trkpt>
      <trkpt lat="43.56547" lon="2.97399">
        <ele>148</ele>
        <time>2018-02-25T12:06:27.000Z</time>
      </trkpt>
      <trkpt lat="43.56549" lon="2.97397">
        <ele>148</ele>
        <time>2018-02-25T12:06:28.000Z</time>
      </trkpt>
      <trkpt lat="43.56552" lon="2.97394">
        <ele>148</ele>
        <time>2018-02-25T12:06:29.000Z</time>
      </trkpt>
      <trkpt lat="43.56554" lon="2.97392">
        <ele>148</ele>
        <time>2018-02-25T12:06:30.000Z</time>
      </trkpt>
      <trkpt lat="43.56558" lon="2.97389">
        <ele>148</ele>
        <time>2018-02-25T12:06:32.000Z</time>
      </trkpt>
      <trkpt lat="43.5656" lon="2.97386">
        <ele>148</ele>
        <time>2018-02-25T12:06:34.000Z</time>
      </trkpt>
      <trkpt lat="43.56563" lon="2.97382">
        <ele>148</ele>
        <time>2018-02-25T12:06:36.000Z</time>
      </trkpt>
      <trkpt lat="43.56565" lon="2.97378">
        <ele>148</ele>
        <time>2018-02-25T12:06:38.000Z</time>
      </trkpt>
      <trkpt lat="43.56567" lon="2.97373">
        <ele>148</ele>
        <time>2018-02-25T12:06:40.000Z</time>
      </trkpt>
      <trkpt lat="43.56569" lon="2.97368">
        <ele>148.1</ele>
        <time>2018-02-25T12:06:42.000Z</time>
      </trkpt>
      <trkpt lat="43.56569" lon="2.97364">
        <ele>148.2</ele>
        <time>2018-02-25T12:06:43.000Z</time>
      </trkpt>
      <trkpt lat="43.56568" lon="2.9736">
        <ele>148.3</ele>
        <time>2018-02-25T12:06:44.000Z</time>
      </trkpt>
      <trkpt lat="43.56567" lon="2.97356">
        <ele>148.3</ele>
        <time>2018-02-25T12:06:45.000Z</time>
      </trkpt>
      <trkpt lat="43.56565" lon="2.97351">
        <ele>148.4</ele>
        <time>2018-02-25T12:06:46.000Z</time>
      </trkpt>
      <trkpt lat="43.56563" lon="2.97347">
        <ele>148.5</ele>
        <time>2018-02-25T12:06:47.000Z</time>
      </trkpt>
      <trkpt lat="43.56562" lon="2.97342">
        <ele>148.6</ele>
        <time>2018-02-25T12:06:48.000Z</time>
      </trkpt>
      <trkpt lat="43.5656" lon="2.97338">
        <ele>148.7</ele>
        <time>2018-02-25T12:06:49.000Z</time>
      </trkpt>
      <trkpt lat="43.56559" lon="2.97334">
        <ele>148.8</ele>
        <time>2018-02-25T12:06:50.000Z</time>
      </trkpt>
      <trkpt lat="43.56558" lon="2.9733">
        <ele>148.8</ele>
        <time>2018-02-25T12:06:51.000Z</time>
      </trkpt>
      <trkpt lat="43.56557" lon="2.97326">
        <ele>148.9</ele>
        <time>2018-02-25T12:06:52.000Z</time>
      </trkpt>
      <trkpt lat="43.56556" lon="2.97322">
        <ele>149</ele>
        <time>2018-02-25T12:06:53.000Z</time>
      </trkpt>
      <trkpt lat="43.56556" lon="2.97318">
        <ele>149</ele>
        <time>2018-02-25T12:06:54.000Z</time>
      </trkpt>
      <trkpt lat="43.56556" lon="2.97311">
        <ele>149</ele>
        <time>2018-02-25T12:06:56.000Z</time>
      </trkpt>
      <trkpt lat="43.56556" lon="2.97304">
        <ele>149</ele>
        <time>2018-02-25T12:06:58.000Z</time>
      </trkpt>
      <trkpt lat="43.56556" lon="2.973">
        <ele>149</ele>
        <time>2018-02-25T12:06:59.000Z</time>
      </trkpt>
      <trkpt lat="43.56556" lon="2.97294">
        <ele>149</ele>
        <time>2018-02-25T12:07:01.000Z</time>
      </trkpt>
      <trkpt lat="43.56556" lon="2.97288">
        <ele>149</ele>
        <time>2018-02-25T12:07:03.000Z</time>
      </trkpt>
      <trkpt lat="43.56556" lon="2.97281">
        <ele>149</ele>
        <time>2018-02-25T12:07:05.000Z</time>
      </trkpt>
      <trkpt lat="43.56556" lon="2.97275">
        <ele>149</ele>
        <time>2018-02-25T12:07:07.000Z</time>
      </trkpt>
      <trkpt lat="43.56556" lon="2.97268">
        <ele>149</ele>
        <time>2018-02-25T12:07:09.000Z</time>
      </trkpt>
      <trkpt lat="43.56557" lon="2.9726">
        <ele>149.3</ele>
        <time>2018-02-25T12:07:11.000Z</time>
      </trkpt>
      <trkpt lat="43.56558" lon="2.97257">
        <ele>149.7</ele>
        <time>2018-02-25T12:07:12.000Z</time>
      </trkpt>
      <trkpt lat="43.56558" lon="2.97252">
        <ele>150.2</ele>
        <time>2018-02-25T12:07:13.000Z</time>
      </trkpt>
      <trkpt lat="43.56558" lon="2.97248">
        <ele>150.7</ele>
        <time>2018-02-25T12:07:14.000Z</time>
      </trkpt>
      <trkpt lat="43.56559" lon="2.97244">
        <ele>151.1</ele>
        <time>2018-02-25T12:07:15.000Z</time>
      </trkpt>
      <trkpt lat="43.5656" lon="2.9724">
        <ele>151.5</ele>
        <time>2018-02-25T12:07:16.000Z</time>
      </trkpt>
      <trkpt lat="43.5656" lon="2.97236">
        <ele>152</ele>
        <time>2018-02-25T12:07:17.000Z</time>
      </trkpt>
      <trkpt lat="43.56561" lon="2.97233">
        <ele>152.4</ele>
        <time>2018-02-25T12:07:18.000Z</time>
      </trkpt>
      <trkpt lat="43.56563" lon="2.97226">
        <ele>153.2</ele>
        <time>2018-02-25T12:07:20.000Z</time>
      </trkpt>
      <trkpt lat="43.56564" lon="2.97222">
        <ele>153.6</ele>
        <time>2018-02-25T12:07:21.000Z</time>
      </trkpt>
      <trkpt lat="43.56564" lon="2.97218">
        <ele>154.7</ele>
        <time>2018-02-25T12:07:22.000Z</time>
      </trkpt>
      <trkpt lat="43.56565" lon="2.97213">
        <ele>156</ele>
        <time>2018-02-25T12:07:23.000Z</time>
      </trkpt>
      <trkpt lat="43.56566" lon="2.97209">
        <ele>157.4</ele>
        <time>2018-02-25T12:07:24.000Z</time>
      </trkpt>
      <trkpt lat="43.56567" lon="2.97205">
        <ele>158.8</ele>
        <time>2018-02-25T12:07:25.000Z</time>
      </trkpt>
      <trkpt lat="43.56567" lon="2.972">
        <ele>160.4</ele>
        <time>2018-02-25T12:07:26.000Z</time>
      </trkpt>
      <trkpt lat="43.56568" lon="2.97196">
        <ele>161.5</ele>
        <time>2018-02-25T12:07:27.000Z</time>
      </trkpt>
      <trkpt lat="43.56568" lon="2.97192">
        <ele>162.5</ele>
        <time>2018-02-25T12:07:28.000Z</time>
      </trkpt>
      <trkpt lat="43.56568" lon="2.97188">
        <ele>163.5</ele>
        <time>2018-02-25T12:07:29.000Z</time>
      </trkpt>
      <trkpt lat="43.56568" lon="2.97184">
        <ele>164.6</ele>
        <time>2018-02-25T12:07:30.000Z</time>
      </trkpt>
      <trkpt lat="43.56568" lon="2.97179">
        <ele>165.6</ele>
        <time>2018-02-25T12:07:31.000Z</time>
      </trkpt>
      <trkpt lat="43.56569" lon="2.97175">
        <ele>166.5</ele>
        <time>2018-02-25T12:07:32.000Z</time>
      </trkpt>
      <trkpt lat="43.5657" lon="2.97171">
        <ele>167.5</ele>
        <time>2018-02-25T12:07:33.000Z</time>
      </trkpt>
      <trkpt lat="43.56572" lon="2.97166">
        <ele>168.5</ele>
        <time>2018-02-25T12:07:34.000Z</time>
      </trkpt>
      <trkpt lat="43.56573" lon="2.97163">
        <ele>169</ele>
        <time>2018-02-25T12:07:35.000Z</time>
      </trkpt>
      <trkpt lat="43.56574" lon="2.97155">
        <ele>169</ele>
        <time>2018-02-25T12:07:37.000Z</time>
      </trkpt>
      <trkpt lat="43.56575" lon="2.97151">
        <ele>169</ele>
        <time>2018-02-25T12:07:38.000Z</time>
      </trkpt>
      <trkpt lat="43.56575" lon="2.97147">
        <ele>169</ele>
        <time>2018-02-25T12:07:39.000Z</time>
      </trkpt>
      <trkpt lat="43.56575" lon="2.97143">
        <ele>169</ele>
        <time>2018-02-25T12:07:40.000Z</time>
      </trkpt>
      <trkpt lat="43.56576" lon="2.97138">
        <ele>169</ele>
        <time>2018-02-25T12:07:41.000Z</time>
      </trkpt>
      <trkpt lat="43.56576" lon="2.97134">
        <ele>169</ele>
        <time>2018-02-25T12:07:42.000Z</time>
      </trkpt>
      <trkpt lat="43.56577" lon="2.9713">
        <ele>169</ele>
        <time>2018-02-25T12:07:43.000Z</time>
      </trkpt>
      <trkpt lat="43.56578" lon="2.97126">
        <ele>169</ele>
        <time>2018-02-25T12:07:44.000Z</time>
      </trkpt>
      <trkpt lat="43.56579" lon="2.97122">
        <ele>169</ele>
        <time>2018-02-25T12:07:45.000Z</time>
      </trkpt>
      <trkpt lat="43.5658" lon="2.97118">
        <ele>169</ele>
        <time>2018-02-25T12:07:46.000Z</time>
      </trkpt>
      <trkpt lat="43.56581" lon="2.97114">
        <ele>169.1</ele>
        <time>2018-02-25T12:07:47.000Z</time>
      </trkpt>
      <trkpt lat="43.56581" lon="2.9711">
        <ele>169.1</ele>
        <time>2018-02-25T12:07:48.000Z</time>
      </trkpt>
      <trkpt lat="43.56582" lon="2.97106">
        <ele>169.1</ele>
        <time>2018-02-25T12:07:49.000Z</time>
      </trkpt>
      <trkpt lat="43.56583" lon="2.97102">
        <ele>169.2</ele>
        <time>2018-02-25T12:07:50.000Z</time>
      </trkpt>
      <trkpt lat="43.56583" lon="2.97098">
        <ele>169.2</ele>
        <time>2018-02-25T12:07:51.000Z</time>
      </trkpt>
      <trkpt lat="43.56584" lon="2.97094">
        <ele>169.3</ele>
        <time>2018-02-25T12:07:52.000Z</time>
      </trkpt>
      <trkpt lat="43.56585" lon="2.9709">
        <ele>169.4</ele>
        <time>2018-02-25T12:07:53.000Z</time>
      </trkpt>
      <trkpt lat="43.56585" lon="2.97085">
        <ele>169.5</ele>
        <time>2018-02-25T12:07:54.000Z</time>
      </trkpt>
      <trkpt lat="43.56586" lon="2.97081">
        <ele>169.6</ele>
        <time>2018-02-25T12:07:55.000Z</time>
      </trkpt>
      <trkpt lat="43.56586" lon="2.97076">
        <ele>169.6</ele>
        <time>2018-02-25T12:07:56.000Z</time>
      </trkpt>
      <trkpt lat="43.56586" lon="2.97072">
        <ele>169.6</ele>
        <time>2018-02-25T12:07:57.000Z</time>
      </trkpt>
      <trkpt lat="43.56586" lon="2.97068">
        <ele>169.6</ele>
        <time>2018-02-25T12:07:58.000Z</time>
      </trkpt>
      <trkpt lat="43.56585" lon="2.97064">
        <ele>169.7</ele>
        <time>2018-02-25T12:07:59.000Z</time>
      </trkpt>
      <trkpt lat="43.56585" lon="2.9706">
        <ele>169.7</ele>
        <time>2018-02-25T12:08:00.000Z</time>
      </trkpt>
      <trkpt lat="43.56586" lon="2.97055">
        <ele>169.7</ele>
        <time>2018-02-25T12:08:01.000Z</time>
      </trkpt>
      <trkpt lat="43.56586" lon="2.97051">
        <ele>169.7</ele>
        <time>2018-02-25T12:08:02.000Z</time>
      </trkpt>
      <trkpt lat="43.56587" lon="2.97047">
        <ele>169.7</ele>
        <time>2018-02-25T12:08:03.000Z</time>
      </trkpt>
      <trkpt lat="43.56587" lon="2.97042">
        <ele>169.7</ele>
        <time>2018-02-25T12:08:04.000Z</time>
      </trkpt>
      <trkpt lat="43.56587" lon="2.97038">
        <ele>169.7</ele>
        <time>2018-02-25T12:08:05.000Z</time>
      </trkpt>
      <trkpt lat="43.56586" lon="2.97031">
        <ele>169.7</ele>
        <time>2018-02-25T12:08:07.000Z</time>
      </trkpt>
      <trkpt lat="43.56586" lon="2.97027">
        <ele>169.7</ele>
        <time>2018-02-25T12:08:08.000Z</time>
      </trkpt>
      <trkpt lat="43.56585" lon="2.97023">
        <ele>169.7</ele>
        <time>2018-02-25T12:08:09.000Z</time>
      </trkpt>
      <trkpt lat="43.56585" lon="2.97019">
        <ele>169.8</ele>
        <time>2018-02-25T12:08:10.000Z</time>
      </trkpt>
      <trkpt lat="43.56584" lon="2.97014">
        <ele>169.8</ele>
        <time>2018-02-25T12:08:11.000Z</time>
      </trkpt>
      <trkpt lat="43.56584" lon="2.9701">
        <ele>169.8</ele>
        <time>2018-02-25T12:08:12.000Z</time>
      </trkpt>
      <trkpt lat="43.56583" lon="2.97006">
        <ele>169.9</ele>
        <time>2018-02-25T12:08:13.000Z</time>
      </trkpt>
      <trkpt lat="43.56583" lon="2.97001">
        <ele>170</ele>
        <time>2018-02-25T12:08:14.000Z</time>
      </trkpt>
      <trkpt lat="43.56583" lon="2.96996">
        <ele>170.1</ele>
        <time>2018-02-25T12:08:15.000Z</time>
      </trkpt>
      <trkpt lat="43.56583" lon="2.96991">
        <ele>170.2</ele>
        <time>2018-02-25T12:08:16.000Z</time>
      </trkpt>
      <trkpt lat="43.56583" lon="2.96986">
        <ele>170.3</ele>
        <time>2018-02-25T12:08:17.000Z</time>
      </trkpt>
      <trkpt lat="43.56583" lon="2.96982">
        <ele>170.3</ele>
        <time>2018-02-25T12:08:18.000Z</time>
      </trkpt>
      <trkpt lat="43.56582" lon="2.96977">
        <ele>170.4</ele>
        <time>2018-02-25T12:08:19.000Z</time>
      </trkpt>
      <trkpt lat="43.56582" lon="2.96973">
        <ele>170.4</ele>
        <time>2018-02-25T12:08:20.000Z</time>
      </trkpt>
      <trkpt lat="43.56582" lon="2.96968">
        <ele>170.4</ele>
        <time>2018-02-25T12:08:21.000Z</time>
      </trkpt>
      <trkpt lat="43.56581" lon="2.96964">
        <ele>170.4</ele>
        <time>2018-02-25T12:08:22.000Z</time>
      </trkpt>
      <trkpt lat="43.56581" lon="2.96959">
        <ele>170.4</ele>
        <time>2018-02-25T12:08:23.000Z</time>
      </trkpt>
      <trkpt lat="43.56581" lon="2.96955">
        <ele>170.4</ele>
        <time>2018-02-25T12:08:24.000Z</time>
      </trkpt>
      <trkpt lat="43.56582" lon="2.9695">
        <ele>170.4</ele>
        <time>2018-02-25T12:08:25.000Z</time>
      </trkpt>
      <trkpt lat="43.56582" lon="2.96945">
        <ele>170.4</ele>
        <time>2018-02-25T12:08:26.000Z</time>
      </trkpt>
      <trkpt lat="43.56582" lon="2.9694">
        <ele>170.5</ele>
        <time>2018-02-25T12:08:27.000Z</time>
      </trkpt>
      <trkpt lat="43.56582" lon="2.96936">
        <ele>170.5</ele>
        <time>2018-02-25T12:08:28.000Z</time>
      </trkpt>
      <trkpt lat="43.56583" lon="2.96931">
        <ele>170.5</ele>
        <time>2018-02-25T12:08:29.000Z</time>
      </trkpt>
      <trkpt lat="43.56583" lon="2.96926">
        <ele>170.5</ele>
        <time>2018-02-25T12:08:30.000Z</time>
      </trkpt>
      <trkpt lat="43.56584" lon="2.96922">
        <ele>170.5</ele>
        <time>2018-02-25T12:08:31.000Z</time>
      </trkpt>
      <trkpt lat="43.56584" lon="2.96917">
        <ele>170.5</ele>
        <time>2018-02-25T12:08:32.000Z</time>
      </trkpt>
      <trkpt lat="43.56585" lon="2.96913">
        <ele>170.5</ele>
        <time>2018-02-25T12:08:33.000Z</time>
      </trkpt>
      <trkpt lat="43.56586" lon="2.96908">
        <ele>170.5</ele>
        <time>2018-02-25T12:08:34.000Z</time>
      </trkpt>
      <trkpt lat="43.56586" lon="2.96904">
        <ele>170.5</ele>
        <time>2018-02-25T12:08:35.000Z</time>
      </trkpt>
      <trkpt lat="43.56587" lon="2.96899">
        <ele>170.6</ele>
        <time>2018-02-25T12:08:36.000Z</time>
      </trkpt>
      <trkpt lat="43.56588" lon="2.96895">
        <ele>170.6</ele>
        <time>2018-02-25T12:08:37.000Z</time>
      </trkpt>
      <trkpt lat="43.56588" lon="2.9689">
        <ele>170.7</ele>
        <time>2018-02-25T12:08:38.000Z</time>
      </trkpt>
      <trkpt lat="43.56589" lon="2.96886">
        <ele>170.7</ele>
        <time>2018-02-25T12:08:39.000Z</time>
      </trkpt>
      <trkpt lat="43.5659" lon="2.96882">
        <ele>170.8</ele>
        <time>2018-02-25T12:08:40.000Z</time>
      </trkpt>
      <trkpt lat="43.56591" lon="2.96878">
        <ele>170.9</ele>
        <time>2018-02-25T12:08:41.000Z</time>
      </trkpt>
      <trkpt lat="43.56592" lon="2.96874">
        <ele>171</ele>
        <time>2018-02-25T12:08:42.000Z</time>
      </trkpt>
      <trkpt lat="43.56592" lon="2.9687">
        <ele>171.1</ele>
        <time>2018-02-25T12:08:43.000Z</time>
      </trkpt>
      <trkpt lat="43.56593" lon="2.96866">
        <ele>171.1</ele>
        <time>2018-02-25T12:08:44.000Z</time>
      </trkpt>
      <trkpt lat="43.56594" lon="2.96862">
        <ele>171.2</ele>
        <time>2018-02-25T12:08:45.000Z</time>
      </trkpt>
      <trkpt lat="43.56595" lon="2.96858">
        <ele>171.2</ele>
        <time>2018-02-25T12:08:46.000Z</time>
      </trkpt>
      <trkpt lat="43.56596" lon="2.96854">
        <ele>171.2</ele>
        <time>2018-02-25T12:08:47.000Z</time>
      </trkpt>
      <trkpt lat="43.56597" lon="2.96851">
        <ele>171.2</ele>
        <time>2018-02-25T12:08:48.000Z</time>
      </trkpt>
      <trkpt lat="43.56599" lon="2.96847">
        <ele>171.2</ele>
        <time>2018-02-25T12:08:49.000Z</time>
      </trkpt>
      <trkpt lat="43.566" lon="2.96843">
        <ele>171.2</ele>
        <time>2018-02-25T12:08:50.000Z</time>
      </trkpt>
      <trkpt lat="43.56601" lon="2.96839">
        <ele>171.2</ele>
        <time>2018-02-25T12:08:51.000Z</time>
      </trkpt>
      <trkpt lat="43.56602" lon="2.96835">
        <ele>171.3</ele>
        <time>2018-02-25T12:08:52.000Z</time>
      </trkpt>
      <trkpt lat="43.56604" lon="2.96832">
        <ele>171.3</ele>
        <time>2018-02-25T12:08:53.000Z</time>
      </trkpt>
      <trkpt lat="43.56605" lon="2.96828">
        <ele>171.3</ele>
        <time>2018-02-25T12:08:54.000Z</time>
      </trkpt>
      <trkpt lat="43.56606" lon="2.96824">
        <ele>171.3</ele>
        <time>2018-02-25T12:08:55.000Z</time>
      </trkpt>
      <trkpt lat="43.56608" lon="2.9682">
        <ele>171.3</ele>
        <time>2018-02-25T12:08:56.000Z</time>
      </trkpt>
      <trkpt lat="43.56609" lon="2.96816">
        <ele>171.3</ele>
        <time>2018-02-25T12:08:57.000Z</time>
      </trkpt>
      <trkpt lat="43.56611" lon="2.96813">
        <ele>171.3</ele>
        <time>2018-02-25T12:08:58.000Z</time>
      </trkpt>
      <trkpt lat="43.56612" lon="2.9681">
        <ele>171.3</ele>
        <time>2018-02-25T12:08:59.000Z</time>
      </trkpt>
      <trkpt lat="43.56613" lon="2.96806">
        <ele>171.4</ele>
        <time>2018-02-25T12:09:00.000Z</time>
      </trkpt>
      <trkpt lat="43.56615" lon="2.96802">
        <ele>171.4</ele>
        <time>2018-02-25T12:09:01.000Z</time>
      </trkpt>
      <trkpt lat="43.56616" lon="2.96798">
        <ele>171.4</ele>
        <time>2018-02-25T12:09:02.000Z</time>
      </trkpt>
      <trkpt lat="43.56617" lon="2.96794">
        <ele>171.4</ele>
        <time>2018-02-25T12:09:03.000Z</time>
      </trkpt>
      <trkpt lat="43.56618" lon="2.9679">
        <ele>171.5</ele>
        <time>2018-02-25T12:09:04.000Z</time>
      </trkpt>
      <trkpt lat="43.5662" lon="2.96786">
        <ele>171.5</ele>
        <time>2018-02-25T12:09:05.000Z</time>
      </trkpt>
      <trkpt lat="43.56621" lon="2.96782">
        <ele>171.5</ele>
        <time>2018-02-25T12:09:06.000Z</time>
      </trkpt>
      <trkpt lat="43.56622" lon="2.96778">
        <ele>171.5</ele>
        <time>2018-02-25T12:09:07.000Z</time>
      </trkpt>
      <trkpt lat="43.56624" lon="2.96774">
        <ele>171.6</ele>
        <time>2018-02-25T12:09:08.000Z</time>
      </trkpt>
      <trkpt lat="43.56625" lon="2.96771">
        <ele>171.7</ele>
        <time>2018-02-25T12:09:09.000Z</time>
      </trkpt>
      <trkpt lat="43.56626" lon="2.96767">
        <ele>171.7</ele>
        <time>2018-02-25T12:09:10.000Z</time>
      </trkpt>
      <trkpt lat="43.56627" lon="2.96764">
        <ele>171.8</ele>
        <time>2018-02-25T12:09:11.000Z</time>
      </trkpt>
      <trkpt lat="43.5663" lon="2.96756">
        <ele>172</ele>
        <time>2018-02-25T12:09:13.000Z</time>
      </trkpt>
      <trkpt lat="43.56632" lon="2.96752">
        <ele>172.1</ele>
        <time>2018-02-25T12:09:14.000Z</time>
      </trkpt>
      <trkpt lat="43.56634" lon="2.96749">
        <ele>172.1</ele>
        <time>2018-02-25T12:09:15.000Z</time>
      </trkpt>
      <trkpt lat="43.56635" lon="2.96745">
        <ele>172.1</ele>
        <time>2018-02-25T12:09:16.000Z</time>
      </trkpt>
      <trkpt lat="43.56637" lon="2.96742">
        <ele>172.1</ele>
        <time>2018-02-25T12:09:17.000Z</time>
      </trkpt>
      <trkpt lat="43.56638" lon="2.96738">
        <ele>172.1</ele>
        <time>2018-02-25T12:09:18.000Z</time>
      </trkpt>
      <trkpt lat="43.56639" lon="2.96734">
        <ele>172.1</ele>
        <time>2018-02-25T12:09:19.000Z</time>
      </trkpt>
      <trkpt lat="43.56641" lon="2.96731">
        <ele>172.1</ele>
        <time>2018-02-25T12:09:20.000Z</time>
      </trkpt>
      <trkpt lat="43.56643" lon="2.96727">
        <ele>172.1</ele>
        <time>2018-02-25T12:09:21.000Z</time>
      </trkpt>
      <trkpt lat="43.56644" lon="2.96723">
        <ele>172.1</ele>
        <time>2018-02-25T12:09:22.000Z</time>
      </trkpt>
      <trkpt lat="43.56645" lon="2.96719">
        <ele>172.1</ele>
        <time>2018-02-25T12:09:23.000Z</time>
      </trkpt>
      <trkpt lat="43.56647" lon="2.96716">
        <ele>172.1</ele>
        <time>2018-02-25T12:09:24.000Z</time>
      </trkpt>
      <trkpt lat="43.56648" lon="2.96712">
        <ele>172</ele>
        <time>2018-02-25T12:09:25.000Z</time>
      </trkpt>
      <trkpt lat="43.56649" lon="2.96709">
        <ele>172</ele>
        <time>2018-02-25T12:09:26.000Z</time>
      </trkpt>
      <trkpt lat="43.56651" lon="2.96706">
        <ele>172</ele>
        <time>2018-02-25T12:09:27.000Z</time>
      </trkpt>
      <trkpt lat="43.56653" lon="2.967">
        <ele>172</ele>
        <time>2018-02-25T12:09:29.000Z</time>
      </trkpt>
      <trkpt lat="43.56655" lon="2.96694">
        <ele>172</ele>
        <time>2018-02-25T12:09:31.000Z</time>
      </trkpt>
      <trkpt lat="43.56657" lon="2.9669">
        <ele>172</ele>
        <time>2018-02-25T12:09:32.000Z</time>
      </trkpt>
      <trkpt lat="43.56659" lon="2.96686">
        <ele>172</ele>
        <time>2018-02-25T12:09:33.000Z</time>
      </trkpt>
      <trkpt lat="43.5666" lon="2.96683">
        <ele>172</ele>
        <time>2018-02-25T12:09:34.000Z</time>
      </trkpt>
      <trkpt lat="43.56662" lon="2.96679">
        <ele>172</ele>
        <time>2018-02-25T12:09:35.000Z</time>
      </trkpt>
      <trkpt lat="43.56663" lon="2.96675">
        <ele>172</ele>
        <time>2018-02-25T12:09:36.000Z</time>
      </trkpt>
      <trkpt lat="43.56664" lon="2.96671">
        <ele>172</ele>
        <time>2018-02-25T12:09:37.000Z</time>
      </trkpt>
      <trkpt lat="43.56665" lon="2.96668">
        <ele>172.1</ele>
        <time>2018-02-25T12:09:38.000Z</time>
      </trkpt>
      <trkpt lat="43.56667" lon="2.96664">
        <ele>172.1</ele>
        <time>2018-02-25T12:09:39.000Z</time>
      </trkpt>
      <trkpt lat="43.56669" lon="2.9666">
        <ele>172.1</ele>
        <time>2018-02-25T12:09:40.000Z</time>
      </trkpt>
      <trkpt lat="43.56672" lon="2.96654">
        <ele>172.1</ele>
        <time>2018-02-25T12:09:42.000Z</time>
      </trkpt>
      <trkpt lat="43.56674" lon="2.9665">
        <ele>172.1</ele>
        <time>2018-02-25T12:09:43.000Z</time>
      </trkpt>
      <trkpt lat="43.56675" lon="2.96647">
        <ele>172.1</ele>
        <time>2018-02-25T12:09:44.000Z</time>
      </trkpt>
      <trkpt lat="43.56677" lon="2.9664">
        <ele>172.1</ele>
        <time>2018-02-25T12:09:46.000Z</time>
      </trkpt>
      <trkpt lat="43.56678" lon="2.96636">
        <ele>172.1</ele>
        <time>2018-02-25T12:09:47.000Z</time>
      </trkpt>
      <trkpt lat="43.5668" lon="2.96632">
        <ele>172.1</ele>
        <time>2018-02-25T12:09:48.000Z</time>
      </trkpt>
      <trkpt lat="43.56681" lon="2.96628">
        <ele>172.1</ele>
        <time>2018-02-25T12:09:49.000Z</time>
      </trkpt>
      <trkpt lat="43.56682" lon="2.96624">
        <ele>172</ele>
        <time>2018-02-25T12:09:50.000Z</time>
      </trkpt>
      <trkpt lat="43.56683" lon="2.9662">
        <ele>172</ele>
        <time>2018-02-25T12:09:51.000Z</time>
      </trkpt>
      <trkpt lat="43.56684" lon="2.96615">
        <ele>172</ele>
        <time>2018-02-25T12:09:52.000Z</time>
      </trkpt>
      <trkpt lat="43.56685" lon="2.96611">
        <ele>171.9</ele>
        <time>2018-02-25T12:09:53.000Z</time>
      </trkpt>
      <trkpt lat="43.56685" lon="2.96607">
        <ele>171.9</ele>
        <time>2018-02-25T12:09:54.000Z</time>
      </trkpt>
      <trkpt lat="43.56685" lon="2.966">
        <ele>171.8</ele>
        <time>2018-02-25T12:09:56.000Z</time>
      </trkpt>
      <trkpt lat="43.56685" lon="2.96597">
        <ele>171.7</ele>
        <time>2018-02-25T12:09:57.000Z</time>
      </trkpt>
      <trkpt lat="43.56684" lon="2.96593">
        <ele>171.7</ele>
        <time>2018-02-25T12:09:58.000Z</time>
      </trkpt>
      <trkpt lat="43.56684" lon="2.96586">
        <ele>171.6</ele>
        <time>2018-02-25T12:10:00.000Z</time>
      </trkpt>
      <trkpt lat="43.56683" lon="2.96579">
        <ele>171.5</ele>
        <time>2018-02-25T12:10:02.000Z</time>
      </trkpt>
      <trkpt lat="43.56683" lon="2.96572">
        <ele>171.3</ele>
        <time>2018-02-25T12:10:04.000Z</time>
      </trkpt>
      <trkpt lat="43.56682" lon="2.96566">
        <ele>171.2</ele>
        <time>2018-02-25T12:10:06.000Z</time>
      </trkpt>
      <trkpt lat="43.56682" lon="2.96559">
        <ele>170.7</ele>
        <time>2018-02-25T12:10:08.000Z</time>
      </trkpt>
      <trkpt lat="43.56684" lon="2.96554">
        <ele>170.6</ele>
        <time>2018-02-25T12:10:10.000Z</time>
      </trkpt>
      <trkpt lat="43.56687" lon="2.96553">
        <ele>170.5</ele>
        <time>2018-02-25T12:10:12.000Z</time>
      </trkpt>
      <trkpt lat="43.56691" lon="2.96552">
        <ele>170.5</ele>
        <time>2018-02-25T12:10:14.000Z</time>
      </trkpt>
      <trkpt lat="43.56695" lon="2.9655">
        <ele>170.5</ele>
        <time>2018-02-25T12:10:16.000Z</time>
      </trkpt>
      <trkpt lat="43.56698" lon="2.96549">
        <ele>170.5</ele>
        <time>2018-02-25T12:10:17.000Z</time>
      </trkpt>
      <trkpt lat="43.56701" lon="2.96548">
        <ele>170.5</ele>
        <time>2018-02-25T12:10:18.000Z</time>
      </trkpt>
      <trkpt lat="43.56704" lon="2.96547">
        <ele>170.5</ele>
        <time>2018-02-25T12:10:19.000Z</time>
      </trkpt>
      <trkpt lat="43.56708" lon="2.96546">
        <ele>170.6</ele>
        <time>2018-02-25T12:10:20.000Z</time>
      </trkpt>
      <trkpt lat="43.56713" lon="2.96544">
        <ele>170.6</ele>
        <time>2018-02-25T12:10:22.000Z</time>
      </trkpt>
      <trkpt lat="43.56716" lon="2.96543">
        <ele>170.7</ele>
        <time>2018-02-25T12:10:23.000Z</time>
      </trkpt>
      <trkpt lat="43.56719" lon="2.96542">
        <ele>170.7</ele>
        <time>2018-02-25T12:10:24.000Z</time>
      </trkpt>
      <trkpt lat="43.56723" lon="2.9654">
        <ele>170.8</ele>
        <time>2018-02-25T12:10:25.000Z</time>
      </trkpt>
      <trkpt lat="43.56726" lon="2.96539">
        <ele>170.8</ele>
        <time>2018-02-25T12:10:26.000Z</time>
      </trkpt>
      <trkpt lat="43.56728" lon="2.96538">
        <ele>170.9</ele>
        <time>2018-02-25T12:10:27.000Z</time>
      </trkpt>
      <trkpt lat="43.56733" lon="2.96535">
        <ele>171.5</ele>
        <time>2018-02-25T12:10:29.000Z</time>
      </trkpt>
      <trkpt lat="43.56735" lon="2.96533">
        <ele>172</ele>
        <time>2018-02-25T12:10:30.000Z</time>
      </trkpt>
      <trkpt lat="43.56737" lon="2.96529">
        <ele>172.4</ele>
        <time>2018-02-25T12:10:31.000Z</time>
      </trkpt>
      <trkpt lat="43.56739" lon="2.96526">
        <ele>172.9</ele>
        <time>2018-02-25T12:10:32.000Z</time>
      </trkpt>
      <trkpt lat="43.56741" lon="2.96523">
        <ele>173.3</ele>
        <time>2018-02-25T12:10:33.000Z</time>
      </trkpt>
      <trkpt lat="43.56743" lon="2.96518">
        <ele>173.9</ele>
        <time>2018-02-25T12:10:35.000Z</time>
      </trkpt>
      <trkpt lat="43.56746" lon="2.96514">
        <ele>174.5</ele>
        <time>2018-02-25T12:10:37.000Z</time>
      </trkpt>
      <trkpt lat="43.56749" lon="2.96509">
        <ele>175.1</ele>
        <time>2018-02-25T12:10:39.000Z</time>
      </trkpt>
      <trkpt lat="43.56752" lon="2.96506">
        <ele>175.8</ele>
        <time>2018-02-25T12:10:41.000Z</time>
      </trkpt>
      <trkpt lat="43.56756" lon="2.96502">
        <ele>176.4</ele>
        <time>2018-02-25T12:10:43.000Z</time>
      </trkpt>
      <trkpt lat="43.56759" lon="2.96499">
        <ele>177.1</ele>
        <time>2018-02-25T12:10:45.000Z</time>
      </trkpt>
      <trkpt lat="43.56763" lon="2.96496">
        <ele>177.7</ele>
        <time>2018-02-25T12:10:47.000Z</time>
      </trkpt>
      <trkpt lat="43.56766" lon="2.96493">
        <ele>178.4</ele>
        <time>2018-02-25T12:10:50.000Z</time>
      </trkpt>
      <trkpt lat="43.56769" lon="2.96491">
        <ele>178.9</ele>
        <time>2018-02-25T12:10:52.000Z</time>
      </trkpt>
      <trkpt lat="43.56772" lon="2.96489">
        <ele>179</ele>
        <time>2018-02-25T12:10:54.000Z</time>
      </trkpt>
      <trkpt lat="43.56775" lon="2.96486">
        <ele>179</ele>
        <time>2018-02-25T12:10:57.000Z</time>
      </trkpt>
      <trkpt lat="43.56777" lon="2.96485">
        <ele>179</ele>
        <time>2018-02-25T12:10:59.000Z</time>
      </trkpt>
      <trkpt lat="43.56781" lon="2.96484">
        <ele>179</ele>
        <time>2018-02-25T12:11:01.000Z</time>
      </trkpt>
      <trkpt lat="43.56783" lon="2.96482">
        <ele>179</ele>
        <time>2018-02-25T12:11:03.000Z</time>
      </trkpt>
      <trkpt lat="43.56786" lon="2.9648">
        <ele>179</ele>
        <time>2018-02-25T12:11:05.000Z</time>
      </trkpt>
      <trkpt lat="43.56789" lon="2.96478">
        <ele>179</ele>
        <time>2018-02-25T12:11:07.000Z</time>
      </trkpt>
      <trkpt lat="43.56792" lon="2.96477">
        <ele>179</ele>
        <time>2018-02-25T12:11:09.000Z</time>
      </trkpt>
      <trkpt lat="43.56796" lon="2.96476">
        <ele>179</ele>
        <time>2018-02-25T12:11:11.000Z</time>
      </trkpt>
      <trkpt lat="43.568" lon="2.96474">
        <ele>179</ele>
        <time>2018-02-25T12:11:13.000Z</time>
      </trkpt>
      <trkpt lat="43.56803" lon="2.96473">
        <ele>179</ele>
        <time>2018-02-25T12:11:15.000Z</time>
      </trkpt>
      <trkpt lat="43.56807" lon="2.96471">
        <ele>179</ele>
        <time>2018-02-25T12:11:17.000Z</time>
      </trkpt>
      <trkpt lat="43.5681" lon="2.96469">
        <ele>179</ele>
        <time>2018-02-25T12:11:19.000Z</time>
      </trkpt>
      <trkpt lat="43.56813" lon="2.96467">
        <ele>179</ele>
        <time>2018-02-25T12:11:21.000Z</time>
      </trkpt>
      <trkpt lat="43.56815" lon="2.96464">
        <ele>179.1</ele>
        <time>2018-02-25T12:11:23.000Z</time>
      </trkpt>
      <trkpt lat="43.56816" lon="2.96459">
        <ele>179.2</ele>
        <time>2018-02-25T12:11:25.000Z</time>
      </trkpt>
      <trkpt lat="43.56815" lon="2.96453">
        <ele>179.3</ele>
        <time>2018-02-25T12:11:27.000Z</time>
      </trkpt>
      <trkpt lat="43.56814" lon="2.96447">
        <ele>179.4</ele>
        <time>2018-02-25T12:11:29.000Z</time>
      </trkpt>
      <trkpt lat="43.56813" lon="2.96442">
        <ele>179.5</ele>
        <time>2018-02-25T12:11:31.000Z</time>
      </trkpt>
      <trkpt lat="43.56814" lon="2.96438">
        <ele>179.6</ele>
        <time>2018-02-25T12:11:32.000Z</time>
      </trkpt>
      <trkpt lat="43.56813" lon="2.96431">
        <ele>179.8</ele>
        <time>2018-02-25T12:11:34.000Z</time>
      </trkpt>
      <trkpt lat="43.5681" lon="2.96426">
        <ele>180</ele>
        <time>2018-02-25T12:11:36.000Z</time>
      </trkpt>
      <trkpt lat="43.56808" lon="2.96422">
        <ele>180.1</ele>
        <time>2018-02-25T12:11:37.000Z</time>
      </trkpt>
      <trkpt lat="43.56806" lon="2.96419">
        <ele>180.3</ele>
        <time>2018-02-25T12:11:38.000Z</time>
      </trkpt>
      <trkpt lat="43.56804" lon="2.96415">
        <ele>180.3</ele>
        <time>2018-02-25T12:11:39.000Z</time>
      </trkpt>
      <trkpt lat="43.56802" lon="2.96412">
        <ele>180.4</ele>
        <time>2018-02-25T12:11:40.000Z</time>
      </trkpt>
      <trkpt lat="43.56799" lon="2.96406">
        <ele>180.6</ele>
        <time>2018-02-25T12:11:42.000Z</time>
      </trkpt>
      <trkpt lat="43.56796" lon="2.964">
        <ele>180.7</ele>
        <time>2018-02-25T12:11:44.000Z</time>
      </trkpt>
      <trkpt lat="43.56794" lon="2.96395">
        <ele>180.8</ele>
        <time>2018-02-25T12:11:46.000Z</time>
      </trkpt>
      <trkpt lat="43.56792" lon="2.96392">
        <ele>180.9</ele>
        <time>2018-02-25T12:11:47.000Z</time>
      </trkpt>
      <trkpt lat="43.5679" lon="2.96389">
        <ele>181</ele>
        <time>2018-02-25T12:11:48.000Z</time>
      </trkpt>
      <trkpt lat="43.56788" lon="2.96385">
        <ele>181.1</ele>
        <time>2018-02-25T12:11:49.000Z</time>
      </trkpt>
      <trkpt lat="43.56787" lon="2.96382">
        <ele>181.3</ele>
        <time>2018-02-25T12:11:50.000Z</time>
      </trkpt>
      <trkpt lat="43.56785" lon="2.96377">
        <ele>181.7</ele>
        <time>2018-02-25T12:11:52.000Z</time>
      </trkpt>
      <trkpt lat="43.56783" lon="2.96373">
        <ele>181.9</ele>
        <time>2018-02-25T12:11:54.000Z</time>
      </trkpt>
      <trkpt lat="43.5678" lon="2.96375">
        <ele>182.4</ele>
        <time>2018-02-25T12:11:57.000Z</time>
      </trkpt>
      <trkpt lat="43.56775" lon="2.96373">
        <ele>182.9</ele>
        <time>2018-02-25T12:11:59.000Z</time>
      </trkpt>
      <trkpt lat="43.5677" lon="2.96372">
        <ele>182.7</ele>
        <time>2018-02-25T12:12:01.000Z</time>
      </trkpt>
      <trkpt lat="43.56767" lon="2.96372">
        <ele>182.6</ele>
        <time>2018-02-25T12:12:02.000Z</time>
      </trkpt>
      <trkpt lat="43.56763" lon="2.96372">
        <ele>182.5</ele>
        <time>2018-02-25T12:12:04.000Z</time>
      </trkpt>
      <trkpt lat="43.5676" lon="2.96369">
        <ele>182.3</ele>
        <time>2018-02-25T12:12:06.000Z</time>
      </trkpt>
      <trkpt lat="43.56758" lon="2.96366">
        <ele>182.3</ele>
        <time>2018-02-25T12:12:07.000Z</time>
      </trkpt>
      <trkpt lat="43.56751" lon="2.9635">
        <ele>181.8</ele>
        <time>2018-02-25T12:12:11.000Z</time>
      </trkpt>
      <trkpt lat="43.56749" lon="2.96346">
        <ele>181.7</ele>
        <time>2018-02-25T12:12:12.000Z</time>
      </trkpt>
      <trkpt lat="43.56747" lon="2.96342">
        <ele>181.5</ele>
        <time>2018-02-25T12:12:13.000Z</time>
      </trkpt>
      <trkpt lat="43.56746" lon="2.96338">
        <ele>181.4</ele>
        <time>2018-02-25T12:12:14.000Z</time>
      </trkpt>
      <trkpt lat="43.56744" lon="2.96334">
        <ele>181.4</ele>
        <time>2018-02-25T12:12:15.000Z</time>
      </trkpt>
      <trkpt lat="43.56743" lon="2.96329">
        <ele>181.3</ele>
        <time>2018-02-25T12:12:16.000Z</time>
      </trkpt>
      <trkpt lat="43.56741" lon="2.96323">
        <ele>181.2</ele>
        <time>2018-02-25T12:12:17.000Z</time>
      </trkpt>
      <trkpt lat="43.56739" lon="2.96318">
        <ele>181.2</ele>
        <time>2018-02-25T12:12:18.000Z</time>
      </trkpt>
      <trkpt lat="43.56737" lon="2.96313">
        <ele>181.1</ele>
        <time>2018-02-25T12:12:19.000Z</time>
      </trkpt>
      <trkpt lat="43.56736" lon="2.96309">
        <ele>181</ele>
        <time>2018-02-25T12:12:20.000Z</time>
      </trkpt>
      <trkpt lat="43.56734" lon="2.96303">
        <ele>181</ele>
        <time>2018-02-25T12:12:22.000Z</time>
      </trkpt>
      <trkpt lat="43.56732" lon="2.96299">
        <ele>180.9</ele>
        <time>2018-02-25T12:12:23.000Z</time>
      </trkpt>
      <trkpt lat="43.5673" lon="2.96295">
        <ele>180.8</ele>
        <time>2018-02-25T12:12:24.000Z</time>
      </trkpt>
      <trkpt lat="43.56728" lon="2.96291">
        <ele>180.8</ele>
        <time>2018-02-25T12:12:25.000Z</time>
      </trkpt>
      <trkpt lat="43.56727" lon="2.96286">
        <ele>180.7</ele>
        <time>2018-02-25T12:12:26.000Z</time>
      </trkpt>
      <trkpt lat="43.56725" lon="2.96281">
        <ele>180.6</ele>
        <time>2018-02-25T12:12:27.000Z</time>
      </trkpt>
      <trkpt lat="43.56723" lon="2.96277">
        <ele>180.5</ele>
        <time>2018-02-25T12:12:28.000Z</time>
      </trkpt>
      <trkpt lat="43.56722" lon="2.96272">
        <ele>180.4</ele>
        <time>2018-02-25T12:12:29.000Z</time>
      </trkpt>
      <trkpt lat="43.5672" lon="2.96267">
        <ele>180.3</ele>
        <time>2018-02-25T12:12:30.000Z</time>
      </trkpt>
      <trkpt lat="43.56718" lon="2.96263">
        <ele>180.2</ele>
        <time>2018-02-25T12:12:31.000Z</time>
      </trkpt>
      <trkpt lat="43.56717" lon="2.96259">
        <ele>180.1</ele>
        <time>2018-02-25T12:12:32.000Z</time>
      </trkpt>
      <trkpt lat="43.56715" lon="2.96254">
        <ele>180.1</ele>
        <time>2018-02-25T12:12:33.000Z</time>
      </trkpt>
      <trkpt lat="43.56714" lon="2.9625">
        <ele>180.2</ele>
        <time>2018-02-25T12:12:34.000Z</time>
      </trkpt>
      <trkpt lat="43.56712" lon="2.96246">
        <ele>180.4</ele>
        <time>2018-02-25T12:12:35.000Z</time>
      </trkpt>
      <trkpt lat="43.56711" lon="2.96242">
        <ele>180.5</ele>
        <time>2018-02-25T12:12:36.000Z</time>
      </trkpt>
      <trkpt lat="43.56709" lon="2.96236">
        <ele>180.7</ele>
        <time>2018-02-25T12:12:38.000Z</time>
      </trkpt>
      <trkpt lat="43.56707" lon="2.9623">
        <ele>180.9</ele>
        <time>2018-02-25T12:12:40.000Z</time>
      </trkpt>
      <trkpt lat="43.56706" lon="2.96224">
        <ele>181.1</ele>
        <time>2018-02-25T12:12:42.000Z</time>
      </trkpt>
      <trkpt lat="43.56705" lon="2.96219">
        <ele>181.4</ele>
        <time>2018-02-25T12:12:44.000Z</time>
      </trkpt>
      <trkpt lat="43.56703" lon="2.96214">
        <ele>181.7</ele>
        <time>2018-02-25T12:12:46.000Z</time>
      </trkpt>
      <trkpt lat="43.56701" lon="2.9621">
        <ele>181.8</ele>
        <time>2018-02-25T12:12:47.000Z</time>
      </trkpt>
      <trkpt lat="43.567" lon="2.96206">
        <ele>181.9</ele>
        <time>2018-02-25T12:12:48.000Z</time>
      </trkpt>
      <trkpt lat="43.56698" lon="2.96199">
        <ele>182.1</ele>
        <time>2018-02-25T12:12:50.000Z</time>
      </trkpt>
      <trkpt lat="43.56697" lon="2.96196">
        <ele>182.3</ele>
        <time>2018-02-25T12:12:51.000Z</time>
      </trkpt>
      <trkpt lat="43.56695" lon="2.96189">
        <ele>182.5</ele>
        <time>2018-02-25T12:12:53.000Z</time>
      </trkpt>
      <trkpt lat="43.56693" lon="2.96183">
        <ele>182.6</ele>
        <time>2018-02-25T12:12:55.000Z</time>
      </trkpt>
      <trkpt lat="43.56691" lon="2.96177">
        <ele>182.8</ele>
        <time>2018-02-25T12:12:57.000Z</time>
      </trkpt>
      <trkpt lat="43.5669" lon="2.96173">
        <ele>183</ele>
        <time>2018-02-25T12:12:58.000Z</time>
      </trkpt>
      <trkpt lat="43.56687" lon="2.96167">
        <ele>183.1</ele>
        <time>2018-02-25T12:13:00.000Z</time>
      </trkpt>
      <trkpt lat="43.56685" lon="2.96163">
        <ele>183.2</ele>
        <time>2018-02-25T12:13:01.000Z</time>
      </trkpt>
      <trkpt lat="43.56684" lon="2.96159">
        <ele>183.3</ele>
        <time>2018-02-25T12:13:02.000Z</time>
      </trkpt>
      <trkpt lat="43.56683" lon="2.96155">
        <ele>183.4</ele>
        <time>2018-02-25T12:13:03.000Z</time>
      </trkpt>
      <trkpt lat="43.56682" lon="2.9615">
        <ele>183.5</ele>
        <time>2018-02-25T12:13:04.000Z</time>
      </trkpt>
      <trkpt lat="43.5668" lon="2.96146">
        <ele>183.6</ele>
        <time>2018-02-25T12:13:05.000Z</time>
      </trkpt>
      <trkpt lat="43.56679" lon="2.96139">
        <ele>183.7</ele>
        <time>2018-02-25T12:13:07.000Z</time>
      </trkpt>
      <trkpt lat="43.56678" lon="2.96136">
        <ele>183.7</ele>
        <time>2018-02-25T12:13:08.000Z</time>
      </trkpt>
      <trkpt lat="43.56677" lon="2.9613">
        <ele>183.8</ele>
        <time>2018-02-25T12:13:10.000Z</time>
      </trkpt>
      <trkpt lat="43.56678" lon="2.96125">
        <ele>183.8</ele>
        <time>2018-02-25T12:13:12.000Z</time>
      </trkpt>
      <trkpt lat="43.56679" lon="2.96122">
        <ele>183.9</ele>
        <time>2018-02-25T12:13:13.000Z</time>
      </trkpt>
      <trkpt lat="43.56682" lon="2.96117">
        <ele>183.9</ele>
        <time>2018-02-25T12:13:15.000Z</time>
      </trkpt>
      <trkpt lat="43.56685" lon="2.96116">
        <ele>183.9</ele>
        <time>2018-02-25T12:13:17.000Z</time>
      </trkpt>
      <trkpt lat="43.56688" lon="2.96116">
        <ele>183.9</ele>
        <time>2018-02-25T12:13:19.000Z</time>
      </trkpt>
      <trkpt lat="43.56692" lon="2.96117">
        <ele>184</ele>
        <time>2018-02-25T12:13:23.000Z</time>
      </trkpt>
      <trkpt lat="43.56695" lon="2.96116">
        <ele>184.1</ele>
        <time>2018-02-25T12:13:29.000Z</time>
      </trkpt>
      <trkpt lat="43.56695" lon="2.96112">
        <ele>184.1</ele>
        <time>2018-02-25T12:13:36.000Z</time>
      </trkpt>
      <trkpt lat="43.56692" lon="2.96112">
        <ele>184.2</ele>
        <time>2018-02-25T12:13:40.000Z</time>
      </trkpt>
      <trkpt lat="43.5669" lon="2.96109">
        <ele>184.2</ele>
        <time>2018-02-25T12:13:54.000Z</time>
      </trkpt>
      <trkpt lat="43.5669" lon="2.96105">
        <ele>184.3</ele>
        <time>2018-02-25T12:13:57.000Z</time>
      </trkpt>
      <trkpt lat="43.56689" lon="2.96101">
        <ele>184.4</ele>
        <time>2018-02-25T12:14:00.000Z</time>
      </trkpt>
      <trkpt lat="43.56688" lon="2.96098">
        <ele>184.4</ele>
        <time>2018-02-25T12:14:03.000Z</time>
      </trkpt>
      <trkpt lat="43.56687" lon="2.96094">
        <ele>184.5</ele>
        <time>2018-02-25T12:14:08.000Z</time>
      </trkpt>
      <trkpt lat="43.56685" lon="2.96092">
        <ele>184.6</ele>
        <time>2018-02-25T12:14:11.000Z</time>
      </trkpt>
      <trkpt lat="43.56681" lon="2.9609">
        <ele>184.7</ele>
        <time>2018-02-25T12:14:15.000Z</time>
      </trkpt>
    </trkseg>
  </trk>
</gpx>